<?xml version="1.0" encoding="UTF-8" standalone="no" ?>
<gpx xmlns="http://www.topografix.com/GPX/1/1" xmlns:xsi="http://www.w3.org/2001/XMLSchema-instance" xsi:schemaLocation="http://www.topografix.com/GPX/1/1 http://www.topografix.com/GPX/1/1/gpx.xsd" version="1.1" creator="VisuGPX - https://www.visugpx.com">
  <metadata>
    <name>La Boissière 03042021</name>
  </metadata>
  <trk>
    <name><![CDATA[La Boissière 03042021_1]]></name>
    <trkseg>
      <trkpt lat="43.62567" lon="3.6368">
        <ele>197.5</ele>
        <time>2021-04-03T09:18:00Z</time>
      </trkpt>
      <trkpt lat="43.62574" lon="3.63661">
        <ele>196.8</ele>
        <time>2021-04-03T09:18:01Z</time>
      </trkpt>
      <trkpt lat="43.6243" lon="3.6223">
        <ele>209</ele>
        <time>2021-04-03T09:25:32Z</time>
      </trkpt>
      <trkpt lat="43.62433" lon="3.62226">
        <ele>210</ele>
        <time>2021-04-03T09:28:20Z</time>
      </trkpt>
      <trkpt lat="43.62433" lon="3.62222">
        <ele>210</ele>
        <time>2021-04-03T09:28:22Z</time>
      </trkpt>
      <trkpt lat="43.62432" lon="3.62219">
        <ele>210</ele>
        <time>2021-04-03T09:28:24Z</time>
      </trkpt>
      <trkpt lat="43.62431" lon="3.62216">
        <ele>210</ele>
        <time>2021-04-03T09:28:26Z</time>
      </trkpt>
      <trkpt lat="43.62431" lon="3.62213">
        <ele>210</ele>
        <time>2021-04-03T09:28:28Z</time>
      </trkpt>
      <trkpt lat="43.62431" lon="3.62209">
        <ele>210</ele>
        <time>2021-04-03T09:28:30Z</time>
      </trkpt>
      <trkpt lat="43.62432" lon="3.62206">
        <ele>210</ele>
        <time>2021-04-03T09:28:32Z</time>
      </trkpt>
      <trkpt lat="43.62432" lon="3.62202">
        <ele>210</ele>
        <time>2021-04-03T09:28:34Z</time>
      </trkpt>
      <trkpt lat="43.62433" lon="3.62198">
        <ele>210</ele>
        <time>2021-04-03T09:28:36Z</time>
      </trkpt>
      <trkpt lat="43.62434" lon="3.62195">
        <ele>210</ele>
        <time>2021-04-03T09:28:38Z</time>
      </trkpt>
      <trkpt lat="43.62434" lon="3.62191">
        <ele>211</ele>
        <time>2021-04-03T09:28:40Z</time>
      </trkpt>
      <trkpt lat="43.62435" lon="3.62188">
        <ele>211</ele>
        <time>2021-04-03T09:28:42Z</time>
      </trkpt>
      <trkpt lat="43.62435" lon="3.62185">
        <ele>211</ele>
        <time>2021-04-03T09:28:44Z</time>
      </trkpt>
      <trkpt lat="43.62435" lon="3.62181">
        <ele>211</ele>
        <time>2021-04-03T09:28:46Z</time>
      </trkpt>
      <trkpt lat="43.62436" lon="3.62178">
        <ele>211</ele>
        <time>2021-04-03T09:28:48Z</time>
      </trkpt>
      <trkpt lat="43.62437" lon="3.62175">
        <ele>211</ele>
        <time>2021-04-03T09:28:50Z</time>
      </trkpt>
      <trkpt lat="43.62436" lon="3.62171">
        <ele>211</ele>
        <time>2021-04-03T09:28:53Z</time>
      </trkpt>
      <trkpt lat="43.62436" lon="3.62168">
        <ele>211</ele>
        <time>2021-04-03T09:28:55Z</time>
      </trkpt>
      <trkpt lat="43.62436" lon="3.62164">
        <ele>211</ele>
        <time>2021-04-03T09:28:57Z</time>
      </trkpt>
      <trkpt lat="43.62437" lon="3.62161">
        <ele>214</ele>
        <time>2021-04-03T09:28:59Z</time>
      </trkpt>
      <trkpt lat="43.62438" lon="3.62158">
        <ele>214</ele>
        <time>2021-04-03T09:29:01Z</time>
      </trkpt>
      <trkpt lat="43.62438" lon="3.62154">
        <ele>214</ele>
        <time>2021-04-03T09:29:03Z</time>
      </trkpt>
      <trkpt lat="43.62438" lon="3.6215">
        <ele>214</ele>
        <time>2021-04-03T09:29:05Z</time>
      </trkpt>
      <trkpt lat="43.62439" lon="3.62146">
        <ele>214</ele>
        <time>2021-04-03T09:29:07Z</time>
      </trkpt>
      <trkpt lat="43.62439" lon="3.62142">
        <ele>214</ele>
        <time>2021-04-03T09:29:09Z</time>
      </trkpt>
      <trkpt lat="43.6244" lon="3.62138">
        <ele>214</ele>
        <time>2021-04-03T09:29:11Z</time>
      </trkpt>
      <trkpt lat="43.62442" lon="3.62134">
        <ele>214</ele>
        <time>2021-04-03T09:29:13Z</time>
      </trkpt>
      <trkpt lat="43.62442" lon="3.6213">
        <ele>214</ele>
        <time>2021-04-03T09:29:15Z</time>
      </trkpt>
      <trkpt lat="43.62443" lon="3.62125">
        <ele>214</ele>
        <time>2021-04-03T09:29:17Z</time>
      </trkpt>
      <trkpt lat="43.62444" lon="3.62122">
        <ele>214</ele>
        <time>2021-04-03T09:29:18Z</time>
      </trkpt>
      <trkpt lat="43.62445" lon="3.62118">
        <ele>214</ele>
        <time>2021-04-03T09:29:20Z</time>
      </trkpt>
      <trkpt lat="43.62445" lon="3.62113">
        <ele>214</ele>
        <time>2021-04-03T09:29:22Z</time>
      </trkpt>
      <trkpt lat="43.62446" lon="3.62109">
        <ele>214</ele>
        <time>2021-04-03T09:29:24Z</time>
      </trkpt>
      <trkpt lat="43.62447" lon="3.62105">
        <ele>214</ele>
        <time>2021-04-03T09:29:26Z</time>
      </trkpt>
      <trkpt lat="43.62448" lon="3.62101">
        <ele>214</ele>
        <time>2021-04-03T09:29:28Z</time>
      </trkpt>
      <trkpt lat="43.62449" lon="3.62097">
        <ele>219</ele>
        <time>2021-04-03T09:29:30Z</time>
      </trkpt>
      <trkpt lat="43.6245" lon="3.62092">
        <ele>219</ele>
        <time>2021-04-03T09:29:32Z</time>
      </trkpt>
      <trkpt lat="43.62451" lon="3.62088">
        <ele>219</ele>
        <time>2021-04-03T09:29:34Z</time>
      </trkpt>
      <trkpt lat="43.62452" lon="3.62084">
        <ele>219</ele>
        <time>2021-04-03T09:29:36Z</time>
      </trkpt>
      <trkpt lat="43.62453" lon="3.6208">
        <ele>219</ele>
        <time>2021-04-03T09:29:38Z</time>
      </trkpt>
      <trkpt lat="43.62454" lon="3.62076">
        <ele>219</ele>
        <time>2021-04-03T09:29:40Z</time>
      </trkpt>
      <trkpt lat="43.62455" lon="3.62073">
        <ele>219</ele>
        <time>2021-04-03T09:29:42Z</time>
      </trkpt>
      <trkpt lat="43.62457" lon="3.62068">
        <ele>219</ele>
        <time>2021-04-03T09:29:44Z</time>
      </trkpt>
      <trkpt lat="43.62458" lon="3.62065">
        <ele>219</ele>
        <time>2021-04-03T09:29:46Z</time>
      </trkpt>
      <trkpt lat="43.62459" lon="3.62061">
        <ele>219</ele>
        <time>2021-04-03T09:29:48Z</time>
      </trkpt>
      <trkpt lat="43.6246" lon="3.62058">
        <ele>219</ele>
        <time>2021-04-03T09:29:50Z</time>
      </trkpt>
      <trkpt lat="43.62462" lon="3.62055">
        <ele>219</ele>
        <time>2021-04-03T09:29:52Z</time>
      </trkpt>
      <trkpt lat="43.62463" lon="3.62053">
        <ele>219</ele>
        <time>2021-04-03T09:29:54Z</time>
      </trkpt>
      <trkpt lat="43.62465" lon="3.6205">
        <ele>219</ele>
        <time>2021-04-03T09:29:56Z</time>
      </trkpt>
      <trkpt lat="43.62466" lon="3.62048">
        <ele>219</ele>
        <time>2021-04-03T09:29:58Z</time>
      </trkpt>
      <trkpt lat="43.62467" lon="3.62045">
        <ele>219</ele>
        <time>2021-04-03T09:30:00Z</time>
      </trkpt>
      <trkpt lat="43.62468" lon="3.62042">
        <ele>219</ele>
        <time>2021-04-03T09:30:01Z</time>
      </trkpt>
      <trkpt lat="43.6247" lon="3.62039">
        <ele>219</ele>
        <time>2021-04-03T09:30:03Z</time>
      </trkpt>
      <trkpt lat="43.62471" lon="3.62037">
        <ele>219</ele>
        <time>2021-04-03T09:30:06Z</time>
      </trkpt>
      <trkpt lat="43.62473" lon="3.62034">
        <ele>219</ele>
        <time>2021-04-03T09:30:07Z</time>
      </trkpt>
      <trkpt lat="43.62474" lon="3.62032">
        <ele>219</ele>
        <time>2021-04-03T09:30:10Z</time>
      </trkpt>
      <trkpt lat="43.62475" lon="3.62028">
        <ele>219</ele>
        <time>2021-04-03T09:30:12Z</time>
      </trkpt>
      <trkpt lat="43.62476" lon="3.62026">
        <ele>219</ele>
        <time>2021-04-03T09:30:14Z</time>
      </trkpt>
      <trkpt lat="43.62477" lon="3.62023">
        <ele>219</ele>
        <time>2021-04-03T09:30:16Z</time>
      </trkpt>
      <trkpt lat="43.62479" lon="3.6202">
        <ele>219</ele>
        <time>2021-04-03T09:30:18Z</time>
      </trkpt>
      <trkpt lat="43.6248" lon="3.62018">
        <ele>228</ele>
        <time>2021-04-03T09:30:20Z</time>
      </trkpt>
      <trkpt lat="43.62481" lon="3.62015">
        <ele>228</ele>
        <time>2021-04-03T09:30:22Z</time>
      </trkpt>
      <trkpt lat="43.62482" lon="3.62012">
        <ele>228</ele>
        <time>2021-04-03T09:30:24Z</time>
      </trkpt>
      <trkpt lat="43.62483" lon="3.6201">
        <ele>228</ele>
        <time>2021-04-03T09:30:26Z</time>
      </trkpt>
      <trkpt lat="43.62484" lon="3.62007">
        <ele>228</ele>
        <time>2021-04-03T09:30:28Z</time>
      </trkpt>
      <trkpt lat="43.62486" lon="3.62004">
        <ele>228</ele>
        <time>2021-04-03T09:30:30Z</time>
      </trkpt>
      <trkpt lat="43.62486" lon="3.62">
        <ele>228</ele>
        <time>2021-04-03T09:30:32Z</time>
      </trkpt>
      <trkpt lat="43.62487" lon="3.61997">
        <ele>228</ele>
        <time>2021-04-03T09:30:34Z</time>
      </trkpt>
      <trkpt lat="43.62489" lon="3.61994">
        <ele>228</ele>
        <time>2021-04-03T09:30:36Z</time>
      </trkpt>
      <trkpt lat="43.62489" lon="3.6199">
        <ele>228</ele>
        <time>2021-04-03T09:30:38Z</time>
      </trkpt>
      <trkpt lat="43.62491" lon="3.61986">
        <ele>228</ele>
        <time>2021-04-03T09:30:40Z</time>
      </trkpt>
      <trkpt lat="43.62492" lon="3.61983">
        <ele>228</ele>
        <time>2021-04-03T09:30:42Z</time>
      </trkpt>
      <trkpt lat="43.62493" lon="3.61979">
        <ele>228</ele>
        <time>2021-04-03T09:30:44Z</time>
      </trkpt>
      <trkpt lat="43.62493" lon="3.61975">
        <ele>228</ele>
        <time>2021-04-03T09:30:46Z</time>
      </trkpt>
      <trkpt lat="43.62494" lon="3.61971">
        <ele>228</ele>
        <time>2021-04-03T09:30:48Z</time>
      </trkpt>
      <trkpt lat="43.62495" lon="3.61968">
        <ele>228</ele>
        <time>2021-04-03T09:30:50Z</time>
      </trkpt>
      <trkpt lat="43.62496" lon="3.61965">
        <ele>228</ele>
        <time>2021-04-03T09:30:52Z</time>
      </trkpt>
      <trkpt lat="43.62497" lon="3.61962">
        <ele>228</ele>
        <time>2021-04-03T09:30:54Z</time>
      </trkpt>
      <trkpt lat="43.62498" lon="3.61958">
        <ele>228</ele>
        <time>2021-04-03T09:30:56Z</time>
      </trkpt>
      <trkpt lat="43.62499" lon="3.61954">
        <ele>228</ele>
        <time>2021-04-03T09:30:58Z</time>
      </trkpt>
      <trkpt lat="43.62501" lon="3.6195">
        <ele>228</ele>
        <time>2021-04-03T09:31:00Z</time>
      </trkpt>
      <trkpt lat="43.62502" lon="3.61945">
        <ele>228</ele>
        <time>2021-04-03T09:31:02Z</time>
      </trkpt>
      <trkpt lat="43.62503" lon="3.61941">
        <ele>228</ele>
        <time>2021-04-03T09:31:04Z</time>
      </trkpt>
      <trkpt lat="43.62504" lon="3.61937">
        <ele>228</ele>
        <time>2021-04-03T09:31:06Z</time>
      </trkpt>
      <trkpt lat="43.62505" lon="3.61933">
        <ele>228</ele>
        <time>2021-04-03T09:31:08Z</time>
      </trkpt>
      <trkpt lat="43.62506" lon="3.61929">
        <ele>228</ele>
        <time>2021-04-03T09:31:10Z</time>
      </trkpt>
      <trkpt lat="43.62507" lon="3.61924">
        <ele>228</ele>
        <time>2021-04-03T09:31:12Z</time>
      </trkpt>
      <trkpt lat="43.62508" lon="3.6192">
        <ele>228</ele>
        <time>2021-04-03T09:31:14Z</time>
      </trkpt>
      <trkpt lat="43.6251" lon="3.61916">
        <ele>228</ele>
        <time>2021-04-03T09:31:16Z</time>
      </trkpt>
      <trkpt lat="43.62511" lon="3.61912">
        <ele>228</ele>
        <time>2021-04-03T09:31:18Z</time>
      </trkpt>
      <trkpt lat="43.62511" lon="3.61908">
        <ele>228</ele>
        <time>2021-04-03T09:31:20Z</time>
      </trkpt>
      <trkpt lat="43.62512" lon="3.61905">
        <ele>228</ele>
        <time>2021-04-03T09:31:22Z</time>
      </trkpt>
      <trkpt lat="43.62513" lon="3.619">
        <ele>228</ele>
        <time>2021-04-03T09:31:24Z</time>
      </trkpt>
      <trkpt lat="43.62514" lon="3.61897">
        <ele>228</ele>
        <time>2021-04-03T09:31:26Z</time>
      </trkpt>
      <trkpt lat="43.62515" lon="3.61892">
        <ele>228</ele>
        <time>2021-04-03T09:31:28Z</time>
      </trkpt>
      <trkpt lat="43.62516" lon="3.61888">
        <ele>236</ele>
        <time>2021-04-03T09:31:30Z</time>
      </trkpt>
      <trkpt lat="43.62517" lon="3.61884">
        <ele>236</ele>
        <time>2021-04-03T09:31:32Z</time>
      </trkpt>
      <trkpt lat="43.62518" lon="3.61882">
        <ele>236</ele>
        <time>2021-04-03T09:31:33Z</time>
      </trkpt>
      <trkpt lat="43.62519" lon="3.6188">
        <ele>236</ele>
        <time>2021-04-03T09:31:34Z</time>
      </trkpt>
      <trkpt lat="43.62521" lon="3.61876">
        <ele>236</ele>
        <time>2021-04-03T09:31:36Z</time>
      </trkpt>
      <trkpt lat="43.62522" lon="3.61872">
        <ele>236</ele>
        <time>2021-04-03T09:31:38Z</time>
      </trkpt>
      <trkpt lat="43.62524" lon="3.61868">
        <ele>236</ele>
        <time>2021-04-03T09:31:40Z</time>
      </trkpt>
      <trkpt lat="43.62526" lon="3.61864">
        <ele>236</ele>
        <time>2021-04-03T09:31:42Z</time>
      </trkpt>
      <trkpt lat="43.62527" lon="3.61863">
        <ele>236</ele>
        <time>2021-04-03T09:31:43Z</time>
      </trkpt>
      <trkpt lat="43.6253" lon="3.6186">
        <ele>236</ele>
        <time>2021-04-03T09:31:45Z</time>
      </trkpt>
      <trkpt lat="43.62533" lon="3.6186">
        <ele>236</ele>
        <time>2021-04-03T09:31:47Z</time>
      </trkpt>
      <trkpt lat="43.62536" lon="3.61861">
        <ele>236</ele>
        <time>2021-04-03T09:31:49Z</time>
      </trkpt>
      <trkpt lat="43.62539" lon="3.61861">
        <ele>236</ele>
        <time>2021-04-03T09:31:51Z</time>
      </trkpt>
      <trkpt lat="43.62542" lon="3.61862">
        <ele>236</ele>
        <time>2021-04-03T09:31:53Z</time>
      </trkpt>
      <trkpt lat="43.62545" lon="3.61865">
        <ele>236</ele>
        <time>2021-04-03T09:31:55Z</time>
      </trkpt>
      <trkpt lat="43.62547" lon="3.61868">
        <ele>236</ele>
        <time>2021-04-03T09:31:57Z</time>
      </trkpt>
      <trkpt lat="43.6255" lon="3.61871">
        <ele>240</ele>
        <time>2021-04-03T09:31:59Z</time>
      </trkpt>
      <trkpt lat="43.62552" lon="3.61874">
        <ele>240</ele>
        <time>2021-04-03T09:32:01Z</time>
      </trkpt>
      <trkpt lat="43.62555" lon="3.61876">
        <ele>240</ele>
        <time>2021-04-03T09:32:03Z</time>
      </trkpt>
      <trkpt lat="43.62559" lon="3.61877">
        <ele>240</ele>
        <time>2021-04-03T09:32:05Z</time>
      </trkpt>
      <trkpt lat="43.62562" lon="3.61878">
        <ele>240</ele>
        <time>2021-04-03T09:32:07Z</time>
      </trkpt>
      <trkpt lat="43.62565" lon="3.61879">
        <ele>241</ele>
        <time>2021-04-03T09:32:09Z</time>
      </trkpt>
      <trkpt lat="43.62568" lon="3.6188">
        <ele>241</ele>
        <time>2021-04-03T09:32:11Z</time>
      </trkpt>
      <trkpt lat="43.62571" lon="3.61881">
        <ele>241</ele>
        <time>2021-04-03T09:32:13Z</time>
      </trkpt>
      <trkpt lat="43.62574" lon="3.61882">
        <ele>241</ele>
        <time>2021-04-03T09:32:15Z</time>
      </trkpt>
      <trkpt lat="43.62577" lon="3.61882">
        <ele>241</ele>
        <time>2021-04-03T09:32:17Z</time>
      </trkpt>
      <trkpt lat="43.6258" lon="3.61882">
        <ele>244</ele>
        <time>2021-04-03T09:32:19Z</time>
      </trkpt>
      <trkpt lat="43.62583" lon="3.61883">
        <ele>244</ele>
        <time>2021-04-03T09:32:21Z</time>
      </trkpt>
      <trkpt lat="43.62586" lon="3.61882">
        <ele>244</ele>
        <time>2021-04-03T09:32:23Z</time>
      </trkpt>
      <trkpt lat="43.62589" lon="3.61881">
        <ele>244</ele>
        <time>2021-04-03T09:32:25Z</time>
      </trkpt>
      <trkpt lat="43.62592" lon="3.61881">
        <ele>244</ele>
        <time>2021-04-03T09:32:27Z</time>
      </trkpt>
      <trkpt lat="43.62595" lon="3.6188">
        <ele>246</ele>
        <time>2021-04-03T09:32:29Z</time>
      </trkpt>
      <trkpt lat="43.62598" lon="3.61878">
        <ele>246</ele>
        <time>2021-04-03T09:32:31Z</time>
      </trkpt>
      <trkpt lat="43.62601" lon="3.61877">
        <ele>246</ele>
        <time>2021-04-03T09:32:33Z</time>
      </trkpt>
      <trkpt lat="43.62603" lon="3.61875">
        <ele>246</ele>
        <time>2021-04-03T09:32:35Z</time>
      </trkpt>
      <trkpt lat="43.62605" lon="3.61872">
        <ele>246</ele>
        <time>2021-04-03T09:32:37Z</time>
      </trkpt>
      <trkpt lat="43.62607" lon="3.6187">
        <ele>246</ele>
        <time>2021-04-03T09:32:39Z</time>
      </trkpt>
      <trkpt lat="43.62609" lon="3.61867">
        <ele>246</ele>
        <time>2021-04-03T09:32:41Z</time>
      </trkpt>
      <trkpt lat="43.62612" lon="3.61866">
        <ele>246</ele>
        <time>2021-04-03T09:32:43Z</time>
      </trkpt>
      <trkpt lat="43.62615" lon="3.61864">
        <ele>246</ele>
        <time>2021-04-03T09:32:45Z</time>
      </trkpt>
      <trkpt lat="43.62617" lon="3.61862">
        <ele>246</ele>
        <time>2021-04-03T09:32:47Z</time>
      </trkpt>
      <trkpt lat="43.6262" lon="3.61861">
        <ele>249</ele>
        <time>2021-04-03T09:32:49Z</time>
      </trkpt>
      <trkpt lat="43.62623" lon="3.6186">
        <ele>249</ele>
        <time>2021-04-03T09:32:51Z</time>
      </trkpt>
      <trkpt lat="43.62625" lon="3.61857">
        <ele>249</ele>
        <time>2021-04-03T09:32:53Z</time>
      </trkpt>
      <trkpt lat="43.62628" lon="3.61854">
        <ele>249</ele>
        <time>2021-04-03T09:32:55Z</time>
      </trkpt>
      <trkpt lat="43.6263" lon="3.61852">
        <ele>249</ele>
        <time>2021-04-03T09:32:57Z</time>
      </trkpt>
      <trkpt lat="43.62633" lon="3.6185">
        <ele>250</ele>
        <time>2021-04-03T09:32:59Z</time>
      </trkpt>
      <trkpt lat="43.62635" lon="3.61848">
        <ele>250</ele>
        <time>2021-04-03T09:33:01Z</time>
      </trkpt>
      <trkpt lat="43.62638" lon="3.61846">
        <ele>250</ele>
        <time>2021-04-03T09:33:03Z</time>
      </trkpt>
      <trkpt lat="43.6264" lon="3.61844">
        <ele>250</ele>
        <time>2021-04-03T09:33:05Z</time>
      </trkpt>
      <trkpt lat="43.62643" lon="3.61843">
        <ele>250</ele>
        <time>2021-04-03T09:33:07Z</time>
      </trkpt>
      <trkpt lat="43.62646" lon="3.61841">
        <ele>250</ele>
        <time>2021-04-03T09:33:09Z</time>
      </trkpt>
      <trkpt lat="43.62649" lon="3.6184">
        <ele>250</ele>
        <time>2021-04-03T09:33:11Z</time>
      </trkpt>
      <trkpt lat="43.62651" lon="3.61837">
        <ele>250</ele>
        <time>2021-04-03T09:33:13Z</time>
      </trkpt>
      <trkpt lat="43.62654" lon="3.61835">
        <ele>250</ele>
        <time>2021-04-03T09:33:15Z</time>
      </trkpt>
      <trkpt lat="43.62657" lon="3.61834">
        <ele>250</ele>
        <time>2021-04-03T09:33:17Z</time>
      </trkpt>
      <trkpt lat="43.62659" lon="3.61831">
        <ele>251</ele>
        <time>2021-04-03T09:33:19Z</time>
      </trkpt>
      <trkpt lat="43.62662" lon="3.61829">
        <ele>251</ele>
        <time>2021-04-03T09:33:21Z</time>
      </trkpt>
      <trkpt lat="43.62665" lon="3.61826">
        <ele>251</ele>
        <time>2021-04-03T09:33:23Z</time>
      </trkpt>
      <trkpt lat="43.62668" lon="3.61825">
        <ele>251</ele>
        <time>2021-04-03T09:33:25Z</time>
      </trkpt>
      <trkpt lat="43.62671" lon="3.61825">
        <ele>251</ele>
        <time>2021-04-03T09:33:27Z</time>
      </trkpt>
      <trkpt lat="43.62674" lon="3.61824">
        <ele>252</ele>
        <time>2021-04-03T09:33:29Z</time>
      </trkpt>
      <trkpt lat="43.62678" lon="3.61822">
        <ele>252</ele>
        <time>2021-04-03T09:33:31Z</time>
      </trkpt>
      <trkpt lat="43.6268" lon="3.61821">
        <ele>252</ele>
        <time>2021-04-03T09:33:33Z</time>
      </trkpt>
      <trkpt lat="43.62683" lon="3.61819">
        <ele>252</ele>
        <time>2021-04-03T09:33:35Z</time>
      </trkpt>
      <trkpt lat="43.62686" lon="3.61818">
        <ele>252</ele>
        <time>2021-04-03T09:33:37Z</time>
      </trkpt>
      <trkpt lat="43.62688" lon="3.61817">
        <ele>252</ele>
        <time>2021-04-03T09:33:39Z</time>
      </trkpt>
      <trkpt lat="43.62691" lon="3.61815">
        <ele>252</ele>
        <time>2021-04-03T09:33:41Z</time>
      </trkpt>
      <trkpt lat="43.62693" lon="3.61813">
        <ele>252</ele>
        <time>2021-04-03T09:33:43Z</time>
      </trkpt>
      <trkpt lat="43.62696" lon="3.61812">
        <ele>252</ele>
        <time>2021-04-03T09:33:45Z</time>
      </trkpt>
      <trkpt lat="43.62699" lon="3.61812">
        <ele>252</ele>
        <time>2021-04-03T09:33:47Z</time>
      </trkpt>
      <trkpt lat="43.62701" lon="3.6181">
        <ele>253</ele>
        <time>2021-04-03T09:33:49Z</time>
      </trkpt>
      <trkpt lat="43.62704" lon="3.61809">
        <ele>253</ele>
        <time>2021-04-03T09:33:51Z</time>
      </trkpt>
      <trkpt lat="43.62705" lon="3.61807">
        <ele>253</ele>
        <time>2021-04-03T09:33:52Z</time>
      </trkpt>
      <trkpt lat="43.62708" lon="3.61806">
        <ele>253</ele>
        <time>2021-04-03T09:33:54Z</time>
      </trkpt>
      <trkpt lat="43.62712" lon="3.61804">
        <ele>253</ele>
        <time>2021-04-03T09:33:56Z</time>
      </trkpt>
      <trkpt lat="43.62714" lon="3.61803">
        <ele>253</ele>
        <time>2021-04-03T09:33:57Z</time>
      </trkpt>
      <trkpt lat="43.62716" lon="3.61802">
        <ele>253</ele>
        <time>2021-04-03T09:33:58Z</time>
      </trkpt>
      <trkpt lat="43.62718" lon="3.618">
        <ele>253</ele>
        <time>2021-04-03T09:33:59Z</time>
      </trkpt>
      <trkpt lat="43.6272" lon="3.61799">
        <ele>253</ele>
        <time>2021-04-03T09:34:00Z</time>
      </trkpt>
      <trkpt lat="43.62723" lon="3.61798">
        <ele>253</ele>
        <time>2021-04-03T09:34:01Z</time>
      </trkpt>
      <trkpt lat="43.62725" lon="3.61796">
        <ele>253</ele>
        <time>2021-04-03T09:34:02Z</time>
      </trkpt>
      <trkpt lat="43.62727" lon="3.61795">
        <ele>253</ele>
        <time>2021-04-03T09:34:03Z</time>
      </trkpt>
      <trkpt lat="43.62729" lon="3.61794">
        <ele>253</ele>
        <time>2021-04-03T09:34:04Z</time>
      </trkpt>
      <trkpt lat="43.62731" lon="3.61793">
        <ele>253</ele>
        <time>2021-04-03T09:34:05Z</time>
      </trkpt>
      <trkpt lat="43.62733" lon="3.61792">
        <ele>253</ele>
        <time>2021-04-03T09:34:06Z</time>
      </trkpt>
      <trkpt lat="43.62734" lon="3.61792">
        <ele>253</ele>
        <time>2021-04-03T09:34:07Z</time>
      </trkpt>
      <trkpt lat="43.62736" lon="3.61791">
        <ele>253</ele>
        <time>2021-04-03T09:34:08Z</time>
      </trkpt>
      <trkpt lat="43.62738" lon="3.6179">
        <ele>253</ele>
        <time>2021-04-03T09:34:09Z</time>
      </trkpt>
      <trkpt lat="43.6274" lon="3.61789">
        <ele>253</ele>
        <time>2021-04-03T09:34:10Z</time>
      </trkpt>
      <trkpt lat="43.62742" lon="3.61788">
        <ele>253</ele>
        <time>2021-04-03T09:34:11Z</time>
      </trkpt>
      <trkpt lat="43.62744" lon="3.61787">
        <ele>253</ele>
        <time>2021-04-03T09:34:12Z</time>
      </trkpt>
      <trkpt lat="43.62747" lon="3.61786">
        <ele>253</ele>
        <time>2021-04-03T09:34:13Z</time>
      </trkpt>
      <trkpt lat="43.62749" lon="3.61784">
        <ele>253</ele>
        <time>2021-04-03T09:34:14Z</time>
      </trkpt>
      <trkpt lat="43.62752" lon="3.61783">
        <ele>253</ele>
        <time>2021-04-03T09:34:15Z</time>
      </trkpt>
      <trkpt lat="43.62754" lon="3.61782">
        <ele>253</ele>
        <time>2021-04-03T09:34:16Z</time>
      </trkpt>
      <trkpt lat="43.62757" lon="3.61782">
        <ele>253</ele>
        <time>2021-04-03T09:34:17Z</time>
      </trkpt>
      <trkpt lat="43.62759" lon="3.61781">
        <ele>253</ele>
        <time>2021-04-03T09:34:18Z</time>
      </trkpt>
      <trkpt lat="43.62761" lon="3.61779">
        <ele>253</ele>
        <time>2021-04-03T09:34:19Z</time>
      </trkpt>
      <trkpt lat="43.62763" lon="3.61778">
        <ele>253</ele>
        <time>2021-04-03T09:34:20Z</time>
      </trkpt>
      <trkpt lat="43.62765" lon="3.61777">
        <ele>253</ele>
        <time>2021-04-03T09:34:21Z</time>
      </trkpt>
      <trkpt lat="43.62767" lon="3.61776">
        <ele>253</ele>
        <time>2021-04-03T09:34:22Z</time>
      </trkpt>
      <trkpt lat="43.62769" lon="3.61775">
        <ele>253</ele>
        <time>2021-04-03T09:34:23Z</time>
      </trkpt>
      <trkpt lat="43.62771" lon="3.61774">
        <ele>253</ele>
        <time>2021-04-03T09:34:24Z</time>
      </trkpt>
      <trkpt lat="43.62773" lon="3.61773">
        <ele>253</ele>
        <time>2021-04-03T09:34:25Z</time>
      </trkpt>
      <trkpt lat="43.62775" lon="3.61772">
        <ele>253</ele>
        <time>2021-04-03T09:34:26Z</time>
      </trkpt>
      <trkpt lat="43.62777" lon="3.61771">
        <ele>253</ele>
        <time>2021-04-03T09:34:27Z</time>
      </trkpt>
      <trkpt lat="43.62778" lon="3.61771">
        <ele>253</ele>
        <time>2021-04-03T09:34:28Z</time>
      </trkpt>
      <trkpt lat="43.6278" lon="3.61769">
        <ele>255</ele>
        <time>2021-04-03T09:34:29Z</time>
      </trkpt>
      <trkpt lat="43.62782" lon="3.61768">
        <ele>255</ele>
        <time>2021-04-03T09:34:30Z</time>
      </trkpt>
      <trkpt lat="43.62784" lon="3.61767">
        <ele>255</ele>
        <time>2021-04-03T09:34:31Z</time>
      </trkpt>
      <trkpt lat="43.62786" lon="3.61766">
        <ele>255</ele>
        <time>2021-04-03T09:34:32Z</time>
      </trkpt>
      <trkpt lat="43.62788" lon="3.61765">
        <ele>255</ele>
        <time>2021-04-03T09:34:33Z</time>
      </trkpt>
      <trkpt lat="43.6279" lon="3.61765">
        <ele>255</ele>
        <time>2021-04-03T09:34:34Z</time>
      </trkpt>
      <trkpt lat="43.62792" lon="3.61764">
        <ele>255</ele>
        <time>2021-04-03T09:34:35Z</time>
      </trkpt>
      <trkpt lat="43.62795" lon="3.61762">
        <ele>255</ele>
        <time>2021-04-03T09:34:37Z</time>
      </trkpt>
      <trkpt lat="43.62799" lon="3.61761">
        <ele>256</ele>
        <time>2021-04-03T09:34:39Z</time>
      </trkpt>
      <trkpt lat="43.62802" lon="3.6176">
        <ele>256</ele>
        <time>2021-04-03T09:34:41Z</time>
      </trkpt>
      <trkpt lat="43.62806" lon="3.61759">
        <ele>256</ele>
        <time>2021-04-03T09:34:43Z</time>
      </trkpt>
      <trkpt lat="43.62807" lon="3.61758">
        <ele>256</ele>
        <time>2021-04-03T09:34:44Z</time>
      </trkpt>
      <trkpt lat="43.62811" lon="3.61756">
        <ele>256</ele>
        <time>2021-04-03T09:34:46Z</time>
      </trkpt>
      <trkpt lat="43.62814" lon="3.61755">
        <ele>256</ele>
        <time>2021-04-03T09:34:48Z</time>
      </trkpt>
      <trkpt lat="43.62817" lon="3.61754">
        <ele>256</ele>
        <time>2021-04-03T09:34:50Z</time>
      </trkpt>
      <trkpt lat="43.62821" lon="3.61753">
        <ele>256</ele>
        <time>2021-04-03T09:34:52Z</time>
      </trkpt>
      <trkpt lat="43.62824" lon="3.61752">
        <ele>256</ele>
        <time>2021-04-03T09:34:54Z</time>
      </trkpt>
      <trkpt lat="43.62826" lon="3.61751">
        <ele>256</ele>
        <time>2021-04-03T09:34:55Z</time>
      </trkpt>
      <trkpt lat="43.62828" lon="3.6175">
        <ele>256</ele>
        <time>2021-04-03T09:34:56Z</time>
      </trkpt>
      <trkpt lat="43.62831" lon="3.61749">
        <ele>256</ele>
        <time>2021-04-03T09:34:58Z</time>
      </trkpt>
      <trkpt lat="43.62835" lon="3.61748">
        <ele>259</ele>
        <time>2021-04-03T09:35:00Z</time>
      </trkpt>
      <trkpt lat="43.62838" lon="3.61747">
        <ele>259</ele>
        <time>2021-04-03T09:35:02Z</time>
      </trkpt>
      <trkpt lat="43.62841" lon="3.61746">
        <ele>259</ele>
        <time>2021-04-03T09:35:04Z</time>
      </trkpt>
      <trkpt lat="43.62845" lon="3.61745">
        <ele>259</ele>
        <time>2021-04-03T09:35:06Z</time>
      </trkpt>
      <trkpt lat="43.62848" lon="3.61744">
        <ele>259</ele>
        <time>2021-04-03T09:35:08Z</time>
      </trkpt>
      <trkpt lat="43.62851" lon="3.61742">
        <ele>259</ele>
        <time>2021-04-03T09:35:10Z</time>
      </trkpt>
      <trkpt lat="43.62855" lon="3.61741">
        <ele>259</ele>
        <time>2021-04-03T09:35:12Z</time>
      </trkpt>
      <trkpt lat="43.62856" lon="3.6174">
        <ele>259</ele>
        <time>2021-04-03T09:35:13Z</time>
      </trkpt>
      <trkpt lat="43.62858" lon="3.61739">
        <ele>259</ele>
        <time>2021-04-03T09:35:14Z</time>
      </trkpt>
      <trkpt lat="43.6286" lon="3.61738">
        <ele>259</ele>
        <time>2021-04-03T09:35:15Z</time>
      </trkpt>
      <trkpt lat="43.62863" lon="3.61737">
        <ele>259</ele>
        <time>2021-04-03T09:35:17Z</time>
      </trkpt>
      <trkpt lat="43.62866" lon="3.61736">
        <ele>262</ele>
        <time>2021-04-03T09:35:19Z</time>
      </trkpt>
      <trkpt lat="43.62869" lon="3.61735">
        <ele>262</ele>
        <time>2021-04-03T09:35:21Z</time>
      </trkpt>
      <trkpt lat="43.62872" lon="3.61734">
        <ele>262</ele>
        <time>2021-04-03T09:35:23Z</time>
      </trkpt>
      <trkpt lat="43.62875" lon="3.61733">
        <ele>262</ele>
        <time>2021-04-03T09:35:25Z</time>
      </trkpt>
      <trkpt lat="43.62878" lon="3.61732">
        <ele>262</ele>
        <time>2021-04-03T09:35:27Z</time>
      </trkpt>
      <trkpt lat="43.62882" lon="3.61731">
        <ele>262</ele>
        <time>2021-04-03T09:35:29Z</time>
      </trkpt>
      <trkpt lat="43.62885" lon="3.61731">
        <ele>262</ele>
        <time>2021-04-03T09:35:31Z</time>
      </trkpt>
      <trkpt lat="43.62888" lon="3.6173">
        <ele>262</ele>
        <time>2021-04-03T09:35:33Z</time>
      </trkpt>
      <trkpt lat="43.62891" lon="3.61729">
        <ele>262</ele>
        <time>2021-04-03T09:35:35Z</time>
      </trkpt>
      <trkpt lat="43.62894" lon="3.61728">
        <ele>262</ele>
        <time>2021-04-03T09:35:37Z</time>
      </trkpt>
      <trkpt lat="43.62897" lon="3.61728">
        <ele>262</ele>
        <time>2021-04-03T09:35:39Z</time>
      </trkpt>
      <trkpt lat="43.629" lon="3.61727">
        <ele>262</ele>
        <time>2021-04-03T09:35:41Z</time>
      </trkpt>
      <trkpt lat="43.62903" lon="3.61726">
        <ele>262</ele>
        <time>2021-04-03T09:35:43Z</time>
      </trkpt>
      <trkpt lat="43.62906" lon="3.61726">
        <ele>262</ele>
        <time>2021-04-03T09:35:45Z</time>
      </trkpt>
      <trkpt lat="43.62909" lon="3.61725">
        <ele>262</ele>
        <time>2021-04-03T09:35:47Z</time>
      </trkpt>
      <trkpt lat="43.62912" lon="3.61724">
        <ele>262</ele>
        <time>2021-04-03T09:35:49Z</time>
      </trkpt>
      <trkpt lat="43.62914" lon="3.61724">
        <ele>262</ele>
        <time>2021-04-03T09:35:51Z</time>
      </trkpt>
      <trkpt lat="43.62917" lon="3.61723">
        <ele>262</ele>
        <time>2021-04-03T09:35:53Z</time>
      </trkpt>
      <trkpt lat="43.6292" lon="3.61723">
        <ele>262</ele>
        <time>2021-04-03T09:35:55Z</time>
      </trkpt>
      <trkpt lat="43.62923" lon="3.61723">
        <ele>262</ele>
        <time>2021-04-03T09:35:57Z</time>
      </trkpt>
      <trkpt lat="43.62926" lon="3.61723">
        <ele>262</ele>
        <time>2021-04-03T09:35:59Z</time>
      </trkpt>
      <trkpt lat="43.62929" lon="3.61723">
        <ele>262</ele>
        <time>2021-04-03T09:36:01Z</time>
      </trkpt>
      <trkpt lat="43.62933" lon="3.61722">
        <ele>262</ele>
        <time>2021-04-03T09:36:03Z</time>
      </trkpt>
      <trkpt lat="43.62935" lon="3.61722">
        <ele>262</ele>
        <time>2021-04-03T09:36:04Z</time>
      </trkpt>
      <trkpt lat="43.62938" lon="3.61723">
        <ele>262</ele>
        <time>2021-04-03T09:36:06Z</time>
      </trkpt>
      <trkpt lat="43.62941" lon="3.61723">
        <ele>262</ele>
        <time>2021-04-03T09:36:08Z</time>
      </trkpt>
      <trkpt lat="43.62945" lon="3.61724">
        <ele>262</ele>
        <time>2021-04-03T09:36:10Z</time>
      </trkpt>
      <trkpt lat="43.62948" lon="3.61725">
        <ele>262</ele>
        <time>2021-04-03T09:36:12Z</time>
      </trkpt>
      <trkpt lat="43.62951" lon="3.61725">
        <ele>262</ele>
        <time>2021-04-03T09:36:14Z</time>
      </trkpt>
      <trkpt lat="43.62955" lon="3.61726">
        <ele>262</ele>
        <time>2021-04-03T09:36:16Z</time>
      </trkpt>
      <trkpt lat="43.62957" lon="3.61727">
        <ele>262</ele>
        <time>2021-04-03T09:36:17Z</time>
      </trkpt>
      <trkpt lat="43.6296" lon="3.61728">
        <ele>270</ele>
        <time>2021-04-03T09:36:19Z</time>
      </trkpt>
      <trkpt lat="43.62963" lon="3.61729">
        <ele>270</ele>
        <time>2021-04-03T09:36:21Z</time>
      </trkpt>
      <trkpt lat="43.62966" lon="3.6173">
        <ele>270</ele>
        <time>2021-04-03T09:36:23Z</time>
      </trkpt>
      <trkpt lat="43.6297" lon="3.61731">
        <ele>270</ele>
        <time>2021-04-03T09:36:25Z</time>
      </trkpt>
      <trkpt lat="43.62972" lon="3.61731">
        <ele>270</ele>
        <time>2021-04-03T09:36:26Z</time>
      </trkpt>
      <trkpt lat="43.62974" lon="3.61732">
        <ele>270</ele>
        <time>2021-04-03T09:36:27Z</time>
      </trkpt>
      <trkpt lat="43.62975" lon="3.61732">
        <ele>270</ele>
        <time>2021-04-03T09:36:28Z</time>
      </trkpt>
      <trkpt lat="43.62977" lon="3.61732">
        <ele>272</ele>
        <time>2021-04-03T09:36:29Z</time>
      </trkpt>
      <trkpt lat="43.62979" lon="3.61732">
        <ele>272</ele>
        <time>2021-04-03T09:36:30Z</time>
      </trkpt>
      <trkpt lat="43.62981" lon="3.61732">
        <ele>272</ele>
        <time>2021-04-03T09:36:31Z</time>
      </trkpt>
      <trkpt lat="43.62984" lon="3.61733">
        <ele>272</ele>
        <time>2021-04-03T09:36:33Z</time>
      </trkpt>
      <trkpt lat="43.62986" lon="3.61734">
        <ele>272</ele>
        <time>2021-04-03T09:36:34Z</time>
      </trkpt>
      <trkpt lat="43.6299" lon="3.61734">
        <ele>272</ele>
        <time>2021-04-03T09:36:36Z</time>
      </trkpt>
      <trkpt lat="43.62993" lon="3.61734">
        <ele>272</ele>
        <time>2021-04-03T09:36:38Z</time>
      </trkpt>
      <trkpt lat="43.62996" lon="3.61734">
        <ele>272</ele>
        <time>2021-04-03T09:36:40Z</time>
      </trkpt>
      <trkpt lat="43.63" lon="3.61735">
        <ele>272</ele>
        <time>2021-04-03T09:36:42Z</time>
      </trkpt>
      <trkpt lat="43.63002" lon="3.61735">
        <ele>272</ele>
        <time>2021-04-03T09:36:43Z</time>
      </trkpt>
      <trkpt lat="43.63004" lon="3.61735">
        <ele>272</ele>
        <time>2021-04-03T09:36:44Z</time>
      </trkpt>
      <trkpt lat="43.63006" lon="3.61735">
        <ele>272</ele>
        <time>2021-04-03T09:36:45Z</time>
      </trkpt>
      <trkpt lat="43.63008" lon="3.61735">
        <ele>272</ele>
        <time>2021-04-03T09:36:46Z</time>
      </trkpt>
      <trkpt lat="43.6301" lon="3.61735">
        <ele>272</ele>
        <time>2021-04-03T09:36:47Z</time>
      </trkpt>
      <trkpt lat="43.63011" lon="3.61735">
        <ele>272</ele>
        <time>2021-04-03T09:36:48Z</time>
      </trkpt>
      <trkpt lat="43.63013" lon="3.61735">
        <ele>274</ele>
        <time>2021-04-03T09:36:49Z</time>
      </trkpt>
      <trkpt lat="43.63015" lon="3.61735">
        <ele>274</ele>
        <time>2021-04-03T09:36:50Z</time>
      </trkpt>
      <trkpt lat="43.63017" lon="3.61735">
        <ele>274</ele>
        <time>2021-04-03T09:36:51Z</time>
      </trkpt>
      <trkpt lat="43.63019" lon="3.61735">
        <ele>274</ele>
        <time>2021-04-03T09:36:52Z</time>
      </trkpt>
      <trkpt lat="43.63021" lon="3.61735">
        <ele>274</ele>
        <time>2021-04-03T09:36:53Z</time>
      </trkpt>
      <trkpt lat="43.63023" lon="3.61735">
        <ele>274</ele>
        <time>2021-04-03T09:36:54Z</time>
      </trkpt>
      <trkpt lat="43.63025" lon="3.61735">
        <ele>274</ele>
        <time>2021-04-03T09:36:55Z</time>
      </trkpt>
      <trkpt lat="43.63027" lon="3.61735">
        <ele>274</ele>
        <time>2021-04-03T09:36:56Z</time>
      </trkpt>
      <trkpt lat="43.63029" lon="3.61735">
        <ele>274</ele>
        <time>2021-04-03T09:36:57Z</time>
      </trkpt>
      <trkpt lat="43.63031" lon="3.61735">
        <ele>274</ele>
        <time>2021-04-03T09:36:58Z</time>
      </trkpt>
      <trkpt lat="43.63033" lon="3.61735">
        <ele>274</ele>
        <time>2021-04-03T09:36:59Z</time>
      </trkpt>
      <trkpt lat="43.63036" lon="3.61734">
        <ele>275</ele>
        <time>2021-04-03T09:37:00Z</time>
      </trkpt>
      <trkpt lat="43.63037" lon="3.61734">
        <ele>275</ele>
        <time>2021-04-03T09:37:01Z</time>
      </trkpt>
      <trkpt lat="43.63039" lon="3.61734">
        <ele>275</ele>
        <time>2021-04-03T09:37:02Z</time>
      </trkpt>
      <trkpt lat="43.63041" lon="3.61734">
        <ele>275</ele>
        <time>2021-04-03T09:37:03Z</time>
      </trkpt>
      <trkpt lat="43.63043" lon="3.61734">
        <ele>275</ele>
        <time>2021-04-03T09:37:04Z</time>
      </trkpt>
      <trkpt lat="43.63047" lon="3.61733">
        <ele>275</ele>
        <time>2021-04-03T09:37:06Z</time>
      </trkpt>
      <trkpt lat="43.63049" lon="3.61733">
        <ele>275</ele>
        <time>2021-04-03T09:37:07Z</time>
      </trkpt>
      <trkpt lat="43.63052" lon="3.61733">
        <ele>275</ele>
        <time>2021-04-03T09:37:09Z</time>
      </trkpt>
      <trkpt lat="43.63055" lon="3.61732">
        <ele>275</ele>
        <time>2021-04-03T09:37:11Z</time>
      </trkpt>
      <trkpt lat="43.63057" lon="3.61732">
        <ele>275</ele>
        <time>2021-04-03T09:37:12Z</time>
      </trkpt>
      <trkpt lat="43.63059" lon="3.61732">
        <ele>275</ele>
        <time>2021-04-03T09:37:13Z</time>
      </trkpt>
      <trkpt lat="43.63063" lon="3.61731">
        <ele>275</ele>
        <time>2021-04-03T09:37:15Z</time>
      </trkpt>
      <trkpt lat="43.63064" lon="3.61731">
        <ele>275</ele>
        <time>2021-04-03T09:37:16Z</time>
      </trkpt>
      <trkpt lat="43.63066" lon="3.61731">
        <ele>275</ele>
        <time>2021-04-03T09:37:17Z</time>
      </trkpt>
      <trkpt lat="43.63068" lon="3.6173">
        <ele>275</ele>
        <time>2021-04-03T09:37:18Z</time>
      </trkpt>
      <trkpt lat="43.63071" lon="3.6173">
        <ele>274</ele>
        <time>2021-04-03T09:37:19Z</time>
      </trkpt>
      <trkpt lat="43.63073" lon="3.61729">
        <ele>274</ele>
        <time>2021-04-03T09:37:20Z</time>
      </trkpt>
      <trkpt lat="43.63076" lon="3.61729">
        <ele>274</ele>
        <time>2021-04-03T09:37:21Z</time>
      </trkpt>
      <trkpt lat="43.63078" lon="3.61729">
        <ele>274</ele>
        <time>2021-04-03T09:37:22Z</time>
      </trkpt>
      <trkpt lat="43.6308" lon="3.61729">
        <ele>274</ele>
        <time>2021-04-03T09:37:23Z</time>
      </trkpt>
      <trkpt lat="43.63083" lon="3.61728">
        <ele>274</ele>
        <time>2021-04-03T09:37:24Z</time>
      </trkpt>
      <trkpt lat="43.63086" lon="3.61729">
        <ele>274</ele>
        <time>2021-04-03T09:37:25Z</time>
      </trkpt>
      <trkpt lat="43.63089" lon="3.61729">
        <ele>274</ele>
        <time>2021-04-03T09:37:26Z</time>
      </trkpt>
      <trkpt lat="43.63092" lon="3.6173">
        <ele>274</ele>
        <time>2021-04-03T09:37:27Z</time>
      </trkpt>
      <trkpt lat="43.63095" lon="3.61732">
        <ele>274</ele>
        <time>2021-04-03T09:37:28Z</time>
      </trkpt>
      <trkpt lat="43.63098" lon="3.61733">
        <ele>273</ele>
        <time>2021-04-03T09:37:29Z</time>
      </trkpt>
      <trkpt lat="43.63102" lon="3.61735">
        <ele>273</ele>
        <time>2021-04-03T09:37:30Z</time>
      </trkpt>
      <trkpt lat="43.63106" lon="3.61737">
        <ele>273</ele>
        <time>2021-04-03T09:37:31Z</time>
      </trkpt>
      <trkpt lat="43.63109" lon="3.61739">
        <ele>273</ele>
        <time>2021-04-03T09:37:32Z</time>
      </trkpt>
      <trkpt lat="43.63113" lon="3.61742">
        <ele>273</ele>
        <time>2021-04-03T09:37:33Z</time>
      </trkpt>
      <trkpt lat="43.63116" lon="3.61745">
        <ele>273</ele>
        <time>2021-04-03T09:37:34Z</time>
      </trkpt>
      <trkpt lat="43.63119" lon="3.61749">
        <ele>273</ele>
        <time>2021-04-03T09:37:35Z</time>
      </trkpt>
      <trkpt lat="43.63123" lon="3.61753">
        <ele>273</ele>
        <time>2021-04-03T09:37:36Z</time>
      </trkpt>
      <trkpt lat="43.63126" lon="3.61756">
        <ele>273</ele>
        <time>2021-04-03T09:37:37Z</time>
      </trkpt>
      <trkpt lat="43.63129" lon="3.61761">
        <ele>273</ele>
        <time>2021-04-03T09:37:38Z</time>
      </trkpt>
      <trkpt lat="43.63132" lon="3.61765">
        <ele>272</ele>
        <time>2021-04-03T09:37:39Z</time>
      </trkpt>
      <trkpt lat="43.63136" lon="3.61769">
        <ele>272</ele>
        <time>2021-04-03T09:37:40Z</time>
      </trkpt>
      <trkpt lat="43.63139" lon="3.61774">
        <ele>272</ele>
        <time>2021-04-03T09:37:41Z</time>
      </trkpt>
      <trkpt lat="43.63142" lon="3.61778">
        <ele>272</ele>
        <time>2021-04-03T09:37:42Z</time>
      </trkpt>
      <trkpt lat="43.63145" lon="3.61782">
        <ele>272</ele>
        <time>2021-04-03T09:37:43Z</time>
      </trkpt>
      <trkpt lat="43.63147" lon="3.61786">
        <ele>272</ele>
        <time>2021-04-03T09:37:44Z</time>
      </trkpt>
      <trkpt lat="43.6315" lon="3.6179">
        <ele>272</ele>
        <time>2021-04-03T09:37:45Z</time>
      </trkpt>
      <trkpt lat="43.63152" lon="3.61794">
        <ele>272</ele>
        <time>2021-04-03T09:37:46Z</time>
      </trkpt>
      <trkpt lat="43.63154" lon="3.61797">
        <ele>272</ele>
        <time>2021-04-03T09:37:47Z</time>
      </trkpt>
      <trkpt lat="43.63157" lon="3.61801">
        <ele>272</ele>
        <time>2021-04-03T09:37:48Z</time>
      </trkpt>
      <trkpt lat="43.6316" lon="3.61804">
        <ele>271</ele>
        <time>2021-04-03T09:37:49Z</time>
      </trkpt>
      <trkpt lat="43.63163" lon="3.61808">
        <ele>271</ele>
        <time>2021-04-03T09:37:50Z</time>
      </trkpt>
      <trkpt lat="43.63166" lon="3.61812">
        <ele>271</ele>
        <time>2021-04-03T09:37:51Z</time>
      </trkpt>
      <trkpt lat="43.6317" lon="3.61816">
        <ele>271</ele>
        <time>2021-04-03T09:37:52Z</time>
      </trkpt>
      <trkpt lat="43.63174" lon="3.6182">
        <ele>271</ele>
        <time>2021-04-03T09:37:53Z</time>
      </trkpt>
      <trkpt lat="43.63178" lon="3.61823">
        <ele>271</ele>
        <time>2021-04-03T09:37:54Z</time>
      </trkpt>
      <trkpt lat="43.63181" lon="3.61826">
        <ele>271</ele>
        <time>2021-04-03T09:37:55Z</time>
      </trkpt>
      <trkpt lat="43.63184" lon="3.6183">
        <ele>271</ele>
        <time>2021-04-03T09:37:56Z</time>
      </trkpt>
      <trkpt lat="43.63187" lon="3.61833">
        <ele>271</ele>
        <time>2021-04-03T09:37:57Z</time>
      </trkpt>
      <trkpt lat="43.6319" lon="3.61836">
        <ele>271</ele>
        <time>2021-04-03T09:37:58Z</time>
      </trkpt>
      <trkpt lat="43.63193" lon="3.61839">
        <ele>269</ele>
        <time>2021-04-03T09:37:59Z</time>
      </trkpt>
      <trkpt lat="43.63196" lon="3.61844">
        <ele>269</ele>
        <time>2021-04-03T09:38:00Z</time>
      </trkpt>
      <trkpt lat="43.63199" lon="3.61848">
        <ele>269</ele>
        <time>2021-04-03T09:38:01Z</time>
      </trkpt>
      <trkpt lat="43.63203" lon="3.61854">
        <ele>269</ele>
        <time>2021-04-03T09:38:02Z</time>
      </trkpt>
      <trkpt lat="43.63206" lon="3.61859">
        <ele>269</ele>
        <time>2021-04-03T09:38:03Z</time>
      </trkpt>
      <trkpt lat="43.63208" lon="3.61864">
        <ele>269</ele>
        <time>2021-04-03T09:38:04Z</time>
      </trkpt>
      <trkpt lat="43.6321" lon="3.61869">
        <ele>269</ele>
        <time>2021-04-03T09:38:05Z</time>
      </trkpt>
      <trkpt lat="43.63212" lon="3.61875">
        <ele>269</ele>
        <time>2021-04-03T09:38:06Z</time>
      </trkpt>
      <trkpt lat="43.63214" lon="3.6188">
        <ele>269</ele>
        <time>2021-04-03T09:38:07Z</time>
      </trkpt>
      <trkpt lat="43.63216" lon="3.61885">
        <ele>269</ele>
        <time>2021-04-03T09:38:08Z</time>
      </trkpt>
      <trkpt lat="43.63217" lon="3.61891">
        <ele>269</ele>
        <time>2021-04-03T09:38:09Z</time>
      </trkpt>
      <trkpt lat="43.63219" lon="3.61896">
        <ele>266</ele>
        <time>2021-04-03T09:38:10Z</time>
      </trkpt>
      <trkpt lat="43.6322" lon="3.61902">
        <ele>266</ele>
        <time>2021-04-03T09:38:11Z</time>
      </trkpt>
      <trkpt lat="43.63221" lon="3.61908">
        <ele>266</ele>
        <time>2021-04-03T09:38:12Z</time>
      </trkpt>
      <trkpt lat="43.63222" lon="3.61913">
        <ele>266</ele>
        <time>2021-04-03T09:38:13Z</time>
      </trkpt>
      <trkpt lat="43.63223" lon="3.61918">
        <ele>266</ele>
        <time>2021-04-03T09:38:14Z</time>
      </trkpt>
      <trkpt lat="43.63224" lon="3.61922">
        <ele>266</ele>
        <time>2021-04-03T09:38:15Z</time>
      </trkpt>
      <trkpt lat="43.63226" lon="3.61925">
        <ele>266</ele>
        <time>2021-04-03T09:38:16Z</time>
      </trkpt>
      <trkpt lat="43.63229" lon="3.61926">
        <ele>266</ele>
        <time>2021-04-03T09:38:17Z</time>
      </trkpt>
      <trkpt lat="43.63232" lon="3.61925">
        <ele>266</ele>
        <time>2021-04-03T09:38:18Z</time>
      </trkpt>
      <trkpt lat="43.63236" lon="3.61923">
        <ele>262</ele>
        <time>2021-04-03T09:38:19Z</time>
      </trkpt>
      <trkpt lat="43.63238" lon="3.6192">
        <ele>262</ele>
        <time>2021-04-03T09:38:20Z</time>
      </trkpt>
      <trkpt lat="43.63241" lon="3.61916">
        <ele>262</ele>
        <time>2021-04-03T09:38:21Z</time>
      </trkpt>
      <trkpt lat="43.63243" lon="3.61911">
        <ele>262</ele>
        <time>2021-04-03T09:38:22Z</time>
      </trkpt>
      <trkpt lat="43.63245" lon="3.61907">
        <ele>262</ele>
        <time>2021-04-03T09:38:23Z</time>
      </trkpt>
      <trkpt lat="43.63246" lon="3.61904">
        <ele>262</ele>
        <time>2021-04-03T09:38:24Z</time>
      </trkpt>
      <trkpt lat="43.63248" lon="3.61901">
        <ele>262</ele>
        <time>2021-04-03T09:38:25Z</time>
      </trkpt>
      <trkpt lat="43.63251" lon="3.61897">
        <ele>262</ele>
        <time>2021-04-03T09:38:26Z</time>
      </trkpt>
      <trkpt lat="43.63254" lon="3.61894">
        <ele>262</ele>
        <time>2021-04-03T09:38:27Z</time>
      </trkpt>
      <trkpt lat="43.63257" lon="3.61891">
        <ele>262</ele>
        <time>2021-04-03T09:38:28Z</time>
      </trkpt>
      <trkpt lat="43.6326" lon="3.61888">
        <ele>259</ele>
        <time>2021-04-03T09:38:29Z</time>
      </trkpt>
      <trkpt lat="43.63263" lon="3.61886">
        <ele>259</ele>
        <time>2021-04-03T09:38:30Z</time>
      </trkpt>
      <trkpt lat="43.63267" lon="3.61884">
        <ele>259</ele>
        <time>2021-04-03T09:38:31Z</time>
      </trkpt>
      <trkpt lat="43.6327" lon="3.61882">
        <ele>259</ele>
        <time>2021-04-03T09:38:32Z</time>
      </trkpt>
      <trkpt lat="43.63274" lon="3.6188">
        <ele>259</ele>
        <time>2021-04-03T09:38:33Z</time>
      </trkpt>
      <trkpt lat="43.63278" lon="3.61879">
        <ele>259</ele>
        <time>2021-04-03T09:38:34Z</time>
      </trkpt>
      <trkpt lat="43.63283" lon="3.61879">
        <ele>259</ele>
        <time>2021-04-03T09:38:35Z</time>
      </trkpt>
      <trkpt lat="43.63287" lon="3.61879">
        <ele>259</ele>
        <time>2021-04-03T09:38:36Z</time>
      </trkpt>
      <trkpt lat="43.6329" lon="3.61881">
        <ele>259</ele>
        <time>2021-04-03T09:38:37Z</time>
      </trkpt>
      <trkpt lat="43.63293" lon="3.61883">
        <ele>259</ele>
        <time>2021-04-03T09:38:38Z</time>
      </trkpt>
      <trkpt lat="43.63296" lon="3.61885">
        <ele>257</ele>
        <time>2021-04-03T09:38:39Z</time>
      </trkpt>
      <trkpt lat="43.63299" lon="3.61887">
        <ele>257</ele>
        <time>2021-04-03T09:38:40Z</time>
      </trkpt>
      <trkpt lat="43.63301" lon="3.61889">
        <ele>257</ele>
        <time>2021-04-03T09:38:41Z</time>
      </trkpt>
      <trkpt lat="43.63302" lon="3.61891">
        <ele>257</ele>
        <time>2021-04-03T09:38:43Z</time>
      </trkpt>
      <trkpt lat="43.63304" lon="3.61894">
        <ele>257</ele>
        <time>2021-04-03T09:38:45Z</time>
      </trkpt>
      <trkpt lat="43.63305" lon="3.61898">
        <ele>257</ele>
        <time>2021-04-03T09:38:47Z</time>
      </trkpt>
      <trkpt lat="43.63307" lon="3.61902">
        <ele>256</ele>
        <time>2021-04-03T09:38:49Z</time>
      </trkpt>
      <trkpt lat="43.63307" lon="3.61904">
        <ele>256</ele>
        <time>2021-04-03T09:38:50Z</time>
      </trkpt>
      <trkpt lat="43.63308" lon="3.61909">
        <ele>256</ele>
        <time>2021-04-03T09:38:52Z</time>
      </trkpt>
      <trkpt lat="43.63309" lon="3.61914">
        <ele>256</ele>
        <time>2021-04-03T09:38:54Z</time>
      </trkpt>
      <trkpt lat="43.6331" lon="3.61917">
        <ele>256</ele>
        <time>2021-04-03T09:38:55Z</time>
      </trkpt>
      <trkpt lat="43.6331" lon="3.61919">
        <ele>256</ele>
        <time>2021-04-03T09:38:56Z</time>
      </trkpt>
      <trkpt lat="43.63309" lon="3.61923">
        <ele>256</ele>
        <time>2021-04-03T09:38:57Z</time>
      </trkpt>
      <trkpt lat="43.63309" lon="3.61926">
        <ele>256</ele>
        <time>2021-04-03T09:38:58Z</time>
      </trkpt>
      <trkpt lat="43.63309" lon="3.61929">
        <ele>256</ele>
        <time>2021-04-03T09:38:59Z</time>
      </trkpt>
      <trkpt lat="43.6331" lon="3.61932">
        <ele>255</ele>
        <time>2021-04-03T09:39:00Z</time>
      </trkpt>
      <trkpt lat="43.63311" lon="3.61936">
        <ele>255</ele>
        <time>2021-04-03T09:39:02Z</time>
      </trkpt>
      <trkpt lat="43.63311" lon="3.61939">
        <ele>255</ele>
        <time>2021-04-03T09:39:03Z</time>
      </trkpt>
      <trkpt lat="43.63312" lon="3.61941">
        <ele>255</ele>
        <time>2021-04-03T09:39:04Z</time>
      </trkpt>
      <trkpt lat="43.63312" lon="3.61946">
        <ele>255</ele>
        <time>2021-04-03T09:39:06Z</time>
      </trkpt>
      <trkpt lat="43.63313" lon="3.61948">
        <ele>255</ele>
        <time>2021-04-03T09:39:07Z</time>
      </trkpt>
      <trkpt lat="43.63315" lon="3.61951">
        <ele>254</ele>
        <time>2021-04-03T09:39:09Z</time>
      </trkpt>
      <trkpt lat="43.63317" lon="3.61955">
        <ele>254</ele>
        <time>2021-04-03T09:39:11Z</time>
      </trkpt>
      <trkpt lat="43.63316" lon="3.61958">
        <ele>254</ele>
        <time>2021-04-03T09:39:13Z</time>
      </trkpt>
      <trkpt lat="43.63314" lon="3.61957">
        <ele>254</ele>
        <time>2021-04-03T09:39:15Z</time>
      </trkpt>
      <trkpt lat="43.63313" lon="3.61954">
        <ele>254</ele>
        <time>2021-04-03T09:39:17Z</time>
      </trkpt>
      <trkpt lat="43.63312" lon="3.61951">
        <ele>254</ele>
        <time>2021-04-03T09:39:18Z</time>
      </trkpt>
      <trkpt lat="43.63312" lon="3.61948">
        <ele>254</ele>
        <time>2021-04-03T09:39:19Z</time>
      </trkpt>
      <trkpt lat="43.63312" lon="3.61945">
        <ele>254</ele>
        <time>2021-04-03T09:39:20Z</time>
      </trkpt>
      <trkpt lat="43.63312" lon="3.61941">
        <ele>254</ele>
        <time>2021-04-03T09:39:21Z</time>
      </trkpt>
      <trkpt lat="43.63311" lon="3.61938">
        <ele>254</ele>
        <time>2021-04-03T09:39:22Z</time>
      </trkpt>
      <trkpt lat="43.6331" lon="3.61935">
        <ele>254</ele>
        <time>2021-04-03T09:39:23Z</time>
      </trkpt>
      <trkpt lat="43.6331" lon="3.61932">
        <ele>254</ele>
        <time>2021-04-03T09:39:24Z</time>
      </trkpt>
      <trkpt lat="43.63309" lon="3.61929">
        <ele>254</ele>
        <time>2021-04-03T09:39:25Z</time>
      </trkpt>
      <trkpt lat="43.63309" lon="3.61926">
        <ele>254</ele>
        <time>2021-04-03T09:39:26Z</time>
      </trkpt>
      <trkpt lat="43.63309" lon="3.61923">
        <ele>254</ele>
        <time>2021-04-03T09:39:27Z</time>
      </trkpt>
      <trkpt lat="43.63308" lon="3.6192">
        <ele>254</ele>
        <time>2021-04-03T09:39:28Z</time>
      </trkpt>
      <trkpt lat="43.63307" lon="3.61916">
        <ele>254</ele>
        <time>2021-04-03T09:39:29Z</time>
      </trkpt>
      <trkpt lat="43.63306" lon="3.61913">
        <ele>254</ele>
        <time>2021-04-03T09:39:30Z</time>
      </trkpt>
      <trkpt lat="43.63305" lon="3.6191">
        <ele>254</ele>
        <time>2021-04-03T09:39:31Z</time>
      </trkpt>
      <trkpt lat="43.63305" lon="3.61906">
        <ele>254</ele>
        <time>2021-04-03T09:39:32Z</time>
      </trkpt>
      <trkpt lat="43.63304" lon="3.61903">
        <ele>254</ele>
        <time>2021-04-03T09:39:33Z</time>
      </trkpt>
      <trkpt lat="43.63303" lon="3.619">
        <ele>254</ele>
        <time>2021-04-03T09:39:34Z</time>
      </trkpt>
      <trkpt lat="43.63302" lon="3.61897">
        <ele>254</ele>
        <time>2021-04-03T09:39:35Z</time>
      </trkpt>
      <trkpt lat="43.63301" lon="3.61894">
        <ele>254</ele>
        <time>2021-04-03T09:39:36Z</time>
      </trkpt>
      <trkpt lat="43.633" lon="3.61892">
        <ele>254</ele>
        <time>2021-04-03T09:39:37Z</time>
      </trkpt>
      <trkpt lat="43.63299" lon="3.6189">
        <ele>254</ele>
        <time>2021-04-03T09:39:39Z</time>
      </trkpt>
      <trkpt lat="43.63294" lon="3.61901">
        <ele>254</ele>
        <time>2021-04-03T09:40:00Z</time>
      </trkpt>
      <trkpt lat="43.63293" lon="3.61904">
        <ele>254</ele>
        <time>2021-04-03T09:40:01Z</time>
      </trkpt>
      <trkpt lat="43.63292" lon="3.61908">
        <ele>254</ele>
        <time>2021-04-03T09:40:02Z</time>
      </trkpt>
      <trkpt lat="43.63291" lon="3.61911">
        <ele>254</ele>
        <time>2021-04-03T09:40:03Z</time>
      </trkpt>
      <trkpt lat="43.63291" lon="3.61915">
        <ele>254</ele>
        <time>2021-04-03T09:40:04Z</time>
      </trkpt>
      <trkpt lat="43.6329" lon="3.61918">
        <ele>254</ele>
        <time>2021-04-03T09:40:05Z</time>
      </trkpt>
      <trkpt lat="43.63289" lon="3.61921">
        <ele>254</ele>
        <time>2021-04-03T09:40:06Z</time>
      </trkpt>
      <trkpt lat="43.63288" lon="3.61925">
        <ele>254</ele>
        <time>2021-04-03T09:40:07Z</time>
      </trkpt>
      <trkpt lat="43.63287" lon="3.61927">
        <ele>254</ele>
        <time>2021-04-03T09:40:08Z</time>
      </trkpt>
      <trkpt lat="43.63287" lon="3.6193">
        <ele>253</ele>
        <time>2021-04-03T09:40:09Z</time>
      </trkpt>
      <trkpt lat="43.6329" lon="3.61918">
        <ele>253</ele>
        <time>2021-04-03T09:41:17Z</time>
      </trkpt>
      <trkpt lat="43.63291" lon="3.61915">
        <ele>253</ele>
        <time>2021-04-03T09:41:18Z</time>
      </trkpt>
      <trkpt lat="43.63292" lon="3.61912">
        <ele>253</ele>
        <time>2021-04-03T09:41:19Z</time>
      </trkpt>
      <trkpt lat="43.63292" lon="3.61909">
        <ele>253</ele>
        <time>2021-04-03T09:41:20Z</time>
      </trkpt>
      <trkpt lat="43.63293" lon="3.61906">
        <ele>253</ele>
        <time>2021-04-03T09:41:21Z</time>
      </trkpt>
      <trkpt lat="43.63294" lon="3.61904">
        <ele>253</ele>
        <time>2021-04-03T09:41:22Z</time>
      </trkpt>
      <trkpt lat="43.63295" lon="3.61901">
        <ele>253</ele>
        <time>2021-04-03T09:41:23Z</time>
      </trkpt>
      <trkpt lat="43.63296" lon="3.61898">
        <ele>253</ele>
        <time>2021-04-03T09:41:24Z</time>
      </trkpt>
      <trkpt lat="43.63297" lon="3.61896">
        <ele>253</ele>
        <time>2021-04-03T09:41:25Z</time>
      </trkpt>
      <trkpt lat="43.63297" lon="3.61893">
        <ele>253</ele>
        <time>2021-04-03T09:41:26Z</time>
      </trkpt>
      <trkpt lat="43.63298" lon="3.6189">
        <ele>253</ele>
        <time>2021-04-03T09:41:27Z</time>
      </trkpt>
      <trkpt lat="43.63298" lon="3.61887">
        <ele>253</ele>
        <time>2021-04-03T09:41:28Z</time>
      </trkpt>
      <trkpt lat="43.63299" lon="3.61885">
        <ele>253</ele>
        <time>2021-04-03T09:41:29Z</time>
      </trkpt>
      <trkpt lat="43.633" lon="3.61882">
        <ele>253</ele>
        <time>2021-04-03T09:41:30Z</time>
      </trkpt>
      <trkpt lat="43.63302" lon="3.61878">
        <ele>253</ele>
        <time>2021-04-03T09:41:31Z</time>
      </trkpt>
      <trkpt lat="43.63303" lon="3.61875">
        <ele>253</ele>
        <time>2021-04-03T09:41:32Z</time>
      </trkpt>
      <trkpt lat="43.63304" lon="3.61872">
        <ele>253</ele>
        <time>2021-04-03T09:41:33Z</time>
      </trkpt>
      <trkpt lat="43.63305" lon="3.6187">
        <ele>253</ele>
        <time>2021-04-03T09:41:34Z</time>
      </trkpt>
      <trkpt lat="43.63307" lon="3.61866">
        <ele>253</ele>
        <time>2021-04-03T09:41:36Z</time>
      </trkpt>
      <trkpt lat="43.63308" lon="3.61861">
        <ele>253</ele>
        <time>2021-04-03T09:41:38Z</time>
      </trkpt>
      <trkpt lat="43.63309" lon="3.61858">
        <ele>253</ele>
        <time>2021-04-03T09:41:39Z</time>
      </trkpt>
      <trkpt lat="43.6331" lon="3.61855">
        <ele>253</ele>
        <time>2021-04-03T09:41:40Z</time>
      </trkpt>
      <trkpt lat="43.63311" lon="3.61853">
        <ele>253</ele>
        <time>2021-04-03T09:41:41Z</time>
      </trkpt>
      <trkpt lat="43.63312" lon="3.61843">
        <ele>255</ele>
        <time>2021-04-03T09:42:36Z</time>
      </trkpt>
      <trkpt lat="43.63313" lon="3.61839">
        <ele>255</ele>
        <time>2021-04-03T09:42:37Z</time>
      </trkpt>
      <trkpt lat="43.63314" lon="3.61836">
        <ele>255</ele>
        <time>2021-04-03T09:42:38Z</time>
      </trkpt>
      <trkpt lat="43.63315" lon="3.61833">
        <ele>255</ele>
        <time>2021-04-03T09:42:39Z</time>
      </trkpt>
      <trkpt lat="43.63316" lon="3.61829">
        <ele>255</ele>
        <time>2021-04-03T09:42:40Z</time>
      </trkpt>
      <trkpt lat="43.63317" lon="3.61826">
        <ele>255</ele>
        <time>2021-04-03T09:42:41Z</time>
      </trkpt>
      <trkpt lat="43.63319" lon="3.61822">
        <ele>255</ele>
        <time>2021-04-03T09:42:42Z</time>
      </trkpt>
      <trkpt lat="43.6332" lon="3.61817">
        <ele>255</ele>
        <time>2021-04-03T09:42:43Z</time>
      </trkpt>
      <trkpt lat="43.63321" lon="3.61813">
        <ele>255</ele>
        <time>2021-04-03T09:42:44Z</time>
      </trkpt>
      <trkpt lat="43.6332" lon="3.61808">
        <ele>255</ele>
        <time>2021-04-03T09:42:45Z</time>
      </trkpt>
      <trkpt lat="43.63319" lon="3.61804">
        <ele>255</ele>
        <time>2021-04-03T09:42:46Z</time>
      </trkpt>
      <trkpt lat="43.63318" lon="3.61801">
        <ele>255</ele>
        <time>2021-04-03T09:42:47Z</time>
      </trkpt>
      <trkpt lat="43.63317" lon="3.61799">
        <ele>255</ele>
        <time>2021-04-03T09:42:48Z</time>
      </trkpt>
      <trkpt lat="43.63316" lon="3.61796">
        <ele>255</ele>
        <time>2021-04-03T09:42:49Z</time>
      </trkpt>
      <trkpt lat="43.63315" lon="3.61792">
        <ele>255</ele>
        <time>2021-04-03T09:42:51Z</time>
      </trkpt>
      <trkpt lat="43.63313" lon="3.61788">
        <ele>255</ele>
        <time>2021-04-03T09:42:53Z</time>
      </trkpt>
      <trkpt lat="43.63311" lon="3.61784">
        <ele>255</ele>
        <time>2021-04-03T09:42:55Z</time>
      </trkpt>
      <trkpt lat="43.6331" lon="3.61782">
        <ele>255</ele>
        <time>2021-04-03T09:42:56Z</time>
      </trkpt>
      <trkpt lat="43.63308" lon="3.61779">
        <ele>254</ele>
        <time>2021-04-03T09:42:57Z</time>
      </trkpt>
      <trkpt lat="43.63306" lon="3.61777">
        <ele>254</ele>
        <time>2021-04-03T09:42:58Z</time>
      </trkpt>
      <trkpt lat="43.63304" lon="3.61775">
        <ele>254</ele>
        <time>2021-04-03T09:42:59Z</time>
      </trkpt>
      <trkpt lat="43.63302" lon="3.61773">
        <ele>254</ele>
        <time>2021-04-03T09:43:00Z</time>
      </trkpt>
      <trkpt lat="43.633" lon="3.6177">
        <ele>254</ele>
        <time>2021-04-03T09:43:02Z</time>
      </trkpt>
      <trkpt lat="43.633" lon="3.61766">
        <ele>254</ele>
        <time>2021-04-03T09:43:04Z</time>
      </trkpt>
      <trkpt lat="43.63302" lon="3.61762">
        <ele>254</ele>
        <time>2021-04-03T09:43:06Z</time>
      </trkpt>
      <trkpt lat="43.63303" lon="3.61761">
        <ele>252</ele>
        <time>2021-04-03T09:43:07Z</time>
      </trkpt>
      <trkpt lat="43.63307" lon="3.61759">
        <ele>252</ele>
        <time>2021-04-03T09:43:09Z</time>
      </trkpt>
      <trkpt lat="43.63309" lon="3.6176">
        <ele>252</ele>
        <time>2021-04-03T09:43:13Z</time>
      </trkpt>
      <trkpt lat="43.63313" lon="3.61759">
        <ele>252</ele>
        <time>2021-04-03T09:43:15Z</time>
      </trkpt>
      <trkpt lat="43.63316" lon="3.61758">
        <ele>252</ele>
        <time>2021-04-03T09:43:16Z</time>
      </trkpt>
      <trkpt lat="43.63318" lon="3.61757">
        <ele>249</ele>
        <time>2021-04-03T09:43:17Z</time>
      </trkpt>
      <trkpt lat="43.63321" lon="3.61757">
        <ele>249</ele>
        <time>2021-04-03T09:43:19Z</time>
      </trkpt>
      <trkpt lat="43.6332" lon="3.61757">
        <ele>248</ele>
        <time>2021-04-03T09:43:29Z</time>
      </trkpt>
      <trkpt lat="43.63333" lon="3.61754">
        <ele>245</ele>
        <time>2021-04-03T09:43:54Z</time>
      </trkpt>
      <trkpt lat="43.63334" lon="3.61753">
        <ele>245</ele>
        <time>2021-04-03T09:43:55Z</time>
      </trkpt>
      <trkpt lat="43.63335" lon="3.6175">
        <ele>245</ele>
        <time>2021-04-03T09:43:57Z</time>
      </trkpt>
      <trkpt lat="43.63335" lon="3.61745">
        <ele>245</ele>
        <time>2021-04-03T09:43:59Z</time>
      </trkpt>
      <trkpt lat="43.63334" lon="3.61742">
        <ele>245</ele>
        <time>2021-04-03T09:44:00Z</time>
      </trkpt>
      <trkpt lat="43.63333" lon="3.61739">
        <ele>245</ele>
        <time>2021-04-03T09:44:01Z</time>
      </trkpt>
      <trkpt lat="43.63332" lon="3.61735">
        <ele>242</ele>
        <time>2021-04-03T09:44:03Z</time>
      </trkpt>
      <trkpt lat="43.63331" lon="3.6173">
        <ele>242</ele>
        <time>2021-04-03T09:44:05Z</time>
      </trkpt>
      <trkpt lat="43.63331" lon="3.61727">
        <ele>242</ele>
        <time>2021-04-03T09:44:06Z</time>
      </trkpt>
      <trkpt lat="43.6333" lon="3.61724">
        <ele>242</ele>
        <time>2021-04-03T09:44:07Z</time>
      </trkpt>
      <trkpt lat="43.6333" lon="3.61721">
        <ele>242</ele>
        <time>2021-04-03T09:44:08Z</time>
      </trkpt>
      <trkpt lat="43.6333" lon="3.61717">
        <ele>242</ele>
        <time>2021-04-03T09:44:09Z</time>
      </trkpt>
      <trkpt lat="43.63329" lon="3.61715">
        <ele>242</ele>
        <time>2021-04-03T09:44:10Z</time>
      </trkpt>
      <trkpt lat="43.63328" lon="3.61711">
        <ele>242</ele>
        <time>2021-04-03T09:44:12Z</time>
      </trkpt>
      <trkpt lat="43.63327" lon="3.61707">
        <ele>242</ele>
        <time>2021-04-03T09:44:13Z</time>
      </trkpt>
      <trkpt lat="43.63326" lon="3.61704">
        <ele>240</ele>
        <time>2021-04-03T09:44:14Z</time>
      </trkpt>
      <trkpt lat="43.63325" lon="3.61701">
        <ele>240</ele>
        <time>2021-04-03T09:44:15Z</time>
      </trkpt>
      <trkpt lat="43.63324" lon="3.61697">
        <ele>240</ele>
        <time>2021-04-03T09:44:16Z</time>
      </trkpt>
      <trkpt lat="43.63323" lon="3.61694">
        <ele>240</ele>
        <time>2021-04-03T09:44:17Z</time>
      </trkpt>
      <trkpt lat="43.63324" lon="3.61691">
        <ele>240</ele>
        <time>2021-04-03T09:44:18Z</time>
      </trkpt>
      <trkpt lat="43.63325" lon="3.61688">
        <ele>240</ele>
        <time>2021-04-03T09:44:19Z</time>
      </trkpt>
      <trkpt lat="43.63327" lon="3.61685">
        <ele>240</ele>
        <time>2021-04-03T09:44:20Z</time>
      </trkpt>
      <trkpt lat="43.6333" lon="3.61682">
        <ele>240</ele>
        <time>2021-04-03T09:44:21Z</time>
      </trkpt>
      <trkpt lat="43.63332" lon="3.61679">
        <ele>240</ele>
        <time>2021-04-03T09:44:22Z</time>
      </trkpt>
      <trkpt lat="43.63334" lon="3.61677">
        <ele>240</ele>
        <time>2021-04-03T09:44:23Z</time>
      </trkpt>
      <trkpt lat="43.63336" lon="3.61674">
        <ele>240</ele>
        <time>2021-04-03T09:44:24Z</time>
      </trkpt>
      <trkpt lat="43.63337" lon="3.61671">
        <ele>240</ele>
        <time>2021-04-03T09:44:25Z</time>
      </trkpt>
      <trkpt lat="43.63339" lon="3.61668">
        <ele>240</ele>
        <time>2021-04-03T09:44:26Z</time>
      </trkpt>
      <trkpt lat="43.63341" lon="3.61665">
        <ele>240</ele>
        <time>2021-04-03T09:44:27Z</time>
      </trkpt>
      <trkpt lat="43.63341" lon="3.61662">
        <ele>240</ele>
        <time>2021-04-03T09:44:29Z</time>
      </trkpt>
      <trkpt lat="43.63343" lon="3.61658">
        <ele>240</ele>
        <time>2021-04-03T09:44:31Z</time>
      </trkpt>
      <trkpt lat="43.63345" lon="3.61656">
        <ele>240</ele>
        <time>2021-04-03T09:44:32Z</time>
      </trkpt>
      <trkpt lat="43.63346" lon="3.61653">
        <ele>240</ele>
        <time>2021-04-03T09:44:33Z</time>
      </trkpt>
      <trkpt lat="43.63348" lon="3.6165">
        <ele>238</ele>
        <time>2021-04-03T09:44:34Z</time>
      </trkpt>
      <trkpt lat="43.6335" lon="3.61648">
        <ele>238</ele>
        <time>2021-04-03T09:44:35Z</time>
      </trkpt>
      <trkpt lat="43.63352" lon="3.61646">
        <ele>238</ele>
        <time>2021-04-03T09:44:36Z</time>
      </trkpt>
      <trkpt lat="43.63354" lon="3.61644">
        <ele>238</ele>
        <time>2021-04-03T09:44:37Z</time>
      </trkpt>
      <trkpt lat="43.63356" lon="3.61641">
        <ele>238</ele>
        <time>2021-04-03T09:44:38Z</time>
      </trkpt>
      <trkpt lat="43.63357" lon="3.61637">
        <ele>238</ele>
        <time>2021-04-03T09:44:39Z</time>
      </trkpt>
      <trkpt lat="43.63359" lon="3.61634">
        <ele>238</ele>
        <time>2021-04-03T09:44:40Z</time>
      </trkpt>
      <trkpt lat="43.6336" lon="3.61631">
        <ele>238</ele>
        <time>2021-04-03T09:44:41Z</time>
      </trkpt>
      <trkpt lat="43.63361" lon="3.61627">
        <ele>238</ele>
        <time>2021-04-03T09:44:42Z</time>
      </trkpt>
      <trkpt lat="43.63362" lon="3.61623">
        <ele>237</ele>
        <time>2021-04-03T09:44:43Z</time>
      </trkpt>
      <trkpt lat="43.63363" lon="3.6162">
        <ele>237</ele>
        <time>2021-04-03T09:44:44Z</time>
      </trkpt>
      <trkpt lat="43.63363" lon="3.61617">
        <ele>237</ele>
        <time>2021-04-03T09:44:45Z</time>
      </trkpt>
      <trkpt lat="43.63364" lon="3.61613">
        <ele>237</ele>
        <time>2021-04-03T09:44:46Z</time>
      </trkpt>
      <trkpt lat="43.63366" lon="3.61609">
        <ele>237</ele>
        <time>2021-04-03T09:44:47Z</time>
      </trkpt>
      <trkpt lat="43.63367" lon="3.61605">
        <ele>237</ele>
        <time>2021-04-03T09:44:48Z</time>
      </trkpt>
      <trkpt lat="43.63369" lon="3.61601">
        <ele>237</ele>
        <time>2021-04-03T09:44:49Z</time>
      </trkpt>
      <trkpt lat="43.6337" lon="3.61597">
        <ele>237</ele>
        <time>2021-04-03T09:44:50Z</time>
      </trkpt>
      <trkpt lat="43.63372" lon="3.61593">
        <ele>237</ele>
        <time>2021-04-03T09:44:51Z</time>
      </trkpt>
      <trkpt lat="43.63374" lon="3.61588">
        <ele>237</ele>
        <time>2021-04-03T09:44:52Z</time>
      </trkpt>
      <trkpt lat="43.63376" lon="3.61584">
        <ele>237</ele>
        <time>2021-04-03T09:44:53Z</time>
      </trkpt>
      <trkpt lat="43.63376" lon="3.61578">
        <ele>235</ele>
        <time>2021-04-03T09:44:54Z</time>
      </trkpt>
      <trkpt lat="43.63376" lon="3.61576">
        <ele>235</ele>
        <time>2021-04-03T09:44:55Z</time>
      </trkpt>
      <trkpt lat="43.63377" lon="3.6157">
        <ele>235</ele>
        <time>2021-04-03T09:44:57Z</time>
      </trkpt>
      <trkpt lat="43.63379" lon="3.61566">
        <ele>235</ele>
        <time>2021-04-03T09:44:59Z</time>
      </trkpt>
      <trkpt lat="43.63379" lon="3.61563">
        <ele>235</ele>
        <time>2021-04-03T09:45:00Z</time>
      </trkpt>
      <trkpt lat="43.6338" lon="3.6156">
        <ele>235</ele>
        <time>2021-04-03T09:45:01Z</time>
      </trkpt>
      <trkpt lat="43.6338" lon="3.61557">
        <ele>232</ele>
        <time>2021-04-03T09:45:03Z</time>
      </trkpt>
      <trkpt lat="43.63381" lon="3.61554">
        <ele>232</ele>
        <time>2021-04-03T09:45:04Z</time>
      </trkpt>
      <trkpt lat="43.63381" lon="3.61551">
        <ele>232</ele>
        <time>2021-04-03T09:45:05Z</time>
      </trkpt>
      <trkpt lat="43.63381" lon="3.61547">
        <ele>232</ele>
        <time>2021-04-03T09:45:06Z</time>
      </trkpt>
      <trkpt lat="43.63382" lon="3.61543">
        <ele>232</ele>
        <time>2021-04-03T09:45:07Z</time>
      </trkpt>
      <trkpt lat="43.63383" lon="3.61538">
        <ele>232</ele>
        <time>2021-04-03T09:45:08Z</time>
      </trkpt>
      <trkpt lat="43.63384" lon="3.61534">
        <ele>232</ele>
        <time>2021-04-03T09:45:09Z</time>
      </trkpt>
      <trkpt lat="43.63386" lon="3.61529">
        <ele>232</ele>
        <time>2021-04-03T09:45:10Z</time>
      </trkpt>
      <trkpt lat="43.63388" lon="3.61525">
        <ele>232</ele>
        <time>2021-04-03T09:45:11Z</time>
      </trkpt>
      <trkpt lat="43.6339" lon="3.61521">
        <ele>232</ele>
        <time>2021-04-03T09:45:12Z</time>
      </trkpt>
      <trkpt lat="43.6339" lon="3.61518">
        <ele>232</ele>
        <time>2021-04-03T09:45:13Z</time>
      </trkpt>
      <trkpt lat="43.63391" lon="3.61514">
        <ele>229</ele>
        <time>2021-04-03T09:45:14Z</time>
      </trkpt>
      <trkpt lat="43.63391" lon="3.6151">
        <ele>229</ele>
        <time>2021-04-03T09:45:15Z</time>
      </trkpt>
      <trkpt lat="43.63392" lon="3.61506">
        <ele>229</ele>
        <time>2021-04-03T09:45:16Z</time>
      </trkpt>
      <trkpt lat="43.63392" lon="3.61502">
        <ele>229</ele>
        <time>2021-04-03T09:45:17Z</time>
      </trkpt>
      <trkpt lat="43.63392" lon="3.61499">
        <ele>229</ele>
        <time>2021-04-03T09:45:18Z</time>
      </trkpt>
      <trkpt lat="43.63392" lon="3.61495">
        <ele>229</ele>
        <time>2021-04-03T09:45:19Z</time>
      </trkpt>
      <trkpt lat="43.63392" lon="3.61492">
        <ele>229</ele>
        <time>2021-04-03T09:45:20Z</time>
      </trkpt>
      <trkpt lat="43.63392" lon="3.61488">
        <ele>229</ele>
        <time>2021-04-03T09:45:21Z</time>
      </trkpt>
      <trkpt lat="43.63391" lon="3.61484">
        <ele>229</ele>
        <time>2021-04-03T09:45:22Z</time>
      </trkpt>
      <trkpt lat="43.6339" lon="3.6148">
        <ele>224</ele>
        <time>2021-04-03T09:45:23Z</time>
      </trkpt>
      <trkpt lat="43.6339" lon="3.61475">
        <ele>224</ele>
        <time>2021-04-03T09:45:24Z</time>
      </trkpt>
      <trkpt lat="43.63389" lon="3.61471">
        <ele>224</ele>
        <time>2021-04-03T09:45:25Z</time>
      </trkpt>
      <trkpt lat="43.63388" lon="3.61468">
        <ele>224</ele>
        <time>2021-04-03T09:45:26Z</time>
      </trkpt>
      <trkpt lat="43.63388" lon="3.61465">
        <ele>224</ele>
        <time>2021-04-03T09:45:27Z</time>
      </trkpt>
      <trkpt lat="43.63387" lon="3.61463">
        <ele>224</ele>
        <time>2021-04-03T09:45:28Z</time>
      </trkpt>
      <trkpt lat="43.63385" lon="3.6146">
        <ele>224</ele>
        <time>2021-04-03T09:45:29Z</time>
      </trkpt>
      <trkpt lat="43.63383" lon="3.61456">
        <ele>224</ele>
        <time>2021-04-03T09:45:30Z</time>
      </trkpt>
      <trkpt lat="43.63381" lon="3.61452">
        <ele>224</ele>
        <time>2021-04-03T09:45:31Z</time>
      </trkpt>
      <trkpt lat="43.63379" lon="3.61448">
        <ele>224</ele>
        <time>2021-04-03T09:45:32Z</time>
      </trkpt>
      <trkpt lat="43.63378" lon="3.61444">
        <ele>220</ele>
        <time>2021-04-03T09:45:33Z</time>
      </trkpt>
      <trkpt lat="43.63377" lon="3.61441">
        <ele>220</ele>
        <time>2021-04-03T09:45:34Z</time>
      </trkpt>
      <trkpt lat="43.63375" lon="3.61438">
        <ele>220</ele>
        <time>2021-04-03T09:45:35Z</time>
      </trkpt>
      <trkpt lat="43.63374" lon="3.61435">
        <ele>220</ele>
        <time>2021-04-03T09:45:36Z</time>
      </trkpt>
      <trkpt lat="43.63372" lon="3.61432">
        <ele>220</ele>
        <time>2021-04-03T09:45:37Z</time>
      </trkpt>
      <trkpt lat="43.63371" lon="3.61428">
        <ele>220</ele>
        <time>2021-04-03T09:45:38Z</time>
      </trkpt>
      <trkpt lat="43.63371" lon="3.61425">
        <ele>220</ele>
        <time>2021-04-03T09:45:39Z</time>
      </trkpt>
      <trkpt lat="43.6337" lon="3.61422">
        <ele>220</ele>
        <time>2021-04-03T09:45:40Z</time>
      </trkpt>
      <trkpt lat="43.6337" lon="3.61418">
        <ele>220</ele>
        <time>2021-04-03T09:45:41Z</time>
      </trkpt>
      <trkpt lat="43.6337" lon="3.61414">
        <ele>220</ele>
        <time>2021-04-03T09:45:42Z</time>
      </trkpt>
      <trkpt lat="43.63369" lon="3.6141">
        <ele>218</ele>
        <time>2021-04-03T09:45:43Z</time>
      </trkpt>
      <trkpt lat="43.63368" lon="3.61406">
        <ele>218</ele>
        <time>2021-04-03T09:45:44Z</time>
      </trkpt>
      <trkpt lat="43.63368" lon="3.61403">
        <ele>218</ele>
        <time>2021-04-03T09:45:45Z</time>
      </trkpt>
      <trkpt lat="43.63368" lon="3.614">
        <ele>218</ele>
        <time>2021-04-03T09:45:46Z</time>
      </trkpt>
      <trkpt lat="43.63367" lon="3.61398">
        <ele>218</ele>
        <time>2021-04-03T09:45:47Z</time>
      </trkpt>
      <trkpt lat="43.63366" lon="3.61394">
        <ele>218</ele>
        <time>2021-04-03T09:45:49Z</time>
      </trkpt>
      <trkpt lat="43.63366" lon="3.61389">
        <ele>218</ele>
        <time>2021-04-03T09:45:51Z</time>
      </trkpt>
      <trkpt lat="43.63366" lon="3.61386">
        <ele>218</ele>
        <time>2021-04-03T09:45:52Z</time>
      </trkpt>
      <trkpt lat="43.63366" lon="3.61381">
        <ele>218</ele>
        <time>2021-04-03T09:45:53Z</time>
      </trkpt>
      <trkpt lat="43.63365" lon="3.61378">
        <ele>216</ele>
        <time>2021-04-03T09:45:54Z</time>
      </trkpt>
      <trkpt lat="43.63364" lon="3.61374">
        <ele>216</ele>
        <time>2021-04-03T09:45:55Z</time>
      </trkpt>
      <trkpt lat="43.63363" lon="3.61371">
        <ele>216</ele>
        <time>2021-04-03T09:45:56Z</time>
      </trkpt>
      <trkpt lat="43.63362" lon="3.61368">
        <ele>216</ele>
        <time>2021-04-03T09:45:57Z</time>
      </trkpt>
      <trkpt lat="43.63362" lon="3.61365">
        <ele>216</ele>
        <time>2021-04-03T09:45:58Z</time>
      </trkpt>
      <trkpt lat="43.63361" lon="3.61361">
        <ele>216</ele>
        <time>2021-04-03T09:45:59Z</time>
      </trkpt>
      <trkpt lat="43.63361" lon="3.61358">
        <ele>216</ele>
        <time>2021-04-03T09:46:00Z</time>
      </trkpt>
      <trkpt lat="43.63361" lon="3.61354">
        <ele>216</ele>
        <time>2021-04-03T09:46:01Z</time>
      </trkpt>
      <trkpt lat="43.63361" lon="3.61351">
        <ele>216</ele>
        <time>2021-04-03T09:46:02Z</time>
      </trkpt>
      <trkpt lat="43.63362" lon="3.61349">
        <ele>213</ele>
        <time>2021-04-03T09:46:03Z</time>
      </trkpt>
      <trkpt lat="43.63363" lon="3.61346">
        <ele>213</ele>
        <time>2021-04-03T09:46:04Z</time>
      </trkpt>
      <trkpt lat="43.63364" lon="3.61342">
        <ele>213</ele>
        <time>2021-04-03T09:46:05Z</time>
      </trkpt>
      <trkpt lat="43.63363" lon="3.61339">
        <ele>213</ele>
        <time>2021-04-03T09:46:06Z</time>
      </trkpt>
      <trkpt lat="43.63362" lon="3.61335">
        <ele>213</ele>
        <time>2021-04-03T09:46:07Z</time>
      </trkpt>
      <trkpt lat="43.63361" lon="3.61331">
        <ele>213</ele>
        <time>2021-04-03T09:46:08Z</time>
      </trkpt>
      <trkpt lat="43.63361" lon="3.61327">
        <ele>213</ele>
        <time>2021-04-03T09:46:09Z</time>
      </trkpt>
      <trkpt lat="43.63361" lon="3.61323">
        <ele>213</ele>
        <time>2021-04-03T09:46:10Z</time>
      </trkpt>
      <trkpt lat="43.63361" lon="3.61319">
        <ele>213</ele>
        <time>2021-04-03T09:46:11Z</time>
      </trkpt>
      <trkpt lat="43.6336" lon="3.61316">
        <ele>213</ele>
        <time>2021-04-03T09:46:12Z</time>
      </trkpt>
      <trkpt lat="43.6336" lon="3.61314">
        <ele>213</ele>
        <time>2021-04-03T09:46:13Z</time>
      </trkpt>
      <trkpt lat="43.6336" lon="3.61311">
        <ele>211</ele>
        <time>2021-04-03T09:46:14Z</time>
      </trkpt>
      <trkpt lat="43.6336" lon="3.61308">
        <ele>211</ele>
        <time>2021-04-03T09:46:15Z</time>
      </trkpt>
      <trkpt lat="43.63359" lon="3.61304">
        <ele>211</ele>
        <time>2021-04-03T09:46:16Z</time>
      </trkpt>
      <trkpt lat="43.63358" lon="3.61301">
        <ele>211</ele>
        <time>2021-04-03T09:46:17Z</time>
      </trkpt>
      <trkpt lat="43.63358" lon="3.61298">
        <ele>211</ele>
        <time>2021-04-03T09:46:18Z</time>
      </trkpt>
      <trkpt lat="43.63357" lon="3.61295">
        <ele>211</ele>
        <time>2021-04-03T09:46:19Z</time>
      </trkpt>
      <trkpt lat="43.63357" lon="3.61292">
        <ele>211</ele>
        <time>2021-04-03T09:46:20Z</time>
      </trkpt>
      <trkpt lat="43.63356" lon="3.61289">
        <ele>211</ele>
        <time>2021-04-03T09:46:21Z</time>
      </trkpt>
      <trkpt lat="43.63356" lon="3.61285">
        <ele>211</ele>
        <time>2021-04-03T09:46:22Z</time>
      </trkpt>
      <trkpt lat="43.63356" lon="3.61281">
        <ele>208</ele>
        <time>2021-04-03T09:46:23Z</time>
      </trkpt>
      <trkpt lat="43.63356" lon="3.61278">
        <ele>208</ele>
        <time>2021-04-03T09:46:24Z</time>
      </trkpt>
      <trkpt lat="43.63356" lon="3.61275">
        <ele>208</ele>
        <time>2021-04-03T09:46:25Z</time>
      </trkpt>
      <trkpt lat="43.63355" lon="3.61273">
        <ele>208</ele>
        <time>2021-04-03T09:46:27Z</time>
      </trkpt>
      <trkpt lat="43.63354" lon="3.61261">
        <ele>204</ele>
        <time>2021-04-03T09:46:56Z</time>
      </trkpt>
      <trkpt lat="43.63355" lon="3.61257">
        <ele>204</ele>
        <time>2021-04-03T09:46:57Z</time>
      </trkpt>
      <trkpt lat="43.63354" lon="3.61253">
        <ele>204</ele>
        <time>2021-04-03T09:46:58Z</time>
      </trkpt>
      <trkpt lat="43.63354" lon="3.6125">
        <ele>204</ele>
        <time>2021-04-03T09:46:59Z</time>
      </trkpt>
      <trkpt lat="43.63354" lon="3.61247">
        <ele>204</ele>
        <time>2021-04-03T09:47:00Z</time>
      </trkpt>
      <trkpt lat="43.63354" lon="3.61243">
        <ele>204</ele>
        <time>2021-04-03T09:47:02Z</time>
      </trkpt>
      <trkpt lat="43.63355" lon="3.61241">
        <ele>204</ele>
        <time>2021-04-03T09:47:09Z</time>
      </trkpt>
      <trkpt lat="43.63356" lon="3.61239">
        <ele>204</ele>
        <time>2021-04-03T09:47:12Z</time>
      </trkpt>
      <trkpt lat="43.63357" lon="3.61235">
        <ele>204</ele>
        <time>2021-04-03T09:47:15Z</time>
      </trkpt>
      <trkpt lat="43.63357" lon="3.61232">
        <ele>201</ele>
        <time>2021-04-03T09:47:16Z</time>
      </trkpt>
      <trkpt lat="43.63356" lon="3.61229">
        <ele>201</ele>
        <time>2021-04-03T09:47:17Z</time>
      </trkpt>
      <trkpt lat="43.63357" lon="3.61226">
        <ele>201</ele>
        <time>2021-04-03T09:47:20Z</time>
      </trkpt>
      <trkpt lat="43.63357" lon="3.61223">
        <ele>201</ele>
        <time>2021-04-03T09:47:22Z</time>
      </trkpt>
      <trkpt lat="43.63358" lon="3.6122">
        <ele>200</ele>
        <time>2021-04-03T09:47:31Z</time>
      </trkpt>
      <trkpt lat="43.63356" lon="3.61213">
        <ele>200</ele>
        <time>2021-04-03T09:47:35Z</time>
      </trkpt>
      <trkpt lat="43.63358" lon="3.61209">
        <ele>200</ele>
        <time>2021-04-03T09:47:37Z</time>
      </trkpt>
      <trkpt lat="43.63358" lon="3.61206">
        <ele>200</ele>
        <time>2021-04-03T09:47:39Z</time>
      </trkpt>
      <trkpt lat="43.6336" lon="3.61192">
        <ele>197</ele>
        <time>2021-04-03T09:48:00Z</time>
      </trkpt>
      <trkpt lat="43.63361" lon="3.6119">
        <ele>197</ele>
        <time>2021-04-03T09:48:01Z</time>
      </trkpt>
      <trkpt lat="43.63365" lon="3.61182">
        <ele>197</ele>
        <time>2021-04-03T09:48:04Z</time>
      </trkpt>
      <trkpt lat="43.63367" lon="3.61179">
        <ele>197</ele>
        <time>2021-04-03T09:48:05Z</time>
      </trkpt>
      <trkpt lat="43.63369" lon="3.61169">
        <ele>197</ele>
        <time>2021-04-03T09:48:09Z</time>
      </trkpt>
      <trkpt lat="43.63369" lon="3.61166">
        <ele>196</ele>
        <time>2021-04-03T09:48:10Z</time>
      </trkpt>
      <trkpt lat="43.63369" lon="3.61162">
        <ele>196</ele>
        <time>2021-04-03T09:48:11Z</time>
      </trkpt>
      <trkpt lat="43.6337" lon="3.61149">
        <ele>196</ele>
        <time>2021-04-03T09:48:15Z</time>
      </trkpt>
      <trkpt lat="43.6337" lon="3.61143">
        <ele>196</ele>
        <time>2021-04-03T09:48:17Z</time>
      </trkpt>
      <trkpt lat="43.6337" lon="3.61139">
        <ele>196</ele>
        <time>2021-04-03T09:48:18Z</time>
      </trkpt>
      <trkpt lat="43.63371" lon="3.61136">
        <ele>196</ele>
        <time>2021-04-03T09:48:19Z</time>
      </trkpt>
      <trkpt lat="43.63372" lon="3.61134">
        <ele>194</ele>
        <time>2021-04-03T09:48:20Z</time>
      </trkpt>
      <trkpt lat="43.63373" lon="3.6113">
        <ele>194</ele>
        <time>2021-04-03T09:48:21Z</time>
      </trkpt>
      <trkpt lat="43.63379" lon="3.61117">
        <ele>194</ele>
        <time>2021-04-03T09:48:24Z</time>
      </trkpt>
      <trkpt lat="43.63385" lon="3.61103">
        <ele>194</ele>
        <time>2021-04-03T09:48:27Z</time>
      </trkpt>
      <trkpt lat="43.63392" lon="3.61093">
        <ele>194</ele>
        <time>2021-04-03T09:48:30Z</time>
      </trkpt>
      <trkpt lat="43.63397" lon="3.61082">
        <ele>194</ele>
        <time>2021-04-03T09:48:34Z</time>
      </trkpt>
      <trkpt lat="43.63398" lon="3.61079">
        <ele>194</ele>
        <time>2021-04-03T09:48:35Z</time>
      </trkpt>
      <trkpt lat="43.63399" lon="3.61075">
        <ele>194</ele>
        <time>2021-04-03T09:48:36Z</time>
      </trkpt>
      <trkpt lat="43.63401" lon="3.61072">
        <ele>194</ele>
        <time>2021-04-03T09:48:37Z</time>
      </trkpt>
      <trkpt lat="43.63403" lon="3.61068">
        <ele>194</ele>
        <time>2021-04-03T09:48:38Z</time>
      </trkpt>
      <trkpt lat="43.63406" lon="3.61064">
        <ele>190</ele>
        <time>2021-04-03T09:48:39Z</time>
      </trkpt>
      <trkpt lat="43.63408" lon="3.61061">
        <ele>190</ele>
        <time>2021-04-03T09:48:40Z</time>
      </trkpt>
      <trkpt lat="43.6341" lon="3.61056">
        <ele>190</ele>
        <time>2021-04-03T09:48:41Z</time>
      </trkpt>
      <trkpt lat="43.63412" lon="3.61053">
        <ele>190</ele>
        <time>2021-04-03T09:48:42Z</time>
      </trkpt>
      <trkpt lat="43.63414" lon="3.6105">
        <ele>190</ele>
        <time>2021-04-03T09:48:43Z</time>
      </trkpt>
      <trkpt lat="43.63415" lon="3.61048">
        <ele>190</ele>
        <time>2021-04-03T09:48:44Z</time>
      </trkpt>
      <trkpt lat="43.63417" lon="3.61043">
        <ele>190</ele>
        <time>2021-04-03T09:48:46Z</time>
      </trkpt>
      <trkpt lat="43.63418" lon="3.6104">
        <ele>190</ele>
        <time>2021-04-03T09:48:47Z</time>
      </trkpt>
      <trkpt lat="43.6342" lon="3.61038">
        <ele>190</ele>
        <time>2021-04-03T09:48:48Z</time>
      </trkpt>
      <trkpt lat="43.63421" lon="3.61036">
        <ele>188</ele>
        <time>2021-04-03T09:48:49Z</time>
      </trkpt>
      <trkpt lat="43.63422" lon="3.61033">
        <ele>188</ele>
        <time>2021-04-03T09:48:50Z</time>
      </trkpt>
      <trkpt lat="43.63423" lon="3.6103">
        <ele>188</ele>
        <time>2021-04-03T09:48:52Z</time>
      </trkpt>
      <trkpt lat="43.63426" lon="3.61027">
        <ele>188</ele>
        <time>2021-04-03T09:48:54Z</time>
      </trkpt>
      <trkpt lat="43.63427" lon="3.61025">
        <ele>188</ele>
        <time>2021-04-03T09:48:55Z</time>
      </trkpt>
      <trkpt lat="43.63429" lon="3.61023">
        <ele>188</ele>
        <time>2021-04-03T09:48:56Z</time>
      </trkpt>
      <trkpt lat="43.6343" lon="3.61021">
        <ele>188</ele>
        <time>2021-04-03T09:48:57Z</time>
      </trkpt>
      <trkpt lat="43.63433" lon="3.6102">
        <ele>188</ele>
        <time>2021-04-03T09:48:58Z</time>
      </trkpt>
      <trkpt lat="43.63435" lon="3.61018">
        <ele>185</ele>
        <time>2021-04-03T09:48:59Z</time>
      </trkpt>
      <trkpt lat="43.63437" lon="3.61016">
        <ele>185</ele>
        <time>2021-04-03T09:49:00Z</time>
      </trkpt>
      <trkpt lat="43.63439" lon="3.61015">
        <ele>185</ele>
        <time>2021-04-03T09:49:01Z</time>
      </trkpt>
      <trkpt lat="43.6344" lon="3.61013">
        <ele>185</ele>
        <time>2021-04-03T09:49:02Z</time>
      </trkpt>
      <trkpt lat="43.63441" lon="3.6101">
        <ele>185</ele>
        <time>2021-04-03T09:49:03Z</time>
      </trkpt>
      <trkpt lat="43.63443" lon="3.61008">
        <ele>185</ele>
        <time>2021-04-03T09:49:04Z</time>
      </trkpt>
      <trkpt lat="43.63445" lon="3.61006">
        <ele>185</ele>
        <time>2021-04-03T09:49:05Z</time>
      </trkpt>
      <trkpt lat="43.63446" lon="3.61005">
        <ele>185</ele>
        <time>2021-04-03T09:49:06Z</time>
      </trkpt>
      <trkpt lat="43.63448" lon="3.61003">
        <ele>185</ele>
        <time>2021-04-03T09:49:07Z</time>
      </trkpt>
      <trkpt lat="43.63451" lon="3.61001">
        <ele>185</ele>
        <time>2021-04-03T09:49:08Z</time>
      </trkpt>
      <trkpt lat="43.63453" lon="3.60999">
        <ele>185</ele>
        <time>2021-04-03T09:49:09Z</time>
      </trkpt>
      <trkpt lat="43.63456" lon="3.60997">
        <ele>182</ele>
        <time>2021-04-03T09:49:10Z</time>
      </trkpt>
      <trkpt lat="43.63459" lon="3.60996">
        <ele>182</ele>
        <time>2021-04-03T09:49:11Z</time>
      </trkpt>
      <trkpt lat="43.63461" lon="3.60994">
        <ele>182</ele>
        <time>2021-04-03T09:49:12Z</time>
      </trkpt>
      <trkpt lat="43.63463" lon="3.60992">
        <ele>182</ele>
        <time>2021-04-03T09:49:13Z</time>
      </trkpt>
      <trkpt lat="43.63465" lon="3.60989">
        <ele>182</ele>
        <time>2021-04-03T09:49:14Z</time>
      </trkpt>
      <trkpt lat="43.63468" lon="3.60986">
        <ele>182</ele>
        <time>2021-04-03T09:49:15Z</time>
      </trkpt>
      <trkpt lat="43.6347" lon="3.60983">
        <ele>182</ele>
        <time>2021-04-03T09:49:16Z</time>
      </trkpt>
      <trkpt lat="43.63471" lon="3.6098">
        <ele>182</ele>
        <time>2021-04-03T09:49:17Z</time>
      </trkpt>
      <trkpt lat="43.63473" lon="3.60978">
        <ele>182</ele>
        <time>2021-04-03T09:49:18Z</time>
      </trkpt>
      <trkpt lat="43.63476" lon="3.60975">
        <ele>179</ele>
        <time>2021-04-03T09:49:19Z</time>
      </trkpt>
      <trkpt lat="43.63478" lon="3.60973">
        <ele>179</ele>
        <time>2021-04-03T09:49:20Z</time>
      </trkpt>
      <trkpt lat="43.6348" lon="3.6097">
        <ele>179</ele>
        <time>2021-04-03T09:49:21Z</time>
      </trkpt>
      <trkpt lat="43.63482" lon="3.60966">
        <ele>179</ele>
        <time>2021-04-03T09:49:23Z</time>
      </trkpt>
      <trkpt lat="43.63484" lon="3.60964">
        <ele>179</ele>
        <time>2021-04-03T09:49:24Z</time>
      </trkpt>
      <trkpt lat="43.63485" lon="3.6095">
        <ele>176</ele>
        <time>2021-04-03T09:49:29Z</time>
      </trkpt>
      <trkpt lat="43.63485" lon="3.60946">
        <ele>176</ele>
        <time>2021-04-03T09:49:30Z</time>
      </trkpt>
      <trkpt lat="43.63485" lon="3.60942">
        <ele>176</ele>
        <time>2021-04-03T09:49:31Z</time>
      </trkpt>
      <trkpt lat="43.63487" lon="3.60937">
        <ele>176</ele>
        <time>2021-04-03T09:49:32Z</time>
      </trkpt>
      <trkpt lat="43.63489" lon="3.60933">
        <ele>176</ele>
        <time>2021-04-03T09:49:33Z</time>
      </trkpt>
      <trkpt lat="43.63492" lon="3.60927">
        <ele>176</ele>
        <time>2021-04-03T09:49:35Z</time>
      </trkpt>
      <trkpt lat="43.63493" lon="3.60925">
        <ele>176</ele>
        <time>2021-04-03T09:49:36Z</time>
      </trkpt>
      <trkpt lat="43.63495" lon="3.60922">
        <ele>176</ele>
        <time>2021-04-03T09:49:37Z</time>
      </trkpt>
      <trkpt lat="43.63496" lon="3.60919">
        <ele>176</ele>
        <time>2021-04-03T09:49:38Z</time>
      </trkpt>
      <trkpt lat="43.63498" lon="3.60916">
        <ele>174</ele>
        <time>2021-04-03T09:49:39Z</time>
      </trkpt>
      <trkpt lat="43.63499" lon="3.60913">
        <ele>174</ele>
        <time>2021-04-03T09:49:40Z</time>
      </trkpt>
      <trkpt lat="43.635" lon="3.6091">
        <ele>174</ele>
        <time>2021-04-03T09:49:41Z</time>
      </trkpt>
      <trkpt lat="43.63501" lon="3.60906">
        <ele>174</ele>
        <time>2021-04-03T09:49:42Z</time>
      </trkpt>
      <trkpt lat="43.63502" lon="3.60904">
        <ele>174</ele>
        <time>2021-04-03T09:49:43Z</time>
      </trkpt>
      <trkpt lat="43.63503" lon="3.60901">
        <ele>174</ele>
        <time>2021-04-03T09:49:44Z</time>
      </trkpt>
      <trkpt lat="43.63504" lon="3.60898">
        <ele>174</ele>
        <time>2021-04-03T09:49:45Z</time>
      </trkpt>
      <trkpt lat="43.63505" lon="3.60895">
        <ele>174</ele>
        <time>2021-04-03T09:49:46Z</time>
      </trkpt>
      <trkpt lat="43.63507" lon="3.60892">
        <ele>174</ele>
        <time>2021-04-03T09:49:47Z</time>
      </trkpt>
      <trkpt lat="43.63508" lon="3.6089">
        <ele>174</ele>
        <time>2021-04-03T09:49:48Z</time>
      </trkpt>
      <trkpt lat="43.63509" lon="3.60886">
        <ele>173</ele>
        <time>2021-04-03T09:49:49Z</time>
      </trkpt>
      <trkpt lat="43.63511" lon="3.60883">
        <ele>173</ele>
        <time>2021-04-03T09:49:50Z</time>
      </trkpt>
      <trkpt lat="43.63511" lon="3.6088">
        <ele>173</ele>
        <time>2021-04-03T09:49:51Z</time>
      </trkpt>
      <trkpt lat="43.63512" lon="3.60876">
        <ele>173</ele>
        <time>2021-04-03T09:49:52Z</time>
      </trkpt>
      <trkpt lat="43.63512" lon="3.60873">
        <ele>173</ele>
        <time>2021-04-03T09:49:53Z</time>
      </trkpt>
      <trkpt lat="43.63512" lon="3.6087">
        <ele>173</ele>
        <time>2021-04-03T09:49:54Z</time>
      </trkpt>
      <trkpt lat="43.63514" lon="3.60866">
        <ele>173</ele>
        <time>2021-04-03T09:49:56Z</time>
      </trkpt>
      <trkpt lat="43.63515" lon="3.60863">
        <ele>173</ele>
        <time>2021-04-03T09:49:57Z</time>
      </trkpt>
      <trkpt lat="43.63516" lon="3.6086">
        <ele>173</ele>
        <time>2021-04-03T09:49:58Z</time>
      </trkpt>
      <trkpt lat="43.63517" lon="3.60857">
        <ele>172</ele>
        <time>2021-04-03T09:49:59Z</time>
      </trkpt>
      <trkpt lat="43.63518" lon="3.60854">
        <ele>172</ele>
        <time>2021-04-03T09:50:00Z</time>
      </trkpt>
      <trkpt lat="43.63521" lon="3.60842">
        <ele>172</ele>
        <time>2021-04-03T09:50:05Z</time>
      </trkpt>
      <trkpt lat="43.63527" lon="3.60833">
        <ele>172</ele>
        <time>2021-04-03T09:50:20Z</time>
      </trkpt>
      <trkpt lat="43.63526" lon="3.60825">
        <ele>165</ele>
        <time>2021-04-03T09:50:29Z</time>
      </trkpt>
      <trkpt lat="43.63527" lon="3.60822">
        <ele>165</ele>
        <time>2021-04-03T09:50:31Z</time>
      </trkpt>
      <trkpt lat="43.63529" lon="3.60819">
        <ele>165</ele>
        <time>2021-04-03T09:50:33Z</time>
      </trkpt>
      <trkpt lat="43.63531" lon="3.60818">
        <ele>165</ele>
        <time>2021-04-03T09:50:34Z</time>
      </trkpt>
      <trkpt lat="43.63533" lon="3.60817">
        <ele>165</ele>
        <time>2021-04-03T09:50:35Z</time>
      </trkpt>
      <trkpt lat="43.63536" lon="3.60815">
        <ele>165</ele>
        <time>2021-04-03T09:50:36Z</time>
      </trkpt>
      <trkpt lat="43.63537" lon="3.60814">
        <ele>165</ele>
        <time>2021-04-03T09:50:37Z</time>
      </trkpt>
      <trkpt lat="43.63539" lon="3.60813">
        <ele>163</ele>
        <time>2021-04-03T09:50:39Z</time>
      </trkpt>
      <trkpt lat="43.63541" lon="3.60811">
        <ele>163</ele>
        <time>2021-04-03T09:50:41Z</time>
      </trkpt>
      <trkpt lat="43.63543" lon="3.6081">
        <ele>163</ele>
        <time>2021-04-03T09:50:43Z</time>
      </trkpt>
      <trkpt lat="43.63545" lon="3.6081">
        <ele>163</ele>
        <time>2021-04-03T09:50:49Z</time>
      </trkpt>
      <trkpt lat="43.63547" lon="3.60807">
        <ele>163</ele>
        <time>2021-04-03T09:50:52Z</time>
      </trkpt>
      <trkpt lat="43.6355" lon="3.60806">
        <ele>163</ele>
        <time>2021-04-03T09:50:54Z</time>
      </trkpt>
      <trkpt lat="43.63552" lon="3.60806">
        <ele>163</ele>
        <time>2021-04-03T09:50:56Z</time>
      </trkpt>
      <trkpt lat="43.63554" lon="3.60803">
        <ele>161</ele>
        <time>2021-04-03T09:50:58Z</time>
      </trkpt>
      <trkpt lat="43.63556" lon="3.60803">
        <ele>161</ele>
        <time>2021-04-03T09:50:59Z</time>
      </trkpt>
      <trkpt lat="43.63558" lon="3.60803">
        <ele>161</ele>
        <time>2021-04-03T09:51:00Z</time>
      </trkpt>
      <trkpt lat="43.6356" lon="3.60802">
        <ele>161</ele>
        <time>2021-04-03T09:51:02Z</time>
      </trkpt>
      <trkpt lat="43.63562" lon="3.60799">
        <ele>161</ele>
        <time>2021-04-03T09:51:04Z</time>
      </trkpt>
      <trkpt lat="43.63564" lon="3.60796">
        <ele>161</ele>
        <time>2021-04-03T09:51:06Z</time>
      </trkpt>
      <trkpt lat="43.63566" lon="3.60795">
        <ele>161</ele>
        <time>2021-04-03T09:51:07Z</time>
      </trkpt>
      <trkpt lat="43.63568" lon="3.60792">
        <ele>161</ele>
        <time>2021-04-03T09:51:09Z</time>
      </trkpt>
      <trkpt lat="43.63571" lon="3.60789">
        <ele>161</ele>
        <time>2021-04-03T09:51:11Z</time>
      </trkpt>
      <trkpt lat="43.63573" lon="3.60787">
        <ele>161</ele>
        <time>2021-04-03T09:51:12Z</time>
      </trkpt>
      <trkpt lat="43.63575" lon="3.60786">
        <ele>161</ele>
        <time>2021-04-03T09:51:13Z</time>
      </trkpt>
      <trkpt lat="43.63579" lon="3.60784">
        <ele>161</ele>
        <time>2021-04-03T09:51:15Z</time>
      </trkpt>
      <trkpt lat="43.63582" lon="3.60784">
        <ele>161</ele>
        <time>2021-04-03T09:51:17Z</time>
      </trkpt>
      <trkpt lat="43.63586" lon="3.60782">
        <ele>161</ele>
        <time>2021-04-03T09:51:19Z</time>
      </trkpt>
      <trkpt lat="43.63589" lon="3.60781">
        <ele>161</ele>
        <time>2021-04-03T09:51:20Z</time>
      </trkpt>
      <trkpt lat="43.63591" lon="3.6078">
        <ele>161</ele>
        <time>2021-04-03T09:51:22Z</time>
      </trkpt>
      <trkpt lat="43.63592" lon="3.60777">
        <ele>161</ele>
        <time>2021-04-03T09:51:25Z</time>
      </trkpt>
      <trkpt lat="43.63592" lon="3.60774">
        <ele>161</ele>
        <time>2021-04-03T09:51:30Z</time>
      </trkpt>
      <trkpt lat="43.63593" lon="3.60772">
        <ele>161</ele>
        <time>2021-04-03T09:51:34Z</time>
      </trkpt>
      <trkpt lat="43.63595" lon="3.6077">
        <ele>157</ele>
        <time>2021-04-03T09:51:39Z</time>
      </trkpt>
      <trkpt lat="43.63604" lon="3.60768">
        <ele>157</ele>
        <time>2021-04-03T09:51:49Z</time>
      </trkpt>
      <trkpt lat="43.63606" lon="3.60768">
        <ele>157</ele>
        <time>2021-04-03T09:51:50Z</time>
      </trkpt>
      <trkpt lat="43.63609" lon="3.60767">
        <ele>157</ele>
        <time>2021-04-03T09:51:51Z</time>
      </trkpt>
      <trkpt lat="43.63611" lon="3.60766">
        <ele>157</ele>
        <time>2021-04-03T09:51:52Z</time>
      </trkpt>
      <trkpt lat="43.63612" lon="3.60764">
        <ele>157</ele>
        <time>2021-04-03T09:51:53Z</time>
      </trkpt>
      <trkpt lat="43.63615" lon="3.60762">
        <ele>157</ele>
        <time>2021-04-03T09:51:54Z</time>
      </trkpt>
      <trkpt lat="43.63617" lon="3.6076">
        <ele>157</ele>
        <time>2021-04-03T09:51:55Z</time>
      </trkpt>
      <trkpt lat="43.63618" lon="3.60757">
        <ele>157</ele>
        <time>2021-04-03T09:51:56Z</time>
      </trkpt>
      <trkpt lat="43.6362" lon="3.60755">
        <ele>157</ele>
        <time>2021-04-03T09:51:57Z</time>
      </trkpt>
      <trkpt lat="43.63621" lon="3.60753">
        <ele>156</ele>
        <time>2021-04-03T09:51:58Z</time>
      </trkpt>
      <trkpt lat="43.63622" lon="3.60751">
        <ele>156</ele>
        <time>2021-04-03T09:51:59Z</time>
      </trkpt>
      <trkpt lat="43.63623" lon="3.60749">
        <ele>156</ele>
        <time>2021-04-03T09:52:00Z</time>
      </trkpt>
      <trkpt lat="43.63625" lon="3.60746">
        <ele>156</ele>
        <time>2021-04-03T09:52:01Z</time>
      </trkpt>
      <trkpt lat="43.63627" lon="3.60744">
        <ele>156</ele>
        <time>2021-04-03T09:52:02Z</time>
      </trkpt>
      <trkpt lat="43.63628" lon="3.60742">
        <ele>156</ele>
        <time>2021-04-03T09:52:03Z</time>
      </trkpt>
      <trkpt lat="43.6363" lon="3.6074">
        <ele>156</ele>
        <time>2021-04-03T09:52:05Z</time>
      </trkpt>
      <trkpt lat="43.63637" lon="3.60729">
        <ele>153</ele>
        <time>2021-04-03T09:52:38Z</time>
      </trkpt>
      <trkpt lat="43.6364" lon="3.60725">
        <ele>153</ele>
        <time>2021-04-03T09:52:40Z</time>
      </trkpt>
      <trkpt lat="43.63642" lon="3.60724">
        <ele>153</ele>
        <time>2021-04-03T09:52:41Z</time>
      </trkpt>
      <trkpt lat="43.63644" lon="3.60722">
        <ele>153</ele>
        <time>2021-04-03T09:52:42Z</time>
      </trkpt>
      <trkpt lat="43.63645" lon="3.60721">
        <ele>153</ele>
        <time>2021-04-03T09:52:43Z</time>
      </trkpt>
      <trkpt lat="43.63647" lon="3.60719">
        <ele>153</ele>
        <time>2021-04-03T09:52:44Z</time>
      </trkpt>
      <trkpt lat="43.63649" lon="3.60716">
        <ele>153</ele>
        <time>2021-04-03T09:52:45Z</time>
      </trkpt>
      <trkpt lat="43.63651" lon="3.60715">
        <ele>153</ele>
        <time>2021-04-03T09:52:46Z</time>
      </trkpt>
      <trkpt lat="43.63653" lon="3.60713">
        <ele>152</ele>
        <time>2021-04-03T09:52:47Z</time>
      </trkpt>
      <trkpt lat="43.63654" lon="3.6071">
        <ele>152</ele>
        <time>2021-04-03T09:52:48Z</time>
      </trkpt>
      <trkpt lat="43.63656" lon="3.60708">
        <ele>152</ele>
        <time>2021-04-03T09:52:49Z</time>
      </trkpt>
      <trkpt lat="43.63659" lon="3.60706">
        <ele>152</ele>
        <time>2021-04-03T09:52:50Z</time>
      </trkpt>
      <trkpt lat="43.63661" lon="3.60704">
        <ele>152</ele>
        <time>2021-04-03T09:52:51Z</time>
      </trkpt>
      <trkpt lat="43.63662" lon="3.60702">
        <ele>152</ele>
        <time>2021-04-03T09:52:52Z</time>
      </trkpt>
      <trkpt lat="43.63664" lon="3.607">
        <ele>152</ele>
        <time>2021-04-03T09:52:53Z</time>
      </trkpt>
      <trkpt lat="43.63666" lon="3.60696">
        <ele>152</ele>
        <time>2021-04-03T09:52:55Z</time>
      </trkpt>
      <trkpt lat="43.63667" lon="3.60694">
        <ele>152</ele>
        <time>2021-04-03T09:52:56Z</time>
      </trkpt>
      <trkpt lat="43.63669" lon="3.60691">
        <ele>152</ele>
        <time>2021-04-03T09:52:57Z</time>
      </trkpt>
      <trkpt lat="43.6367" lon="3.60688">
        <ele>151</ele>
        <time>2021-04-03T09:52:58Z</time>
      </trkpt>
      <trkpt lat="43.63671" lon="3.60686">
        <ele>151</ele>
        <time>2021-04-03T09:52:59Z</time>
      </trkpt>
      <trkpt lat="43.63673" lon="3.60683">
        <ele>151</ele>
        <time>2021-04-03T09:53:00Z</time>
      </trkpt>
      <trkpt lat="43.63674" lon="3.60681">
        <ele>151</ele>
        <time>2021-04-03T09:53:01Z</time>
      </trkpt>
      <trkpt lat="43.63676" lon="3.60677">
        <ele>151</ele>
        <time>2021-04-03T09:53:03Z</time>
      </trkpt>
      <trkpt lat="43.63678" lon="3.60673">
        <ele>151</ele>
        <time>2021-04-03T09:53:05Z</time>
      </trkpt>
      <trkpt lat="43.63679" lon="3.60671">
        <ele>151</ele>
        <time>2021-04-03T09:53:06Z</time>
      </trkpt>
      <trkpt lat="43.63679" lon="3.60668">
        <ele>150</ele>
        <time>2021-04-03T09:53:07Z</time>
      </trkpt>
      <trkpt lat="43.63681" lon="3.60664">
        <ele>150</ele>
        <time>2021-04-03T09:53:09Z</time>
      </trkpt>
      <trkpt lat="43.63683" lon="3.60661">
        <ele>150</ele>
        <time>2021-04-03T09:53:10Z</time>
      </trkpt>
      <trkpt lat="43.63684" lon="3.60659">
        <ele>150</ele>
        <time>2021-04-03T09:53:11Z</time>
      </trkpt>
      <trkpt lat="43.63685" lon="3.60654">
        <ele>150</ele>
        <time>2021-04-03T09:53:13Z</time>
      </trkpt>
      <trkpt lat="43.63683" lon="3.60651">
        <ele>150</ele>
        <time>2021-04-03T09:53:15Z</time>
      </trkpt>
      <trkpt lat="43.63682" lon="3.60648">
        <ele>150</ele>
        <time>2021-04-03T09:53:17Z</time>
      </trkpt>
      <trkpt lat="43.63682" lon="3.60643">
        <ele>150</ele>
        <time>2021-04-03T09:53:19Z</time>
      </trkpt>
      <trkpt lat="43.63681" lon="3.60639">
        <ele>150</ele>
        <time>2021-04-03T09:53:21Z</time>
      </trkpt>
      <trkpt lat="43.63682" lon="3.60635">
        <ele>150</ele>
        <time>2021-04-03T09:53:23Z</time>
      </trkpt>
      <trkpt lat="43.63683" lon="3.60633">
        <ele>150</ele>
        <time>2021-04-03T09:53:26Z</time>
      </trkpt>
      <trkpt lat="43.63684" lon="3.60629">
        <ele>150</ele>
        <time>2021-04-03T09:53:29Z</time>
      </trkpt>
      <trkpt lat="43.63684" lon="3.60624">
        <ele>150</ele>
        <time>2021-04-03T09:53:31Z</time>
      </trkpt>
      <trkpt lat="43.63685" lon="3.60621">
        <ele>150</ele>
        <time>2021-04-03T09:53:32Z</time>
      </trkpt>
      <trkpt lat="43.63686" lon="3.60618">
        <ele>150</ele>
        <time>2021-04-03T09:53:33Z</time>
      </trkpt>
      <trkpt lat="43.63687" lon="3.60615">
        <ele>150</ele>
        <time>2021-04-03T09:53:34Z</time>
      </trkpt>
      <trkpt lat="43.63688" lon="3.60612">
        <ele>150</ele>
        <time>2021-04-03T09:53:35Z</time>
      </trkpt>
      <trkpt lat="43.63689" lon="3.60609">
        <ele>150</ele>
        <time>2021-04-03T09:53:36Z</time>
      </trkpt>
      <trkpt lat="43.6369" lon="3.60606">
        <ele>148</ele>
        <time>2021-04-03T09:53:37Z</time>
      </trkpt>
      <trkpt lat="43.63691" lon="3.60604">
        <ele>148</ele>
        <time>2021-04-03T09:53:38Z</time>
      </trkpt>
      <trkpt lat="43.63692" lon="3.606">
        <ele>148</ele>
        <time>2021-04-03T09:53:39Z</time>
      </trkpt>
      <trkpt lat="43.63693" lon="3.60597">
        <ele>148</ele>
        <time>2021-04-03T09:53:40Z</time>
      </trkpt>
      <trkpt lat="43.63695" lon="3.60593">
        <ele>148</ele>
        <time>2021-04-03T09:53:41Z</time>
      </trkpt>
      <trkpt lat="43.63696" lon="3.60589">
        <ele>148</ele>
        <time>2021-04-03T09:53:42Z</time>
      </trkpt>
      <trkpt lat="43.63698" lon="3.60585">
        <ele>148</ele>
        <time>2021-04-03T09:53:43Z</time>
      </trkpt>
      <trkpt lat="43.63698" lon="3.60581">
        <ele>148</ele>
        <time>2021-04-03T09:53:44Z</time>
      </trkpt>
      <trkpt lat="43.63699" lon="3.60577">
        <ele>148</ele>
        <time>2021-04-03T09:53:45Z</time>
      </trkpt>
      <trkpt lat="43.637" lon="3.60573">
        <ele>148</ele>
        <time>2021-04-03T09:53:46Z</time>
      </trkpt>
      <trkpt lat="43.637" lon="3.60568">
        <ele>148</ele>
        <time>2021-04-03T09:53:47Z</time>
      </trkpt>
      <trkpt lat="43.63701" lon="3.60563">
        <ele>147</ele>
        <time>2021-04-03T09:53:48Z</time>
      </trkpt>
      <trkpt lat="43.63701" lon="3.60558">
        <ele>147</ele>
        <time>2021-04-03T09:53:49Z</time>
      </trkpt>
      <trkpt lat="43.63702" lon="3.60553">
        <ele>147</ele>
        <time>2021-04-03T09:53:50Z</time>
      </trkpt>
      <trkpt lat="43.63703" lon="3.60549">
        <ele>147</ele>
        <time>2021-04-03T09:53:51Z</time>
      </trkpt>
      <trkpt lat="43.63704" lon="3.60544">
        <ele>147</ele>
        <time>2021-04-03T09:53:52Z</time>
      </trkpt>
      <trkpt lat="43.63705" lon="3.6054">
        <ele>147</ele>
        <time>2021-04-03T09:53:53Z</time>
      </trkpt>
      <trkpt lat="43.63706" lon="3.60536">
        <ele>147</ele>
        <time>2021-04-03T09:53:54Z</time>
      </trkpt>
      <trkpt lat="43.63707" lon="3.60533">
        <ele>147</ele>
        <time>2021-04-03T09:53:55Z</time>
      </trkpt>
      <trkpt lat="43.63708" lon="3.6053">
        <ele>147</ele>
        <time>2021-04-03T09:53:56Z</time>
      </trkpt>
      <trkpt lat="43.63709" lon="3.60528">
        <ele>146</ele>
        <time>2021-04-03T09:53:57Z</time>
      </trkpt>
      <trkpt lat="43.6371" lon="3.60524">
        <ele>146</ele>
        <time>2021-04-03T09:53:58Z</time>
      </trkpt>
      <trkpt lat="43.63711" lon="3.6052">
        <ele>146</ele>
        <time>2021-04-03T09:53:59Z</time>
      </trkpt>
      <trkpt lat="43.63713" lon="3.60517">
        <ele>146</ele>
        <time>2021-04-03T09:54:00Z</time>
      </trkpt>
      <trkpt lat="43.63715" lon="3.60514">
        <ele>146</ele>
        <time>2021-04-03T09:54:01Z</time>
      </trkpt>
      <trkpt lat="43.63716" lon="3.6051">
        <ele>146</ele>
        <time>2021-04-03T09:54:02Z</time>
      </trkpt>
      <trkpt lat="43.63716" lon="3.60507">
        <ele>146</ele>
        <time>2021-04-03T09:54:03Z</time>
      </trkpt>
      <trkpt lat="43.63715" lon="3.60502">
        <ele>146</ele>
        <time>2021-04-03T09:54:05Z</time>
      </trkpt>
      <trkpt lat="43.63715" lon="3.605">
        <ele>146</ele>
        <time>2021-04-03T09:54:06Z</time>
      </trkpt>
      <trkpt lat="43.63714" lon="3.60496">
        <ele>143</ele>
        <time>2021-04-03T09:54:07Z</time>
      </trkpt>
      <trkpt lat="43.63714" lon="3.60493">
        <ele>143</ele>
        <time>2021-04-03T09:54:08Z</time>
      </trkpt>
      <trkpt lat="43.63713" lon="3.60491">
        <ele>143</ele>
        <time>2021-04-03T09:54:09Z</time>
      </trkpt>
      <trkpt lat="43.63713" lon="3.60486">
        <ele>143</ele>
        <time>2021-04-03T09:54:11Z</time>
      </trkpt>
      <trkpt lat="43.63714" lon="3.60481">
        <ele>143</ele>
        <time>2021-04-03T09:54:13Z</time>
      </trkpt>
      <trkpt lat="43.63714" lon="3.60478">
        <ele>143</ele>
        <time>2021-04-03T09:54:14Z</time>
      </trkpt>
      <trkpt lat="43.63714" lon="3.60475">
        <ele>143</ele>
        <time>2021-04-03T09:54:15Z</time>
      </trkpt>
      <trkpt lat="43.63715" lon="3.60472">
        <ele>143</ele>
        <time>2021-04-03T09:54:16Z</time>
      </trkpt>
      <trkpt lat="43.63715" lon="3.60468">
        <ele>141</ele>
        <time>2021-04-03T09:54:17Z</time>
      </trkpt>
      <trkpt lat="43.63716" lon="3.60466">
        <ele>141</ele>
        <time>2021-04-03T09:54:18Z</time>
      </trkpt>
      <trkpt lat="43.63716" lon="3.60462">
        <ele>141</ele>
        <time>2021-04-03T09:54:20Z</time>
      </trkpt>
      <trkpt lat="43.63716" lon="3.60459">
        <ele>141</ele>
        <time>2021-04-03T09:54:21Z</time>
      </trkpt>
      <trkpt lat="43.63716" lon="3.60456">
        <ele>141</ele>
        <time>2021-04-03T09:54:22Z</time>
      </trkpt>
      <trkpt lat="43.63717" lon="3.60453">
        <ele>141</ele>
        <time>2021-04-03T09:54:23Z</time>
      </trkpt>
      <trkpt lat="43.63717" lon="3.60451">
        <ele>141</ele>
        <time>2021-04-03T09:54:24Z</time>
      </trkpt>
      <trkpt lat="43.63718" lon="3.60449">
        <ele>141</ele>
        <time>2021-04-03T09:54:25Z</time>
      </trkpt>
      <trkpt lat="43.6372" lon="3.60446">
        <ele>141</ele>
        <time>2021-04-03T09:54:26Z</time>
      </trkpt>
      <trkpt lat="43.63722" lon="3.60443">
        <ele>141</ele>
        <time>2021-04-03T09:54:27Z</time>
      </trkpt>
      <trkpt lat="43.63725" lon="3.60443">
        <ele>140</ele>
        <time>2021-04-03T09:54:28Z</time>
      </trkpt>
      <trkpt lat="43.63728" lon="3.60443">
        <ele>140</ele>
        <time>2021-04-03T09:54:29Z</time>
      </trkpt>
      <trkpt lat="43.6373" lon="3.60442">
        <ele>140</ele>
        <time>2021-04-03T09:54:30Z</time>
      </trkpt>
      <trkpt lat="43.6373" lon="3.60444">
        <ele>137</ele>
        <time>2021-04-03T09:54:41Z</time>
      </trkpt>
      <trkpt lat="43.63734" lon="3.60434">
        <ele>135</ele>
        <time>2021-04-03T09:55:05Z</time>
      </trkpt>
      <trkpt lat="43.63738" lon="3.60424">
        <ele>131</ele>
        <time>2021-04-03T09:57:42Z</time>
      </trkpt>
      <trkpt lat="43.63739" lon="3.60422">
        <ele>131</ele>
        <time>2021-04-03T09:57:43Z</time>
      </trkpt>
      <trkpt lat="43.6374" lon="3.60419">
        <ele>131</ele>
        <time>2021-04-03T09:57:44Z</time>
      </trkpt>
      <trkpt lat="43.6374" lon="3.60417">
        <ele>131</ele>
        <time>2021-04-03T09:57:45Z</time>
      </trkpt>
      <trkpt lat="43.63741" lon="3.60414">
        <ele>131</ele>
        <time>2021-04-03T09:57:46Z</time>
      </trkpt>
      <trkpt lat="43.63743" lon="3.60411">
        <ele>131</ele>
        <time>2021-04-03T09:57:47Z</time>
      </trkpt>
      <trkpt lat="43.63744" lon="3.60408">
        <ele>131</ele>
        <time>2021-04-03T09:57:48Z</time>
      </trkpt>
      <trkpt lat="43.63746" lon="3.60405">
        <ele>131</ele>
        <time>2021-04-03T09:57:49Z</time>
      </trkpt>
      <trkpt lat="43.63748" lon="3.60402">
        <ele>131</ele>
        <time>2021-04-03T09:57:50Z</time>
      </trkpt>
      <trkpt lat="43.6375" lon="3.60399">
        <ele>131</ele>
        <time>2021-04-03T09:57:51Z</time>
      </trkpt>
      <trkpt lat="43.63751" lon="3.60396">
        <ele>130</ele>
        <time>2021-04-03T09:57:52Z</time>
      </trkpt>
      <trkpt lat="43.63753" lon="3.60392">
        <ele>130</ele>
        <time>2021-04-03T09:57:53Z</time>
      </trkpt>
      <trkpt lat="43.63755" lon="3.60389">
        <ele>130</ele>
        <time>2021-04-03T09:57:54Z</time>
      </trkpt>
      <trkpt lat="43.63757" lon="3.60387">
        <ele>130</ele>
        <time>2021-04-03T09:57:55Z</time>
      </trkpt>
      <trkpt lat="43.63758" lon="3.60384">
        <ele>130</ele>
        <time>2021-04-03T09:57:56Z</time>
      </trkpt>
      <trkpt lat="43.63759" lon="3.60381">
        <ele>130</ele>
        <time>2021-04-03T09:57:57Z</time>
      </trkpt>
      <trkpt lat="43.63761" lon="3.60379">
        <ele>130</ele>
        <time>2021-04-03T09:57:58Z</time>
      </trkpt>
      <trkpt lat="43.63763" lon="3.60377">
        <ele>130</ele>
        <time>2021-04-03T09:57:59Z</time>
      </trkpt>
      <trkpt lat="43.63764" lon="3.60374">
        <ele>130</ele>
        <time>2021-04-03T09:58:00Z</time>
      </trkpt>
      <trkpt lat="43.63766" lon="3.60371">
        <ele>130</ele>
        <time>2021-04-03T09:58:01Z</time>
      </trkpt>
      <trkpt lat="43.63768" lon="3.60369">
        <ele>129</ele>
        <time>2021-04-03T09:58:02Z</time>
      </trkpt>
      <trkpt lat="43.63769" lon="3.60366">
        <ele>129</ele>
        <time>2021-04-03T09:58:03Z</time>
      </trkpt>
      <trkpt lat="43.63771" lon="3.60364">
        <ele>129</ele>
        <time>2021-04-03T09:58:04Z</time>
      </trkpt>
      <trkpt lat="43.63773" lon="3.60362">
        <ele>129</ele>
        <time>2021-04-03T09:58:05Z</time>
      </trkpt>
      <trkpt lat="43.63775" lon="3.60359">
        <ele>129</ele>
        <time>2021-04-03T09:58:06Z</time>
      </trkpt>
      <trkpt lat="43.63777" lon="3.60357">
        <ele>129</ele>
        <time>2021-04-03T09:58:07Z</time>
      </trkpt>
      <trkpt lat="43.6378" lon="3.60355">
        <ele>129</ele>
        <time>2021-04-03T09:58:08Z</time>
      </trkpt>
      <trkpt lat="43.63782" lon="3.60352">
        <ele>129</ele>
        <time>2021-04-03T09:58:09Z</time>
      </trkpt>
      <trkpt lat="43.63785" lon="3.6035">
        <ele>129</ele>
        <time>2021-04-03T09:58:10Z</time>
      </trkpt>
      <trkpt lat="43.63787" lon="3.60347">
        <ele>129</ele>
        <time>2021-04-03T09:58:11Z</time>
      </trkpt>
      <trkpt lat="43.63789" lon="3.60344">
        <ele>128</ele>
        <time>2021-04-03T09:58:12Z</time>
      </trkpt>
      <trkpt lat="43.63792" lon="3.60342">
        <ele>128</ele>
        <time>2021-04-03T09:58:13Z</time>
      </trkpt>
      <trkpt lat="43.63795" lon="3.60339">
        <ele>128</ele>
        <time>2021-04-03T09:58:14Z</time>
      </trkpt>
      <trkpt lat="43.63797" lon="3.60336">
        <ele>128</ele>
        <time>2021-04-03T09:58:15Z</time>
      </trkpt>
      <trkpt lat="43.63799" lon="3.60333">
        <ele>128</ele>
        <time>2021-04-03T09:58:16Z</time>
      </trkpt>
      <trkpt lat="43.63801" lon="3.6033">
        <ele>128</ele>
        <time>2021-04-03T09:58:17Z</time>
      </trkpt>
      <trkpt lat="43.63802" lon="3.60326">
        <ele>128</ele>
        <time>2021-04-03T09:58:18Z</time>
      </trkpt>
      <trkpt lat="43.63804" lon="3.60323">
        <ele>128</ele>
        <time>2021-04-03T09:58:19Z</time>
      </trkpt>
      <trkpt lat="43.63805" lon="3.60319">
        <ele>128</ele>
        <time>2021-04-03T09:58:20Z</time>
      </trkpt>
      <trkpt lat="43.63807" lon="3.60316">
        <ele>127</ele>
        <time>2021-04-03T09:58:21Z</time>
      </trkpt>
      <trkpt lat="43.63809" lon="3.60312">
        <ele>127</ele>
        <time>2021-04-03T09:58:22Z</time>
      </trkpt>
      <trkpt lat="43.6381" lon="3.60309">
        <ele>127</ele>
        <time>2021-04-03T09:58:23Z</time>
      </trkpt>
      <trkpt lat="43.63811" lon="3.60306">
        <ele>127</ele>
        <time>2021-04-03T09:58:24Z</time>
      </trkpt>
      <trkpt lat="43.63812" lon="3.60303">
        <ele>127</ele>
        <time>2021-04-03T09:58:25Z</time>
      </trkpt>
      <trkpt lat="43.63813" lon="3.603">
        <ele>127</ele>
        <time>2021-04-03T09:58:26Z</time>
      </trkpt>
      <trkpt lat="43.63814" lon="3.60297">
        <ele>127</ele>
        <time>2021-04-03T09:58:27Z</time>
      </trkpt>
      <trkpt lat="43.63815" lon="3.60294">
        <ele>127</ele>
        <time>2021-04-03T09:58:28Z</time>
      </trkpt>
      <trkpt lat="43.63816" lon="3.6029">
        <ele>127</ele>
        <time>2021-04-03T09:58:29Z</time>
      </trkpt>
      <trkpt lat="43.63816" lon="3.60287">
        <ele>127</ele>
        <time>2021-04-03T09:58:30Z</time>
      </trkpt>
      <trkpt lat="43.63817" lon="3.60283">
        <ele>126</ele>
        <time>2021-04-03T09:58:31Z</time>
      </trkpt>
      <trkpt lat="43.63817" lon="3.60279">
        <ele>126</ele>
        <time>2021-04-03T09:58:32Z</time>
      </trkpt>
      <trkpt lat="43.63818" lon="3.60275">
        <ele>126</ele>
        <time>2021-04-03T09:58:33Z</time>
      </trkpt>
      <trkpt lat="43.63818" lon="3.60271">
        <ele>126</ele>
        <time>2021-04-03T09:58:34Z</time>
      </trkpt>
      <trkpt lat="43.63819" lon="3.60267">
        <ele>126</ele>
        <time>2021-04-03T09:58:35Z</time>
      </trkpt>
      <trkpt lat="43.6382" lon="3.60263">
        <ele>126</ele>
        <time>2021-04-03T09:58:36Z</time>
      </trkpt>
      <trkpt lat="43.63821" lon="3.60259">
        <ele>126</ele>
        <time>2021-04-03T09:58:37Z</time>
      </trkpt>
      <trkpt lat="43.63822" lon="3.60256">
        <ele>126</ele>
        <time>2021-04-03T09:58:38Z</time>
      </trkpt>
      <trkpt lat="43.63824" lon="3.60253">
        <ele>126</ele>
        <time>2021-04-03T09:58:39Z</time>
      </trkpt>
      <trkpt lat="43.63826" lon="3.6025">
        <ele>126</ele>
        <time>2021-04-03T09:58:40Z</time>
      </trkpt>
      <trkpt lat="43.63827" lon="3.60247">
        <ele>126</ele>
        <time>2021-04-03T09:58:41Z</time>
      </trkpt>
      <trkpt lat="43.63828" lon="3.60244">
        <ele>125</ele>
        <time>2021-04-03T09:58:42Z</time>
      </trkpt>
      <trkpt lat="43.6383" lon="3.60241">
        <ele>125</ele>
        <time>2021-04-03T09:58:43Z</time>
      </trkpt>
      <trkpt lat="43.63832" lon="3.60239">
        <ele>125</ele>
        <time>2021-04-03T09:58:44Z</time>
      </trkpt>
      <trkpt lat="43.63833" lon="3.60236">
        <ele>125</ele>
        <time>2021-04-03T09:58:45Z</time>
      </trkpt>
      <trkpt lat="43.63835" lon="3.60234">
        <ele>125</ele>
        <time>2021-04-03T09:58:46Z</time>
      </trkpt>
      <trkpt lat="43.63836" lon="3.60233">
        <ele>125</ele>
        <time>2021-04-03T09:58:47Z</time>
      </trkpt>
      <trkpt lat="43.63838" lon="3.60231">
        <ele>125</ele>
        <time>2021-04-03T09:58:48Z</time>
      </trkpt>
      <trkpt lat="43.6384" lon="3.60229">
        <ele>125</ele>
        <time>2021-04-03T09:58:49Z</time>
      </trkpt>
      <trkpt lat="43.63842" lon="3.60228">
        <ele>125</ele>
        <time>2021-04-03T09:58:50Z</time>
      </trkpt>
      <trkpt lat="43.63844" lon="3.60226">
        <ele>125</ele>
        <time>2021-04-03T09:58:52Z</time>
      </trkpt>
      <trkpt lat="43.63848" lon="3.60226">
        <ele>125</ele>
        <time>2021-04-03T09:58:54Z</time>
      </trkpt>
      <trkpt lat="43.63851" lon="3.60226">
        <ele>125</ele>
        <time>2021-04-03T09:58:56Z</time>
      </trkpt>
      <trkpt lat="43.63854" lon="3.60226">
        <ele>125</ele>
        <time>2021-04-03T09:58:58Z</time>
      </trkpt>
      <trkpt lat="43.63858" lon="3.60226">
        <ele>125</ele>
        <time>2021-04-03T09:59:00Z</time>
      </trkpt>
      <trkpt lat="43.63861" lon="3.60224">
        <ele>125</ele>
        <time>2021-04-03T09:59:02Z</time>
      </trkpt>
      <trkpt lat="43.63863" lon="3.60224">
        <ele>125</ele>
        <time>2021-04-03T09:59:03Z</time>
      </trkpt>
      <trkpt lat="43.63865" lon="3.60224">
        <ele>125</ele>
        <time>2021-04-03T09:59:04Z</time>
      </trkpt>
      <trkpt lat="43.63867" lon="3.60224">
        <ele>125</ele>
        <time>2021-04-03T09:59:05Z</time>
      </trkpt>
      <trkpt lat="43.6387" lon="3.60224">
        <ele>125</ele>
        <time>2021-04-03T09:59:06Z</time>
      </trkpt>
      <trkpt lat="43.63872" lon="3.60224">
        <ele>125</ele>
        <time>2021-04-03T09:59:07Z</time>
      </trkpt>
      <trkpt lat="43.63874" lon="3.60225">
        <ele>125</ele>
        <time>2021-04-03T09:59:08Z</time>
      </trkpt>
      <trkpt lat="43.63876" lon="3.60226">
        <ele>125</ele>
        <time>2021-04-03T09:59:09Z</time>
      </trkpt>
      <trkpt lat="43.63878" lon="3.60227">
        <ele>125</ele>
        <time>2021-04-03T09:59:10Z</time>
      </trkpt>
      <trkpt lat="43.6388" lon="3.60228">
        <ele>125</ele>
        <time>2021-04-03T09:59:11Z</time>
      </trkpt>
      <trkpt lat="43.63882" lon="3.60229">
        <ele>124</ele>
        <time>2021-04-03T09:59:12Z</time>
      </trkpt>
      <trkpt lat="43.63884" lon="3.6023">
        <ele>124</ele>
        <time>2021-04-03T09:59:13Z</time>
      </trkpt>
      <trkpt lat="43.63886" lon="3.6023">
        <ele>124</ele>
        <time>2021-04-03T09:59:14Z</time>
      </trkpt>
      <trkpt lat="43.63888" lon="3.6023">
        <ele>124</ele>
        <time>2021-04-03T09:59:15Z</time>
      </trkpt>
      <trkpt lat="43.6389" lon="3.60231">
        <ele>124</ele>
        <time>2021-04-03T09:59:16Z</time>
      </trkpt>
      <trkpt lat="43.63892" lon="3.60231">
        <ele>124</ele>
        <time>2021-04-03T09:59:17Z</time>
      </trkpt>
      <trkpt lat="43.63894" lon="3.60231">
        <ele>124</ele>
        <time>2021-04-03T09:59:18Z</time>
      </trkpt>
      <trkpt lat="43.63897" lon="3.60232">
        <ele>124</ele>
        <time>2021-04-03T09:59:19Z</time>
      </trkpt>
      <trkpt lat="43.63899" lon="3.60233">
        <ele>124</ele>
        <time>2021-04-03T09:59:20Z</time>
      </trkpt>
      <trkpt lat="43.63901" lon="3.60233">
        <ele>124</ele>
        <time>2021-04-03T09:59:21Z</time>
      </trkpt>
      <trkpt lat="43.63903" lon="3.60233">
        <ele>124</ele>
        <time>2021-04-03T09:59:22Z</time>
      </trkpt>
      <trkpt lat="43.63906" lon="3.60233">
        <ele>124</ele>
        <time>2021-04-03T09:59:23Z</time>
      </trkpt>
      <trkpt lat="43.63908" lon="3.60234">
        <ele>124</ele>
        <time>2021-04-03T09:59:24Z</time>
      </trkpt>
      <trkpt lat="43.6391" lon="3.60234">
        <ele>124</ele>
        <time>2021-04-03T09:59:25Z</time>
      </trkpt>
      <trkpt lat="43.63912" lon="3.60234">
        <ele>124</ele>
        <time>2021-04-03T09:59:26Z</time>
      </trkpt>
      <trkpt lat="43.63914" lon="3.60234">
        <ele>124</ele>
        <time>2021-04-03T09:59:27Z</time>
      </trkpt>
      <trkpt lat="43.63917" lon="3.60235">
        <ele>124</ele>
        <time>2021-04-03T09:59:28Z</time>
      </trkpt>
      <trkpt lat="43.63919" lon="3.60235">
        <ele>124</ele>
        <time>2021-04-03T09:59:29Z</time>
      </trkpt>
      <trkpt lat="43.63921" lon="3.60235">
        <ele>124</ele>
        <time>2021-04-03T09:59:30Z</time>
      </trkpt>
      <trkpt lat="43.63924" lon="3.60235">
        <ele>125</ele>
        <time>2021-04-03T09:59:31Z</time>
      </trkpt>
      <trkpt lat="43.63926" lon="3.60235">
        <ele>125</ele>
        <time>2021-04-03T09:59:32Z</time>
      </trkpt>
      <trkpt lat="43.63928" lon="3.60236">
        <ele>125</ele>
        <time>2021-04-03T09:59:33Z</time>
      </trkpt>
      <trkpt lat="43.6393" lon="3.60236">
        <ele>125</ele>
        <time>2021-04-03T09:59:34Z</time>
      </trkpt>
      <trkpt lat="43.63932" lon="3.60236">
        <ele>125</ele>
        <time>2021-04-03T09:59:35Z</time>
      </trkpt>
      <trkpt lat="43.63935" lon="3.60237">
        <ele>125</ele>
        <time>2021-04-03T09:59:36Z</time>
      </trkpt>
      <trkpt lat="43.63938" lon="3.60238">
        <ele>125</ele>
        <time>2021-04-03T09:59:37Z</time>
      </trkpt>
      <trkpt lat="43.63941" lon="3.60239">
        <ele>125</ele>
        <time>2021-04-03T09:59:38Z</time>
      </trkpt>
      <trkpt lat="43.63943" lon="3.6024">
        <ele>125</ele>
        <time>2021-04-03T09:59:39Z</time>
      </trkpt>
      <trkpt lat="43.63945" lon="3.60243">
        <ele>125</ele>
        <time>2021-04-03T09:59:40Z</time>
      </trkpt>
      <trkpt lat="43.63947" lon="3.60245">
        <ele>125</ele>
        <time>2021-04-03T09:59:41Z</time>
      </trkpt>
      <trkpt lat="43.63949" lon="3.60247">
        <ele>125</ele>
        <time>2021-04-03T09:59:42Z</time>
      </trkpt>
      <trkpt lat="43.63951" lon="3.6025">
        <ele>125</ele>
        <time>2021-04-03T09:59:43Z</time>
      </trkpt>
      <trkpt lat="43.63952" lon="3.60252">
        <ele>125</ele>
        <time>2021-04-03T09:59:44Z</time>
      </trkpt>
      <trkpt lat="43.63953" lon="3.60254">
        <ele>125</ele>
        <time>2021-04-03T09:59:45Z</time>
      </trkpt>
      <trkpt lat="43.63955" lon="3.60256">
        <ele>125</ele>
        <time>2021-04-03T09:59:46Z</time>
      </trkpt>
      <trkpt lat="43.63956" lon="3.60258">
        <ele>125</ele>
        <time>2021-04-03T09:59:47Z</time>
      </trkpt>
      <trkpt lat="43.63957" lon="3.6026">
        <ele>125</ele>
        <time>2021-04-03T09:59:48Z</time>
      </trkpt>
      <trkpt lat="43.63959" lon="3.60261">
        <ele>125</ele>
        <time>2021-04-03T09:59:49Z</time>
      </trkpt>
      <trkpt lat="43.6396" lon="3.60263">
        <ele>125</ele>
        <time>2021-04-03T09:59:50Z</time>
      </trkpt>
      <trkpt lat="43.63961" lon="3.60265">
        <ele>126</ele>
        <time>2021-04-03T09:59:51Z</time>
      </trkpt>
      <trkpt lat="43.63963" lon="3.60267">
        <ele>126</ele>
        <time>2021-04-03T09:59:52Z</time>
      </trkpt>
      <trkpt lat="43.63964" lon="3.6027">
        <ele>126</ele>
        <time>2021-04-03T09:59:53Z</time>
      </trkpt>
      <trkpt lat="43.63965" lon="3.60272">
        <ele>126</ele>
        <time>2021-04-03T09:59:54Z</time>
      </trkpt>
      <trkpt lat="43.63966" lon="3.60274">
        <ele>126</ele>
        <time>2021-04-03T09:59:55Z</time>
      </trkpt>
      <trkpt lat="43.63967" lon="3.60276">
        <ele>126</ele>
        <time>2021-04-03T09:59:56Z</time>
      </trkpt>
      <trkpt lat="43.63968" lon="3.60279">
        <ele>126</ele>
        <time>2021-04-03T09:59:57Z</time>
      </trkpt>
      <trkpt lat="43.63969" lon="3.60281">
        <ele>126</ele>
        <time>2021-04-03T09:59:58Z</time>
      </trkpt>
      <trkpt lat="43.6397" lon="3.60284">
        <ele>126</ele>
        <time>2021-04-03T09:59:59Z</time>
      </trkpt>
      <trkpt lat="43.63971" lon="3.60286">
        <ele>126</ele>
        <time>2021-04-03T10:00:00Z</time>
      </trkpt>
      <trkpt lat="43.63971" lon="3.60289">
        <ele>126</ele>
        <time>2021-04-03T10:00:01Z</time>
      </trkpt>
      <trkpt lat="43.63972" lon="3.60292">
        <ele>127</ele>
        <time>2021-04-03T10:00:02Z</time>
      </trkpt>
      <trkpt lat="43.63973" lon="3.60294">
        <ele>127</ele>
        <time>2021-04-03T10:00:03Z</time>
      </trkpt>
      <trkpt lat="43.63974" lon="3.60297">
        <ele>127</ele>
        <time>2021-04-03T10:00:04Z</time>
      </trkpt>
      <trkpt lat="43.63974" lon="3.60299">
        <ele>127</ele>
        <time>2021-04-03T10:00:05Z</time>
      </trkpt>
      <trkpt lat="43.63975" lon="3.60302">
        <ele>127</ele>
        <time>2021-04-03T10:00:06Z</time>
      </trkpt>
      <trkpt lat="43.63975" lon="3.60305">
        <ele>127</ele>
        <time>2021-04-03T10:00:07Z</time>
      </trkpt>
      <trkpt lat="43.63976" lon="3.60307">
        <ele>127</ele>
        <time>2021-04-03T10:00:08Z</time>
      </trkpt>
      <trkpt lat="43.63977" lon="3.6031">
        <ele>127</ele>
        <time>2021-04-03T10:00:09Z</time>
      </trkpt>
      <trkpt lat="43.63977" lon="3.60312">
        <ele>127</ele>
        <time>2021-04-03T10:00:10Z</time>
      </trkpt>
      <trkpt lat="43.63978" lon="3.60314">
        <ele>129</ele>
        <time>2021-04-03T10:00:11Z</time>
      </trkpt>
      <trkpt lat="43.63979" lon="3.60317">
        <ele>129</ele>
        <time>2021-04-03T10:00:12Z</time>
      </trkpt>
      <trkpt lat="43.6398" lon="3.60319">
        <ele>129</ele>
        <time>2021-04-03T10:00:13Z</time>
      </trkpt>
      <trkpt lat="43.63982" lon="3.60321">
        <ele>129</ele>
        <time>2021-04-03T10:00:14Z</time>
      </trkpt>
      <trkpt lat="43.63983" lon="3.60323">
        <ele>129</ele>
        <time>2021-04-03T10:00:15Z</time>
      </trkpt>
      <trkpt lat="43.63985" lon="3.60324">
        <ele>129</ele>
        <time>2021-04-03T10:00:16Z</time>
      </trkpt>
      <trkpt lat="43.63986" lon="3.60325">
        <ele>129</ele>
        <time>2021-04-03T10:00:17Z</time>
      </trkpt>
      <trkpt lat="43.63989" lon="3.60327">
        <ele>129</ele>
        <time>2021-04-03T10:00:19Z</time>
      </trkpt>
      <trkpt lat="43.63993" lon="3.60328">
        <ele>130</ele>
        <time>2021-04-03T10:00:21Z</time>
      </trkpt>
      <trkpt lat="43.63996" lon="3.60328">
        <ele>130</ele>
        <time>2021-04-03T10:00:23Z</time>
      </trkpt>
      <trkpt lat="43.63999" lon="3.60327">
        <ele>130</ele>
        <time>2021-04-03T10:00:25Z</time>
      </trkpt>
      <trkpt lat="43.64002" lon="3.60326">
        <ele>130</ele>
        <time>2021-04-03T10:00:27Z</time>
      </trkpt>
      <trkpt lat="43.64006" lon="3.60326">
        <ele>130</ele>
        <time>2021-04-03T10:00:29Z</time>
      </trkpt>
      <trkpt lat="43.64009" lon="3.60326">
        <ele>130</ele>
        <time>2021-04-03T10:00:31Z</time>
      </trkpt>
      <trkpt lat="43.64013" lon="3.60325">
        <ele>130</ele>
        <time>2021-04-03T10:00:33Z</time>
      </trkpt>
      <trkpt lat="43.64016" lon="3.60324">
        <ele>130</ele>
        <time>2021-04-03T10:00:35Z</time>
      </trkpt>
      <trkpt lat="43.64019" lon="3.60324">
        <ele>130</ele>
        <time>2021-04-03T10:00:37Z</time>
      </trkpt>
      <trkpt lat="43.64022" lon="3.60325">
        <ele>130</ele>
        <time>2021-04-03T10:00:39Z</time>
      </trkpt>
      <trkpt lat="43.64026" lon="3.60327">
        <ele>132</ele>
        <time>2021-04-03T10:00:41Z</time>
      </trkpt>
      <trkpt lat="43.64028" lon="3.60329">
        <ele>132</ele>
        <time>2021-04-03T10:00:43Z</time>
      </trkpt>
      <trkpt lat="43.64031" lon="3.60333">
        <ele>132</ele>
        <time>2021-04-03T10:00:45Z</time>
      </trkpt>
      <trkpt lat="43.64032" lon="3.60337">
        <ele>132</ele>
        <time>2021-04-03T10:00:47Z</time>
      </trkpt>
      <trkpt lat="43.64032" lon="3.60341">
        <ele>132</ele>
        <time>2021-04-03T10:00:49Z</time>
      </trkpt>
      <trkpt lat="43.64031" lon="3.60345">
        <ele>134</ele>
        <time>2021-04-03T10:00:51Z</time>
      </trkpt>
      <trkpt lat="43.6403" lon="3.60349">
        <ele>134</ele>
        <time>2021-04-03T10:00:53Z</time>
      </trkpt>
      <trkpt lat="43.64028" lon="3.60352">
        <ele>134</ele>
        <time>2021-04-03T10:00:55Z</time>
      </trkpt>
      <trkpt lat="43.64025" lon="3.60354">
        <ele>134</ele>
        <time>2021-04-03T10:00:57Z</time>
      </trkpt>
      <trkpt lat="43.64023" lon="3.60356">
        <ele>134</ele>
        <time>2021-04-03T10:00:59Z</time>
      </trkpt>
      <trkpt lat="43.64021" lon="3.60358">
        <ele>134</ele>
        <time>2021-04-03T10:01:01Z</time>
      </trkpt>
      <trkpt lat="43.64019" lon="3.6036">
        <ele>134</ele>
        <time>2021-04-03T10:01:03Z</time>
      </trkpt>
      <trkpt lat="43.64017" lon="3.60363">
        <ele>134</ele>
        <time>2021-04-03T10:01:05Z</time>
      </trkpt>
      <trkpt lat="43.64015" lon="3.60366">
        <ele>134</ele>
        <time>2021-04-03T10:01:07Z</time>
      </trkpt>
      <trkpt lat="43.64013" lon="3.6037">
        <ele>134</ele>
        <time>2021-04-03T10:01:09Z</time>
      </trkpt>
      <trkpt lat="43.64012" lon="3.60373">
        <ele>134</ele>
        <time>2021-04-03T10:01:11Z</time>
      </trkpt>
      <trkpt lat="43.6401" lon="3.60376">
        <ele>134</ele>
        <time>2021-04-03T10:01:13Z</time>
      </trkpt>
      <trkpt lat="43.6401" lon="3.6038">
        <ele>134</ele>
        <time>2021-04-03T10:01:15Z</time>
      </trkpt>
      <trkpt lat="43.6401" lon="3.60384">
        <ele>134</ele>
        <time>2021-04-03T10:01:17Z</time>
      </trkpt>
      <trkpt lat="43.6401" lon="3.60387">
        <ele>134</ele>
        <time>2021-04-03T10:01:19Z</time>
      </trkpt>
      <trkpt lat="43.6401" lon="3.60391">
        <ele>139</ele>
        <time>2021-04-03T10:01:21Z</time>
      </trkpt>
      <trkpt lat="43.6401" lon="3.60394">
        <ele>139</ele>
        <time>2021-04-03T10:01:23Z</time>
      </trkpt>
      <trkpt lat="43.6401" lon="3.60398">
        <ele>139</ele>
        <time>2021-04-03T10:01:25Z</time>
      </trkpt>
      <trkpt lat="43.64011" lon="3.60402">
        <ele>139</ele>
        <time>2021-04-03T10:01:27Z</time>
      </trkpt>
      <trkpt lat="43.64011" lon="3.60405">
        <ele>139</ele>
        <time>2021-04-03T10:01:29Z</time>
      </trkpt>
      <trkpt lat="43.64012" lon="3.60409">
        <ele>139</ele>
        <time>2021-04-03T10:01:31Z</time>
      </trkpt>
      <trkpt lat="43.64012" lon="3.60412">
        <ele>139</ele>
        <time>2021-04-03T10:01:33Z</time>
      </trkpt>
      <trkpt lat="43.64012" lon="3.60415">
        <ele>139</ele>
        <time>2021-04-03T10:01:35Z</time>
      </trkpt>
      <trkpt lat="43.64013" lon="3.60418">
        <ele>139</ele>
        <time>2021-04-03T10:01:37Z</time>
      </trkpt>
      <trkpt lat="43.64014" lon="3.60422">
        <ele>139</ele>
        <time>2021-04-03T10:01:39Z</time>
      </trkpt>
      <trkpt lat="43.64015" lon="3.60425">
        <ele>142</ele>
        <time>2021-04-03T10:01:41Z</time>
      </trkpt>
      <trkpt lat="43.64015" lon="3.60428">
        <ele>142</ele>
        <time>2021-04-03T10:01:43Z</time>
      </trkpt>
      <trkpt lat="43.64016" lon="3.60433">
        <ele>142</ele>
        <time>2021-04-03T10:01:45Z</time>
      </trkpt>
      <trkpt lat="43.64017" lon="3.60436">
        <ele>142</ele>
        <time>2021-04-03T10:01:47Z</time>
      </trkpt>
      <trkpt lat="43.64017" lon="3.6044">
        <ele>142</ele>
        <time>2021-04-03T10:01:49Z</time>
      </trkpt>
      <trkpt lat="43.64018" lon="3.60444">
        <ele>144</ele>
        <time>2021-04-03T10:01:51Z</time>
      </trkpt>
      <trkpt lat="43.64019" lon="3.60447">
        <ele>144</ele>
        <time>2021-04-03T10:01:53Z</time>
      </trkpt>
      <trkpt lat="43.6402" lon="3.60451">
        <ele>144</ele>
        <time>2021-04-03T10:01:55Z</time>
      </trkpt>
      <trkpt lat="43.6402" lon="3.60455">
        <ele>144</ele>
        <time>2021-04-03T10:01:57Z</time>
      </trkpt>
      <trkpt lat="43.64022" lon="3.60459">
        <ele>144</ele>
        <time>2021-04-03T10:01:59Z</time>
      </trkpt>
      <trkpt lat="43.64022" lon="3.60462">
        <ele>144</ele>
        <time>2021-04-03T10:02:01Z</time>
      </trkpt>
      <trkpt lat="43.64023" lon="3.60466">
        <ele>144</ele>
        <time>2021-04-03T10:02:03Z</time>
      </trkpt>
      <trkpt lat="43.64023" lon="3.60469">
        <ele>144</ele>
        <time>2021-04-03T10:02:05Z</time>
      </trkpt>
      <trkpt lat="43.64025" lon="3.60472">
        <ele>144</ele>
        <time>2021-04-03T10:02:07Z</time>
      </trkpt>
      <trkpt lat="43.64026" lon="3.60475">
        <ele>144</ele>
        <time>2021-04-03T10:02:09Z</time>
      </trkpt>
      <trkpt lat="43.64026" lon="3.60478">
        <ele>147</ele>
        <time>2021-04-03T10:02:11Z</time>
      </trkpt>
      <trkpt lat="43.64026" lon="3.60482">
        <ele>147</ele>
        <time>2021-04-03T10:02:13Z</time>
      </trkpt>
      <trkpt lat="43.64027" lon="3.60486">
        <ele>147</ele>
        <time>2021-04-03T10:02:15Z</time>
      </trkpt>
      <trkpt lat="43.64028" lon="3.6049">
        <ele>147</ele>
        <time>2021-04-03T10:02:17Z</time>
      </trkpt>
      <trkpt lat="43.64028" lon="3.60494">
        <ele>147</ele>
        <time>2021-04-03T10:02:19Z</time>
      </trkpt>
      <trkpt lat="43.64028" lon="3.60497">
        <ele>147</ele>
        <time>2021-04-03T10:02:21Z</time>
      </trkpt>
      <trkpt lat="43.64029" lon="3.605">
        <ele>147</ele>
        <time>2021-04-03T10:02:23Z</time>
      </trkpt>
      <trkpt lat="43.6403" lon="3.60504">
        <ele>147</ele>
        <time>2021-04-03T10:02:25Z</time>
      </trkpt>
      <trkpt lat="43.6403" lon="3.60508">
        <ele>147</ele>
        <time>2021-04-03T10:02:27Z</time>
      </trkpt>
      <trkpt lat="43.64031" lon="3.60512">
        <ele>147</ele>
        <time>2021-04-03T10:02:29Z</time>
      </trkpt>
      <trkpt lat="43.64031" lon="3.60516">
        <ele>151</ele>
        <time>2021-04-03T10:02:31Z</time>
      </trkpt>
      <trkpt lat="43.6403" lon="3.6052">
        <ele>151</ele>
        <time>2021-04-03T10:02:33Z</time>
      </trkpt>
      <trkpt lat="43.6403" lon="3.60523">
        <ele>151</ele>
        <time>2021-04-03T10:02:35Z</time>
      </trkpt>
      <trkpt lat="43.6403" lon="3.60527">
        <ele>151</ele>
        <time>2021-04-03T10:02:37Z</time>
      </trkpt>
      <trkpt lat="43.6403" lon="3.6053">
        <ele>151</ele>
        <time>2021-04-03T10:02:39Z</time>
      </trkpt>
      <trkpt lat="43.6403" lon="3.60534">
        <ele>151</ele>
        <time>2021-04-03T10:02:41Z</time>
      </trkpt>
      <trkpt lat="43.64029" lon="3.60537">
        <ele>151</ele>
        <time>2021-04-03T10:02:43Z</time>
      </trkpt>
      <trkpt lat="43.64029" lon="3.60541">
        <ele>151</ele>
        <time>2021-04-03T10:02:45Z</time>
      </trkpt>
      <trkpt lat="43.64029" lon="3.60545">
        <ele>151</ele>
        <time>2021-04-03T10:02:47Z</time>
      </trkpt>
      <trkpt lat="43.64028" lon="3.60548">
        <ele>151</ele>
        <time>2021-04-03T10:02:49Z</time>
      </trkpt>
      <trkpt lat="43.64028" lon="3.60551">
        <ele>151</ele>
        <time>2021-04-03T10:02:51Z</time>
      </trkpt>
      <trkpt lat="43.64027" lon="3.60555">
        <ele>151</ele>
        <time>2021-04-03T10:02:53Z</time>
      </trkpt>
      <trkpt lat="43.64026" lon="3.60558">
        <ele>151</ele>
        <time>2021-04-03T10:02:55Z</time>
      </trkpt>
      <trkpt lat="43.64026" lon="3.60562">
        <ele>151</ele>
        <time>2021-04-03T10:02:57Z</time>
      </trkpt>
      <trkpt lat="43.64024" lon="3.60565">
        <ele>151</ele>
        <time>2021-04-03T10:02:59Z</time>
      </trkpt>
      <trkpt lat="43.64023" lon="3.60568">
        <ele>155</ele>
        <time>2021-04-03T10:03:01Z</time>
      </trkpt>
      <trkpt lat="43.64021" lon="3.60571">
        <ele>155</ele>
        <time>2021-04-03T10:03:03Z</time>
      </trkpt>
      <trkpt lat="43.64018" lon="3.60575">
        <ele>155</ele>
        <time>2021-04-03T10:03:05Z</time>
      </trkpt>
      <trkpt lat="43.64017" lon="3.60577">
        <ele>155</ele>
        <time>2021-04-03T10:03:06Z</time>
      </trkpt>
      <trkpt lat="43.64016" lon="3.60581">
        <ele>155</ele>
        <time>2021-04-03T10:03:08Z</time>
      </trkpt>
      <trkpt lat="43.64015" lon="3.60584">
        <ele>155</ele>
        <time>2021-04-03T10:03:10Z</time>
      </trkpt>
      <trkpt lat="43.64014" lon="3.60588">
        <ele>155</ele>
        <time>2021-04-03T10:03:12Z</time>
      </trkpt>
      <trkpt lat="43.64013" lon="3.60591">
        <ele>155</ele>
        <time>2021-04-03T10:03:14Z</time>
      </trkpt>
      <trkpt lat="43.64011" lon="3.60595">
        <ele>155</ele>
        <time>2021-04-03T10:03:16Z</time>
      </trkpt>
      <trkpt lat="43.64009" lon="3.60598">
        <ele>155</ele>
        <time>2021-04-03T10:03:18Z</time>
      </trkpt>
      <trkpt lat="43.64008" lon="3.60601">
        <ele>155</ele>
        <time>2021-04-03T10:03:20Z</time>
      </trkpt>
      <trkpt lat="43.64006" lon="3.60604">
        <ele>155</ele>
        <time>2021-04-03T10:03:22Z</time>
      </trkpt>
      <trkpt lat="43.64005" lon="3.60608">
        <ele>155</ele>
        <time>2021-04-03T10:03:24Z</time>
      </trkpt>
      <trkpt lat="43.64003" lon="3.60611">
        <ele>155</ele>
        <time>2021-04-03T10:03:26Z</time>
      </trkpt>
      <trkpt lat="43.64001" lon="3.60614">
        <ele>155</ele>
        <time>2021-04-03T10:03:28Z</time>
      </trkpt>
      <trkpt lat="43.63999" lon="3.60617">
        <ele>155</ele>
        <time>2021-04-03T10:03:30Z</time>
      </trkpt>
      <trkpt lat="43.63997" lon="3.6062">
        <ele>155</ele>
        <time>2021-04-03T10:03:32Z</time>
      </trkpt>
      <trkpt lat="43.63995" lon="3.60623">
        <ele>155</ele>
        <time>2021-04-03T10:03:34Z</time>
      </trkpt>
      <trkpt lat="43.63993" lon="3.60625">
        <ele>155</ele>
        <time>2021-04-03T10:03:36Z</time>
      </trkpt>
      <trkpt lat="43.6399" lon="3.60628">
        <ele>155</ele>
        <time>2021-04-03T10:03:38Z</time>
      </trkpt>
      <trkpt lat="43.63989" lon="3.6063">
        <ele>155</ele>
        <time>2021-04-03T10:03:40Z</time>
      </trkpt>
      <trkpt lat="43.63988" lon="3.60633">
        <ele>163</ele>
        <time>2021-04-03T10:03:42Z</time>
      </trkpt>
      <trkpt lat="43.63985" lon="3.60635">
        <ele>163</ele>
        <time>2021-04-03T10:03:44Z</time>
      </trkpt>
      <trkpt lat="43.63983" lon="3.60638">
        <ele>163</ele>
        <time>2021-04-03T10:03:46Z</time>
      </trkpt>
      <trkpt lat="43.63981" lon="3.60639">
        <ele>163</ele>
        <time>2021-04-03T10:03:47Z</time>
      </trkpt>
      <trkpt lat="43.63978" lon="3.60642">
        <ele>163</ele>
        <time>2021-04-03T10:03:49Z</time>
      </trkpt>
      <trkpt lat="43.63975" lon="3.60643">
        <ele>163</ele>
        <time>2021-04-03T10:03:51Z</time>
      </trkpt>
      <trkpt lat="43.63973" lon="3.60643">
        <ele>165</ele>
        <time>2021-04-03T10:03:52Z</time>
      </trkpt>
      <trkpt lat="43.63969" lon="3.60642">
        <ele>165</ele>
        <time>2021-04-03T10:03:54Z</time>
      </trkpt>
      <trkpt lat="43.63967" lon="3.60641">
        <ele>165</ele>
        <time>2021-04-03T10:03:55Z</time>
      </trkpt>
      <trkpt lat="43.63966" lon="3.6064">
        <ele>165</ele>
        <time>2021-04-03T10:03:56Z</time>
      </trkpt>
      <trkpt lat="43.63963" lon="3.60637">
        <ele>165</ele>
        <time>2021-04-03T10:03:58Z</time>
      </trkpt>
      <trkpt lat="43.63961" lon="3.60634">
        <ele>165</ele>
        <time>2021-04-03T10:04:00Z</time>
      </trkpt>
      <trkpt lat="43.6396" lon="3.6063">
        <ele>165</ele>
        <time>2021-04-03T10:04:02Z</time>
      </trkpt>
      <trkpt lat="43.63959" lon="3.60627">
        <ele>165</ele>
        <time>2021-04-03T10:04:04Z</time>
      </trkpt>
      <trkpt lat="43.63958" lon="3.60623">
        <ele>165</ele>
        <time>2021-04-03T10:04:06Z</time>
      </trkpt>
      <trkpt lat="43.63958" lon="3.60619">
        <ele>165</ele>
        <time>2021-04-03T10:04:08Z</time>
      </trkpt>
      <trkpt lat="43.63957" lon="3.60616">
        <ele>165</ele>
        <time>2021-04-03T10:04:10Z</time>
      </trkpt>
      <trkpt lat="43.63956" lon="3.60612">
        <ele>165</ele>
        <time>2021-04-03T10:04:12Z</time>
      </trkpt>
      <trkpt lat="43.63956" lon="3.60609">
        <ele>165</ele>
        <time>2021-04-03T10:04:14Z</time>
      </trkpt>
      <trkpt lat="43.63954" lon="3.60605">
        <ele>165</ele>
        <time>2021-04-03T10:04:16Z</time>
      </trkpt>
      <trkpt lat="43.63953" lon="3.60601">
        <ele>165</ele>
        <time>2021-04-03T10:04:18Z</time>
      </trkpt>
      <trkpt lat="43.63951" lon="3.60598">
        <ele>165</ele>
        <time>2021-04-03T10:04:20Z</time>
      </trkpt>
      <trkpt lat="43.63949" lon="3.60595">
        <ele>168</ele>
        <time>2021-04-03T10:04:22Z</time>
      </trkpt>
      <trkpt lat="43.63947" lon="3.60592">
        <ele>168</ele>
        <time>2021-04-03T10:04:24Z</time>
      </trkpt>
      <trkpt lat="43.63945" lon="3.60589">
        <ele>168</ele>
        <time>2021-04-03T10:04:26Z</time>
      </trkpt>
      <trkpt lat="43.63942" lon="3.60587">
        <ele>168</ele>
        <time>2021-04-03T10:04:28Z</time>
      </trkpt>
      <trkpt lat="43.6394" lon="3.60585">
        <ele>168</ele>
        <time>2021-04-03T10:04:30Z</time>
      </trkpt>
      <trkpt lat="43.63937" lon="3.60583">
        <ele>169</ele>
        <time>2021-04-03T10:04:32Z</time>
      </trkpt>
      <trkpt lat="43.63934" lon="3.60582">
        <ele>169</ele>
        <time>2021-04-03T10:04:34Z</time>
      </trkpt>
      <trkpt lat="43.63931" lon="3.60581">
        <ele>169</ele>
        <time>2021-04-03T10:04:36Z</time>
      </trkpt>
      <trkpt lat="43.63929" lon="3.60581">
        <ele>169</ele>
        <time>2021-04-03T10:04:38Z</time>
      </trkpt>
      <trkpt lat="43.63926" lon="3.60581">
        <ele>169</ele>
        <time>2021-04-03T10:04:40Z</time>
      </trkpt>
      <trkpt lat="43.63923" lon="3.60581">
        <ele>169</ele>
        <time>2021-04-03T10:04:42Z</time>
      </trkpt>
      <trkpt lat="43.63921" lon="3.60581">
        <ele>169</ele>
        <time>2021-04-03T10:04:44Z</time>
      </trkpt>
      <trkpt lat="43.63919" lon="3.60582">
        <ele>169</ele>
        <time>2021-04-03T10:04:46Z</time>
      </trkpt>
      <trkpt lat="43.63916" lon="3.60582">
        <ele>169</ele>
        <time>2021-04-03T10:04:48Z</time>
      </trkpt>
      <trkpt lat="43.63914" lon="3.60583">
        <ele>169</ele>
        <time>2021-04-03T10:04:50Z</time>
      </trkpt>
      <trkpt lat="43.63911" lon="3.60582">
        <ele>169</ele>
        <time>2021-04-03T10:04:52Z</time>
      </trkpt>
      <trkpt lat="43.63909" lon="3.60583">
        <ele>169</ele>
        <time>2021-04-03T10:04:54Z</time>
      </trkpt>
      <trkpt lat="43.63906" lon="3.60584">
        <ele>169</ele>
        <time>2021-04-03T10:04:56Z</time>
      </trkpt>
      <trkpt lat="43.63902" lon="3.60585">
        <ele>169</ele>
        <time>2021-04-03T10:04:58Z</time>
      </trkpt>
      <trkpt lat="43.63899" lon="3.60586">
        <ele>169</ele>
        <time>2021-04-03T10:05:00Z</time>
      </trkpt>
      <trkpt lat="43.63896" lon="3.60587">
        <ele>169</ele>
        <time>2021-04-03T10:05:02Z</time>
      </trkpt>
      <trkpt lat="43.63893" lon="3.60587">
        <ele>169</ele>
        <time>2021-04-03T10:05:04Z</time>
      </trkpt>
      <trkpt lat="43.6389" lon="3.60588">
        <ele>169</ele>
        <time>2021-04-03T10:05:06Z</time>
      </trkpt>
      <trkpt lat="43.63887" lon="3.60589">
        <ele>169</ele>
        <time>2021-04-03T10:05:08Z</time>
      </trkpt>
      <trkpt lat="43.63884" lon="3.60589">
        <ele>169</ele>
        <time>2021-04-03T10:05:10Z</time>
      </trkpt>
      <trkpt lat="43.63881" lon="3.6059">
        <ele>173</ele>
        <time>2021-04-03T10:05:12Z</time>
      </trkpt>
      <trkpt lat="43.63878" lon="3.60589">
        <ele>173</ele>
        <time>2021-04-03T10:05:14Z</time>
      </trkpt>
      <trkpt lat="43.63875" lon="3.60589">
        <ele>173</ele>
        <time>2021-04-03T10:05:16Z</time>
      </trkpt>
      <trkpt lat="43.63872" lon="3.6059">
        <ele>173</ele>
        <time>2021-04-03T10:05:18Z</time>
      </trkpt>
      <trkpt lat="43.6387" lon="3.60591">
        <ele>173</ele>
        <time>2021-04-03T10:05:20Z</time>
      </trkpt>
      <trkpt lat="43.63868" lon="3.60594">
        <ele>173</ele>
        <time>2021-04-03T10:05:22Z</time>
      </trkpt>
      <trkpt lat="43.63867" lon="3.60599">
        <ele>173</ele>
        <time>2021-04-03T10:05:24Z</time>
      </trkpt>
      <trkpt lat="43.63867" lon="3.60603">
        <ele>173</ele>
        <time>2021-04-03T10:05:26Z</time>
      </trkpt>
      <trkpt lat="43.63868" lon="3.60606">
        <ele>173</ele>
        <time>2021-04-03T10:05:28Z</time>
      </trkpt>
      <trkpt lat="43.6387" lon="3.60608">
        <ele>173</ele>
        <time>2021-04-03T10:05:30Z</time>
      </trkpt>
      <trkpt lat="43.63872" lon="3.6061">
        <ele>173</ele>
        <time>2021-04-03T10:05:32Z</time>
      </trkpt>
      <trkpt lat="43.63874" lon="3.60612">
        <ele>173</ele>
        <time>2021-04-03T10:05:34Z</time>
      </trkpt>
      <trkpt lat="43.63877" lon="3.60614">
        <ele>173</ele>
        <time>2021-04-03T10:05:36Z</time>
      </trkpt>
      <trkpt lat="43.6388" lon="3.60616">
        <ele>173</ele>
        <time>2021-04-03T10:05:38Z</time>
      </trkpt>
      <trkpt lat="43.63882" lon="3.60619">
        <ele>173</ele>
        <time>2021-04-03T10:05:40Z</time>
      </trkpt>
      <trkpt lat="43.63885" lon="3.60623">
        <ele>173</ele>
        <time>2021-04-03T10:05:42Z</time>
      </trkpt>
      <trkpt lat="43.63887" lon="3.60626">
        <ele>173</ele>
        <time>2021-04-03T10:05:44Z</time>
      </trkpt>
      <trkpt lat="43.6389" lon="3.60629">
        <ele>173</ele>
        <time>2021-04-03T10:05:46Z</time>
      </trkpt>
      <trkpt lat="43.63891" lon="3.60632">
        <ele>173</ele>
        <time>2021-04-03T10:05:48Z</time>
      </trkpt>
      <trkpt lat="43.63893" lon="3.60636">
        <ele>173</ele>
        <time>2021-04-03T10:05:50Z</time>
      </trkpt>
      <trkpt lat="43.63895" lon="3.60641">
        <ele>173</ele>
        <time>2021-04-03T10:05:52Z</time>
      </trkpt>
      <trkpt lat="43.63895" lon="3.60645">
        <ele>173</ele>
        <time>2021-04-03T10:05:54Z</time>
      </trkpt>
      <trkpt lat="43.63896" lon="3.6065">
        <ele>173</ele>
        <time>2021-04-03T10:05:56Z</time>
      </trkpt>
      <trkpt lat="43.63896" lon="3.60654">
        <ele>173</ele>
        <time>2021-04-03T10:05:58Z</time>
      </trkpt>
      <trkpt lat="43.63896" lon="3.60658">
        <ele>173</ele>
        <time>2021-04-03T10:06:00Z</time>
      </trkpt>
      <trkpt lat="43.63896" lon="3.60663">
        <ele>173</ele>
        <time>2021-04-03T10:06:02Z</time>
      </trkpt>
      <trkpt lat="43.63895" lon="3.60667">
        <ele>173</ele>
        <time>2021-04-03T10:06:04Z</time>
      </trkpt>
      <trkpt lat="43.63895" lon="3.60672">
        <ele>173</ele>
        <time>2021-04-03T10:06:06Z</time>
      </trkpt>
      <trkpt lat="43.63895" lon="3.60676">
        <ele>173</ele>
        <time>2021-04-03T10:06:08Z</time>
      </trkpt>
      <trkpt lat="43.63895" lon="3.60681">
        <ele>173</ele>
        <time>2021-04-03T10:06:10Z</time>
      </trkpt>
      <trkpt lat="43.63895" lon="3.60685">
        <ele>180</ele>
        <time>2021-04-03T10:06:12Z</time>
      </trkpt>
      <trkpt lat="43.63895" lon="3.6069">
        <ele>180</ele>
        <time>2021-04-03T10:06:14Z</time>
      </trkpt>
      <trkpt lat="43.63895" lon="3.60695">
        <ele>180</ele>
        <time>2021-04-03T10:06:16Z</time>
      </trkpt>
      <trkpt lat="43.63895" lon="3.60699">
        <ele>180</ele>
        <time>2021-04-03T10:06:18Z</time>
      </trkpt>
      <trkpt lat="43.63895" lon="3.60704">
        <ele>180</ele>
        <time>2021-04-03T10:06:20Z</time>
      </trkpt>
      <trkpt lat="43.63895" lon="3.60708">
        <ele>180</ele>
        <time>2021-04-03T10:06:22Z</time>
      </trkpt>
      <trkpt lat="43.63895" lon="3.60712">
        <ele>180</ele>
        <time>2021-04-03T10:06:24Z</time>
      </trkpt>
      <trkpt lat="43.63895" lon="3.60716">
        <ele>180</ele>
        <time>2021-04-03T10:06:26Z</time>
      </trkpt>
      <trkpt lat="43.63896" lon="3.6072">
        <ele>180</ele>
        <time>2021-04-03T10:06:28Z</time>
      </trkpt>
      <trkpt lat="43.63896" lon="3.60725">
        <ele>180</ele>
        <time>2021-04-03T10:06:30Z</time>
      </trkpt>
      <trkpt lat="43.63896" lon="3.60729">
        <ele>180</ele>
        <time>2021-04-03T10:06:32Z</time>
      </trkpt>
      <trkpt lat="43.63896" lon="3.60733">
        <ele>180</ele>
        <time>2021-04-03T10:06:34Z</time>
      </trkpt>
      <trkpt lat="43.63896" lon="3.60737">
        <ele>180</ele>
        <time>2021-04-03T10:06:36Z</time>
      </trkpt>
      <trkpt lat="43.63897" lon="3.60741">
        <ele>180</ele>
        <time>2021-04-03T10:06:38Z</time>
      </trkpt>
      <trkpt lat="43.63898" lon="3.60746">
        <ele>180</ele>
        <time>2021-04-03T10:06:40Z</time>
      </trkpt>
      <trkpt lat="43.63898" lon="3.6075">
        <ele>185</ele>
        <time>2021-04-03T10:06:42Z</time>
      </trkpt>
      <trkpt lat="43.63899" lon="3.60754">
        <ele>185</ele>
        <time>2021-04-03T10:06:44Z</time>
      </trkpt>
      <trkpt lat="43.639" lon="3.60758">
        <ele>185</ele>
        <time>2021-04-03T10:06:46Z</time>
      </trkpt>
      <trkpt lat="43.63902" lon="3.60761">
        <ele>185</ele>
        <time>2021-04-03T10:06:48Z</time>
      </trkpt>
      <trkpt lat="43.63903" lon="3.60765">
        <ele>185</ele>
        <time>2021-04-03T10:06:50Z</time>
      </trkpt>
      <trkpt lat="43.63904" lon="3.60768">
        <ele>185</ele>
        <time>2021-04-03T10:06:52Z</time>
      </trkpt>
      <trkpt lat="43.63906" lon="3.60771">
        <ele>185</ele>
        <time>2021-04-03T10:06:54Z</time>
      </trkpt>
      <trkpt lat="43.63908" lon="3.60774">
        <ele>185</ele>
        <time>2021-04-03T10:06:56Z</time>
      </trkpt>
      <trkpt lat="43.6391" lon="3.60776">
        <ele>185</ele>
        <time>2021-04-03T10:06:58Z</time>
      </trkpt>
      <trkpt lat="43.63912" lon="3.60779">
        <ele>185</ele>
        <time>2021-04-03T10:07:00Z</time>
      </trkpt>
      <trkpt lat="43.63915" lon="3.60782">
        <ele>187</ele>
        <time>2021-04-03T10:07:02Z</time>
      </trkpt>
      <trkpt lat="43.63917" lon="3.60783">
        <ele>187</ele>
        <time>2021-04-03T10:07:03Z</time>
      </trkpt>
      <trkpt lat="43.63919" lon="3.60784">
        <ele>187</ele>
        <time>2021-04-03T10:07:04Z</time>
      </trkpt>
      <trkpt lat="43.63921" lon="3.60787">
        <ele>187</ele>
        <time>2021-04-03T10:07:06Z</time>
      </trkpt>
      <trkpt lat="43.63924" lon="3.60789">
        <ele>187</ele>
        <time>2021-04-03T10:07:08Z</time>
      </trkpt>
      <trkpt lat="43.63927" lon="3.60791">
        <ele>187</ele>
        <time>2021-04-03T10:07:10Z</time>
      </trkpt>
      <trkpt lat="43.6393" lon="3.60793">
        <ele>189</ele>
        <time>2021-04-03T10:07:12Z</time>
      </trkpt>
      <trkpt lat="43.63933" lon="3.60794">
        <ele>189</ele>
        <time>2021-04-03T10:07:14Z</time>
      </trkpt>
      <trkpt lat="43.63936" lon="3.60796">
        <ele>189</ele>
        <time>2021-04-03T10:07:16Z</time>
      </trkpt>
      <trkpt lat="43.63938" lon="3.60798">
        <ele>189</ele>
        <time>2021-04-03T10:07:18Z</time>
      </trkpt>
      <trkpt lat="43.63941" lon="3.608">
        <ele>189</ele>
        <time>2021-04-03T10:07:20Z</time>
      </trkpt>
      <trkpt lat="43.63944" lon="3.60802">
        <ele>189</ele>
        <time>2021-04-03T10:07:22Z</time>
      </trkpt>
      <trkpt lat="43.63946" lon="3.60804">
        <ele>189</ele>
        <time>2021-04-03T10:07:24Z</time>
      </trkpt>
      <trkpt lat="43.63949" lon="3.60806">
        <ele>189</ele>
        <time>2021-04-03T10:07:26Z</time>
      </trkpt>
      <trkpt lat="43.63951" lon="3.60808">
        <ele>189</ele>
        <time>2021-04-03T10:07:28Z</time>
      </trkpt>
      <trkpt lat="43.63954" lon="3.6081">
        <ele>189</ele>
        <time>2021-04-03T10:07:30Z</time>
      </trkpt>
      <trkpt lat="43.63956" lon="3.60813">
        <ele>191</ele>
        <time>2021-04-03T10:07:32Z</time>
      </trkpt>
      <trkpt lat="43.63959" lon="3.60815">
        <ele>191</ele>
        <time>2021-04-03T10:07:34Z</time>
      </trkpt>
      <trkpt lat="43.63961" lon="3.60818">
        <ele>191</ele>
        <time>2021-04-03T10:07:36Z</time>
      </trkpt>
      <trkpt lat="43.63963" lon="3.60821">
        <ele>191</ele>
        <time>2021-04-03T10:07:38Z</time>
      </trkpt>
      <trkpt lat="43.63965" lon="3.60824">
        <ele>191</ele>
        <time>2021-04-03T10:07:40Z</time>
      </trkpt>
      <trkpt lat="43.63968" lon="3.60828">
        <ele>192</ele>
        <time>2021-04-03T10:07:42Z</time>
      </trkpt>
      <trkpt lat="43.63969" lon="3.60832">
        <ele>192</ele>
        <time>2021-04-03T10:07:44Z</time>
      </trkpt>
      <trkpt lat="43.63971" lon="3.60836">
        <ele>192</ele>
        <time>2021-04-03T10:07:46Z</time>
      </trkpt>
      <trkpt lat="43.63972" lon="3.6084">
        <ele>192</ele>
        <time>2021-04-03T10:07:48Z</time>
      </trkpt>
      <trkpt lat="43.63972" lon="3.60844">
        <ele>192</ele>
        <time>2021-04-03T10:07:50Z</time>
      </trkpt>
      <trkpt lat="43.63973" lon="3.60848">
        <ele>192</ele>
        <time>2021-04-03T10:07:52Z</time>
      </trkpt>
      <trkpt lat="43.63973" lon="3.60853">
        <ele>192</ele>
        <time>2021-04-03T10:07:54Z</time>
      </trkpt>
      <trkpt lat="43.63973" lon="3.60855">
        <ele>192</ele>
        <time>2021-04-03T10:07:55Z</time>
      </trkpt>
      <trkpt lat="43.63973" lon="3.60858">
        <ele>192</ele>
        <time>2021-04-03T10:07:56Z</time>
      </trkpt>
      <trkpt lat="43.63973" lon="3.60861">
        <ele>192</ele>
        <time>2021-04-03T10:07:57Z</time>
      </trkpt>
      <trkpt lat="43.63973" lon="3.60864">
        <ele>192</ele>
        <time>2021-04-03T10:07:58Z</time>
      </trkpt>
      <trkpt lat="43.63973" lon="3.60866">
        <ele>192</ele>
        <time>2021-04-03T10:07:59Z</time>
      </trkpt>
      <trkpt lat="43.63972" lon="3.60869">
        <ele>192</ele>
        <time>2021-04-03T10:08:00Z</time>
      </trkpt>
      <trkpt lat="43.63972" lon="3.60873">
        <ele>192</ele>
        <time>2021-04-03T10:08:02Z</time>
      </trkpt>
      <trkpt lat="43.63971" lon="3.60877">
        <ele>192</ele>
        <time>2021-04-03T10:08:04Z</time>
      </trkpt>
      <trkpt lat="43.63971" lon="3.60882">
        <ele>192</ele>
        <time>2021-04-03T10:08:06Z</time>
      </trkpt>
      <trkpt lat="43.6397" lon="3.60886">
        <ele>192</ele>
        <time>2021-04-03T10:08:08Z</time>
      </trkpt>
      <trkpt lat="43.63969" lon="3.60891">
        <ele>192</ele>
        <time>2021-04-03T10:08:10Z</time>
      </trkpt>
      <trkpt lat="43.63968" lon="3.60895">
        <ele>197</ele>
        <time>2021-04-03T10:08:12Z</time>
      </trkpt>
      <trkpt lat="43.63967" lon="3.60899">
        <ele>197</ele>
        <time>2021-04-03T10:08:14Z</time>
      </trkpt>
      <trkpt lat="43.63967" lon="3.60904">
        <ele>197</ele>
        <time>2021-04-03T10:08:16Z</time>
      </trkpt>
      <trkpt lat="43.63966" lon="3.60908">
        <ele>197</ele>
        <time>2021-04-03T10:08:18Z</time>
      </trkpt>
      <trkpt lat="43.63966" lon="3.60913">
        <ele>197</ele>
        <time>2021-04-03T10:08:20Z</time>
      </trkpt>
      <trkpt lat="43.63966" lon="3.60917">
        <ele>197</ele>
        <time>2021-04-03T10:08:22Z</time>
      </trkpt>
      <trkpt lat="43.63966" lon="3.60922">
        <ele>197</ele>
        <time>2021-04-03T10:08:24Z</time>
      </trkpt>
      <trkpt lat="43.63967" lon="3.60926">
        <ele>197</ele>
        <time>2021-04-03T10:08:26Z</time>
      </trkpt>
      <trkpt lat="43.63967" lon="3.6093">
        <ele>197</ele>
        <time>2021-04-03T10:08:28Z</time>
      </trkpt>
      <trkpt lat="43.63967" lon="3.60935">
        <ele>197</ele>
        <time>2021-04-03T10:08:30Z</time>
      </trkpt>
      <trkpt lat="43.63968" lon="3.60939">
        <ele>197</ele>
        <time>2021-04-03T10:08:32Z</time>
      </trkpt>
      <trkpt lat="43.63969" lon="3.60943">
        <ele>197</ele>
        <time>2021-04-03T10:08:34Z</time>
      </trkpt>
      <trkpt lat="43.63969" lon="3.60948">
        <ele>197</ele>
        <time>2021-04-03T10:08:36Z</time>
      </trkpt>
      <trkpt lat="43.6397" lon="3.60952">
        <ele>197</ele>
        <time>2021-04-03T10:08:38Z</time>
      </trkpt>
      <trkpt lat="43.63971" lon="3.60956">
        <ele>197</ele>
        <time>2021-04-03T10:08:40Z</time>
      </trkpt>
      <trkpt lat="43.63971" lon="3.6096">
        <ele>202</ele>
        <time>2021-04-03T10:08:42Z</time>
      </trkpt>
      <trkpt lat="43.63972" lon="3.60965">
        <ele>202</ele>
        <time>2021-04-03T10:08:44Z</time>
      </trkpt>
      <trkpt lat="43.63973" lon="3.60968">
        <ele>202</ele>
        <time>2021-04-03T10:08:45Z</time>
      </trkpt>
      <trkpt lat="43.63974" lon="3.60971">
        <ele>202</ele>
        <time>2021-04-03T10:08:46Z</time>
      </trkpt>
      <trkpt lat="43.63974" lon="3.60974">
        <ele>202</ele>
        <time>2021-04-03T10:08:47Z</time>
      </trkpt>
      <trkpt lat="43.63975" lon="3.60977">
        <ele>202</ele>
        <time>2021-04-03T10:08:48Z</time>
      </trkpt>
      <trkpt lat="43.63975" lon="3.60979">
        <ele>202</ele>
        <time>2021-04-03T10:08:49Z</time>
      </trkpt>
      <trkpt lat="43.63976" lon="3.60982">
        <ele>202</ele>
        <time>2021-04-03T10:08:50Z</time>
      </trkpt>
      <trkpt lat="43.63976" lon="3.60984">
        <ele>204</ele>
        <time>2021-04-03T10:08:51Z</time>
      </trkpt>
      <trkpt lat="43.63976" lon="3.60989">
        <ele>204</ele>
        <time>2021-04-03T10:08:53Z</time>
      </trkpt>
      <trkpt lat="43.63976" lon="3.60994">
        <ele>204</ele>
        <time>2021-04-03T10:08:55Z</time>
      </trkpt>
      <trkpt lat="43.63977" lon="3.60999">
        <ele>204</ele>
        <time>2021-04-03T10:08:57Z</time>
      </trkpt>
      <trkpt lat="43.63978" lon="3.61003">
        <ele>204</ele>
        <time>2021-04-03T10:08:59Z</time>
      </trkpt>
      <trkpt lat="43.63978" lon="3.61008">
        <ele>205</ele>
        <time>2021-04-03T10:09:01Z</time>
      </trkpt>
      <trkpt lat="43.63979" lon="3.61011">
        <ele>205</ele>
        <time>2021-04-03T10:09:02Z</time>
      </trkpt>
      <trkpt lat="43.63979" lon="3.61013">
        <ele>205</ele>
        <time>2021-04-03T10:09:03Z</time>
      </trkpt>
      <trkpt lat="43.63979" lon="3.61018">
        <ele>205</ele>
        <time>2021-04-03T10:09:05Z</time>
      </trkpt>
      <trkpt lat="43.6398" lon="3.61023">
        <ele>205</ele>
        <time>2021-04-03T10:09:07Z</time>
      </trkpt>
      <trkpt lat="43.63981" lon="3.61027">
        <ele>205</ele>
        <time>2021-04-03T10:09:09Z</time>
      </trkpt>
      <trkpt lat="43.63982" lon="3.61032">
        <ele>205</ele>
        <time>2021-04-03T10:09:11Z</time>
      </trkpt>
      <trkpt lat="43.63982" lon="3.61037">
        <ele>205</ele>
        <time>2021-04-03T10:09:13Z</time>
      </trkpt>
      <trkpt lat="43.63984" lon="3.61041">
        <ele>205</ele>
        <time>2021-04-03T10:09:15Z</time>
      </trkpt>
      <trkpt lat="43.63984" lon="3.61044">
        <ele>205</ele>
        <time>2021-04-03T10:09:16Z</time>
      </trkpt>
      <trkpt lat="43.63985" lon="3.61048">
        <ele>205</ele>
        <time>2021-04-03T10:09:18Z</time>
      </trkpt>
      <trkpt lat="43.63986" lon="3.61053">
        <ele>205</ele>
        <time>2021-04-03T10:09:20Z</time>
      </trkpt>
      <trkpt lat="43.63988" lon="3.61057">
        <ele>205</ele>
        <time>2021-04-03T10:09:22Z</time>
      </trkpt>
      <trkpt lat="43.63989" lon="3.61062">
        <ele>205</ele>
        <time>2021-04-03T10:09:24Z</time>
      </trkpt>
      <trkpt lat="43.6399" lon="3.61064">
        <ele>205</ele>
        <time>2021-04-03T10:09:25Z</time>
      </trkpt>
      <trkpt lat="43.63991" lon="3.61068">
        <ele>205</ele>
        <time>2021-04-03T10:09:27Z</time>
      </trkpt>
      <trkpt lat="43.63993" lon="3.61073">
        <ele>205</ele>
        <time>2021-04-03T10:09:29Z</time>
      </trkpt>
      <trkpt lat="43.63994" lon="3.61077">
        <ele>205</ele>
        <time>2021-04-03T10:09:31Z</time>
      </trkpt>
      <trkpt lat="43.63995" lon="3.6108">
        <ele>210</ele>
        <time>2021-04-03T10:09:32Z</time>
      </trkpt>
      <trkpt lat="43.63995" lon="3.61082">
        <ele>210</ele>
        <time>2021-04-03T10:09:33Z</time>
      </trkpt>
      <trkpt lat="43.63996" lon="3.61084">
        <ele>210</ele>
        <time>2021-04-03T10:09:34Z</time>
      </trkpt>
      <trkpt lat="43.63998" lon="3.61089">
        <ele>210</ele>
        <time>2021-04-03T10:09:36Z</time>
      </trkpt>
      <trkpt lat="43.63999" lon="3.61093">
        <ele>210</ele>
        <time>2021-04-03T10:09:38Z</time>
      </trkpt>
      <trkpt lat="43.64" lon="3.61097">
        <ele>210</ele>
        <time>2021-04-03T10:09:40Z</time>
      </trkpt>
      <trkpt lat="43.64002" lon="3.61101">
        <ele>210</ele>
        <time>2021-04-03T10:09:42Z</time>
      </trkpt>
      <trkpt lat="43.64003" lon="3.61106">
        <ele>210</ele>
        <time>2021-04-03T10:09:44Z</time>
      </trkpt>
      <trkpt lat="43.64004" lon="3.6111">
        <ele>210</ele>
        <time>2021-04-03T10:09:46Z</time>
      </trkpt>
      <trkpt lat="43.64006" lon="3.61113">
        <ele>210</ele>
        <time>2021-04-03T10:09:48Z</time>
      </trkpt>
      <trkpt lat="43.64007" lon="3.61118">
        <ele>210</ele>
        <time>2021-04-03T10:09:50Z</time>
      </trkpt>
      <trkpt lat="43.64008" lon="3.61121">
        <ele>210</ele>
        <time>2021-04-03T10:09:52Z</time>
      </trkpt>
      <trkpt lat="43.6401" lon="3.61125">
        <ele>210</ele>
        <time>2021-04-03T10:09:54Z</time>
      </trkpt>
      <trkpt lat="43.64012" lon="3.61129">
        <ele>210</ele>
        <time>2021-04-03T10:09:56Z</time>
      </trkpt>
      <trkpt lat="43.64013" lon="3.61133">
        <ele>210</ele>
        <time>2021-04-03T10:09:58Z</time>
      </trkpt>
      <trkpt lat="43.64015" lon="3.61137">
        <ele>210</ele>
        <time>2021-04-03T10:10:00Z</time>
      </trkpt>
      <trkpt lat="43.64016" lon="3.61141">
        <ele>215</ele>
        <time>2021-04-03T10:10:02Z</time>
      </trkpt>
      <trkpt lat="43.64018" lon="3.61144">
        <ele>215</ele>
        <time>2021-04-03T10:10:04Z</time>
      </trkpt>
      <trkpt lat="43.6402" lon="3.61148">
        <ele>215</ele>
        <time>2021-04-03T10:10:06Z</time>
      </trkpt>
      <trkpt lat="43.64021" lon="3.61152">
        <ele>215</ele>
        <time>2021-04-03T10:10:08Z</time>
      </trkpt>
      <trkpt lat="43.64023" lon="3.61155">
        <ele>215</ele>
        <time>2021-04-03T10:10:10Z</time>
      </trkpt>
      <trkpt lat="43.64025" lon="3.61159">
        <ele>215</ele>
        <time>2021-04-03T10:10:12Z</time>
      </trkpt>
      <trkpt lat="43.64027" lon="3.61162">
        <ele>215</ele>
        <time>2021-04-03T10:10:14Z</time>
      </trkpt>
      <trkpt lat="43.64029" lon="3.61166">
        <ele>215</ele>
        <time>2021-04-03T10:10:16Z</time>
      </trkpt>
      <trkpt lat="43.64031" lon="3.61169">
        <ele>215</ele>
        <time>2021-04-03T10:10:18Z</time>
      </trkpt>
      <trkpt lat="43.64033" lon="3.61172">
        <ele>215</ele>
        <time>2021-04-03T10:10:20Z</time>
      </trkpt>
      <trkpt lat="43.64034" lon="3.61176">
        <ele>215</ele>
        <time>2021-04-03T10:10:22Z</time>
      </trkpt>
      <trkpt lat="43.64036" lon="3.61179">
        <ele>215</ele>
        <time>2021-04-03T10:10:24Z</time>
      </trkpt>
      <trkpt lat="43.64038" lon="3.61182">
        <ele>215</ele>
        <time>2021-04-03T10:10:26Z</time>
      </trkpt>
      <trkpt lat="43.6404" lon="3.61186">
        <ele>215</ele>
        <time>2021-04-03T10:10:28Z</time>
      </trkpt>
      <trkpt lat="43.64041" lon="3.61188">
        <ele>215</ele>
        <time>2021-04-03T10:10:29Z</time>
      </trkpt>
      <trkpt lat="43.64044" lon="3.61192">
        <ele>215</ele>
        <time>2021-04-03T10:10:31Z</time>
      </trkpt>
      <trkpt lat="43.64046" lon="3.61195">
        <ele>215</ele>
        <time>2021-04-03T10:10:33Z</time>
      </trkpt>
      <trkpt lat="43.64048" lon="3.61198">
        <ele>215</ele>
        <time>2021-04-03T10:10:35Z</time>
      </trkpt>
      <trkpt lat="43.6405" lon="3.61201">
        <ele>215</ele>
        <time>2021-04-03T10:10:37Z</time>
      </trkpt>
      <trkpt lat="43.64052" lon="3.61205">
        <ele>215</ele>
        <time>2021-04-03T10:10:39Z</time>
      </trkpt>
      <trkpt lat="43.64054" lon="3.61208">
        <ele>215</ele>
        <time>2021-04-03T10:10:41Z</time>
      </trkpt>
      <trkpt lat="43.64055" lon="3.61212">
        <ele>215</ele>
        <time>2021-04-03T10:10:43Z</time>
      </trkpt>
      <trkpt lat="43.64057" lon="3.61215">
        <ele>215</ele>
        <time>2021-04-03T10:10:45Z</time>
      </trkpt>
      <trkpt lat="43.64059" lon="3.61219">
        <ele>215</ele>
        <time>2021-04-03T10:10:47Z</time>
      </trkpt>
      <trkpt lat="43.6406" lon="3.61222">
        <ele>215</ele>
        <time>2021-04-03T10:10:49Z</time>
      </trkpt>
      <trkpt lat="43.64062" lon="3.61226">
        <ele>215</ele>
        <time>2021-04-03T10:10:51Z</time>
      </trkpt>
      <trkpt lat="43.64063" lon="3.6123">
        <ele>215</ele>
        <time>2021-04-03T10:10:53Z</time>
      </trkpt>
      <trkpt lat="43.64065" lon="3.61234">
        <ele>215</ele>
        <time>2021-04-03T10:10:55Z</time>
      </trkpt>
      <trkpt lat="43.64066" lon="3.61238">
        <ele>215</ele>
        <time>2021-04-03T10:10:57Z</time>
      </trkpt>
      <trkpt lat="43.64067" lon="3.61242">
        <ele>215</ele>
        <time>2021-04-03T10:10:59Z</time>
      </trkpt>
      <trkpt lat="43.64068" lon="3.61246">
        <ele>224</ele>
        <time>2021-04-03T10:11:01Z</time>
      </trkpt>
      <trkpt lat="43.6407" lon="3.6125">
        <ele>224</ele>
        <time>2021-04-03T10:11:03Z</time>
      </trkpt>
      <trkpt lat="43.64071" lon="3.61254">
        <ele>224</ele>
        <time>2021-04-03T10:11:05Z</time>
      </trkpt>
      <trkpt lat="43.64071" lon="3.61258">
        <ele>224</ele>
        <time>2021-04-03T10:11:07Z</time>
      </trkpt>
      <trkpt lat="43.64072" lon="3.61263">
        <ele>224</ele>
        <time>2021-04-03T10:11:09Z</time>
      </trkpt>
      <trkpt lat="43.64073" lon="3.61265">
        <ele>224</ele>
        <time>2021-04-03T10:11:10Z</time>
      </trkpt>
      <trkpt lat="43.64073" lon="3.61268">
        <ele>225</ele>
        <time>2021-04-03T10:11:11Z</time>
      </trkpt>
      <trkpt lat="43.64073" lon="3.61271">
        <ele>225</ele>
        <time>2021-04-03T10:11:12Z</time>
      </trkpt>
      <trkpt lat="43.64073" lon="3.61274">
        <ele>225</ele>
        <time>2021-04-03T10:11:13Z</time>
      </trkpt>
      <trkpt lat="43.64073" lon="3.61276">
        <ele>225</ele>
        <time>2021-04-03T10:11:14Z</time>
      </trkpt>
      <trkpt lat="43.64073" lon="3.61279">
        <ele>225</ele>
        <time>2021-04-03T10:11:15Z</time>
      </trkpt>
      <trkpt lat="43.64073" lon="3.61284">
        <ele>225</ele>
        <time>2021-04-03T10:11:17Z</time>
      </trkpt>
      <trkpt lat="43.64073" lon="3.61289">
        <ele>225</ele>
        <time>2021-04-03T10:11:19Z</time>
      </trkpt>
      <trkpt lat="43.64073" lon="3.61291">
        <ele>226</ele>
        <time>2021-04-03T10:11:21Z</time>
      </trkpt>
      <trkpt lat="43.64072" lon="3.61296">
        <ele>226</ele>
        <time>2021-04-03T10:11:22Z</time>
      </trkpt>
      <trkpt lat="43.64072" lon="3.61301">
        <ele>226</ele>
        <time>2021-04-03T10:11:24Z</time>
      </trkpt>
      <trkpt lat="43.64071" lon="3.61306">
        <ele>226</ele>
        <time>2021-04-03T10:11:26Z</time>
      </trkpt>
      <trkpt lat="43.64071" lon="3.6131">
        <ele>226</ele>
        <time>2021-04-03T10:11:28Z</time>
      </trkpt>
      <trkpt lat="43.6407" lon="3.61315">
        <ele>226</ele>
        <time>2021-04-03T10:11:30Z</time>
      </trkpt>
      <trkpt lat="43.64069" lon="3.61319">
        <ele>228</ele>
        <time>2021-04-03T10:11:32Z</time>
      </trkpt>
      <trkpt lat="43.64068" lon="3.61324">
        <ele>228</ele>
        <time>2021-04-03T10:11:34Z</time>
      </trkpt>
      <trkpt lat="43.64068" lon="3.61328">
        <ele>228</ele>
        <time>2021-04-03T10:11:36Z</time>
      </trkpt>
      <trkpt lat="43.64067" lon="3.61332">
        <ele>228</ele>
        <time>2021-04-03T10:11:38Z</time>
      </trkpt>
      <trkpt lat="43.64065" lon="3.61336">
        <ele>228</ele>
        <time>2021-04-03T10:11:40Z</time>
      </trkpt>
      <trkpt lat="43.64064" lon="3.6134">
        <ele>228</ele>
        <time>2021-04-03T10:11:42Z</time>
      </trkpt>
      <trkpt lat="43.64063" lon="3.61344">
        <ele>228</ele>
        <time>2021-04-03T10:11:44Z</time>
      </trkpt>
      <trkpt lat="43.64062" lon="3.61348">
        <ele>228</ele>
        <time>2021-04-03T10:11:46Z</time>
      </trkpt>
      <trkpt lat="43.64061" lon="3.61352">
        <ele>228</ele>
        <time>2021-04-03T10:11:48Z</time>
      </trkpt>
      <trkpt lat="43.6406" lon="3.61356">
        <ele>228</ele>
        <time>2021-04-03T10:11:50Z</time>
      </trkpt>
      <trkpt lat="43.64058" lon="3.6136">
        <ele>228</ele>
        <time>2021-04-03T10:11:52Z</time>
      </trkpt>
      <trkpt lat="43.64057" lon="3.61364">
        <ele>228</ele>
        <time>2021-04-03T10:11:54Z</time>
      </trkpt>
      <trkpt lat="43.64056" lon="3.61368">
        <ele>228</ele>
        <time>2021-04-03T10:11:56Z</time>
      </trkpt>
      <trkpt lat="43.64055" lon="3.61373">
        <ele>228</ele>
        <time>2021-04-03T10:11:58Z</time>
      </trkpt>
      <trkpt lat="43.64054" lon="3.61377">
        <ele>228</ele>
        <time>2021-04-03T10:12:00Z</time>
      </trkpt>
      <trkpt lat="43.64054" lon="3.61379">
        <ele>228</ele>
        <time>2021-04-03T10:12:01Z</time>
      </trkpt>
      <trkpt lat="43.64053" lon="3.61382">
        <ele>233</ele>
        <time>2021-04-03T10:12:02Z</time>
      </trkpt>
      <trkpt lat="43.64053" lon="3.61384">
        <ele>233</ele>
        <time>2021-04-03T10:12:03Z</time>
      </trkpt>
      <trkpt lat="43.64052" lon="3.61389">
        <ele>233</ele>
        <time>2021-04-03T10:12:05Z</time>
      </trkpt>
      <trkpt lat="43.64052" lon="3.61392">
        <ele>233</ele>
        <time>2021-04-03T10:12:07Z</time>
      </trkpt>
      <trkpt lat="43.64051" lon="3.61396">
        <ele>233</ele>
        <time>2021-04-03T10:12:09Z</time>
      </trkpt>
      <trkpt lat="43.64049" lon="3.61399">
        <ele>235</ele>
        <time>2021-04-03T10:12:11Z</time>
      </trkpt>
      <trkpt lat="43.64048" lon="3.61402">
        <ele>235</ele>
        <time>2021-04-03T10:12:13Z</time>
      </trkpt>
      <trkpt lat="43.64046" lon="3.61405">
        <ele>235</ele>
        <time>2021-04-03T10:12:15Z</time>
      </trkpt>
      <trkpt lat="43.64043" lon="3.61406">
        <ele>235</ele>
        <time>2021-04-03T10:12:17Z</time>
      </trkpt>
      <trkpt lat="43.64041" lon="3.61405">
        <ele>235</ele>
        <time>2021-04-03T10:12:19Z</time>
      </trkpt>
      <trkpt lat="43.64038" lon="3.61403">
        <ele>235</ele>
        <time>2021-04-03T10:12:21Z</time>
      </trkpt>
      <trkpt lat="43.64036" lon="3.614">
        <ele>235</ele>
        <time>2021-04-03T10:12:23Z</time>
      </trkpt>
      <trkpt lat="43.64035" lon="3.61396">
        <ele>235</ele>
        <time>2021-04-03T10:12:25Z</time>
      </trkpt>
      <trkpt lat="43.64035" lon="3.61392">
        <ele>235</ele>
        <time>2021-04-03T10:12:27Z</time>
      </trkpt>
      <trkpt lat="43.64034" lon="3.61387">
        <ele>235</ele>
        <time>2021-04-03T10:12:29Z</time>
      </trkpt>
      <trkpt lat="43.64034" lon="3.61382">
        <ele>235</ele>
        <time>2021-04-03T10:12:31Z</time>
      </trkpt>
      <trkpt lat="43.64033" lon="3.61378">
        <ele>235</ele>
        <time>2021-04-03T10:12:33Z</time>
      </trkpt>
      <trkpt lat="43.64032" lon="3.61373">
        <ele>235</ele>
        <time>2021-04-03T10:12:35Z</time>
      </trkpt>
      <trkpt lat="43.64031" lon="3.61369">
        <ele>235</ele>
        <time>2021-04-03T10:12:37Z</time>
      </trkpt>
      <trkpt lat="43.6403" lon="3.61365">
        <ele>235</ele>
        <time>2021-04-03T10:12:39Z</time>
      </trkpt>
      <trkpt lat="43.64029" lon="3.61361">
        <ele>239</ele>
        <time>2021-04-03T10:12:41Z</time>
      </trkpt>
      <trkpt lat="43.64027" lon="3.61357">
        <ele>239</ele>
        <time>2021-04-03T10:12:43Z</time>
      </trkpt>
      <trkpt lat="43.64026" lon="3.61352">
        <ele>239</ele>
        <time>2021-04-03T10:12:45Z</time>
      </trkpt>
      <trkpt lat="43.64024" lon="3.61348">
        <ele>239</ele>
        <time>2021-04-03T10:12:47Z</time>
      </trkpt>
      <trkpt lat="43.64023" lon="3.61344">
        <ele>239</ele>
        <time>2021-04-03T10:12:49Z</time>
      </trkpt>
      <trkpt lat="43.64021" lon="3.61342">
        <ele>239</ele>
        <time>2021-04-03T10:12:50Z</time>
      </trkpt>
      <trkpt lat="43.64019" lon="3.61339">
        <ele>239</ele>
        <time>2021-04-03T10:12:52Z</time>
      </trkpt>
      <trkpt lat="43.64017" lon="3.61336">
        <ele>239</ele>
        <time>2021-04-03T10:12:54Z</time>
      </trkpt>
      <trkpt lat="43.64013" lon="3.61334">
        <ele>239</ele>
        <time>2021-04-03T10:12:56Z</time>
      </trkpt>
      <trkpt lat="43.6401" lon="3.61332">
        <ele>239</ele>
        <time>2021-04-03T10:12:58Z</time>
      </trkpt>
      <trkpt lat="43.64007" lon="3.61332">
        <ele>239</ele>
        <time>2021-04-03T10:13:00Z</time>
      </trkpt>
      <trkpt lat="43.64004" lon="3.61332">
        <ele>239</ele>
        <time>2021-04-03T10:13:02Z</time>
      </trkpt>
      <trkpt lat="43.64002" lon="3.61332">
        <ele>239</ele>
        <time>2021-04-03T10:13:03Z</time>
      </trkpt>
      <trkpt lat="43.64" lon="3.61332">
        <ele>239</ele>
        <time>2021-04-03T10:13:04Z</time>
      </trkpt>
      <trkpt lat="43.63998" lon="3.61333">
        <ele>239</ele>
        <time>2021-04-03T10:13:05Z</time>
      </trkpt>
      <trkpt lat="43.63996" lon="3.61334">
        <ele>239</ele>
        <time>2021-04-03T10:13:06Z</time>
      </trkpt>
      <trkpt lat="43.63995" lon="3.61335">
        <ele>239</ele>
        <time>2021-04-03T10:13:07Z</time>
      </trkpt>
      <trkpt lat="43.63991" lon="3.61337">
        <ele>239</ele>
        <time>2021-04-03T10:13:09Z</time>
      </trkpt>
      <trkpt lat="43.63988" lon="3.6134">
        <ele>239</ele>
        <time>2021-04-03T10:13:11Z</time>
      </trkpt>
      <trkpt lat="43.63986" lon="3.61343">
        <ele>239</ele>
        <time>2021-04-03T10:13:13Z</time>
      </trkpt>
      <trkpt lat="43.63983" lon="3.61346">
        <ele>239</ele>
        <time>2021-04-03T10:13:15Z</time>
      </trkpt>
      <trkpt lat="43.63981" lon="3.6135">
        <ele>239</ele>
        <time>2021-04-03T10:13:17Z</time>
      </trkpt>
      <trkpt lat="43.63978" lon="3.61353">
        <ele>239</ele>
        <time>2021-04-03T10:13:19Z</time>
      </trkpt>
      <trkpt lat="43.63976" lon="3.61357">
        <ele>244</ele>
        <time>2021-04-03T10:13:21Z</time>
      </trkpt>
      <trkpt lat="43.63974" lon="3.61361">
        <ele>244</ele>
        <time>2021-04-03T10:13:23Z</time>
      </trkpt>
      <trkpt lat="43.63972" lon="3.61365">
        <ele>244</ele>
        <time>2021-04-03T10:13:25Z</time>
      </trkpt>
      <trkpt lat="43.6397" lon="3.61369">
        <ele>244</ele>
        <time>2021-04-03T10:13:27Z</time>
      </trkpt>
      <trkpt lat="43.63968" lon="3.61373">
        <ele>244</ele>
        <time>2021-04-03T10:13:29Z</time>
      </trkpt>
      <trkpt lat="43.63967" lon="3.61375">
        <ele>244</ele>
        <time>2021-04-03T10:13:30Z</time>
      </trkpt>
      <trkpt lat="43.63966" lon="3.61377">
        <ele>244</ele>
        <time>2021-04-03T10:13:31Z</time>
      </trkpt>
      <trkpt lat="43.63965" lon="3.61379">
        <ele>246</ele>
        <time>2021-04-03T10:13:32Z</time>
      </trkpt>
      <trkpt lat="43.63964" lon="3.61382">
        <ele>246</ele>
        <time>2021-04-03T10:13:33Z</time>
      </trkpt>
      <trkpt lat="43.63963" lon="3.61384">
        <ele>246</ele>
        <time>2021-04-03T10:13:34Z</time>
      </trkpt>
      <trkpt lat="43.63962" lon="3.61387">
        <ele>246</ele>
        <time>2021-04-03T10:13:35Z</time>
      </trkpt>
      <trkpt lat="43.63962" lon="3.61389">
        <ele>246</ele>
        <time>2021-04-03T10:13:36Z</time>
      </trkpt>
      <trkpt lat="43.63961" lon="3.61392">
        <ele>246</ele>
        <time>2021-04-03T10:13:37Z</time>
      </trkpt>
      <trkpt lat="43.6396" lon="3.61394">
        <ele>246</ele>
        <time>2021-04-03T10:13:38Z</time>
      </trkpt>
      <trkpt lat="43.6396" lon="3.61397">
        <ele>246</ele>
        <time>2021-04-03T10:13:39Z</time>
      </trkpt>
      <trkpt lat="43.63959" lon="3.61399">
        <ele>246</ele>
        <time>2021-04-03T10:13:40Z</time>
      </trkpt>
      <trkpt lat="43.63958" lon="3.61404">
        <ele>246</ele>
        <time>2021-04-03T10:13:42Z</time>
      </trkpt>
      <trkpt lat="43.63958" lon="3.61408">
        <ele>246</ele>
        <time>2021-04-03T10:13:44Z</time>
      </trkpt>
      <trkpt lat="43.63957" lon="3.61413">
        <ele>246</ele>
        <time>2021-04-03T10:13:46Z</time>
      </trkpt>
      <trkpt lat="43.63956" lon="3.61417">
        <ele>246</ele>
        <time>2021-04-03T10:13:48Z</time>
      </trkpt>
      <trkpt lat="43.63956" lon="3.61422">
        <ele>246</ele>
        <time>2021-04-03T10:13:50Z</time>
      </trkpt>
      <trkpt lat="43.63955" lon="3.61426">
        <ele>246</ele>
        <time>2021-04-03T10:13:52Z</time>
      </trkpt>
      <trkpt lat="43.63955" lon="3.6143">
        <ele>246</ele>
        <time>2021-04-03T10:13:54Z</time>
      </trkpt>
      <trkpt lat="43.63955" lon="3.61434">
        <ele>246</ele>
        <time>2021-04-03T10:13:56Z</time>
      </trkpt>
      <trkpt lat="43.63955" lon="3.61439">
        <ele>246</ele>
        <time>2021-04-03T10:13:58Z</time>
      </trkpt>
      <trkpt lat="43.63955" lon="3.61443">
        <ele>246</ele>
        <time>2021-04-03T10:14:00Z</time>
      </trkpt>
      <trkpt lat="43.63955" lon="3.61447">
        <ele>246</ele>
        <time>2021-04-03T10:14:02Z</time>
      </trkpt>
      <trkpt lat="43.63955" lon="3.61451">
        <ele>246</ele>
        <time>2021-04-03T10:14:04Z</time>
      </trkpt>
      <trkpt lat="43.63955" lon="3.61456">
        <ele>246</ele>
        <time>2021-04-03T10:14:06Z</time>
      </trkpt>
      <trkpt lat="43.63956" lon="3.6146">
        <ele>246</ele>
        <time>2021-04-03T10:14:08Z</time>
      </trkpt>
      <trkpt lat="43.63956" lon="3.61465">
        <ele>246</ele>
        <time>2021-04-03T10:14:10Z</time>
      </trkpt>
      <trkpt lat="43.63957" lon="3.61469">
        <ele>246</ele>
        <time>2021-04-03T10:14:12Z</time>
      </trkpt>
      <trkpt lat="43.63957" lon="3.61474">
        <ele>246</ele>
        <time>2021-04-03T10:14:14Z</time>
      </trkpt>
      <trkpt lat="43.63957" lon="3.61478">
        <ele>246</ele>
        <time>2021-04-03T10:14:16Z</time>
      </trkpt>
      <trkpt lat="43.63957" lon="3.61483">
        <ele>246</ele>
        <time>2021-04-03T10:14:18Z</time>
      </trkpt>
      <trkpt lat="43.63957" lon="3.61487">
        <ele>246</ele>
        <time>2021-04-03T10:14:20Z</time>
      </trkpt>
      <trkpt lat="43.63957" lon="3.61492">
        <ele>253</ele>
        <time>2021-04-03T10:14:22Z</time>
      </trkpt>
      <trkpt lat="43.63957" lon="3.61497">
        <ele>253</ele>
        <time>2021-04-03T10:14:24Z</time>
      </trkpt>
      <trkpt lat="43.63957" lon="3.61502">
        <ele>253</ele>
        <time>2021-04-03T10:14:26Z</time>
      </trkpt>
      <trkpt lat="43.63958" lon="3.61506">
        <ele>253</ele>
        <time>2021-04-03T10:14:28Z</time>
      </trkpt>
      <trkpt lat="43.63958" lon="3.61511">
        <ele>253</ele>
        <time>2021-04-03T10:14:30Z</time>
      </trkpt>
      <trkpt lat="43.63959" lon="3.61516">
        <ele>253</ele>
        <time>2021-04-03T10:14:32Z</time>
      </trkpt>
      <trkpt lat="43.63959" lon="3.61518">
        <ele>253</ele>
        <time>2021-04-03T10:14:33Z</time>
      </trkpt>
      <trkpt lat="43.6396" lon="3.61523">
        <ele>253</ele>
        <time>2021-04-03T10:14:35Z</time>
      </trkpt>
      <trkpt lat="43.63961" lon="3.61525">
        <ele>253</ele>
        <time>2021-04-03T10:14:36Z</time>
      </trkpt>
      <trkpt lat="43.63962" lon="3.61529">
        <ele>253</ele>
        <time>2021-04-03T10:14:38Z</time>
      </trkpt>
      <trkpt lat="43.63963" lon="3.61534">
        <ele>253</ele>
        <time>2021-04-03T10:14:40Z</time>
      </trkpt>
      <trkpt lat="43.63965" lon="3.61538">
        <ele>253</ele>
        <time>2021-04-03T10:14:42Z</time>
      </trkpt>
      <trkpt lat="43.63966" lon="3.61543">
        <ele>253</ele>
        <time>2021-04-03T10:14:44Z</time>
      </trkpt>
      <trkpt lat="43.63968" lon="3.61547">
        <ele>253</ele>
        <time>2021-04-03T10:14:46Z</time>
      </trkpt>
      <trkpt lat="43.6397" lon="3.61551">
        <ele>253</ele>
        <time>2021-04-03T10:14:48Z</time>
      </trkpt>
      <trkpt lat="43.63971" lon="3.61553">
        <ele>253</ele>
        <time>2021-04-03T10:14:49Z</time>
      </trkpt>
      <trkpt lat="43.63972" lon="3.61555">
        <ele>253</ele>
        <time>2021-04-03T10:14:50Z</time>
      </trkpt>
      <trkpt lat="43.63973" lon="3.61557">
        <ele>253</ele>
        <time>2021-04-03T10:14:51Z</time>
      </trkpt>
      <trkpt lat="43.63975" lon="3.61562">
        <ele>253</ele>
        <time>2021-04-03T10:14:53Z</time>
      </trkpt>
      <trkpt lat="43.63977" lon="3.61564">
        <ele>253</ele>
        <time>2021-04-03T10:14:54Z</time>
      </trkpt>
      <trkpt lat="43.63978" lon="3.61566">
        <ele>253</ele>
        <time>2021-04-03T10:14:55Z</time>
      </trkpt>
      <trkpt lat="43.63979" lon="3.61568">
        <ele>253</ele>
        <time>2021-04-03T10:14:56Z</time>
      </trkpt>
      <trkpt lat="43.6398" lon="3.6157">
        <ele>253</ele>
        <time>2021-04-03T10:14:57Z</time>
      </trkpt>
      <trkpt lat="43.63981" lon="3.61572">
        <ele>253</ele>
        <time>2021-04-03T10:14:58Z</time>
      </trkpt>
      <trkpt lat="43.63982" lon="3.61574">
        <ele>253</ele>
        <time>2021-04-03T10:14:59Z</time>
      </trkpt>
      <trkpt lat="43.63983" lon="3.61577">
        <ele>253</ele>
        <time>2021-04-03T10:15:00Z</time>
      </trkpt>
      <trkpt lat="43.63984" lon="3.61579">
        <ele>256</ele>
        <time>2021-04-03T10:15:01Z</time>
      </trkpt>
      <trkpt lat="43.63985" lon="3.61581">
        <ele>256</ele>
        <time>2021-04-03T10:15:02Z</time>
      </trkpt>
      <trkpt lat="43.63986" lon="3.61583">
        <ele>256</ele>
        <time>2021-04-03T10:15:03Z</time>
      </trkpt>
      <trkpt lat="43.63987" lon="3.61586">
        <ele>256</ele>
        <time>2021-04-03T10:15:04Z</time>
      </trkpt>
      <trkpt lat="43.63989" lon="3.6159">
        <ele>256</ele>
        <time>2021-04-03T10:15:06Z</time>
      </trkpt>
      <trkpt lat="43.6399" lon="3.61594">
        <ele>256</ele>
        <time>2021-04-03T10:15:08Z</time>
      </trkpt>
      <trkpt lat="43.63992" lon="3.61598">
        <ele>256</ele>
        <time>2021-04-03T10:15:10Z</time>
      </trkpt>
      <trkpt lat="43.63994" lon="3.61602">
        <ele>256</ele>
        <time>2021-04-03T10:15:12Z</time>
      </trkpt>
      <trkpt lat="43.63996" lon="3.61606">
        <ele>256</ele>
        <time>2021-04-03T10:15:14Z</time>
      </trkpt>
      <trkpt lat="43.63997" lon="3.6161">
        <ele>256</ele>
        <time>2021-04-03T10:15:16Z</time>
      </trkpt>
      <trkpt lat="43.63999" lon="3.61613">
        <ele>256</ele>
        <time>2021-04-03T10:15:18Z</time>
      </trkpt>
      <trkpt lat="43.64001" lon="3.61617">
        <ele>256</ele>
        <time>2021-04-03T10:15:20Z</time>
      </trkpt>
      <trkpt lat="43.64003" lon="3.6162">
        <ele>259</ele>
        <time>2021-04-03T10:15:22Z</time>
      </trkpt>
      <trkpt lat="43.64005" lon="3.61624">
        <ele>259</ele>
        <time>2021-04-03T10:15:24Z</time>
      </trkpt>
      <trkpt lat="43.64007" lon="3.61628">
        <ele>259</ele>
        <time>2021-04-03T10:15:26Z</time>
      </trkpt>
      <trkpt lat="43.64008" lon="3.6163">
        <ele>259</ele>
        <time>2021-04-03T10:15:27Z</time>
      </trkpt>
      <trkpt lat="43.64009" lon="3.61632">
        <ele>259</ele>
        <time>2021-04-03T10:15:28Z</time>
      </trkpt>
      <trkpt lat="43.64011" lon="3.61634">
        <ele>259</ele>
        <time>2021-04-03T10:15:29Z</time>
      </trkpt>
      <trkpt lat="43.64012" lon="3.61636">
        <ele>259</ele>
        <time>2021-04-03T10:15:30Z</time>
      </trkpt>
      <trkpt lat="43.64013" lon="3.61638">
        <ele>260</ele>
        <time>2021-04-03T10:15:31Z</time>
      </trkpt>
      <trkpt lat="43.64014" lon="3.6164">
        <ele>260</ele>
        <time>2021-04-03T10:15:32Z</time>
      </trkpt>
      <trkpt lat="43.64015" lon="3.61642">
        <ele>260</ele>
        <time>2021-04-03T10:15:33Z</time>
      </trkpt>
      <trkpt lat="43.64016" lon="3.61644">
        <ele>260</ele>
        <time>2021-04-03T10:15:34Z</time>
      </trkpt>
      <trkpt lat="43.64018" lon="3.61648">
        <ele>260</ele>
        <time>2021-04-03T10:15:36Z</time>
      </trkpt>
      <trkpt lat="43.64018" lon="3.61651">
        <ele>260</ele>
        <time>2021-04-03T10:15:37Z</time>
      </trkpt>
      <trkpt lat="43.64019" lon="3.61653">
        <ele>260</ele>
        <time>2021-04-03T10:15:38Z</time>
      </trkpt>
      <trkpt lat="43.6402" lon="3.61655">
        <ele>260</ele>
        <time>2021-04-03T10:15:39Z</time>
      </trkpt>
      <trkpt lat="43.64021" lon="3.61658">
        <ele>260</ele>
        <time>2021-04-03T10:15:40Z</time>
      </trkpt>
      <trkpt lat="43.64021" lon="3.61661">
        <ele>260</ele>
        <time>2021-04-03T10:15:41Z</time>
      </trkpt>
      <trkpt lat="43.64022" lon="3.61664">
        <ele>261</ele>
        <time>2021-04-03T10:15:42Z</time>
      </trkpt>
      <trkpt lat="43.64023" lon="3.61666">
        <ele>261</ele>
        <time>2021-04-03T10:15:43Z</time>
      </trkpt>
      <trkpt lat="43.64023" lon="3.61669">
        <ele>261</ele>
        <time>2021-04-03T10:15:44Z</time>
      </trkpt>
      <trkpt lat="43.64024" lon="3.61672">
        <ele>261</ele>
        <time>2021-04-03T10:15:45Z</time>
      </trkpt>
      <trkpt lat="43.64024" lon="3.61676">
        <ele>261</ele>
        <time>2021-04-03T10:15:46Z</time>
      </trkpt>
      <trkpt lat="43.64025" lon="3.61679">
        <ele>261</ele>
        <time>2021-04-03T10:15:47Z</time>
      </trkpt>
      <trkpt lat="43.64026" lon="3.61682">
        <ele>261</ele>
        <time>2021-04-03T10:15:48Z</time>
      </trkpt>
      <trkpt lat="43.64026" lon="3.61685">
        <ele>261</ele>
        <time>2021-04-03T10:15:49Z</time>
      </trkpt>
      <trkpt lat="43.64027" lon="3.61688">
        <ele>261</ele>
        <time>2021-04-03T10:15:50Z</time>
      </trkpt>
      <trkpt lat="43.64028" lon="3.61691">
        <ele>262</ele>
        <time>2021-04-03T10:15:51Z</time>
      </trkpt>
      <trkpt lat="43.64028" lon="3.61694">
        <ele>262</ele>
        <time>2021-04-03T10:15:52Z</time>
      </trkpt>
      <trkpt lat="43.64029" lon="3.61698">
        <ele>262</ele>
        <time>2021-04-03T10:15:53Z</time>
      </trkpt>
      <trkpt lat="43.6403" lon="3.61701">
        <ele>262</ele>
        <time>2021-04-03T10:15:54Z</time>
      </trkpt>
      <trkpt lat="43.64031" lon="3.61704">
        <ele>262</ele>
        <time>2021-04-03T10:15:55Z</time>
      </trkpt>
      <trkpt lat="43.64032" lon="3.61708">
        <ele>262</ele>
        <time>2021-04-03T10:15:56Z</time>
      </trkpt>
      <trkpt lat="43.64033" lon="3.61711">
        <ele>262</ele>
        <time>2021-04-03T10:15:57Z</time>
      </trkpt>
      <trkpt lat="43.64034" lon="3.61714">
        <ele>262</ele>
        <time>2021-04-03T10:15:58Z</time>
      </trkpt>
      <trkpt lat="43.64035" lon="3.61717">
        <ele>262</ele>
        <time>2021-04-03T10:15:59Z</time>
      </trkpt>
      <trkpt lat="43.64036" lon="3.61721">
        <ele>262</ele>
        <time>2021-04-03T10:16:00Z</time>
      </trkpt>
      <trkpt lat="43.64037" lon="3.61724">
        <ele>262</ele>
        <time>2021-04-03T10:16:01Z</time>
      </trkpt>
      <trkpt lat="43.64038" lon="3.61727">
        <ele>262</ele>
        <time>2021-04-03T10:16:02Z</time>
      </trkpt>
      <trkpt lat="43.64039" lon="3.6173">
        <ele>262</ele>
        <time>2021-04-03T10:16:03Z</time>
      </trkpt>
      <trkpt lat="43.6404" lon="3.61733">
        <ele>262</ele>
        <time>2021-04-03T10:16:04Z</time>
      </trkpt>
      <trkpt lat="43.64041" lon="3.61736">
        <ele>262</ele>
        <time>2021-04-03T10:16:05Z</time>
      </trkpt>
      <trkpt lat="43.64042" lon="3.61739">
        <ele>262</ele>
        <time>2021-04-03T10:16:06Z</time>
      </trkpt>
      <trkpt lat="43.64043" lon="3.61742">
        <ele>262</ele>
        <time>2021-04-03T10:16:07Z</time>
      </trkpt>
      <trkpt lat="43.64044" lon="3.61746">
        <ele>262</ele>
        <time>2021-04-03T10:16:08Z</time>
      </trkpt>
      <trkpt lat="43.64045" lon="3.61749">
        <ele>262</ele>
        <time>2021-04-03T10:16:09Z</time>
      </trkpt>
      <trkpt lat="43.64046" lon="3.61752">
        <ele>262</ele>
        <time>2021-04-03T10:16:10Z</time>
      </trkpt>
      <trkpt lat="43.64046" lon="3.61754">
        <ele>263</ele>
        <time>2021-04-03T10:16:11Z</time>
      </trkpt>
      <trkpt lat="43.64047" lon="3.61757">
        <ele>263</ele>
        <time>2021-04-03T10:16:12Z</time>
      </trkpt>
      <trkpt lat="43.64048" lon="3.6176">
        <ele>263</ele>
        <time>2021-04-03T10:16:13Z</time>
      </trkpt>
      <trkpt lat="43.64049" lon="3.61762">
        <ele>263</ele>
        <time>2021-04-03T10:16:14Z</time>
      </trkpt>
      <trkpt lat="43.64049" lon="3.61765">
        <ele>263</ele>
        <time>2021-04-03T10:16:15Z</time>
      </trkpt>
      <trkpt lat="43.6405" lon="3.61767">
        <ele>263</ele>
        <time>2021-04-03T10:16:16Z</time>
      </trkpt>
      <trkpt lat="43.6405" lon="3.6177">
        <ele>263</ele>
        <time>2021-04-03T10:16:17Z</time>
      </trkpt>
      <trkpt lat="43.64051" lon="3.61772">
        <ele>263</ele>
        <time>2021-04-03T10:16:18Z</time>
      </trkpt>
      <trkpt lat="43.64051" lon="3.61777">
        <ele>263</ele>
        <time>2021-04-03T10:16:20Z</time>
      </trkpt>
      <trkpt lat="43.64052" lon="3.6178">
        <ele>264</ele>
        <time>2021-04-03T10:16:21Z</time>
      </trkpt>
      <trkpt lat="43.64052" lon="3.61782">
        <ele>264</ele>
        <time>2021-04-03T10:16:22Z</time>
      </trkpt>
      <trkpt lat="43.64052" lon="3.61785">
        <ele>264</ele>
        <time>2021-04-03T10:16:23Z</time>
      </trkpt>
      <trkpt lat="43.64053" lon="3.61789">
        <ele>264</ele>
        <time>2021-04-03T10:16:25Z</time>
      </trkpt>
      <trkpt lat="43.64054" lon="3.61794">
        <ele>264</ele>
        <time>2021-04-03T10:16:27Z</time>
      </trkpt>
      <trkpt lat="43.64054" lon="3.61797">
        <ele>264</ele>
        <time>2021-04-03T10:16:28Z</time>
      </trkpt>
      <trkpt lat="43.64054" lon="3.61799">
        <ele>264</ele>
        <time>2021-04-03T10:16:29Z</time>
      </trkpt>
      <trkpt lat="43.64055" lon="3.61804">
        <ele>264</ele>
        <time>2021-04-03T10:16:31Z</time>
      </trkpt>
      <trkpt lat="43.64056" lon="3.61806">
        <ele>265</ele>
        <time>2021-04-03T10:16:32Z</time>
      </trkpt>
      <trkpt lat="43.64057" lon="3.61809">
        <ele>265</ele>
        <time>2021-04-03T10:16:33Z</time>
      </trkpt>
      <trkpt lat="43.64057" lon="3.61812">
        <ele>265</ele>
        <time>2021-04-03T10:16:34Z</time>
      </trkpt>
      <trkpt lat="43.64058" lon="3.61815">
        <ele>265</ele>
        <time>2021-04-03T10:16:35Z</time>
      </trkpt>
      <trkpt lat="43.64058" lon="3.61817">
        <ele>265</ele>
        <time>2021-04-03T10:16:36Z</time>
      </trkpt>
      <trkpt lat="43.64059" lon="3.6182">
        <ele>265</ele>
        <time>2021-04-03T10:16:37Z</time>
      </trkpt>
      <trkpt lat="43.64059" lon="3.61823">
        <ele>265</ele>
        <time>2021-04-03T10:16:38Z</time>
      </trkpt>
      <trkpt lat="43.6406" lon="3.61825">
        <ele>265</ele>
        <time>2021-04-03T10:16:39Z</time>
      </trkpt>
      <trkpt lat="43.64061" lon="3.61828">
        <ele>265</ele>
        <time>2021-04-03T10:16:40Z</time>
      </trkpt>
      <trkpt lat="43.64062" lon="3.61831">
        <ele>267</ele>
        <time>2021-04-03T10:16:41Z</time>
      </trkpt>
      <trkpt lat="43.64062" lon="3.61834">
        <ele>267</ele>
        <time>2021-04-03T10:16:42Z</time>
      </trkpt>
      <trkpt lat="43.64063" lon="3.61837">
        <ele>267</ele>
        <time>2021-04-03T10:16:43Z</time>
      </trkpt>
      <trkpt lat="43.64064" lon="3.61839">
        <ele>267</ele>
        <time>2021-04-03T10:16:44Z</time>
      </trkpt>
      <trkpt lat="43.64065" lon="3.61842">
        <ele>267</ele>
        <time>2021-04-03T10:16:45Z</time>
      </trkpt>
      <trkpt lat="43.64066" lon="3.61845">
        <ele>267</ele>
        <time>2021-04-03T10:16:46Z</time>
      </trkpt>
      <trkpt lat="43.64067" lon="3.61847">
        <ele>267</ele>
        <time>2021-04-03T10:16:47Z</time>
      </trkpt>
      <trkpt lat="43.64069" lon="3.6185">
        <ele>267</ele>
        <time>2021-04-03T10:16:48Z</time>
      </trkpt>
      <trkpt lat="43.6407" lon="3.61853">
        <ele>267</ele>
        <time>2021-04-03T10:16:49Z</time>
      </trkpt>
      <trkpt lat="43.64071" lon="3.61856">
        <ele>267</ele>
        <time>2021-04-03T10:16:50Z</time>
      </trkpt>
      <trkpt lat="43.64072" lon="3.61858">
        <ele>267</ele>
        <time>2021-04-03T10:16:51Z</time>
      </trkpt>
      <trkpt lat="43.64073" lon="3.61861">
        <ele>268</ele>
        <time>2021-04-03T10:16:52Z</time>
      </trkpt>
      <trkpt lat="43.64075" lon="3.61864">
        <ele>268</ele>
        <time>2021-04-03T10:16:53Z</time>
      </trkpt>
      <trkpt lat="43.64076" lon="3.61867">
        <ele>268</ele>
        <time>2021-04-03T10:16:54Z</time>
      </trkpt>
      <trkpt lat="43.64078" lon="3.6187">
        <ele>268</ele>
        <time>2021-04-03T10:16:55Z</time>
      </trkpt>
      <trkpt lat="43.6408" lon="3.61872">
        <ele>268</ele>
        <time>2021-04-03T10:16:56Z</time>
      </trkpt>
      <trkpt lat="43.64082" lon="3.61875">
        <ele>268</ele>
        <time>2021-04-03T10:16:57Z</time>
      </trkpt>
      <trkpt lat="43.64084" lon="3.61878">
        <ele>268</ele>
        <time>2021-04-03T10:16:58Z</time>
      </trkpt>
      <trkpt lat="43.64085" lon="3.6188">
        <ele>268</ele>
        <time>2021-04-03T10:16:59Z</time>
      </trkpt>
      <trkpt lat="43.64087" lon="3.61883">
        <ele>268</ele>
        <time>2021-04-03T10:17:00Z</time>
      </trkpt>
      <trkpt lat="43.64089" lon="3.61886">
        <ele>268</ele>
        <time>2021-04-03T10:17:01Z</time>
      </trkpt>
      <trkpt lat="43.64091" lon="3.61888">
        <ele>269</ele>
        <time>2021-04-03T10:17:02Z</time>
      </trkpt>
      <trkpt lat="43.64093" lon="3.61891">
        <ele>269</ele>
        <time>2021-04-03T10:17:03Z</time>
      </trkpt>
      <trkpt lat="43.64095" lon="3.61893">
        <ele>269</ele>
        <time>2021-04-03T10:17:04Z</time>
      </trkpt>
      <trkpt lat="43.64097" lon="3.61896">
        <ele>269</ele>
        <time>2021-04-03T10:17:05Z</time>
      </trkpt>
      <trkpt lat="43.64098" lon="3.61899">
        <ele>269</ele>
        <time>2021-04-03T10:17:06Z</time>
      </trkpt>
      <trkpt lat="43.64099" lon="3.61902">
        <ele>269</ele>
        <time>2021-04-03T10:17:07Z</time>
      </trkpt>
      <trkpt lat="43.64101" lon="3.61905">
        <ele>269</ele>
        <time>2021-04-03T10:17:08Z</time>
      </trkpt>
      <trkpt lat="43.64102" lon="3.61908">
        <ele>269</ele>
        <time>2021-04-03T10:17:09Z</time>
      </trkpt>
      <trkpt lat="43.64102" lon="3.61912">
        <ele>269</ele>
        <time>2021-04-03T10:17:10Z</time>
      </trkpt>
      <trkpt lat="43.64103" lon="3.61915">
        <ele>269</ele>
        <time>2021-04-03T10:17:11Z</time>
      </trkpt>
      <trkpt lat="43.64103" lon="3.61919">
        <ele>269</ele>
        <time>2021-04-03T10:17:12Z</time>
      </trkpt>
      <trkpt lat="43.64104" lon="3.61922">
        <ele>269</ele>
        <time>2021-04-03T10:17:13Z</time>
      </trkpt>
      <trkpt lat="43.64104" lon="3.61926">
        <ele>269</ele>
        <time>2021-04-03T10:17:14Z</time>
      </trkpt>
      <trkpt lat="43.64104" lon="3.61929">
        <ele>269</ele>
        <time>2021-04-03T10:17:15Z</time>
      </trkpt>
      <trkpt lat="43.64104" lon="3.61933">
        <ele>269</ele>
        <time>2021-04-03T10:17:16Z</time>
      </trkpt>
      <trkpt lat="43.64104" lon="3.61936">
        <ele>269</ele>
        <time>2021-04-03T10:17:17Z</time>
      </trkpt>
      <trkpt lat="43.64103" lon="3.6194">
        <ele>269</ele>
        <time>2021-04-03T10:17:18Z</time>
      </trkpt>
      <trkpt lat="43.64103" lon="3.61944">
        <ele>269</ele>
        <time>2021-04-03T10:17:19Z</time>
      </trkpt>
      <trkpt lat="43.64104" lon="3.61947">
        <ele>269</ele>
        <time>2021-04-03T10:17:20Z</time>
      </trkpt>
      <trkpt lat="43.64105" lon="3.6195">
        <ele>269</ele>
        <time>2021-04-03T10:17:21Z</time>
      </trkpt>
      <trkpt lat="43.64106" lon="3.61952">
        <ele>269</ele>
        <time>2021-04-03T10:17:22Z</time>
      </trkpt>
      <trkpt lat="43.64108" lon="3.61953">
        <ele>269</ele>
        <time>2021-04-03T10:17:23Z</time>
      </trkpt>
      <trkpt lat="43.6411" lon="3.61954">
        <ele>269</ele>
        <time>2021-04-03T10:17:24Z</time>
      </trkpt>
      <trkpt lat="43.64113" lon="3.61955">
        <ele>269</ele>
        <time>2021-04-03T10:17:25Z</time>
      </trkpt>
      <trkpt lat="43.64115" lon="3.61955">
        <ele>269</ele>
        <time>2021-04-03T10:17:26Z</time>
      </trkpt>
      <trkpt lat="43.64118" lon="3.61955">
        <ele>269</ele>
        <time>2021-04-03T10:17:27Z</time>
      </trkpt>
      <trkpt lat="43.6412" lon="3.61955">
        <ele>269</ele>
        <time>2021-04-03T10:17:28Z</time>
      </trkpt>
      <trkpt lat="43.64122" lon="3.61954">
        <ele>269</ele>
        <time>2021-04-03T10:17:29Z</time>
      </trkpt>
      <trkpt lat="43.64124" lon="3.61954">
        <ele>269</ele>
        <time>2021-04-03T10:17:30Z</time>
      </trkpt>
      <trkpt lat="43.64127" lon="3.61954">
        <ele>269</ele>
        <time>2021-04-03T10:17:31Z</time>
      </trkpt>
      <trkpt lat="43.64129" lon="3.61954">
        <ele>269</ele>
        <time>2021-04-03T10:17:32Z</time>
      </trkpt>
      <trkpt lat="43.64131" lon="3.61954">
        <ele>269</ele>
        <time>2021-04-03T10:17:33Z</time>
      </trkpt>
      <trkpt lat="43.64134" lon="3.61954">
        <ele>269</ele>
        <time>2021-04-03T10:17:34Z</time>
      </trkpt>
      <trkpt lat="43.64137" lon="3.61954">
        <ele>269</ele>
        <time>2021-04-03T10:17:35Z</time>
      </trkpt>
      <trkpt lat="43.64139" lon="3.61954">
        <ele>269</ele>
        <time>2021-04-03T10:17:36Z</time>
      </trkpt>
      <trkpt lat="43.64142" lon="3.61954">
        <ele>269</ele>
        <time>2021-04-03T10:17:37Z</time>
      </trkpt>
      <trkpt lat="43.64145" lon="3.61953">
        <ele>269</ele>
        <time>2021-04-03T10:17:38Z</time>
      </trkpt>
      <trkpt lat="43.64148" lon="3.61953">
        <ele>269</ele>
        <time>2021-04-03T10:17:39Z</time>
      </trkpt>
      <trkpt lat="43.64151" lon="3.61953">
        <ele>269</ele>
        <time>2021-04-03T10:17:40Z</time>
      </trkpt>
      <trkpt lat="43.64154" lon="3.61953">
        <ele>269</ele>
        <time>2021-04-03T10:17:41Z</time>
      </trkpt>
      <trkpt lat="43.64157" lon="3.61953">
        <ele>270</ele>
        <time>2021-04-03T10:17:42Z</time>
      </trkpt>
      <trkpt lat="43.6416" lon="3.61953">
        <ele>270</ele>
        <time>2021-04-03T10:17:43Z</time>
      </trkpt>
      <trkpt lat="43.64163" lon="3.61953">
        <ele>270</ele>
        <time>2021-04-03T10:17:44Z</time>
      </trkpt>
      <trkpt lat="43.64165" lon="3.61953">
        <ele>270</ele>
        <time>2021-04-03T10:17:45Z</time>
      </trkpt>
      <trkpt lat="43.64168" lon="3.61953">
        <ele>270</ele>
        <time>2021-04-03T10:17:46Z</time>
      </trkpt>
      <trkpt lat="43.64171" lon="3.61953">
        <ele>270</ele>
        <time>2021-04-03T10:17:47Z</time>
      </trkpt>
      <trkpt lat="43.64173" lon="3.61953">
        <ele>270</ele>
        <time>2021-04-03T10:17:48Z</time>
      </trkpt>
      <trkpt lat="43.64176" lon="3.61953">
        <ele>270</ele>
        <time>2021-04-03T10:17:49Z</time>
      </trkpt>
      <trkpt lat="43.64178" lon="3.61953">
        <ele>270</ele>
        <time>2021-04-03T10:17:50Z</time>
      </trkpt>
      <trkpt lat="43.64181" lon="3.61953">
        <ele>271</ele>
        <time>2021-04-03T10:17:51Z</time>
      </trkpt>
      <trkpt lat="43.64183" lon="3.61953">
        <ele>271</ele>
        <time>2021-04-03T10:17:52Z</time>
      </trkpt>
      <trkpt lat="43.64185" lon="3.61953">
        <ele>271</ele>
        <time>2021-04-03T10:17:53Z</time>
      </trkpt>
      <trkpt lat="43.64188" lon="3.61954">
        <ele>271</ele>
        <time>2021-04-03T10:17:54Z</time>
      </trkpt>
      <trkpt lat="43.6419" lon="3.61954">
        <ele>271</ele>
        <time>2021-04-03T10:17:55Z</time>
      </trkpt>
      <trkpt lat="43.64192" lon="3.61954">
        <ele>271</ele>
        <time>2021-04-03T10:17:56Z</time>
      </trkpt>
      <trkpt lat="43.64194" lon="3.61955">
        <ele>271</ele>
        <time>2021-04-03T10:17:57Z</time>
      </trkpt>
      <trkpt lat="43.64196" lon="3.61955">
        <ele>271</ele>
        <time>2021-04-03T10:17:58Z</time>
      </trkpt>
      <trkpt lat="43.64199" lon="3.61955">
        <ele>271</ele>
        <time>2021-04-03T10:17:59Z</time>
      </trkpt>
      <trkpt lat="43.64201" lon="3.61955">
        <ele>271</ele>
        <time>2021-04-03T10:18:00Z</time>
      </trkpt>
      <trkpt lat="43.64203" lon="3.61956">
        <ele>273</ele>
        <time>2021-04-03T10:18:01Z</time>
      </trkpt>
      <trkpt lat="43.64205" lon="3.61956">
        <ele>273</ele>
        <time>2021-04-03T10:18:02Z</time>
      </trkpt>
      <trkpt lat="43.64207" lon="3.61957">
        <ele>273</ele>
        <time>2021-04-03T10:18:03Z</time>
      </trkpt>
      <trkpt lat="43.64209" lon="3.61957">
        <ele>273</ele>
        <time>2021-04-03T10:18:04Z</time>
      </trkpt>
      <trkpt lat="43.64212" lon="3.61957">
        <ele>273</ele>
        <time>2021-04-03T10:18:05Z</time>
      </trkpt>
      <trkpt lat="43.64214" lon="3.61957">
        <ele>273</ele>
        <time>2021-04-03T10:18:06Z</time>
      </trkpt>
      <trkpt lat="43.64216" lon="3.61958">
        <ele>273</ele>
        <time>2021-04-03T10:18:07Z</time>
      </trkpt>
      <trkpt lat="43.64219" lon="3.61958">
        <ele>273</ele>
        <time>2021-04-03T10:18:08Z</time>
      </trkpt>
      <trkpt lat="43.64221" lon="3.61958">
        <ele>273</ele>
        <time>2021-04-03T10:18:09Z</time>
      </trkpt>
      <trkpt lat="43.64224" lon="3.61958">
        <ele>273</ele>
        <time>2021-04-03T10:18:10Z</time>
      </trkpt>
      <trkpt lat="43.64229" lon="3.61958">
        <ele>274</ele>
        <time>2021-04-03T10:18:12Z</time>
      </trkpt>
      <trkpt lat="43.64231" lon="3.61959">
        <ele>274</ele>
        <time>2021-04-03T10:18:13Z</time>
      </trkpt>
      <trkpt lat="43.64234" lon="3.61959">
        <ele>274</ele>
        <time>2021-04-03T10:18:14Z</time>
      </trkpt>
      <trkpt lat="43.64236" lon="3.61959">
        <ele>274</ele>
        <time>2021-04-03T10:18:15Z</time>
      </trkpt>
      <trkpt lat="43.64239" lon="3.61959">
        <ele>274</ele>
        <time>2021-04-03T10:18:16Z</time>
      </trkpt>
      <trkpt lat="43.64242" lon="3.61959">
        <ele>274</ele>
        <time>2021-04-03T10:18:17Z</time>
      </trkpt>
      <trkpt lat="43.64245" lon="3.61959">
        <ele>274</ele>
        <time>2021-04-03T10:18:18Z</time>
      </trkpt>
      <trkpt lat="43.64247" lon="3.61958">
        <ele>274</ele>
        <time>2021-04-03T10:18:19Z</time>
      </trkpt>
      <trkpt lat="43.6425" lon="3.61958">
        <ele>274</ele>
        <time>2021-04-03T10:18:20Z</time>
      </trkpt>
      <trkpt lat="43.64253" lon="3.61958">
        <ele>274</ele>
        <time>2021-04-03T10:18:21Z</time>
      </trkpt>
      <trkpt lat="43.64256" lon="3.61958">
        <ele>275</ele>
        <time>2021-04-03T10:18:22Z</time>
      </trkpt>
      <trkpt lat="43.64258" lon="3.61958">
        <ele>275</ele>
        <time>2021-04-03T10:18:23Z</time>
      </trkpt>
      <trkpt lat="43.64261" lon="3.61958">
        <ele>275</ele>
        <time>2021-04-03T10:18:24Z</time>
      </trkpt>
      <trkpt lat="43.64264" lon="3.61957">
        <ele>275</ele>
        <time>2021-04-03T10:18:25Z</time>
      </trkpt>
      <trkpt lat="43.64267" lon="3.61957">
        <ele>275</ele>
        <time>2021-04-03T10:18:26Z</time>
      </trkpt>
      <trkpt lat="43.6427" lon="3.61957">
        <ele>275</ele>
        <time>2021-04-03T10:18:27Z</time>
      </trkpt>
      <trkpt lat="43.64273" lon="3.61956">
        <ele>275</ele>
        <time>2021-04-03T10:18:28Z</time>
      </trkpt>
      <trkpt lat="43.64276" lon="3.61956">
        <ele>275</ele>
        <time>2021-04-03T10:18:29Z</time>
      </trkpt>
      <trkpt lat="43.64279" lon="3.61956">
        <ele>275</ele>
        <time>2021-04-03T10:18:30Z</time>
      </trkpt>
      <trkpt lat="43.64282" lon="3.61955">
        <ele>275</ele>
        <time>2021-04-03T10:18:31Z</time>
      </trkpt>
      <trkpt lat="43.64285" lon="3.61955">
        <ele>275</ele>
        <time>2021-04-03T10:18:32Z</time>
      </trkpt>
      <trkpt lat="43.64288" lon="3.61954">
        <ele>275</ele>
        <time>2021-04-03T10:18:33Z</time>
      </trkpt>
      <trkpt lat="43.64291" lon="3.61954">
        <ele>275</ele>
        <time>2021-04-03T10:18:34Z</time>
      </trkpt>
      <trkpt lat="43.64295" lon="3.61953">
        <ele>275</ele>
        <time>2021-04-03T10:18:35Z</time>
      </trkpt>
      <trkpt lat="43.64298" lon="3.61953">
        <ele>275</ele>
        <time>2021-04-03T10:18:36Z</time>
      </trkpt>
      <trkpt lat="43.64301" lon="3.61952">
        <ele>275</ele>
        <time>2021-04-03T10:18:37Z</time>
      </trkpt>
      <trkpt lat="43.64304" lon="3.61951">
        <ele>275</ele>
        <time>2021-04-03T10:18:38Z</time>
      </trkpt>
      <trkpt lat="43.64307" lon="3.61951">
        <ele>275</ele>
        <time>2021-04-03T10:18:39Z</time>
      </trkpt>
      <trkpt lat="43.6431" lon="3.6195">
        <ele>275</ele>
        <time>2021-04-03T10:18:40Z</time>
      </trkpt>
      <trkpt lat="43.64313" lon="3.61949">
        <ele>275</ele>
        <time>2021-04-03T10:18:41Z</time>
      </trkpt>
      <trkpt lat="43.64316" lon="3.61948">
        <ele>275</ele>
        <time>2021-04-03T10:18:42Z</time>
      </trkpt>
      <trkpt lat="43.64319" lon="3.61947">
        <ele>275</ele>
        <time>2021-04-03T10:18:43Z</time>
      </trkpt>
      <trkpt lat="43.64321" lon="3.61946">
        <ele>275</ele>
        <time>2021-04-03T10:18:44Z</time>
      </trkpt>
      <trkpt lat="43.64324" lon="3.61946">
        <ele>275</ele>
        <time>2021-04-03T10:18:45Z</time>
      </trkpt>
      <trkpt lat="43.64327" lon="3.61945">
        <ele>275</ele>
        <time>2021-04-03T10:18:46Z</time>
      </trkpt>
      <trkpt lat="43.6433" lon="3.61943">
        <ele>275</ele>
        <time>2021-04-03T10:18:47Z</time>
      </trkpt>
      <trkpt lat="43.64333" lon="3.61942">
        <ele>275</ele>
        <time>2021-04-03T10:18:48Z</time>
      </trkpt>
      <trkpt lat="43.64335" lon="3.61941">
        <ele>275</ele>
        <time>2021-04-03T10:18:49Z</time>
      </trkpt>
      <trkpt lat="43.64338" lon="3.6194">
        <ele>275</ele>
        <time>2021-04-03T10:18:50Z</time>
      </trkpt>
      <trkpt lat="43.64341" lon="3.61939">
        <ele>275</ele>
        <time>2021-04-03T10:18:51Z</time>
      </trkpt>
      <trkpt lat="43.64344" lon="3.61938">
        <ele>276</ele>
        <time>2021-04-03T10:18:52Z</time>
      </trkpt>
      <trkpt lat="43.64346" lon="3.61937">
        <ele>276</ele>
        <time>2021-04-03T10:18:53Z</time>
      </trkpt>
      <trkpt lat="43.64349" lon="3.61936">
        <ele>276</ele>
        <time>2021-04-03T10:18:54Z</time>
      </trkpt>
      <trkpt lat="43.64352" lon="3.61935">
        <ele>276</ele>
        <time>2021-04-03T10:18:55Z</time>
      </trkpt>
      <trkpt lat="43.64355" lon="3.61934">
        <ele>276</ele>
        <time>2021-04-03T10:18:56Z</time>
      </trkpt>
      <trkpt lat="43.64358" lon="3.61933">
        <ele>276</ele>
        <time>2021-04-03T10:18:57Z</time>
      </trkpt>
      <trkpt lat="43.64361" lon="3.61932">
        <ele>276</ele>
        <time>2021-04-03T10:18:58Z</time>
      </trkpt>
      <trkpt lat="43.64363" lon="3.6193">
        <ele>276</ele>
        <time>2021-04-03T10:18:59Z</time>
      </trkpt>
      <trkpt lat="43.64366" lon="3.61929">
        <ele>276</ele>
        <time>2021-04-03T10:19:00Z</time>
      </trkpt>
      <trkpt lat="43.64369" lon="3.61928">
        <ele>277</ele>
        <time>2021-04-03T10:19:01Z</time>
      </trkpt>
      <trkpt lat="43.64372" lon="3.61927">
        <ele>277</ele>
        <time>2021-04-03T10:19:02Z</time>
      </trkpt>
      <trkpt lat="43.64374" lon="3.61926">
        <ele>277</ele>
        <time>2021-04-03T10:19:03Z</time>
      </trkpt>
      <trkpt lat="43.64377" lon="3.61925">
        <ele>277</ele>
        <time>2021-04-03T10:19:04Z</time>
      </trkpt>
      <trkpt lat="43.6438" lon="3.61923">
        <ele>277</ele>
        <time>2021-04-03T10:19:05Z</time>
      </trkpt>
      <trkpt lat="43.64383" lon="3.61922">
        <ele>277</ele>
        <time>2021-04-03T10:19:06Z</time>
      </trkpt>
      <trkpt lat="43.64385" lon="3.61921">
        <ele>277</ele>
        <time>2021-04-03T10:19:07Z</time>
      </trkpt>
      <trkpt lat="43.64388" lon="3.6192">
        <ele>277</ele>
        <time>2021-04-03T10:19:08Z</time>
      </trkpt>
      <trkpt lat="43.6439" lon="3.61919">
        <ele>277</ele>
        <time>2021-04-03T10:19:09Z</time>
      </trkpt>
      <trkpt lat="43.64392" lon="3.61918">
        <ele>277</ele>
        <time>2021-04-03T10:19:10Z</time>
      </trkpt>
      <trkpt lat="43.64394" lon="3.61917">
        <ele>277</ele>
        <time>2021-04-03T10:19:11Z</time>
      </trkpt>
      <trkpt lat="43.64396" lon="3.61917">
        <ele>277</ele>
        <time>2021-04-03T10:19:12Z</time>
      </trkpt>
      <trkpt lat="43.64398" lon="3.61916">
        <ele>277</ele>
        <time>2021-04-03T10:19:13Z</time>
      </trkpt>
      <trkpt lat="43.644" lon="3.61915">
        <ele>277</ele>
        <time>2021-04-03T10:19:14Z</time>
      </trkpt>
      <trkpt lat="43.64402" lon="3.61914">
        <ele>277</ele>
        <time>2021-04-03T10:19:15Z</time>
      </trkpt>
      <trkpt lat="43.64404" lon="3.61913">
        <ele>277</ele>
        <time>2021-04-03T10:19:16Z</time>
      </trkpt>
      <trkpt lat="43.64406" lon="3.61912">
        <ele>277</ele>
        <time>2021-04-03T10:19:17Z</time>
      </trkpt>
      <trkpt lat="43.64408" lon="3.61912">
        <ele>277</ele>
        <time>2021-04-03T10:19:18Z</time>
      </trkpt>
      <trkpt lat="43.64411" lon="3.61912">
        <ele>277</ele>
        <time>2021-04-03T10:19:19Z</time>
      </trkpt>
      <trkpt lat="43.64413" lon="3.61911">
        <ele>277</ele>
        <time>2021-04-03T10:19:20Z</time>
      </trkpt>
      <trkpt lat="43.64415" lon="3.6191">
        <ele>277</ele>
        <time>2021-04-03T10:19:21Z</time>
      </trkpt>
      <trkpt lat="43.64417" lon="3.61909">
        <ele>277</ele>
        <time>2021-04-03T10:19:22Z</time>
      </trkpt>
      <trkpt lat="43.64419" lon="3.61908">
        <ele>277</ele>
        <time>2021-04-03T10:19:23Z</time>
      </trkpt>
      <trkpt lat="43.64421" lon="3.61907">
        <ele>277</ele>
        <time>2021-04-03T10:19:24Z</time>
      </trkpt>
      <trkpt lat="43.64424" lon="3.61906">
        <ele>277</ele>
        <time>2021-04-03T10:19:25Z</time>
      </trkpt>
      <trkpt lat="43.64426" lon="3.61906">
        <ele>277</ele>
        <time>2021-04-03T10:19:26Z</time>
      </trkpt>
      <trkpt lat="43.64429" lon="3.61905">
        <ele>277</ele>
        <time>2021-04-03T10:19:27Z</time>
      </trkpt>
      <trkpt lat="43.64432" lon="3.61904">
        <ele>277</ele>
        <time>2021-04-03T10:19:28Z</time>
      </trkpt>
      <trkpt lat="43.64434" lon="3.61904">
        <ele>277</ele>
        <time>2021-04-03T10:19:29Z</time>
      </trkpt>
      <trkpt lat="43.64437" lon="3.61903">
        <ele>277</ele>
        <time>2021-04-03T10:19:30Z</time>
      </trkpt>
      <trkpt lat="43.6444" lon="3.61902">
        <ele>277</ele>
        <time>2021-04-03T10:19:31Z</time>
      </trkpt>
      <trkpt lat="43.64443" lon="3.61901">
        <ele>277</ele>
        <time>2021-04-03T10:19:32Z</time>
      </trkpt>
      <trkpt lat="43.64446" lon="3.619">
        <ele>277</ele>
        <time>2021-04-03T10:19:33Z</time>
      </trkpt>
      <trkpt lat="43.64449" lon="3.61899">
        <ele>277</ele>
        <time>2021-04-03T10:19:34Z</time>
      </trkpt>
      <trkpt lat="43.64452" lon="3.61897">
        <ele>277</ele>
        <time>2021-04-03T10:19:35Z</time>
      </trkpt>
      <trkpt lat="43.64456" lon="3.61896">
        <ele>277</ele>
        <time>2021-04-03T10:19:36Z</time>
      </trkpt>
      <trkpt lat="43.64459" lon="3.61895">
        <ele>277</ele>
        <time>2021-04-03T10:19:37Z</time>
      </trkpt>
      <trkpt lat="43.64463" lon="3.61894">
        <ele>277</ele>
        <time>2021-04-03T10:19:38Z</time>
      </trkpt>
      <trkpt lat="43.64466" lon="3.61893">
        <ele>277</ele>
        <time>2021-04-03T10:19:39Z</time>
      </trkpt>
      <trkpt lat="43.6447" lon="3.61892">
        <ele>277</ele>
        <time>2021-04-03T10:19:40Z</time>
      </trkpt>
      <trkpt lat="43.64474" lon="3.61891">
        <ele>277</ele>
        <time>2021-04-03T10:19:41Z</time>
      </trkpt>
      <trkpt lat="43.64478" lon="3.61891">
        <ele>276</ele>
        <time>2021-04-03T10:19:42Z</time>
      </trkpt>
      <trkpt lat="43.64481" lon="3.6189">
        <ele>276</ele>
        <time>2021-04-03T10:19:43Z</time>
      </trkpt>
      <trkpt lat="43.64485" lon="3.6189">
        <ele>276</ele>
        <time>2021-04-03T10:19:44Z</time>
      </trkpt>
      <trkpt lat="43.64488" lon="3.6189">
        <ele>276</ele>
        <time>2021-04-03T10:19:45Z</time>
      </trkpt>
      <trkpt lat="43.64492" lon="3.61889">
        <ele>276</ele>
        <time>2021-04-03T10:19:46Z</time>
      </trkpt>
      <trkpt lat="43.64495" lon="3.61889">
        <ele>276</ele>
        <time>2021-04-03T10:19:47Z</time>
      </trkpt>
      <trkpt lat="43.64498" lon="3.6189">
        <ele>276</ele>
        <time>2021-04-03T10:19:48Z</time>
      </trkpt>
      <trkpt lat="43.64501" lon="3.6189">
        <ele>276</ele>
        <time>2021-04-03T10:19:49Z</time>
      </trkpt>
      <trkpt lat="43.64503" lon="3.6189">
        <ele>276</ele>
        <time>2021-04-03T10:19:50Z</time>
      </trkpt>
      <trkpt lat="43.64505" lon="3.61891">
        <ele>274</ele>
        <time>2021-04-03T10:19:51Z</time>
      </trkpt>
      <trkpt lat="43.64507" lon="3.61894">
        <ele>274</ele>
        <time>2021-04-03T10:19:53Z</time>
      </trkpt>
      <trkpt lat="43.6451" lon="3.61896">
        <ele>274</ele>
        <time>2021-04-03T10:19:55Z</time>
      </trkpt>
      <trkpt lat="43.64512" lon="3.61897">
        <ele>274</ele>
        <time>2021-04-03T10:19:56Z</time>
      </trkpt>
      <trkpt lat="43.64513" lon="3.61899">
        <ele>274</ele>
        <time>2021-04-03T10:19:57Z</time>
      </trkpt>
      <trkpt lat="43.64514" lon="3.61901">
        <ele>274</ele>
        <time>2021-04-03T10:20:05Z</time>
      </trkpt>
      <trkpt lat="43.64521" lon="3.61892">
        <ele>273</ele>
        <time>2021-04-03T10:23:48Z</time>
      </trkpt>
      <trkpt lat="43.64524" lon="3.61892">
        <ele>273</ele>
        <time>2021-04-03T10:23:49Z</time>
      </trkpt>
      <trkpt lat="43.64527" lon="3.61893">
        <ele>273</ele>
        <time>2021-04-03T10:23:50Z</time>
      </trkpt>
      <trkpt lat="43.64531" lon="3.61893">
        <ele>273</ele>
        <time>2021-04-03T10:23:51Z</time>
      </trkpt>
      <trkpt lat="43.64535" lon="3.61893">
        <ele>273</ele>
        <time>2021-04-03T10:23:52Z</time>
      </trkpt>
      <trkpt lat="43.64538" lon="3.61894">
        <ele>273</ele>
        <time>2021-04-03T10:23:53Z</time>
      </trkpt>
      <trkpt lat="43.64543" lon="3.61894">
        <ele>273</ele>
        <time>2021-04-03T10:23:54Z</time>
      </trkpt>
      <trkpt lat="43.64547" lon="3.61895">
        <ele>273</ele>
        <time>2021-04-03T10:23:55Z</time>
      </trkpt>
      <trkpt lat="43.64551" lon="3.61895">
        <ele>273</ele>
        <time>2021-04-03T10:23:56Z</time>
      </trkpt>
      <trkpt lat="43.64556" lon="3.61895">
        <ele>271</ele>
        <time>2021-04-03T10:23:57Z</time>
      </trkpt>
      <trkpt lat="43.64561" lon="3.61895">
        <ele>271</ele>
        <time>2021-04-03T10:23:58Z</time>
      </trkpt>
      <trkpt lat="43.64566" lon="3.61896">
        <ele>271</ele>
        <time>2021-04-03T10:23:59Z</time>
      </trkpt>
      <trkpt lat="43.64571" lon="3.61895">
        <ele>271</ele>
        <time>2021-04-03T10:24:00Z</time>
      </trkpt>
      <trkpt lat="43.64576" lon="3.61895">
        <ele>271</ele>
        <time>2021-04-03T10:24:01Z</time>
      </trkpt>
      <trkpt lat="43.6458" lon="3.61894">
        <ele>271</ele>
        <time>2021-04-03T10:24:02Z</time>
      </trkpt>
      <trkpt lat="43.64585" lon="3.61894">
        <ele>271</ele>
        <time>2021-04-03T10:24:03Z</time>
      </trkpt>
      <trkpt lat="43.64589" lon="3.61893">
        <ele>271</ele>
        <time>2021-04-03T10:24:04Z</time>
      </trkpt>
      <trkpt lat="43.64594" lon="3.61893">
        <ele>271</ele>
        <time>2021-04-03T10:24:05Z</time>
      </trkpt>
      <trkpt lat="43.64598" lon="3.61892">
        <ele>271</ele>
        <time>2021-04-03T10:24:06Z</time>
      </trkpt>
      <trkpt lat="43.64602" lon="3.61891">
        <ele>271</ele>
        <time>2021-04-03T10:24:07Z</time>
      </trkpt>
      <trkpt lat="43.64606" lon="3.6189">
        <ele>269</ele>
        <time>2021-04-03T10:24:08Z</time>
      </trkpt>
      <trkpt lat="43.6461" lon="3.61889">
        <ele>269</ele>
        <time>2021-04-03T10:24:09Z</time>
      </trkpt>
      <trkpt lat="43.64614" lon="3.61888">
        <ele>269</ele>
        <time>2021-04-03T10:24:10Z</time>
      </trkpt>
      <trkpt lat="43.64618" lon="3.61887">
        <ele>269</ele>
        <time>2021-04-03T10:24:11Z</time>
      </trkpt>
      <trkpt lat="43.64622" lon="3.61886">
        <ele>269</ele>
        <time>2021-04-03T10:24:12Z</time>
      </trkpt>
      <trkpt lat="43.64626" lon="3.61886">
        <ele>269</ele>
        <time>2021-04-03T10:24:13Z</time>
      </trkpt>
      <trkpt lat="43.6463" lon="3.61885">
        <ele>269</ele>
        <time>2021-04-03T10:24:14Z</time>
      </trkpt>
      <trkpt lat="43.64634" lon="3.61885">
        <ele>269</ele>
        <time>2021-04-03T10:24:15Z</time>
      </trkpt>
      <trkpt lat="43.64638" lon="3.61885">
        <ele>269</ele>
        <time>2021-04-03T10:24:16Z</time>
      </trkpt>
      <trkpt lat="43.64642" lon="3.61885">
        <ele>267</ele>
        <time>2021-04-03T10:24:17Z</time>
      </trkpt>
      <trkpt lat="43.64646" lon="3.61886">
        <ele>267</ele>
        <time>2021-04-03T10:24:18Z</time>
      </trkpt>
      <trkpt lat="43.6465" lon="3.61886">
        <ele>267</ele>
        <time>2021-04-03T10:24:19Z</time>
      </trkpt>
      <trkpt lat="43.64654" lon="3.61886">
        <ele>267</ele>
        <time>2021-04-03T10:24:20Z</time>
      </trkpt>
      <trkpt lat="43.64658" lon="3.61887">
        <ele>267</ele>
        <time>2021-04-03T10:24:21Z</time>
      </trkpt>
      <trkpt lat="43.64661" lon="3.61887">
        <ele>267</ele>
        <time>2021-04-03T10:24:22Z</time>
      </trkpt>
      <trkpt lat="43.64665" lon="3.61886">
        <ele>267</ele>
        <time>2021-04-03T10:24:23Z</time>
      </trkpt>
      <trkpt lat="43.64668" lon="3.61886">
        <ele>267</ele>
        <time>2021-04-03T10:24:24Z</time>
      </trkpt>
      <trkpt lat="43.64672" lon="3.61886">
        <ele>267</ele>
        <time>2021-04-03T10:24:25Z</time>
      </trkpt>
      <trkpt lat="43.64676" lon="3.61886">
        <ele>267</ele>
        <time>2021-04-03T10:24:26Z</time>
      </trkpt>
      <trkpt lat="43.6468" lon="3.61885">
        <ele>267</ele>
        <time>2021-04-03T10:24:27Z</time>
      </trkpt>
      <trkpt lat="43.64684" lon="3.61883">
        <ele>266</ele>
        <time>2021-04-03T10:24:28Z</time>
      </trkpt>
      <trkpt lat="43.64689" lon="3.61881">
        <ele>266</ele>
        <time>2021-04-03T10:24:29Z</time>
      </trkpt>
      <trkpt lat="43.64693" lon="3.61879">
        <ele>266</ele>
        <time>2021-04-03T10:24:30Z</time>
      </trkpt>
      <trkpt lat="43.64696" lon="3.61876">
        <ele>266</ele>
        <time>2021-04-03T10:24:31Z</time>
      </trkpt>
      <trkpt lat="43.647" lon="3.61874">
        <ele>266</ele>
        <time>2021-04-03T10:24:32Z</time>
      </trkpt>
      <trkpt lat="43.64703" lon="3.61871">
        <ele>266</ele>
        <time>2021-04-03T10:24:33Z</time>
      </trkpt>
      <trkpt lat="43.64706" lon="3.61869">
        <ele>266</ele>
        <time>2021-04-03T10:24:34Z</time>
      </trkpt>
      <trkpt lat="43.64709" lon="3.61866">
        <ele>266</ele>
        <time>2021-04-03T10:24:35Z</time>
      </trkpt>
      <trkpt lat="43.64711" lon="3.61864">
        <ele>266</ele>
        <time>2021-04-03T10:24:36Z</time>
      </trkpt>
      <trkpt lat="43.64714" lon="3.61861">
        <ele>264</ele>
        <time>2021-04-03T10:24:37Z</time>
      </trkpt>
      <trkpt lat="43.64717" lon="3.61859">
        <ele>264</ele>
        <time>2021-04-03T10:24:38Z</time>
      </trkpt>
      <trkpt lat="43.6472" lon="3.61857">
        <ele>264</ele>
        <time>2021-04-03T10:24:39Z</time>
      </trkpt>
      <trkpt lat="43.64723" lon="3.61855">
        <ele>264</ele>
        <time>2021-04-03T10:24:40Z</time>
      </trkpt>
      <trkpt lat="43.64726" lon="3.61854">
        <ele>264</ele>
        <time>2021-04-03T10:24:41Z</time>
      </trkpt>
      <trkpt lat="43.64729" lon="3.61854">
        <ele>264</ele>
        <time>2021-04-03T10:24:42Z</time>
      </trkpt>
      <trkpt lat="43.64731" lon="3.61854">
        <ele>264</ele>
        <time>2021-04-03T10:24:43Z</time>
      </trkpt>
      <trkpt lat="43.64734" lon="3.61853">
        <ele>264</ele>
        <time>2021-04-03T10:24:44Z</time>
      </trkpt>
      <trkpt lat="43.64738" lon="3.61854">
        <ele>264</ele>
        <time>2021-04-03T10:24:45Z</time>
      </trkpt>
      <trkpt lat="43.64742" lon="3.61855">
        <ele>264</ele>
        <time>2021-04-03T10:24:46Z</time>
      </trkpt>
      <trkpt lat="43.64746" lon="3.61857">
        <ele>263</ele>
        <time>2021-04-03T10:24:47Z</time>
      </trkpt>
      <trkpt lat="43.64749" lon="3.61859">
        <ele>263</ele>
        <time>2021-04-03T10:24:48Z</time>
      </trkpt>
      <trkpt lat="43.64753" lon="3.6186">
        <ele>263</ele>
        <time>2021-04-03T10:24:49Z</time>
      </trkpt>
      <trkpt lat="43.64758" lon="3.61861">
        <ele>263</ele>
        <time>2021-04-03T10:24:50Z</time>
      </trkpt>
      <trkpt lat="43.64763" lon="3.61863">
        <ele>263</ele>
        <time>2021-04-03T10:24:51Z</time>
      </trkpt>
      <trkpt lat="43.64767" lon="3.61865">
        <ele>263</ele>
        <time>2021-04-03T10:24:52Z</time>
      </trkpt>
      <trkpt lat="43.64771" lon="3.61867">
        <ele>263</ele>
        <time>2021-04-03T10:24:53Z</time>
      </trkpt>
      <trkpt lat="43.64775" lon="3.61871">
        <ele>263</ele>
        <time>2021-04-03T10:24:54Z</time>
      </trkpt>
      <trkpt lat="43.64779" lon="3.61874">
        <ele>263</ele>
        <time>2021-04-03T10:24:55Z</time>
      </trkpt>
      <trkpt lat="43.64783" lon="3.61876">
        <ele>263</ele>
        <time>2021-04-03T10:24:56Z</time>
      </trkpt>
      <trkpt lat="43.64786" lon="3.6188">
        <ele>263</ele>
        <time>2021-04-03T10:24:57Z</time>
      </trkpt>
      <trkpt lat="43.64789" lon="3.61883">
        <ele>261</ele>
        <time>2021-04-03T10:24:58Z</time>
      </trkpt>
      <trkpt lat="43.64791" lon="3.61887">
        <ele>261</ele>
        <time>2021-04-03T10:24:59Z</time>
      </trkpt>
      <trkpt lat="43.64794" lon="3.6189">
        <ele>261</ele>
        <time>2021-04-03T10:25:00Z</time>
      </trkpt>
      <trkpt lat="43.64796" lon="3.61894">
        <ele>261</ele>
        <time>2021-04-03T10:25:01Z</time>
      </trkpt>
      <trkpt lat="43.64798" lon="3.61896">
        <ele>261</ele>
        <time>2021-04-03T10:25:02Z</time>
      </trkpt>
      <trkpt lat="43.648" lon="3.61899">
        <ele>261</ele>
        <time>2021-04-03T10:25:03Z</time>
      </trkpt>
      <trkpt lat="43.64802" lon="3.61902">
        <ele>261</ele>
        <time>2021-04-03T10:25:04Z</time>
      </trkpt>
      <trkpt lat="43.64803" lon="3.61904">
        <ele>261</ele>
        <time>2021-04-03T10:25:05Z</time>
      </trkpt>
      <trkpt lat="43.64805" lon="3.61907">
        <ele>261</ele>
        <time>2021-04-03T10:25:06Z</time>
      </trkpt>
      <trkpt lat="43.64806" lon="3.61909">
        <ele>261</ele>
        <time>2021-04-03T10:25:07Z</time>
      </trkpt>
      <trkpt lat="43.64808" lon="3.61911">
        <ele>262</ele>
        <time>2021-04-03T10:25:08Z</time>
      </trkpt>
      <trkpt lat="43.6481" lon="3.61914">
        <ele>262</ele>
        <time>2021-04-03T10:25:09Z</time>
      </trkpt>
      <trkpt lat="43.64812" lon="3.61916">
        <ele>262</ele>
        <time>2021-04-03T10:25:10Z</time>
      </trkpt>
      <trkpt lat="43.64814" lon="3.61918">
        <ele>262</ele>
        <time>2021-04-03T10:25:11Z</time>
      </trkpt>
      <trkpt lat="43.64816" lon="3.6192">
        <ele>262</ele>
        <time>2021-04-03T10:25:12Z</time>
      </trkpt>
      <trkpt lat="43.64818" lon="3.61922">
        <ele>262</ele>
        <time>2021-04-03T10:25:13Z</time>
      </trkpt>
      <trkpt lat="43.6482" lon="3.61924">
        <ele>262</ele>
        <time>2021-04-03T10:25:14Z</time>
      </trkpt>
      <trkpt lat="43.64821" lon="3.61926">
        <ele>262</ele>
        <time>2021-04-03T10:25:15Z</time>
      </trkpt>
      <trkpt lat="43.64823" lon="3.61928">
        <ele>262</ele>
        <time>2021-04-03T10:25:16Z</time>
      </trkpt>
      <trkpt lat="43.64825" lon="3.6193">
        <ele>262</ele>
        <time>2021-04-03T10:25:17Z</time>
      </trkpt>
      <trkpt lat="43.64826" lon="3.61931">
        <ele>262</ele>
        <time>2021-04-03T10:25:18Z</time>
      </trkpt>
      <trkpt lat="43.64828" lon="3.61933">
        <ele>262</ele>
        <time>2021-04-03T10:25:19Z</time>
      </trkpt>
      <trkpt lat="43.6483" lon="3.61935">
        <ele>262</ele>
        <time>2021-04-03T10:25:20Z</time>
      </trkpt>
      <trkpt lat="43.64831" lon="3.61937">
        <ele>262</ele>
        <time>2021-04-03T10:25:21Z</time>
      </trkpt>
      <trkpt lat="43.64833" lon="3.61939">
        <ele>262</ele>
        <time>2021-04-03T10:25:22Z</time>
      </trkpt>
      <trkpt lat="43.64835" lon="3.6194">
        <ele>262</ele>
        <time>2021-04-03T10:25:23Z</time>
      </trkpt>
      <trkpt lat="43.64836" lon="3.61942">
        <ele>262</ele>
        <time>2021-04-03T10:25:24Z</time>
      </trkpt>
      <trkpt lat="43.64838" lon="3.61944">
        <ele>262</ele>
        <time>2021-04-03T10:25:25Z</time>
      </trkpt>
      <trkpt lat="43.64839" lon="3.61946">
        <ele>262</ele>
        <time>2021-04-03T10:25:26Z</time>
      </trkpt>
      <trkpt lat="43.64841" lon="3.61948">
        <ele>262</ele>
        <time>2021-04-03T10:25:27Z</time>
      </trkpt>
      <trkpt lat="43.64842" lon="3.6195">
        <ele>264</ele>
        <time>2021-04-03T10:25:28Z</time>
      </trkpt>
      <trkpt lat="43.64843" lon="3.61952">
        <ele>264</ele>
        <time>2021-04-03T10:25:29Z</time>
      </trkpt>
      <trkpt lat="43.64845" lon="3.61954">
        <ele>264</ele>
        <time>2021-04-03T10:25:30Z</time>
      </trkpt>
      <trkpt lat="43.64846" lon="3.61956">
        <ele>264</ele>
        <time>2021-04-03T10:25:31Z</time>
      </trkpt>
      <trkpt lat="43.64848" lon="3.61958">
        <ele>264</ele>
        <time>2021-04-03T10:25:32Z</time>
      </trkpt>
      <trkpt lat="43.64849" lon="3.6196">
        <ele>264</ele>
        <time>2021-04-03T10:25:33Z</time>
      </trkpt>
      <trkpt lat="43.64851" lon="3.61962">
        <ele>264</ele>
        <time>2021-04-03T10:25:34Z</time>
      </trkpt>
      <trkpt lat="43.64852" lon="3.61965">
        <ele>264</ele>
        <time>2021-04-03T10:25:35Z</time>
      </trkpt>
      <trkpt lat="43.64853" lon="3.61967">
        <ele>264</ele>
        <time>2021-04-03T10:25:36Z</time>
      </trkpt>
      <trkpt lat="43.64854" lon="3.6197">
        <ele>264</ele>
        <time>2021-04-03T10:25:37Z</time>
      </trkpt>
      <trkpt lat="43.64856" lon="3.61972">
        <ele>265</ele>
        <time>2021-04-03T10:25:38Z</time>
      </trkpt>
      <trkpt lat="43.64857" lon="3.61975">
        <ele>265</ele>
        <time>2021-04-03T10:25:39Z</time>
      </trkpt>
      <trkpt lat="43.64859" lon="3.61978">
        <ele>265</ele>
        <time>2021-04-03T10:25:40Z</time>
      </trkpt>
      <trkpt lat="43.6486" lon="3.61981">
        <ele>265</ele>
        <time>2021-04-03T10:25:41Z</time>
      </trkpt>
      <trkpt lat="43.64861" lon="3.61984">
        <ele>265</ele>
        <time>2021-04-03T10:25:42Z</time>
      </trkpt>
      <trkpt lat="43.64862" lon="3.61987">
        <ele>265</ele>
        <time>2021-04-03T10:25:43Z</time>
      </trkpt>
      <trkpt lat="43.64863" lon="3.6199">
        <ele>265</ele>
        <time>2021-04-03T10:25:44Z</time>
      </trkpt>
      <trkpt lat="43.64864" lon="3.61993">
        <ele>265</ele>
        <time>2021-04-03T10:25:45Z</time>
      </trkpt>
      <trkpt lat="43.64865" lon="3.61996">
        <ele>265</ele>
        <time>2021-04-03T10:25:46Z</time>
      </trkpt>
      <trkpt lat="43.64866" lon="3.61999">
        <ele>266</ele>
        <time>2021-04-03T10:25:47Z</time>
      </trkpt>
      <trkpt lat="43.64868" lon="3.62001">
        <ele>266</ele>
        <time>2021-04-03T10:25:48Z</time>
      </trkpt>
      <trkpt lat="43.64869" lon="3.62004">
        <ele>266</ele>
        <time>2021-04-03T10:25:49Z</time>
      </trkpt>
      <trkpt lat="43.64871" lon="3.62007">
        <ele>266</ele>
        <time>2021-04-03T10:25:50Z</time>
      </trkpt>
      <trkpt lat="43.64872" lon="3.62009">
        <ele>266</ele>
        <time>2021-04-03T10:25:51Z</time>
      </trkpt>
      <trkpt lat="43.64874" lon="3.62012">
        <ele>266</ele>
        <time>2021-04-03T10:25:52Z</time>
      </trkpt>
      <trkpt lat="43.64875" lon="3.62014">
        <ele>266</ele>
        <time>2021-04-03T10:25:53Z</time>
      </trkpt>
      <trkpt lat="43.64876" lon="3.62013">
        <ele>267</ele>
        <time>2021-04-03T10:26:03Z</time>
      </trkpt>
      <trkpt lat="43.6487" lon="3.62006">
        <ele>267</ele>
        <time>2021-04-03T10:26:08Z</time>
      </trkpt>
      <trkpt lat="43.64868" lon="3.62002">
        <ele>267</ele>
        <time>2021-04-03T10:26:10Z</time>
      </trkpt>
      <trkpt lat="43.64866" lon="3.62">
        <ele>267</ele>
        <time>2021-04-03T10:26:11Z</time>
      </trkpt>
      <trkpt lat="43.64865" lon="3.61997">
        <ele>267</ele>
        <time>2021-04-03T10:26:12Z</time>
      </trkpt>
      <trkpt lat="43.64863" lon="3.61994">
        <ele>267</ele>
        <time>2021-04-03T10:26:13Z</time>
      </trkpt>
      <trkpt lat="43.64862" lon="3.61991">
        <ele>267</ele>
        <time>2021-04-03T10:26:14Z</time>
      </trkpt>
      <trkpt lat="43.64861" lon="3.61987">
        <ele>267</ele>
        <time>2021-04-03T10:26:15Z</time>
      </trkpt>
      <trkpt lat="43.64859" lon="3.61982">
        <ele>267</ele>
        <time>2021-04-03T10:26:16Z</time>
      </trkpt>
      <trkpt lat="43.64857" lon="3.61977">
        <ele>266</ele>
        <time>2021-04-03T10:26:17Z</time>
      </trkpt>
      <trkpt lat="43.64855" lon="3.61973">
        <ele>266</ele>
        <time>2021-04-03T10:26:18Z</time>
      </trkpt>
      <trkpt lat="43.64853" lon="3.61968">
        <ele>266</ele>
        <time>2021-04-03T10:26:19Z</time>
      </trkpt>
      <trkpt lat="43.6485" lon="3.61963">
        <ele>266</ele>
        <time>2021-04-03T10:26:20Z</time>
      </trkpt>
      <trkpt lat="43.64848" lon="3.61959">
        <ele>266</ele>
        <time>2021-04-03T10:26:21Z</time>
      </trkpt>
      <trkpt lat="43.64846" lon="3.61956">
        <ele>266</ele>
        <time>2021-04-03T10:26:22Z</time>
      </trkpt>
      <trkpt lat="43.64844" lon="3.61954">
        <ele>266</ele>
        <time>2021-04-03T10:26:23Z</time>
      </trkpt>
      <trkpt lat="43.64843" lon="3.61951">
        <ele>266</ele>
        <time>2021-04-03T10:26:24Z</time>
      </trkpt>
      <trkpt lat="43.64842" lon="3.61948">
        <ele>266</ele>
        <time>2021-04-03T10:26:25Z</time>
      </trkpt>
      <trkpt lat="43.64842" lon="3.61946">
        <ele>266</ele>
        <time>2021-04-03T10:26:26Z</time>
      </trkpt>
      <trkpt lat="43.64842" lon="3.61942">
        <ele>266</ele>
        <time>2021-04-03T10:26:27Z</time>
      </trkpt>
      <trkpt lat="43.64843" lon="3.61939">
        <ele>264</ele>
        <time>2021-04-03T10:26:28Z</time>
      </trkpt>
      <trkpt lat="43.64844" lon="3.61936">
        <ele>264</ele>
        <time>2021-04-03T10:26:29Z</time>
      </trkpt>
      <trkpt lat="43.64844" lon="3.61933">
        <ele>264</ele>
        <time>2021-04-03T10:26:30Z</time>
      </trkpt>
      <trkpt lat="43.64846" lon="3.6193">
        <ele>264</ele>
        <time>2021-04-03T10:26:31Z</time>
      </trkpt>
      <trkpt lat="43.64848" lon="3.61928">
        <ele>264</ele>
        <time>2021-04-03T10:26:32Z</time>
      </trkpt>
      <trkpt lat="43.64851" lon="3.61926">
        <ele>264</ele>
        <time>2021-04-03T10:26:33Z</time>
      </trkpt>
      <trkpt lat="43.64854" lon="3.61925">
        <ele>264</ele>
        <time>2021-04-03T10:26:34Z</time>
      </trkpt>
      <trkpt lat="43.64857" lon="3.61925">
        <ele>264</ele>
        <time>2021-04-03T10:26:35Z</time>
      </trkpt>
      <trkpt lat="43.6486" lon="3.61925">
        <ele>264</ele>
        <time>2021-04-03T10:26:36Z</time>
      </trkpt>
      <trkpt lat="43.64863" lon="3.61925">
        <ele>264</ele>
        <time>2021-04-03T10:26:37Z</time>
      </trkpt>
      <trkpt lat="43.64865" lon="3.61925">
        <ele>264</ele>
        <time>2021-04-03T10:26:38Z</time>
      </trkpt>
      <trkpt lat="43.64868" lon="3.61925">
        <ele>264</ele>
        <time>2021-04-03T10:26:39Z</time>
      </trkpt>
      <trkpt lat="43.64871" lon="3.61925">
        <ele>264</ele>
        <time>2021-04-03T10:26:40Z</time>
      </trkpt>
      <trkpt lat="43.64874" lon="3.61926">
        <ele>264</ele>
        <time>2021-04-03T10:26:41Z</time>
      </trkpt>
      <trkpt lat="43.64877" lon="3.61927">
        <ele>264</ele>
        <time>2021-04-03T10:26:42Z</time>
      </trkpt>
      <trkpt lat="43.64881" lon="3.61928">
        <ele>264</ele>
        <time>2021-04-03T10:26:43Z</time>
      </trkpt>
      <trkpt lat="43.64885" lon="3.61929">
        <ele>264</ele>
        <time>2021-04-03T10:26:44Z</time>
      </trkpt>
      <trkpt lat="43.64889" lon="3.6193">
        <ele>264</ele>
        <time>2021-04-03T10:26:45Z</time>
      </trkpt>
      <trkpt lat="43.64892" lon="3.61932">
        <ele>264</ele>
        <time>2021-04-03T10:26:46Z</time>
      </trkpt>
      <trkpt lat="43.64896" lon="3.61934">
        <ele>263</ele>
        <time>2021-04-03T10:26:47Z</time>
      </trkpt>
      <trkpt lat="43.64899" lon="3.61936">
        <ele>263</ele>
        <time>2021-04-03T10:26:48Z</time>
      </trkpt>
      <trkpt lat="43.64903" lon="3.61938">
        <ele>263</ele>
        <time>2021-04-03T10:26:49Z</time>
      </trkpt>
      <trkpt lat="43.64906" lon="3.61941">
        <ele>263</ele>
        <time>2021-04-03T10:26:50Z</time>
      </trkpt>
      <trkpt lat="43.6491" lon="3.61943">
        <ele>263</ele>
        <time>2021-04-03T10:26:51Z</time>
      </trkpt>
      <trkpt lat="43.64914" lon="3.61946">
        <ele>263</ele>
        <time>2021-04-03T10:26:52Z</time>
      </trkpt>
      <trkpt lat="43.64917" lon="3.61949">
        <ele>263</ele>
        <time>2021-04-03T10:26:53Z</time>
      </trkpt>
      <trkpt lat="43.6492" lon="3.61951">
        <ele>263</ele>
        <time>2021-04-03T10:26:54Z</time>
      </trkpt>
      <trkpt lat="43.64923" lon="3.61954">
        <ele>263</ele>
        <time>2021-04-03T10:26:55Z</time>
      </trkpt>
      <trkpt lat="43.64926" lon="3.61955">
        <ele>263</ele>
        <time>2021-04-03T10:26:56Z</time>
      </trkpt>
      <trkpt lat="43.64929" lon="3.61957">
        <ele>263</ele>
        <time>2021-04-03T10:26:57Z</time>
      </trkpt>
      <trkpt lat="43.64933" lon="3.61958">
        <ele>262</ele>
        <time>2021-04-03T10:26:58Z</time>
      </trkpt>
      <trkpt lat="43.64937" lon="3.61959">
        <ele>262</ele>
        <time>2021-04-03T10:26:59Z</time>
      </trkpt>
      <trkpt lat="43.64941" lon="3.6196">
        <ele>262</ele>
        <time>2021-04-03T10:27:00Z</time>
      </trkpt>
      <trkpt lat="43.64946" lon="3.6196">
        <ele>262</ele>
        <time>2021-04-03T10:27:01Z</time>
      </trkpt>
      <trkpt lat="43.64952" lon="3.6196">
        <ele>262</ele>
        <time>2021-04-03T10:27:02Z</time>
      </trkpt>
      <trkpt lat="43.64958" lon="3.6196">
        <ele>262</ele>
        <time>2021-04-03T10:27:03Z</time>
      </trkpt>
      <trkpt lat="43.64964" lon="3.6196">
        <ele>262</ele>
        <time>2021-04-03T10:27:04Z</time>
      </trkpt>
      <trkpt lat="43.64971" lon="3.61959">
        <ele>262</ele>
        <time>2021-04-03T10:27:05Z</time>
      </trkpt>
      <trkpt lat="43.64977" lon="3.6196">
        <ele>262</ele>
        <time>2021-04-03T10:27:06Z</time>
      </trkpt>
      <trkpt lat="43.64983" lon="3.6196">
        <ele>262</ele>
        <time>2021-04-03T10:27:07Z</time>
      </trkpt>
      <trkpt lat="43.6499" lon="3.6196">
        <ele>261</ele>
        <time>2021-04-03T10:27:08Z</time>
      </trkpt>
      <trkpt lat="43.64996" lon="3.61961">
        <ele>261</ele>
        <time>2021-04-03T10:27:09Z</time>
      </trkpt>
      <trkpt lat="43.65002" lon="3.61962">
        <ele>261</ele>
        <time>2021-04-03T10:27:10Z</time>
      </trkpt>
      <trkpt lat="43.65008" lon="3.61964">
        <ele>261</ele>
        <time>2021-04-03T10:27:11Z</time>
      </trkpt>
      <trkpt lat="43.65013" lon="3.61966">
        <ele>261</ele>
        <time>2021-04-03T10:27:12Z</time>
      </trkpt>
      <trkpt lat="43.65018" lon="3.61968">
        <ele>261</ele>
        <time>2021-04-03T10:27:13Z</time>
      </trkpt>
      <trkpt lat="43.65023" lon="3.6197">
        <ele>261</ele>
        <time>2021-04-03T10:27:14Z</time>
      </trkpt>
      <trkpt lat="43.65028" lon="3.61972">
        <ele>261</ele>
        <time>2021-04-03T10:27:15Z</time>
      </trkpt>
      <trkpt lat="43.65032" lon="3.61975">
        <ele>261</ele>
        <time>2021-04-03T10:27:16Z</time>
      </trkpt>
      <trkpt lat="43.65037" lon="3.61978">
        <ele>261</ele>
        <time>2021-04-03T10:27:17Z</time>
      </trkpt>
      <trkpt lat="43.65042" lon="3.61981">
        <ele>259</ele>
        <time>2021-04-03T10:27:18Z</time>
      </trkpt>
      <trkpt lat="43.65046" lon="3.61984">
        <ele>259</ele>
        <time>2021-04-03T10:27:19Z</time>
      </trkpt>
      <trkpt lat="43.65051" lon="3.61988">
        <ele>259</ele>
        <time>2021-04-03T10:27:20Z</time>
      </trkpt>
      <trkpt lat="43.65055" lon="3.61991">
        <ele>259</ele>
        <time>2021-04-03T10:27:21Z</time>
      </trkpt>
      <trkpt lat="43.65059" lon="3.61996">
        <ele>259</ele>
        <time>2021-04-03T10:27:22Z</time>
      </trkpt>
      <trkpt lat="43.65064" lon="3.62001">
        <ele>259</ele>
        <time>2021-04-03T10:27:23Z</time>
      </trkpt>
      <trkpt lat="43.65069" lon="3.62006">
        <ele>259</ele>
        <time>2021-04-03T10:27:24Z</time>
      </trkpt>
      <trkpt lat="43.65074" lon="3.62011">
        <ele>259</ele>
        <time>2021-04-03T10:27:25Z</time>
      </trkpt>
      <trkpt lat="43.65079" lon="3.62017">
        <ele>259</ele>
        <time>2021-04-03T10:27:26Z</time>
      </trkpt>
      <trkpt lat="43.65083" lon="3.62022">
        <ele>257</ele>
        <time>2021-04-03T10:27:27Z</time>
      </trkpt>
      <trkpt lat="43.65085" lon="3.62024">
        <ele>257</ele>
        <time>2021-04-03T10:27:28Z</time>
      </trkpt>
      <trkpt lat="43.65088" lon="3.62025">
        <ele>257</ele>
        <time>2021-04-03T10:27:29Z</time>
      </trkpt>
      <trkpt lat="43.6509" lon="3.62023">
        <ele>257</ele>
        <time>2021-04-03T10:27:30Z</time>
      </trkpt>
      <trkpt lat="43.65091" lon="3.6202">
        <ele>257</ele>
        <time>2021-04-03T10:27:31Z</time>
      </trkpt>
      <trkpt lat="43.65092" lon="3.62016">
        <ele>257</ele>
        <time>2021-04-03T10:27:32Z</time>
      </trkpt>
      <trkpt lat="43.65092" lon="3.62012">
        <ele>257</ele>
        <time>2021-04-03T10:27:33Z</time>
      </trkpt>
      <trkpt lat="43.65091" lon="3.62006">
        <ele>257</ele>
        <time>2021-04-03T10:27:34Z</time>
      </trkpt>
      <trkpt lat="43.6509" lon="3.62">
        <ele>257</ele>
        <time>2021-04-03T10:27:35Z</time>
      </trkpt>
      <trkpt lat="43.65089" lon="3.61993">
        <ele>257</ele>
        <time>2021-04-03T10:27:36Z</time>
      </trkpt>
      <trkpt lat="43.65088" lon="3.61987">
        <ele>257</ele>
        <time>2021-04-03T10:27:37Z</time>
      </trkpt>
      <trkpt lat="43.65088" lon="3.6198">
        <ele>256</ele>
        <time>2021-04-03T10:27:38Z</time>
      </trkpt>
      <trkpt lat="43.65087" lon="3.61973">
        <ele>256</ele>
        <time>2021-04-03T10:27:39Z</time>
      </trkpt>
      <trkpt lat="43.65086" lon="3.61965">
        <ele>256</ele>
        <time>2021-04-03T10:27:40Z</time>
      </trkpt>
      <trkpt lat="43.65085" lon="3.61957">
        <ele>256</ele>
        <time>2021-04-03T10:27:41Z</time>
      </trkpt>
      <trkpt lat="43.65084" lon="3.6195">
        <ele>256</ele>
        <time>2021-04-03T10:27:42Z</time>
      </trkpt>
      <trkpt lat="43.65083" lon="3.61943">
        <ele>256</ele>
        <time>2021-04-03T10:27:43Z</time>
      </trkpt>
      <trkpt lat="43.65081" lon="3.61938">
        <ele>256</ele>
        <time>2021-04-03T10:27:44Z</time>
      </trkpt>
      <trkpt lat="43.65079" lon="3.61934">
        <ele>256</ele>
        <time>2021-04-03T10:27:45Z</time>
      </trkpt>
      <trkpt lat="43.65076" lon="3.61932">
        <ele>256</ele>
        <time>2021-04-03T10:27:46Z</time>
      </trkpt>
      <trkpt lat="43.65073" lon="3.61932">
        <ele>254</ele>
        <time>2021-04-03T10:27:48Z</time>
      </trkpt>
      <trkpt lat="43.65071" lon="3.61932">
        <ele>254</ele>
        <time>2021-04-03T10:27:49Z</time>
      </trkpt>
      <trkpt lat="43.65068" lon="3.61932">
        <ele>254</ele>
        <time>2021-04-03T10:27:50Z</time>
      </trkpt>
      <trkpt lat="43.65066" lon="3.61932">
        <ele>254</ele>
        <time>2021-04-03T10:27:51Z</time>
      </trkpt>
      <trkpt lat="43.65063" lon="3.6193">
        <ele>254</ele>
        <time>2021-04-03T10:27:52Z</time>
      </trkpt>
      <trkpt lat="43.65059" lon="3.61927">
        <ele>254</ele>
        <time>2021-04-03T10:27:53Z</time>
      </trkpt>
      <trkpt lat="43.65057" lon="3.61925">
        <ele>254</ele>
        <time>2021-04-03T10:27:54Z</time>
      </trkpt>
      <trkpt lat="43.65055" lon="3.61923">
        <ele>254</ele>
        <time>2021-04-03T10:27:55Z</time>
      </trkpt>
      <trkpt lat="43.65054" lon="3.6192">
        <ele>254</ele>
        <time>2021-04-03T10:27:56Z</time>
      </trkpt>
      <trkpt lat="43.65051" lon="3.61916">
        <ele>253</ele>
        <time>2021-04-03T10:27:57Z</time>
      </trkpt>
      <trkpt lat="43.65049" lon="3.61911">
        <ele>253</ele>
        <time>2021-04-03T10:27:58Z</time>
      </trkpt>
      <trkpt lat="43.65047" lon="3.61905">
        <ele>253</ele>
        <time>2021-04-03T10:27:59Z</time>
      </trkpt>
      <trkpt lat="43.65043" lon="3.61898">
        <ele>253</ele>
        <time>2021-04-03T10:28:00Z</time>
      </trkpt>
      <trkpt lat="43.65038" lon="3.61892">
        <ele>253</ele>
        <time>2021-04-03T10:28:01Z</time>
      </trkpt>
      <trkpt lat="43.65033" lon="3.61888">
        <ele>253</ele>
        <time>2021-04-03T10:28:02Z</time>
      </trkpt>
      <trkpt lat="43.65027" lon="3.61885">
        <ele>253</ele>
        <time>2021-04-03T10:28:03Z</time>
      </trkpt>
      <trkpt lat="43.65021" lon="3.61883">
        <ele>253</ele>
        <time>2021-04-03T10:28:04Z</time>
      </trkpt>
      <trkpt lat="43.65016" lon="3.6188">
        <ele>253</ele>
        <time>2021-04-03T10:28:05Z</time>
      </trkpt>
      <trkpt lat="43.65004" lon="3.61873">
        <ele>253</ele>
        <time>2021-04-03T10:28:07Z</time>
      </trkpt>
      <trkpt lat="43.64999" lon="3.6187">
        <ele>252</ele>
        <time>2021-04-03T10:28:08Z</time>
      </trkpt>
      <trkpt lat="43.64992" lon="3.61866">
        <ele>252</ele>
        <time>2021-04-03T10:28:09Z</time>
      </trkpt>
      <trkpt lat="43.64987" lon="3.61861">
        <ele>252</ele>
        <time>2021-04-03T10:28:10Z</time>
      </trkpt>
      <trkpt lat="43.64982" lon="3.61855">
        <ele>252</ele>
        <time>2021-04-03T10:28:11Z</time>
      </trkpt>
      <trkpt lat="43.64976" lon="3.6184">
        <ele>252</ele>
        <time>2021-04-03T10:28:13Z</time>
      </trkpt>
      <trkpt lat="43.64971" lon="3.61822">
        <ele>252</ele>
        <time>2021-04-03T10:28:15Z</time>
      </trkpt>
      <trkpt lat="43.64966" lon="3.61804">
        <ele>252</ele>
        <time>2021-04-03T10:28:17Z</time>
      </trkpt>
      <trkpt lat="43.64959" lon="3.61785">
        <ele>252</ele>
        <time>2021-04-03T10:28:19Z</time>
      </trkpt>
      <trkpt lat="43.64957" lon="3.6177">
        <ele>252</ele>
        <time>2021-04-03T10:28:21Z</time>
      </trkpt>
      <trkpt lat="43.64956" lon="3.61765">
        <ele>252</ele>
        <time>2021-04-03T10:28:22Z</time>
      </trkpt>
      <trkpt lat="43.64955" lon="3.61759">
        <ele>252</ele>
        <time>2021-04-03T10:28:23Z</time>
      </trkpt>
      <trkpt lat="43.64954" lon="3.61754">
        <ele>252</ele>
        <time>2021-04-03T10:28:24Z</time>
      </trkpt>
      <trkpt lat="43.64954" lon="3.61749">
        <ele>252</ele>
        <time>2021-04-03T10:28:25Z</time>
      </trkpt>
      <trkpt lat="43.64953" lon="3.61744">
        <ele>252</ele>
        <time>2021-04-03T10:28:26Z</time>
      </trkpt>
      <trkpt lat="43.64951" lon="3.61737">
        <ele>252</ele>
        <time>2021-04-03T10:28:27Z</time>
      </trkpt>
      <trkpt lat="43.64951" lon="3.61731">
        <ele>245</ele>
        <time>2021-04-03T10:28:28Z</time>
      </trkpt>
      <trkpt lat="43.64951" lon="3.61725">
        <ele>245</ele>
        <time>2021-04-03T10:28:29Z</time>
      </trkpt>
      <trkpt lat="43.64952" lon="3.6172">
        <ele>245</ele>
        <time>2021-04-03T10:28:30Z</time>
      </trkpt>
      <trkpt lat="43.64952" lon="3.61715">
        <ele>245</ele>
        <time>2021-04-03T10:28:31Z</time>
      </trkpt>
      <trkpt lat="43.64953" lon="3.6171">
        <ele>245</ele>
        <time>2021-04-03T10:28:32Z</time>
      </trkpt>
      <trkpt lat="43.64954" lon="3.61704">
        <ele>245</ele>
        <time>2021-04-03T10:28:33Z</time>
      </trkpt>
      <trkpt lat="43.64958" lon="3.61689">
        <ele>245</ele>
        <time>2021-04-03T10:28:36Z</time>
      </trkpt>
      <trkpt lat="43.64961" lon="3.61679">
        <ele>245</ele>
        <time>2021-04-03T10:28:38Z</time>
      </trkpt>
      <trkpt lat="43.64964" lon="3.61673">
        <ele>245</ele>
        <time>2021-04-03T10:28:39Z</time>
      </trkpt>
      <trkpt lat="43.64967" lon="3.61667">
        <ele>245</ele>
        <time>2021-04-03T10:28:40Z</time>
      </trkpt>
      <trkpt lat="43.6497" lon="3.61661">
        <ele>245</ele>
        <time>2021-04-03T10:28:41Z</time>
      </trkpt>
      <trkpt lat="43.64975" lon="3.61648">
        <ele>245</ele>
        <time>2021-04-03T10:28:43Z</time>
      </trkpt>
      <trkpt lat="43.64981" lon="3.61632">
        <ele>245</ele>
        <time>2021-04-03T10:28:45Z</time>
      </trkpt>
      <trkpt lat="43.64986" lon="3.61618">
        <ele>239</ele>
        <time>2021-04-03T10:28:47Z</time>
      </trkpt>
      <trkpt lat="43.64993" lon="3.61606">
        <ele>239</ele>
        <time>2021-04-03T10:28:49Z</time>
      </trkpt>
      <trkpt lat="43.64999" lon="3.61593">
        <ele>239</ele>
        <time>2021-04-03T10:28:51Z</time>
      </trkpt>
      <trkpt lat="43.65006" lon="3.61582">
        <ele>239</ele>
        <time>2021-04-03T10:28:53Z</time>
      </trkpt>
      <trkpt lat="43.65017" lon="3.61577">
        <ele>239</ele>
        <time>2021-04-03T10:28:55Z</time>
      </trkpt>
      <trkpt lat="43.65025" lon="3.61568">
        <ele>239</ele>
        <time>2021-04-03T10:28:58Z</time>
      </trkpt>
      <trkpt lat="43.65035" lon="3.6156">
        <ele>239</ele>
        <time>2021-04-03T10:29:01Z</time>
      </trkpt>
      <trkpt lat="43.65047" lon="3.61551">
        <ele>239</ele>
        <time>2021-04-03T10:29:04Z</time>
      </trkpt>
      <trkpt lat="43.65057" lon="3.61545">
        <ele>239</ele>
        <time>2021-04-03T10:29:06Z</time>
      </trkpt>
      <trkpt lat="43.65065" lon="3.61538">
        <ele>232</ele>
        <time>2021-04-03T10:29:08Z</time>
      </trkpt>
      <trkpt lat="43.65073" lon="3.61529">
        <ele>232</ele>
        <time>2021-04-03T10:29:10Z</time>
      </trkpt>
      <trkpt lat="43.6508" lon="3.6152">
        <ele>232</ele>
        <time>2021-04-03T10:29:12Z</time>
      </trkpt>
      <trkpt lat="43.6509" lon="3.61508">
        <ele>232</ele>
        <time>2021-04-03T10:29:15Z</time>
      </trkpt>
      <trkpt lat="43.65098" lon="3.61498">
        <ele>228</ele>
        <time>2021-04-03T10:29:17Z</time>
      </trkpt>
      <trkpt lat="43.65105" lon="3.61487">
        <ele>228</ele>
        <time>2021-04-03T10:29:19Z</time>
      </trkpt>
      <trkpt lat="43.65111" lon="3.61472">
        <ele>228</ele>
        <time>2021-04-03T10:29:21Z</time>
      </trkpt>
      <trkpt lat="43.65116" lon="3.61459">
        <ele>228</ele>
        <time>2021-04-03T10:29:23Z</time>
      </trkpt>
      <trkpt lat="43.65118" lon="3.61446">
        <ele>228</ele>
        <time>2021-04-03T10:29:25Z</time>
      </trkpt>
      <trkpt lat="43.65119" lon="3.61428">
        <ele>228</ele>
        <time>2021-04-03T10:29:28Z</time>
      </trkpt>
      <trkpt lat="43.65119" lon="3.61414">
        <ele>228</ele>
        <time>2021-04-03T10:29:30Z</time>
      </trkpt>
      <trkpt lat="43.6512" lon="3.61399">
        <ele>228</ele>
        <time>2021-04-03T10:29:33Z</time>
      </trkpt>
      <trkpt lat="43.65119" lon="3.61386">
        <ele>228</ele>
        <time>2021-04-03T10:29:37Z</time>
      </trkpt>
      <trkpt lat="43.65117" lon="3.61388">
        <ele>228</ele>
        <time>2021-04-03T10:29:45Z</time>
      </trkpt>
      <trkpt lat="43.65116" lon="3.61383">
        <ele>219</ele>
        <time>2021-04-03T10:29:48Z</time>
      </trkpt>
      <trkpt lat="43.65117" lon="3.6138">
        <ele>219</ele>
        <time>2021-04-03T10:29:49Z</time>
      </trkpt>
      <trkpt lat="43.65118" lon="3.61376">
        <ele>219</ele>
        <time>2021-04-03T10:29:50Z</time>
      </trkpt>
      <trkpt lat="43.6512" lon="3.61362">
        <ele>219</ele>
        <time>2021-04-03T10:29:53Z</time>
      </trkpt>
      <trkpt lat="43.65123" lon="3.61348">
        <ele>219</ele>
        <time>2021-04-03T10:29:55Z</time>
      </trkpt>
      <trkpt lat="43.65125" lon="3.61333">
        <ele>217</ele>
        <time>2021-04-03T10:29:57Z</time>
      </trkpt>
      <trkpt lat="43.65124" lon="3.61315">
        <ele>217</ele>
        <time>2021-04-03T10:29:59Z</time>
      </trkpt>
      <trkpt lat="43.65122" lon="3.61299">
        <ele>217</ele>
        <time>2021-04-03T10:30:01Z</time>
      </trkpt>
      <trkpt lat="43.65121" lon="3.61282">
        <ele>217</ele>
        <time>2021-04-03T10:30:03Z</time>
      </trkpt>
      <trkpt lat="43.65123" lon="3.61265">
        <ele>217</ele>
        <time>2021-04-03T10:30:05Z</time>
      </trkpt>
      <trkpt lat="43.65127" lon="3.61248">
        <ele>217</ele>
        <time>2021-04-03T10:30:07Z</time>
      </trkpt>
      <trkpt lat="43.65131" lon="3.61231">
        <ele>217</ele>
        <time>2021-04-03T10:30:09Z</time>
      </trkpt>
      <trkpt lat="43.65134" lon="3.61214">
        <ele>217</ele>
        <time>2021-04-03T10:30:11Z</time>
      </trkpt>
      <trkpt lat="43.65135" lon="3.61198">
        <ele>217</ele>
        <time>2021-04-03T10:30:13Z</time>
      </trkpt>
      <trkpt lat="43.65136" lon="3.61183">
        <ele>217</ele>
        <time>2021-04-03T10:30:15Z</time>
      </trkpt>
      <trkpt lat="43.6514" lon="3.61171">
        <ele>217</ele>
        <time>2021-04-03T10:30:17Z</time>
      </trkpt>
      <trkpt lat="43.65142" lon="3.61166">
        <ele>210</ele>
        <time>2021-04-03T10:30:18Z</time>
      </trkpt>
      <trkpt lat="43.65143" lon="3.61162">
        <ele>210</ele>
        <time>2021-04-03T10:30:19Z</time>
      </trkpt>
      <trkpt lat="43.65144" lon="3.61157">
        <ele>210</ele>
        <time>2021-04-03T10:30:20Z</time>
      </trkpt>
      <trkpt lat="43.65146" lon="3.61152">
        <ele>210</ele>
        <time>2021-04-03T10:30:21Z</time>
      </trkpt>
      <trkpt lat="43.65147" lon="3.61148">
        <ele>210</ele>
        <time>2021-04-03T10:30:22Z</time>
      </trkpt>
      <trkpt lat="43.65147" lon="3.61145">
        <ele>210</ele>
        <time>2021-04-03T10:30:23Z</time>
      </trkpt>
      <trkpt lat="43.65149" lon="3.61142">
        <ele>210</ele>
        <time>2021-04-03T10:30:24Z</time>
      </trkpt>
      <trkpt lat="43.65149" lon="3.61138">
        <ele>210</ele>
        <time>2021-04-03T10:30:25Z</time>
      </trkpt>
      <trkpt lat="43.6515" lon="3.61135">
        <ele>210</ele>
        <time>2021-04-03T10:30:26Z</time>
      </trkpt>
      <trkpt lat="43.65151" lon="3.61131">
        <ele>206</ele>
        <time>2021-04-03T10:30:27Z</time>
      </trkpt>
      <trkpt lat="43.65153" lon="3.61127">
        <ele>206</ele>
        <time>2021-04-03T10:30:28Z</time>
      </trkpt>
      <trkpt lat="43.65155" lon="3.61123">
        <ele>206</ele>
        <time>2021-04-03T10:30:29Z</time>
      </trkpt>
      <trkpt lat="43.65157" lon="3.61119">
        <ele>206</ele>
        <time>2021-04-03T10:30:30Z</time>
      </trkpt>
      <trkpt lat="43.65159" lon="3.61115">
        <ele>206</ele>
        <time>2021-04-03T10:30:31Z</time>
      </trkpt>
      <trkpt lat="43.65161" lon="3.61111">
        <ele>206</ele>
        <time>2021-04-03T10:30:32Z</time>
      </trkpt>
      <trkpt lat="43.65163" lon="3.61106">
        <ele>206</ele>
        <time>2021-04-03T10:30:33Z</time>
      </trkpt>
      <trkpt lat="43.65164" lon="3.61101">
        <ele>206</ele>
        <time>2021-04-03T10:30:34Z</time>
      </trkpt>
      <trkpt lat="43.65165" lon="3.61096">
        <ele>206</ele>
        <time>2021-04-03T10:30:35Z</time>
      </trkpt>
      <trkpt lat="43.65167" lon="3.61091">
        <ele>206</ele>
        <time>2021-04-03T10:30:36Z</time>
      </trkpt>
      <trkpt lat="43.65171" lon="3.61082">
        <ele>206</ele>
        <time>2021-04-03T10:30:38Z</time>
      </trkpt>
      <trkpt lat="43.65176" lon="3.6107">
        <ele>206</ele>
        <time>2021-04-03T10:30:40Z</time>
      </trkpt>
      <trkpt lat="43.65183" lon="3.61058">
        <ele>206</ele>
        <time>2021-04-03T10:30:42Z</time>
      </trkpt>
      <trkpt lat="43.65188" lon="3.61047">
        <ele>206</ele>
        <time>2021-04-03T10:30:44Z</time>
      </trkpt>
      <trkpt lat="43.65192" lon="3.61029">
        <ele>206</ele>
        <time>2021-04-03T10:30:47Z</time>
      </trkpt>
      <trkpt lat="43.65193" lon="3.61013">
        <ele>206</ele>
        <time>2021-04-03T10:30:49Z</time>
      </trkpt>
      <trkpt lat="43.65193" lon="3.60996">
        <ele>206</ele>
        <time>2021-04-03T10:30:51Z</time>
      </trkpt>
      <trkpt lat="43.65196" lon="3.6098">
        <ele>206</ele>
        <time>2021-04-03T10:30:53Z</time>
      </trkpt>
      <trkpt lat="43.652" lon="3.60967">
        <ele>206</ele>
        <time>2021-04-03T10:30:55Z</time>
      </trkpt>
      <trkpt lat="43.65205" lon="3.60954">
        <ele>193</ele>
        <time>2021-04-03T10:30:57Z</time>
      </trkpt>
      <trkpt lat="43.65209" lon="3.60943">
        <ele>193</ele>
        <time>2021-04-03T10:30:59Z</time>
      </trkpt>
      <trkpt lat="43.65215" lon="3.60932">
        <ele>193</ele>
        <time>2021-04-03T10:31:02Z</time>
      </trkpt>
      <trkpt lat="43.6522" lon="3.60921">
        <ele>193</ele>
        <time>2021-04-03T10:31:08Z</time>
      </trkpt>
      <trkpt lat="43.65225" lon="3.60912">
        <ele>193</ele>
        <time>2021-04-03T10:31:12Z</time>
      </trkpt>
      <trkpt lat="43.65227" lon="3.60909">
        <ele>193</ele>
        <time>2021-04-03T10:31:13Z</time>
      </trkpt>
      <trkpt lat="43.65232" lon="3.60898">
        <ele>186</ele>
        <time>2021-04-03T10:31:17Z</time>
      </trkpt>
      <trkpt lat="43.6524" lon="3.60885">
        <ele>186</ele>
        <time>2021-04-03T10:31:21Z</time>
      </trkpt>
      <trkpt lat="43.65244" lon="3.60874">
        <ele>186</ele>
        <time>2021-04-03T10:31:24Z</time>
      </trkpt>
      <trkpt lat="43.65248" lon="3.60861">
        <ele>186</ele>
        <time>2021-04-03T10:31:28Z</time>
      </trkpt>
      <trkpt lat="43.6525" lon="3.60857">
        <ele>186</ele>
        <time>2021-04-03T10:31:29Z</time>
      </trkpt>
      <trkpt lat="43.65251" lon="3.60853">
        <ele>186</ele>
        <time>2021-04-03T10:31:30Z</time>
      </trkpt>
      <trkpt lat="43.65252" lon="3.60848">
        <ele>186</ele>
        <time>2021-04-03T10:31:31Z</time>
      </trkpt>
      <trkpt lat="43.65253" lon="3.6084">
        <ele>186</ele>
        <time>2021-04-03T10:31:33Z</time>
      </trkpt>
      <trkpt lat="43.65257" lon="3.60828">
        <ele>186</ele>
        <time>2021-04-03T10:31:36Z</time>
      </trkpt>
      <trkpt lat="43.65262" lon="3.60816">
        <ele>186</ele>
        <time>2021-04-03T10:31:40Z</time>
      </trkpt>
      <trkpt lat="43.65267" lon="3.60803">
        <ele>186</ele>
        <time>2021-04-03T10:31:43Z</time>
      </trkpt>
      <trkpt lat="43.65272" lon="3.60789">
        <ele>186</ele>
        <time>2021-04-03T10:31:46Z</time>
      </trkpt>
      <trkpt lat="43.65278" lon="3.60774">
        <ele>186</ele>
        <time>2021-04-03T10:31:49Z</time>
      </trkpt>
      <trkpt lat="43.65284" lon="3.60761">
        <ele>186</ele>
        <time>2021-04-03T10:31:52Z</time>
      </trkpt>
      <trkpt lat="43.65287" lon="3.60752">
        <ele>186</ele>
        <time>2021-04-03T10:31:55Z</time>
      </trkpt>
      <trkpt lat="43.65289" lon="3.60748">
        <ele>186</ele>
        <time>2021-04-03T10:31:56Z</time>
      </trkpt>
      <trkpt lat="43.65292" lon="3.60735">
        <ele>186</ele>
        <time>2021-04-03T10:31:59Z</time>
      </trkpt>
      <trkpt lat="43.65299" lon="3.60723">
        <ele>186</ele>
        <time>2021-04-03T10:32:03Z</time>
      </trkpt>
      <trkpt lat="43.65306" lon="3.60713">
        <ele>186</ele>
        <time>2021-04-03T10:32:06Z</time>
      </trkpt>
      <trkpt lat="43.65313" lon="3.60702">
        <ele>186</ele>
        <time>2021-04-03T10:32:09Z</time>
      </trkpt>
      <trkpt lat="43.65319" lon="3.60687">
        <ele>186</ele>
        <time>2021-04-03T10:32:12Z</time>
      </trkpt>
      <trkpt lat="43.65325" lon="3.60672">
        <ele>186</ele>
        <time>2021-04-03T10:32:15Z</time>
      </trkpt>
      <trkpt lat="43.65334" lon="3.60658">
        <ele>186</ele>
        <time>2021-04-03T10:32:18Z</time>
      </trkpt>
      <trkpt lat="43.65339" lon="3.60642">
        <ele>186</ele>
        <time>2021-04-03T10:32:21Z</time>
      </trkpt>
      <trkpt lat="43.65345" lon="3.60628">
        <ele>186</ele>
        <time>2021-04-03T10:32:24Z</time>
      </trkpt>
      <trkpt lat="43.65349" lon="3.60612">
        <ele>186</ele>
        <time>2021-04-03T10:32:27Z</time>
      </trkpt>
      <trkpt lat="43.65355" lon="3.60601">
        <ele>186</ele>
        <time>2021-04-03T10:32:30Z</time>
      </trkpt>
      <trkpt lat="43.65362" lon="3.60591">
        <ele>186</ele>
        <time>2021-04-03T10:32:34Z</time>
      </trkpt>
      <trkpt lat="43.65373" lon="3.60579">
        <ele>186</ele>
        <time>2021-04-03T10:32:37Z</time>
      </trkpt>
      <trkpt lat="43.65382" lon="3.60569">
        <ele>186</ele>
        <time>2021-04-03T10:32:39Z</time>
      </trkpt>
      <trkpt lat="43.65393" lon="3.60559">
        <ele>186</ele>
        <time>2021-04-03T10:32:41Z</time>
      </trkpt>
      <trkpt lat="43.65402" lon="3.60548">
        <ele>186</ele>
        <time>2021-04-03T10:32:43Z</time>
      </trkpt>
      <trkpt lat="43.65407" lon="3.60536">
        <ele>186</ele>
        <time>2021-04-03T10:32:45Z</time>
      </trkpt>
      <trkpt lat="43.65409" lon="3.60532">
        <ele>186</ele>
        <time>2021-04-03T10:32:46Z</time>
      </trkpt>
      <trkpt lat="43.65409" lon="3.60529">
        <ele>186</ele>
        <time>2021-04-03T10:32:47Z</time>
      </trkpt>
      <trkpt lat="43.65407" lon="3.6053">
        <ele>186</ele>
        <time>2021-04-03T10:32:52Z</time>
      </trkpt>
      <trkpt lat="43.65403" lon="3.60522">
        <ele>144</ele>
        <time>2021-04-03T10:34:14Z</time>
      </trkpt>
      <trkpt lat="43.65403" lon="3.60519">
        <ele>144</ele>
        <time>2021-04-03T10:34:15Z</time>
      </trkpt>
      <trkpt lat="43.65402" lon="3.60515">
        <ele>144</ele>
        <time>2021-04-03T10:34:16Z</time>
      </trkpt>
      <trkpt lat="43.65401" lon="3.6051">
        <ele>144</ele>
        <time>2021-04-03T10:34:17Z</time>
      </trkpt>
      <trkpt lat="43.654" lon="3.60505">
        <ele>144</ele>
        <time>2021-04-03T10:34:18Z</time>
      </trkpt>
      <trkpt lat="43.65399" lon="3.605">
        <ele>144</ele>
        <time>2021-04-03T10:34:19Z</time>
      </trkpt>
      <trkpt lat="43.65398" lon="3.60495">
        <ele>144</ele>
        <time>2021-04-03T10:34:20Z</time>
      </trkpt>
      <trkpt lat="43.65397" lon="3.6049">
        <ele>144</ele>
        <time>2021-04-03T10:34:21Z</time>
      </trkpt>
      <trkpt lat="43.65396" lon="3.60484">
        <ele>144</ele>
        <time>2021-04-03T10:34:22Z</time>
      </trkpt>
      <trkpt lat="43.65395" lon="3.60478">
        <ele>144</ele>
        <time>2021-04-03T10:34:23Z</time>
      </trkpt>
      <trkpt lat="43.65393" lon="3.60472">
        <ele>144</ele>
        <time>2021-04-03T10:34:24Z</time>
      </trkpt>
      <trkpt lat="43.65392" lon="3.60465">
        <ele>144</ele>
        <time>2021-04-03T10:34:25Z</time>
      </trkpt>
      <trkpt lat="43.6539" lon="3.60459">
        <ele>144</ele>
        <time>2021-04-03T10:34:26Z</time>
      </trkpt>
      <trkpt lat="43.65388" lon="3.6045">
        <ele>144</ele>
        <time>2021-04-03T10:34:27Z</time>
      </trkpt>
      <trkpt lat="43.65386" lon="3.60442">
        <ele>144</ele>
        <time>2021-04-03T10:34:28Z</time>
      </trkpt>
      <trkpt lat="43.65384" lon="3.60435">
        <ele>144</ele>
        <time>2021-04-03T10:34:29Z</time>
      </trkpt>
      <trkpt lat="43.65382" lon="3.60429">
        <ele>144</ele>
        <time>2021-04-03T10:34:30Z</time>
      </trkpt>
      <trkpt lat="43.65381" lon="3.60423">
        <ele>144</ele>
        <time>2021-04-03T10:34:31Z</time>
      </trkpt>
      <trkpt lat="43.65379" lon="3.60417">
        <ele>144</ele>
        <time>2021-04-03T10:34:32Z</time>
      </trkpt>
      <trkpt lat="43.65377" lon="3.60412">
        <ele>144</ele>
        <time>2021-04-03T10:34:33Z</time>
      </trkpt>
      <trkpt lat="43.65376" lon="3.60408">
        <ele>143</ele>
        <time>2021-04-03T10:34:34Z</time>
      </trkpt>
      <trkpt lat="43.65374" lon="3.60404">
        <ele>143</ele>
        <time>2021-04-03T10:34:35Z</time>
      </trkpt>
      <trkpt lat="43.65373" lon="3.60399">
        <ele>143</ele>
        <time>2021-04-03T10:34:36Z</time>
      </trkpt>
      <trkpt lat="43.65366" lon="3.60384">
        <ele>143</ele>
        <time>2021-04-03T10:34:39Z</time>
      </trkpt>
      <trkpt lat="43.65362" lon="3.6037">
        <ele>143</ele>
        <time>2021-04-03T10:34:41Z</time>
      </trkpt>
      <trkpt lat="43.65357" lon="3.60355">
        <ele>143</ele>
        <time>2021-04-03T10:34:43Z</time>
      </trkpt>
      <trkpt lat="43.65353" lon="3.60341">
        <ele>143</ele>
        <time>2021-04-03T10:34:45Z</time>
      </trkpt>
      <trkpt lat="43.6535" lon="3.60326">
        <ele>143</ele>
        <time>2021-04-03T10:34:47Z</time>
      </trkpt>
      <trkpt lat="43.65345" lon="3.60311">
        <ele>143</ele>
        <time>2021-04-03T10:34:49Z</time>
      </trkpt>
      <trkpt lat="43.6534" lon="3.60295">
        <ele>143</ele>
        <time>2021-04-03T10:34:51Z</time>
      </trkpt>
      <trkpt lat="43.65334" lon="3.60281">
        <ele>141</ele>
        <time>2021-04-03T10:34:53Z</time>
      </trkpt>
      <trkpt lat="43.65335" lon="3.60266">
        <ele>141</ele>
        <time>2021-04-03T10:34:55Z</time>
      </trkpt>
      <trkpt lat="43.65339" lon="3.6025">
        <ele>141</ele>
        <time>2021-04-03T10:34:57Z</time>
      </trkpt>
      <trkpt lat="43.65342" lon="3.60234">
        <ele>141</ele>
        <time>2021-04-03T10:34:59Z</time>
      </trkpt>
      <trkpt lat="43.65343" lon="3.60218">
        <ele>141</ele>
        <time>2021-04-03T10:35:01Z</time>
      </trkpt>
      <trkpt lat="43.65345" lon="3.60201">
        <ele>139</ele>
        <time>2021-04-03T10:35:03Z</time>
      </trkpt>
      <trkpt lat="43.65346" lon="3.60184">
        <ele>139</ele>
        <time>2021-04-03T10:35:05Z</time>
      </trkpt>
      <trkpt lat="43.65348" lon="3.60168">
        <ele>139</ele>
        <time>2021-04-03T10:35:07Z</time>
      </trkpt>
      <trkpt lat="43.65348" lon="3.60151">
        <ele>139</ele>
        <time>2021-04-03T10:35:09Z</time>
      </trkpt>
      <trkpt lat="43.6535" lon="3.60134">
        <ele>139</ele>
        <time>2021-04-03T10:35:11Z</time>
      </trkpt>
      <trkpt lat="43.65351" lon="3.60115">
        <ele>139</ele>
        <time>2021-04-03T10:35:13Z</time>
      </trkpt>
      <trkpt lat="43.65354" lon="3.60096">
        <ele>139</ele>
        <time>2021-04-03T10:35:15Z</time>
      </trkpt>
      <trkpt lat="43.65357" lon="3.60076">
        <ele>139</ele>
        <time>2021-04-03T10:35:17Z</time>
      </trkpt>
      <trkpt lat="43.6536" lon="3.60059">
        <ele>139</ele>
        <time>2021-04-03T10:35:19Z</time>
      </trkpt>
      <trkpt lat="43.65363" lon="3.60044">
        <ele>139</ele>
        <time>2021-04-03T10:35:21Z</time>
      </trkpt>
      <trkpt lat="43.65365" lon="3.6003">
        <ele>139</ele>
        <time>2021-04-03T10:35:23Z</time>
      </trkpt>
      <trkpt lat="43.65365" lon="3.60015">
        <ele>139</ele>
        <time>2021-04-03T10:35:25Z</time>
      </trkpt>
      <trkpt lat="43.65365" lon="3.6">
        <ele>139</ele>
        <time>2021-04-03T10:35:27Z</time>
      </trkpt>
      <trkpt lat="43.65365" lon="3.59984">
        <ele>139</ele>
        <time>2021-04-03T10:35:29Z</time>
      </trkpt>
      <trkpt lat="43.65365" lon="3.59967">
        <ele>139</ele>
        <time>2021-04-03T10:35:31Z</time>
      </trkpt>
      <trkpt lat="43.65367" lon="3.5995">
        <ele>139</ele>
        <time>2021-04-03T10:35:33Z</time>
      </trkpt>
      <trkpt lat="43.65369" lon="3.59935">
        <ele>139</ele>
        <time>2021-04-03T10:35:35Z</time>
      </trkpt>
      <trkpt lat="43.65369" lon="3.59921">
        <ele>139</ele>
        <time>2021-04-03T10:35:37Z</time>
      </trkpt>
      <trkpt lat="43.65367" lon="3.59908">
        <ele>139</ele>
        <time>2021-04-03T10:35:39Z</time>
      </trkpt>
      <trkpt lat="43.65365" lon="3.59901">
        <ele>139</ele>
        <time>2021-04-03T10:35:40Z</time>
      </trkpt>
      <trkpt lat="43.65364" lon="3.59895">
        <ele>139</ele>
        <time>2021-04-03T10:35:41Z</time>
      </trkpt>
      <trkpt lat="43.65363" lon="3.5989">
        <ele>139</ele>
        <time>2021-04-03T10:35:42Z</time>
      </trkpt>
      <trkpt lat="43.65363" lon="3.59886">
        <ele>125</ele>
        <time>2021-04-03T10:35:43Z</time>
      </trkpt>
      <trkpt lat="43.65362" lon="3.59881">
        <ele>125</ele>
        <time>2021-04-03T10:35:44Z</time>
      </trkpt>
      <trkpt lat="43.65359" lon="3.59875">
        <ele>125</ele>
        <time>2021-04-03T10:35:45Z</time>
      </trkpt>
      <trkpt lat="43.65357" lon="3.59869">
        <ele>125</ele>
        <time>2021-04-03T10:35:46Z</time>
      </trkpt>
      <trkpt lat="43.65353" lon="3.59863">
        <ele>125</ele>
        <time>2021-04-03T10:35:47Z</time>
      </trkpt>
      <trkpt lat="43.65351" lon="3.59858">
        <ele>125</ele>
        <time>2021-04-03T10:35:48Z</time>
      </trkpt>
      <trkpt lat="43.65349" lon="3.59853">
        <ele>125</ele>
        <time>2021-04-03T10:35:49Z</time>
      </trkpt>
      <trkpt lat="43.65347" lon="3.59848">
        <ele>125</ele>
        <time>2021-04-03T10:35:50Z</time>
      </trkpt>
      <trkpt lat="43.65346" lon="3.59843">
        <ele>125</ele>
        <time>2021-04-03T10:35:51Z</time>
      </trkpt>
      <trkpt lat="43.65344" lon="3.59839">
        <ele>125</ele>
        <time>2021-04-03T10:35:52Z</time>
      </trkpt>
      <trkpt lat="43.65342" lon="3.59834">
        <ele>122</ele>
        <time>2021-04-03T10:35:53Z</time>
      </trkpt>
      <trkpt lat="43.65341" lon="3.5983">
        <ele>122</ele>
        <time>2021-04-03T10:35:54Z</time>
      </trkpt>
      <trkpt lat="43.65339" lon="3.59825">
        <ele>122</ele>
        <time>2021-04-03T10:35:55Z</time>
      </trkpt>
      <trkpt lat="43.65337" lon="3.59819">
        <ele>122</ele>
        <time>2021-04-03T10:35:56Z</time>
      </trkpt>
      <trkpt lat="43.65335" lon="3.59813">
        <ele>122</ele>
        <time>2021-04-03T10:35:57Z</time>
      </trkpt>
      <trkpt lat="43.65334" lon="3.59808">
        <ele>122</ele>
        <time>2021-04-03T10:35:58Z</time>
      </trkpt>
      <trkpt lat="43.65332" lon="3.59802">
        <ele>122</ele>
        <time>2021-04-03T10:35:59Z</time>
      </trkpt>
      <trkpt lat="43.65331" lon="3.59797">
        <ele>122</ele>
        <time>2021-04-03T10:36:00Z</time>
      </trkpt>
      <trkpt lat="43.65329" lon="3.59791">
        <ele>122</ele>
        <time>2021-04-03T10:36:01Z</time>
      </trkpt>
      <trkpt lat="43.65326" lon="3.59785">
        <ele>122</ele>
        <time>2021-04-03T10:36:02Z</time>
      </trkpt>
      <trkpt lat="43.65323" lon="3.59779">
        <ele>120</ele>
        <time>2021-04-03T10:36:03Z</time>
      </trkpt>
      <trkpt lat="43.6532" lon="3.59773">
        <ele>120</ele>
        <time>2021-04-03T10:36:04Z</time>
      </trkpt>
      <trkpt lat="43.65318" lon="3.59766">
        <ele>120</ele>
        <time>2021-04-03T10:36:05Z</time>
      </trkpt>
      <trkpt lat="43.65316" lon="3.5976">
        <ele>120</ele>
        <time>2021-04-03T10:36:06Z</time>
      </trkpt>
      <trkpt lat="43.65313" lon="3.59754">
        <ele>120</ele>
        <time>2021-04-03T10:36:07Z</time>
      </trkpt>
      <trkpt lat="43.65311" lon="3.59749">
        <ele>120</ele>
        <time>2021-04-03T10:36:08Z</time>
      </trkpt>
      <trkpt lat="43.65308" lon="3.59742">
        <ele>120</ele>
        <time>2021-04-03T10:36:09Z</time>
      </trkpt>
      <trkpt lat="43.65305" lon="3.59736">
        <ele>120</ele>
        <time>2021-04-03T10:36:10Z</time>
      </trkpt>
      <trkpt lat="43.65302" lon="3.59728">
        <ele>120</ele>
        <time>2021-04-03T10:36:11Z</time>
      </trkpt>
      <trkpt lat="43.653" lon="3.59721">
        <ele>120</ele>
        <time>2021-04-03T10:36:12Z</time>
      </trkpt>
      <trkpt lat="43.65298" lon="3.59713">
        <ele>116</ele>
        <time>2021-04-03T10:36:13Z</time>
      </trkpt>
      <trkpt lat="43.65296" lon="3.59705">
        <ele>116</ele>
        <time>2021-04-03T10:36:14Z</time>
      </trkpt>
      <trkpt lat="43.65295" lon="3.59697">
        <ele>116</ele>
        <time>2021-04-03T10:36:15Z</time>
      </trkpt>
      <trkpt lat="43.65294" lon="3.59689">
        <ele>116</ele>
        <time>2021-04-03T10:36:16Z</time>
      </trkpt>
      <trkpt lat="43.65292" lon="3.59681">
        <ele>116</ele>
        <time>2021-04-03T10:36:17Z</time>
      </trkpt>
      <trkpt lat="43.6529" lon="3.59675">
        <ele>116</ele>
        <time>2021-04-03T10:36:18Z</time>
      </trkpt>
      <trkpt lat="43.65287" lon="3.59669">
        <ele>116</ele>
        <time>2021-04-03T10:36:19Z</time>
      </trkpt>
      <trkpt lat="43.65286" lon="3.59663">
        <ele>116</ele>
        <time>2021-04-03T10:36:20Z</time>
      </trkpt>
      <trkpt lat="43.65284" lon="3.59657">
        <ele>116</ele>
        <time>2021-04-03T10:36:21Z</time>
      </trkpt>
      <trkpt lat="43.65281" lon="3.59651">
        <ele>116</ele>
        <time>2021-04-03T10:36:22Z</time>
      </trkpt>
      <trkpt lat="43.65279" lon="3.59645">
        <ele>116</ele>
        <time>2021-04-03T10:36:23Z</time>
      </trkpt>
      <trkpt lat="43.65277" lon="3.59637">
        <ele>114</ele>
        <time>2021-04-03T10:36:24Z</time>
      </trkpt>
      <trkpt lat="43.65278" lon="3.5963">
        <ele>114</ele>
        <time>2021-04-03T10:36:25Z</time>
      </trkpt>
      <trkpt lat="43.65278" lon="3.59621">
        <ele>114</ele>
        <time>2021-04-03T10:36:26Z</time>
      </trkpt>
      <trkpt lat="43.65277" lon="3.59613">
        <ele>114</ele>
        <time>2021-04-03T10:36:27Z</time>
      </trkpt>
      <trkpt lat="43.65275" lon="3.59604">
        <ele>114</ele>
        <time>2021-04-03T10:36:28Z</time>
      </trkpt>
      <trkpt lat="43.65274" lon="3.59595">
        <ele>114</ele>
        <time>2021-04-03T10:36:29Z</time>
      </trkpt>
      <trkpt lat="43.65273" lon="3.59586">
        <ele>114</ele>
        <time>2021-04-03T10:36:30Z</time>
      </trkpt>
      <trkpt lat="43.65272" lon="3.59576">
        <ele>114</ele>
        <time>2021-04-03T10:36:31Z</time>
      </trkpt>
      <trkpt lat="43.65273" lon="3.59567">
        <ele>114</ele>
        <time>2021-04-03T10:36:32Z</time>
      </trkpt>
      <trkpt lat="43.65274" lon="3.59558">
        <ele>112</ele>
        <time>2021-04-03T10:36:33Z</time>
      </trkpt>
      <trkpt lat="43.65276" lon="3.5955">
        <ele>112</ele>
        <time>2021-04-03T10:36:34Z</time>
      </trkpt>
      <trkpt lat="43.65279" lon="3.59542">
        <ele>112</ele>
        <time>2021-04-03T10:36:35Z</time>
      </trkpt>
      <trkpt lat="43.65281" lon="3.59534">
        <ele>112</ele>
        <time>2021-04-03T10:36:36Z</time>
      </trkpt>
      <trkpt lat="43.65284" lon="3.59525">
        <ele>112</ele>
        <time>2021-04-03T10:36:37Z</time>
      </trkpt>
      <trkpt lat="43.65286" lon="3.59517">
        <ele>112</ele>
        <time>2021-04-03T10:36:38Z</time>
      </trkpt>
      <trkpt lat="43.65289" lon="3.59508">
        <ele>112</ele>
        <time>2021-04-03T10:36:39Z</time>
      </trkpt>
      <trkpt lat="43.65291" lon="3.595">
        <ele>112</ele>
        <time>2021-04-03T10:36:40Z</time>
      </trkpt>
      <trkpt lat="43.65294" lon="3.59492">
        <ele>112</ele>
        <time>2021-04-03T10:36:41Z</time>
      </trkpt>
      <trkpt lat="43.65295" lon="3.59483">
        <ele>112</ele>
        <time>2021-04-03T10:36:42Z</time>
      </trkpt>
      <trkpt lat="43.65296" lon="3.59475">
        <ele>109</ele>
        <time>2021-04-03T10:36:43Z</time>
      </trkpt>
      <trkpt lat="43.65297" lon="3.59466">
        <ele>109</ele>
        <time>2021-04-03T10:36:44Z</time>
      </trkpt>
      <trkpt lat="43.65298" lon="3.59458">
        <ele>109</ele>
        <time>2021-04-03T10:36:45Z</time>
      </trkpt>
      <trkpt lat="43.653" lon="3.59449">
        <ele>109</ele>
        <time>2021-04-03T10:36:46Z</time>
      </trkpt>
      <trkpt lat="43.65302" lon="3.5944">
        <ele>109</ele>
        <time>2021-04-03T10:36:47Z</time>
      </trkpt>
      <trkpt lat="43.65305" lon="3.5943">
        <ele>109</ele>
        <time>2021-04-03T10:36:48Z</time>
      </trkpt>
      <trkpt lat="43.65306" lon="3.5942">
        <ele>109</ele>
        <time>2021-04-03T10:36:49Z</time>
      </trkpt>
      <trkpt lat="43.65309" lon="3.594">
        <ele>109</ele>
        <time>2021-04-03T10:36:51Z</time>
      </trkpt>
      <trkpt lat="43.65311" lon="3.5939">
        <ele>109</ele>
        <time>2021-04-03T10:36:52Z</time>
      </trkpt>
      <trkpt lat="43.65314" lon="3.5938">
        <ele>109</ele>
        <time>2021-04-03T10:36:53Z</time>
      </trkpt>
      <trkpt lat="43.65317" lon="3.59371">
        <ele>107</ele>
        <time>2021-04-03T10:36:54Z</time>
      </trkpt>
      <trkpt lat="43.65323" lon="3.59353">
        <ele>107</ele>
        <time>2021-04-03T10:36:56Z</time>
      </trkpt>
      <trkpt lat="43.65326" lon="3.59344">
        <ele>107</ele>
        <time>2021-04-03T10:36:57Z</time>
      </trkpt>
      <trkpt lat="43.65332" lon="3.59331">
        <ele>107</ele>
        <time>2021-04-03T10:36:59Z</time>
      </trkpt>
      <trkpt lat="43.65337" lon="3.59316">
        <ele>107</ele>
        <time>2021-04-03T10:37:01Z</time>
      </trkpt>
      <trkpt lat="43.65342" lon="3.59299">
        <ele>107</ele>
        <time>2021-04-03T10:37:03Z</time>
      </trkpt>
      <trkpt lat="43.65348" lon="3.59282">
        <ele>107</ele>
        <time>2021-04-03T10:37:05Z</time>
      </trkpt>
      <trkpt lat="43.65355" lon="3.59262">
        <ele>107</ele>
        <time>2021-04-03T10:37:07Z</time>
      </trkpt>
      <trkpt lat="43.65358" lon="3.59253">
        <ele>107</ele>
        <time>2021-04-03T10:37:08Z</time>
      </trkpt>
      <trkpt lat="43.65362" lon="3.59244">
        <ele>107</ele>
        <time>2021-04-03T10:37:09Z</time>
      </trkpt>
      <trkpt lat="43.65365" lon="3.59235">
        <ele>107</ele>
        <time>2021-04-03T10:37:10Z</time>
      </trkpt>
      <trkpt lat="43.65367" lon="3.59226">
        <ele>107</ele>
        <time>2021-04-03T10:37:11Z</time>
      </trkpt>
      <trkpt lat="43.6537" lon="3.59217">
        <ele>107</ele>
        <time>2021-04-03T10:37:12Z</time>
      </trkpt>
      <trkpt lat="43.65373" lon="3.59208">
        <ele>107</ele>
        <time>2021-04-03T10:37:13Z</time>
      </trkpt>
      <trkpt lat="43.65376" lon="3.59199">
        <ele>104</ele>
        <time>2021-04-03T10:37:14Z</time>
      </trkpt>
      <trkpt lat="43.65378" lon="3.5919">
        <ele>104</ele>
        <time>2021-04-03T10:37:15Z</time>
      </trkpt>
      <trkpt lat="43.65381" lon="3.59181">
        <ele>104</ele>
        <time>2021-04-03T10:37:16Z</time>
      </trkpt>
      <trkpt lat="43.65383" lon="3.59172">
        <ele>104</ele>
        <time>2021-04-03T10:37:17Z</time>
      </trkpt>
      <trkpt lat="43.65385" lon="3.59163">
        <ele>104</ele>
        <time>2021-04-03T10:37:18Z</time>
      </trkpt>
      <trkpt lat="43.65387" lon="3.59154">
        <ele>104</ele>
        <time>2021-04-03T10:37:19Z</time>
      </trkpt>
      <trkpt lat="43.65389" lon="3.59145">
        <ele>104</ele>
        <time>2021-04-03T10:37:20Z</time>
      </trkpt>
      <trkpt lat="43.65391" lon="3.59136">
        <ele>104</ele>
        <time>2021-04-03T10:37:21Z</time>
      </trkpt>
      <trkpt lat="43.65393" lon="3.59128">
        <ele>104</ele>
        <time>2021-04-03T10:37:22Z</time>
      </trkpt>
      <trkpt lat="43.65397" lon="3.5911">
        <ele>103</ele>
        <time>2021-04-03T10:37:24Z</time>
      </trkpt>
      <trkpt lat="43.65401" lon="3.59093">
        <ele>103</ele>
        <time>2021-04-03T10:37:26Z</time>
      </trkpt>
      <trkpt lat="43.65404" lon="3.59075">
        <ele>103</ele>
        <time>2021-04-03T10:37:28Z</time>
      </trkpt>
      <trkpt lat="43.65409" lon="3.5906">
        <ele>103</ele>
        <time>2021-04-03T10:37:30Z</time>
      </trkpt>
      <trkpt lat="43.65412" lon="3.59052">
        <ele>103</ele>
        <time>2021-04-03T10:37:31Z</time>
      </trkpt>
      <trkpt lat="43.65415" lon="3.59045">
        <ele>103</ele>
        <time>2021-04-03T10:37:32Z</time>
      </trkpt>
      <trkpt lat="43.65418" lon="3.59038">
        <ele>100</ele>
        <time>2021-04-03T10:37:33Z</time>
      </trkpt>
      <trkpt lat="43.65421" lon="3.5903">
        <ele>100</ele>
        <time>2021-04-03T10:37:34Z</time>
      </trkpt>
      <trkpt lat="43.65424" lon="3.59023">
        <ele>100</ele>
        <time>2021-04-03T10:37:35Z</time>
      </trkpt>
      <trkpt lat="43.65428" lon="3.59016">
        <ele>100</ele>
        <time>2021-04-03T10:37:36Z</time>
      </trkpt>
      <trkpt lat="43.65432" lon="3.5901">
        <ele>100</ele>
        <time>2021-04-03T10:37:37Z</time>
      </trkpt>
      <trkpt lat="43.65435" lon="3.59005">
        <ele>100</ele>
        <time>2021-04-03T10:37:38Z</time>
      </trkpt>
      <trkpt lat="43.65438" lon="3.59001">
        <ele>100</ele>
        <time>2021-04-03T10:37:39Z</time>
      </trkpt>
      <trkpt lat="43.6544" lon="3.58997">
        <ele>100</ele>
        <time>2021-04-03T10:37:40Z</time>
      </trkpt>
      <trkpt lat="43.65442" lon="3.58994">
        <ele>100</ele>
        <time>2021-04-03T10:37:41Z</time>
      </trkpt>
      <trkpt lat="43.65444" lon="3.58991">
        <ele>100</ele>
        <time>2021-04-03T10:37:42Z</time>
      </trkpt>
      <trkpt lat="43.65445" lon="3.58989">
        <ele>100</ele>
        <time>2021-04-03T10:37:43Z</time>
      </trkpt>
      <trkpt lat="43.65447" lon="3.58988">
        <ele>100</ele>
        <time>2021-04-03T10:37:45Z</time>
      </trkpt>
      <trkpt lat="43.65447" lon="3.58985">
        <ele>100</ele>
        <time>2021-04-03T10:37:47Z</time>
      </trkpt>
      <trkpt lat="43.65447" lon="3.58982">
        <ele>100</ele>
        <time>2021-04-03T10:37:49Z</time>
      </trkpt>
      <trkpt lat="43.65448" lon="3.58979">
        <ele>100</ele>
        <time>2021-04-03T10:37:51Z</time>
      </trkpt>
      <trkpt lat="43.65449" lon="3.58976">
        <ele>97</ele>
        <time>2021-04-03T10:37:53Z</time>
      </trkpt>
      <trkpt lat="43.65448" lon="3.58974">
        <ele>97</ele>
        <time>2021-04-03T10:37:55Z</time>
      </trkpt>
      <trkpt lat="43.65447" lon="3.58977">
        <ele>97</ele>
        <time>2021-04-03T10:37:57Z</time>
      </trkpt>
      <trkpt lat="43.65448" lon="3.58981">
        <ele>97</ele>
        <time>2021-04-03T10:37:59Z</time>
      </trkpt>
      <trkpt lat="43.65448" lon="3.58984">
        <ele>97</ele>
        <time>2021-04-03T10:38:01Z</time>
      </trkpt>
      <trkpt lat="43.65449" lon="3.58987">
        <ele>97</ele>
        <time>2021-04-03T10:38:05Z</time>
      </trkpt>
      <trkpt lat="43.6545" lon="3.58998">
        <ele>93</ele>
        <time>2021-04-03T10:39:20Z</time>
      </trkpt>
      <trkpt lat="43.65451" lon="3.59003">
        <ele>93</ele>
        <time>2021-04-03T10:39:22Z</time>
      </trkpt>
      <trkpt lat="43.65453" lon="3.59007">
        <ele>93</ele>
        <time>2021-04-03T10:39:24Z</time>
      </trkpt>
      <trkpt lat="43.65454" lon="3.59011">
        <ele>93</ele>
        <time>2021-04-03T10:39:26Z</time>
      </trkpt>
      <trkpt lat="43.65456" lon="3.59014">
        <ele>93</ele>
        <time>2021-04-03T10:39:28Z</time>
      </trkpt>
      <trkpt lat="43.65459" lon="3.59017">
        <ele>94</ele>
        <time>2021-04-03T10:39:30Z</time>
      </trkpt>
      <trkpt lat="43.65461" lon="3.5902">
        <ele>94</ele>
        <time>2021-04-03T10:39:32Z</time>
      </trkpt>
      <trkpt lat="43.65463" lon="3.59022">
        <ele>94</ele>
        <time>2021-04-03T10:39:34Z</time>
      </trkpt>
      <trkpt lat="43.65466" lon="3.59024">
        <ele>94</ele>
        <time>2021-04-03T10:39:36Z</time>
      </trkpt>
      <trkpt lat="43.65468" lon="3.59026">
        <ele>94</ele>
        <time>2021-04-03T10:39:37Z</time>
      </trkpt>
      <trkpt lat="43.65469" lon="3.59027">
        <ele>94</ele>
        <time>2021-04-03T10:39:38Z</time>
      </trkpt>
      <trkpt lat="43.65471" lon="3.59028">
        <ele>94</ele>
        <time>2021-04-03T10:39:39Z</time>
      </trkpt>
      <trkpt lat="43.65474" lon="3.5903">
        <ele>95</ele>
        <time>2021-04-03T10:39:41Z</time>
      </trkpt>
      <trkpt lat="43.65477" lon="3.59032">
        <ele>95</ele>
        <time>2021-04-03T10:39:43Z</time>
      </trkpt>
      <trkpt lat="43.65479" lon="3.59034">
        <ele>95</ele>
        <time>2021-04-03T10:39:45Z</time>
      </trkpt>
      <trkpt lat="43.65482" lon="3.59035">
        <ele>95</ele>
        <time>2021-04-03T10:39:47Z</time>
      </trkpt>
      <trkpt lat="43.65485" lon="3.59037">
        <ele>95</ele>
        <time>2021-04-03T10:39:49Z</time>
      </trkpt>
      <trkpt lat="43.65488" lon="3.59039">
        <ele>97</ele>
        <time>2021-04-03T10:39:51Z</time>
      </trkpt>
      <trkpt lat="43.65491" lon="3.59042">
        <ele>97</ele>
        <time>2021-04-03T10:39:53Z</time>
      </trkpt>
      <trkpt lat="43.65494" lon="3.59044">
        <ele>97</ele>
        <time>2021-04-03T10:39:55Z</time>
      </trkpt>
      <trkpt lat="43.65497" lon="3.59045">
        <ele>97</ele>
        <time>2021-04-03T10:39:57Z</time>
      </trkpt>
      <trkpt lat="43.65499" lon="3.59047">
        <ele>97</ele>
        <time>2021-04-03T10:39:59Z</time>
      </trkpt>
      <trkpt lat="43.65502" lon="3.59049">
        <ele>97</ele>
        <time>2021-04-03T10:40:01Z</time>
      </trkpt>
      <trkpt lat="43.65504" lon="3.59052">
        <ele>97</ele>
        <time>2021-04-03T10:40:03Z</time>
      </trkpt>
      <trkpt lat="43.65506" lon="3.59054">
        <ele>97</ele>
        <time>2021-04-03T10:40:05Z</time>
      </trkpt>
      <trkpt lat="43.65508" lon="3.59057">
        <ele>97</ele>
        <time>2021-04-03T10:40:07Z</time>
      </trkpt>
      <trkpt lat="43.65511" lon="3.5906">
        <ele>97</ele>
        <time>2021-04-03T10:40:09Z</time>
      </trkpt>
      <trkpt lat="43.65513" lon="3.59064">
        <ele>97</ele>
        <time>2021-04-03T10:40:11Z</time>
      </trkpt>
      <trkpt lat="43.65514" lon="3.59068">
        <ele>97</ele>
        <time>2021-04-03T10:40:13Z</time>
      </trkpt>
      <trkpt lat="43.65515" lon="3.59072">
        <ele>97</ele>
        <time>2021-04-03T10:40:15Z</time>
      </trkpt>
      <trkpt lat="43.65516" lon="3.59077">
        <ele>97</ele>
        <time>2021-04-03T10:40:17Z</time>
      </trkpt>
      <trkpt lat="43.65516" lon="3.59081">
        <ele>97</ele>
        <time>2021-04-03T10:40:19Z</time>
      </trkpt>
      <trkpt lat="43.65516" lon="3.59086">
        <ele>97</ele>
        <time>2021-04-03T10:40:21Z</time>
      </trkpt>
      <trkpt lat="43.65516" lon="3.59091">
        <ele>97</ele>
        <time>2021-04-03T10:40:23Z</time>
      </trkpt>
      <trkpt lat="43.65515" lon="3.59095">
        <ele>97</ele>
        <time>2021-04-03T10:40:25Z</time>
      </trkpt>
      <trkpt lat="43.65514" lon="3.59099">
        <ele>97</ele>
        <time>2021-04-03T10:40:27Z</time>
      </trkpt>
      <trkpt lat="43.65512" lon="3.59103">
        <ele>97</ele>
        <time>2021-04-03T10:40:29Z</time>
      </trkpt>
      <trkpt lat="43.65511" lon="3.59106">
        <ele>104</ele>
        <time>2021-04-03T10:40:31Z</time>
      </trkpt>
      <trkpt lat="43.6551" lon="3.5911">
        <ele>104</ele>
        <time>2021-04-03T10:40:33Z</time>
      </trkpt>
      <trkpt lat="43.65508" lon="3.59114">
        <ele>104</ele>
        <time>2021-04-03T10:40:35Z</time>
      </trkpt>
      <trkpt lat="43.65506" lon="3.59117">
        <ele>104</ele>
        <time>2021-04-03T10:40:37Z</time>
      </trkpt>
      <trkpt lat="43.65504" lon="3.59121">
        <ele>104</ele>
        <time>2021-04-03T10:40:39Z</time>
      </trkpt>
      <trkpt lat="43.65502" lon="3.59124">
        <ele>104</ele>
        <time>2021-04-03T10:40:41Z</time>
      </trkpt>
      <trkpt lat="43.65499" lon="3.59128">
        <ele>104</ele>
        <time>2021-04-03T10:40:43Z</time>
      </trkpt>
      <trkpt lat="43.65497" lon="3.59131">
        <ele>104</ele>
        <time>2021-04-03T10:40:45Z</time>
      </trkpt>
      <trkpt lat="43.65495" lon="3.59135">
        <ele>104</ele>
        <time>2021-04-03T10:40:47Z</time>
      </trkpt>
      <trkpt lat="43.65494" lon="3.59138">
        <ele>104</ele>
        <time>2021-04-03T10:40:49Z</time>
      </trkpt>
      <trkpt lat="43.65492" lon="3.59142">
        <ele>104</ele>
        <time>2021-04-03T10:40:51Z</time>
      </trkpt>
      <trkpt lat="43.6549" lon="3.59145">
        <ele>104</ele>
        <time>2021-04-03T10:40:53Z</time>
      </trkpt>
      <trkpt lat="43.65489" lon="3.59148">
        <ele>104</ele>
        <time>2021-04-03T10:40:55Z</time>
      </trkpt>
      <trkpt lat="43.65487" lon="3.59152">
        <ele>104</ele>
        <time>2021-04-03T10:40:57Z</time>
      </trkpt>
      <trkpt lat="43.65485" lon="3.59155">
        <ele>104</ele>
        <time>2021-04-03T10:40:59Z</time>
      </trkpt>
      <trkpt lat="43.65483" lon="3.59158">
        <ele>108</ele>
        <time>2021-04-03T10:41:01Z</time>
      </trkpt>
      <trkpt lat="43.65482" lon="3.59161">
        <ele>108</ele>
        <time>2021-04-03T10:41:03Z</time>
      </trkpt>
      <trkpt lat="43.6548" lon="3.59164">
        <ele>108</ele>
        <time>2021-04-03T10:41:05Z</time>
      </trkpt>
      <trkpt lat="43.65478" lon="3.59167">
        <ele>108</ele>
        <time>2021-04-03T10:41:07Z</time>
      </trkpt>
      <trkpt lat="43.65476" lon="3.5917">
        <ele>108</ele>
        <time>2021-04-03T10:41:09Z</time>
      </trkpt>
      <trkpt lat="43.65475" lon="3.59173">
        <ele>108</ele>
        <time>2021-04-03T10:41:11Z</time>
      </trkpt>
      <trkpt lat="43.65473" lon="3.59176">
        <ele>108</ele>
        <time>2021-04-03T10:41:13Z</time>
      </trkpt>
      <trkpt lat="43.65472" lon="3.59179">
        <ele>108</ele>
        <time>2021-04-03T10:41:15Z</time>
      </trkpt>
      <trkpt lat="43.6547" lon="3.59182">
        <ele>108</ele>
        <time>2021-04-03T10:41:17Z</time>
      </trkpt>
      <trkpt lat="43.65469" lon="3.59185">
        <ele>108</ele>
        <time>2021-04-03T10:41:19Z</time>
      </trkpt>
      <trkpt lat="43.65467" lon="3.59189">
        <ele>108</ele>
        <time>2021-04-03T10:41:21Z</time>
      </trkpt>
      <trkpt lat="43.65466" lon="3.59192">
        <ele>108</ele>
        <time>2021-04-03T10:41:23Z</time>
      </trkpt>
      <trkpt lat="43.65464" lon="3.59195">
        <ele>108</ele>
        <time>2021-04-03T10:41:25Z</time>
      </trkpt>
      <trkpt lat="43.65463" lon="3.59198">
        <ele>108</ele>
        <time>2021-04-03T10:41:27Z</time>
      </trkpt>
      <trkpt lat="43.65462" lon="3.59201">
        <ele>108</ele>
        <time>2021-04-03T10:41:29Z</time>
      </trkpt>
      <trkpt lat="43.65461" lon="3.59204">
        <ele>112</ele>
        <time>2021-04-03T10:41:31Z</time>
      </trkpt>
      <trkpt lat="43.6546" lon="3.59208">
        <ele>112</ele>
        <time>2021-04-03T10:41:33Z</time>
      </trkpt>
      <trkpt lat="43.65459" lon="3.59212">
        <ele>112</ele>
        <time>2021-04-03T10:41:35Z</time>
      </trkpt>
      <trkpt lat="43.65459" lon="3.59215">
        <ele>112</ele>
        <time>2021-04-03T10:41:37Z</time>
      </trkpt>
      <trkpt lat="43.65458" lon="3.59218">
        <ele>112</ele>
        <time>2021-04-03T10:41:39Z</time>
      </trkpt>
      <trkpt lat="43.65458" lon="3.59222">
        <ele>112</ele>
        <time>2021-04-03T10:41:41Z</time>
      </trkpt>
      <trkpt lat="43.65457" lon="3.59225">
        <ele>112</ele>
        <time>2021-04-03T10:41:43Z</time>
      </trkpt>
      <trkpt lat="43.65456" lon="3.59228">
        <ele>112</ele>
        <time>2021-04-03T10:41:45Z</time>
      </trkpt>
      <trkpt lat="43.65455" lon="3.59232">
        <ele>112</ele>
        <time>2021-04-03T10:41:47Z</time>
      </trkpt>
      <trkpt lat="43.65454" lon="3.59235">
        <ele>112</ele>
        <time>2021-04-03T10:41:49Z</time>
      </trkpt>
      <trkpt lat="43.65453" lon="3.59238">
        <ele>112</ele>
        <time>2021-04-03T10:41:51Z</time>
      </trkpt>
      <trkpt lat="43.65452" lon="3.59241">
        <ele>112</ele>
        <time>2021-04-03T10:41:53Z</time>
      </trkpt>
      <trkpt lat="43.65452" lon="3.59244">
        <ele>112</ele>
        <time>2021-04-03T10:41:55Z</time>
      </trkpt>
      <trkpt lat="43.6545" lon="3.59248">
        <ele>112</ele>
        <time>2021-04-03T10:41:57Z</time>
      </trkpt>
      <trkpt lat="43.65449" lon="3.5925">
        <ele>112</ele>
        <time>2021-04-03T10:41:59Z</time>
      </trkpt>
      <trkpt lat="43.65447" lon="3.59253">
        <ele>117</ele>
        <time>2021-04-03T10:42:01Z</time>
      </trkpt>
      <trkpt lat="43.65446" lon="3.59257">
        <ele>117</ele>
        <time>2021-04-03T10:42:03Z</time>
      </trkpt>
      <trkpt lat="43.65446" lon="3.5926">
        <ele>117</ele>
        <time>2021-04-03T10:42:05Z</time>
      </trkpt>
      <trkpt lat="43.65446" lon="3.59263">
        <ele>117</ele>
        <time>2021-04-03T10:42:07Z</time>
      </trkpt>
      <trkpt lat="43.65445" lon="3.59267">
        <ele>117</ele>
        <time>2021-04-03T10:42:09Z</time>
      </trkpt>
      <trkpt lat="43.65445" lon="3.5927">
        <ele>117</ele>
        <time>2021-04-03T10:42:11Z</time>
      </trkpt>
      <trkpt lat="43.65444" lon="3.59272">
        <ele>117</ele>
        <time>2021-04-03T10:42:13Z</time>
      </trkpt>
      <trkpt lat="43.65443" lon="3.59276">
        <ele>117</ele>
        <time>2021-04-03T10:42:16Z</time>
      </trkpt>
      <trkpt lat="43.65442" lon="3.59279">
        <ele>117</ele>
        <time>2021-04-03T10:42:18Z</time>
      </trkpt>
      <trkpt lat="43.65442" lon="3.59281">
        <ele>117</ele>
        <time>2021-04-03T10:42:20Z</time>
      </trkpt>
      <trkpt lat="43.65441" lon="3.59285">
        <ele>117</ele>
        <time>2021-04-03T10:42:23Z</time>
      </trkpt>
      <trkpt lat="43.65442" lon="3.59289">
        <ele>117</ele>
        <time>2021-04-03T10:42:25Z</time>
      </trkpt>
      <trkpt lat="43.65442" lon="3.59293">
        <ele>117</ele>
        <time>2021-04-03T10:42:27Z</time>
      </trkpt>
      <trkpt lat="43.65441" lon="3.59297">
        <ele>117</ele>
        <time>2021-04-03T10:42:29Z</time>
      </trkpt>
      <trkpt lat="43.65441" lon="3.59301">
        <ele>117</ele>
        <time>2021-04-03T10:42:31Z</time>
      </trkpt>
      <trkpt lat="43.65441" lon="3.59305">
        <ele>117</ele>
        <time>2021-04-03T10:42:33Z</time>
      </trkpt>
      <trkpt lat="43.65441" lon="3.59308">
        <ele>117</ele>
        <time>2021-04-03T10:42:35Z</time>
      </trkpt>
      <trkpt lat="43.65441" lon="3.59311">
        <ele>117</ele>
        <time>2021-04-03T10:42:37Z</time>
      </trkpt>
      <trkpt lat="43.65441" lon="3.59314">
        <ele>117</ele>
        <time>2021-04-03T10:42:39Z</time>
      </trkpt>
      <trkpt lat="43.65441" lon="3.59317">
        <ele>123</ele>
        <time>2021-04-03T10:42:41Z</time>
      </trkpt>
      <trkpt lat="43.6544" lon="3.5932">
        <ele>123</ele>
        <time>2021-04-03T10:42:43Z</time>
      </trkpt>
      <trkpt lat="43.6544" lon="3.59323">
        <ele>123</ele>
        <time>2021-04-03T10:42:45Z</time>
      </trkpt>
      <trkpt lat="43.65439" lon="3.59327">
        <ele>123</ele>
        <time>2021-04-03T10:42:47Z</time>
      </trkpt>
      <trkpt lat="43.65439" lon="3.5933">
        <ele>123</ele>
        <time>2021-04-03T10:42:49Z</time>
      </trkpt>
      <trkpt lat="43.65438" lon="3.59333">
        <ele>126</ele>
        <time>2021-04-03T10:42:51Z</time>
      </trkpt>
      <trkpt lat="43.65438" lon="3.59336">
        <ele>126</ele>
        <time>2021-04-03T10:42:53Z</time>
      </trkpt>
      <trkpt lat="43.65438" lon="3.5934">
        <ele>126</ele>
        <time>2021-04-03T10:42:55Z</time>
      </trkpt>
      <trkpt lat="43.65437" lon="3.59343">
        <ele>126</ele>
        <time>2021-04-03T10:42:57Z</time>
      </trkpt>
      <trkpt lat="43.65437" lon="3.59346">
        <ele>126</ele>
        <time>2021-04-03T10:42:59Z</time>
      </trkpt>
      <trkpt lat="43.65437" lon="3.5935">
        <ele>126</ele>
        <time>2021-04-03T10:43:01Z</time>
      </trkpt>
      <trkpt lat="43.65437" lon="3.59354">
        <ele>126</ele>
        <time>2021-04-03T10:43:03Z</time>
      </trkpt>
      <trkpt lat="43.65436" lon="3.59357">
        <ele>126</ele>
        <time>2021-04-03T10:43:05Z</time>
      </trkpt>
      <trkpt lat="43.65436" lon="3.59361">
        <ele>126</ele>
        <time>2021-04-03T10:43:07Z</time>
      </trkpt>
      <trkpt lat="43.65436" lon="3.59364">
        <ele>126</ele>
        <time>2021-04-03T10:43:09Z</time>
      </trkpt>
      <trkpt lat="43.65436" lon="3.59368">
        <ele>126</ele>
        <time>2021-04-03T10:43:11Z</time>
      </trkpt>
      <trkpt lat="43.65437" lon="3.59372">
        <ele>126</ele>
        <time>2021-04-03T10:43:13Z</time>
      </trkpt>
      <trkpt lat="43.65437" lon="3.59376">
        <ele>126</ele>
        <time>2021-04-03T10:43:15Z</time>
      </trkpt>
      <trkpt lat="43.65437" lon="3.59379">
        <ele>126</ele>
        <time>2021-04-03T10:43:17Z</time>
      </trkpt>
      <trkpt lat="43.65437" lon="3.59383">
        <ele>126</ele>
        <time>2021-04-03T10:43:19Z</time>
      </trkpt>
      <trkpt lat="43.65437" lon="3.59386">
        <ele>126</ele>
        <time>2021-04-03T10:43:21Z</time>
      </trkpt>
      <trkpt lat="43.65438" lon="3.59388">
        <ele>126</ele>
        <time>2021-04-03T10:43:23Z</time>
      </trkpt>
      <trkpt lat="43.65439" lon="3.59391">
        <ele>126</ele>
        <time>2021-04-03T10:43:25Z</time>
      </trkpt>
      <trkpt lat="43.65441" lon="3.59394">
        <ele>126</ele>
        <time>2021-04-03T10:43:28Z</time>
      </trkpt>
      <trkpt lat="43.65442" lon="3.59396">
        <ele>132</ele>
        <time>2021-04-03T10:43:30Z</time>
      </trkpt>
      <trkpt lat="43.65445" lon="3.59399">
        <ele>132</ele>
        <time>2021-04-03T10:43:32Z</time>
      </trkpt>
      <trkpt lat="43.65447" lon="3.59401">
        <ele>132</ele>
        <time>2021-04-03T10:43:34Z</time>
      </trkpt>
      <trkpt lat="43.65449" lon="3.59404">
        <ele>132</ele>
        <time>2021-04-03T10:43:36Z</time>
      </trkpt>
      <trkpt lat="43.65451" lon="3.59406">
        <ele>132</ele>
        <time>2021-04-03T10:43:38Z</time>
      </trkpt>
      <trkpt lat="43.65452" lon="3.59408">
        <ele>134</ele>
        <time>2021-04-03T10:43:40Z</time>
      </trkpt>
      <trkpt lat="43.65454" lon="3.59411">
        <ele>134</ele>
        <time>2021-04-03T10:43:42Z</time>
      </trkpt>
      <trkpt lat="43.65456" lon="3.59414">
        <ele>134</ele>
        <time>2021-04-03T10:43:44Z</time>
      </trkpt>
      <trkpt lat="43.65458" lon="3.59417">
        <ele>134</ele>
        <time>2021-04-03T10:43:46Z</time>
      </trkpt>
      <trkpt lat="43.65459" lon="3.5942">
        <ele>134</ele>
        <time>2021-04-03T10:43:48Z</time>
      </trkpt>
      <trkpt lat="43.6546" lon="3.59423">
        <ele>135</ele>
        <time>2021-04-03T10:43:50Z</time>
      </trkpt>
      <trkpt lat="43.6546" lon="3.59427">
        <ele>135</ele>
        <time>2021-04-03T10:43:52Z</time>
      </trkpt>
      <trkpt lat="43.65461" lon="3.5943">
        <ele>135</ele>
        <time>2021-04-03T10:43:54Z</time>
      </trkpt>
      <trkpt lat="43.6546" lon="3.59433">
        <ele>135</ele>
        <time>2021-04-03T10:43:56Z</time>
      </trkpt>
      <trkpt lat="43.6546" lon="3.59436">
        <ele>135</ele>
        <time>2021-04-03T10:43:58Z</time>
      </trkpt>
      <trkpt lat="43.65459" lon="3.5944">
        <ele>135</ele>
        <time>2021-04-03T10:44:00Z</time>
      </trkpt>
      <trkpt lat="43.65459" lon="3.59443">
        <ele>135</ele>
        <time>2021-04-03T10:44:02Z</time>
      </trkpt>
      <trkpt lat="43.65458" lon="3.59446">
        <ele>135</ele>
        <time>2021-04-03T10:44:04Z</time>
      </trkpt>
      <trkpt lat="43.65456" lon="3.59449">
        <ele>135</ele>
        <time>2021-04-03T10:44:06Z</time>
      </trkpt>
      <trkpt lat="43.65455" lon="3.59452">
        <ele>135</ele>
        <time>2021-04-03T10:44:08Z</time>
      </trkpt>
      <trkpt lat="43.65454" lon="3.59455">
        <ele>141</ele>
        <time>2021-04-03T10:44:10Z</time>
      </trkpt>
      <trkpt lat="43.65454" lon="3.59458">
        <ele>141</ele>
        <time>2021-04-03T10:44:12Z</time>
      </trkpt>
      <trkpt lat="43.65453" lon="3.59461">
        <ele>141</ele>
        <time>2021-04-03T10:44:14Z</time>
      </trkpt>
      <trkpt lat="43.65452" lon="3.59464">
        <ele>141</ele>
        <time>2021-04-03T10:44:16Z</time>
      </trkpt>
      <trkpt lat="43.65451" lon="3.59467">
        <ele>141</ele>
        <time>2021-04-03T10:44:18Z</time>
      </trkpt>
      <trkpt lat="43.6545" lon="3.5947">
        <ele>143</ele>
        <time>2021-04-03T10:44:20Z</time>
      </trkpt>
      <trkpt lat="43.6545" lon="3.59474">
        <ele>143</ele>
        <time>2021-04-03T10:44:22Z</time>
      </trkpt>
      <trkpt lat="43.6545" lon="3.59478">
        <ele>143</ele>
        <time>2021-04-03T10:44:24Z</time>
      </trkpt>
      <trkpt lat="43.6545" lon="3.59481">
        <ele>143</ele>
        <time>2021-04-03T10:44:26Z</time>
      </trkpt>
      <trkpt lat="43.65451" lon="3.59485">
        <ele>143</ele>
        <time>2021-04-03T10:44:28Z</time>
      </trkpt>
      <trkpt lat="43.65452" lon="3.59488">
        <ele>143</ele>
        <time>2021-04-03T10:44:30Z</time>
      </trkpt>
      <trkpt lat="43.65453" lon="3.59491">
        <ele>143</ele>
        <time>2021-04-03T10:44:32Z</time>
      </trkpt>
      <trkpt lat="43.65455" lon="3.59494">
        <ele>143</ele>
        <time>2021-04-03T10:44:34Z</time>
      </trkpt>
      <trkpt lat="43.65456" lon="3.59497">
        <ele>143</ele>
        <time>2021-04-03T10:44:36Z</time>
      </trkpt>
      <trkpt lat="43.65458" lon="3.59499">
        <ele>143</ele>
        <time>2021-04-03T10:44:38Z</time>
      </trkpt>
      <trkpt lat="43.65459" lon="3.59502">
        <ele>146</ele>
        <time>2021-04-03T10:44:40Z</time>
      </trkpt>
      <trkpt lat="43.6546" lon="3.59505">
        <ele>146</ele>
        <time>2021-04-03T10:44:42Z</time>
      </trkpt>
      <trkpt lat="43.65462" lon="3.59507">
        <ele>146</ele>
        <time>2021-04-03T10:44:44Z</time>
      </trkpt>
      <trkpt lat="43.65464" lon="3.59509">
        <ele>146</ele>
        <time>2021-04-03T10:44:46Z</time>
      </trkpt>
      <trkpt lat="43.65465" lon="3.59511">
        <ele>146</ele>
        <time>2021-04-03T10:44:49Z</time>
      </trkpt>
      <trkpt lat="43.65467" lon="3.59514">
        <ele>146</ele>
        <time>2021-04-03T10:44:52Z</time>
      </trkpt>
      <trkpt lat="43.65469" lon="3.59516">
        <ele>146</ele>
        <time>2021-04-03T10:44:54Z</time>
      </trkpt>
      <trkpt lat="43.6547" lon="3.59518">
        <ele>146</ele>
        <time>2021-04-03T10:44:56Z</time>
      </trkpt>
      <trkpt lat="43.65471" lon="3.59521">
        <ele>146</ele>
        <time>2021-04-03T10:44:58Z</time>
      </trkpt>
      <trkpt lat="43.65471" lon="3.59523">
        <ele>146</ele>
        <time>2021-04-03T10:45:00Z</time>
      </trkpt>
      <trkpt lat="43.65471" lon="3.59527">
        <ele>146</ele>
        <time>2021-04-03T10:45:02Z</time>
      </trkpt>
      <trkpt lat="43.65473" lon="3.59529">
        <ele>146</ele>
        <time>2021-04-03T10:45:04Z</time>
      </trkpt>
      <trkpt lat="43.65474" lon="3.59532">
        <ele>146</ele>
        <time>2021-04-03T10:45:06Z</time>
      </trkpt>
      <trkpt lat="43.65475" lon="3.59534">
        <ele>146</ele>
        <time>2021-04-03T10:45:08Z</time>
      </trkpt>
      <trkpt lat="43.65477" lon="3.59537">
        <ele>150</ele>
        <time>2021-04-03T10:45:10Z</time>
      </trkpt>
      <trkpt lat="43.65479" lon="3.5954">
        <ele>150</ele>
        <time>2021-04-03T10:45:12Z</time>
      </trkpt>
      <trkpt lat="43.6548" lon="3.59543">
        <ele>150</ele>
        <time>2021-04-03T10:45:14Z</time>
      </trkpt>
      <trkpt lat="43.65482" lon="3.59546">
        <ele>150</ele>
        <time>2021-04-03T10:45:16Z</time>
      </trkpt>
      <trkpt lat="43.65484" lon="3.59548">
        <ele>150</ele>
        <time>2021-04-03T10:45:18Z</time>
      </trkpt>
      <trkpt lat="43.65485" lon="3.5955">
        <ele>151</ele>
        <time>2021-04-03T10:45:20Z</time>
      </trkpt>
      <trkpt lat="43.65487" lon="3.59553">
        <ele>151</ele>
        <time>2021-04-03T10:45:22Z</time>
      </trkpt>
      <trkpt lat="43.65489" lon="3.59555">
        <ele>151</ele>
        <time>2021-04-03T10:45:24Z</time>
      </trkpt>
      <trkpt lat="43.65491" lon="3.59558">
        <ele>151</ele>
        <time>2021-04-03T10:45:26Z</time>
      </trkpt>
      <trkpt lat="43.65492" lon="3.5956">
        <ele>151</ele>
        <time>2021-04-03T10:45:28Z</time>
      </trkpt>
      <trkpt lat="43.65494" lon="3.59563">
        <ele>151</ele>
        <time>2021-04-03T10:45:30Z</time>
      </trkpt>
      <trkpt lat="43.65496" lon="3.59567">
        <ele>151</ele>
        <time>2021-04-03T10:45:32Z</time>
      </trkpt>
      <trkpt lat="43.65498" lon="3.59569">
        <ele>151</ele>
        <time>2021-04-03T10:45:34Z</time>
      </trkpt>
      <trkpt lat="43.655" lon="3.59572">
        <ele>151</ele>
        <time>2021-04-03T10:45:36Z</time>
      </trkpt>
      <trkpt lat="43.65501" lon="3.59575">
        <ele>151</ele>
        <time>2021-04-03T10:45:38Z</time>
      </trkpt>
      <trkpt lat="43.65503" lon="3.59578">
        <ele>154</ele>
        <time>2021-04-03T10:45:40Z</time>
      </trkpt>
      <trkpt lat="43.65504" lon="3.5958">
        <ele>154</ele>
        <time>2021-04-03T10:45:42Z</time>
      </trkpt>
      <trkpt lat="43.65506" lon="3.59583">
        <ele>154</ele>
        <time>2021-04-03T10:45:44Z</time>
      </trkpt>
      <trkpt lat="43.65508" lon="3.59585">
        <ele>154</ele>
        <time>2021-04-03T10:45:46Z</time>
      </trkpt>
      <trkpt lat="43.6551" lon="3.59588">
        <ele>154</ele>
        <time>2021-04-03T10:45:48Z</time>
      </trkpt>
      <trkpt lat="43.65511" lon="3.5959">
        <ele>155</ele>
        <time>2021-04-03T10:45:50Z</time>
      </trkpt>
      <trkpt lat="43.65513" lon="3.59593">
        <ele>155</ele>
        <time>2021-04-03T10:45:52Z</time>
      </trkpt>
      <trkpt lat="43.65514" lon="3.59596">
        <ele>155</ele>
        <time>2021-04-03T10:45:54Z</time>
      </trkpt>
      <trkpt lat="43.65516" lon="3.59599">
        <ele>155</ele>
        <time>2021-04-03T10:45:56Z</time>
      </trkpt>
      <trkpt lat="43.65517" lon="3.59601">
        <ele>155</ele>
        <time>2021-04-03T10:45:58Z</time>
      </trkpt>
      <trkpt lat="43.65518" lon="3.59604">
        <ele>155</ele>
        <time>2021-04-03T10:46:00Z</time>
      </trkpt>
      <trkpt lat="43.6552" lon="3.59607">
        <ele>155</ele>
        <time>2021-04-03T10:46:02Z</time>
      </trkpt>
      <trkpt lat="43.65522" lon="3.59609">
        <ele>155</ele>
        <time>2021-04-03T10:46:04Z</time>
      </trkpt>
      <trkpt lat="43.65523" lon="3.59612">
        <ele>155</ele>
        <time>2021-04-03T10:46:06Z</time>
      </trkpt>
      <trkpt lat="43.65524" lon="3.59614">
        <ele>155</ele>
        <time>2021-04-03T10:46:08Z</time>
      </trkpt>
      <trkpt lat="43.65525" lon="3.59616">
        <ele>159</ele>
        <time>2021-04-03T10:46:10Z</time>
      </trkpt>
      <trkpt lat="43.65527" lon="3.59618">
        <ele>159</ele>
        <time>2021-04-03T10:46:12Z</time>
      </trkpt>
      <trkpt lat="43.65529" lon="3.59621">
        <ele>159</ele>
        <time>2021-04-03T10:46:14Z</time>
      </trkpt>
      <trkpt lat="43.65531" lon="3.59623">
        <ele>159</ele>
        <time>2021-04-03T10:46:16Z</time>
      </trkpt>
      <trkpt lat="43.65533" lon="3.59626">
        <ele>159</ele>
        <time>2021-04-03T10:46:18Z</time>
      </trkpt>
      <trkpt lat="43.65534" lon="3.59629">
        <ele>159</ele>
        <time>2021-04-03T10:46:20Z</time>
      </trkpt>
      <trkpt lat="43.65535" lon="3.59631">
        <ele>159</ele>
        <time>2021-04-03T10:46:22Z</time>
      </trkpt>
      <trkpt lat="43.65537" lon="3.59634">
        <ele>159</ele>
        <time>2021-04-03T10:46:24Z</time>
      </trkpt>
      <trkpt lat="43.65539" lon="3.59637">
        <ele>159</ele>
        <time>2021-04-03T10:46:26Z</time>
      </trkpt>
      <trkpt lat="43.65541" lon="3.59639">
        <ele>159</ele>
        <time>2021-04-03T10:46:28Z</time>
      </trkpt>
      <trkpt lat="43.65543" lon="3.59641">
        <ele>159</ele>
        <time>2021-04-03T10:46:30Z</time>
      </trkpt>
      <trkpt lat="43.65545" lon="3.59643">
        <ele>159</ele>
        <time>2021-04-03T10:46:32Z</time>
      </trkpt>
      <trkpt lat="43.65547" lon="3.59644">
        <ele>159</ele>
        <time>2021-04-03T10:46:34Z</time>
      </trkpt>
      <trkpt lat="43.65549" lon="3.59647">
        <ele>159</ele>
        <time>2021-04-03T10:46:36Z</time>
      </trkpt>
      <trkpt lat="43.65551" lon="3.59649">
        <ele>159</ele>
        <time>2021-04-03T10:46:38Z</time>
      </trkpt>
      <trkpt lat="43.65553" lon="3.59653">
        <ele>161</ele>
        <time>2021-04-03T10:46:40Z</time>
      </trkpt>
      <trkpt lat="43.65555" lon="3.59657">
        <ele>161</ele>
        <time>2021-04-03T10:46:42Z</time>
      </trkpt>
      <trkpt lat="43.65557" lon="3.59661">
        <ele>161</ele>
        <time>2021-04-03T10:46:44Z</time>
      </trkpt>
      <trkpt lat="43.65558" lon="3.59664">
        <ele>161</ele>
        <time>2021-04-03T10:46:45Z</time>
      </trkpt>
      <trkpt lat="43.6556" lon="3.59668">
        <ele>161</ele>
        <time>2021-04-03T10:46:46Z</time>
      </trkpt>
      <trkpt lat="43.65562" lon="3.59671">
        <ele>161</ele>
        <time>2021-04-03T10:46:47Z</time>
      </trkpt>
      <trkpt lat="43.65564" lon="3.59675">
        <ele>161</ele>
        <time>2021-04-03T10:46:48Z</time>
      </trkpt>
      <trkpt lat="43.65565" lon="3.59677">
        <ele>161</ele>
        <time>2021-04-03T10:46:49Z</time>
      </trkpt>
      <trkpt lat="43.65567" lon="3.5968">
        <ele>163</ele>
        <time>2021-04-03T10:46:50Z</time>
      </trkpt>
      <trkpt lat="43.65568" lon="3.59682">
        <ele>163</ele>
        <time>2021-04-03T10:46:51Z</time>
      </trkpt>
      <trkpt lat="43.6557" lon="3.59684">
        <ele>163</ele>
        <time>2021-04-03T10:46:52Z</time>
      </trkpt>
      <trkpt lat="43.65571" lon="3.59686">
        <ele>163</ele>
        <time>2021-04-03T10:46:53Z</time>
      </trkpt>
      <trkpt lat="43.65572" lon="3.59687">
        <ele>163</ele>
        <time>2021-04-03T10:46:54Z</time>
      </trkpt>
      <trkpt lat="43.65575" lon="3.59691">
        <ele>163</ele>
        <time>2021-04-03T10:46:56Z</time>
      </trkpt>
      <trkpt lat="43.65577" lon="3.59694">
        <ele>163</ele>
        <time>2021-04-03T10:46:58Z</time>
      </trkpt>
      <trkpt lat="43.65579" lon="3.59695">
        <ele>163</ele>
        <time>2021-04-03T10:46:59Z</time>
      </trkpt>
      <trkpt lat="43.6558" lon="3.59697">
        <ele>165</ele>
        <time>2021-04-03T10:47:00Z</time>
      </trkpt>
      <trkpt lat="43.65582" lon="3.59698">
        <ele>165</ele>
        <time>2021-04-03T10:47:01Z</time>
      </trkpt>
      <trkpt lat="43.65583" lon="3.597">
        <ele>165</ele>
        <time>2021-04-03T10:47:02Z</time>
      </trkpt>
      <trkpt lat="43.65585" lon="3.59701">
        <ele>165</ele>
        <time>2021-04-03T10:47:03Z</time>
      </trkpt>
      <trkpt lat="43.65586" lon="3.59703">
        <ele>165</ele>
        <time>2021-04-03T10:47:04Z</time>
      </trkpt>
      <trkpt lat="43.65588" lon="3.59704">
        <ele>165</ele>
        <time>2021-04-03T10:47:05Z</time>
      </trkpt>
      <trkpt lat="43.6559" lon="3.59705">
        <ele>165</ele>
        <time>2021-04-03T10:47:06Z</time>
      </trkpt>
      <trkpt lat="43.65591" lon="3.59707">
        <ele>165</ele>
        <time>2021-04-03T10:47:07Z</time>
      </trkpt>
      <trkpt lat="43.65593" lon="3.59709">
        <ele>165</ele>
        <time>2021-04-03T10:47:08Z</time>
      </trkpt>
      <trkpt lat="43.65595" lon="3.5971">
        <ele>165</ele>
        <time>2021-04-03T10:47:09Z</time>
      </trkpt>
      <trkpt lat="43.65597" lon="3.59712">
        <ele>165</ele>
        <time>2021-04-03T10:47:10Z</time>
      </trkpt>
      <trkpt lat="43.65598" lon="3.59714">
        <ele>166</ele>
        <time>2021-04-03T10:47:11Z</time>
      </trkpt>
      <trkpt lat="43.656" lon="3.59716">
        <ele>166</ele>
        <time>2021-04-03T10:47:12Z</time>
      </trkpt>
      <trkpt lat="43.65601" lon="3.59717">
        <ele>166</ele>
        <time>2021-04-03T10:47:13Z</time>
      </trkpt>
      <trkpt lat="43.65603" lon="3.59719">
        <ele>166</ele>
        <time>2021-04-03T10:47:14Z</time>
      </trkpt>
      <trkpt lat="43.65604" lon="3.5972">
        <ele>166</ele>
        <time>2021-04-03T10:47:15Z</time>
      </trkpt>
      <trkpt lat="43.65606" lon="3.59723">
        <ele>166</ele>
        <time>2021-04-03T10:47:16Z</time>
      </trkpt>
      <trkpt lat="43.65608" lon="3.59725">
        <ele>166</ele>
        <time>2021-04-03T10:47:17Z</time>
      </trkpt>
      <trkpt lat="43.65609" lon="3.59727">
        <ele>166</ele>
        <time>2021-04-03T10:47:18Z</time>
      </trkpt>
      <trkpt lat="43.65611" lon="3.59729">
        <ele>166</ele>
        <time>2021-04-03T10:47:19Z</time>
      </trkpt>
      <trkpt lat="43.65612" lon="3.59731">
        <ele>166</ele>
        <time>2021-04-03T10:47:20Z</time>
      </trkpt>
      <trkpt lat="43.65613" lon="3.59734">
        <ele>167</ele>
        <time>2021-04-03T10:47:21Z</time>
      </trkpt>
      <trkpt lat="43.65615" lon="3.59736">
        <ele>167</ele>
        <time>2021-04-03T10:47:22Z</time>
      </trkpt>
      <trkpt lat="43.65616" lon="3.59739">
        <ele>167</ele>
        <time>2021-04-03T10:47:23Z</time>
      </trkpt>
      <trkpt lat="43.65617" lon="3.59742">
        <ele>167</ele>
        <time>2021-04-03T10:47:24Z</time>
      </trkpt>
      <trkpt lat="43.65618" lon="3.59745">
        <ele>167</ele>
        <time>2021-04-03T10:47:25Z</time>
      </trkpt>
      <trkpt lat="43.65619" lon="3.59748">
        <ele>167</ele>
        <time>2021-04-03T10:47:26Z</time>
      </trkpt>
      <trkpt lat="43.65619" lon="3.59751">
        <ele>167</ele>
        <time>2021-04-03T10:47:27Z</time>
      </trkpt>
      <trkpt lat="43.6562" lon="3.59754">
        <ele>167</ele>
        <time>2021-04-03T10:47:28Z</time>
      </trkpt>
      <trkpt lat="43.6562" lon="3.59757">
        <ele>167</ele>
        <time>2021-04-03T10:47:29Z</time>
      </trkpt>
      <trkpt lat="43.6562" lon="3.5976">
        <ele>169</ele>
        <time>2021-04-03T10:47:30Z</time>
      </trkpt>
      <trkpt lat="43.6562" lon="3.59763">
        <ele>169</ele>
        <time>2021-04-03T10:47:31Z</time>
      </trkpt>
      <trkpt lat="43.65619" lon="3.59767">
        <ele>169</ele>
        <time>2021-04-03T10:47:32Z</time>
      </trkpt>
      <trkpt lat="43.65619" lon="3.5977">
        <ele>169</ele>
        <time>2021-04-03T10:47:33Z</time>
      </trkpt>
      <trkpt lat="43.65619" lon="3.59773">
        <ele>169</ele>
        <time>2021-04-03T10:47:34Z</time>
      </trkpt>
      <trkpt lat="43.65619" lon="3.59777">
        <ele>169</ele>
        <time>2021-04-03T10:47:35Z</time>
      </trkpt>
      <trkpt lat="43.65619" lon="3.5978">
        <ele>170</ele>
        <time>2021-04-03T10:47:36Z</time>
      </trkpt>
      <trkpt lat="43.65619" lon="3.59784">
        <ele>170</ele>
        <time>2021-04-03T10:47:37Z</time>
      </trkpt>
      <trkpt lat="43.65619" lon="3.59787">
        <ele>170</ele>
        <time>2021-04-03T10:47:38Z</time>
      </trkpt>
      <trkpt lat="43.65619" lon="3.59791">
        <ele>170</ele>
        <time>2021-04-03T10:47:39Z</time>
      </trkpt>
      <trkpt lat="43.65618" lon="3.59794">
        <ele>170</ele>
        <time>2021-04-03T10:47:40Z</time>
      </trkpt>
      <trkpt lat="43.65618" lon="3.59797">
        <ele>170</ele>
        <time>2021-04-03T10:47:41Z</time>
      </trkpt>
      <trkpt lat="43.65618" lon="3.59801">
        <ele>170</ele>
        <time>2021-04-03T10:47:42Z</time>
      </trkpt>
      <trkpt lat="43.65617" lon="3.59804">
        <ele>170</ele>
        <time>2021-04-03T10:47:43Z</time>
      </trkpt>
      <trkpt lat="43.65616" lon="3.59807">
        <ele>170</ele>
        <time>2021-04-03T10:47:44Z</time>
      </trkpt>
      <trkpt lat="43.65615" lon="3.5981">
        <ele>170</ele>
        <time>2021-04-03T10:47:45Z</time>
      </trkpt>
      <trkpt lat="43.65615" lon="3.59813">
        <ele>170</ele>
        <time>2021-04-03T10:47:46Z</time>
      </trkpt>
      <trkpt lat="43.65614" lon="3.59817">
        <ele>170</ele>
        <time>2021-04-03T10:47:47Z</time>
      </trkpt>
      <trkpt lat="43.65613" lon="3.59821">
        <ele>170</ele>
        <time>2021-04-03T10:47:48Z</time>
      </trkpt>
      <trkpt lat="43.65612" lon="3.59824">
        <ele>170</ele>
        <time>2021-04-03T10:47:49Z</time>
      </trkpt>
      <trkpt lat="43.65611" lon="3.59828">
        <ele>170</ele>
        <time>2021-04-03T10:47:50Z</time>
      </trkpt>
      <trkpt lat="43.6561" lon="3.59832">
        <ele>170</ele>
        <time>2021-04-03T10:47:51Z</time>
      </trkpt>
      <trkpt lat="43.65609" lon="3.59835">
        <ele>170</ele>
        <time>2021-04-03T10:47:52Z</time>
      </trkpt>
      <trkpt lat="43.65608" lon="3.59839">
        <ele>170</ele>
        <time>2021-04-03T10:47:53Z</time>
      </trkpt>
      <trkpt lat="43.65606" lon="3.59843">
        <ele>170</ele>
        <time>2021-04-03T10:47:54Z</time>
      </trkpt>
      <trkpt lat="43.65605" lon="3.59847">
        <ele>170</ele>
        <time>2021-04-03T10:47:55Z</time>
      </trkpt>
      <trkpt lat="43.65604" lon="3.59851">
        <ele>170</ele>
        <time>2021-04-03T10:47:56Z</time>
      </trkpt>
      <trkpt lat="43.65603" lon="3.59854">
        <ele>170</ele>
        <time>2021-04-03T10:47:57Z</time>
      </trkpt>
      <trkpt lat="43.65603" lon="3.59858">
        <ele>170</ele>
        <time>2021-04-03T10:47:58Z</time>
      </trkpt>
      <trkpt lat="43.65602" lon="3.59862">
        <ele>170</ele>
        <time>2021-04-03T10:47:59Z</time>
      </trkpt>
      <trkpt lat="43.65601" lon="3.59866">
        <ele>170</ele>
        <time>2021-04-03T10:48:00Z</time>
      </trkpt>
      <trkpt lat="43.65601" lon="3.59869">
        <ele>170</ele>
        <time>2021-04-03T10:48:01Z</time>
      </trkpt>
      <trkpt lat="43.656" lon="3.59873">
        <ele>170</ele>
        <time>2021-04-03T10:48:02Z</time>
      </trkpt>
      <trkpt lat="43.656" lon="3.59877">
        <ele>170</ele>
        <time>2021-04-03T10:48:03Z</time>
      </trkpt>
      <trkpt lat="43.656" lon="3.59881">
        <ele>170</ele>
        <time>2021-04-03T10:48:04Z</time>
      </trkpt>
      <trkpt lat="43.656" lon="3.59884">
        <ele>170</ele>
        <time>2021-04-03T10:48:05Z</time>
      </trkpt>
      <trkpt lat="43.65599" lon="3.59888">
        <ele>170</ele>
        <time>2021-04-03T10:48:06Z</time>
      </trkpt>
      <trkpt lat="43.65599" lon="3.59892">
        <ele>170</ele>
        <time>2021-04-03T10:48:07Z</time>
      </trkpt>
      <trkpt lat="43.65598" lon="3.59896">
        <ele>170</ele>
        <time>2021-04-03T10:48:08Z</time>
      </trkpt>
      <trkpt lat="43.65598" lon="3.599">
        <ele>170</ele>
        <time>2021-04-03T10:48:09Z</time>
      </trkpt>
      <trkpt lat="43.65597" lon="3.59903">
        <ele>171</ele>
        <time>2021-04-03T10:48:10Z</time>
      </trkpt>
      <trkpt lat="43.65596" lon="3.59907">
        <ele>171</ele>
        <time>2021-04-03T10:48:11Z</time>
      </trkpt>
      <trkpt lat="43.65596" lon="3.5991">
        <ele>171</ele>
        <time>2021-04-03T10:48:12Z</time>
      </trkpt>
      <trkpt lat="43.65595" lon="3.59914">
        <ele>171</ele>
        <time>2021-04-03T10:48:13Z</time>
      </trkpt>
      <trkpt lat="43.65594" lon="3.59918">
        <ele>171</ele>
        <time>2021-04-03T10:48:14Z</time>
      </trkpt>
      <trkpt lat="43.65593" lon="3.59922">
        <ele>171</ele>
        <time>2021-04-03T10:48:15Z</time>
      </trkpt>
      <trkpt lat="43.65592" lon="3.59926">
        <ele>171</ele>
        <time>2021-04-03T10:48:16Z</time>
      </trkpt>
      <trkpt lat="43.65591" lon="3.59929">
        <ele>171</ele>
        <time>2021-04-03T10:48:17Z</time>
      </trkpt>
      <trkpt lat="43.6559" lon="3.59933">
        <ele>171</ele>
        <time>2021-04-03T10:48:18Z</time>
      </trkpt>
      <trkpt lat="43.65589" lon="3.59936">
        <ele>171</ele>
        <time>2021-04-03T10:48:19Z</time>
      </trkpt>
      <trkpt lat="43.65588" lon="3.5994">
        <ele>172</ele>
        <time>2021-04-03T10:48:20Z</time>
      </trkpt>
      <trkpt lat="43.65587" lon="3.59944">
        <ele>172</ele>
        <time>2021-04-03T10:48:21Z</time>
      </trkpt>
      <trkpt lat="43.65587" lon="3.59947">
        <ele>172</ele>
        <time>2021-04-03T10:48:22Z</time>
      </trkpt>
      <trkpt lat="43.65586" lon="3.59951">
        <ele>172</ele>
        <time>2021-04-03T10:48:23Z</time>
      </trkpt>
      <trkpt lat="43.65585" lon="3.59954">
        <ele>172</ele>
        <time>2021-04-03T10:48:24Z</time>
      </trkpt>
      <trkpt lat="43.65585" lon="3.59958">
        <ele>172</ele>
        <time>2021-04-03T10:48:25Z</time>
      </trkpt>
      <trkpt lat="43.65584" lon="3.59962">
        <ele>172</ele>
        <time>2021-04-03T10:48:26Z</time>
      </trkpt>
      <trkpt lat="43.65584" lon="3.59966">
        <ele>172</ele>
        <time>2021-04-03T10:48:27Z</time>
      </trkpt>
      <trkpt lat="43.65585" lon="3.59969">
        <ele>172</ele>
        <time>2021-04-03T10:48:28Z</time>
      </trkpt>
      <trkpt lat="43.65585" lon="3.59973">
        <ele>172</ele>
        <time>2021-04-03T10:48:29Z</time>
      </trkpt>
      <trkpt lat="43.65585" lon="3.59976">
        <ele>172</ele>
        <time>2021-04-03T10:48:30Z</time>
      </trkpt>
      <trkpt lat="43.65586" lon="3.59979">
        <ele>174</ele>
        <time>2021-04-03T10:48:31Z</time>
      </trkpt>
      <trkpt lat="43.65586" lon="3.59982">
        <ele>174</ele>
        <time>2021-04-03T10:48:32Z</time>
      </trkpt>
      <trkpt lat="43.65587" lon="3.59985">
        <ele>174</ele>
        <time>2021-04-03T10:48:33Z</time>
      </trkpt>
      <trkpt lat="43.65588" lon="3.59988">
        <ele>174</ele>
        <time>2021-04-03T10:48:34Z</time>
      </trkpt>
      <trkpt lat="43.65589" lon="3.59991">
        <ele>174</ele>
        <time>2021-04-03T10:48:35Z</time>
      </trkpt>
      <trkpt lat="43.6559" lon="3.59993">
        <ele>174</ele>
        <time>2021-04-03T10:48:36Z</time>
      </trkpt>
      <trkpt lat="43.65591" lon="3.59996">
        <ele>174</ele>
        <time>2021-04-03T10:48:37Z</time>
      </trkpt>
      <trkpt lat="43.65591" lon="3.59999">
        <ele>174</ele>
        <time>2021-04-03T10:48:38Z</time>
      </trkpt>
      <trkpt lat="43.65592" lon="3.60002">
        <ele>174</ele>
        <time>2021-04-03T10:48:39Z</time>
      </trkpt>
      <trkpt lat="43.65593" lon="3.60005">
        <ele>176</ele>
        <time>2021-04-03T10:48:40Z</time>
      </trkpt>
      <trkpt lat="43.65593" lon="3.60008">
        <ele>176</ele>
        <time>2021-04-03T10:48:41Z</time>
      </trkpt>
      <trkpt lat="43.65594" lon="3.60011">
        <ele>176</ele>
        <time>2021-04-03T10:48:42Z</time>
      </trkpt>
      <trkpt lat="43.65594" lon="3.60013">
        <ele>176</ele>
        <time>2021-04-03T10:48:43Z</time>
      </trkpt>
      <trkpt lat="43.65594" lon="3.60016">
        <ele>176</ele>
        <time>2021-04-03T10:48:44Z</time>
      </trkpt>
      <trkpt lat="43.65595" lon="3.60019">
        <ele>176</ele>
        <time>2021-04-03T10:48:45Z</time>
      </trkpt>
      <trkpt lat="43.65595" lon="3.60023">
        <ele>176</ele>
        <time>2021-04-03T10:48:46Z</time>
      </trkpt>
      <trkpt lat="43.65595" lon="3.60026">
        <ele>176</ele>
        <time>2021-04-03T10:48:47Z</time>
      </trkpt>
      <trkpt lat="43.65595" lon="3.60029">
        <ele>176</ele>
        <time>2021-04-03T10:48:48Z</time>
      </trkpt>
      <trkpt lat="43.65595" lon="3.60033">
        <ele>176</ele>
        <time>2021-04-03T10:48:49Z</time>
      </trkpt>
      <trkpt lat="43.65595" lon="3.60036">
        <ele>177</ele>
        <time>2021-04-03T10:48:50Z</time>
      </trkpt>
      <trkpt lat="43.65595" lon="3.60039">
        <ele>177</ele>
        <time>2021-04-03T10:48:51Z</time>
      </trkpt>
      <trkpt lat="43.65596" lon="3.60043">
        <ele>177</ele>
        <time>2021-04-03T10:48:52Z</time>
      </trkpt>
      <trkpt lat="43.65596" lon="3.60046">
        <ele>177</ele>
        <time>2021-04-03T10:48:53Z</time>
      </trkpt>
      <trkpt lat="43.65596" lon="3.6005">
        <ele>177</ele>
        <time>2021-04-03T10:48:54Z</time>
      </trkpt>
      <trkpt lat="43.65596" lon="3.60053">
        <ele>177</ele>
        <time>2021-04-03T10:48:55Z</time>
      </trkpt>
      <trkpt lat="43.65596" lon="3.60057">
        <ele>177</ele>
        <time>2021-04-03T10:48:56Z</time>
      </trkpt>
      <trkpt lat="43.65595" lon="3.6006">
        <ele>177</ele>
        <time>2021-04-03T10:48:57Z</time>
      </trkpt>
      <trkpt lat="43.65596" lon="3.60063">
        <ele>177</ele>
        <time>2021-04-03T10:48:58Z</time>
      </trkpt>
      <trkpt lat="43.65596" lon="3.60067">
        <ele>177</ele>
        <time>2021-04-03T10:48:59Z</time>
      </trkpt>
      <trkpt lat="43.65596" lon="3.6007">
        <ele>177</ele>
        <time>2021-04-03T10:49:00Z</time>
      </trkpt>
      <trkpt lat="43.65596" lon="3.60073">
        <ele>178</ele>
        <time>2021-04-03T10:49:01Z</time>
      </trkpt>
      <trkpt lat="43.65597" lon="3.60077">
        <ele>178</ele>
        <time>2021-04-03T10:49:02Z</time>
      </trkpt>
      <trkpt lat="43.65597" lon="3.6008">
        <ele>178</ele>
        <time>2021-04-03T10:49:03Z</time>
      </trkpt>
      <trkpt lat="43.65597" lon="3.60083">
        <ele>178</ele>
        <time>2021-04-03T10:49:04Z</time>
      </trkpt>
      <trkpt lat="43.65597" lon="3.60086">
        <ele>178</ele>
        <time>2021-04-03T10:49:05Z</time>
      </trkpt>
      <trkpt lat="43.65597" lon="3.60089">
        <ele>178</ele>
        <time>2021-04-03T10:49:06Z</time>
      </trkpt>
      <trkpt lat="43.65597" lon="3.60092">
        <ele>178</ele>
        <time>2021-04-03T10:49:07Z</time>
      </trkpt>
      <trkpt lat="43.65598" lon="3.60095">
        <ele>178</ele>
        <time>2021-04-03T10:49:08Z</time>
      </trkpt>
      <trkpt lat="43.65598" lon="3.60098">
        <ele>178</ele>
        <time>2021-04-03T10:49:09Z</time>
      </trkpt>
      <trkpt lat="43.65598" lon="3.60101">
        <ele>178</ele>
        <time>2021-04-03T10:49:10Z</time>
      </trkpt>
      <trkpt lat="43.65599" lon="3.60104">
        <ele>179</ele>
        <time>2021-04-03T10:49:11Z</time>
      </trkpt>
      <trkpt lat="43.65599" lon="3.60108">
        <ele>179</ele>
        <time>2021-04-03T10:49:12Z</time>
      </trkpt>
      <trkpt lat="43.656" lon="3.60112">
        <ele>179</ele>
        <time>2021-04-03T10:49:13Z</time>
      </trkpt>
      <trkpt lat="43.656" lon="3.60115">
        <ele>179</ele>
        <time>2021-04-03T10:49:14Z</time>
      </trkpt>
      <trkpt lat="43.656" lon="3.60119">
        <ele>179</ele>
        <time>2021-04-03T10:49:15Z</time>
      </trkpt>
      <trkpt lat="43.656" lon="3.60123">
        <ele>179</ele>
        <time>2021-04-03T10:49:16Z</time>
      </trkpt>
      <trkpt lat="43.656" lon="3.60127">
        <ele>179</ele>
        <time>2021-04-03T10:49:17Z</time>
      </trkpt>
      <trkpt lat="43.656" lon="3.60131">
        <ele>179</ele>
        <time>2021-04-03T10:49:18Z</time>
      </trkpt>
      <trkpt lat="43.656" lon="3.60135">
        <ele>179</ele>
        <time>2021-04-03T10:49:19Z</time>
      </trkpt>
      <trkpt lat="43.656" lon="3.60139">
        <ele>179</ele>
        <time>2021-04-03T10:49:20Z</time>
      </trkpt>
      <trkpt lat="43.656" lon="3.60142">
        <ele>179</ele>
        <time>2021-04-03T10:49:21Z</time>
      </trkpt>
      <trkpt lat="43.656" lon="3.60145">
        <ele>179</ele>
        <time>2021-04-03T10:49:22Z</time>
      </trkpt>
      <trkpt lat="43.65601" lon="3.60148">
        <ele>179</ele>
        <time>2021-04-03T10:49:23Z</time>
      </trkpt>
      <trkpt lat="43.656" lon="3.60151">
        <ele>179</ele>
        <time>2021-04-03T10:49:24Z</time>
      </trkpt>
      <trkpt lat="43.65601" lon="3.60155">
        <ele>179</ele>
        <time>2021-04-03T10:49:25Z</time>
      </trkpt>
      <trkpt lat="43.65601" lon="3.60158">
        <ele>179</ele>
        <time>2021-04-03T10:49:26Z</time>
      </trkpt>
      <trkpt lat="43.65601" lon="3.6016">
        <ele>179</ele>
        <time>2021-04-03T10:49:27Z</time>
      </trkpt>
      <trkpt lat="43.65602" lon="3.60165">
        <ele>179</ele>
        <time>2021-04-03T10:49:29Z</time>
      </trkpt>
      <trkpt lat="43.65604" lon="3.60169">
        <ele>179</ele>
        <time>2021-04-03T10:49:31Z</time>
      </trkpt>
      <trkpt lat="43.65605" lon="3.60171">
        <ele>179</ele>
        <time>2021-04-03T10:49:32Z</time>
      </trkpt>
      <trkpt lat="43.65606" lon="3.60174">
        <ele>179</ele>
        <time>2021-04-03T10:49:33Z</time>
      </trkpt>
      <trkpt lat="43.65606" lon="3.60176">
        <ele>179</ele>
        <time>2021-04-03T10:49:34Z</time>
      </trkpt>
      <trkpt lat="43.65607" lon="3.60179">
        <ele>179</ele>
        <time>2021-04-03T10:49:35Z</time>
      </trkpt>
      <trkpt lat="43.65608" lon="3.60181">
        <ele>179</ele>
        <time>2021-04-03T10:49:36Z</time>
      </trkpt>
      <trkpt lat="43.65609" lon="3.60184">
        <ele>179</ele>
        <time>2021-04-03T10:49:37Z</time>
      </trkpt>
      <trkpt lat="43.65611" lon="3.60187">
        <ele>179</ele>
        <time>2021-04-03T10:49:38Z</time>
      </trkpt>
      <trkpt lat="43.65612" lon="3.6019">
        <ele>179</ele>
        <time>2021-04-03T10:49:39Z</time>
      </trkpt>
      <trkpt lat="43.65613" lon="3.60193">
        <ele>179</ele>
        <time>2021-04-03T10:49:40Z</time>
      </trkpt>
      <trkpt lat="43.65614" lon="3.60196">
        <ele>181</ele>
        <time>2021-04-03T10:49:41Z</time>
      </trkpt>
      <trkpt lat="43.65615" lon="3.60199">
        <ele>181</ele>
        <time>2021-04-03T10:49:42Z</time>
      </trkpt>
      <trkpt lat="43.65616" lon="3.60202">
        <ele>181</ele>
        <time>2021-04-03T10:49:43Z</time>
      </trkpt>
      <trkpt lat="43.65617" lon="3.60205">
        <ele>181</ele>
        <time>2021-04-03T10:49:44Z</time>
      </trkpt>
      <trkpt lat="43.65618" lon="3.60207">
        <ele>181</ele>
        <time>2021-04-03T10:49:45Z</time>
      </trkpt>
      <trkpt lat="43.6562" lon="3.6021">
        <ele>181</ele>
        <time>2021-04-03T10:49:46Z</time>
      </trkpt>
      <trkpt lat="43.65621" lon="3.60212">
        <ele>181</ele>
        <time>2021-04-03T10:49:47Z</time>
      </trkpt>
      <trkpt lat="43.65622" lon="3.60214">
        <ele>181</ele>
        <time>2021-04-03T10:49:48Z</time>
      </trkpt>
      <trkpt lat="43.65623" lon="3.60217">
        <ele>181</ele>
        <time>2021-04-03T10:49:49Z</time>
      </trkpt>
      <trkpt lat="43.65624" lon="3.60219">
        <ele>182</ele>
        <time>2021-04-03T10:49:50Z</time>
      </trkpt>
      <trkpt lat="43.65626" lon="3.6022">
        <ele>182</ele>
        <time>2021-04-03T10:49:51Z</time>
      </trkpt>
      <trkpt lat="43.65628" lon="3.60222">
        <ele>182</ele>
        <time>2021-04-03T10:49:52Z</time>
      </trkpt>
      <trkpt lat="43.6563" lon="3.60223">
        <ele>182</ele>
        <time>2021-04-03T10:49:53Z</time>
      </trkpt>
      <trkpt lat="43.65632" lon="3.60224">
        <ele>182</ele>
        <time>2021-04-03T10:49:54Z</time>
      </trkpt>
      <trkpt lat="43.65634" lon="3.60225">
        <ele>182</ele>
        <time>2021-04-03T10:49:55Z</time>
      </trkpt>
      <trkpt lat="43.65636" lon="3.60226">
        <ele>182</ele>
        <time>2021-04-03T10:49:56Z</time>
      </trkpt>
      <trkpt lat="43.65639" lon="3.60227">
        <ele>182</ele>
        <time>2021-04-03T10:49:57Z</time>
      </trkpt>
      <trkpt lat="43.65641" lon="3.60228">
        <ele>182</ele>
        <time>2021-04-03T10:49:58Z</time>
      </trkpt>
      <trkpt lat="43.65643" lon="3.60229">
        <ele>182</ele>
        <time>2021-04-03T10:49:59Z</time>
      </trkpt>
      <trkpt lat="43.65645" lon="3.60231">
        <ele>182</ele>
        <time>2021-04-03T10:50:00Z</time>
      </trkpt>
      <trkpt lat="43.65647" lon="3.60232">
        <ele>184</ele>
        <time>2021-04-03T10:50:01Z</time>
      </trkpt>
      <trkpt lat="43.65649" lon="3.60233">
        <ele>184</ele>
        <time>2021-04-03T10:50:02Z</time>
      </trkpt>
      <trkpt lat="43.65651" lon="3.60234">
        <ele>184</ele>
        <time>2021-04-03T10:50:03Z</time>
      </trkpt>
      <trkpt lat="43.65653" lon="3.60236">
        <ele>184</ele>
        <time>2021-04-03T10:50:04Z</time>
      </trkpt>
      <trkpt lat="43.65654" lon="3.60237">
        <ele>184</ele>
        <time>2021-04-03T10:50:05Z</time>
      </trkpt>
      <trkpt lat="43.65656" lon="3.60239">
        <ele>184</ele>
        <time>2021-04-03T10:50:06Z</time>
      </trkpt>
      <trkpt lat="43.65658" lon="3.60241">
        <ele>184</ele>
        <time>2021-04-03T10:50:07Z</time>
      </trkpt>
      <trkpt lat="43.65659" lon="3.60242">
        <ele>184</ele>
        <time>2021-04-03T10:50:08Z</time>
      </trkpt>
      <trkpt lat="43.65661" lon="3.60244">
        <ele>184</ele>
        <time>2021-04-03T10:50:09Z</time>
      </trkpt>
      <trkpt lat="43.65662" lon="3.60246">
        <ele>186</ele>
        <time>2021-04-03T10:50:10Z</time>
      </trkpt>
      <trkpt lat="43.65664" lon="3.60247">
        <ele>186</ele>
        <time>2021-04-03T10:50:11Z</time>
      </trkpt>
      <trkpt lat="43.65666" lon="3.60249">
        <ele>186</ele>
        <time>2021-04-03T10:50:12Z</time>
      </trkpt>
      <trkpt lat="43.65668" lon="3.6025">
        <ele>186</ele>
        <time>2021-04-03T10:50:13Z</time>
      </trkpt>
      <trkpt lat="43.65669" lon="3.60251">
        <ele>186</ele>
        <time>2021-04-03T10:50:14Z</time>
      </trkpt>
      <trkpt lat="43.65671" lon="3.60252">
        <ele>186</ele>
        <time>2021-04-03T10:50:15Z</time>
      </trkpt>
      <trkpt lat="43.65673" lon="3.60254">
        <ele>186</ele>
        <time>2021-04-03T10:50:16Z</time>
      </trkpt>
      <trkpt lat="43.65675" lon="3.60255">
        <ele>186</ele>
        <time>2021-04-03T10:50:17Z</time>
      </trkpt>
      <trkpt lat="43.65677" lon="3.60257">
        <ele>186</ele>
        <time>2021-04-03T10:50:18Z</time>
      </trkpt>
      <trkpt lat="43.65679" lon="3.60259">
        <ele>186</ele>
        <time>2021-04-03T10:50:19Z</time>
      </trkpt>
      <trkpt lat="43.65681" lon="3.60261">
        <ele>188</ele>
        <time>2021-04-03T10:50:20Z</time>
      </trkpt>
      <trkpt lat="43.65682" lon="3.60263">
        <ele>188</ele>
        <time>2021-04-03T10:50:21Z</time>
      </trkpt>
      <trkpt lat="43.65684" lon="3.60265">
        <ele>188</ele>
        <time>2021-04-03T10:50:22Z</time>
      </trkpt>
      <trkpt lat="43.65686" lon="3.60267">
        <ele>188</ele>
        <time>2021-04-03T10:50:23Z</time>
      </trkpt>
      <trkpt lat="43.65688" lon="3.60269">
        <ele>188</ele>
        <time>2021-04-03T10:50:24Z</time>
      </trkpt>
      <trkpt lat="43.6569" lon="3.6027">
        <ele>188</ele>
        <time>2021-04-03T10:50:25Z</time>
      </trkpt>
      <trkpt lat="43.65691" lon="3.60272">
        <ele>188</ele>
        <time>2021-04-03T10:50:26Z</time>
      </trkpt>
      <trkpt lat="43.65693" lon="3.60274">
        <ele>188</ele>
        <time>2021-04-03T10:50:27Z</time>
      </trkpt>
      <trkpt lat="43.65694" lon="3.60276">
        <ele>188</ele>
        <time>2021-04-03T10:50:28Z</time>
      </trkpt>
      <trkpt lat="43.65697" lon="3.60278">
        <ele>188</ele>
        <time>2021-04-03T10:50:30Z</time>
      </trkpt>
      <trkpt lat="43.65699" lon="3.6028">
        <ele>190</ele>
        <time>2021-04-03T10:50:31Z</time>
      </trkpt>
      <trkpt lat="43.657" lon="3.60281">
        <ele>190</ele>
        <time>2021-04-03T10:50:32Z</time>
      </trkpt>
      <trkpt lat="43.65702" lon="3.60283">
        <ele>190</ele>
        <time>2021-04-03T10:50:33Z</time>
      </trkpt>
      <trkpt lat="43.65704" lon="3.60286">
        <ele>190</ele>
        <time>2021-04-03T10:50:35Z</time>
      </trkpt>
      <trkpt lat="43.65707" lon="3.60289">
        <ele>190</ele>
        <time>2021-04-03T10:50:37Z</time>
      </trkpt>
      <trkpt lat="43.6571" lon="3.60292">
        <ele>190</ele>
        <time>2021-04-03T10:50:39Z</time>
      </trkpt>
      <trkpt lat="43.65711" lon="3.60294">
        <ele>191</ele>
        <time>2021-04-03T10:50:40Z</time>
      </trkpt>
      <trkpt lat="43.65713" lon="3.60296">
        <ele>191</ele>
        <time>2021-04-03T10:50:41Z</time>
      </trkpt>
      <trkpt lat="43.65714" lon="3.60298">
        <ele>191</ele>
        <time>2021-04-03T10:50:42Z</time>
      </trkpt>
      <trkpt lat="43.65715" lon="3.603">
        <ele>191</ele>
        <time>2021-04-03T10:50:43Z</time>
      </trkpt>
      <trkpt lat="43.65718" lon="3.60302">
        <ele>191</ele>
        <time>2021-04-03T10:50:45Z</time>
      </trkpt>
      <trkpt lat="43.6572" lon="3.60304">
        <ele>191</ele>
        <time>2021-04-03T10:50:46Z</time>
      </trkpt>
      <trkpt lat="43.65721" lon="3.60306">
        <ele>191</ele>
        <time>2021-04-03T10:50:47Z</time>
      </trkpt>
      <trkpt lat="43.65723" lon="3.60308">
        <ele>191</ele>
        <time>2021-04-03T10:50:48Z</time>
      </trkpt>
      <trkpt lat="43.65724" lon="3.6031">
        <ele>191</ele>
        <time>2021-04-03T10:50:49Z</time>
      </trkpt>
      <trkpt lat="43.65725" lon="3.60311">
        <ele>191</ele>
        <time>2021-04-03T10:50:50Z</time>
      </trkpt>
      <trkpt lat="43.65728" lon="3.60315">
        <ele>191</ele>
        <time>2021-04-03T10:50:52Z</time>
      </trkpt>
      <trkpt lat="43.65729" lon="3.60317">
        <ele>191</ele>
        <time>2021-04-03T10:50:53Z</time>
      </trkpt>
      <trkpt lat="43.6573" lon="3.60319">
        <ele>191</ele>
        <time>2021-04-03T10:50:54Z</time>
      </trkpt>
      <trkpt lat="43.65732" lon="3.60321">
        <ele>191</ele>
        <time>2021-04-03T10:50:55Z</time>
      </trkpt>
      <trkpt lat="43.65733" lon="3.60323">
        <ele>191</ele>
        <time>2021-04-03T10:50:56Z</time>
      </trkpt>
      <trkpt lat="43.65735" lon="3.60325">
        <ele>191</ele>
        <time>2021-04-03T10:50:57Z</time>
      </trkpt>
      <trkpt lat="43.65737" lon="3.60327">
        <ele>191</ele>
        <time>2021-04-03T10:50:58Z</time>
      </trkpt>
      <trkpt lat="43.65738" lon="3.60329">
        <ele>191</ele>
        <time>2021-04-03T10:50:59Z</time>
      </trkpt>
      <trkpt lat="43.6574" lon="3.60331">
        <ele>193</ele>
        <time>2021-04-03T10:51:00Z</time>
      </trkpt>
      <trkpt lat="43.65741" lon="3.60333">
        <ele>193</ele>
        <time>2021-04-03T10:51:01Z</time>
      </trkpt>
      <trkpt lat="43.65743" lon="3.60335">
        <ele>193</ele>
        <time>2021-04-03T10:51:02Z</time>
      </trkpt>
      <trkpt lat="43.65744" lon="3.60337">
        <ele>193</ele>
        <time>2021-04-03T10:51:03Z</time>
      </trkpt>
      <trkpt lat="43.65746" lon="3.60339">
        <ele>193</ele>
        <time>2021-04-03T10:51:04Z</time>
      </trkpt>
      <trkpt lat="43.65748" lon="3.60341">
        <ele>193</ele>
        <time>2021-04-03T10:51:05Z</time>
      </trkpt>
      <trkpt lat="43.65749" lon="3.60343">
        <ele>193</ele>
        <time>2021-04-03T10:51:06Z</time>
      </trkpt>
      <trkpt lat="43.65751" lon="3.60346">
        <ele>193</ele>
        <time>2021-04-03T10:51:07Z</time>
      </trkpt>
      <trkpt lat="43.65752" lon="3.60348">
        <ele>193</ele>
        <time>2021-04-03T10:51:08Z</time>
      </trkpt>
      <trkpt lat="43.65755" lon="3.60351">
        <ele>192</ele>
        <time>2021-04-03T10:51:10Z</time>
      </trkpt>
      <trkpt lat="43.65756" lon="3.60353">
        <ele>192</ele>
        <time>2021-04-03T10:51:11Z</time>
      </trkpt>
      <trkpt lat="43.65758" lon="3.60355">
        <ele>192</ele>
        <time>2021-04-03T10:51:12Z</time>
      </trkpt>
      <trkpt lat="43.65759" lon="3.60357">
        <ele>192</ele>
        <time>2021-04-03T10:51:13Z</time>
      </trkpt>
      <trkpt lat="43.65761" lon="3.60359">
        <ele>192</ele>
        <time>2021-04-03T10:51:14Z</time>
      </trkpt>
      <trkpt lat="43.65763" lon="3.60361">
        <ele>192</ele>
        <time>2021-04-03T10:51:15Z</time>
      </trkpt>
      <trkpt lat="43.65765" lon="3.60362">
        <ele>192</ele>
        <time>2021-04-03T10:51:16Z</time>
      </trkpt>
      <trkpt lat="43.65766" lon="3.60364">
        <ele>192</ele>
        <time>2021-04-03T10:51:17Z</time>
      </trkpt>
      <trkpt lat="43.65768" lon="3.60366">
        <ele>192</ele>
        <time>2021-04-03T10:51:18Z</time>
      </trkpt>
      <trkpt lat="43.6577" lon="3.60368">
        <ele>192</ele>
        <time>2021-04-03T10:51:19Z</time>
      </trkpt>
      <trkpt lat="43.65772" lon="3.60371">
        <ele>192</ele>
        <time>2021-04-03T10:51:20Z</time>
      </trkpt>
      <trkpt lat="43.65774" lon="3.60372">
        <ele>192</ele>
        <time>2021-04-03T10:51:21Z</time>
      </trkpt>
      <trkpt lat="43.65776" lon="3.60374">
        <ele>192</ele>
        <time>2021-04-03T10:51:22Z</time>
      </trkpt>
      <trkpt lat="43.65778" lon="3.60376">
        <ele>192</ele>
        <time>2021-04-03T10:51:23Z</time>
      </trkpt>
      <trkpt lat="43.6578" lon="3.60378">
        <ele>192</ele>
        <time>2021-04-03T10:51:24Z</time>
      </trkpt>
      <trkpt lat="43.65782" lon="3.6038">
        <ele>192</ele>
        <time>2021-04-03T10:51:25Z</time>
      </trkpt>
      <trkpt lat="43.65785" lon="3.60382">
        <ele>192</ele>
        <time>2021-04-03T10:51:26Z</time>
      </trkpt>
      <trkpt lat="43.65787" lon="3.60384">
        <ele>192</ele>
        <time>2021-04-03T10:51:27Z</time>
      </trkpt>
      <trkpt lat="43.6579" lon="3.60386">
        <ele>192</ele>
        <time>2021-04-03T10:51:28Z</time>
      </trkpt>
      <trkpt lat="43.65792" lon="3.60388">
        <ele>192</ele>
        <time>2021-04-03T10:51:29Z</time>
      </trkpt>
      <trkpt lat="43.65794" lon="3.6039">
        <ele>192</ele>
        <time>2021-04-03T10:51:30Z</time>
      </trkpt>
      <trkpt lat="43.65797" lon="3.60392">
        <ele>192</ele>
        <time>2021-04-03T10:51:31Z</time>
      </trkpt>
      <trkpt lat="43.65799" lon="3.60394">
        <ele>192</ele>
        <time>2021-04-03T10:51:32Z</time>
      </trkpt>
      <trkpt lat="43.65802" lon="3.60396">
        <ele>192</ele>
        <time>2021-04-03T10:51:33Z</time>
      </trkpt>
      <trkpt lat="43.65804" lon="3.60398">
        <ele>192</ele>
        <time>2021-04-03T10:51:34Z</time>
      </trkpt>
      <trkpt lat="43.65806" lon="3.604">
        <ele>192</ele>
        <time>2021-04-03T10:51:35Z</time>
      </trkpt>
      <trkpt lat="43.65808" lon="3.60402">
        <ele>192</ele>
        <time>2021-04-03T10:51:36Z</time>
      </trkpt>
      <trkpt lat="43.65811" lon="3.60404">
        <ele>192</ele>
        <time>2021-04-03T10:51:37Z</time>
      </trkpt>
      <trkpt lat="43.65813" lon="3.60405">
        <ele>192</ele>
        <time>2021-04-03T10:51:38Z</time>
      </trkpt>
      <trkpt lat="43.65815" lon="3.60407">
        <ele>192</ele>
        <time>2021-04-03T10:51:39Z</time>
      </trkpt>
      <trkpt lat="43.65817" lon="3.60409">
        <ele>192</ele>
        <time>2021-04-03T10:51:40Z</time>
      </trkpt>
      <trkpt lat="43.65818" lon="3.60411">
        <ele>192</ele>
        <time>2021-04-03T10:51:41Z</time>
      </trkpt>
      <trkpt lat="43.6582" lon="3.60413">
        <ele>192</ele>
        <time>2021-04-03T10:51:42Z</time>
      </trkpt>
      <trkpt lat="43.65821" lon="3.60415">
        <ele>192</ele>
        <time>2021-04-03T10:51:43Z</time>
      </trkpt>
      <trkpt lat="43.65823" lon="3.60417">
        <ele>192</ele>
        <time>2021-04-03T10:51:44Z</time>
      </trkpt>
      <trkpt lat="43.65824" lon="3.60419">
        <ele>192</ele>
        <time>2021-04-03T10:51:45Z</time>
      </trkpt>
      <trkpt lat="43.65827" lon="3.60423">
        <ele>192</ele>
        <time>2021-04-03T10:51:47Z</time>
      </trkpt>
      <trkpt lat="43.65828" lon="3.60425">
        <ele>192</ele>
        <time>2021-04-03T10:51:48Z</time>
      </trkpt>
      <trkpt lat="43.65829" lon="3.60427">
        <ele>192</ele>
        <time>2021-04-03T10:51:49Z</time>
      </trkpt>
      <trkpt lat="43.65831" lon="3.60428">
        <ele>192</ele>
        <time>2021-04-03T10:51:50Z</time>
      </trkpt>
      <trkpt lat="43.65832" lon="3.6043">
        <ele>194</ele>
        <time>2021-04-03T10:51:51Z</time>
      </trkpt>
      <trkpt lat="43.65833" lon="3.60432">
        <ele>194</ele>
        <time>2021-04-03T10:51:52Z</time>
      </trkpt>
      <trkpt lat="43.65834" lon="3.60434">
        <ele>194</ele>
        <time>2021-04-03T10:51:53Z</time>
      </trkpt>
      <trkpt lat="43.65836" lon="3.60436">
        <ele>194</ele>
        <time>2021-04-03T10:51:54Z</time>
      </trkpt>
      <trkpt lat="43.65837" lon="3.60438">
        <ele>194</ele>
        <time>2021-04-03T10:51:55Z</time>
      </trkpt>
      <trkpt lat="43.65839" lon="3.60442">
        <ele>194</ele>
        <time>2021-04-03T10:51:57Z</time>
      </trkpt>
      <trkpt lat="43.65841" lon="3.60445">
        <ele>194</ele>
        <time>2021-04-03T10:51:59Z</time>
      </trkpt>
      <trkpt lat="43.65843" lon="3.60448">
        <ele>194</ele>
        <time>2021-04-03T10:52:01Z</time>
      </trkpt>
      <trkpt lat="43.65845" lon="3.60452">
        <ele>194</ele>
        <time>2021-04-03T10:52:03Z</time>
      </trkpt>
      <trkpt lat="43.65848" lon="3.60456">
        <ele>194</ele>
        <time>2021-04-03T10:52:05Z</time>
      </trkpt>
      <trkpt lat="43.65849" lon="3.60458">
        <ele>194</ele>
        <time>2021-04-03T10:52:06Z</time>
      </trkpt>
      <trkpt lat="43.65851" lon="3.60461">
        <ele>194</ele>
        <time>2021-04-03T10:52:08Z</time>
      </trkpt>
      <trkpt lat="43.65853" lon="3.60465">
        <ele>197</ele>
        <time>2021-04-03T10:52:10Z</time>
      </trkpt>
      <trkpt lat="43.65855" lon="3.60468">
        <ele>197</ele>
        <time>2021-04-03T10:52:12Z</time>
      </trkpt>
      <trkpt lat="43.65857" lon="3.60471">
        <ele>197</ele>
        <time>2021-04-03T10:52:14Z</time>
      </trkpt>
      <trkpt lat="43.65858" lon="3.60475">
        <ele>197</ele>
        <time>2021-04-03T10:52:16Z</time>
      </trkpt>
      <trkpt lat="43.6586" lon="3.60478">
        <ele>197</ele>
        <time>2021-04-03T10:52:18Z</time>
      </trkpt>
      <trkpt lat="43.65862" lon="3.60481">
        <ele>197</ele>
        <time>2021-04-03T10:52:20Z</time>
      </trkpt>
      <trkpt lat="43.65864" lon="3.60485">
        <ele>197</ele>
        <time>2021-04-03T10:52:22Z</time>
      </trkpt>
      <trkpt lat="43.65866" lon="3.60488">
        <ele>197</ele>
        <time>2021-04-03T10:52:24Z</time>
      </trkpt>
      <trkpt lat="43.65867" lon="3.60491">
        <ele>197</ele>
        <time>2021-04-03T10:52:26Z</time>
      </trkpt>
      <trkpt lat="43.65869" lon="3.60495">
        <ele>197</ele>
        <time>2021-04-03T10:52:28Z</time>
      </trkpt>
      <trkpt lat="43.65871" lon="3.60498">
        <ele>201</ele>
        <time>2021-04-03T10:52:30Z</time>
      </trkpt>
      <trkpt lat="43.65873" lon="3.60501">
        <ele>201</ele>
        <time>2021-04-03T10:52:32Z</time>
      </trkpt>
      <trkpt lat="43.65875" lon="3.60504">
        <ele>201</ele>
        <time>2021-04-03T10:52:34Z</time>
      </trkpt>
      <trkpt lat="43.65876" lon="3.60508">
        <ele>201</ele>
        <time>2021-04-03T10:52:36Z</time>
      </trkpt>
      <trkpt lat="43.65878" lon="3.60511">
        <ele>201</ele>
        <time>2021-04-03T10:52:38Z</time>
      </trkpt>
      <trkpt lat="43.6588" lon="3.60515">
        <ele>203</ele>
        <time>2021-04-03T10:52:40Z</time>
      </trkpt>
      <trkpt lat="43.65881" lon="3.60518">
        <ele>203</ele>
        <time>2021-04-03T10:52:42Z</time>
      </trkpt>
      <trkpt lat="43.65883" lon="3.60522">
        <ele>203</ele>
        <time>2021-04-03T10:52:44Z</time>
      </trkpt>
      <trkpt lat="43.65885" lon="3.60525">
        <ele>203</ele>
        <time>2021-04-03T10:52:46Z</time>
      </trkpt>
      <trkpt lat="43.65887" lon="3.60528">
        <ele>203</ele>
        <time>2021-04-03T10:52:48Z</time>
      </trkpt>
      <trkpt lat="43.65888" lon="3.60531">
        <ele>206</ele>
        <time>2021-04-03T10:52:50Z</time>
      </trkpt>
      <trkpt lat="43.6589" lon="3.60535">
        <ele>206</ele>
        <time>2021-04-03T10:52:52Z</time>
      </trkpt>
      <trkpt lat="43.65892" lon="3.60538">
        <ele>206</ele>
        <time>2021-04-03T10:52:54Z</time>
      </trkpt>
      <trkpt lat="43.65893" lon="3.60541">
        <ele>206</ele>
        <time>2021-04-03T10:52:56Z</time>
      </trkpt>
      <trkpt lat="43.65895" lon="3.60544">
        <ele>206</ele>
        <time>2021-04-03T10:52:58Z</time>
      </trkpt>
      <trkpt lat="43.65896" lon="3.60547">
        <ele>206</ele>
        <time>2021-04-03T10:53:00Z</time>
      </trkpt>
      <trkpt lat="43.65898" lon="3.6055">
        <ele>206</ele>
        <time>2021-04-03T10:53:02Z</time>
      </trkpt>
      <trkpt lat="43.65899" lon="3.60552">
        <ele>206</ele>
        <time>2021-04-03T10:53:04Z</time>
      </trkpt>
      <trkpt lat="43.65901" lon="3.60554">
        <ele>206</ele>
        <time>2021-04-03T10:53:06Z</time>
      </trkpt>
      <trkpt lat="43.65903" lon="3.60557">
        <ele>206</ele>
        <time>2021-04-03T10:53:08Z</time>
      </trkpt>
      <trkpt lat="43.65904" lon="3.6056">
        <ele>211</ele>
        <time>2021-04-03T10:53:10Z</time>
      </trkpt>
      <trkpt lat="43.65905" lon="3.60563">
        <ele>211</ele>
        <time>2021-04-03T10:53:12Z</time>
      </trkpt>
      <trkpt lat="43.65906" lon="3.60566">
        <ele>211</ele>
        <time>2021-04-03T10:53:14Z</time>
      </trkpt>
      <trkpt lat="43.65908" lon="3.60569">
        <ele>211</ele>
        <time>2021-04-03T10:53:16Z</time>
      </trkpt>
      <trkpt lat="43.6591" lon="3.60572">
        <ele>211</ele>
        <time>2021-04-03T10:53:18Z</time>
      </trkpt>
      <trkpt lat="43.65911" lon="3.60574">
        <ele>213</ele>
        <time>2021-04-03T10:53:20Z</time>
      </trkpt>
      <trkpt lat="43.65912" lon="3.60578">
        <ele>213</ele>
        <time>2021-04-03T10:53:22Z</time>
      </trkpt>
      <trkpt lat="43.65914" lon="3.60581">
        <ele>213</ele>
        <time>2021-04-03T10:53:24Z</time>
      </trkpt>
      <trkpt lat="43.65916" lon="3.60584">
        <ele>213</ele>
        <time>2021-04-03T10:53:26Z</time>
      </trkpt>
      <trkpt lat="43.65917" lon="3.60587">
        <ele>213</ele>
        <time>2021-04-03T10:53:28Z</time>
      </trkpt>
      <trkpt lat="43.65919" lon="3.6059">
        <ele>216</ele>
        <time>2021-04-03T10:53:30Z</time>
      </trkpt>
      <trkpt lat="43.6592" lon="3.60593">
        <ele>216</ele>
        <time>2021-04-03T10:53:32Z</time>
      </trkpt>
      <trkpt lat="43.65922" lon="3.60596">
        <ele>216</ele>
        <time>2021-04-03T10:53:34Z</time>
      </trkpt>
      <trkpt lat="43.65924" lon="3.60598">
        <ele>216</ele>
        <time>2021-04-03T10:53:36Z</time>
      </trkpt>
      <trkpt lat="43.65925" lon="3.60601">
        <ele>216</ele>
        <time>2021-04-03T10:53:38Z</time>
      </trkpt>
      <trkpt lat="43.65928" lon="3.60603">
        <ele>216</ele>
        <time>2021-04-03T10:53:40Z</time>
      </trkpt>
      <trkpt lat="43.65929" lon="3.60605">
        <ele>216</ele>
        <time>2021-04-03T10:53:42Z</time>
      </trkpt>
      <trkpt lat="43.6593" lon="3.60608">
        <ele>216</ele>
        <time>2021-04-03T10:53:44Z</time>
      </trkpt>
      <trkpt lat="43.65931" lon="3.60611">
        <ele>216</ele>
        <time>2021-04-03T10:53:46Z</time>
      </trkpt>
      <trkpt lat="43.65929" lon="3.60622">
        <ele>217</ele>
        <time>2021-04-03T10:55:14Z</time>
      </trkpt>
      <trkpt lat="43.65929" lon="3.60624">
        <ele>217</ele>
        <time>2021-04-03T10:55:15Z</time>
      </trkpt>
      <trkpt lat="43.65929" lon="3.60627">
        <ele>217</ele>
        <time>2021-04-03T10:55:16Z</time>
      </trkpt>
      <trkpt lat="43.65929" lon="3.60629">
        <ele>217</ele>
        <time>2021-04-03T10:55:17Z</time>
      </trkpt>
      <trkpt lat="43.6593" lon="3.60634">
        <ele>217</ele>
        <time>2021-04-03T10:55:19Z</time>
      </trkpt>
      <trkpt lat="43.6593" lon="3.60636">
        <ele>217</ele>
        <time>2021-04-03T10:55:20Z</time>
      </trkpt>
      <trkpt lat="43.65931" lon="3.60639">
        <ele>217</ele>
        <time>2021-04-03T10:55:21Z</time>
      </trkpt>
      <trkpt lat="43.65932" lon="3.60642">
        <ele>217</ele>
        <time>2021-04-03T10:55:22Z</time>
      </trkpt>
      <trkpt lat="43.65932" lon="3.60645">
        <ele>218</ele>
        <time>2021-04-03T10:55:23Z</time>
      </trkpt>
      <trkpt lat="43.65933" lon="3.60648">
        <ele>218</ele>
        <time>2021-04-03T10:55:24Z</time>
      </trkpt>
      <trkpt lat="43.65934" lon="3.60652">
        <ele>218</ele>
        <time>2021-04-03T10:55:25Z</time>
      </trkpt>
      <trkpt lat="43.65935" lon="3.60655">
        <ele>218</ele>
        <time>2021-04-03T10:55:26Z</time>
      </trkpt>
      <trkpt lat="43.65936" lon="3.60658">
        <ele>218</ele>
        <time>2021-04-03T10:55:27Z</time>
      </trkpt>
      <trkpt lat="43.65937" lon="3.60661">
        <ele>218</ele>
        <time>2021-04-03T10:55:28Z</time>
      </trkpt>
      <trkpt lat="43.65938" lon="3.60665">
        <ele>218</ele>
        <time>2021-04-03T10:55:29Z</time>
      </trkpt>
      <trkpt lat="43.65938" lon="3.60668">
        <ele>218</ele>
        <time>2021-04-03T10:55:30Z</time>
      </trkpt>
      <trkpt lat="43.65939" lon="3.60672">
        <ele>218</ele>
        <time>2021-04-03T10:55:31Z</time>
      </trkpt>
      <trkpt lat="43.6594" lon="3.60675">
        <ele>218</ele>
        <time>2021-04-03T10:55:32Z</time>
      </trkpt>
      <trkpt lat="43.65941" lon="3.60679">
        <ele>218</ele>
        <time>2021-04-03T10:55:33Z</time>
      </trkpt>
      <trkpt lat="43.65942" lon="3.60683">
        <ele>218</ele>
        <time>2021-04-03T10:55:34Z</time>
      </trkpt>
      <trkpt lat="43.65943" lon="3.60687">
        <ele>218</ele>
        <time>2021-04-03T10:55:35Z</time>
      </trkpt>
      <trkpt lat="43.65944" lon="3.60691">
        <ele>218</ele>
        <time>2021-04-03T10:55:36Z</time>
      </trkpt>
      <trkpt lat="43.65945" lon="3.60695">
        <ele>218</ele>
        <time>2021-04-03T10:55:37Z</time>
      </trkpt>
      <trkpt lat="43.65946" lon="3.607">
        <ele>218</ele>
        <time>2021-04-03T10:55:38Z</time>
      </trkpt>
      <trkpt lat="43.65946" lon="3.60704">
        <ele>218</ele>
        <time>2021-04-03T10:55:39Z</time>
      </trkpt>
      <trkpt lat="43.65947" lon="3.60709">
        <ele>218</ele>
        <time>2021-04-03T10:55:40Z</time>
      </trkpt>
      <trkpt lat="43.65948" lon="3.60714">
        <ele>218</ele>
        <time>2021-04-03T10:55:41Z</time>
      </trkpt>
      <trkpt lat="43.65948" lon="3.60719">
        <ele>218</ele>
        <time>2021-04-03T10:55:42Z</time>
      </trkpt>
      <trkpt lat="43.65948" lon="3.60724">
        <ele>218</ele>
        <time>2021-04-03T10:55:43Z</time>
      </trkpt>
      <trkpt lat="43.65948" lon="3.60729">
        <ele>218</ele>
        <time>2021-04-03T10:55:44Z</time>
      </trkpt>
      <trkpt lat="43.65948" lon="3.60734">
        <ele>218</ele>
        <time>2021-04-03T10:55:45Z</time>
      </trkpt>
      <trkpt lat="43.65948" lon="3.60739">
        <ele>218</ele>
        <time>2021-04-03T10:55:46Z</time>
      </trkpt>
      <trkpt lat="43.65948" lon="3.60743">
        <ele>218</ele>
        <time>2021-04-03T10:55:47Z</time>
      </trkpt>
      <trkpt lat="43.65948" lon="3.60748">
        <ele>218</ele>
        <time>2021-04-03T10:55:48Z</time>
      </trkpt>
      <trkpt lat="43.65947" lon="3.60752">
        <ele>218</ele>
        <time>2021-04-03T10:55:49Z</time>
      </trkpt>
      <trkpt lat="43.65947" lon="3.60757">
        <ele>218</ele>
        <time>2021-04-03T10:55:50Z</time>
      </trkpt>
      <trkpt lat="43.65947" lon="3.60761">
        <ele>218</ele>
        <time>2021-04-03T10:55:51Z</time>
      </trkpt>
      <trkpt lat="43.65947" lon="3.60766">
        <ele>218</ele>
        <time>2021-04-03T10:55:52Z</time>
      </trkpt>
      <trkpt lat="43.65947" lon="3.60769">
        <ele>218</ele>
        <time>2021-04-03T10:55:53Z</time>
      </trkpt>
      <trkpt lat="43.65947" lon="3.60772">
        <ele>218</ele>
        <time>2021-04-03T10:55:54Z</time>
      </trkpt>
      <trkpt lat="43.65946" lon="3.60775">
        <ele>218</ele>
        <time>2021-04-03T10:55:56Z</time>
      </trkpt>
      <trkpt lat="43.65946" lon="3.60775">
        <ele>218</ele>
        <time>2021-04-03T10:56:02Z</time>
      </trkpt>
      <trkpt lat="43.65949" lon="3.60786">
        <ele>218</ele>
        <time>2021-04-03T10:56:28Z</time>
      </trkpt>
      <trkpt lat="43.65949" lon="3.60789">
        <ele>218</ele>
        <time>2021-04-03T10:56:29Z</time>
      </trkpt>
      <trkpt lat="43.65949" lon="3.60791">
        <ele>218</ele>
        <time>2021-04-03T10:56:30Z</time>
      </trkpt>
      <trkpt lat="43.6595" lon="3.60795">
        <ele>218</ele>
        <time>2021-04-03T10:56:31Z</time>
      </trkpt>
      <trkpt lat="43.65951" lon="3.60798">
        <ele>218</ele>
        <time>2021-04-03T10:56:32Z</time>
      </trkpt>
      <trkpt lat="43.65952" lon="3.60802">
        <ele>218</ele>
        <time>2021-04-03T10:56:33Z</time>
      </trkpt>
      <trkpt lat="43.65953" lon="3.60806">
        <ele>218</ele>
        <time>2021-04-03T10:56:34Z</time>
      </trkpt>
      <trkpt lat="43.65954" lon="3.6081">
        <ele>218</ele>
        <time>2021-04-03T10:56:35Z</time>
      </trkpt>
      <trkpt lat="43.65955" lon="3.60814">
        <ele>218</ele>
        <time>2021-04-03T10:56:36Z</time>
      </trkpt>
      <trkpt lat="43.65956" lon="3.60818">
        <ele>219</ele>
        <time>2021-04-03T10:56:37Z</time>
      </trkpt>
      <trkpt lat="43.65957" lon="3.60822">
        <ele>219</ele>
        <time>2021-04-03T10:56:38Z</time>
      </trkpt>
      <trkpt lat="43.65959" lon="3.60825">
        <ele>219</ele>
        <time>2021-04-03T10:56:39Z</time>
      </trkpt>
      <trkpt lat="43.65961" lon="3.60828">
        <ele>219</ele>
        <time>2021-04-03T10:56:40Z</time>
      </trkpt>
      <trkpt lat="43.65963" lon="3.60832">
        <ele>219</ele>
        <time>2021-04-03T10:56:41Z</time>
      </trkpt>
      <trkpt lat="43.65964" lon="3.60835">
        <ele>219</ele>
        <time>2021-04-03T10:56:42Z</time>
      </trkpt>
      <trkpt lat="43.65966" lon="3.60838">
        <ele>219</ele>
        <time>2021-04-03T10:56:43Z</time>
      </trkpt>
      <trkpt lat="43.65968" lon="3.60841">
        <ele>219</ele>
        <time>2021-04-03T10:56:44Z</time>
      </trkpt>
      <trkpt lat="43.65969" lon="3.60845">
        <ele>219</ele>
        <time>2021-04-03T10:56:45Z</time>
      </trkpt>
      <trkpt lat="43.65971" lon="3.60848">
        <ele>219</ele>
        <time>2021-04-03T10:56:46Z</time>
      </trkpt>
      <trkpt lat="43.65974" lon="3.60851">
        <ele>219</ele>
        <time>2021-04-03T10:56:47Z</time>
      </trkpt>
      <trkpt lat="43.65976" lon="3.60854">
        <ele>218</ele>
        <time>2021-04-03T10:56:48Z</time>
      </trkpt>
      <trkpt lat="43.65979" lon="3.60858">
        <ele>218</ele>
        <time>2021-04-03T10:56:49Z</time>
      </trkpt>
      <trkpt lat="43.6598" lon="3.60862">
        <ele>218</ele>
        <time>2021-04-03T10:56:50Z</time>
      </trkpt>
      <trkpt lat="43.65982" lon="3.60865">
        <ele>218</ele>
        <time>2021-04-03T10:56:51Z</time>
      </trkpt>
      <trkpt lat="43.65984" lon="3.60868">
        <ele>218</ele>
        <time>2021-04-03T10:56:52Z</time>
      </trkpt>
      <trkpt lat="43.65986" lon="3.6087">
        <ele>218</ele>
        <time>2021-04-03T10:56:53Z</time>
      </trkpt>
      <trkpt lat="43.65987" lon="3.60873">
        <ele>218</ele>
        <time>2021-04-03T10:56:54Z</time>
      </trkpt>
      <trkpt lat="43.65989" lon="3.60875">
        <ele>218</ele>
        <time>2021-04-03T10:56:55Z</time>
      </trkpt>
      <trkpt lat="43.6599" lon="3.60878">
        <ele>218</ele>
        <time>2021-04-03T10:56:56Z</time>
      </trkpt>
      <trkpt lat="43.65992" lon="3.6088">
        <ele>219</ele>
        <time>2021-04-03T10:56:57Z</time>
      </trkpt>
      <trkpt lat="43.65994" lon="3.60883">
        <ele>219</ele>
        <time>2021-04-03T10:56:58Z</time>
      </trkpt>
      <trkpt lat="43.65996" lon="3.60885">
        <ele>219</ele>
        <time>2021-04-03T10:56:59Z</time>
      </trkpt>
      <trkpt lat="43.65998" lon="3.60888">
        <ele>219</ele>
        <time>2021-04-03T10:57:00Z</time>
      </trkpt>
      <trkpt lat="43.66" lon="3.60891">
        <ele>219</ele>
        <time>2021-04-03T10:57:01Z</time>
      </trkpt>
      <trkpt lat="43.66002" lon="3.60893">
        <ele>219</ele>
        <time>2021-04-03T10:57:02Z</time>
      </trkpt>
      <trkpt lat="43.66004" lon="3.60896">
        <ele>219</ele>
        <time>2021-04-03T10:57:03Z</time>
      </trkpt>
      <trkpt lat="43.66006" lon="3.60898">
        <ele>219</ele>
        <time>2021-04-03T10:57:04Z</time>
      </trkpt>
      <trkpt lat="43.66007" lon="3.609">
        <ele>219</ele>
        <time>2021-04-03T10:57:05Z</time>
      </trkpt>
      <trkpt lat="43.66009" lon="3.60902">
        <ele>219</ele>
        <time>2021-04-03T10:57:06Z</time>
      </trkpt>
      <trkpt lat="43.6601" lon="3.60904">
        <ele>219</ele>
        <time>2021-04-03T10:57:07Z</time>
      </trkpt>
      <trkpt lat="43.66012" lon="3.60907">
        <ele>219</ele>
        <time>2021-04-03T10:57:08Z</time>
      </trkpt>
      <trkpt lat="43.66013" lon="3.60909">
        <ele>219</ele>
        <time>2021-04-03T10:57:09Z</time>
      </trkpt>
      <trkpt lat="43.66015" lon="3.60911">
        <ele>219</ele>
        <time>2021-04-03T10:57:10Z</time>
      </trkpt>
      <trkpt lat="43.66016" lon="3.60913">
        <ele>219</ele>
        <time>2021-04-03T10:57:11Z</time>
      </trkpt>
      <trkpt lat="43.66017" lon="3.60915">
        <ele>219</ele>
        <time>2021-04-03T10:57:12Z</time>
      </trkpt>
      <trkpt lat="43.6602" lon="3.60918">
        <ele>219</ele>
        <time>2021-04-03T10:57:14Z</time>
      </trkpt>
      <trkpt lat="43.66022" lon="3.60921">
        <ele>219</ele>
        <time>2021-04-03T10:57:16Z</time>
      </trkpt>
      <trkpt lat="43.66024" lon="3.60923">
        <ele>219</ele>
        <time>2021-04-03T10:57:17Z</time>
      </trkpt>
      <trkpt lat="43.66026" lon="3.60924">
        <ele>221</ele>
        <time>2021-04-03T10:57:18Z</time>
      </trkpt>
      <trkpt lat="43.66027" lon="3.60926">
        <ele>221</ele>
        <time>2021-04-03T10:57:19Z</time>
      </trkpt>
      <trkpt lat="43.66029" lon="3.60927">
        <ele>221</ele>
        <time>2021-04-03T10:57:20Z</time>
      </trkpt>
      <trkpt lat="43.66032" lon="3.6093">
        <ele>221</ele>
        <time>2021-04-03T10:57:22Z</time>
      </trkpt>
      <trkpt lat="43.66034" lon="3.60932">
        <ele>221</ele>
        <time>2021-04-03T10:57:24Z</time>
      </trkpt>
      <trkpt lat="43.66036" lon="3.60933">
        <ele>221</ele>
        <time>2021-04-03T10:57:25Z</time>
      </trkpt>
      <trkpt lat="43.66039" lon="3.60935">
        <ele>221</ele>
        <time>2021-04-03T10:57:27Z</time>
      </trkpt>
      <trkpt lat="43.66042" lon="3.60936">
        <ele>221</ele>
        <time>2021-04-03T10:57:29Z</time>
      </trkpt>
      <trkpt lat="43.66044" lon="3.60936">
        <ele>221</ele>
        <time>2021-04-03T10:57:30Z</time>
      </trkpt>
      <trkpt lat="43.66046" lon="3.60937">
        <ele>221</ele>
        <time>2021-04-03T10:57:31Z</time>
      </trkpt>
      <trkpt lat="43.6605" lon="3.60937">
        <ele>221</ele>
        <time>2021-04-03T10:57:33Z</time>
      </trkpt>
      <trkpt lat="43.66053" lon="3.60937">
        <ele>221</ele>
        <time>2021-04-03T10:57:35Z</time>
      </trkpt>
      <trkpt lat="43.66056" lon="3.60937">
        <ele>221</ele>
        <time>2021-04-03T10:57:37Z</time>
      </trkpt>
      <trkpt lat="43.6606" lon="3.60937">
        <ele>221</ele>
        <time>2021-04-03T10:57:39Z</time>
      </trkpt>
      <trkpt lat="43.66063" lon="3.60937">
        <ele>221</ele>
        <time>2021-04-03T10:57:41Z</time>
      </trkpt>
      <trkpt lat="43.66066" lon="3.60938">
        <ele>221</ele>
        <time>2021-04-03T10:57:43Z</time>
      </trkpt>
      <trkpt lat="43.6607" lon="3.60938">
        <ele>221</ele>
        <time>2021-04-03T10:57:45Z</time>
      </trkpt>
      <trkpt lat="43.66073" lon="3.60939">
        <ele>221</ele>
        <time>2021-04-03T10:57:47Z</time>
      </trkpt>
      <trkpt lat="43.66076" lon="3.60939">
        <ele>221</ele>
        <time>2021-04-03T10:57:49Z</time>
      </trkpt>
      <trkpt lat="43.66079" lon="3.6094">
        <ele>221</ele>
        <time>2021-04-03T10:57:51Z</time>
      </trkpt>
      <trkpt lat="43.66082" lon="3.60941">
        <ele>221</ele>
        <time>2021-04-03T10:57:53Z</time>
      </trkpt>
      <trkpt lat="43.66086" lon="3.60942">
        <ele>221</ele>
        <time>2021-04-03T10:57:55Z</time>
      </trkpt>
      <trkpt lat="43.66089" lon="3.60942">
        <ele>221</ele>
        <time>2021-04-03T10:57:57Z</time>
      </trkpt>
      <trkpt lat="43.66092" lon="3.60943">
        <ele>221</ele>
        <time>2021-04-03T10:57:59Z</time>
      </trkpt>
      <trkpt lat="43.66095" lon="3.60943">
        <ele>221</ele>
        <time>2021-04-03T10:58:01Z</time>
      </trkpt>
      <trkpt lat="43.66098" lon="3.60944">
        <ele>221</ele>
        <time>2021-04-03T10:58:03Z</time>
      </trkpt>
      <trkpt lat="43.66101" lon="3.60944">
        <ele>221</ele>
        <time>2021-04-03T10:58:05Z</time>
      </trkpt>
      <trkpt lat="43.66104" lon="3.60944">
        <ele>228</ele>
        <time>2021-04-03T10:58:07Z</time>
      </trkpt>
      <trkpt lat="43.66106" lon="3.60945">
        <ele>228</ele>
        <time>2021-04-03T10:58:09Z</time>
      </trkpt>
      <trkpt lat="43.66109" lon="3.60945">
        <ele>228</ele>
        <time>2021-04-03T10:58:11Z</time>
      </trkpt>
      <trkpt lat="43.66112" lon="3.60946">
        <ele>228</ele>
        <time>2021-04-03T10:58:13Z</time>
      </trkpt>
      <trkpt lat="43.66116" lon="3.60946">
        <ele>228</ele>
        <time>2021-04-03T10:58:15Z</time>
      </trkpt>
      <trkpt lat="43.66119" lon="3.60947">
        <ele>229</ele>
        <time>2021-04-03T10:58:17Z</time>
      </trkpt>
      <trkpt lat="43.66122" lon="3.60947">
        <ele>229</ele>
        <time>2021-04-03T10:58:19Z</time>
      </trkpt>
      <trkpt lat="43.66126" lon="3.60948">
        <ele>229</ele>
        <time>2021-04-03T10:58:21Z</time>
      </trkpt>
      <trkpt lat="43.66129" lon="3.60949">
        <ele>229</ele>
        <time>2021-04-03T10:58:23Z</time>
      </trkpt>
      <trkpt lat="43.66132" lon="3.60951">
        <ele>229</ele>
        <time>2021-04-03T10:58:25Z</time>
      </trkpt>
      <trkpt lat="43.66135" lon="3.60952">
        <ele>230</ele>
        <time>2021-04-03T10:58:27Z</time>
      </trkpt>
      <trkpt lat="43.66137" lon="3.60953">
        <ele>230</ele>
        <time>2021-04-03T10:58:29Z</time>
      </trkpt>
      <trkpt lat="43.66139" lon="3.60955">
        <ele>230</ele>
        <time>2021-04-03T10:58:31Z</time>
      </trkpt>
      <trkpt lat="43.66142" lon="3.60957">
        <ele>230</ele>
        <time>2021-04-03T10:58:33Z</time>
      </trkpt>
      <trkpt lat="43.66145" lon="3.60959">
        <ele>230</ele>
        <time>2021-04-03T10:58:35Z</time>
      </trkpt>
      <trkpt lat="43.66146" lon="3.60962">
        <ele>231</ele>
        <time>2021-04-03T10:58:37Z</time>
      </trkpt>
      <trkpt lat="43.66148" lon="3.60965">
        <ele>231</ele>
        <time>2021-04-03T10:58:39Z</time>
      </trkpt>
      <trkpt lat="43.66149" lon="3.60968">
        <ele>231</ele>
        <time>2021-04-03T10:58:41Z</time>
      </trkpt>
      <trkpt lat="43.66149" lon="3.60972">
        <ele>231</ele>
        <time>2021-04-03T10:58:43Z</time>
      </trkpt>
      <trkpt lat="43.6615" lon="3.60975">
        <ele>231</ele>
        <time>2021-04-03T10:58:45Z</time>
      </trkpt>
      <trkpt lat="43.66151" lon="3.60978">
        <ele>231</ele>
        <time>2021-04-03T10:58:47Z</time>
      </trkpt>
      <trkpt lat="43.66152" lon="3.60981">
        <ele>231</ele>
        <time>2021-04-03T10:58:49Z</time>
      </trkpt>
      <trkpt lat="43.66153" lon="3.60984">
        <ele>231</ele>
        <time>2021-04-03T10:58:51Z</time>
      </trkpt>
      <trkpt lat="43.66154" lon="3.60988">
        <ele>231</ele>
        <time>2021-04-03T10:58:53Z</time>
      </trkpt>
      <trkpt lat="43.66155" lon="3.60991">
        <ele>231</ele>
        <time>2021-04-03T10:58:55Z</time>
      </trkpt>
      <trkpt lat="43.66155" lon="3.60994">
        <ele>231</ele>
        <time>2021-04-03T10:58:57Z</time>
      </trkpt>
      <trkpt lat="43.66155" lon="3.60998">
        <ele>231</ele>
        <time>2021-04-03T10:58:59Z</time>
      </trkpt>
      <trkpt lat="43.66156" lon="3.61001">
        <ele>231</ele>
        <time>2021-04-03T10:59:01Z</time>
      </trkpt>
      <trkpt lat="43.66156" lon="3.61005">
        <ele>231</ele>
        <time>2021-04-03T10:59:03Z</time>
      </trkpt>
      <trkpt lat="43.66155" lon="3.61008">
        <ele>231</ele>
        <time>2021-04-03T10:59:05Z</time>
      </trkpt>
      <trkpt lat="43.66155" lon="3.61011">
        <ele>239</ele>
        <time>2021-04-03T10:59:07Z</time>
      </trkpt>
      <trkpt lat="43.66154" lon="3.61015">
        <ele>239</ele>
        <time>2021-04-03T10:59:09Z</time>
      </trkpt>
      <trkpt lat="43.66155" lon="3.61018">
        <ele>239</ele>
        <time>2021-04-03T10:59:11Z</time>
      </trkpt>
      <trkpt lat="43.66155" lon="3.61021">
        <ele>239</ele>
        <time>2021-04-03T10:59:13Z</time>
      </trkpt>
      <trkpt lat="43.66155" lon="3.61024">
        <ele>239</ele>
        <time>2021-04-03T10:59:15Z</time>
      </trkpt>
      <trkpt lat="43.66157" lon="3.61026">
        <ele>241</ele>
        <time>2021-04-03T10:59:17Z</time>
      </trkpt>
      <trkpt lat="43.66159" lon="3.61027">
        <ele>241</ele>
        <time>2021-04-03T10:59:19Z</time>
      </trkpt>
      <trkpt lat="43.66162" lon="3.61028">
        <ele>241</ele>
        <time>2021-04-03T10:59:21Z</time>
      </trkpt>
      <trkpt lat="43.66163" lon="3.61028">
        <ele>241</ele>
        <time>2021-04-03T10:59:22Z</time>
      </trkpt>
      <trkpt lat="43.66166" lon="3.61029">
        <ele>241</ele>
        <time>2021-04-03T10:59:24Z</time>
      </trkpt>
      <trkpt lat="43.66169" lon="3.61028">
        <ele>241</ele>
        <time>2021-04-03T10:59:26Z</time>
      </trkpt>
      <trkpt lat="43.66173" lon="3.61028">
        <ele>241</ele>
        <time>2021-04-03T10:59:28Z</time>
      </trkpt>
      <trkpt lat="43.66176" lon="3.61028">
        <ele>241</ele>
        <time>2021-04-03T10:59:30Z</time>
      </trkpt>
      <trkpt lat="43.66178" lon="3.61028">
        <ele>241</ele>
        <time>2021-04-03T10:59:31Z</time>
      </trkpt>
      <trkpt lat="43.6618" lon="3.61028">
        <ele>241</ele>
        <time>2021-04-03T10:59:32Z</time>
      </trkpt>
      <trkpt lat="43.66183" lon="3.61029">
        <ele>241</ele>
        <time>2021-04-03T10:59:33Z</time>
      </trkpt>
      <trkpt lat="43.66186" lon="3.61029">
        <ele>241</ele>
        <time>2021-04-03T10:59:34Z</time>
      </trkpt>
      <trkpt lat="43.66189" lon="3.6103">
        <ele>241</ele>
        <time>2021-04-03T10:59:35Z</time>
      </trkpt>
      <trkpt lat="43.66192" lon="3.6103">
        <ele>241</ele>
        <time>2021-04-03T10:59:36Z</time>
      </trkpt>
      <trkpt lat="43.66195" lon="3.6103">
        <ele>240</ele>
        <time>2021-04-03T10:59:37Z</time>
      </trkpt>
      <trkpt lat="43.66198" lon="3.6103">
        <ele>240</ele>
        <time>2021-04-03T10:59:38Z</time>
      </trkpt>
      <trkpt lat="43.66201" lon="3.6103">
        <ele>240</ele>
        <time>2021-04-03T10:59:39Z</time>
      </trkpt>
      <trkpt lat="43.66205" lon="3.61029">
        <ele>240</ele>
        <time>2021-04-03T10:59:40Z</time>
      </trkpt>
      <trkpt lat="43.66208" lon="3.61028">
        <ele>240</ele>
        <time>2021-04-03T10:59:41Z</time>
      </trkpt>
      <trkpt lat="43.66212" lon="3.61025">
        <ele>240</ele>
        <time>2021-04-03T10:59:42Z</time>
      </trkpt>
      <trkpt lat="43.66216" lon="3.61022">
        <ele>240</ele>
        <time>2021-04-03T10:59:43Z</time>
      </trkpt>
      <trkpt lat="43.66219" lon="3.61019">
        <ele>240</ele>
        <time>2021-04-03T10:59:44Z</time>
      </trkpt>
      <trkpt lat="43.66222" lon="3.61015">
        <ele>240</ele>
        <time>2021-04-03T10:59:45Z</time>
      </trkpt>
      <trkpt lat="43.66225" lon="3.61011">
        <ele>240</ele>
        <time>2021-04-03T10:59:46Z</time>
      </trkpt>
      <trkpt lat="43.66228" lon="3.61007">
        <ele>239</ele>
        <time>2021-04-03T10:59:47Z</time>
      </trkpt>
      <trkpt lat="43.66231" lon="3.61004">
        <ele>239</ele>
        <time>2021-04-03T10:59:48Z</time>
      </trkpt>
      <trkpt lat="43.66233" lon="3.61001">
        <ele>239</ele>
        <time>2021-04-03T10:59:49Z</time>
      </trkpt>
      <trkpt lat="43.66235" lon="3.60997">
        <ele>239</ele>
        <time>2021-04-03T10:59:50Z</time>
      </trkpt>
      <trkpt lat="43.66237" lon="3.60994">
        <ele>239</ele>
        <time>2021-04-03T10:59:51Z</time>
      </trkpt>
      <trkpt lat="43.66239" lon="3.60992">
        <ele>239</ele>
        <time>2021-04-03T10:59:52Z</time>
      </trkpt>
      <trkpt lat="43.6624" lon="3.60989">
        <ele>239</ele>
        <time>2021-04-03T10:59:53Z</time>
      </trkpt>
      <trkpt lat="43.66243" lon="3.60986">
        <ele>239</ele>
        <time>2021-04-03T10:59:55Z</time>
      </trkpt>
      <trkpt lat="43.66244" lon="3.60984">
        <ele>239</ele>
        <time>2021-04-03T10:59:57Z</time>
      </trkpt>
      <trkpt lat="43.66246" lon="3.60982">
        <ele>237</ele>
        <time>2021-04-03T11:00:06Z</time>
      </trkpt>
      <trkpt lat="43.66253" lon="3.60993">
        <ele>234</ele>
        <time>2021-04-03T11:00:58Z</time>
      </trkpt>
      <trkpt lat="43.6625" lon="3.60993">
        <ele>234</ele>
        <time>2021-04-03T11:01:04Z</time>
      </trkpt>
      <trkpt lat="43.66249" lon="3.60992">
        <ele>234</ele>
        <time>2021-04-03T11:01:06Z</time>
      </trkpt>
      <trkpt lat="43.66247" lon="3.6099">
        <ele>234</ele>
        <time>2021-04-03T11:01:09Z</time>
      </trkpt>
      <trkpt lat="43.66247" lon="3.60987">
        <ele>234</ele>
        <time>2021-04-03T11:01:12Z</time>
      </trkpt>
      <trkpt lat="43.66247" lon="3.60983">
        <ele>234</ele>
        <time>2021-04-03T11:01:19Z</time>
      </trkpt>
      <trkpt lat="43.6624" lon="3.6099">
        <ele>234</ele>
        <time>2021-04-03T11:02:46Z</time>
      </trkpt>
      <trkpt lat="43.66238" lon="3.60992">
        <ele>234</ele>
        <time>2021-04-03T11:02:48Z</time>
      </trkpt>
      <trkpt lat="43.66237" lon="3.60995">
        <ele>234</ele>
        <time>2021-04-03T11:02:50Z</time>
      </trkpt>
      <trkpt lat="43.66236" lon="3.60997">
        <ele>234</ele>
        <time>2021-04-03T11:02:52Z</time>
      </trkpt>
      <trkpt lat="43.66234" lon="3.61">
        <ele>234</ele>
        <time>2021-04-03T11:02:54Z</time>
      </trkpt>
      <trkpt lat="43.66233" lon="3.61002">
        <ele>234</ele>
        <time>2021-04-03T11:02:56Z</time>
      </trkpt>
      <trkpt lat="43.66233" lon="3.61005">
        <ele>234</ele>
        <time>2021-04-03T11:03:04Z</time>
      </trkpt>
      <trkpt lat="43.66233" lon="3.61015">
        <ele>234</ele>
        <time>2021-04-03T11:03:08Z</time>
      </trkpt>
      <trkpt lat="43.66233" lon="3.61018">
        <ele>234</ele>
        <time>2021-04-03T11:03:09Z</time>
      </trkpt>
      <trkpt lat="43.66233" lon="3.61021">
        <ele>234</ele>
        <time>2021-04-03T11:03:10Z</time>
      </trkpt>
      <trkpt lat="43.66233" lon="3.61024">
        <ele>234</ele>
        <time>2021-04-03T11:03:11Z</time>
      </trkpt>
      <trkpt lat="43.66232" lon="3.61027">
        <ele>234</ele>
        <time>2021-04-03T11:03:12Z</time>
      </trkpt>
      <trkpt lat="43.66232" lon="3.6103">
        <ele>234</ele>
        <time>2021-04-03T11:03:13Z</time>
      </trkpt>
      <trkpt lat="43.66231" lon="3.61034">
        <ele>234</ele>
        <time>2021-04-03T11:03:14Z</time>
      </trkpt>
      <trkpt lat="43.66231" lon="3.61039">
        <ele>234</ele>
        <time>2021-04-03T11:03:15Z</time>
      </trkpt>
      <trkpt lat="43.6623" lon="3.61044">
        <ele>234</ele>
        <time>2021-04-03T11:03:16Z</time>
      </trkpt>
      <trkpt lat="43.6623" lon="3.61049">
        <ele>234</ele>
        <time>2021-04-03T11:03:17Z</time>
      </trkpt>
      <trkpt lat="43.6623" lon="3.61055">
        <ele>234</ele>
        <time>2021-04-03T11:03:18Z</time>
      </trkpt>
      <trkpt lat="43.6623" lon="3.61061">
        <ele>234</ele>
        <time>2021-04-03T11:03:19Z</time>
      </trkpt>
      <trkpt lat="43.66229" lon="3.61067">
        <ele>234</ele>
        <time>2021-04-03T11:03:20Z</time>
      </trkpt>
      <trkpt lat="43.66228" lon="3.61073">
        <ele>234</ele>
        <time>2021-04-03T11:03:21Z</time>
      </trkpt>
      <trkpt lat="43.66227" lon="3.6108">
        <ele>234</ele>
        <time>2021-04-03T11:03:22Z</time>
      </trkpt>
      <trkpt lat="43.66226" lon="3.61086">
        <ele>234</ele>
        <time>2021-04-03T11:03:23Z</time>
      </trkpt>
      <trkpt lat="43.66224" lon="3.61093">
        <ele>234</ele>
        <time>2021-04-03T11:03:24Z</time>
      </trkpt>
      <trkpt lat="43.66222" lon="3.61099">
        <ele>234</ele>
        <time>2021-04-03T11:03:25Z</time>
      </trkpt>
      <trkpt lat="43.66219" lon="3.61103">
        <ele>234</ele>
        <time>2021-04-03T11:03:26Z</time>
      </trkpt>
      <trkpt lat="43.66218" lon="3.61106">
        <ele>234</ele>
        <time>2021-04-03T11:03:27Z</time>
      </trkpt>
      <trkpt lat="43.66216" lon="3.61108">
        <ele>234</ele>
        <time>2021-04-03T11:03:28Z</time>
      </trkpt>
      <trkpt lat="43.66214" lon="3.61111">
        <ele>234</ele>
        <time>2021-04-03T11:03:29Z</time>
      </trkpt>
      <trkpt lat="43.66213" lon="3.61114">
        <ele>234</ele>
        <time>2021-04-03T11:03:30Z</time>
      </trkpt>
      <trkpt lat="43.66211" lon="3.61117">
        <ele>234</ele>
        <time>2021-04-03T11:03:31Z</time>
      </trkpt>
      <trkpt lat="43.6621" lon="3.6112">
        <ele>234</ele>
        <time>2021-04-03T11:03:32Z</time>
      </trkpt>
      <trkpt lat="43.66209" lon="3.61124">
        <ele>234</ele>
        <time>2021-04-03T11:03:33Z</time>
      </trkpt>
      <trkpt lat="43.66208" lon="3.61127">
        <ele>234</ele>
        <time>2021-04-03T11:03:34Z</time>
      </trkpt>
      <trkpt lat="43.66206" lon="3.6113">
        <ele>234</ele>
        <time>2021-04-03T11:03:35Z</time>
      </trkpt>
      <trkpt lat="43.66205" lon="3.61134">
        <ele>234</ele>
        <time>2021-04-03T11:03:36Z</time>
      </trkpt>
      <trkpt lat="43.66204" lon="3.61137">
        <ele>233</ele>
        <time>2021-04-03T11:03:37Z</time>
      </trkpt>
      <trkpt lat="43.66203" lon="3.61141">
        <ele>233</ele>
        <time>2021-04-03T11:03:38Z</time>
      </trkpt>
      <trkpt lat="43.66202" lon="3.61145">
        <ele>233</ele>
        <time>2021-04-03T11:03:39Z</time>
      </trkpt>
      <trkpt lat="43.66201" lon="3.61148">
        <ele>233</ele>
        <time>2021-04-03T11:03:40Z</time>
      </trkpt>
      <trkpt lat="43.66199" lon="3.61151">
        <ele>233</ele>
        <time>2021-04-03T11:03:41Z</time>
      </trkpt>
      <trkpt lat="43.66198" lon="3.61155">
        <ele>233</ele>
        <time>2021-04-03T11:03:42Z</time>
      </trkpt>
      <trkpt lat="43.66196" lon="3.61158">
        <ele>233</ele>
        <time>2021-04-03T11:03:43Z</time>
      </trkpt>
      <trkpt lat="43.66195" lon="3.6116">
        <ele>233</ele>
        <time>2021-04-03T11:03:44Z</time>
      </trkpt>
      <trkpt lat="43.66194" lon="3.61163">
        <ele>233</ele>
        <time>2021-04-03T11:03:45Z</time>
      </trkpt>
      <trkpt lat="43.66193" lon="3.61166">
        <ele>233</ele>
        <time>2021-04-03T11:03:46Z</time>
      </trkpt>
      <trkpt lat="43.66192" lon="3.61169">
        <ele>233</ele>
        <time>2021-04-03T11:03:47Z</time>
      </trkpt>
      <trkpt lat="43.66191" lon="3.61173">
        <ele>233</ele>
        <time>2021-04-03T11:03:48Z</time>
      </trkpt>
      <trkpt lat="43.6619" lon="3.61177">
        <ele>233</ele>
        <time>2021-04-03T11:03:49Z</time>
      </trkpt>
      <trkpt lat="43.66189" lon="3.61181">
        <ele>233</ele>
        <time>2021-04-03T11:03:50Z</time>
      </trkpt>
      <trkpt lat="43.66189" lon="3.61185">
        <ele>233</ele>
        <time>2021-04-03T11:03:51Z</time>
      </trkpt>
      <trkpt lat="43.66188" lon="3.6119">
        <ele>233</ele>
        <time>2021-04-03T11:03:52Z</time>
      </trkpt>
      <trkpt lat="43.66186" lon="3.61195">
        <ele>233</ele>
        <time>2021-04-03T11:03:53Z</time>
      </trkpt>
      <trkpt lat="43.66185" lon="3.612">
        <ele>233</ele>
        <time>2021-04-03T11:03:54Z</time>
      </trkpt>
      <trkpt lat="43.66184" lon="3.61204">
        <ele>233</ele>
        <time>2021-04-03T11:03:55Z</time>
      </trkpt>
      <trkpt lat="43.66183" lon="3.61209">
        <ele>233</ele>
        <time>2021-04-03T11:03:56Z</time>
      </trkpt>
      <trkpt lat="43.66182" lon="3.61213">
        <ele>233</ele>
        <time>2021-04-03T11:03:57Z</time>
      </trkpt>
      <trkpt lat="43.66182" lon="3.61217">
        <ele>234</ele>
        <time>2021-04-03T11:03:58Z</time>
      </trkpt>
      <trkpt lat="43.66181" lon="3.61222">
        <ele>234</ele>
        <time>2021-04-03T11:03:59Z</time>
      </trkpt>
      <trkpt lat="43.66181" lon="3.61226">
        <ele>234</ele>
        <time>2021-04-03T11:04:00Z</time>
      </trkpt>
      <trkpt lat="43.6618" lon="3.61232">
        <ele>234</ele>
        <time>2021-04-03T11:04:01Z</time>
      </trkpt>
      <trkpt lat="43.66179" lon="3.61238">
        <ele>234</ele>
        <time>2021-04-03T11:04:02Z</time>
      </trkpt>
      <trkpt lat="43.66179" lon="3.61244">
        <ele>234</ele>
        <time>2021-04-03T11:04:03Z</time>
      </trkpt>
      <trkpt lat="43.66178" lon="3.61249">
        <ele>234</ele>
        <time>2021-04-03T11:04:04Z</time>
      </trkpt>
      <trkpt lat="43.66177" lon="3.61254">
        <ele>234</ele>
        <time>2021-04-03T11:04:05Z</time>
      </trkpt>
      <trkpt lat="43.66177" lon="3.61259">
        <ele>234</ele>
        <time>2021-04-03T11:04:06Z</time>
      </trkpt>
      <trkpt lat="43.66177" lon="3.61265">
        <ele>234</ele>
        <time>2021-04-03T11:04:07Z</time>
      </trkpt>
      <trkpt lat="43.66177" lon="3.6127">
        <ele>234</ele>
        <time>2021-04-03T11:04:08Z</time>
      </trkpt>
      <trkpt lat="43.66176" lon="3.61274">
        <ele>234</ele>
        <time>2021-04-03T11:04:09Z</time>
      </trkpt>
      <trkpt lat="43.66175" lon="3.61278">
        <ele>234</ele>
        <time>2021-04-03T11:04:10Z</time>
      </trkpt>
      <trkpt lat="43.66174" lon="3.61282">
        <ele>234</ele>
        <time>2021-04-03T11:04:11Z</time>
      </trkpt>
      <trkpt lat="43.66172" lon="3.61286">
        <ele>234</ele>
        <time>2021-04-03T11:04:12Z</time>
      </trkpt>
      <trkpt lat="43.66171" lon="3.61289">
        <ele>234</ele>
        <time>2021-04-03T11:04:13Z</time>
      </trkpt>
      <trkpt lat="43.6617" lon="3.61292">
        <ele>234</ele>
        <time>2021-04-03T11:04:14Z</time>
      </trkpt>
      <trkpt lat="43.66169" lon="3.61295">
        <ele>234</ele>
        <time>2021-04-03T11:04:15Z</time>
      </trkpt>
      <trkpt lat="43.66169" lon="3.61298">
        <ele>234</ele>
        <time>2021-04-03T11:04:16Z</time>
      </trkpt>
      <trkpt lat="43.66169" lon="3.61301">
        <ele>233</ele>
        <time>2021-04-03T11:04:17Z</time>
      </trkpt>
      <trkpt lat="43.66168" lon="3.61305">
        <ele>233</ele>
        <time>2021-04-03T11:04:18Z</time>
      </trkpt>
      <trkpt lat="43.66169" lon="3.61318">
        <ele>233</ele>
        <time>2021-04-03T11:04:22Z</time>
      </trkpt>
      <trkpt lat="43.66176" lon="3.61328">
        <ele>233</ele>
        <time>2021-04-03T11:04:26Z</time>
      </trkpt>
      <trkpt lat="43.66183" lon="3.61336">
        <ele>233</ele>
        <time>2021-04-03T11:04:30Z</time>
      </trkpt>
      <trkpt lat="43.66185" lon="3.61338">
        <ele>233</ele>
        <time>2021-04-03T11:04:32Z</time>
      </trkpt>
      <trkpt lat="43.66186" lon="3.6134">
        <ele>235</ele>
        <time>2021-04-03T11:04:41Z</time>
      </trkpt>
      <trkpt lat="43.66197" lon="3.61345">
        <ele>236</ele>
        <time>2021-04-03T11:04:59Z</time>
      </trkpt>
      <trkpt lat="43.66199" lon="3.61345">
        <ele>236</ele>
        <time>2021-04-03T11:05:00Z</time>
      </trkpt>
      <trkpt lat="43.66201" lon="3.61345">
        <ele>236</ele>
        <time>2021-04-03T11:05:01Z</time>
      </trkpt>
      <trkpt lat="43.66203" lon="3.61346">
        <ele>236</ele>
        <time>2021-04-03T11:05:02Z</time>
      </trkpt>
      <trkpt lat="43.66205" lon="3.61346">
        <ele>236</ele>
        <time>2021-04-03T11:05:03Z</time>
      </trkpt>
      <trkpt lat="43.66207" lon="3.61347">
        <ele>236</ele>
        <time>2021-04-03T11:05:04Z</time>
      </trkpt>
      <trkpt lat="43.6621" lon="3.6135">
        <ele>236</ele>
        <time>2021-04-03T11:05:06Z</time>
      </trkpt>
      <trkpt lat="43.66213" lon="3.61351">
        <ele>236</ele>
        <time>2021-04-03T11:05:08Z</time>
      </trkpt>
      <trkpt lat="43.66216" lon="3.61352">
        <ele>236</ele>
        <time>2021-04-03T11:05:10Z</time>
      </trkpt>
      <trkpt lat="43.6622" lon="3.61353">
        <ele>236</ele>
        <time>2021-04-03T11:05:12Z</time>
      </trkpt>
      <trkpt lat="43.66223" lon="3.61353">
        <ele>236</ele>
        <time>2021-04-03T11:05:14Z</time>
      </trkpt>
      <trkpt lat="43.66225" lon="3.61354">
        <ele>236</ele>
        <time>2021-04-03T11:05:15Z</time>
      </trkpt>
      <trkpt lat="43.66227" lon="3.61354">
        <ele>236</ele>
        <time>2021-04-03T11:05:16Z</time>
      </trkpt>
      <trkpt lat="43.66229" lon="3.61355">
        <ele>236</ele>
        <time>2021-04-03T11:05:18Z</time>
      </trkpt>
      <trkpt lat="43.66232" lon="3.61356">
        <ele>236</ele>
        <time>2021-04-03T11:05:20Z</time>
      </trkpt>
      <trkpt lat="43.66235" lon="3.61358">
        <ele>236</ele>
        <time>2021-04-03T11:05:22Z</time>
      </trkpt>
      <trkpt lat="43.66239" lon="3.61359">
        <ele>236</ele>
        <time>2021-04-03T11:05:24Z</time>
      </trkpt>
      <trkpt lat="43.6624" lon="3.6136">
        <ele>236</ele>
        <time>2021-04-03T11:05:25Z</time>
      </trkpt>
      <trkpt lat="43.66243" lon="3.6136">
        <ele>236</ele>
        <time>2021-04-03T11:05:27Z</time>
      </trkpt>
      <trkpt lat="43.66245" lon="3.61362">
        <ele>236</ele>
        <time>2021-04-03T11:05:31Z</time>
      </trkpt>
      <trkpt lat="43.66247" lon="3.61363">
        <ele>236</ele>
        <time>2021-04-03T11:05:33Z</time>
      </trkpt>
      <trkpt lat="43.66247" lon="3.61366">
        <ele>236</ele>
        <time>2021-04-03T11:05:37Z</time>
      </trkpt>
      <trkpt lat="43.66246" lon="3.61368">
        <ele>236</ele>
        <time>2021-04-03T11:05:39Z</time>
      </trkpt>
      <trkpt lat="43.66244" lon="3.6137">
        <ele>236</ele>
        <time>2021-04-03T11:05:41Z</time>
      </trkpt>
      <trkpt lat="43.66242" lon="3.61373">
        <ele>236</ele>
        <time>2021-04-03T11:05:43Z</time>
      </trkpt>
      <trkpt lat="43.6624" lon="3.61376">
        <ele>236</ele>
        <time>2021-04-03T11:05:45Z</time>
      </trkpt>
      <trkpt lat="43.66239" lon="3.61378">
        <ele>236</ele>
        <time>2021-04-03T11:05:47Z</time>
      </trkpt>
      <trkpt lat="43.66237" lon="3.61381">
        <ele>240</ele>
        <time>2021-04-03T11:05:49Z</time>
      </trkpt>
      <trkpt lat="43.66236" lon="3.61383">
        <ele>240</ele>
        <time>2021-04-03T11:05:51Z</time>
      </trkpt>
      <trkpt lat="43.6624" lon="3.61374">
        <ele>242</ele>
        <time>2021-04-03T11:06:20Z</time>
      </trkpt>
      <trkpt lat="43.66243" lon="3.61371">
        <ele>242</ele>
        <time>2021-04-03T11:06:22Z</time>
      </trkpt>
      <trkpt lat="43.66245" lon="3.61369">
        <ele>242</ele>
        <time>2021-04-03T11:06:23Z</time>
      </trkpt>
      <trkpt lat="43.66247" lon="3.61366">
        <ele>242</ele>
        <time>2021-04-03T11:06:25Z</time>
      </trkpt>
      <trkpt lat="43.66249" lon="3.61365">
        <ele>242</ele>
        <time>2021-04-03T11:06:27Z</time>
      </trkpt>
      <trkpt lat="43.66251" lon="3.61366">
        <ele>241</ele>
        <time>2021-04-03T11:06:30Z</time>
      </trkpt>
      <trkpt lat="43.66253" lon="3.61367">
        <ele>241</ele>
        <time>2021-04-03T11:06:32Z</time>
      </trkpt>
      <trkpt lat="43.66255" lon="3.61368">
        <ele>241</ele>
        <time>2021-04-03T11:06:34Z</time>
      </trkpt>
      <trkpt lat="43.66257" lon="3.6137">
        <ele>241</ele>
        <time>2021-04-03T11:06:36Z</time>
      </trkpt>
      <trkpt lat="43.66258" lon="3.61372">
        <ele>241</ele>
        <time>2021-04-03T11:06:38Z</time>
      </trkpt>
      <trkpt lat="43.66261" lon="3.61373">
        <ele>242</ele>
        <time>2021-04-03T11:06:40Z</time>
      </trkpt>
      <trkpt lat="43.66262" lon="3.61374">
        <ele>242</ele>
        <time>2021-04-03T11:06:41Z</time>
      </trkpt>
      <trkpt lat="43.66265" lon="3.61375">
        <ele>242</ele>
        <time>2021-04-03T11:06:43Z</time>
      </trkpt>
      <trkpt lat="43.66268" lon="3.61376">
        <ele>242</ele>
        <time>2021-04-03T11:06:45Z</time>
      </trkpt>
      <trkpt lat="43.66271" lon="3.61376">
        <ele>242</ele>
        <time>2021-04-03T11:06:47Z</time>
      </trkpt>
      <trkpt lat="43.66274" lon="3.61376">
        <ele>242</ele>
        <time>2021-04-03T11:06:49Z</time>
      </trkpt>
      <trkpt lat="43.66277" lon="3.61375">
        <ele>242</ele>
        <time>2021-04-03T11:06:51Z</time>
      </trkpt>
      <trkpt lat="43.6628" lon="3.61375">
        <ele>242</ele>
        <time>2021-04-03T11:06:53Z</time>
      </trkpt>
      <trkpt lat="43.66282" lon="3.61375">
        <ele>242</ele>
        <time>2021-04-03T11:06:56Z</time>
      </trkpt>
      <trkpt lat="43.66284" lon="3.61373">
        <ele>242</ele>
        <time>2021-04-03T11:07:01Z</time>
      </trkpt>
      <trkpt lat="43.66286" lon="3.61372">
        <ele>242</ele>
        <time>2021-04-03T11:07:03Z</time>
      </trkpt>
      <trkpt lat="43.66288" lon="3.61371">
        <ele>242</ele>
        <time>2021-04-03T11:07:05Z</time>
      </trkpt>
      <trkpt lat="43.6629" lon="3.6137">
        <ele>242</ele>
        <time>2021-04-03T11:07:07Z</time>
      </trkpt>
      <trkpt lat="43.66292" lon="3.61371">
        <ele>242</ele>
        <time>2021-04-03T11:07:10Z</time>
      </trkpt>
      <trkpt lat="43.66294" lon="3.61369">
        <ele>242</ele>
        <time>2021-04-03T11:07:15Z</time>
      </trkpt>
      <trkpt lat="43.66296" lon="3.61369">
        <ele>242</ele>
        <time>2021-04-03T11:07:17Z</time>
      </trkpt>
      <trkpt lat="43.66298" lon="3.6137">
        <ele>242</ele>
        <time>2021-04-03T11:07:22Z</time>
      </trkpt>
      <trkpt lat="43.66306" lon="3.61393">
        <ele>240</ele>
        <time>2021-04-03T11:07:59Z</time>
      </trkpt>
      <trkpt lat="43.66307" lon="3.61395">
        <ele>240</ele>
        <time>2021-04-03T11:08:00Z</time>
      </trkpt>
      <trkpt lat="43.66306" lon="3.61397">
        <ele>240</ele>
        <time>2021-04-03T11:08:01Z</time>
      </trkpt>
      <trkpt lat="43.66303" lon="3.61399">
        <ele>240</ele>
        <time>2021-04-03T11:08:03Z</time>
      </trkpt>
      <trkpt lat="43.66299" lon="3.614">
        <ele>240</ele>
        <time>2021-04-03T11:08:05Z</time>
      </trkpt>
      <trkpt lat="43.66298" lon="3.61401">
        <ele>240</ele>
        <time>2021-04-03T11:08:06Z</time>
      </trkpt>
      <trkpt lat="43.66296" lon="3.61402">
        <ele>240</ele>
        <time>2021-04-03T11:08:07Z</time>
      </trkpt>
      <trkpt lat="43.66294" lon="3.61403">
        <ele>240</ele>
        <time>2021-04-03T11:08:08Z</time>
      </trkpt>
      <trkpt lat="43.66292" lon="3.61404">
        <ele>240</ele>
        <time>2021-04-03T11:08:09Z</time>
      </trkpt>
      <trkpt lat="43.6629" lon="3.61405">
        <ele>240</ele>
        <time>2021-04-03T11:08:10Z</time>
      </trkpt>
      <trkpt lat="43.66286" lon="3.61406">
        <ele>240</ele>
        <time>2021-04-03T11:08:12Z</time>
      </trkpt>
      <trkpt lat="43.66284" lon="3.61407">
        <ele>240</ele>
        <time>2021-04-03T11:08:13Z</time>
      </trkpt>
      <trkpt lat="43.66282" lon="3.61408">
        <ele>240</ele>
        <time>2021-04-03T11:08:14Z</time>
      </trkpt>
      <trkpt lat="43.6628" lon="3.61409">
        <ele>240</ele>
        <time>2021-04-03T11:08:15Z</time>
      </trkpt>
      <trkpt lat="43.66279" lon="3.6141">
        <ele>240</ele>
        <time>2021-04-03T11:08:16Z</time>
      </trkpt>
      <trkpt lat="43.66275" lon="3.61411">
        <ele>240</ele>
        <time>2021-04-03T11:08:18Z</time>
      </trkpt>
      <trkpt lat="43.66272" lon="3.61413">
        <ele>240</ele>
        <time>2021-04-03T11:08:20Z</time>
      </trkpt>
      <trkpt lat="43.66269" lon="3.61415">
        <ele>240</ele>
        <time>2021-04-03T11:08:22Z</time>
      </trkpt>
      <trkpt lat="43.66267" lon="3.61417">
        <ele>240</ele>
        <time>2021-04-03T11:08:24Z</time>
      </trkpt>
      <trkpt lat="43.66264" lon="3.61419">
        <ele>240</ele>
        <time>2021-04-03T11:08:26Z</time>
      </trkpt>
      <trkpt lat="43.66262" lon="3.61422">
        <ele>240</ele>
        <time>2021-04-03T11:08:28Z</time>
      </trkpt>
      <trkpt lat="43.66259" lon="3.61424">
        <ele>240</ele>
        <time>2021-04-03T11:08:30Z</time>
      </trkpt>
      <trkpt lat="43.66257" lon="3.61427">
        <ele>240</ele>
        <time>2021-04-03T11:08:32Z</time>
      </trkpt>
      <trkpt lat="43.66255" lon="3.6143">
        <ele>240</ele>
        <time>2021-04-03T11:08:34Z</time>
      </trkpt>
      <trkpt lat="43.66252" lon="3.61433">
        <ele>240</ele>
        <time>2021-04-03T11:08:36Z</time>
      </trkpt>
      <trkpt lat="43.66249" lon="3.61435">
        <ele>240</ele>
        <time>2021-04-03T11:08:38Z</time>
      </trkpt>
      <trkpt lat="43.66246" lon="3.61437">
        <ele>240</ele>
        <time>2021-04-03T11:08:40Z</time>
      </trkpt>
      <trkpt lat="43.66244" lon="3.61438">
        <ele>240</ele>
        <time>2021-04-03T11:08:42Z</time>
      </trkpt>
      <trkpt lat="43.66241" lon="3.61439">
        <ele>240</ele>
        <time>2021-04-03T11:08:44Z</time>
      </trkpt>
      <trkpt lat="43.66239" lon="3.6144">
        <ele>240</ele>
        <time>2021-04-03T11:08:46Z</time>
      </trkpt>
      <trkpt lat="43.66236" lon="3.61441">
        <ele>243</ele>
        <time>2021-04-03T11:08:48Z</time>
      </trkpt>
      <trkpt lat="43.66233" lon="3.61441">
        <ele>243</ele>
        <time>2021-04-03T11:08:50Z</time>
      </trkpt>
      <trkpt lat="43.6623" lon="3.61442">
        <ele>243</ele>
        <time>2021-04-03T11:08:52Z</time>
      </trkpt>
      <trkpt lat="43.66227" lon="3.61442">
        <ele>243</ele>
        <time>2021-04-03T11:08:54Z</time>
      </trkpt>
      <trkpt lat="43.66225" lon="3.61443">
        <ele>243</ele>
        <time>2021-04-03T11:08:56Z</time>
      </trkpt>
      <trkpt lat="43.66223" lon="3.61444">
        <ele>243</ele>
        <time>2021-04-03T11:08:58Z</time>
      </trkpt>
      <trkpt lat="43.66221" lon="3.61444">
        <ele>243</ele>
        <time>2021-04-03T11:09:00Z</time>
      </trkpt>
      <trkpt lat="43.66219" lon="3.61445">
        <ele>243</ele>
        <time>2021-04-03T11:09:02Z</time>
      </trkpt>
      <trkpt lat="43.66216" lon="3.61446">
        <ele>243</ele>
        <time>2021-04-03T11:09:04Z</time>
      </trkpt>
      <trkpt lat="43.66214" lon="3.61446">
        <ele>243</ele>
        <time>2021-04-03T11:09:06Z</time>
      </trkpt>
      <trkpt lat="43.66212" lon="3.61446">
        <ele>245</ele>
        <time>2021-04-03T11:09:08Z</time>
      </trkpt>
      <trkpt lat="43.6621" lon="3.61447">
        <ele>245</ele>
        <time>2021-04-03T11:09:10Z</time>
      </trkpt>
      <trkpt lat="43.66207" lon="3.61447">
        <ele>245</ele>
        <time>2021-04-03T11:09:12Z</time>
      </trkpt>
      <trkpt lat="43.66205" lon="3.61447">
        <ele>245</ele>
        <time>2021-04-03T11:09:14Z</time>
      </trkpt>
      <trkpt lat="43.66203" lon="3.61448">
        <ele>245</ele>
        <time>2021-04-03T11:09:16Z</time>
      </trkpt>
      <trkpt lat="43.662" lon="3.61448">
        <ele>246</ele>
        <time>2021-04-03T11:09:18Z</time>
      </trkpt>
      <trkpt lat="43.66198" lon="3.61448">
        <ele>246</ele>
        <time>2021-04-03T11:09:20Z</time>
      </trkpt>
      <trkpt lat="43.66196" lon="3.61448">
        <ele>246</ele>
        <time>2021-04-03T11:09:22Z</time>
      </trkpt>
      <trkpt lat="43.66194" lon="3.61449">
        <ele>246</ele>
        <time>2021-04-03T11:09:24Z</time>
      </trkpt>
      <trkpt lat="43.66192" lon="3.61449">
        <ele>246</ele>
        <time>2021-04-03T11:09:26Z</time>
      </trkpt>
      <trkpt lat="43.66189" lon="3.6145">
        <ele>246</ele>
        <time>2021-04-03T11:09:28Z</time>
      </trkpt>
      <trkpt lat="43.66187" lon="3.6145">
        <ele>246</ele>
        <time>2021-04-03T11:09:30Z</time>
      </trkpt>
      <trkpt lat="43.66185" lon="3.61451">
        <ele>246</ele>
        <time>2021-04-03T11:09:32Z</time>
      </trkpt>
      <trkpt lat="43.66183" lon="3.61452">
        <ele>246</ele>
        <time>2021-04-03T11:09:34Z</time>
      </trkpt>
      <trkpt lat="43.66181" lon="3.61453">
        <ele>246</ele>
        <time>2021-04-03T11:09:36Z</time>
      </trkpt>
      <trkpt lat="43.66179" lon="3.61453">
        <ele>246</ele>
        <time>2021-04-03T11:09:38Z</time>
      </trkpt>
      <trkpt lat="43.66177" lon="3.61454">
        <ele>246</ele>
        <time>2021-04-03T11:09:40Z</time>
      </trkpt>
      <trkpt lat="43.66175" lon="3.61455">
        <ele>246</ele>
        <time>2021-04-03T11:09:42Z</time>
      </trkpt>
      <trkpt lat="43.66172" lon="3.61456">
        <ele>246</ele>
        <time>2021-04-03T11:09:44Z</time>
      </trkpt>
      <trkpt lat="43.66169" lon="3.61456">
        <ele>246</ele>
        <time>2021-04-03T11:09:46Z</time>
      </trkpt>
      <trkpt lat="43.66167" lon="3.61457">
        <ele>251</ele>
        <time>2021-04-03T11:09:48Z</time>
      </trkpt>
      <trkpt lat="43.66164" lon="3.61458">
        <ele>251</ele>
        <time>2021-04-03T11:09:50Z</time>
      </trkpt>
      <trkpt lat="43.66161" lon="3.6146">
        <ele>251</ele>
        <time>2021-04-03T11:09:52Z</time>
      </trkpt>
      <trkpt lat="43.66159" lon="3.61461">
        <ele>251</ele>
        <time>2021-04-03T11:09:54Z</time>
      </trkpt>
      <trkpt lat="43.66157" lon="3.61462">
        <ele>251</ele>
        <time>2021-04-03T11:09:56Z</time>
      </trkpt>
      <trkpt lat="43.66154" lon="3.61463">
        <ele>253</ele>
        <time>2021-04-03T11:09:58Z</time>
      </trkpt>
      <trkpt lat="43.66152" lon="3.61464">
        <ele>253</ele>
        <time>2021-04-03T11:10:00Z</time>
      </trkpt>
      <trkpt lat="43.66149" lon="3.61465">
        <ele>253</ele>
        <time>2021-04-03T11:10:02Z</time>
      </trkpt>
      <trkpt lat="43.66147" lon="3.61467">
        <ele>253</ele>
        <time>2021-04-03T11:10:04Z</time>
      </trkpt>
      <trkpt lat="43.66145" lon="3.61468">
        <ele>253</ele>
        <time>2021-04-03T11:10:06Z</time>
      </trkpt>
      <trkpt lat="43.66143" lon="3.61469">
        <ele>254</ele>
        <time>2021-04-03T11:10:08Z</time>
      </trkpt>
      <trkpt lat="43.66141" lon="3.61471">
        <ele>254</ele>
        <time>2021-04-03T11:10:10Z</time>
      </trkpt>
      <trkpt lat="43.66138" lon="3.61472">
        <ele>254</ele>
        <time>2021-04-03T11:10:13Z</time>
      </trkpt>
      <trkpt lat="43.66136" lon="3.61473">
        <ele>254</ele>
        <time>2021-04-03T11:10:15Z</time>
      </trkpt>
      <trkpt lat="43.66134" lon="3.61474">
        <ele>254</ele>
        <time>2021-04-03T11:10:17Z</time>
      </trkpt>
      <trkpt lat="43.66132" lon="3.61474">
        <ele>254</ele>
        <time>2021-04-03T11:10:19Z</time>
      </trkpt>
      <trkpt lat="43.6613" lon="3.61474">
        <ele>254</ele>
        <time>2021-04-03T11:10:21Z</time>
      </trkpt>
      <trkpt lat="43.66128" lon="3.61475">
        <ele>254</ele>
        <time>2021-04-03T11:10:23Z</time>
      </trkpt>
      <trkpt lat="43.66125" lon="3.61476">
        <ele>254</ele>
        <time>2021-04-03T11:10:25Z</time>
      </trkpt>
      <trkpt lat="43.66123" lon="3.61477">
        <ele>254</ele>
        <time>2021-04-03T11:10:27Z</time>
      </trkpt>
      <trkpt lat="43.66122" lon="3.61479">
        <ele>254</ele>
        <time>2021-04-03T11:10:29Z</time>
      </trkpt>
      <trkpt lat="43.66119" lon="3.61481">
        <ele>254</ele>
        <time>2021-04-03T11:10:31Z</time>
      </trkpt>
      <trkpt lat="43.66117" lon="3.61483">
        <ele>254</ele>
        <time>2021-04-03T11:10:33Z</time>
      </trkpt>
      <trkpt lat="43.66115" lon="3.61485">
        <ele>254</ele>
        <time>2021-04-03T11:10:35Z</time>
      </trkpt>
      <trkpt lat="43.66113" lon="3.61487">
        <ele>254</ele>
        <time>2021-04-03T11:10:37Z</time>
      </trkpt>
      <trkpt lat="43.66111" lon="3.61488">
        <ele>254</ele>
        <time>2021-04-03T11:10:39Z</time>
      </trkpt>
      <trkpt lat="43.66109" lon="3.61489">
        <ele>254</ele>
        <time>2021-04-03T11:10:41Z</time>
      </trkpt>
      <trkpt lat="43.66107" lon="3.61491">
        <ele>254</ele>
        <time>2021-04-03T11:10:43Z</time>
      </trkpt>
      <trkpt lat="43.66105" lon="3.61493">
        <ele>254</ele>
        <time>2021-04-03T11:10:45Z</time>
      </trkpt>
      <trkpt lat="43.66104" lon="3.61495">
        <ele>254</ele>
        <time>2021-04-03T11:10:47Z</time>
      </trkpt>
      <trkpt lat="43.66102" lon="3.61498">
        <ele>262</ele>
        <time>2021-04-03T11:10:49Z</time>
      </trkpt>
      <trkpt lat="43.66101" lon="3.61502">
        <ele>262</ele>
        <time>2021-04-03T11:10:51Z</time>
      </trkpt>
      <trkpt lat="43.661" lon="3.61504">
        <ele>262</ele>
        <time>2021-04-03T11:10:53Z</time>
      </trkpt>
      <trkpt lat="43.66101" lon="3.61507">
        <ele>262</ele>
        <time>2021-04-03T11:10:55Z</time>
      </trkpt>
      <trkpt lat="43.66103" lon="3.6151">
        <ele>262</ele>
        <time>2021-04-03T11:10:57Z</time>
      </trkpt>
      <trkpt lat="43.66106" lon="3.61511">
        <ele>262</ele>
        <time>2021-04-03T11:10:59Z</time>
      </trkpt>
      <trkpt lat="43.66108" lon="3.61512">
        <ele>262</ele>
        <time>2021-04-03T11:11:00Z</time>
      </trkpt>
      <trkpt lat="43.6611" lon="3.61513">
        <ele>262</ele>
        <time>2021-04-03T11:11:01Z</time>
      </trkpt>
      <trkpt lat="43.66111" lon="3.61515">
        <ele>262</ele>
        <time>2021-04-03T11:11:02Z</time>
      </trkpt>
      <trkpt lat="43.66113" lon="3.61518">
        <ele>262</ele>
        <time>2021-04-03T11:11:03Z</time>
      </trkpt>
      <trkpt lat="43.66115" lon="3.61521">
        <ele>262</ele>
        <time>2021-04-03T11:11:04Z</time>
      </trkpt>
      <trkpt lat="43.66116" lon="3.61524">
        <ele>262</ele>
        <time>2021-04-03T11:11:05Z</time>
      </trkpt>
      <trkpt lat="43.66117" lon="3.61528">
        <ele>262</ele>
        <time>2021-04-03T11:11:06Z</time>
      </trkpt>
      <trkpt lat="43.66118" lon="3.61531">
        <ele>262</ele>
        <time>2021-04-03T11:11:07Z</time>
      </trkpt>
      <trkpt lat="43.66119" lon="3.61533">
        <ele>262</ele>
        <time>2021-04-03T11:11:08Z</time>
      </trkpt>
      <trkpt lat="43.6612" lon="3.61536">
        <ele>264</ele>
        <time>2021-04-03T11:11:09Z</time>
      </trkpt>
      <trkpt lat="43.6612" lon="3.6154">
        <ele>264</ele>
        <time>2021-04-03T11:11:10Z</time>
      </trkpt>
      <trkpt lat="43.66121" lon="3.61544">
        <ele>264</ele>
        <time>2021-04-03T11:11:11Z</time>
      </trkpt>
      <trkpt lat="43.66121" lon="3.61548">
        <ele>264</ele>
        <time>2021-04-03T11:11:12Z</time>
      </trkpt>
      <trkpt lat="43.66122" lon="3.61552">
        <ele>264</ele>
        <time>2021-04-03T11:11:13Z</time>
      </trkpt>
      <trkpt lat="43.66123" lon="3.61556">
        <ele>264</ele>
        <time>2021-04-03T11:11:14Z</time>
      </trkpt>
      <trkpt lat="43.66124" lon="3.6156">
        <ele>264</ele>
        <time>2021-04-03T11:11:15Z</time>
      </trkpt>
      <trkpt lat="43.66125" lon="3.61564">
        <ele>264</ele>
        <time>2021-04-03T11:11:16Z</time>
      </trkpt>
      <trkpt lat="43.66125" lon="3.61569">
        <ele>264</ele>
        <time>2021-04-03T11:11:17Z</time>
      </trkpt>
      <trkpt lat="43.66126" lon="3.61574">
        <ele>263</ele>
        <time>2021-04-03T11:11:18Z</time>
      </trkpt>
      <trkpt lat="43.66127" lon="3.61579">
        <ele>263</ele>
        <time>2021-04-03T11:11:19Z</time>
      </trkpt>
      <trkpt lat="43.66128" lon="3.61585">
        <ele>263</ele>
        <time>2021-04-03T11:11:20Z</time>
      </trkpt>
      <trkpt lat="43.66129" lon="3.61591">
        <ele>263</ele>
        <time>2021-04-03T11:11:21Z</time>
      </trkpt>
      <trkpt lat="43.6613" lon="3.61597">
        <ele>263</ele>
        <time>2021-04-03T11:11:22Z</time>
      </trkpt>
      <trkpt lat="43.66131" lon="3.61604">
        <ele>263</ele>
        <time>2021-04-03T11:11:23Z</time>
      </trkpt>
      <trkpt lat="43.66132" lon="3.61611">
        <ele>263</ele>
        <time>2021-04-03T11:11:24Z</time>
      </trkpt>
      <trkpt lat="43.66133" lon="3.61616">
        <ele>263</ele>
        <time>2021-04-03T11:11:25Z</time>
      </trkpt>
      <trkpt lat="43.66133" lon="3.61621">
        <ele>263</ele>
        <time>2021-04-03T11:11:26Z</time>
      </trkpt>
      <trkpt lat="43.66134" lon="3.61627">
        <ele>263</ele>
        <time>2021-04-03T11:11:27Z</time>
      </trkpt>
      <trkpt lat="43.66135" lon="3.61633">
        <ele>263</ele>
        <time>2021-04-03T11:11:28Z</time>
      </trkpt>
      <trkpt lat="43.66136" lon="3.6164">
        <ele>260</ele>
        <time>2021-04-03T11:11:29Z</time>
      </trkpt>
      <trkpt lat="43.66137" lon="3.61648">
        <ele>260</ele>
        <time>2021-04-03T11:11:30Z</time>
      </trkpt>
      <trkpt lat="43.66137" lon="3.61657">
        <ele>260</ele>
        <time>2021-04-03T11:11:31Z</time>
      </trkpt>
      <trkpt lat="43.66137" lon="3.61666">
        <ele>260</ele>
        <time>2021-04-03T11:11:32Z</time>
      </trkpt>
      <trkpt lat="43.66138" lon="3.61676">
        <ele>260</ele>
        <time>2021-04-03T11:11:33Z</time>
      </trkpt>
      <trkpt lat="43.66137" lon="3.61685">
        <ele>260</ele>
        <time>2021-04-03T11:11:34Z</time>
      </trkpt>
      <trkpt lat="43.66137" lon="3.61694">
        <ele>260</ele>
        <time>2021-04-03T11:11:35Z</time>
      </trkpt>
      <trkpt lat="43.66136" lon="3.61702">
        <ele>260</ele>
        <time>2021-04-03T11:11:36Z</time>
      </trkpt>
      <trkpt lat="43.66136" lon="3.6171">
        <ele>260</ele>
        <time>2021-04-03T11:11:37Z</time>
      </trkpt>
      <trkpt lat="43.66135" lon="3.61719">
        <ele>260</ele>
        <time>2021-04-03T11:11:38Z</time>
      </trkpt>
      <trkpt lat="43.66135" lon="3.61727">
        <ele>256</ele>
        <time>2021-04-03T11:11:39Z</time>
      </trkpt>
      <trkpt lat="43.66134" lon="3.61734">
        <ele>256</ele>
        <time>2021-04-03T11:11:40Z</time>
      </trkpt>
      <trkpt lat="43.66134" lon="3.61741">
        <ele>256</ele>
        <time>2021-04-03T11:11:41Z</time>
      </trkpt>
      <trkpt lat="43.66133" lon="3.61748">
        <ele>256</ele>
        <time>2021-04-03T11:11:42Z</time>
      </trkpt>
      <trkpt lat="43.66133" lon="3.61754">
        <ele>256</ele>
        <time>2021-04-03T11:11:43Z</time>
      </trkpt>
      <trkpt lat="43.66133" lon="3.6176">
        <ele>256</ele>
        <time>2021-04-03T11:11:44Z</time>
      </trkpt>
      <trkpt lat="43.66132" lon="3.61765">
        <ele>256</ele>
        <time>2021-04-03T11:11:45Z</time>
      </trkpt>
      <trkpt lat="43.66132" lon="3.6177">
        <ele>256</ele>
        <time>2021-04-03T11:11:46Z</time>
      </trkpt>
      <trkpt lat="43.6613" lon="3.61776">
        <ele>256</ele>
        <time>2021-04-03T11:11:47Z</time>
      </trkpt>
      <trkpt lat="43.66129" lon="3.61781">
        <ele>253</ele>
        <time>2021-04-03T11:11:48Z</time>
      </trkpt>
      <trkpt lat="43.66128" lon="3.61786">
        <ele>253</ele>
        <time>2021-04-03T11:11:49Z</time>
      </trkpt>
      <trkpt lat="43.66126" lon="3.61791">
        <ele>253</ele>
        <time>2021-04-03T11:11:50Z</time>
      </trkpt>
      <trkpt lat="43.66125" lon="3.61796">
        <ele>253</ele>
        <time>2021-04-03T11:11:51Z</time>
      </trkpt>
      <trkpt lat="43.66123" lon="3.618">
        <ele>253</ele>
        <time>2021-04-03T11:11:52Z</time>
      </trkpt>
      <trkpt lat="43.66121" lon="3.61804">
        <ele>253</ele>
        <time>2021-04-03T11:11:53Z</time>
      </trkpt>
      <trkpt lat="43.66119" lon="3.61809">
        <ele>253</ele>
        <time>2021-04-03T11:11:54Z</time>
      </trkpt>
      <trkpt lat="43.66117" lon="3.61813">
        <ele>253</ele>
        <time>2021-04-03T11:11:55Z</time>
      </trkpt>
      <trkpt lat="43.66115" lon="3.61819">
        <ele>253</ele>
        <time>2021-04-03T11:11:56Z</time>
      </trkpt>
      <trkpt lat="43.66113" lon="3.61825">
        <ele>253</ele>
        <time>2021-04-03T11:11:57Z</time>
      </trkpt>
      <trkpt lat="43.66109" lon="3.61832">
        <ele>253</ele>
        <time>2021-04-03T11:11:58Z</time>
      </trkpt>
      <trkpt lat="43.66106" lon="3.61839">
        <ele>249</ele>
        <time>2021-04-03T11:11:59Z</time>
      </trkpt>
      <trkpt lat="43.66103" lon="3.61847">
        <ele>249</ele>
        <time>2021-04-03T11:12:00Z</time>
      </trkpt>
      <trkpt lat="43.66099" lon="3.61855">
        <ele>249</ele>
        <time>2021-04-03T11:12:01Z</time>
      </trkpt>
      <trkpt lat="43.66096" lon="3.61863">
        <ele>249</ele>
        <time>2021-04-03T11:12:02Z</time>
      </trkpt>
      <trkpt lat="43.66092" lon="3.6187">
        <ele>249</ele>
        <time>2021-04-03T11:12:03Z</time>
      </trkpt>
      <trkpt lat="43.66089" lon="3.61878">
        <ele>249</ele>
        <time>2021-04-03T11:12:04Z</time>
      </trkpt>
      <trkpt lat="43.66086" lon="3.61886">
        <ele>249</ele>
        <time>2021-04-03T11:12:05Z</time>
      </trkpt>
      <trkpt lat="43.6608" lon="3.61904">
        <ele>249</ele>
        <time>2021-04-03T11:12:07Z</time>
      </trkpt>
      <trkpt lat="43.66077" lon="3.61912">
        <ele>244</ele>
        <time>2021-04-03T11:12:08Z</time>
      </trkpt>
      <trkpt lat="43.66074" lon="3.61921">
        <ele>244</ele>
        <time>2021-04-03T11:12:09Z</time>
      </trkpt>
      <trkpt lat="43.66072" lon="3.61929">
        <ele>244</ele>
        <time>2021-04-03T11:12:10Z</time>
      </trkpt>
      <trkpt lat="43.6607" lon="3.61938">
        <ele>244</ele>
        <time>2021-04-03T11:12:11Z</time>
      </trkpt>
      <trkpt lat="43.66067" lon="3.61946">
        <ele>244</ele>
        <time>2021-04-03T11:12:12Z</time>
      </trkpt>
      <trkpt lat="43.66065" lon="3.61954">
        <ele>244</ele>
        <time>2021-04-03T11:12:13Z</time>
      </trkpt>
      <trkpt lat="43.66063" lon="3.61963">
        <ele>244</ele>
        <time>2021-04-03T11:12:14Z</time>
      </trkpt>
      <trkpt lat="43.6606" lon="3.61973">
        <ele>244</ele>
        <time>2021-04-03T11:12:15Z</time>
      </trkpt>
      <trkpt lat="43.66057" lon="3.61983">
        <ele>244</ele>
        <time>2021-04-03T11:12:16Z</time>
      </trkpt>
      <trkpt lat="43.66054" lon="3.61993">
        <ele>244</ele>
        <time>2021-04-03T11:12:17Z</time>
      </trkpt>
      <trkpt lat="43.66051" lon="3.62004">
        <ele>239</ele>
        <time>2021-04-03T11:12:18Z</time>
      </trkpt>
      <trkpt lat="43.66047" lon="3.62014">
        <ele>239</ele>
        <time>2021-04-03T11:12:19Z</time>
      </trkpt>
      <trkpt lat="43.66045" lon="3.62023">
        <ele>239</ele>
        <time>2021-04-03T11:12:20Z</time>
      </trkpt>
      <trkpt lat="43.66042" lon="3.62032">
        <ele>239</ele>
        <time>2021-04-03T11:12:21Z</time>
      </trkpt>
      <trkpt lat="43.66039" lon="3.6204">
        <ele>239</ele>
        <time>2021-04-03T11:12:22Z</time>
      </trkpt>
      <trkpt lat="43.66036" lon="3.62049">
        <ele>239</ele>
        <time>2021-04-03T11:12:23Z</time>
      </trkpt>
      <trkpt lat="43.66033" lon="3.62056">
        <ele>239</ele>
        <time>2021-04-03T11:12:24Z</time>
      </trkpt>
      <trkpt lat="43.66031" lon="3.62063">
        <ele>239</ele>
        <time>2021-04-03T11:12:25Z</time>
      </trkpt>
      <trkpt lat="43.66028" lon="3.6207">
        <ele>239</ele>
        <time>2021-04-03T11:12:26Z</time>
      </trkpt>
      <trkpt lat="43.66025" lon="3.62076">
        <ele>239</ele>
        <time>2021-04-03T11:12:27Z</time>
      </trkpt>
      <trkpt lat="43.66022" lon="3.62083">
        <ele>233</ele>
        <time>2021-04-03T11:12:28Z</time>
      </trkpt>
      <trkpt lat="43.66018" lon="3.62089">
        <ele>233</ele>
        <time>2021-04-03T11:12:29Z</time>
      </trkpt>
      <trkpt lat="43.66014" lon="3.62093">
        <ele>233</ele>
        <time>2021-04-03T11:12:30Z</time>
      </trkpt>
      <trkpt lat="43.66008" lon="3.62096">
        <ele>233</ele>
        <time>2021-04-03T11:12:31Z</time>
      </trkpt>
      <trkpt lat="43.66003" lon="3.62099">
        <ele>233</ele>
        <time>2021-04-03T11:12:32Z</time>
      </trkpt>
      <trkpt lat="43.65997" lon="3.62102">
        <ele>233</ele>
        <time>2021-04-03T11:12:33Z</time>
      </trkpt>
      <trkpt lat="43.6599" lon="3.62104">
        <ele>233</ele>
        <time>2021-04-03T11:12:34Z</time>
      </trkpt>
      <trkpt lat="43.65984" lon="3.62105">
        <ele>233</ele>
        <time>2021-04-03T11:12:35Z</time>
      </trkpt>
      <trkpt lat="43.65979" lon="3.62107">
        <ele>233</ele>
        <time>2021-04-03T11:12:36Z</time>
      </trkpt>
      <trkpt lat="43.65975" lon="3.62108">
        <ele>233</ele>
        <time>2021-04-03T11:12:37Z</time>
      </trkpt>
      <trkpt lat="43.65972" lon="3.62111">
        <ele>233</ele>
        <time>2021-04-03T11:12:38Z</time>
      </trkpt>
      <trkpt lat="43.6597" lon="3.62115">
        <ele>230</ele>
        <time>2021-04-03T11:12:39Z</time>
      </trkpt>
      <trkpt lat="43.65969" lon="3.62121">
        <ele>230</ele>
        <time>2021-04-03T11:12:40Z</time>
      </trkpt>
      <trkpt lat="43.65969" lon="3.62127">
        <ele>230</ele>
        <time>2021-04-03T11:12:41Z</time>
      </trkpt>
      <trkpt lat="43.6597" lon="3.62132">
        <ele>230</ele>
        <time>2021-04-03T11:12:42Z</time>
      </trkpt>
      <trkpt lat="43.65972" lon="3.62135">
        <ele>230</ele>
        <time>2021-04-03T11:12:43Z</time>
      </trkpt>
      <trkpt lat="43.65975" lon="3.62138">
        <ele>230</ele>
        <time>2021-04-03T11:12:44Z</time>
      </trkpt>
      <trkpt lat="43.65978" lon="3.62142">
        <ele>230</ele>
        <time>2021-04-03T11:12:45Z</time>
      </trkpt>
      <trkpt lat="43.6598" lon="3.62145">
        <ele>230</ele>
        <time>2021-04-03T11:12:46Z</time>
      </trkpt>
      <trkpt lat="43.65983" lon="3.62148">
        <ele>230</ele>
        <time>2021-04-03T11:12:47Z</time>
      </trkpt>
      <trkpt lat="43.65986" lon="3.62152">
        <ele>226</ele>
        <time>2021-04-03T11:12:48Z</time>
      </trkpt>
      <trkpt lat="43.65989" lon="3.62155">
        <ele>226</ele>
        <time>2021-04-03T11:12:49Z</time>
      </trkpt>
      <trkpt lat="43.65991" lon="3.62158">
        <ele>226</ele>
        <time>2021-04-03T11:12:50Z</time>
      </trkpt>
      <trkpt lat="43.65994" lon="3.62161">
        <ele>226</ele>
        <time>2021-04-03T11:12:51Z</time>
      </trkpt>
      <trkpt lat="43.65996" lon="3.62164">
        <ele>226</ele>
        <time>2021-04-03T11:12:52Z</time>
      </trkpt>
      <trkpt lat="43.65999" lon="3.62168">
        <ele>226</ele>
        <time>2021-04-03T11:12:53Z</time>
      </trkpt>
      <trkpt lat="43.66001" lon="3.62171">
        <ele>226</ele>
        <time>2021-04-03T11:12:54Z</time>
      </trkpt>
      <trkpt lat="43.66002" lon="3.62173">
        <ele>226</ele>
        <time>2021-04-03T11:12:55Z</time>
      </trkpt>
      <trkpt lat="43.66004" lon="3.62175">
        <ele>226</ele>
        <time>2021-04-03T11:12:56Z</time>
      </trkpt>
      <trkpt lat="43.66006" lon="3.62177">
        <ele>226</ele>
        <time>2021-04-03T11:12:57Z</time>
      </trkpt>
      <trkpt lat="43.66007" lon="3.62179">
        <ele>222</ele>
        <time>2021-04-03T11:12:58Z</time>
      </trkpt>
      <trkpt lat="43.66009" lon="3.62182">
        <ele>222</ele>
        <time>2021-04-03T11:12:59Z</time>
      </trkpt>
      <trkpt lat="43.66012" lon="3.62185">
        <ele>222</ele>
        <time>2021-04-03T11:13:00Z</time>
      </trkpt>
      <trkpt lat="43.66015" lon="3.62188">
        <ele>222</ele>
        <time>2021-04-03T11:13:01Z</time>
      </trkpt>
      <trkpt lat="43.66018" lon="3.62191">
        <ele>222</ele>
        <time>2021-04-03T11:13:02Z</time>
      </trkpt>
      <trkpt lat="43.6602" lon="3.62194">
        <ele>222</ele>
        <time>2021-04-03T11:13:03Z</time>
      </trkpt>
      <trkpt lat="43.66021" lon="3.62196">
        <ele>222</ele>
        <time>2021-04-03T11:13:04Z</time>
      </trkpt>
      <trkpt lat="43.66022" lon="3.622">
        <ele>222</ele>
        <time>2021-04-03T11:13:06Z</time>
      </trkpt>
      <trkpt lat="43.66022" lon="3.62204">
        <ele>218</ele>
        <time>2021-04-03T11:13:08Z</time>
      </trkpt>
      <trkpt lat="43.66022" lon="3.62209">
        <ele>218</ele>
        <time>2021-04-03T11:13:10Z</time>
      </trkpt>
      <trkpt lat="43.66022" lon="3.62212">
        <ele>218</ele>
        <time>2021-04-03T11:13:11Z</time>
      </trkpt>
      <trkpt lat="43.6602" lon="3.62216">
        <ele>218</ele>
        <time>2021-04-03T11:13:12Z</time>
      </trkpt>
      <trkpt lat="43.66018" lon="3.6222">
        <ele>218</ele>
        <time>2021-04-03T11:13:13Z</time>
      </trkpt>
      <trkpt lat="43.66017" lon="3.62226">
        <ele>218</ele>
        <time>2021-04-03T11:13:14Z</time>
      </trkpt>
      <trkpt lat="43.66015" lon="3.62232">
        <ele>218</ele>
        <time>2021-04-03T11:13:15Z</time>
      </trkpt>
      <trkpt lat="43.66013" lon="3.62238">
        <ele>218</ele>
        <time>2021-04-03T11:13:16Z</time>
      </trkpt>
      <trkpt lat="43.6601" lon="3.62246">
        <ele>218</ele>
        <time>2021-04-03T11:13:17Z</time>
      </trkpt>
      <trkpt lat="43.66008" lon="3.62253">
        <ele>214</ele>
        <time>2021-04-03T11:13:18Z</time>
      </trkpt>
      <trkpt lat="43.66007" lon="3.62259">
        <ele>214</ele>
        <time>2021-04-03T11:13:19Z</time>
      </trkpt>
      <trkpt lat="43.66008" lon="3.62264">
        <ele>214</ele>
        <time>2021-04-03T11:13:20Z</time>
      </trkpt>
      <trkpt lat="43.66008" lon="3.62266">
        <ele>214</ele>
        <time>2021-04-03T11:13:21Z</time>
      </trkpt>
      <trkpt lat="43.6601" lon="3.62268">
        <ele>214</ele>
        <time>2021-04-03T11:13:23Z</time>
      </trkpt>
      <trkpt lat="43.66013" lon="3.6227">
        <ele>214</ele>
        <time>2021-04-03T11:13:25Z</time>
      </trkpt>
      <trkpt lat="43.66008" lon="3.6227">
        <ele>210</ele>
        <time>2021-04-03T11:14:14Z</time>
      </trkpt>
      <trkpt lat="43.66007" lon="3.62269">
        <ele>210</ele>
        <time>2021-04-03T11:14:23Z</time>
      </trkpt>
      <trkpt lat="43.6601" lon="3.62271">
        <ele>209</ele>
        <time>2021-04-03T11:18:21Z</time>
      </trkpt>
      <trkpt lat="43.66009" lon="3.62269">
        <ele>209</ele>
        <time>2021-04-03T11:18:24Z</time>
      </trkpt>
      <trkpt lat="43.66014" lon="3.62264">
        <ele>208</ele>
        <time>2021-04-03T11:18:38Z</time>
      </trkpt>
      <trkpt lat="43.66016" lon="3.62263">
        <ele>208</ele>
        <time>2021-04-03T11:18:39Z</time>
      </trkpt>
      <trkpt lat="43.66018" lon="3.6226">
        <ele>208</ele>
        <time>2021-04-03T11:18:40Z</time>
      </trkpt>
      <trkpt lat="43.6602" lon="3.62256">
        <ele>208</ele>
        <time>2021-04-03T11:18:41Z</time>
      </trkpt>
      <trkpt lat="43.66022" lon="3.62251">
        <ele>208</ele>
        <time>2021-04-03T11:18:42Z</time>
      </trkpt>
      <trkpt lat="43.66025" lon="3.62245">
        <ele>208</ele>
        <time>2021-04-03T11:18:43Z</time>
      </trkpt>
      <trkpt lat="43.66028" lon="3.6224">
        <ele>208</ele>
        <time>2021-04-03T11:18:44Z</time>
      </trkpt>
      <trkpt lat="43.66031" lon="3.62234">
        <ele>208</ele>
        <time>2021-04-03T11:18:45Z</time>
      </trkpt>
      <trkpt lat="43.66033" lon="3.62228">
        <ele>208</ele>
        <time>2021-04-03T11:18:46Z</time>
      </trkpt>
      <trkpt lat="43.66034" lon="3.62224">
        <ele>207</ele>
        <time>2021-04-03T11:18:47Z</time>
      </trkpt>
      <trkpt lat="43.66036" lon="3.62221">
        <ele>207</ele>
        <time>2021-04-03T11:18:48Z</time>
      </trkpt>
      <trkpt lat="43.66037" lon="3.62218">
        <ele>207</ele>
        <time>2021-04-03T11:18:49Z</time>
      </trkpt>
      <trkpt lat="43.66039" lon="3.62215">
        <ele>207</ele>
        <time>2021-04-03T11:18:50Z</time>
      </trkpt>
      <trkpt lat="43.66041" lon="3.62212">
        <ele>207</ele>
        <time>2021-04-03T11:18:51Z</time>
      </trkpt>
      <trkpt lat="43.66043" lon="3.62208">
        <ele>207</ele>
        <time>2021-04-03T11:18:52Z</time>
      </trkpt>
      <trkpt lat="43.66045" lon="3.62204">
        <ele>207</ele>
        <time>2021-04-03T11:18:53Z</time>
      </trkpt>
      <trkpt lat="43.66048" lon="3.622">
        <ele>207</ele>
        <time>2021-04-03T11:18:54Z</time>
      </trkpt>
      <trkpt lat="43.66051" lon="3.62196">
        <ele>207</ele>
        <time>2021-04-03T11:18:55Z</time>
      </trkpt>
      <trkpt lat="43.66055" lon="3.62192">
        <ele>207</ele>
        <time>2021-04-03T11:18:56Z</time>
      </trkpt>
      <trkpt lat="43.66058" lon="3.62187">
        <ele>207</ele>
        <time>2021-04-03T11:18:57Z</time>
      </trkpt>
      <trkpt lat="43.66062" lon="3.62182">
        <ele>206</ele>
        <time>2021-04-03T11:18:58Z</time>
      </trkpt>
      <trkpt lat="43.66065" lon="3.62178">
        <ele>206</ele>
        <time>2021-04-03T11:18:59Z</time>
      </trkpt>
      <trkpt lat="43.6607" lon="3.62175">
        <ele>206</ele>
        <time>2021-04-03T11:19:00Z</time>
      </trkpt>
      <trkpt lat="43.66074" lon="3.62171">
        <ele>206</ele>
        <time>2021-04-03T11:19:01Z</time>
      </trkpt>
      <trkpt lat="43.6608" lon="3.62168">
        <ele>206</ele>
        <time>2021-04-03T11:19:02Z</time>
      </trkpt>
      <trkpt lat="43.66084" lon="3.62165">
        <ele>206</ele>
        <time>2021-04-03T11:19:03Z</time>
      </trkpt>
      <trkpt lat="43.66089" lon="3.62162">
        <ele>206</ele>
        <time>2021-04-03T11:19:04Z</time>
      </trkpt>
      <trkpt lat="43.66093" lon="3.62158">
        <ele>206</ele>
        <time>2021-04-03T11:19:05Z</time>
      </trkpt>
      <trkpt lat="43.66096" lon="3.62153">
        <ele>206</ele>
        <time>2021-04-03T11:19:06Z</time>
      </trkpt>
      <trkpt lat="43.66099" lon="3.62149">
        <ele>206</ele>
        <time>2021-04-03T11:19:07Z</time>
      </trkpt>
      <trkpt lat="43.66101" lon="3.62146">
        <ele>203</ele>
        <time>2021-04-03T11:19:08Z</time>
      </trkpt>
      <trkpt lat="43.66102" lon="3.62143">
        <ele>203</ele>
        <time>2021-04-03T11:19:09Z</time>
      </trkpt>
      <trkpt lat="43.66104" lon="3.6214">
        <ele>203</ele>
        <time>2021-04-03T11:19:10Z</time>
      </trkpt>
      <trkpt lat="43.66106" lon="3.62136">
        <ele>203</ele>
        <time>2021-04-03T11:19:11Z</time>
      </trkpt>
      <trkpt lat="43.66108" lon="3.62133">
        <ele>203</ele>
        <time>2021-04-03T11:19:12Z</time>
      </trkpt>
      <trkpt lat="43.6611" lon="3.62129">
        <ele>203</ele>
        <time>2021-04-03T11:19:13Z</time>
      </trkpt>
      <trkpt lat="43.66112" lon="3.62125">
        <ele>203</ele>
        <time>2021-04-03T11:19:14Z</time>
      </trkpt>
      <trkpt lat="43.66114" lon="3.62121">
        <ele>203</ele>
        <time>2021-04-03T11:19:15Z</time>
      </trkpt>
      <trkpt lat="43.66117" lon="3.62116">
        <ele>203</ele>
        <time>2021-04-03T11:19:16Z</time>
      </trkpt>
      <trkpt lat="43.66119" lon="3.6211">
        <ele>203</ele>
        <time>2021-04-03T11:19:17Z</time>
      </trkpt>
      <trkpt lat="43.66122" lon="3.62104">
        <ele>201</ele>
        <time>2021-04-03T11:19:18Z</time>
      </trkpt>
      <trkpt lat="43.66126" lon="3.62098">
        <ele>201</ele>
        <time>2021-04-03T11:19:19Z</time>
      </trkpt>
      <trkpt lat="43.66129" lon="3.62092">
        <ele>201</ele>
        <time>2021-04-03T11:19:20Z</time>
      </trkpt>
      <trkpt lat="43.66133" lon="3.62086">
        <ele>201</ele>
        <time>2021-04-03T11:19:21Z</time>
      </trkpt>
      <trkpt lat="43.66136" lon="3.62079">
        <ele>201</ele>
        <time>2021-04-03T11:19:22Z</time>
      </trkpt>
      <trkpt lat="43.66141" lon="3.62073">
        <ele>201</ele>
        <time>2021-04-03T11:19:23Z</time>
      </trkpt>
      <trkpt lat="43.66145" lon="3.62067">
        <ele>201</ele>
        <time>2021-04-03T11:19:24Z</time>
      </trkpt>
      <trkpt lat="43.66149" lon="3.62061">
        <ele>201</ele>
        <time>2021-04-03T11:19:25Z</time>
      </trkpt>
      <trkpt lat="43.66154" lon="3.62055">
        <ele>201</ele>
        <time>2021-04-03T11:19:26Z</time>
      </trkpt>
      <trkpt lat="43.66159" lon="3.62048">
        <ele>197</ele>
        <time>2021-04-03T11:19:27Z</time>
      </trkpt>
      <trkpt lat="43.66164" lon="3.62041">
        <ele>197</ele>
        <time>2021-04-03T11:19:28Z</time>
      </trkpt>
      <trkpt lat="43.66169" lon="3.62033">
        <ele>197</ele>
        <time>2021-04-03T11:19:29Z</time>
      </trkpt>
      <trkpt lat="43.66174" lon="3.62025">
        <ele>197</ele>
        <time>2021-04-03T11:19:30Z</time>
      </trkpt>
      <trkpt lat="43.66179" lon="3.62017">
        <ele>197</ele>
        <time>2021-04-03T11:19:31Z</time>
      </trkpt>
      <trkpt lat="43.66184" lon="3.62009">
        <ele>197</ele>
        <time>2021-04-03T11:19:32Z</time>
      </trkpt>
      <trkpt lat="43.66189" lon="3.62001">
        <ele>197</ele>
        <time>2021-04-03T11:19:33Z</time>
      </trkpt>
      <trkpt lat="43.66193" lon="3.61993">
        <ele>197</ele>
        <time>2021-04-03T11:19:34Z</time>
      </trkpt>
      <trkpt lat="43.66202" lon="3.61975">
        <ele>197</ele>
        <time>2021-04-03T11:19:36Z</time>
      </trkpt>
      <trkpt lat="43.66206" lon="3.61967">
        <ele>192</ele>
        <time>2021-04-03T11:19:37Z</time>
      </trkpt>
      <trkpt lat="43.66211" lon="3.6196">
        <ele>192</ele>
        <time>2021-04-03T11:19:38Z</time>
      </trkpt>
      <trkpt lat="43.66214" lon="3.61954">
        <ele>192</ele>
        <time>2021-04-03T11:19:39Z</time>
      </trkpt>
      <trkpt lat="43.66216" lon="3.61947">
        <ele>192</ele>
        <time>2021-04-03T11:19:40Z</time>
      </trkpt>
      <trkpt lat="43.66219" lon="3.61942">
        <ele>192</ele>
        <time>2021-04-03T11:19:41Z</time>
      </trkpt>
      <trkpt lat="43.66222" lon="3.61936">
        <ele>192</ele>
        <time>2021-04-03T11:19:42Z</time>
      </trkpt>
      <trkpt lat="43.66229" lon="3.61923">
        <ele>192</ele>
        <time>2021-04-03T11:19:44Z</time>
      </trkpt>
      <trkpt lat="43.66233" lon="3.61917">
        <ele>192</ele>
        <time>2021-04-03T11:19:45Z</time>
      </trkpt>
      <trkpt lat="43.66237" lon="3.61911">
        <ele>192</ele>
        <time>2021-04-03T11:19:46Z</time>
      </trkpt>
      <trkpt lat="43.66242" lon="3.61906">
        <ele>187</ele>
        <time>2021-04-03T11:19:47Z</time>
      </trkpt>
      <trkpt lat="43.66247" lon="3.61901">
        <ele>187</ele>
        <time>2021-04-03T11:19:48Z</time>
      </trkpt>
      <trkpt lat="43.66252" lon="3.61895">
        <ele>187</ele>
        <time>2021-04-03T11:19:49Z</time>
      </trkpt>
      <trkpt lat="43.66257" lon="3.61889">
        <ele>187</ele>
        <time>2021-04-03T11:19:50Z</time>
      </trkpt>
      <trkpt lat="43.66261" lon="3.61883">
        <ele>187</ele>
        <time>2021-04-03T11:19:51Z</time>
      </trkpt>
      <trkpt lat="43.66266" lon="3.61876">
        <ele>187</ele>
        <time>2021-04-03T11:19:52Z</time>
      </trkpt>
      <trkpt lat="43.6627" lon="3.6187">
        <ele>187</ele>
        <time>2021-04-03T11:19:53Z</time>
      </trkpt>
      <trkpt lat="43.66275" lon="3.61864">
        <ele>187</ele>
        <time>2021-04-03T11:19:54Z</time>
      </trkpt>
      <trkpt lat="43.66279" lon="3.61859">
        <ele>187</ele>
        <time>2021-04-03T11:19:55Z</time>
      </trkpt>
      <trkpt lat="43.66284" lon="3.61854">
        <ele>187</ele>
        <time>2021-04-03T11:19:56Z</time>
      </trkpt>
      <trkpt lat="43.66289" lon="3.61849">
        <ele>184</ele>
        <time>2021-04-03T11:19:57Z</time>
      </trkpt>
      <trkpt lat="43.66295" lon="3.61844">
        <ele>184</ele>
        <time>2021-04-03T11:19:58Z</time>
      </trkpt>
      <trkpt lat="43.66299" lon="3.61839">
        <ele>184</ele>
        <time>2021-04-03T11:19:59Z</time>
      </trkpt>
      <trkpt lat="43.66304" lon="3.61833">
        <ele>184</ele>
        <time>2021-04-03T11:20:00Z</time>
      </trkpt>
      <trkpt lat="43.66309" lon="3.61827">
        <ele>184</ele>
        <time>2021-04-03T11:20:01Z</time>
      </trkpt>
      <trkpt lat="43.66314" lon="3.61821">
        <ele>184</ele>
        <time>2021-04-03T11:20:02Z</time>
      </trkpt>
      <trkpt lat="43.66319" lon="3.61815">
        <ele>184</ele>
        <time>2021-04-03T11:20:03Z</time>
      </trkpt>
      <trkpt lat="43.66323" lon="3.61809">
        <ele>184</ele>
        <time>2021-04-03T11:20:04Z</time>
      </trkpt>
      <trkpt lat="43.66328" lon="3.61803">
        <ele>184</ele>
        <time>2021-04-03T11:20:05Z</time>
      </trkpt>
      <trkpt lat="43.66333" lon="3.61797">
        <ele>184</ele>
        <time>2021-04-03T11:20:06Z</time>
      </trkpt>
      <trkpt lat="43.66338" lon="3.61791">
        <ele>184</ele>
        <time>2021-04-03T11:20:07Z</time>
      </trkpt>
      <trkpt lat="43.66342" lon="3.61786">
        <ele>180</ele>
        <time>2021-04-03T11:20:08Z</time>
      </trkpt>
      <trkpt lat="43.66347" lon="3.6178">
        <ele>180</ele>
        <time>2021-04-03T11:20:09Z</time>
      </trkpt>
      <trkpt lat="43.66351" lon="3.61774">
        <ele>180</ele>
        <time>2021-04-03T11:20:10Z</time>
      </trkpt>
      <trkpt lat="43.66355" lon="3.61768">
        <ele>180</ele>
        <time>2021-04-03T11:20:11Z</time>
      </trkpt>
      <trkpt lat="43.6636" lon="3.61762">
        <ele>180</ele>
        <time>2021-04-03T11:20:12Z</time>
      </trkpt>
      <trkpt lat="43.66364" lon="3.61756">
        <ele>180</ele>
        <time>2021-04-03T11:20:13Z</time>
      </trkpt>
      <trkpt lat="43.66368" lon="3.6175">
        <ele>180</ele>
        <time>2021-04-03T11:20:14Z</time>
      </trkpt>
      <trkpt lat="43.66371" lon="3.61744">
        <ele>180</ele>
        <time>2021-04-03T11:20:15Z</time>
      </trkpt>
      <trkpt lat="43.66375" lon="3.61737">
        <ele>180</ele>
        <time>2021-04-03T11:20:16Z</time>
      </trkpt>
      <trkpt lat="43.66378" lon="3.61731">
        <ele>176</ele>
        <time>2021-04-03T11:20:17Z</time>
      </trkpt>
      <trkpt lat="43.66382" lon="3.61725">
        <ele>176</ele>
        <time>2021-04-03T11:20:18Z</time>
      </trkpt>
      <trkpt lat="43.66386" lon="3.61719">
        <ele>176</ele>
        <time>2021-04-03T11:20:19Z</time>
      </trkpt>
      <trkpt lat="43.66389" lon="3.61712">
        <ele>176</ele>
        <time>2021-04-03T11:20:20Z</time>
      </trkpt>
      <trkpt lat="43.66394" lon="3.61707">
        <ele>176</ele>
        <time>2021-04-03T11:20:21Z</time>
      </trkpt>
      <trkpt lat="43.66398" lon="3.61702">
        <ele>176</ele>
        <time>2021-04-03T11:20:22Z</time>
      </trkpt>
      <trkpt lat="43.66402" lon="3.61697">
        <ele>176</ele>
        <time>2021-04-03T11:20:23Z</time>
      </trkpt>
      <trkpt lat="43.66407" lon="3.61691">
        <ele>176</ele>
        <time>2021-04-03T11:20:24Z</time>
      </trkpt>
      <trkpt lat="43.66411" lon="3.61686">
        <ele>176</ele>
        <time>2021-04-03T11:20:25Z</time>
      </trkpt>
      <trkpt lat="43.66416" lon="3.6168">
        <ele>176</ele>
        <time>2021-04-03T11:20:26Z</time>
      </trkpt>
      <trkpt lat="43.6642" lon="3.61674">
        <ele>176</ele>
        <time>2021-04-03T11:20:27Z</time>
      </trkpt>
      <trkpt lat="43.66425" lon="3.61669">
        <ele>174</ele>
        <time>2021-04-03T11:20:28Z</time>
      </trkpt>
      <trkpt lat="43.6643" lon="3.61664">
        <ele>174</ele>
        <time>2021-04-03T11:20:29Z</time>
      </trkpt>
      <trkpt lat="43.66434" lon="3.61659">
        <ele>174</ele>
        <time>2021-04-03T11:20:30Z</time>
      </trkpt>
      <trkpt lat="43.66439" lon="3.61653">
        <ele>174</ele>
        <time>2021-04-03T11:20:31Z</time>
      </trkpt>
      <trkpt lat="43.66443" lon="3.61648">
        <ele>174</ele>
        <time>2021-04-03T11:20:32Z</time>
      </trkpt>
      <trkpt lat="43.66447" lon="3.61642">
        <ele>174</ele>
        <time>2021-04-03T11:20:33Z</time>
      </trkpt>
      <trkpt lat="43.66451" lon="3.61637">
        <ele>174</ele>
        <time>2021-04-03T11:20:34Z</time>
      </trkpt>
      <trkpt lat="43.66455" lon="3.61632">
        <ele>174</ele>
        <time>2021-04-03T11:20:35Z</time>
      </trkpt>
      <trkpt lat="43.66459" lon="3.61628">
        <ele>174</ele>
        <time>2021-04-03T11:20:36Z</time>
      </trkpt>
      <trkpt lat="43.66464" lon="3.61623">
        <ele>174</ele>
        <time>2021-04-03T11:20:37Z</time>
      </trkpt>
      <trkpt lat="43.66468" lon="3.61618">
        <ele>173</ele>
        <time>2021-04-03T11:20:38Z</time>
      </trkpt>
      <trkpt lat="43.66473" lon="3.61614">
        <ele>173</ele>
        <time>2021-04-03T11:20:39Z</time>
      </trkpt>
      <trkpt lat="43.66477" lon="3.61608">
        <ele>173</ele>
        <time>2021-04-03T11:20:40Z</time>
      </trkpt>
      <trkpt lat="43.66481" lon="3.61603">
        <ele>173</ele>
        <time>2021-04-03T11:20:41Z</time>
      </trkpt>
      <trkpt lat="43.66485" lon="3.61598">
        <ele>173</ele>
        <time>2021-04-03T11:20:42Z</time>
      </trkpt>
      <trkpt lat="43.66488" lon="3.61592">
        <ele>173</ele>
        <time>2021-04-03T11:20:43Z</time>
      </trkpt>
      <trkpt lat="43.66491" lon="3.61587">
        <ele>173</ele>
        <time>2021-04-03T11:20:44Z</time>
      </trkpt>
      <trkpt lat="43.66494" lon="3.61582">
        <ele>173</ele>
        <time>2021-04-03T11:20:45Z</time>
      </trkpt>
      <trkpt lat="43.66497" lon="3.61577">
        <ele>173</ele>
        <time>2021-04-03T11:20:46Z</time>
      </trkpt>
      <trkpt lat="43.66501" lon="3.61573">
        <ele>171</ele>
        <time>2021-04-03T11:20:47Z</time>
      </trkpt>
      <trkpt lat="43.66504" lon="3.6157">
        <ele>171</ele>
        <time>2021-04-03T11:20:48Z</time>
      </trkpt>
      <trkpt lat="43.66508" lon="3.61566">
        <ele>171</ele>
        <time>2021-04-03T11:20:49Z</time>
      </trkpt>
      <trkpt lat="43.66511" lon="3.61563">
        <ele>171</ele>
        <time>2021-04-03T11:20:50Z</time>
      </trkpt>
      <trkpt lat="43.66515" lon="3.61559">
        <ele>171</ele>
        <time>2021-04-03T11:20:51Z</time>
      </trkpt>
      <trkpt lat="43.66519" lon="3.61556">
        <ele>171</ele>
        <time>2021-04-03T11:20:52Z</time>
      </trkpt>
      <trkpt lat="43.66523" lon="3.61552">
        <ele>171</ele>
        <time>2021-04-03T11:20:53Z</time>
      </trkpt>
      <trkpt lat="43.66527" lon="3.61548">
        <ele>171</ele>
        <time>2021-04-03T11:20:54Z</time>
      </trkpt>
      <trkpt lat="43.66531" lon="3.61544">
        <ele>171</ele>
        <time>2021-04-03T11:20:55Z</time>
      </trkpt>
      <trkpt lat="43.66535" lon="3.6154">
        <ele>171</ele>
        <time>2021-04-03T11:20:56Z</time>
      </trkpt>
      <trkpt lat="43.66538" lon="3.61536">
        <ele>171</ele>
        <time>2021-04-03T11:20:57Z</time>
      </trkpt>
      <trkpt lat="43.66541" lon="3.61534">
        <ele>171</ele>
        <time>2021-04-03T11:20:58Z</time>
      </trkpt>
      <trkpt lat="43.66544" lon="3.61532">
        <ele>171</ele>
        <time>2021-04-03T11:20:59Z</time>
      </trkpt>
      <trkpt lat="43.66547" lon="3.6153">
        <ele>171</ele>
        <time>2021-04-03T11:21:00Z</time>
      </trkpt>
      <trkpt lat="43.6655" lon="3.61528">
        <ele>171</ele>
        <time>2021-04-03T11:21:01Z</time>
      </trkpt>
      <trkpt lat="43.66554" lon="3.61527">
        <ele>171</ele>
        <time>2021-04-03T11:21:02Z</time>
      </trkpt>
      <trkpt lat="43.66557" lon="3.61525">
        <ele>171</ele>
        <time>2021-04-03T11:21:03Z</time>
      </trkpt>
      <trkpt lat="43.6656" lon="3.61524">
        <ele>171</ele>
        <time>2021-04-03T11:21:04Z</time>
      </trkpt>
      <trkpt lat="43.66564" lon="3.61522">
        <ele>171</ele>
        <time>2021-04-03T11:21:05Z</time>
      </trkpt>
      <trkpt lat="43.66567" lon="3.61521">
        <ele>171</ele>
        <time>2021-04-03T11:21:06Z</time>
      </trkpt>
      <trkpt lat="43.6657" lon="3.61519">
        <ele>171</ele>
        <time>2021-04-03T11:21:07Z</time>
      </trkpt>
      <trkpt lat="43.66573" lon="3.61517">
        <ele>171</ele>
        <time>2021-04-03T11:21:08Z</time>
      </trkpt>
      <trkpt lat="43.66577" lon="3.61514">
        <ele>171</ele>
        <time>2021-04-03T11:21:09Z</time>
      </trkpt>
      <trkpt lat="43.6658" lon="3.61512">
        <ele>171</ele>
        <time>2021-04-03T11:21:10Z</time>
      </trkpt>
      <trkpt lat="43.66583" lon="3.61509">
        <ele>171</ele>
        <time>2021-04-03T11:21:11Z</time>
      </trkpt>
      <trkpt lat="43.66587" lon="3.61506">
        <ele>171</ele>
        <time>2021-04-03T11:21:12Z</time>
      </trkpt>
      <trkpt lat="43.66591" lon="3.61502">
        <ele>171</ele>
        <time>2021-04-03T11:21:13Z</time>
      </trkpt>
      <trkpt lat="43.66594" lon="3.61499">
        <ele>171</ele>
        <time>2021-04-03T11:21:14Z</time>
      </trkpt>
      <trkpt lat="43.66598" lon="3.61495">
        <ele>171</ele>
        <time>2021-04-03T11:21:15Z</time>
      </trkpt>
      <trkpt lat="43.66602" lon="3.61491">
        <ele>171</ele>
        <time>2021-04-03T11:21:16Z</time>
      </trkpt>
      <trkpt lat="43.66606" lon="3.61488">
        <ele>170</ele>
        <time>2021-04-03T11:21:17Z</time>
      </trkpt>
      <trkpt lat="43.6661" lon="3.61484">
        <ele>170</ele>
        <time>2021-04-03T11:21:18Z</time>
      </trkpt>
      <trkpt lat="43.66614" lon="3.61482">
        <ele>170</ele>
        <time>2021-04-03T11:21:19Z</time>
      </trkpt>
      <trkpt lat="43.66619" lon="3.61479">
        <ele>170</ele>
        <time>2021-04-03T11:21:20Z</time>
      </trkpt>
      <trkpt lat="43.66623" lon="3.61476">
        <ele>170</ele>
        <time>2021-04-03T11:21:21Z</time>
      </trkpt>
      <trkpt lat="43.66628" lon="3.61473">
        <ele>170</ele>
        <time>2021-04-03T11:21:22Z</time>
      </trkpt>
      <trkpt lat="43.66633" lon="3.6147">
        <ele>170</ele>
        <time>2021-04-03T11:21:23Z</time>
      </trkpt>
      <trkpt lat="43.66638" lon="3.61467">
        <ele>170</ele>
        <time>2021-04-03T11:21:24Z</time>
      </trkpt>
      <trkpt lat="43.66644" lon="3.61466">
        <ele>170</ele>
        <time>2021-04-03T11:21:25Z</time>
      </trkpt>
      <trkpt lat="43.66649" lon="3.61464">
        <ele>170</ele>
        <time>2021-04-03T11:21:26Z</time>
      </trkpt>
      <trkpt lat="43.66655" lon="3.61461">
        <ele>169</ele>
        <time>2021-04-03T11:21:27Z</time>
      </trkpt>
      <trkpt lat="43.66661" lon="3.61459">
        <ele>169</ele>
        <time>2021-04-03T11:21:28Z</time>
      </trkpt>
      <trkpt lat="43.66667" lon="3.61457">
        <ele>169</ele>
        <time>2021-04-03T11:21:29Z</time>
      </trkpt>
      <trkpt lat="43.66673" lon="3.61455">
        <ele>169</ele>
        <time>2021-04-03T11:21:30Z</time>
      </trkpt>
      <trkpt lat="43.66679" lon="3.61452">
        <ele>169</ele>
        <time>2021-04-03T11:21:31Z</time>
      </trkpt>
      <trkpt lat="43.66685" lon="3.61448">
        <ele>169</ele>
        <time>2021-04-03T11:21:32Z</time>
      </trkpt>
      <trkpt lat="43.66691" lon="3.61445">
        <ele>169</ele>
        <time>2021-04-03T11:21:33Z</time>
      </trkpt>
      <trkpt lat="43.66696" lon="3.61441">
        <ele>169</ele>
        <time>2021-04-03T11:21:34Z</time>
      </trkpt>
      <trkpt lat="43.66702" lon="3.61437">
        <ele>169</ele>
        <time>2021-04-03T11:21:35Z</time>
      </trkpt>
      <trkpt lat="43.66706" lon="3.61432">
        <ele>169</ele>
        <time>2021-04-03T11:21:36Z</time>
      </trkpt>
      <trkpt lat="43.6671" lon="3.61427">
        <ele>165</ele>
        <time>2021-04-03T11:21:37Z</time>
      </trkpt>
      <trkpt lat="43.66714" lon="3.61423">
        <ele>165</ele>
        <time>2021-04-03T11:21:38Z</time>
      </trkpt>
      <trkpt lat="43.66717" lon="3.61418">
        <ele>165</ele>
        <time>2021-04-03T11:21:39Z</time>
      </trkpt>
      <trkpt lat="43.6672" lon="3.61413">
        <ele>165</ele>
        <time>2021-04-03T11:21:40Z</time>
      </trkpt>
      <trkpt lat="43.66722" lon="3.61409">
        <ele>165</ele>
        <time>2021-04-03T11:21:41Z</time>
      </trkpt>
      <trkpt lat="43.66723" lon="3.61404">
        <ele>165</ele>
        <time>2021-04-03T11:21:42Z</time>
      </trkpt>
      <trkpt lat="43.66725" lon="3.61399">
        <ele>165</ele>
        <time>2021-04-03T11:21:43Z</time>
      </trkpt>
      <trkpt lat="43.66726" lon="3.61394">
        <ele>165</ele>
        <time>2021-04-03T11:21:44Z</time>
      </trkpt>
      <trkpt lat="43.66728" lon="3.6139">
        <ele>165</ele>
        <time>2021-04-03T11:21:45Z</time>
      </trkpt>
      <trkpt lat="43.6673" lon="3.61386">
        <ele>165</ele>
        <time>2021-04-03T11:21:46Z</time>
      </trkpt>
      <trkpt lat="43.66732" lon="3.61382">
        <ele>161</ele>
        <time>2021-04-03T11:21:47Z</time>
      </trkpt>
      <trkpt lat="43.66734" lon="3.61378">
        <ele>161</ele>
        <time>2021-04-03T11:21:48Z</time>
      </trkpt>
      <trkpt lat="43.66737" lon="3.61375">
        <ele>161</ele>
        <time>2021-04-03T11:21:49Z</time>
      </trkpt>
      <trkpt lat="43.6674" lon="3.61371">
        <ele>161</ele>
        <time>2021-04-03T11:21:50Z</time>
      </trkpt>
      <trkpt lat="43.66743" lon="3.61368">
        <ele>161</ele>
        <time>2021-04-03T11:21:51Z</time>
      </trkpt>
      <trkpt lat="43.66745" lon="3.61366">
        <ele>161</ele>
        <time>2021-04-03T11:21:52Z</time>
      </trkpt>
      <trkpt lat="43.66748" lon="3.61364">
        <ele>161</ele>
        <time>2021-04-03T11:21:53Z</time>
      </trkpt>
      <trkpt lat="43.66751" lon="3.61361">
        <ele>161</ele>
        <time>2021-04-03T11:21:54Z</time>
      </trkpt>
      <trkpt lat="43.66754" lon="3.61359">
        <ele>161</ele>
        <time>2021-04-03T11:21:55Z</time>
      </trkpt>
      <trkpt lat="43.66756" lon="3.61357">
        <ele>161</ele>
        <time>2021-04-03T11:21:56Z</time>
      </trkpt>
      <trkpt lat="43.66759" lon="3.61353">
        <ele>159</ele>
        <time>2021-04-03T11:21:57Z</time>
      </trkpt>
      <trkpt lat="43.66762" lon="3.61349">
        <ele>159</ele>
        <time>2021-04-03T11:21:58Z</time>
      </trkpt>
      <trkpt lat="43.66764" lon="3.61344">
        <ele>159</ele>
        <time>2021-04-03T11:21:59Z</time>
      </trkpt>
      <trkpt lat="43.66766" lon="3.6134">
        <ele>159</ele>
        <time>2021-04-03T11:22:00Z</time>
      </trkpt>
      <trkpt lat="43.66768" lon="3.61336">
        <ele>159</ele>
        <time>2021-04-03T11:22:01Z</time>
      </trkpt>
      <trkpt lat="43.66769" lon="3.61331">
        <ele>159</ele>
        <time>2021-04-03T11:22:02Z</time>
      </trkpt>
      <trkpt lat="43.6677" lon="3.61327">
        <ele>159</ele>
        <time>2021-04-03T11:22:03Z</time>
      </trkpt>
      <trkpt lat="43.66772" lon="3.61323">
        <ele>159</ele>
        <time>2021-04-03T11:22:04Z</time>
      </trkpt>
      <trkpt lat="43.66773" lon="3.61319">
        <ele>159</ele>
        <time>2021-04-03T11:22:05Z</time>
      </trkpt>
      <trkpt lat="43.66774" lon="3.61315">
        <ele>159</ele>
        <time>2021-04-03T11:22:06Z</time>
      </trkpt>
      <trkpt lat="43.66775" lon="3.61311">
        <ele>159</ele>
        <time>2021-04-03T11:22:07Z</time>
      </trkpt>
      <trkpt lat="43.66777" lon="3.61307">
        <ele>160</ele>
        <time>2021-04-03T11:22:08Z</time>
      </trkpt>
      <trkpt lat="43.66778" lon="3.61303">
        <ele>160</ele>
        <time>2021-04-03T11:22:09Z</time>
      </trkpt>
      <trkpt lat="43.66779" lon="3.61299">
        <ele>160</ele>
        <time>2021-04-03T11:22:10Z</time>
      </trkpt>
      <trkpt lat="43.6678" lon="3.61294">
        <ele>160</ele>
        <time>2021-04-03T11:22:11Z</time>
      </trkpt>
      <trkpt lat="43.66782" lon="3.6129">
        <ele>160</ele>
        <time>2021-04-03T11:22:12Z</time>
      </trkpt>
      <trkpt lat="43.66783" lon="3.61286">
        <ele>160</ele>
        <time>2021-04-03T11:22:13Z</time>
      </trkpt>
      <trkpt lat="43.66785" lon="3.61282">
        <ele>160</ele>
        <time>2021-04-03T11:22:14Z</time>
      </trkpt>
      <trkpt lat="43.66786" lon="3.61278">
        <ele>160</ele>
        <time>2021-04-03T11:22:15Z</time>
      </trkpt>
      <trkpt lat="43.66788" lon="3.61273">
        <ele>160</ele>
        <time>2021-04-03T11:22:16Z</time>
      </trkpt>
      <trkpt lat="43.66789" lon="3.61269">
        <ele>159</ele>
        <time>2021-04-03T11:22:17Z</time>
      </trkpt>
      <trkpt lat="43.66791" lon="3.61265">
        <ele>159</ele>
        <time>2021-04-03T11:22:18Z</time>
      </trkpt>
      <trkpt lat="43.66792" lon="3.6126">
        <ele>159</ele>
        <time>2021-04-03T11:22:19Z</time>
      </trkpt>
      <trkpt lat="43.66794" lon="3.61256">
        <ele>159</ele>
        <time>2021-04-03T11:22:20Z</time>
      </trkpt>
      <trkpt lat="43.66795" lon="3.61252">
        <ele>159</ele>
        <time>2021-04-03T11:22:21Z</time>
      </trkpt>
      <trkpt lat="43.66796" lon="3.61247">
        <ele>159</ele>
        <time>2021-04-03T11:22:22Z</time>
      </trkpt>
      <trkpt lat="43.66798" lon="3.61243">
        <ele>159</ele>
        <time>2021-04-03T11:22:23Z</time>
      </trkpt>
      <trkpt lat="43.668" lon="3.61239">
        <ele>159</ele>
        <time>2021-04-03T11:22:24Z</time>
      </trkpt>
      <trkpt lat="43.66801" lon="3.61234">
        <ele>159</ele>
        <time>2021-04-03T11:22:25Z</time>
      </trkpt>
      <trkpt lat="43.66803" lon="3.6123">
        <ele>159</ele>
        <time>2021-04-03T11:22:26Z</time>
      </trkpt>
      <trkpt lat="43.66804" lon="3.61225">
        <ele>159</ele>
        <time>2021-04-03T11:22:27Z</time>
      </trkpt>
      <trkpt lat="43.66805" lon="3.6122">
        <ele>159</ele>
        <time>2021-04-03T11:22:28Z</time>
      </trkpt>
      <trkpt lat="43.66807" lon="3.61215">
        <ele>159</ele>
        <time>2021-04-03T11:22:29Z</time>
      </trkpt>
      <trkpt lat="43.66809" lon="3.6121">
        <ele>159</ele>
        <time>2021-04-03T11:22:30Z</time>
      </trkpt>
      <trkpt lat="43.66811" lon="3.61205">
        <ele>159</ele>
        <time>2021-04-03T11:22:31Z</time>
      </trkpt>
      <trkpt lat="43.66813" lon="3.612">
        <ele>159</ele>
        <time>2021-04-03T11:22:32Z</time>
      </trkpt>
      <trkpt lat="43.66815" lon="3.61194">
        <ele>159</ele>
        <time>2021-04-03T11:22:33Z</time>
      </trkpt>
      <trkpt lat="43.66817" lon="3.61189">
        <ele>159</ele>
        <time>2021-04-03T11:22:34Z</time>
      </trkpt>
      <trkpt lat="43.66819" lon="3.61183">
        <ele>159</ele>
        <time>2021-04-03T11:22:35Z</time>
      </trkpt>
      <trkpt lat="43.66821" lon="3.61176">
        <ele>159</ele>
        <time>2021-04-03T11:22:36Z</time>
      </trkpt>
      <trkpt lat="43.66823" lon="3.6117">
        <ele>158</ele>
        <time>2021-04-03T11:22:37Z</time>
      </trkpt>
      <trkpt lat="43.66825" lon="3.61164">
        <ele>158</ele>
        <time>2021-04-03T11:22:38Z</time>
      </trkpt>
      <trkpt lat="43.66827" lon="3.61157">
        <ele>158</ele>
        <time>2021-04-03T11:22:39Z</time>
      </trkpt>
      <trkpt lat="43.6683" lon="3.6115">
        <ele>158</ele>
        <time>2021-04-03T11:22:40Z</time>
      </trkpt>
      <trkpt lat="43.66832" lon="3.61143">
        <ele>158</ele>
        <time>2021-04-03T11:22:41Z</time>
      </trkpt>
      <trkpt lat="43.66835" lon="3.61136">
        <ele>158</ele>
        <time>2021-04-03T11:22:42Z</time>
      </trkpt>
      <trkpt lat="43.66837" lon="3.61128">
        <ele>158</ele>
        <time>2021-04-03T11:22:43Z</time>
      </trkpt>
      <trkpt lat="43.6684" lon="3.6112">
        <ele>158</ele>
        <time>2021-04-03T11:22:44Z</time>
      </trkpt>
      <trkpt lat="43.66842" lon="3.61113">
        <ele>158</ele>
        <time>2021-04-03T11:22:45Z</time>
      </trkpt>
      <trkpt lat="43.66845" lon="3.61105">
        <ele>158</ele>
        <time>2021-04-03T11:22:46Z</time>
      </trkpt>
      <trkpt lat="43.66848" lon="3.61097">
        <ele>156</ele>
        <time>2021-04-03T11:22:47Z</time>
      </trkpt>
      <trkpt lat="43.6685" lon="3.61089">
        <ele>156</ele>
        <time>2021-04-03T11:22:48Z</time>
      </trkpt>
      <trkpt lat="43.66853" lon="3.61081">
        <ele>156</ele>
        <time>2021-04-03T11:22:49Z</time>
      </trkpt>
      <trkpt lat="43.66856" lon="3.61073">
        <ele>156</ele>
        <time>2021-04-03T11:22:50Z</time>
      </trkpt>
      <trkpt lat="43.66859" lon="3.61064">
        <ele>156</ele>
        <time>2021-04-03T11:22:51Z</time>
      </trkpt>
      <trkpt lat="43.66862" lon="3.61055">
        <ele>156</ele>
        <time>2021-04-03T11:22:52Z</time>
      </trkpt>
      <trkpt lat="43.66865" lon="3.61047">
        <ele>156</ele>
        <time>2021-04-03T11:22:53Z</time>
      </trkpt>
      <trkpt lat="43.66867" lon="3.61037">
        <ele>156</ele>
        <time>2021-04-03T11:22:54Z</time>
      </trkpt>
      <trkpt lat="43.6687" lon="3.61028">
        <ele>156</ele>
        <time>2021-04-03T11:22:55Z</time>
      </trkpt>
      <trkpt lat="43.66872" lon="3.61019">
        <ele>156</ele>
        <time>2021-04-03T11:22:56Z</time>
      </trkpt>
      <trkpt lat="43.66874" lon="3.6101">
        <ele>156</ele>
        <time>2021-04-03T11:22:57Z</time>
      </trkpt>
      <trkpt lat="43.66877" lon="3.61001">
        <ele>153</ele>
        <time>2021-04-03T11:22:58Z</time>
      </trkpt>
      <trkpt lat="43.66879" lon="3.60991">
        <ele>153</ele>
        <time>2021-04-03T11:22:59Z</time>
      </trkpt>
      <trkpt lat="43.66882" lon="3.60981">
        <ele>153</ele>
        <time>2021-04-03T11:23:00Z</time>
      </trkpt>
      <trkpt lat="43.66884" lon="3.60971">
        <ele>153</ele>
        <time>2021-04-03T11:23:01Z</time>
      </trkpt>
      <trkpt lat="43.66886" lon="3.60961">
        <ele>153</ele>
        <time>2021-04-03T11:23:02Z</time>
      </trkpt>
      <trkpt lat="43.66888" lon="3.60951">
        <ele>153</ele>
        <time>2021-04-03T11:23:03Z</time>
      </trkpt>
      <trkpt lat="43.66889" lon="3.6094">
        <ele>153</ele>
        <time>2021-04-03T11:23:04Z</time>
      </trkpt>
      <trkpt lat="43.6689" lon="3.6093">
        <ele>153</ele>
        <time>2021-04-03T11:23:05Z</time>
      </trkpt>
      <trkpt lat="43.6689" lon="3.60921">
        <ele>153</ele>
        <time>2021-04-03T11:23:06Z</time>
      </trkpt>
      <trkpt lat="43.6689" lon="3.60911">
        <ele>153</ele>
        <time>2021-04-03T11:23:07Z</time>
      </trkpt>
      <trkpt lat="43.6689" lon="3.60901">
        <ele>150</ele>
        <time>2021-04-03T11:23:08Z</time>
      </trkpt>
      <trkpt lat="43.66888" lon="3.60891">
        <ele>150</ele>
        <time>2021-04-03T11:23:09Z</time>
      </trkpt>
      <trkpt lat="43.66887" lon="3.60882">
        <ele>150</ele>
        <time>2021-04-03T11:23:10Z</time>
      </trkpt>
      <trkpt lat="43.66886" lon="3.60875">
        <ele>150</ele>
        <time>2021-04-03T11:23:11Z</time>
      </trkpt>
      <trkpt lat="43.66885" lon="3.60868">
        <ele>150</ele>
        <time>2021-04-03T11:23:12Z</time>
      </trkpt>
      <trkpt lat="43.66884" lon="3.60863">
        <ele>150</ele>
        <time>2021-04-03T11:23:13Z</time>
      </trkpt>
      <trkpt lat="43.66883" lon="3.60857">
        <ele>150</ele>
        <time>2021-04-03T11:23:14Z</time>
      </trkpt>
      <trkpt lat="43.66882" lon="3.60853">
        <ele>150</ele>
        <time>2021-04-03T11:23:15Z</time>
      </trkpt>
      <trkpt lat="43.66881" lon="3.60849">
        <ele>150</ele>
        <time>2021-04-03T11:23:16Z</time>
      </trkpt>
      <trkpt lat="43.6688" lon="3.60846">
        <ele>148</ele>
        <time>2021-04-03T11:23:17Z</time>
      </trkpt>
      <trkpt lat="43.66879" lon="3.60842">
        <ele>148</ele>
        <time>2021-04-03T11:23:19Z</time>
      </trkpt>
      <trkpt lat="43.66878" lon="3.6084">
        <ele>148</ele>
        <time>2021-04-03T11:23:20Z</time>
      </trkpt>
      <trkpt lat="43.66877" lon="3.60837">
        <ele>148</ele>
        <time>2021-04-03T11:23:21Z</time>
      </trkpt>
      <trkpt lat="43.66875" lon="3.60833">
        <ele>148</ele>
        <time>2021-04-03T11:23:23Z</time>
      </trkpt>
      <trkpt lat="43.66874" lon="3.60831">
        <ele>148</ele>
        <time>2021-04-03T11:23:25Z</time>
      </trkpt>
      <trkpt lat="43.66877" lon="3.60839">
        <ele>145</ele>
        <time>2021-04-03T11:23:43Z</time>
      </trkpt>
      <trkpt lat="43.66878" lon="3.60841">
        <ele>145</ele>
        <time>2021-04-03T11:23:45Z</time>
      </trkpt>
      <trkpt lat="43.66885" lon="3.60852">
        <ele>144</ele>
        <time>2021-04-03T11:24:25Z</time>
      </trkpt>
      <trkpt lat="43.66886" lon="3.60854">
        <ele>144</ele>
        <time>2021-04-03T11:24:26Z</time>
      </trkpt>
      <trkpt lat="43.66886" lon="3.60857">
        <ele>144</ele>
        <time>2021-04-03T11:24:27Z</time>
      </trkpt>
      <trkpt lat="43.66887" lon="3.60861">
        <ele>144</ele>
        <time>2021-04-03T11:24:28Z</time>
      </trkpt>
      <trkpt lat="43.66887" lon="3.60864">
        <ele>144</ele>
        <time>2021-04-03T11:24:29Z</time>
      </trkpt>
      <trkpt lat="43.66887" lon="3.60868">
        <ele>144</ele>
        <time>2021-04-03T11:24:30Z</time>
      </trkpt>
      <trkpt lat="43.66889" lon="3.60876">
        <ele>144</ele>
        <time>2021-04-03T11:24:32Z</time>
      </trkpt>
      <trkpt lat="43.66889" lon="3.6088">
        <ele>144</ele>
        <time>2021-04-03T11:24:33Z</time>
      </trkpt>
      <trkpt lat="43.6689" lon="3.60883">
        <ele>144</ele>
        <time>2021-04-03T11:24:34Z</time>
      </trkpt>
      <trkpt lat="43.66891" lon="3.60887">
        <ele>144</ele>
        <time>2021-04-03T11:24:35Z</time>
      </trkpt>
      <trkpt lat="43.66891" lon="3.60891">
        <ele>144</ele>
        <time>2021-04-03T11:24:36Z</time>
      </trkpt>
      <trkpt lat="43.66892" lon="3.60895">
        <ele>144</ele>
        <time>2021-04-03T11:24:37Z</time>
      </trkpt>
      <trkpt lat="43.66892" lon="3.60899">
        <ele>144</ele>
        <time>2021-04-03T11:24:38Z</time>
      </trkpt>
      <trkpt lat="43.66893" lon="3.60903">
        <ele>144</ele>
        <time>2021-04-03T11:24:39Z</time>
      </trkpt>
      <trkpt lat="43.66893" lon="3.60908">
        <ele>144</ele>
        <time>2021-04-03T11:24:40Z</time>
      </trkpt>
      <trkpt lat="43.66894" lon="3.60912">
        <ele>144</ele>
        <time>2021-04-03T11:24:41Z</time>
      </trkpt>
      <trkpt lat="43.66894" lon="3.60917">
        <ele>144</ele>
        <time>2021-04-03T11:24:42Z</time>
      </trkpt>
      <trkpt lat="43.66893" lon="3.60922">
        <ele>144</ele>
        <time>2021-04-03T11:24:43Z</time>
      </trkpt>
      <trkpt lat="43.66893" lon="3.60926">
        <ele>144</ele>
        <time>2021-04-03T11:24:44Z</time>
      </trkpt>
      <trkpt lat="43.66893" lon="3.6093">
        <ele>145</ele>
        <time>2021-04-03T11:24:45Z</time>
      </trkpt>
      <trkpt lat="43.66893" lon="3.60935">
        <ele>145</ele>
        <time>2021-04-03T11:24:46Z</time>
      </trkpt>
      <trkpt lat="43.66892" lon="3.60939">
        <ele>145</ele>
        <time>2021-04-03T11:24:47Z</time>
      </trkpt>
      <trkpt lat="43.66892" lon="3.60943">
        <ele>145</ele>
        <time>2021-04-03T11:24:48Z</time>
      </trkpt>
      <trkpt lat="43.66891" lon="3.60947">
        <ele>145</ele>
        <time>2021-04-03T11:24:49Z</time>
      </trkpt>
      <trkpt lat="43.66891" lon="3.60951">
        <ele>145</ele>
        <time>2021-04-03T11:24:50Z</time>
      </trkpt>
      <trkpt lat="43.6689" lon="3.60955">
        <ele>145</ele>
        <time>2021-04-03T11:24:51Z</time>
      </trkpt>
      <trkpt lat="43.66889" lon="3.60959">
        <ele>145</ele>
        <time>2021-04-03T11:24:52Z</time>
      </trkpt>
      <trkpt lat="43.66888" lon="3.60963">
        <ele>145</ele>
        <time>2021-04-03T11:24:53Z</time>
      </trkpt>
      <trkpt lat="43.66888" lon="3.60966">
        <ele>145</ele>
        <time>2021-04-03T11:24:54Z</time>
      </trkpt>
      <trkpt lat="43.66887" lon="3.6097">
        <ele>146</ele>
        <time>2021-04-03T11:24:55Z</time>
      </trkpt>
      <trkpt lat="43.66886" lon="3.60974">
        <ele>146</ele>
        <time>2021-04-03T11:24:56Z</time>
      </trkpt>
      <trkpt lat="43.66884" lon="3.60978">
        <ele>146</ele>
        <time>2021-04-03T11:24:57Z</time>
      </trkpt>
      <trkpt lat="43.66883" lon="3.60981">
        <ele>146</ele>
        <time>2021-04-03T11:24:58Z</time>
      </trkpt>
      <trkpt lat="43.66883" lon="3.60985">
        <ele>146</ele>
        <time>2021-04-03T11:24:59Z</time>
      </trkpt>
      <trkpt lat="43.66882" lon="3.60988">
        <ele>146</ele>
        <time>2021-04-03T11:25:00Z</time>
      </trkpt>
      <trkpt lat="43.66881" lon="3.60991">
        <ele>146</ele>
        <time>2021-04-03T11:25:01Z</time>
      </trkpt>
      <trkpt lat="43.6688" lon="3.60993">
        <ele>146</ele>
        <time>2021-04-03T11:25:02Z</time>
      </trkpt>
      <trkpt lat="43.66879" lon="3.60996">
        <ele>146</ele>
        <time>2021-04-03T11:25:03Z</time>
      </trkpt>
      <trkpt lat="43.66878" lon="3.60999">
        <ele>146</ele>
        <time>2021-04-03T11:25:04Z</time>
      </trkpt>
      <trkpt lat="43.66878" lon="3.61002">
        <ele>147</ele>
        <time>2021-04-03T11:25:05Z</time>
      </trkpt>
      <trkpt lat="43.66877" lon="3.61005">
        <ele>147</ele>
        <time>2021-04-03T11:25:06Z</time>
      </trkpt>
      <trkpt lat="43.66876" lon="3.61009">
        <ele>147</ele>
        <time>2021-04-03T11:25:07Z</time>
      </trkpt>
      <trkpt lat="43.66875" lon="3.61012">
        <ele>147</ele>
        <time>2021-04-03T11:25:08Z</time>
      </trkpt>
      <trkpt lat="43.66874" lon="3.61015">
        <ele>147</ele>
        <time>2021-04-03T11:25:09Z</time>
      </trkpt>
      <trkpt lat="43.66874" lon="3.61018">
        <ele>147</ele>
        <time>2021-04-03T11:25:10Z</time>
      </trkpt>
      <trkpt lat="43.66872" lon="3.61024">
        <ele>147</ele>
        <time>2021-04-03T11:25:12Z</time>
      </trkpt>
      <trkpt lat="43.66872" lon="3.61027">
        <ele>147</ele>
        <time>2021-04-03T11:25:13Z</time>
      </trkpt>
      <trkpt lat="43.66871" lon="3.6103">
        <ele>147</ele>
        <time>2021-04-03T11:25:14Z</time>
      </trkpt>
      <trkpt lat="43.6687" lon="3.61033">
        <ele>147</ele>
        <time>2021-04-03T11:25:15Z</time>
      </trkpt>
      <trkpt lat="43.66869" lon="3.61037">
        <ele>147</ele>
        <time>2021-04-03T11:25:16Z</time>
      </trkpt>
      <trkpt lat="43.66868" lon="3.6104">
        <ele>147</ele>
        <time>2021-04-03T11:25:17Z</time>
      </trkpt>
      <trkpt lat="43.66867" lon="3.61043">
        <ele>147</ele>
        <time>2021-04-03T11:25:18Z</time>
      </trkpt>
      <trkpt lat="43.66866" lon="3.61046">
        <ele>147</ele>
        <time>2021-04-03T11:25:19Z</time>
      </trkpt>
      <trkpt lat="43.66865" lon="3.6105">
        <ele>147</ele>
        <time>2021-04-03T11:25:20Z</time>
      </trkpt>
      <trkpt lat="43.66864" lon="3.61053">
        <ele>147</ele>
        <time>2021-04-03T11:25:21Z</time>
      </trkpt>
      <trkpt lat="43.66863" lon="3.61056">
        <ele>147</ele>
        <time>2021-04-03T11:25:22Z</time>
      </trkpt>
      <trkpt lat="43.66862" lon="3.61059">
        <ele>147</ele>
        <time>2021-04-03T11:25:23Z</time>
      </trkpt>
      <trkpt lat="43.66861" lon="3.61062">
        <ele>149</ele>
        <time>2021-04-03T11:25:24Z</time>
      </trkpt>
      <trkpt lat="43.6686" lon="3.61065">
        <ele>149</ele>
        <time>2021-04-03T11:25:25Z</time>
      </trkpt>
      <trkpt lat="43.66859" lon="3.61067">
        <ele>149</ele>
        <time>2021-04-03T11:25:26Z</time>
      </trkpt>
      <trkpt lat="43.66858" lon="3.6107">
        <ele>149</ele>
        <time>2021-04-03T11:25:27Z</time>
      </trkpt>
      <trkpt lat="43.66857" lon="3.61073">
        <ele>149</ele>
        <time>2021-04-03T11:25:28Z</time>
      </trkpt>
      <trkpt lat="43.66856" lon="3.61076">
        <ele>149</ele>
        <time>2021-04-03T11:25:29Z</time>
      </trkpt>
      <trkpt lat="43.66855" lon="3.61078">
        <ele>149</ele>
        <time>2021-04-03T11:25:30Z</time>
      </trkpt>
      <trkpt lat="43.66855" lon="3.61081">
        <ele>149</ele>
        <time>2021-04-03T11:25:31Z</time>
      </trkpt>
      <trkpt lat="43.66854" lon="3.61084">
        <ele>149</ele>
        <time>2021-04-03T11:25:32Z</time>
      </trkpt>
      <trkpt lat="43.66852" lon="3.61087">
        <ele>149</ele>
        <time>2021-04-03T11:25:33Z</time>
      </trkpt>
      <trkpt lat="43.66851" lon="3.6109">
        <ele>149</ele>
        <time>2021-04-03T11:25:34Z</time>
      </trkpt>
      <trkpt lat="43.66851" lon="3.61093">
        <ele>150</ele>
        <time>2021-04-03T11:25:35Z</time>
      </trkpt>
      <trkpt lat="43.6685" lon="3.61095">
        <ele>150</ele>
        <time>2021-04-03T11:25:36Z</time>
      </trkpt>
      <trkpt lat="43.66849" lon="3.61098">
        <ele>150</ele>
        <time>2021-04-03T11:25:37Z</time>
      </trkpt>
      <trkpt lat="43.66848" lon="3.61102">
        <ele>150</ele>
        <time>2021-04-03T11:25:38Z</time>
      </trkpt>
      <trkpt lat="43.66847" lon="3.61105">
        <ele>150</ele>
        <time>2021-04-03T11:25:39Z</time>
      </trkpt>
      <trkpt lat="43.66846" lon="3.61109">
        <ele>150</ele>
        <time>2021-04-03T11:25:40Z</time>
      </trkpt>
      <trkpt lat="43.66845" lon="3.61112">
        <ele>150</ele>
        <time>2021-04-03T11:25:41Z</time>
      </trkpt>
      <trkpt lat="43.66844" lon="3.61115">
        <ele>150</ele>
        <time>2021-04-03T11:25:42Z</time>
      </trkpt>
      <trkpt lat="43.66843" lon="3.61118">
        <ele>150</ele>
        <time>2021-04-03T11:25:43Z</time>
      </trkpt>
      <trkpt lat="43.66842" lon="3.61121">
        <ele>151</ele>
        <time>2021-04-03T11:25:44Z</time>
      </trkpt>
      <trkpt lat="43.66841" lon="3.61124">
        <ele>151</ele>
        <time>2021-04-03T11:25:45Z</time>
      </trkpt>
      <trkpt lat="43.6684" lon="3.61127">
        <ele>151</ele>
        <time>2021-04-03T11:25:46Z</time>
      </trkpt>
      <trkpt lat="43.66839" lon="3.6113">
        <ele>151</ele>
        <time>2021-04-03T11:25:47Z</time>
      </trkpt>
      <trkpt lat="43.66838" lon="3.61133">
        <ele>151</ele>
        <time>2021-04-03T11:25:48Z</time>
      </trkpt>
      <trkpt lat="43.66836" lon="3.61137">
        <ele>151</ele>
        <time>2021-04-03T11:25:49Z</time>
      </trkpt>
      <trkpt lat="43.66835" lon="3.6114">
        <ele>151</ele>
        <time>2021-04-03T11:25:50Z</time>
      </trkpt>
      <trkpt lat="43.66834" lon="3.61142">
        <ele>151</ele>
        <time>2021-04-03T11:25:51Z</time>
      </trkpt>
      <trkpt lat="43.66834" lon="3.61145">
        <ele>151</ele>
        <time>2021-04-03T11:25:52Z</time>
      </trkpt>
      <trkpt lat="43.66833" lon="3.61148">
        <ele>151</ele>
        <time>2021-04-03T11:25:53Z</time>
      </trkpt>
      <trkpt lat="43.66832" lon="3.6115">
        <ele>153</ele>
        <time>2021-04-03T11:25:54Z</time>
      </trkpt>
      <trkpt lat="43.66831" lon="3.61155">
        <ele>153</ele>
        <time>2021-04-03T11:25:56Z</time>
      </trkpt>
      <trkpt lat="43.6683" lon="3.61158">
        <ele>153</ele>
        <time>2021-04-03T11:25:57Z</time>
      </trkpt>
      <trkpt lat="43.66828" lon="3.61161">
        <ele>153</ele>
        <time>2021-04-03T11:25:58Z</time>
      </trkpt>
      <trkpt lat="43.66828" lon="3.61164">
        <ele>153</ele>
        <time>2021-04-03T11:25:59Z</time>
      </trkpt>
      <trkpt lat="43.66826" lon="3.61168">
        <ele>153</ele>
        <time>2021-04-03T11:26:00Z</time>
      </trkpt>
      <trkpt lat="43.66826" lon="3.61171">
        <ele>153</ele>
        <time>2021-04-03T11:26:01Z</time>
      </trkpt>
      <trkpt lat="43.66825" lon="3.61174">
        <ele>153</ele>
        <time>2021-04-03T11:26:02Z</time>
      </trkpt>
      <trkpt lat="43.66824" lon="3.61177">
        <ele>153</ele>
        <time>2021-04-03T11:26:03Z</time>
      </trkpt>
      <trkpt lat="43.66823" lon="3.6118">
        <ele>154</ele>
        <time>2021-04-03T11:26:04Z</time>
      </trkpt>
      <trkpt lat="43.66822" lon="3.61183">
        <ele>154</ele>
        <time>2021-04-03T11:26:05Z</time>
      </trkpt>
      <trkpt lat="43.66821" lon="3.61186">
        <ele>154</ele>
        <time>2021-04-03T11:26:06Z</time>
      </trkpt>
      <trkpt lat="43.6682" lon="3.6119">
        <ele>154</ele>
        <time>2021-04-03T11:26:07Z</time>
      </trkpt>
      <trkpt lat="43.66819" lon="3.61193">
        <ele>154</ele>
        <time>2021-04-03T11:26:08Z</time>
      </trkpt>
      <trkpt lat="43.66818" lon="3.61197">
        <ele>154</ele>
        <time>2021-04-03T11:26:09Z</time>
      </trkpt>
      <trkpt lat="43.66817" lon="3.61201">
        <ele>154</ele>
        <time>2021-04-03T11:26:10Z</time>
      </trkpt>
      <trkpt lat="43.66815" lon="3.61204">
        <ele>154</ele>
        <time>2021-04-03T11:26:11Z</time>
      </trkpt>
      <trkpt lat="43.66814" lon="3.61208">
        <ele>154</ele>
        <time>2021-04-03T11:26:12Z</time>
      </trkpt>
      <trkpt lat="43.66813" lon="3.61212">
        <ele>154</ele>
        <time>2021-04-03T11:26:13Z</time>
      </trkpt>
      <trkpt lat="43.66813" lon="3.61216">
        <ele>154</ele>
        <time>2021-04-03T11:26:14Z</time>
      </trkpt>
      <trkpt lat="43.66812" lon="3.6122">
        <ele>154</ele>
        <time>2021-04-03T11:26:15Z</time>
      </trkpt>
      <trkpt lat="43.6681" lon="3.61224">
        <ele>154</ele>
        <time>2021-04-03T11:26:16Z</time>
      </trkpt>
      <trkpt lat="43.66809" lon="3.61227">
        <ele>154</ele>
        <time>2021-04-03T11:26:17Z</time>
      </trkpt>
      <trkpt lat="43.66808" lon="3.61231">
        <ele>154</ele>
        <time>2021-04-03T11:26:18Z</time>
      </trkpt>
      <trkpt lat="43.66806" lon="3.61235">
        <ele>154</ele>
        <time>2021-04-03T11:26:19Z</time>
      </trkpt>
      <trkpt lat="43.66805" lon="3.61239">
        <ele>154</ele>
        <time>2021-04-03T11:26:20Z</time>
      </trkpt>
      <trkpt lat="43.66803" lon="3.61243">
        <ele>154</ele>
        <time>2021-04-03T11:26:21Z</time>
      </trkpt>
      <trkpt lat="43.66802" lon="3.61247">
        <ele>154</ele>
        <time>2021-04-03T11:26:22Z</time>
      </trkpt>
      <trkpt lat="43.668" lon="3.61251">
        <ele>154</ele>
        <time>2021-04-03T11:26:23Z</time>
      </trkpt>
      <trkpt lat="43.66798" lon="3.61255">
        <ele>154</ele>
        <time>2021-04-03T11:26:24Z</time>
      </trkpt>
      <trkpt lat="43.66797" lon="3.61259">
        <ele>154</ele>
        <time>2021-04-03T11:26:25Z</time>
      </trkpt>
      <trkpt lat="43.66795" lon="3.61263">
        <ele>154</ele>
        <time>2021-04-03T11:26:26Z</time>
      </trkpt>
      <trkpt lat="43.66793" lon="3.61267">
        <ele>154</ele>
        <time>2021-04-03T11:26:27Z</time>
      </trkpt>
      <trkpt lat="43.66792" lon="3.61271">
        <ele>154</ele>
        <time>2021-04-03T11:26:28Z</time>
      </trkpt>
      <trkpt lat="43.6679" lon="3.61274">
        <ele>154</ele>
        <time>2021-04-03T11:26:29Z</time>
      </trkpt>
      <trkpt lat="43.66789" lon="3.61278">
        <ele>154</ele>
        <time>2021-04-03T11:26:30Z</time>
      </trkpt>
      <trkpt lat="43.66788" lon="3.61281">
        <ele>154</ele>
        <time>2021-04-03T11:26:31Z</time>
      </trkpt>
      <trkpt lat="43.66787" lon="3.61284">
        <ele>154</ele>
        <time>2021-04-03T11:26:32Z</time>
      </trkpt>
      <trkpt lat="43.66786" lon="3.61288">
        <ele>154</ele>
        <time>2021-04-03T11:26:33Z</time>
      </trkpt>
      <trkpt lat="43.66784" lon="3.61292">
        <ele>155</ele>
        <time>2021-04-03T11:26:34Z</time>
      </trkpt>
      <trkpt lat="43.66783" lon="3.61296">
        <ele>155</ele>
        <time>2021-04-03T11:26:35Z</time>
      </trkpt>
      <trkpt lat="43.66782" lon="3.613">
        <ele>155</ele>
        <time>2021-04-03T11:26:36Z</time>
      </trkpt>
      <trkpt lat="43.6678" lon="3.61304">
        <ele>155</ele>
        <time>2021-04-03T11:26:37Z</time>
      </trkpt>
      <trkpt lat="43.66778" lon="3.61309">
        <ele>155</ele>
        <time>2021-04-03T11:26:38Z</time>
      </trkpt>
      <trkpt lat="43.66776" lon="3.61314">
        <ele>155</ele>
        <time>2021-04-03T11:26:39Z</time>
      </trkpt>
      <trkpt lat="43.66774" lon="3.61319">
        <ele>155</ele>
        <time>2021-04-03T11:26:40Z</time>
      </trkpt>
      <trkpt lat="43.66772" lon="3.61325">
        <ele>155</ele>
        <time>2021-04-03T11:26:41Z</time>
      </trkpt>
      <trkpt lat="43.66768" lon="3.61335">
        <ele>155</ele>
        <time>2021-04-03T11:26:43Z</time>
      </trkpt>
      <trkpt lat="43.66766" lon="3.61341">
        <ele>155</ele>
        <time>2021-04-03T11:26:44Z</time>
      </trkpt>
      <trkpt lat="43.66763" lon="3.61347">
        <ele>155</ele>
        <time>2021-04-03T11:26:45Z</time>
      </trkpt>
      <trkpt lat="43.6676" lon="3.61352">
        <ele>155</ele>
        <time>2021-04-03T11:26:46Z</time>
      </trkpt>
      <trkpt lat="43.66757" lon="3.61357">
        <ele>155</ele>
        <time>2021-04-03T11:26:47Z</time>
      </trkpt>
      <trkpt lat="43.66753" lon="3.61362">
        <ele>155</ele>
        <time>2021-04-03T11:26:48Z</time>
      </trkpt>
      <trkpt lat="43.66749" lon="3.61366">
        <ele>155</ele>
        <time>2021-04-03T11:26:49Z</time>
      </trkpt>
      <trkpt lat="43.66746" lon="3.6137">
        <ele>155</ele>
        <time>2021-04-03T11:26:50Z</time>
      </trkpt>
      <trkpt lat="43.66742" lon="3.61373">
        <ele>155</ele>
        <time>2021-04-03T11:26:51Z</time>
      </trkpt>
      <trkpt lat="43.66738" lon="3.61377">
        <ele>155</ele>
        <time>2021-04-03T11:26:52Z</time>
      </trkpt>
      <trkpt lat="43.66735" lon="3.61382">
        <ele>155</ele>
        <time>2021-04-03T11:26:53Z</time>
      </trkpt>
      <trkpt lat="43.66732" lon="3.61387">
        <ele>154</ele>
        <time>2021-04-03T11:26:54Z</time>
      </trkpt>
      <trkpt lat="43.66729" lon="3.61391">
        <ele>154</ele>
        <time>2021-04-03T11:26:55Z</time>
      </trkpt>
      <trkpt lat="43.66727" lon="3.61396">
        <ele>154</ele>
        <time>2021-04-03T11:26:56Z</time>
      </trkpt>
      <trkpt lat="43.66725" lon="3.61401">
        <ele>154</ele>
        <time>2021-04-03T11:26:57Z</time>
      </trkpt>
      <trkpt lat="43.66723" lon="3.61406">
        <ele>154</ele>
        <time>2021-04-03T11:26:58Z</time>
      </trkpt>
      <trkpt lat="43.66722" lon="3.61411">
        <ele>154</ele>
        <time>2021-04-03T11:26:59Z</time>
      </trkpt>
      <trkpt lat="43.6672" lon="3.61416">
        <ele>154</ele>
        <time>2021-04-03T11:27:00Z</time>
      </trkpt>
      <trkpt lat="43.66718" lon="3.6142">
        <ele>154</ele>
        <time>2021-04-03T11:27:01Z</time>
      </trkpt>
      <trkpt lat="43.66715" lon="3.61424">
        <ele>154</ele>
        <time>2021-04-03T11:27:02Z</time>
      </trkpt>
      <trkpt lat="43.66712" lon="3.61428">
        <ele>154</ele>
        <time>2021-04-03T11:27:03Z</time>
      </trkpt>
      <trkpt lat="43.6671" lon="3.61431">
        <ele>153</ele>
        <time>2021-04-03T11:27:04Z</time>
      </trkpt>
      <trkpt lat="43.66707" lon="3.61435">
        <ele>153</ele>
        <time>2021-04-03T11:27:05Z</time>
      </trkpt>
      <trkpt lat="43.66705" lon="3.61438">
        <ele>153</ele>
        <time>2021-04-03T11:27:06Z</time>
      </trkpt>
      <trkpt lat="43.66702" lon="3.61441">
        <ele>153</ele>
        <time>2021-04-03T11:27:07Z</time>
      </trkpt>
      <trkpt lat="43.66699" lon="3.61443">
        <ele>153</ele>
        <time>2021-04-03T11:27:08Z</time>
      </trkpt>
      <trkpt lat="43.66696" lon="3.61446">
        <ele>153</ele>
        <time>2021-04-03T11:27:09Z</time>
      </trkpt>
      <trkpt lat="43.66692" lon="3.61448">
        <ele>153</ele>
        <time>2021-04-03T11:27:10Z</time>
      </trkpt>
      <trkpt lat="43.66689" lon="3.61451">
        <ele>153</ele>
        <time>2021-04-03T11:27:11Z</time>
      </trkpt>
      <trkpt lat="43.66686" lon="3.61453">
        <ele>153</ele>
        <time>2021-04-03T11:27:12Z</time>
      </trkpt>
      <trkpt lat="43.66682" lon="3.61455">
        <ele>153</ele>
        <time>2021-04-03T11:27:13Z</time>
      </trkpt>
      <trkpt lat="43.66678" lon="3.61456">
        <ele>153</ele>
        <time>2021-04-03T11:27:14Z</time>
      </trkpt>
      <trkpt lat="43.66674" lon="3.61458">
        <ele>153</ele>
        <time>2021-04-03T11:27:15Z</time>
      </trkpt>
      <trkpt lat="43.66671" lon="3.61459">
        <ele>153</ele>
        <time>2021-04-03T11:27:16Z</time>
      </trkpt>
      <trkpt lat="43.66667" lon="3.61461">
        <ele>153</ele>
        <time>2021-04-03T11:27:17Z</time>
      </trkpt>
      <trkpt lat="43.66663" lon="3.61462">
        <ele>153</ele>
        <time>2021-04-03T11:27:18Z</time>
      </trkpt>
      <trkpt lat="43.66659" lon="3.61463">
        <ele>153</ele>
        <time>2021-04-03T11:27:19Z</time>
      </trkpt>
      <trkpt lat="43.66656" lon="3.61465">
        <ele>153</ele>
        <time>2021-04-03T11:27:20Z</time>
      </trkpt>
      <trkpt lat="43.66652" lon="3.61466">
        <ele>153</ele>
        <time>2021-04-03T11:27:21Z</time>
      </trkpt>
      <trkpt lat="43.66649" lon="3.61467">
        <ele>153</ele>
        <time>2021-04-03T11:27:22Z</time>
      </trkpt>
      <trkpt lat="43.66646" lon="3.61469">
        <ele>153</ele>
        <time>2021-04-03T11:27:23Z</time>
      </trkpt>
      <trkpt lat="43.66643" lon="3.6147">
        <ele>153</ele>
        <time>2021-04-03T11:27:24Z</time>
      </trkpt>
      <trkpt lat="43.6664" lon="3.61472">
        <ele>153</ele>
        <time>2021-04-03T11:27:25Z</time>
      </trkpt>
      <trkpt lat="43.66636" lon="3.61473">
        <ele>153</ele>
        <time>2021-04-03T11:27:26Z</time>
      </trkpt>
      <trkpt lat="43.66633" lon="3.61475">
        <ele>153</ele>
        <time>2021-04-03T11:27:27Z</time>
      </trkpt>
      <trkpt lat="43.6663" lon="3.61477">
        <ele>153</ele>
        <time>2021-04-03T11:27:28Z</time>
      </trkpt>
      <trkpt lat="43.66627" lon="3.61479">
        <ele>153</ele>
        <time>2021-04-03T11:27:29Z</time>
      </trkpt>
      <trkpt lat="43.66624" lon="3.61481">
        <ele>153</ele>
        <time>2021-04-03T11:27:30Z</time>
      </trkpt>
      <trkpt lat="43.66621" lon="3.61483">
        <ele>153</ele>
        <time>2021-04-03T11:27:31Z</time>
      </trkpt>
      <trkpt lat="43.66618" lon="3.61485">
        <ele>153</ele>
        <time>2021-04-03T11:27:32Z</time>
      </trkpt>
      <trkpt lat="43.66615" lon="3.61487">
        <ele>153</ele>
        <time>2021-04-03T11:27:33Z</time>
      </trkpt>
      <trkpt lat="43.66613" lon="3.61489">
        <ele>155</ele>
        <time>2021-04-03T11:27:34Z</time>
      </trkpt>
      <trkpt lat="43.6661" lon="3.61492">
        <ele>155</ele>
        <time>2021-04-03T11:27:35Z</time>
      </trkpt>
      <trkpt lat="43.66607" lon="3.61494">
        <ele>155</ele>
        <time>2021-04-03T11:27:36Z</time>
      </trkpt>
      <trkpt lat="43.66604" lon="3.61496">
        <ele>155</ele>
        <time>2021-04-03T11:27:37Z</time>
      </trkpt>
      <trkpt lat="43.66601" lon="3.61499">
        <ele>155</ele>
        <time>2021-04-03T11:27:38Z</time>
      </trkpt>
      <trkpt lat="43.66598" lon="3.61501">
        <ele>155</ele>
        <time>2021-04-03T11:27:39Z</time>
      </trkpt>
      <trkpt lat="43.66595" lon="3.61503">
        <ele>155</ele>
        <time>2021-04-03T11:27:40Z</time>
      </trkpt>
      <trkpt lat="43.66592" lon="3.61505">
        <ele>155</ele>
        <time>2021-04-03T11:27:41Z</time>
      </trkpt>
      <trkpt lat="43.6659" lon="3.61507">
        <ele>155</ele>
        <time>2021-04-03T11:27:42Z</time>
      </trkpt>
      <trkpt lat="43.66584" lon="3.61511">
        <ele>156</ele>
        <time>2021-04-03T11:27:44Z</time>
      </trkpt>
      <trkpt lat="43.66582" lon="3.61514">
        <ele>156</ele>
        <time>2021-04-03T11:27:45Z</time>
      </trkpt>
      <trkpt lat="43.66579" lon="3.61516">
        <ele>156</ele>
        <time>2021-04-03T11:27:46Z</time>
      </trkpt>
      <trkpt lat="43.66576" lon="3.61518">
        <ele>156</ele>
        <time>2021-04-03T11:27:47Z</time>
      </trkpt>
      <trkpt lat="43.66574" lon="3.6152">
        <ele>156</ele>
        <time>2021-04-03T11:27:48Z</time>
      </trkpt>
      <trkpt lat="43.66571" lon="3.61522">
        <ele>156</ele>
        <time>2021-04-03T11:27:49Z</time>
      </trkpt>
      <trkpt lat="43.66569" lon="3.61524">
        <ele>156</ele>
        <time>2021-04-03T11:27:50Z</time>
      </trkpt>
      <trkpt lat="43.66567" lon="3.61526">
        <ele>156</ele>
        <time>2021-04-03T11:27:51Z</time>
      </trkpt>
      <trkpt lat="43.66565" lon="3.61528">
        <ele>156</ele>
        <time>2021-04-03T11:27:52Z</time>
      </trkpt>
      <trkpt lat="43.66564" lon="3.61531">
        <ele>156</ele>
        <time>2021-04-03T11:27:53Z</time>
      </trkpt>
      <trkpt lat="43.66563" lon="3.61534">
        <ele>156</ele>
        <time>2021-04-03T11:27:54Z</time>
      </trkpt>
      <trkpt lat="43.66563" lon="3.61537">
        <ele>157</ele>
        <time>2021-04-03T11:27:55Z</time>
      </trkpt>
      <trkpt lat="43.66563" lon="3.61541">
        <ele>157</ele>
        <time>2021-04-03T11:27:56Z</time>
      </trkpt>
      <trkpt lat="43.66564" lon="3.61543">
        <ele>157</ele>
        <time>2021-04-03T11:27:57Z</time>
      </trkpt>
      <trkpt lat="43.66566" lon="3.61546">
        <ele>157</ele>
        <time>2021-04-03T11:27:59Z</time>
      </trkpt>
      <trkpt lat="43.66568" lon="3.61547">
        <ele>157</ele>
        <time>2021-04-03T11:28:01Z</time>
      </trkpt>
      <trkpt lat="43.66571" lon="3.61547">
        <ele>157</ele>
        <time>2021-04-03T11:28:03Z</time>
      </trkpt>
      <trkpt lat="43.66573" lon="3.61547">
        <ele>157</ele>
        <time>2021-04-03T11:28:05Z</time>
      </trkpt>
      <trkpt lat="43.66576" lon="3.61548">
        <ele>157</ele>
        <time>2021-04-03T11:28:07Z</time>
      </trkpt>
      <trkpt lat="43.66578" lon="3.61549">
        <ele>157</ele>
        <time>2021-04-03T11:28:09Z</time>
      </trkpt>
      <trkpt lat="43.66581" lon="3.61548">
        <ele>157</ele>
        <time>2021-04-03T11:28:11Z</time>
      </trkpt>
      <trkpt lat="43.66584" lon="3.61547">
        <ele>157</ele>
        <time>2021-04-03T11:28:13Z</time>
      </trkpt>
      <trkpt lat="43.66587" lon="3.61547">
        <ele>157</ele>
        <time>2021-04-03T11:28:15Z</time>
      </trkpt>
      <trkpt lat="43.66589" lon="3.61546">
        <ele>157</ele>
        <time>2021-04-03T11:28:17Z</time>
      </trkpt>
      <trkpt lat="43.66592" lon="3.61546">
        <ele>157</ele>
        <time>2021-04-03T11:28:19Z</time>
      </trkpt>
      <trkpt lat="43.66595" lon="3.61545">
        <ele>157</ele>
        <time>2021-04-03T11:28:21Z</time>
      </trkpt>
      <trkpt lat="43.66597" lon="3.61544">
        <ele>157</ele>
        <time>2021-04-03T11:28:22Z</time>
      </trkpt>
      <trkpt lat="43.66599" lon="3.61543">
        <ele>157</ele>
        <time>2021-04-03T11:28:23Z</time>
      </trkpt>
      <trkpt lat="43.66601" lon="3.61543">
        <ele>157</ele>
        <time>2021-04-03T11:28:24Z</time>
      </trkpt>
      <trkpt lat="43.66603" lon="3.61542">
        <ele>160</ele>
        <time>2021-04-03T11:28:25Z</time>
      </trkpt>
      <trkpt lat="43.66605" lon="3.61541">
        <ele>160</ele>
        <time>2021-04-03T11:28:26Z</time>
      </trkpt>
      <trkpt lat="43.66606" lon="3.6154">
        <ele>160</ele>
        <time>2021-04-03T11:28:27Z</time>
      </trkpt>
      <trkpt lat="43.66608" lon="3.6154">
        <ele>160</ele>
        <time>2021-04-03T11:28:28Z</time>
      </trkpt>
      <trkpt lat="43.6661" lon="3.61539">
        <ele>160</ele>
        <time>2021-04-03T11:28:29Z</time>
      </trkpt>
      <trkpt lat="43.66613" lon="3.61538">
        <ele>160</ele>
        <time>2021-04-03T11:28:31Z</time>
      </trkpt>
      <trkpt lat="43.66615" lon="3.61536">
        <ele>160</ele>
        <time>2021-04-03T11:28:32Z</time>
      </trkpt>
      <trkpt lat="43.66617" lon="3.61536">
        <ele>160</ele>
        <time>2021-04-03T11:28:33Z</time>
      </trkpt>
      <trkpt lat="43.6662" lon="3.61534">
        <ele>160</ele>
        <time>2021-04-03T11:28:35Z</time>
      </trkpt>
      <trkpt lat="43.66622" lon="3.61534">
        <ele>160</ele>
        <time>2021-04-03T11:28:36Z</time>
      </trkpt>
      <trkpt lat="43.66625" lon="3.61532">
        <ele>160</ele>
        <time>2021-04-03T11:28:38Z</time>
      </trkpt>
      <trkpt lat="43.66628" lon="3.61531">
        <ele>160</ele>
        <time>2021-04-03T11:28:40Z</time>
      </trkpt>
      <trkpt lat="43.66632" lon="3.6153">
        <ele>160</ele>
        <time>2021-04-03T11:28:42Z</time>
      </trkpt>
      <trkpt lat="43.66635" lon="3.61528">
        <ele>164</ele>
        <time>2021-04-03T11:28:44Z</time>
      </trkpt>
      <trkpt lat="43.66637" lon="3.61527">
        <ele>164</ele>
        <time>2021-04-03T11:28:45Z</time>
      </trkpt>
      <trkpt lat="43.66639" lon="3.61527">
        <ele>164</ele>
        <time>2021-04-03T11:28:46Z</time>
      </trkpt>
      <trkpt lat="43.66641" lon="3.61526">
        <ele>164</ele>
        <time>2021-04-03T11:28:47Z</time>
      </trkpt>
      <trkpt lat="43.66643" lon="3.61525">
        <ele>164</ele>
        <time>2021-04-03T11:28:48Z</time>
      </trkpt>
      <trkpt lat="43.66646" lon="3.61524">
        <ele>164</ele>
        <time>2021-04-03T11:28:50Z</time>
      </trkpt>
      <trkpt lat="43.66649" lon="3.61523">
        <ele>164</ele>
        <time>2021-04-03T11:28:52Z</time>
      </trkpt>
      <trkpt lat="43.66652" lon="3.61522">
        <ele>164</ele>
        <time>2021-04-03T11:28:54Z</time>
      </trkpt>
      <trkpt lat="43.66654" lon="3.61521">
        <ele>164</ele>
        <time>2021-04-03T11:28:56Z</time>
      </trkpt>
      <trkpt lat="43.66657" lon="3.6152">
        <ele>164</ele>
        <time>2021-04-03T11:28:58Z</time>
      </trkpt>
      <trkpt lat="43.6666" lon="3.61519">
        <ele>164</ele>
        <time>2021-04-03T11:29:00Z</time>
      </trkpt>
      <trkpt lat="43.66663" lon="3.61518">
        <ele>164</ele>
        <time>2021-04-03T11:29:02Z</time>
      </trkpt>
      <trkpt lat="43.66666" lon="3.61516">
        <ele>167</ele>
        <time>2021-04-03T11:29:04Z</time>
      </trkpt>
      <trkpt lat="43.66669" lon="3.61516">
        <ele>167</ele>
        <time>2021-04-03T11:29:06Z</time>
      </trkpt>
      <trkpt lat="43.66672" lon="3.61515">
        <ele>167</ele>
        <time>2021-04-03T11:29:08Z</time>
      </trkpt>
      <trkpt lat="43.66675" lon="3.61514">
        <ele>167</ele>
        <time>2021-04-03T11:29:10Z</time>
      </trkpt>
      <trkpt lat="43.66679" lon="3.61513">
        <ele>167</ele>
        <time>2021-04-03T11:29:12Z</time>
      </trkpt>
      <trkpt lat="43.66682" lon="3.61512">
        <ele>167</ele>
        <time>2021-04-03T11:29:14Z</time>
      </trkpt>
      <trkpt lat="43.66685" lon="3.61512">
        <ele>167</ele>
        <time>2021-04-03T11:29:16Z</time>
      </trkpt>
      <trkpt lat="43.66689" lon="3.61512">
        <ele>167</ele>
        <time>2021-04-03T11:29:18Z</time>
      </trkpt>
      <trkpt lat="43.66692" lon="3.61512">
        <ele>167</ele>
        <time>2021-04-03T11:29:20Z</time>
      </trkpt>
      <trkpt lat="43.66695" lon="3.61511">
        <ele>167</ele>
        <time>2021-04-03T11:29:22Z</time>
      </trkpt>
      <trkpt lat="43.66699" lon="3.61512">
        <ele>171</ele>
        <time>2021-04-03T11:29:24Z</time>
      </trkpt>
      <trkpt lat="43.66702" lon="3.61512">
        <ele>171</ele>
        <time>2021-04-03T11:29:26Z</time>
      </trkpt>
      <trkpt lat="43.66706" lon="3.61512">
        <ele>171</ele>
        <time>2021-04-03T11:29:28Z</time>
      </trkpt>
      <trkpt lat="43.66708" lon="3.61512">
        <ele>171</ele>
        <time>2021-04-03T11:29:29Z</time>
      </trkpt>
      <trkpt lat="43.6671" lon="3.61512">
        <ele>171</ele>
        <time>2021-04-03T11:29:30Z</time>
      </trkpt>
      <trkpt lat="43.66712" lon="3.61512">
        <ele>171</ele>
        <time>2021-04-03T11:29:31Z</time>
      </trkpt>
      <trkpt lat="43.66713" lon="3.61513">
        <ele>171</ele>
        <time>2021-04-03T11:29:32Z</time>
      </trkpt>
      <trkpt lat="43.66716" lon="3.61515">
        <ele>171</ele>
        <time>2021-04-03T11:29:34Z</time>
      </trkpt>
      <trkpt lat="43.6672" lon="3.61517">
        <ele>171</ele>
        <time>2021-04-03T11:29:36Z</time>
      </trkpt>
      <trkpt lat="43.66722" lon="3.61519">
        <ele>171</ele>
        <time>2021-04-03T11:29:38Z</time>
      </trkpt>
      <trkpt lat="43.66725" lon="3.61522">
        <ele>171</ele>
        <time>2021-04-03T11:29:40Z</time>
      </trkpt>
      <trkpt lat="43.66728" lon="3.61524">
        <ele>171</ele>
        <time>2021-04-03T11:29:42Z</time>
      </trkpt>
      <trkpt lat="43.6673" lon="3.61528">
        <ele>173</ele>
        <time>2021-04-03T11:29:44Z</time>
      </trkpt>
      <trkpt lat="43.66733" lon="3.6153">
        <ele>173</ele>
        <time>2021-04-03T11:29:46Z</time>
      </trkpt>
      <trkpt lat="43.66735" lon="3.61534">
        <ele>173</ele>
        <time>2021-04-03T11:29:48Z</time>
      </trkpt>
      <trkpt lat="43.66737" lon="3.61536">
        <ele>173</ele>
        <time>2021-04-03T11:29:50Z</time>
      </trkpt>
      <trkpt lat="43.66739" lon="3.6154">
        <ele>173</ele>
        <time>2021-04-03T11:29:51Z</time>
      </trkpt>
      <trkpt lat="43.6674" lon="3.61541">
        <ele>173</ele>
        <time>2021-04-03T11:29:52Z</time>
      </trkpt>
      <trkpt lat="43.66741" lon="3.61544">
        <ele>173</ele>
        <time>2021-04-03T11:29:53Z</time>
      </trkpt>
      <trkpt lat="43.66743" lon="3.61548">
        <ele>174</ele>
        <time>2021-04-03T11:29:55Z</time>
      </trkpt>
      <trkpt lat="43.66745" lon="3.61552">
        <ele>174</ele>
        <time>2021-04-03T11:29:57Z</time>
      </trkpt>
      <trkpt lat="43.66745" lon="3.61557">
        <ele>174</ele>
        <time>2021-04-03T11:29:59Z</time>
      </trkpt>
      <trkpt lat="43.66746" lon="3.61562">
        <ele>174</ele>
        <time>2021-04-03T11:30:01Z</time>
      </trkpt>
      <trkpt lat="43.66746" lon="3.61566">
        <ele>174</ele>
        <time>2021-04-03T11:30:03Z</time>
      </trkpt>
      <trkpt lat="43.66747" lon="3.6157">
        <ele>176</ele>
        <time>2021-04-03T11:30:05Z</time>
      </trkpt>
      <trkpt lat="43.66748" lon="3.61574">
        <ele>176</ele>
        <time>2021-04-03T11:30:07Z</time>
      </trkpt>
      <trkpt lat="43.66748" lon="3.61579">
        <ele>176</ele>
        <time>2021-04-03T11:30:09Z</time>
      </trkpt>
      <trkpt lat="43.66749" lon="3.61584">
        <ele>176</ele>
        <time>2021-04-03T11:30:11Z</time>
      </trkpt>
      <trkpt lat="43.66749" lon="3.61588">
        <ele>176</ele>
        <time>2021-04-03T11:30:13Z</time>
      </trkpt>
      <trkpt lat="43.66749" lon="3.61592">
        <ele>177</ele>
        <time>2021-04-03T11:30:15Z</time>
      </trkpt>
      <trkpt lat="43.66749" lon="3.61596">
        <ele>177</ele>
        <time>2021-04-03T11:30:17Z</time>
      </trkpt>
      <trkpt lat="43.66749" lon="3.616">
        <ele>177</ele>
        <time>2021-04-03T11:30:19Z</time>
      </trkpt>
      <trkpt lat="43.66749" lon="3.61603">
        <ele>177</ele>
        <time>2021-04-03T11:30:21Z</time>
      </trkpt>
      <trkpt lat="43.66749" lon="3.61607">
        <ele>177</ele>
        <time>2021-04-03T11:30:23Z</time>
      </trkpt>
      <trkpt lat="43.6675" lon="3.61611">
        <ele>177</ele>
        <time>2021-04-03T11:30:25Z</time>
      </trkpt>
      <trkpt lat="43.6675" lon="3.61615">
        <ele>177</ele>
        <time>2021-04-03T11:30:27Z</time>
      </trkpt>
      <trkpt lat="43.6675" lon="3.61618">
        <ele>177</ele>
        <time>2021-04-03T11:30:29Z</time>
      </trkpt>
      <trkpt lat="43.6675" lon="3.61622">
        <ele>177</ele>
        <time>2021-04-03T11:30:31Z</time>
      </trkpt>
      <trkpt lat="43.66751" lon="3.61626">
        <ele>177</ele>
        <time>2021-04-03T11:30:33Z</time>
      </trkpt>
      <trkpt lat="43.66751" lon="3.6163">
        <ele>181</ele>
        <time>2021-04-03T11:30:35Z</time>
      </trkpt>
      <trkpt lat="43.66752" lon="3.61633">
        <ele>181</ele>
        <time>2021-04-03T11:30:37Z</time>
      </trkpt>
      <trkpt lat="43.66753" lon="3.61637">
        <ele>181</ele>
        <time>2021-04-03T11:30:39Z</time>
      </trkpt>
      <trkpt lat="43.66753" lon="3.61641">
        <ele>181</ele>
        <time>2021-04-03T11:30:41Z</time>
      </trkpt>
      <trkpt lat="43.66753" lon="3.61644">
        <ele>181</ele>
        <time>2021-04-03T11:30:43Z</time>
      </trkpt>
      <trkpt lat="43.66753" lon="3.61648">
        <ele>181</ele>
        <time>2021-04-03T11:30:45Z</time>
      </trkpt>
      <trkpt lat="43.66754" lon="3.61651">
        <ele>181</ele>
        <time>2021-04-03T11:30:47Z</time>
      </trkpt>
      <trkpt lat="43.66755" lon="3.61655">
        <ele>181</ele>
        <time>2021-04-03T11:30:49Z</time>
      </trkpt>
      <trkpt lat="43.66756" lon="3.61658">
        <ele>181</ele>
        <time>2021-04-03T11:30:51Z</time>
      </trkpt>
      <trkpt lat="43.66756" lon="3.61662">
        <ele>181</ele>
        <time>2021-04-03T11:30:53Z</time>
      </trkpt>
      <trkpt lat="43.66757" lon="3.61665">
        <ele>183</ele>
        <time>2021-04-03T11:30:55Z</time>
      </trkpt>
      <trkpt lat="43.66757" lon="3.61669">
        <ele>183</ele>
        <time>2021-04-03T11:30:57Z</time>
      </trkpt>
      <trkpt lat="43.66757" lon="3.61673">
        <ele>183</ele>
        <time>2021-04-03T11:30:59Z</time>
      </trkpt>
      <trkpt lat="43.66758" lon="3.61677">
        <ele>183</ele>
        <time>2021-04-03T11:31:01Z</time>
      </trkpt>
      <trkpt lat="43.66758" lon="3.6168">
        <ele>183</ele>
        <time>2021-04-03T11:31:03Z</time>
      </trkpt>
      <trkpt lat="43.6676" lon="3.61684">
        <ele>185</ele>
        <time>2021-04-03T11:31:05Z</time>
      </trkpt>
      <trkpt lat="43.6676" lon="3.61688">
        <ele>185</ele>
        <time>2021-04-03T11:31:07Z</time>
      </trkpt>
      <trkpt lat="43.66761" lon="3.61692">
        <ele>185</ele>
        <time>2021-04-03T11:31:09Z</time>
      </trkpt>
      <trkpt lat="43.66761" lon="3.61696">
        <ele>185</ele>
        <time>2021-04-03T11:31:11Z</time>
      </trkpt>
      <trkpt lat="43.66762" lon="3.61699">
        <ele>185</ele>
        <time>2021-04-03T11:31:13Z</time>
      </trkpt>
      <trkpt lat="43.66763" lon="3.61703">
        <ele>185</ele>
        <time>2021-04-03T11:31:15Z</time>
      </trkpt>
      <trkpt lat="43.66764" lon="3.61706">
        <ele>185</ele>
        <time>2021-04-03T11:31:17Z</time>
      </trkpt>
      <trkpt lat="43.66765" lon="3.6171">
        <ele>185</ele>
        <time>2021-04-03T11:31:19Z</time>
      </trkpt>
      <trkpt lat="43.66766" lon="3.61714">
        <ele>185</ele>
        <time>2021-04-03T11:31:21Z</time>
      </trkpt>
      <trkpt lat="43.66767" lon="3.61717">
        <ele>185</ele>
        <time>2021-04-03T11:31:23Z</time>
      </trkpt>
      <trkpt lat="43.66769" lon="3.61722">
        <ele>185</ele>
        <time>2021-04-03T11:31:25Z</time>
      </trkpt>
      <trkpt lat="43.6677" lon="3.61726">
        <ele>185</ele>
        <time>2021-04-03T11:31:27Z</time>
      </trkpt>
      <trkpt lat="43.66771" lon="3.6173">
        <ele>185</ele>
        <time>2021-04-03T11:31:29Z</time>
      </trkpt>
      <trkpt lat="43.66772" lon="3.61734">
        <ele>185</ele>
        <time>2021-04-03T11:31:31Z</time>
      </trkpt>
      <trkpt lat="43.66773" lon="3.61738">
        <ele>185</ele>
        <time>2021-04-03T11:31:33Z</time>
      </trkpt>
      <trkpt lat="43.66773" lon="3.61742">
        <ele>185</ele>
        <time>2021-04-03T11:31:35Z</time>
      </trkpt>
      <trkpt lat="43.66774" lon="3.61747">
        <ele>185</ele>
        <time>2021-04-03T11:31:37Z</time>
      </trkpt>
      <trkpt lat="43.66774" lon="3.61751">
        <ele>185</ele>
        <time>2021-04-03T11:31:39Z</time>
      </trkpt>
      <trkpt lat="43.66775" lon="3.61755">
        <ele>185</ele>
        <time>2021-04-03T11:31:41Z</time>
      </trkpt>
      <trkpt lat="43.66776" lon="3.61758">
        <ele>185</ele>
        <time>2021-04-03T11:31:43Z</time>
      </trkpt>
      <trkpt lat="43.66777" lon="3.61762">
        <ele>185</ele>
        <time>2021-04-03T11:31:45Z</time>
      </trkpt>
      <trkpt lat="43.66778" lon="3.61767">
        <ele>185</ele>
        <time>2021-04-03T11:31:47Z</time>
      </trkpt>
      <trkpt lat="43.66778" lon="3.61772">
        <ele>185</ele>
        <time>2021-04-03T11:31:49Z</time>
      </trkpt>
      <trkpt lat="43.66777" lon="3.61775">
        <ele>185</ele>
        <time>2021-04-03T11:31:51Z</time>
      </trkpt>
      <trkpt lat="43.66777" lon="3.61779">
        <ele>185</ele>
        <time>2021-04-03T11:31:53Z</time>
      </trkpt>
      <trkpt lat="43.66777" lon="3.61783">
        <ele>185</ele>
        <time>2021-04-03T11:31:55Z</time>
      </trkpt>
      <trkpt lat="43.66777" lon="3.61787">
        <ele>185</ele>
        <time>2021-04-03T11:31:57Z</time>
      </trkpt>
      <trkpt lat="43.66777" lon="3.61791">
        <ele>185</ele>
        <time>2021-04-03T11:31:59Z</time>
      </trkpt>
      <trkpt lat="43.66778" lon="3.61795">
        <ele>185</ele>
        <time>2021-04-03T11:32:01Z</time>
      </trkpt>
      <trkpt lat="43.66778" lon="3.61799">
        <ele>185</ele>
        <time>2021-04-03T11:32:03Z</time>
      </trkpt>
      <trkpt lat="43.66778" lon="3.61802">
        <ele>185</ele>
        <time>2021-04-03T11:32:05Z</time>
      </trkpt>
      <trkpt lat="43.66778" lon="3.61806">
        <ele>185</ele>
        <time>2021-04-03T11:32:07Z</time>
      </trkpt>
      <trkpt lat="43.66779" lon="3.6181">
        <ele>185</ele>
        <time>2021-04-03T11:32:09Z</time>
      </trkpt>
      <trkpt lat="43.66779" lon="3.61814">
        <ele>185</ele>
        <time>2021-04-03T11:32:11Z</time>
      </trkpt>
      <trkpt lat="43.66779" lon="3.61817">
        <ele>185</ele>
        <time>2021-04-03T11:32:13Z</time>
      </trkpt>
      <trkpt lat="43.6678" lon="3.61821">
        <ele>185</ele>
        <time>2021-04-03T11:32:15Z</time>
      </trkpt>
      <trkpt lat="43.6678" lon="3.61825">
        <ele>185</ele>
        <time>2021-04-03T11:32:17Z</time>
      </trkpt>
      <trkpt lat="43.66781" lon="3.6183">
        <ele>185</ele>
        <time>2021-04-03T11:32:19Z</time>
      </trkpt>
      <trkpt lat="43.66781" lon="3.61834">
        <ele>185</ele>
        <time>2021-04-03T11:32:21Z</time>
      </trkpt>
      <trkpt lat="43.66782" lon="3.61839">
        <ele>185</ele>
        <time>2021-04-03T11:32:23Z</time>
      </trkpt>
      <trkpt lat="43.66782" lon="3.61843">
        <ele>199</ele>
        <time>2021-04-03T11:32:25Z</time>
      </trkpt>
      <trkpt lat="43.66782" lon="3.61848">
        <ele>199</ele>
        <time>2021-04-03T11:32:27Z</time>
      </trkpt>
      <trkpt lat="43.66783" lon="3.61853">
        <ele>199</ele>
        <time>2021-04-03T11:32:29Z</time>
      </trkpt>
      <trkpt lat="43.66783" lon="3.61857">
        <ele>199</ele>
        <time>2021-04-03T11:32:31Z</time>
      </trkpt>
      <trkpt lat="43.66783" lon="3.61862">
        <ele>199</ele>
        <time>2021-04-03T11:32:33Z</time>
      </trkpt>
      <trkpt lat="43.66783" lon="3.61866">
        <ele>199</ele>
        <time>2021-04-03T11:32:35Z</time>
      </trkpt>
      <trkpt lat="43.66782" lon="3.61871">
        <ele>199</ele>
        <time>2021-04-03T11:32:37Z</time>
      </trkpt>
      <trkpt lat="43.66782" lon="3.61876">
        <ele>199</ele>
        <time>2021-04-03T11:32:39Z</time>
      </trkpt>
      <trkpt lat="43.66782" lon="3.6188">
        <ele>199</ele>
        <time>2021-04-03T11:32:41Z</time>
      </trkpt>
      <trkpt lat="43.66781" lon="3.61885">
        <ele>199</ele>
        <time>2021-04-03T11:32:43Z</time>
      </trkpt>
      <trkpt lat="43.66781" lon="3.6189">
        <ele>202</ele>
        <time>2021-04-03T11:32:45Z</time>
      </trkpt>
      <trkpt lat="43.66781" lon="3.61894">
        <ele>202</ele>
        <time>2021-04-03T11:32:47Z</time>
      </trkpt>
      <trkpt lat="43.6678" lon="3.61899">
        <ele>202</ele>
        <time>2021-04-03T11:32:49Z</time>
      </trkpt>
      <trkpt lat="43.6678" lon="3.61903">
        <ele>202</ele>
        <time>2021-04-03T11:32:51Z</time>
      </trkpt>
      <trkpt lat="43.66779" lon="3.61906">
        <ele>202</ele>
        <time>2021-04-03T11:32:53Z</time>
      </trkpt>
      <trkpt lat="43.6678" lon="3.6191">
        <ele>202</ele>
        <time>2021-04-03T11:32:55Z</time>
      </trkpt>
      <trkpt lat="43.66779" lon="3.61913">
        <ele>202</ele>
        <time>2021-04-03T11:32:57Z</time>
      </trkpt>
      <trkpt lat="43.66779" lon="3.61917">
        <ele>202</ele>
        <time>2021-04-03T11:32:59Z</time>
      </trkpt>
      <trkpt lat="43.66778" lon="3.61921">
        <ele>202</ele>
        <time>2021-04-03T11:33:01Z</time>
      </trkpt>
      <trkpt lat="43.66778" lon="3.61924">
        <ele>202</ele>
        <time>2021-04-03T11:33:03Z</time>
      </trkpt>
      <trkpt lat="43.66778" lon="3.61928">
        <ele>202</ele>
        <time>2021-04-03T11:33:05Z</time>
      </trkpt>
      <trkpt lat="43.66778" lon="3.61932">
        <ele>202</ele>
        <time>2021-04-03T11:33:07Z</time>
      </trkpt>
      <trkpt lat="43.66778" lon="3.61936">
        <ele>202</ele>
        <time>2021-04-03T11:33:09Z</time>
      </trkpt>
      <trkpt lat="43.66778" lon="3.6194">
        <ele>202</ele>
        <time>2021-04-03T11:33:11Z</time>
      </trkpt>
      <trkpt lat="43.66778" lon="3.61944">
        <ele>202</ele>
        <time>2021-04-03T11:33:13Z</time>
      </trkpt>
      <trkpt lat="43.66778" lon="3.61948">
        <ele>202</ele>
        <time>2021-04-03T11:33:15Z</time>
      </trkpt>
      <trkpt lat="43.66778" lon="3.61951">
        <ele>202</ele>
        <time>2021-04-03T11:33:17Z</time>
      </trkpt>
      <trkpt lat="43.66778" lon="3.61955">
        <ele>202</ele>
        <time>2021-04-03T11:33:19Z</time>
      </trkpt>
      <trkpt lat="43.66777" lon="3.61959">
        <ele>202</ele>
        <time>2021-04-03T11:33:21Z</time>
      </trkpt>
      <trkpt lat="43.66777" lon="3.61963">
        <ele>202</ele>
        <time>2021-04-03T11:33:23Z</time>
      </trkpt>
      <trkpt lat="43.66777" lon="3.61967">
        <ele>202</ele>
        <time>2021-04-03T11:33:25Z</time>
      </trkpt>
      <trkpt lat="43.66777" lon="3.61971">
        <ele>202</ele>
        <time>2021-04-03T11:33:27Z</time>
      </trkpt>
      <trkpt lat="43.66776" lon="3.61975">
        <ele>202</ele>
        <time>2021-04-03T11:33:29Z</time>
      </trkpt>
      <trkpt lat="43.66776" lon="3.61979">
        <ele>202</ele>
        <time>2021-04-03T11:33:31Z</time>
      </trkpt>
      <trkpt lat="43.66775" lon="3.61983">
        <ele>202</ele>
        <time>2021-04-03T11:33:33Z</time>
      </trkpt>
      <trkpt lat="43.66775" lon="3.61987">
        <ele>202</ele>
        <time>2021-04-03T11:33:35Z</time>
      </trkpt>
      <trkpt lat="43.66774" lon="3.61991">
        <ele>202</ele>
        <time>2021-04-03T11:33:37Z</time>
      </trkpt>
      <trkpt lat="43.66774" lon="3.61995">
        <ele>202</ele>
        <time>2021-04-03T11:33:39Z</time>
      </trkpt>
      <trkpt lat="43.66774" lon="3.61999">
        <ele>202</ele>
        <time>2021-04-03T11:33:41Z</time>
      </trkpt>
      <trkpt lat="43.66774" lon="3.62002">
        <ele>202</ele>
        <time>2021-04-03T11:33:43Z</time>
      </trkpt>
      <trkpt lat="43.66774" lon="3.62006">
        <ele>211</ele>
        <time>2021-04-03T11:33:45Z</time>
      </trkpt>
      <trkpt lat="43.66774" lon="3.62011">
        <ele>211</ele>
        <time>2021-04-03T11:33:47Z</time>
      </trkpt>
      <trkpt lat="43.66773" lon="3.62016">
        <ele>211</ele>
        <time>2021-04-03T11:33:49Z</time>
      </trkpt>
      <trkpt lat="43.66773" lon="3.6202">
        <ele>211</ele>
        <time>2021-04-03T11:33:51Z</time>
      </trkpt>
      <trkpt lat="43.66772" lon="3.62023">
        <ele>211</ele>
        <time>2021-04-03T11:33:53Z</time>
      </trkpt>
      <trkpt lat="43.66772" lon="3.62027">
        <ele>211</ele>
        <time>2021-04-03T11:33:55Z</time>
      </trkpt>
      <trkpt lat="43.66771" lon="3.62031">
        <ele>211</ele>
        <time>2021-04-03T11:33:57Z</time>
      </trkpt>
      <trkpt lat="43.66771" lon="3.62035">
        <ele>211</ele>
        <time>2021-04-03T11:33:59Z</time>
      </trkpt>
      <trkpt lat="43.6677" lon="3.62039">
        <ele>211</ele>
        <time>2021-04-03T11:34:01Z</time>
      </trkpt>
      <trkpt lat="43.6677" lon="3.62043">
        <ele>211</ele>
        <time>2021-04-03T11:34:03Z</time>
      </trkpt>
      <trkpt lat="43.66769" lon="3.62047">
        <ele>211</ele>
        <time>2021-04-03T11:34:05Z</time>
      </trkpt>
      <trkpt lat="43.66769" lon="3.62051">
        <ele>211</ele>
        <time>2021-04-03T11:34:07Z</time>
      </trkpt>
      <trkpt lat="43.66769" lon="3.62055">
        <ele>211</ele>
        <time>2021-04-03T11:34:09Z</time>
      </trkpt>
      <trkpt lat="43.66768" lon="3.62059">
        <ele>211</ele>
        <time>2021-04-03T11:34:11Z</time>
      </trkpt>
      <trkpt lat="43.66768" lon="3.62063">
        <ele>211</ele>
        <time>2021-04-03T11:34:13Z</time>
      </trkpt>
      <trkpt lat="43.66767" lon="3.62067">
        <ele>216</ele>
        <time>2021-04-03T11:34:15Z</time>
      </trkpt>
      <trkpt lat="43.66766" lon="3.62072">
        <ele>216</ele>
        <time>2021-04-03T11:34:17Z</time>
      </trkpt>
      <trkpt lat="43.66766" lon="3.62076">
        <ele>216</ele>
        <time>2021-04-03T11:34:19Z</time>
      </trkpt>
      <trkpt lat="43.66765" lon="3.6208">
        <ele>216</ele>
        <time>2021-04-03T11:34:21Z</time>
      </trkpt>
      <trkpt lat="43.66765" lon="3.62085">
        <ele>216</ele>
        <time>2021-04-03T11:34:23Z</time>
      </trkpt>
      <trkpt lat="43.66764" lon="3.62089">
        <ele>216</ele>
        <time>2021-04-03T11:34:25Z</time>
      </trkpt>
      <trkpt lat="43.66764" lon="3.62093">
        <ele>216</ele>
        <time>2021-04-03T11:34:27Z</time>
      </trkpt>
      <trkpt lat="43.66764" lon="3.62096">
        <ele>216</ele>
        <time>2021-04-03T11:34:28Z</time>
      </trkpt>
      <trkpt lat="43.66764" lon="3.62099">
        <ele>216</ele>
        <time>2021-04-03T11:34:29Z</time>
      </trkpt>
      <trkpt lat="43.66764" lon="3.62101">
        <ele>216</ele>
        <time>2021-04-03T11:34:30Z</time>
      </trkpt>
      <trkpt lat="43.66763" lon="3.62104">
        <ele>216</ele>
        <time>2021-04-03T11:34:31Z</time>
      </trkpt>
      <trkpt lat="43.66763" lon="3.62108">
        <ele>216</ele>
        <time>2021-04-03T11:34:33Z</time>
      </trkpt>
      <trkpt lat="43.66762" lon="3.62113">
        <ele>216</ele>
        <time>2021-04-03T11:34:35Z</time>
      </trkpt>
      <trkpt lat="43.66762" lon="3.62117">
        <ele>216</ele>
        <time>2021-04-03T11:34:37Z</time>
      </trkpt>
      <trkpt lat="43.66761" lon="3.62121">
        <ele>216</ele>
        <time>2021-04-03T11:34:39Z</time>
      </trkpt>
      <trkpt lat="43.6676" lon="3.62124">
        <ele>216</ele>
        <time>2021-04-03T11:34:41Z</time>
      </trkpt>
      <trkpt lat="43.66759" lon="3.62129">
        <ele>216</ele>
        <time>2021-04-03T11:34:43Z</time>
      </trkpt>
      <trkpt lat="43.66758" lon="3.62132">
        <ele>216</ele>
        <time>2021-04-03T11:34:45Z</time>
      </trkpt>
      <trkpt lat="43.66757" lon="3.62136">
        <ele>216</ele>
        <time>2021-04-03T11:34:47Z</time>
      </trkpt>
      <trkpt lat="43.66755" lon="3.6214">
        <ele>216</ele>
        <time>2021-04-03T11:34:49Z</time>
      </trkpt>
      <trkpt lat="43.66754" lon="3.62144">
        <ele>216</ele>
        <time>2021-04-03T11:34:51Z</time>
      </trkpt>
      <trkpt lat="43.66753" lon="3.62148">
        <ele>216</ele>
        <time>2021-04-03T11:34:53Z</time>
      </trkpt>
      <trkpt lat="43.66752" lon="3.62151">
        <ele>216</ele>
        <time>2021-04-03T11:34:55Z</time>
      </trkpt>
      <trkpt lat="43.66751" lon="3.62155">
        <ele>216</ele>
        <time>2021-04-03T11:34:57Z</time>
      </trkpt>
      <trkpt lat="43.6675" lon="3.62158">
        <ele>216</ele>
        <time>2021-04-03T11:34:59Z</time>
      </trkpt>
      <trkpt lat="43.66749" lon="3.62161">
        <ele>216</ele>
        <time>2021-04-03T11:35:01Z</time>
      </trkpt>
      <trkpt lat="43.66749" lon="3.62165">
        <ele>216</ele>
        <time>2021-04-03T11:35:03Z</time>
      </trkpt>
      <trkpt lat="43.66748" lon="3.62169">
        <ele>216</ele>
        <time>2021-04-03T11:35:05Z</time>
      </trkpt>
      <trkpt lat="43.66747" lon="3.62172">
        <ele>216</ele>
        <time>2021-04-03T11:35:07Z</time>
      </trkpt>
      <trkpt lat="43.66747" lon="3.62175">
        <ele>216</ele>
        <time>2021-04-03T11:35:09Z</time>
      </trkpt>
      <trkpt lat="43.66747" lon="3.62179">
        <ele>216</ele>
        <time>2021-04-03T11:35:11Z</time>
      </trkpt>
      <trkpt lat="43.66746" lon="3.62183">
        <ele>216</ele>
        <time>2021-04-03T11:35:13Z</time>
      </trkpt>
      <trkpt lat="43.66745" lon="3.62187">
        <ele>216</ele>
        <time>2021-04-03T11:35:15Z</time>
      </trkpt>
      <trkpt lat="43.66745" lon="3.62192">
        <ele>216</ele>
        <time>2021-04-03T11:35:17Z</time>
      </trkpt>
      <trkpt lat="43.66745" lon="3.62196">
        <ele>216</ele>
        <time>2021-04-03T11:35:19Z</time>
      </trkpt>
      <trkpt lat="43.66745" lon="3.62201">
        <ele>216</ele>
        <time>2021-04-03T11:35:21Z</time>
      </trkpt>
      <trkpt lat="43.66745" lon="3.62205">
        <ele>216</ele>
        <time>2021-04-03T11:35:23Z</time>
      </trkpt>
      <trkpt lat="43.66744" lon="3.6221">
        <ele>216</ele>
        <time>2021-04-03T11:35:25Z</time>
      </trkpt>
      <trkpt lat="43.66744" lon="3.62214">
        <ele>216</ele>
        <time>2021-04-03T11:35:27Z</time>
      </trkpt>
      <trkpt lat="43.66744" lon="3.62219">
        <ele>216</ele>
        <time>2021-04-03T11:35:29Z</time>
      </trkpt>
      <trkpt lat="43.66743" lon="3.62224">
        <ele>216</ele>
        <time>2021-04-03T11:35:31Z</time>
      </trkpt>
      <trkpt lat="43.66743" lon="3.62226">
        <ele>216</ele>
        <time>2021-04-03T11:35:32Z</time>
      </trkpt>
      <trkpt lat="43.66742" lon="3.62229">
        <ele>216</ele>
        <time>2021-04-03T11:35:33Z</time>
      </trkpt>
      <trkpt lat="43.66741" lon="3.62233">
        <ele>216</ele>
        <time>2021-04-03T11:35:35Z</time>
      </trkpt>
      <trkpt lat="43.66741" lon="3.62238">
        <ele>216</ele>
        <time>2021-04-03T11:35:37Z</time>
      </trkpt>
      <trkpt lat="43.66741" lon="3.62243">
        <ele>216</ele>
        <time>2021-04-03T11:35:39Z</time>
      </trkpt>
      <trkpt lat="43.6674" lon="3.62245">
        <ele>216</ele>
        <time>2021-04-03T11:35:40Z</time>
      </trkpt>
      <trkpt lat="43.6674" lon="3.6225">
        <ele>216</ele>
        <time>2021-04-03T11:35:42Z</time>
      </trkpt>
      <trkpt lat="43.6674" lon="3.62255">
        <ele>216</ele>
        <time>2021-04-03T11:35:44Z</time>
      </trkpt>
      <trkpt lat="43.6674" lon="3.62259">
        <ele>216</ele>
        <time>2021-04-03T11:35:46Z</time>
      </trkpt>
      <trkpt lat="43.6674" lon="3.62264">
        <ele>216</ele>
        <time>2021-04-03T11:35:48Z</time>
      </trkpt>
      <trkpt lat="43.6674" lon="3.62268">
        <ele>216</ele>
        <time>2021-04-03T11:35:50Z</time>
      </trkpt>
      <trkpt lat="43.66741" lon="3.62272">
        <ele>216</ele>
        <time>2021-04-03T11:35:52Z</time>
      </trkpt>
      <trkpt lat="43.66741" lon="3.62276">
        <ele>230</ele>
        <time>2021-04-03T11:35:54Z</time>
      </trkpt>
      <trkpt lat="43.66742" lon="3.6228">
        <ele>230</ele>
        <time>2021-04-03T11:35:56Z</time>
      </trkpt>
      <trkpt lat="43.66743" lon="3.62284">
        <ele>230</ele>
        <time>2021-04-03T11:35:58Z</time>
      </trkpt>
      <trkpt lat="43.66743" lon="3.62287">
        <ele>230</ele>
        <time>2021-04-03T11:35:59Z</time>
      </trkpt>
      <trkpt lat="43.66742" lon="3.62291">
        <ele>230</ele>
        <time>2021-04-03T11:36:01Z</time>
      </trkpt>
      <trkpt lat="43.66742" lon="3.62295">
        <ele>230</ele>
        <time>2021-04-03T11:36:03Z</time>
      </trkpt>
      <trkpt lat="43.66743" lon="3.623">
        <ele>230</ele>
        <time>2021-04-03T11:36:05Z</time>
      </trkpt>
      <trkpt lat="43.66743" lon="3.62304">
        <ele>230</ele>
        <time>2021-04-03T11:36:07Z</time>
      </trkpt>
      <trkpt lat="43.66743" lon="3.62308">
        <ele>230</ele>
        <time>2021-04-03T11:36:09Z</time>
      </trkpt>
      <trkpt lat="43.66744" lon="3.62312">
        <ele>230</ele>
        <time>2021-04-03T11:36:11Z</time>
      </trkpt>
      <trkpt lat="43.66745" lon="3.62316">
        <ele>230</ele>
        <time>2021-04-03T11:36:13Z</time>
      </trkpt>
      <trkpt lat="43.66744" lon="3.62319">
        <ele>230</ele>
        <time>2021-04-03T11:36:15Z</time>
      </trkpt>
      <trkpt lat="43.66744" lon="3.62323">
        <ele>230</ele>
        <time>2021-04-03T11:36:17Z</time>
      </trkpt>
      <trkpt lat="43.66744" lon="3.62327">
        <ele>230</ele>
        <time>2021-04-03T11:36:19Z</time>
      </trkpt>
      <trkpt lat="43.66745" lon="3.62331">
        <ele>230</ele>
        <time>2021-04-03T11:36:21Z</time>
      </trkpt>
      <trkpt lat="43.66745" lon="3.62335">
        <ele>230</ele>
        <time>2021-04-03T11:36:23Z</time>
      </trkpt>
      <trkpt lat="43.66745" lon="3.62339">
        <ele>230</ele>
        <time>2021-04-03T11:36:25Z</time>
      </trkpt>
      <trkpt lat="43.66744" lon="3.62343">
        <ele>230</ele>
        <time>2021-04-03T11:36:27Z</time>
      </trkpt>
      <trkpt lat="43.66744" lon="3.62347">
        <ele>230</ele>
        <time>2021-04-03T11:36:29Z</time>
      </trkpt>
      <trkpt lat="43.66744" lon="3.62351">
        <ele>230</ele>
        <time>2021-04-03T11:36:31Z</time>
      </trkpt>
      <trkpt lat="43.66743" lon="3.62355">
        <ele>230</ele>
        <time>2021-04-03T11:36:33Z</time>
      </trkpt>
      <trkpt lat="43.66743" lon="3.62358">
        <ele>235</ele>
        <time>2021-04-03T11:36:34Z</time>
      </trkpt>
      <trkpt lat="43.66743" lon="3.6236">
        <ele>235</ele>
        <time>2021-04-03T11:36:35Z</time>
      </trkpt>
      <trkpt lat="43.66742" lon="3.62363">
        <ele>235</ele>
        <time>2021-04-03T11:36:36Z</time>
      </trkpt>
      <trkpt lat="43.66742" lon="3.62366">
        <ele>235</ele>
        <time>2021-04-03T11:36:37Z</time>
      </trkpt>
      <trkpt lat="43.66742" lon="3.62368">
        <ele>235</ele>
        <time>2021-04-03T11:36:38Z</time>
      </trkpt>
      <trkpt lat="43.66741" lon="3.62372">
        <ele>235</ele>
        <time>2021-04-03T11:36:39Z</time>
      </trkpt>
      <trkpt lat="43.66741" lon="3.62375">
        <ele>235</ele>
        <time>2021-04-03T11:36:40Z</time>
      </trkpt>
      <trkpt lat="43.6674" lon="3.62378">
        <ele>235</ele>
        <time>2021-04-03T11:36:41Z</time>
      </trkpt>
      <trkpt lat="43.6674" lon="3.6238">
        <ele>235</ele>
        <time>2021-04-03T11:36:42Z</time>
      </trkpt>
      <trkpt lat="43.6674" lon="3.62383">
        <ele>235</ele>
        <time>2021-04-03T11:36:43Z</time>
      </trkpt>
      <trkpt lat="43.66739" lon="3.62385">
        <ele>237</ele>
        <time>2021-04-03T11:36:44Z</time>
      </trkpt>
      <trkpt lat="43.66739" lon="3.62388">
        <ele>237</ele>
        <time>2021-04-03T11:36:45Z</time>
      </trkpt>
      <trkpt lat="43.66739" lon="3.62391">
        <ele>237</ele>
        <time>2021-04-03T11:36:46Z</time>
      </trkpt>
      <trkpt lat="43.66738" lon="3.62393">
        <ele>237</ele>
        <time>2021-04-03T11:36:47Z</time>
      </trkpt>
      <trkpt lat="43.66738" lon="3.62398">
        <ele>237</ele>
        <time>2021-04-03T11:36:49Z</time>
      </trkpt>
      <trkpt lat="43.66737" lon="3.62403">
        <ele>237</ele>
        <time>2021-04-03T11:36:51Z</time>
      </trkpt>
      <trkpt lat="43.66737" lon="3.62407">
        <ele>237</ele>
        <time>2021-04-03T11:36:53Z</time>
      </trkpt>
      <trkpt lat="43.66736" lon="3.6241">
        <ele>237</ele>
        <time>2021-04-03T11:36:54Z</time>
      </trkpt>
      <trkpt lat="43.66736" lon="3.62413">
        <ele>239</ele>
        <time>2021-04-03T11:36:55Z</time>
      </trkpt>
      <trkpt lat="43.66735" lon="3.62417">
        <ele>239</ele>
        <time>2021-04-03T11:36:57Z</time>
      </trkpt>
      <trkpt lat="43.66735" lon="3.6242">
        <ele>239</ele>
        <time>2021-04-03T11:36:58Z</time>
      </trkpt>
      <trkpt lat="43.66735" lon="3.62422">
        <ele>239</ele>
        <time>2021-04-03T11:36:59Z</time>
      </trkpt>
      <trkpt lat="43.66735" lon="3.62425">
        <ele>239</ele>
        <time>2021-04-03T11:37:00Z</time>
      </trkpt>
      <trkpt lat="43.66734" lon="3.62427">
        <ele>239</ele>
        <time>2021-04-03T11:37:01Z</time>
      </trkpt>
      <trkpt lat="43.66734" lon="3.6243">
        <ele>239</ele>
        <time>2021-04-03T11:37:02Z</time>
      </trkpt>
      <trkpt lat="43.66734" lon="3.62435">
        <ele>241</ele>
        <time>2021-04-03T11:37:04Z</time>
      </trkpt>
      <trkpt lat="43.66733" lon="3.6244">
        <ele>241</ele>
        <time>2021-04-03T11:37:06Z</time>
      </trkpt>
      <trkpt lat="43.66733" lon="3.62445">
        <ele>241</ele>
        <time>2021-04-03T11:37:08Z</time>
      </trkpt>
      <trkpt lat="43.66733" lon="3.62449">
        <ele>241</ele>
        <time>2021-04-03T11:37:10Z</time>
      </trkpt>
      <trkpt lat="43.66732" lon="3.62454">
        <ele>241</ele>
        <time>2021-04-03T11:37:12Z</time>
      </trkpt>
      <trkpt lat="43.66732" lon="3.62457">
        <ele>241</ele>
        <time>2021-04-03T11:37:13Z</time>
      </trkpt>
      <trkpt lat="43.66731" lon="3.62459">
        <ele>241</ele>
        <time>2021-04-03T11:37:14Z</time>
      </trkpt>
      <trkpt lat="43.66731" lon="3.62464">
        <ele>241</ele>
        <time>2021-04-03T11:37:16Z</time>
      </trkpt>
      <trkpt lat="43.6673" lon="3.62471">
        <ele>241</ele>
        <time>2021-04-03T11:37:19Z</time>
      </trkpt>
      <trkpt lat="43.6673" lon="3.62474">
        <ele>241</ele>
        <time>2021-04-03T11:37:20Z</time>
      </trkpt>
      <trkpt lat="43.6673" lon="3.62476">
        <ele>241</ele>
        <time>2021-04-03T11:37:21Z</time>
      </trkpt>
      <trkpt lat="43.66729" lon="3.62479">
        <ele>241</ele>
        <time>2021-04-03T11:37:22Z</time>
      </trkpt>
      <trkpt lat="43.66729" lon="3.62482">
        <ele>241</ele>
        <time>2021-04-03T11:37:23Z</time>
      </trkpt>
      <trkpt lat="43.66728" lon="3.62485">
        <ele>241</ele>
        <time>2021-04-03T11:37:24Z</time>
      </trkpt>
      <trkpt lat="43.66728" lon="3.62487">
        <ele>243</ele>
        <time>2021-04-03T11:37:25Z</time>
      </trkpt>
      <trkpt lat="43.66727" lon="3.6249">
        <ele>243</ele>
        <time>2021-04-03T11:37:26Z</time>
      </trkpt>
      <trkpt lat="43.66727" lon="3.62492">
        <ele>243</ele>
        <time>2021-04-03T11:37:27Z</time>
      </trkpt>
      <trkpt lat="43.66726" lon="3.62495">
        <ele>243</ele>
        <time>2021-04-03T11:37:28Z</time>
      </trkpt>
      <trkpt lat="43.66726" lon="3.62497">
        <ele>243</ele>
        <time>2021-04-03T11:37:29Z</time>
      </trkpt>
      <trkpt lat="43.66725" lon="3.625">
        <ele>243</ele>
        <time>2021-04-03T11:37:30Z</time>
      </trkpt>
      <trkpt lat="43.66724" lon="3.62504">
        <ele>243</ele>
        <time>2021-04-03T11:37:32Z</time>
      </trkpt>
      <trkpt lat="43.66724" lon="3.62508">
        <ele>243</ele>
        <time>2021-04-03T11:37:34Z</time>
      </trkpt>
      <trkpt lat="43.66723" lon="3.62512">
        <ele>243</ele>
        <time>2021-04-03T11:37:36Z</time>
      </trkpt>
      <trkpt lat="43.66722" lon="3.62516">
        <ele>243</ele>
        <time>2021-04-03T11:37:38Z</time>
      </trkpt>
      <trkpt lat="43.66721" lon="3.62521">
        <ele>243</ele>
        <time>2021-04-03T11:37:40Z</time>
      </trkpt>
      <trkpt lat="43.6672" lon="3.62525">
        <ele>243</ele>
        <time>2021-04-03T11:37:42Z</time>
      </trkpt>
      <trkpt lat="43.6672" lon="3.62529">
        <ele>243</ele>
        <time>2021-04-03T11:37:44Z</time>
      </trkpt>
      <trkpt lat="43.66719" lon="3.62534">
        <ele>243</ele>
        <time>2021-04-03T11:37:46Z</time>
      </trkpt>
      <trkpt lat="43.66718" lon="3.62537">
        <ele>243</ele>
        <time>2021-04-03T11:37:47Z</time>
      </trkpt>
      <trkpt lat="43.66718" lon="3.6254">
        <ele>243</ele>
        <time>2021-04-03T11:37:48Z</time>
      </trkpt>
      <trkpt lat="43.66717" lon="3.62544">
        <ele>243</ele>
        <time>2021-04-03T11:37:50Z</time>
      </trkpt>
      <trkpt lat="43.66717" lon="3.62549">
        <ele>243</ele>
        <time>2021-04-03T11:37:52Z</time>
      </trkpt>
      <trkpt lat="43.66716" lon="3.62553">
        <ele>243</ele>
        <time>2021-04-03T11:37:54Z</time>
      </trkpt>
      <trkpt lat="43.66716" lon="3.62557">
        <ele>243</ele>
        <time>2021-04-03T11:37:56Z</time>
      </trkpt>
      <trkpt lat="43.66715" lon="3.62561">
        <ele>243</ele>
        <time>2021-04-03T11:37:58Z</time>
      </trkpt>
      <trkpt lat="43.66715" lon="3.62564">
        <ele>243</ele>
        <time>2021-04-03T11:38:00Z</time>
      </trkpt>
      <trkpt lat="43.66714" lon="3.62567">
        <ele>243</ele>
        <time>2021-04-03T11:38:02Z</time>
      </trkpt>
      <trkpt lat="43.66714" lon="3.62571">
        <ele>243</ele>
        <time>2021-04-03T11:38:04Z</time>
      </trkpt>
      <trkpt lat="43.66714" lon="3.62575">
        <ele>243</ele>
        <time>2021-04-03T11:38:06Z</time>
      </trkpt>
      <trkpt lat="43.66713" lon="3.62578">
        <ele>243</ele>
        <time>2021-04-03T11:38:08Z</time>
      </trkpt>
      <trkpt lat="43.66713" lon="3.6258">
        <ele>243</ele>
        <time>2021-04-03T11:38:10Z</time>
      </trkpt>
      <trkpt lat="43.66712" lon="3.62583">
        <ele>243</ele>
        <time>2021-04-03T11:38:12Z</time>
      </trkpt>
      <trkpt lat="43.66712" lon="3.62582">
        <ele>248</ele>
        <time>2021-04-03T11:38:19Z</time>
      </trkpt>
      <trkpt lat="43.66711" lon="3.62595">
        <ele>248</ele>
        <time>2021-04-03T11:39:46Z</time>
      </trkpt>
      <trkpt lat="43.66711" lon="3.62598">
        <ele>248</ele>
        <time>2021-04-03T11:39:47Z</time>
      </trkpt>
      <trkpt lat="43.6671" lon="3.62602">
        <ele>248</ele>
        <time>2021-04-03T11:39:48Z</time>
      </trkpt>
      <trkpt lat="43.6671" lon="3.62606">
        <ele>248</ele>
        <time>2021-04-03T11:39:49Z</time>
      </trkpt>
      <trkpt lat="43.66711" lon="3.6261">
        <ele>248</ele>
        <time>2021-04-03T11:39:50Z</time>
      </trkpt>
      <trkpt lat="43.66711" lon="3.62615">
        <ele>248</ele>
        <time>2021-04-03T11:39:51Z</time>
      </trkpt>
      <trkpt lat="43.66711" lon="3.62619">
        <ele>248</ele>
        <time>2021-04-03T11:39:52Z</time>
      </trkpt>
      <trkpt lat="43.66712" lon="3.62622">
        <ele>248</ele>
        <time>2021-04-03T11:39:53Z</time>
      </trkpt>
      <trkpt lat="43.66712" lon="3.62625">
        <ele>248</ele>
        <time>2021-04-03T11:39:54Z</time>
      </trkpt>
      <trkpt lat="43.66712" lon="3.62629">
        <ele>248</ele>
        <time>2021-04-03T11:39:55Z</time>
      </trkpt>
      <trkpt lat="43.66711" lon="3.62631">
        <ele>248</ele>
        <time>2021-04-03T11:39:56Z</time>
      </trkpt>
      <trkpt lat="43.66711" lon="3.62635">
        <ele>248</ele>
        <time>2021-04-03T11:39:57Z</time>
      </trkpt>
      <trkpt lat="43.66711" lon="3.62639">
        <ele>248</ele>
        <time>2021-04-03T11:39:58Z</time>
      </trkpt>
      <trkpt lat="43.66712" lon="3.62643">
        <ele>248</ele>
        <time>2021-04-03T11:39:59Z</time>
      </trkpt>
      <trkpt lat="43.66712" lon="3.62647">
        <ele>248</ele>
        <time>2021-04-03T11:40:00Z</time>
      </trkpt>
      <trkpt lat="43.66712" lon="3.62653">
        <ele>248</ele>
        <time>2021-04-03T11:40:01Z</time>
      </trkpt>
      <trkpt lat="43.66713" lon="3.62658">
        <ele>248</ele>
        <time>2021-04-03T11:40:02Z</time>
      </trkpt>
      <trkpt lat="43.66713" lon="3.62665">
        <ele>248</ele>
        <time>2021-04-03T11:40:03Z</time>
      </trkpt>
      <trkpt lat="43.66712" lon="3.62672">
        <ele>248</ele>
        <time>2021-04-03T11:40:04Z</time>
      </trkpt>
      <trkpt lat="43.6671" lon="3.6268">
        <ele>248</ele>
        <time>2021-04-03T11:40:05Z</time>
      </trkpt>
      <trkpt lat="43.66708" lon="3.62687">
        <ele>245</ele>
        <time>2021-04-03T11:40:06Z</time>
      </trkpt>
      <trkpt lat="43.66706" lon="3.62694">
        <ele>245</ele>
        <time>2021-04-03T11:40:07Z</time>
      </trkpt>
      <trkpt lat="43.66705" lon="3.62701">
        <ele>245</ele>
        <time>2021-04-03T11:40:08Z</time>
      </trkpt>
      <trkpt lat="43.66704" lon="3.62707">
        <ele>245</ele>
        <time>2021-04-03T11:40:09Z</time>
      </trkpt>
      <trkpt lat="43.66704" lon="3.62713">
        <ele>245</ele>
        <time>2021-04-03T11:40:10Z</time>
      </trkpt>
      <trkpt lat="43.66703" lon="3.62718">
        <ele>245</ele>
        <time>2021-04-03T11:40:11Z</time>
      </trkpt>
      <trkpt lat="43.66702" lon="3.62723">
        <ele>245</ele>
        <time>2021-04-03T11:40:12Z</time>
      </trkpt>
      <trkpt lat="43.66701" lon="3.62727">
        <ele>245</ele>
        <time>2021-04-03T11:40:13Z</time>
      </trkpt>
      <trkpt lat="43.667" lon="3.62731">
        <ele>245</ele>
        <time>2021-04-03T11:40:14Z</time>
      </trkpt>
      <trkpt lat="43.667" lon="3.62735">
        <ele>245</ele>
        <time>2021-04-03T11:40:15Z</time>
      </trkpt>
      <trkpt lat="43.667" lon="3.6274">
        <ele>246</ele>
        <time>2021-04-03T11:40:16Z</time>
      </trkpt>
      <trkpt lat="43.66698" lon="3.62756">
        <ele>246</ele>
        <time>2021-04-03T11:40:19Z</time>
      </trkpt>
      <trkpt lat="43.66697" lon="3.62761">
        <ele>246</ele>
        <time>2021-04-03T11:40:20Z</time>
      </trkpt>
      <trkpt lat="43.66696" lon="3.62766">
        <ele>246</ele>
        <time>2021-04-03T11:40:21Z</time>
      </trkpt>
      <trkpt lat="43.66694" lon="3.62771">
        <ele>246</ele>
        <time>2021-04-03T11:40:22Z</time>
      </trkpt>
      <trkpt lat="43.66693" lon="3.62776">
        <ele>246</ele>
        <time>2021-04-03T11:40:23Z</time>
      </trkpt>
      <trkpt lat="43.66692" lon="3.62781">
        <ele>246</ele>
        <time>2021-04-03T11:40:24Z</time>
      </trkpt>
      <trkpt lat="43.6669" lon="3.62786">
        <ele>245</ele>
        <time>2021-04-03T11:40:25Z</time>
      </trkpt>
      <trkpt lat="43.66689" lon="3.6279">
        <ele>245</ele>
        <time>2021-04-03T11:40:26Z</time>
      </trkpt>
      <trkpt lat="43.66687" lon="3.62793">
        <ele>245</ele>
        <time>2021-04-03T11:40:27Z</time>
      </trkpt>
      <trkpt lat="43.66686" lon="3.62798">
        <ele>245</ele>
        <time>2021-04-03T11:40:28Z</time>
      </trkpt>
      <trkpt lat="43.66685" lon="3.62802">
        <ele>245</ele>
        <time>2021-04-03T11:40:29Z</time>
      </trkpt>
      <trkpt lat="43.66684" lon="3.62805">
        <ele>245</ele>
        <time>2021-04-03T11:40:30Z</time>
      </trkpt>
      <trkpt lat="43.66682" lon="3.62808">
        <ele>245</ele>
        <time>2021-04-03T11:40:31Z</time>
      </trkpt>
      <trkpt lat="43.66678" lon="3.62807">
        <ele>245</ele>
        <time>2021-04-03T11:40:33Z</time>
      </trkpt>
      <trkpt lat="43.66676" lon="3.62805">
        <ele>245</ele>
        <time>2021-04-03T11:40:34Z</time>
      </trkpt>
      <trkpt lat="43.66675" lon="3.62802">
        <ele>245</ele>
        <time>2021-04-03T11:40:35Z</time>
      </trkpt>
      <trkpt lat="43.66674" lon="3.628">
        <ele>245</ele>
        <time>2021-04-03T11:40:36Z</time>
      </trkpt>
      <trkpt lat="43.66674" lon="3.62797">
        <ele>245</ele>
        <time>2021-04-03T11:40:37Z</time>
      </trkpt>
      <trkpt lat="43.66673" lon="3.62795">
        <ele>245</ele>
        <time>2021-04-03T11:40:38Z</time>
      </trkpt>
      <trkpt lat="43.66673" lon="3.62792">
        <ele>245</ele>
        <time>2021-04-03T11:40:39Z</time>
      </trkpt>
      <trkpt lat="43.66672" lon="3.62789">
        <ele>245</ele>
        <time>2021-04-03T11:40:40Z</time>
      </trkpt>
      <trkpt lat="43.6667" lon="3.62785">
        <ele>245</ele>
        <time>2021-04-03T11:40:42Z</time>
      </trkpt>
      <trkpt lat="43.66669" lon="3.62781">
        <ele>245</ele>
        <time>2021-04-03T11:40:44Z</time>
      </trkpt>
      <trkpt lat="43.66669" lon="3.62776">
        <ele>245</ele>
        <time>2021-04-03T11:40:46Z</time>
      </trkpt>
      <trkpt lat="43.66668" lon="3.62774">
        <ele>245</ele>
        <time>2021-04-03T11:40:47Z</time>
      </trkpt>
      <trkpt lat="43.66667" lon="3.6277">
        <ele>245</ele>
        <time>2021-04-03T11:40:49Z</time>
      </trkpt>
      <trkpt lat="43.66665" lon="3.62766">
        <ele>245</ele>
        <time>2021-04-03T11:40:51Z</time>
      </trkpt>
      <trkpt lat="43.66663" lon="3.62762">
        <ele>245</ele>
        <time>2021-04-03T11:40:53Z</time>
      </trkpt>
      <trkpt lat="43.66661" lon="3.62759">
        <ele>247</ele>
        <time>2021-04-03T11:40:55Z</time>
      </trkpt>
      <trkpt lat="43.6666" lon="3.62756">
        <ele>247</ele>
        <time>2021-04-03T11:40:57Z</time>
      </trkpt>
      <trkpt lat="43.66659" lon="3.62753">
        <ele>247</ele>
        <time>2021-04-03T11:40:59Z</time>
      </trkpt>
      <trkpt lat="43.66657" lon="3.6275">
        <ele>247</ele>
        <time>2021-04-03T11:41:01Z</time>
      </trkpt>
      <trkpt lat="43.66656" lon="3.62748">
        <ele>247</ele>
        <time>2021-04-03T11:41:03Z</time>
      </trkpt>
      <trkpt lat="43.66654" lon="3.62744">
        <ele>248</ele>
        <time>2021-04-03T11:41:05Z</time>
      </trkpt>
      <trkpt lat="43.66653" lon="3.62741">
        <ele>248</ele>
        <time>2021-04-03T11:41:07Z</time>
      </trkpt>
      <trkpt lat="43.66652" lon="3.62738">
        <ele>248</ele>
        <time>2021-04-03T11:41:09Z</time>
      </trkpt>
      <trkpt lat="43.66651" lon="3.62734">
        <ele>248</ele>
        <time>2021-04-03T11:41:11Z</time>
      </trkpt>
      <trkpt lat="43.66651" lon="3.62731">
        <ele>248</ele>
        <time>2021-04-03T11:41:13Z</time>
      </trkpt>
      <trkpt lat="43.6665" lon="3.62727">
        <ele>248</ele>
        <time>2021-04-03T11:41:15Z</time>
      </trkpt>
      <trkpt lat="43.66649" lon="3.62724">
        <ele>248</ele>
        <time>2021-04-03T11:41:17Z</time>
      </trkpt>
      <trkpt lat="43.66648" lon="3.6272">
        <ele>248</ele>
        <time>2021-04-03T11:41:19Z</time>
      </trkpt>
      <trkpt lat="43.66647" lon="3.62717">
        <ele>248</ele>
        <time>2021-04-03T11:41:21Z</time>
      </trkpt>
      <trkpt lat="43.66647" lon="3.62714">
        <ele>248</ele>
        <time>2021-04-03T11:41:23Z</time>
      </trkpt>
      <trkpt lat="43.66646" lon="3.6271">
        <ele>252</ele>
        <time>2021-04-03T11:41:25Z</time>
      </trkpt>
      <trkpt lat="43.66645" lon="3.62707">
        <ele>252</ele>
        <time>2021-04-03T11:41:27Z</time>
      </trkpt>
      <trkpt lat="43.66645" lon="3.62703">
        <ele>252</ele>
        <time>2021-04-03T11:41:29Z</time>
      </trkpt>
      <trkpt lat="43.66646" lon="3.627">
        <ele>252</ele>
        <time>2021-04-03T11:41:31Z</time>
      </trkpt>
      <trkpt lat="43.66646" lon="3.62696">
        <ele>252</ele>
        <time>2021-04-03T11:41:33Z</time>
      </trkpt>
      <trkpt lat="43.66646" lon="3.62692">
        <ele>254</ele>
        <time>2021-04-03T11:41:35Z</time>
      </trkpt>
      <trkpt lat="43.66646" lon="3.62689">
        <ele>254</ele>
        <time>2021-04-03T11:41:37Z</time>
      </trkpt>
      <trkpt lat="43.66647" lon="3.62686">
        <ele>254</ele>
        <time>2021-04-03T11:41:39Z</time>
      </trkpt>
      <trkpt lat="43.66647" lon="3.62682">
        <ele>254</ele>
        <time>2021-04-03T11:41:41Z</time>
      </trkpt>
      <trkpt lat="43.66648" lon="3.62679">
        <ele>254</ele>
        <time>2021-04-03T11:41:43Z</time>
      </trkpt>
      <trkpt lat="43.66649" lon="3.62675">
        <ele>256</ele>
        <time>2021-04-03T11:41:45Z</time>
      </trkpt>
      <trkpt lat="43.6665" lon="3.62671">
        <ele>256</ele>
        <time>2021-04-03T11:41:47Z</time>
      </trkpt>
      <trkpt lat="43.66652" lon="3.62668">
        <ele>256</ele>
        <time>2021-04-03T11:41:49Z</time>
      </trkpt>
      <trkpt lat="43.66654" lon="3.62666">
        <ele>256</ele>
        <time>2021-04-03T11:41:51Z</time>
      </trkpt>
      <trkpt lat="43.66656" lon="3.62663">
        <ele>256</ele>
        <time>2021-04-03T11:41:53Z</time>
      </trkpt>
      <trkpt lat="43.66659" lon="3.62661">
        <ele>256</ele>
        <time>2021-04-03T11:41:55Z</time>
      </trkpt>
      <trkpt lat="43.66661" lon="3.62658">
        <ele>256</ele>
        <time>2021-04-03T11:41:57Z</time>
      </trkpt>
      <trkpt lat="43.66663" lon="3.62656">
        <ele>256</ele>
        <time>2021-04-03T11:41:59Z</time>
      </trkpt>
      <trkpt lat="43.66665" lon="3.62653">
        <ele>256</ele>
        <time>2021-04-03T11:42:01Z</time>
      </trkpt>
      <trkpt lat="43.66665" lon="3.62649">
        <ele>256</ele>
        <time>2021-04-03T11:42:03Z</time>
      </trkpt>
      <trkpt lat="43.66664" lon="3.62646">
        <ele>259</ele>
        <time>2021-04-03T11:42:05Z</time>
      </trkpt>
      <trkpt lat="43.66662" lon="3.62645">
        <ele>259</ele>
        <time>2021-04-03T11:42:07Z</time>
      </trkpt>
      <trkpt lat="43.6666" lon="3.62645">
        <ele>259</ele>
        <time>2021-04-03T11:42:09Z</time>
      </trkpt>
      <trkpt lat="43.66657" lon="3.62646">
        <ele>259</ele>
        <time>2021-04-03T11:42:11Z</time>
      </trkpt>
      <trkpt lat="43.66655" lon="3.62647">
        <ele>259</ele>
        <time>2021-04-03T11:42:13Z</time>
      </trkpt>
      <trkpt lat="43.66653" lon="3.62649">
        <ele>260</ele>
        <time>2021-04-03T11:42:15Z</time>
      </trkpt>
      <trkpt lat="43.66651" lon="3.62651">
        <ele>260</ele>
        <time>2021-04-03T11:42:17Z</time>
      </trkpt>
      <trkpt lat="43.66649" lon="3.62654">
        <ele>260</ele>
        <time>2021-04-03T11:42:19Z</time>
      </trkpt>
      <trkpt lat="43.66647" lon="3.62657">
        <ele>260</ele>
        <time>2021-04-03T11:42:21Z</time>
      </trkpt>
      <trkpt lat="43.66646" lon="3.6266">
        <ele>260</ele>
        <time>2021-04-03T11:42:23Z</time>
      </trkpt>
      <trkpt lat="43.66643" lon="3.62662">
        <ele>261</ele>
        <time>2021-04-03T11:42:25Z</time>
      </trkpt>
      <trkpt lat="43.66641" lon="3.62665">
        <ele>261</ele>
        <time>2021-04-03T11:42:27Z</time>
      </trkpt>
      <trkpt lat="43.66639" lon="3.62668">
        <ele>261</ele>
        <time>2021-04-03T11:42:29Z</time>
      </trkpt>
      <trkpt lat="43.66636" lon="3.6267">
        <ele>261</ele>
        <time>2021-04-03T11:42:31Z</time>
      </trkpt>
      <trkpt lat="43.66635" lon="3.62674">
        <ele>261</ele>
        <time>2021-04-03T11:42:33Z</time>
      </trkpt>
      <trkpt lat="43.66632" lon="3.62677">
        <ele>262</ele>
        <time>2021-04-03T11:42:35Z</time>
      </trkpt>
      <trkpt lat="43.6663" lon="3.6268">
        <ele>262</ele>
        <time>2021-04-03T11:42:37Z</time>
      </trkpt>
      <trkpt lat="43.66628" lon="3.62683">
        <ele>262</ele>
        <time>2021-04-03T11:42:39Z</time>
      </trkpt>
      <trkpt lat="43.66627" lon="3.62686">
        <ele>262</ele>
        <time>2021-04-03T11:42:41Z</time>
      </trkpt>
      <trkpt lat="43.66625" lon="3.6269">
        <ele>262</ele>
        <time>2021-04-03T11:42:43Z</time>
      </trkpt>
      <trkpt lat="43.66623" lon="3.62693">
        <ele>264</ele>
        <time>2021-04-03T11:42:45Z</time>
      </trkpt>
      <trkpt lat="43.66621" lon="3.62696">
        <ele>264</ele>
        <time>2021-04-03T11:42:47Z</time>
      </trkpt>
      <trkpt lat="43.66619" lon="3.627">
        <ele>264</ele>
        <time>2021-04-03T11:42:49Z</time>
      </trkpt>
      <trkpt lat="43.66617" lon="3.62704">
        <ele>264</ele>
        <time>2021-04-03T11:42:51Z</time>
      </trkpt>
      <trkpt lat="43.66615" lon="3.62708">
        <ele>264</ele>
        <time>2021-04-03T11:42:53Z</time>
      </trkpt>
      <trkpt lat="43.66613" lon="3.62712">
        <ele>266</ele>
        <time>2021-04-03T11:42:55Z</time>
      </trkpt>
      <trkpt lat="43.66612" lon="3.62716">
        <ele>266</ele>
        <time>2021-04-03T11:42:57Z</time>
      </trkpt>
      <trkpt lat="43.6661" lon="3.6272">
        <ele>266</ele>
        <time>2021-04-03T11:42:59Z</time>
      </trkpt>
      <trkpt lat="43.66608" lon="3.62724">
        <ele>266</ele>
        <time>2021-04-03T11:43:01Z</time>
      </trkpt>
      <trkpt lat="43.66607" lon="3.62728">
        <ele>266</ele>
        <time>2021-04-03T11:43:03Z</time>
      </trkpt>
      <trkpt lat="43.66605" lon="3.62732">
        <ele>266</ele>
        <time>2021-04-03T11:43:05Z</time>
      </trkpt>
      <trkpt lat="43.66605" lon="3.62736">
        <ele>266</ele>
        <time>2021-04-03T11:43:07Z</time>
      </trkpt>
      <trkpt lat="43.66604" lon="3.6274">
        <ele>266</ele>
        <time>2021-04-03T11:43:09Z</time>
      </trkpt>
      <trkpt lat="43.66602" lon="3.62744">
        <ele>266</ele>
        <time>2021-04-03T11:43:11Z</time>
      </trkpt>
      <trkpt lat="43.66601" lon="3.62748">
        <ele>266</ele>
        <time>2021-04-03T11:43:13Z</time>
      </trkpt>
      <trkpt lat="43.666" lon="3.62752">
        <ele>266</ele>
        <time>2021-04-03T11:43:15Z</time>
      </trkpt>
      <trkpt lat="43.66599" lon="3.62755">
        <ele>266</ele>
        <time>2021-04-03T11:43:17Z</time>
      </trkpt>
      <trkpt lat="43.66598" lon="3.62759">
        <ele>266</ele>
        <time>2021-04-03T11:43:19Z</time>
      </trkpt>
      <trkpt lat="43.66596" lon="3.62762">
        <ele>266</ele>
        <time>2021-04-03T11:43:21Z</time>
      </trkpt>
      <trkpt lat="43.66595" lon="3.62766">
        <ele>266</ele>
        <time>2021-04-03T11:43:23Z</time>
      </trkpt>
      <trkpt lat="43.66593" lon="3.62768">
        <ele>273</ele>
        <time>2021-04-03T11:43:25Z</time>
      </trkpt>
      <trkpt lat="43.66592" lon="3.62772">
        <ele>273</ele>
        <time>2021-04-03T11:43:27Z</time>
      </trkpt>
      <trkpt lat="43.66591" lon="3.62776">
        <ele>273</ele>
        <time>2021-04-03T11:43:29Z</time>
      </trkpt>
      <trkpt lat="43.6659" lon="3.62779">
        <ele>273</ele>
        <time>2021-04-03T11:43:31Z</time>
      </trkpt>
      <trkpt lat="43.66589" lon="3.62783">
        <ele>273</ele>
        <time>2021-04-03T11:43:33Z</time>
      </trkpt>
      <trkpt lat="43.66587" lon="3.62786">
        <ele>274</ele>
        <time>2021-04-03T11:43:35Z</time>
      </trkpt>
      <trkpt lat="43.66585" lon="3.62789">
        <ele>274</ele>
        <time>2021-04-03T11:43:37Z</time>
      </trkpt>
      <trkpt lat="43.66583" lon="3.62792">
        <ele>274</ele>
        <time>2021-04-03T11:43:39Z</time>
      </trkpt>
      <trkpt lat="43.66581" lon="3.62796">
        <ele>274</ele>
        <time>2021-04-03T11:43:41Z</time>
      </trkpt>
      <trkpt lat="43.6658" lon="3.62799">
        <ele>274</ele>
        <time>2021-04-03T11:43:43Z</time>
      </trkpt>
      <trkpt lat="43.66578" lon="3.62802">
        <ele>274</ele>
        <time>2021-04-03T11:43:45Z</time>
      </trkpt>
      <trkpt lat="43.66577" lon="3.62805">
        <ele>274</ele>
        <time>2021-04-03T11:43:47Z</time>
      </trkpt>
      <trkpt lat="43.66575" lon="3.62809">
        <ele>274</ele>
        <time>2021-04-03T11:43:49Z</time>
      </trkpt>
      <trkpt lat="43.66574" lon="3.62813">
        <ele>274</ele>
        <time>2021-04-03T11:43:51Z</time>
      </trkpt>
      <trkpt lat="43.66572" lon="3.62816">
        <ele>274</ele>
        <time>2021-04-03T11:43:53Z</time>
      </trkpt>
      <trkpt lat="43.6657" lon="3.62819">
        <ele>277</ele>
        <time>2021-04-03T11:43:55Z</time>
      </trkpt>
      <trkpt lat="43.66569" lon="3.62822">
        <ele>277</ele>
        <time>2021-04-03T11:43:57Z</time>
      </trkpt>
      <trkpt lat="43.66567" lon="3.62826">
        <ele>277</ele>
        <time>2021-04-03T11:43:59Z</time>
      </trkpt>
      <trkpt lat="43.66566" lon="3.62829">
        <ele>277</ele>
        <time>2021-04-03T11:44:01Z</time>
      </trkpt>
      <trkpt lat="43.66564" lon="3.62832">
        <ele>277</ele>
        <time>2021-04-03T11:44:03Z</time>
      </trkpt>
      <trkpt lat="43.66562" lon="3.62834">
        <ele>279</ele>
        <time>2021-04-03T11:44:05Z</time>
      </trkpt>
      <trkpt lat="43.6656" lon="3.62837">
        <ele>279</ele>
        <time>2021-04-03T11:44:08Z</time>
      </trkpt>
      <trkpt lat="43.66559" lon="3.6284">
        <ele>279</ele>
        <time>2021-04-03T11:44:09Z</time>
      </trkpt>
      <trkpt lat="43.66557" lon="3.62843">
        <ele>279</ele>
        <time>2021-04-03T11:44:11Z</time>
      </trkpt>
      <trkpt lat="43.66555" lon="3.62846">
        <ele>279</ele>
        <time>2021-04-03T11:44:13Z</time>
      </trkpt>
      <trkpt lat="43.66554" lon="3.62849">
        <ele>279</ele>
        <time>2021-04-03T11:44:15Z</time>
      </trkpt>
      <trkpt lat="43.66552" lon="3.62852">
        <ele>279</ele>
        <time>2021-04-03T11:44:17Z</time>
      </trkpt>
      <trkpt lat="43.6655" lon="3.62855">
        <ele>279</ele>
        <time>2021-04-03T11:44:19Z</time>
      </trkpt>
      <trkpt lat="43.66548" lon="3.62859">
        <ele>279</ele>
        <time>2021-04-03T11:44:21Z</time>
      </trkpt>
      <trkpt lat="43.66546" lon="3.62862">
        <ele>279</ele>
        <time>2021-04-03T11:44:23Z</time>
      </trkpt>
      <trkpt lat="43.66545" lon="3.62866">
        <ele>283</ele>
        <time>2021-04-03T11:44:25Z</time>
      </trkpt>
      <trkpt lat="43.66543" lon="3.62869">
        <ele>283</ele>
        <time>2021-04-03T11:44:27Z</time>
      </trkpt>
      <trkpt lat="43.66541" lon="3.62871">
        <ele>283</ele>
        <time>2021-04-03T11:44:29Z</time>
      </trkpt>
      <trkpt lat="43.66539" lon="3.62874">
        <ele>283</ele>
        <time>2021-04-03T11:44:31Z</time>
      </trkpt>
      <trkpt lat="43.66537" lon="3.62878">
        <ele>283</ele>
        <time>2021-04-03T11:44:33Z</time>
      </trkpt>
      <trkpt lat="43.66535" lon="3.62881">
        <ele>283</ele>
        <time>2021-04-03T11:44:35Z</time>
      </trkpt>
      <trkpt lat="43.66533" lon="3.62884">
        <ele>283</ele>
        <time>2021-04-03T11:44:37Z</time>
      </trkpt>
      <trkpt lat="43.6653" lon="3.62887">
        <ele>283</ele>
        <time>2021-04-03T11:44:39Z</time>
      </trkpt>
      <trkpt lat="43.66528" lon="3.6289">
        <ele>283</ele>
        <time>2021-04-03T11:44:41Z</time>
      </trkpt>
      <trkpt lat="43.66526" lon="3.62894">
        <ele>283</ele>
        <time>2021-04-03T11:44:43Z</time>
      </trkpt>
      <trkpt lat="43.66523" lon="3.62897">
        <ele>286</ele>
        <time>2021-04-03T11:44:45Z</time>
      </trkpt>
      <trkpt lat="43.6652" lon="3.62899">
        <ele>286</ele>
        <time>2021-04-03T11:44:47Z</time>
      </trkpt>
      <trkpt lat="43.66518" lon="3.62901">
        <ele>286</ele>
        <time>2021-04-03T11:44:49Z</time>
      </trkpt>
      <trkpt lat="43.66515" lon="3.62904">
        <ele>286</ele>
        <time>2021-04-03T11:44:51Z</time>
      </trkpt>
      <trkpt lat="43.66514" lon="3.62906">
        <ele>286</ele>
        <time>2021-04-03T11:44:52Z</time>
      </trkpt>
      <trkpt lat="43.66512" lon="3.6291">
        <ele>286</ele>
        <time>2021-04-03T11:44:54Z</time>
      </trkpt>
      <trkpt lat="43.66509" lon="3.62913">
        <ele>286</ele>
        <time>2021-04-03T11:44:56Z</time>
      </trkpt>
      <trkpt lat="43.66507" lon="3.62916">
        <ele>286</ele>
        <time>2021-04-03T11:44:58Z</time>
      </trkpt>
      <trkpt lat="43.66505" lon="3.62919">
        <ele>286</ele>
        <time>2021-04-03T11:45:00Z</time>
      </trkpt>
      <trkpt lat="43.66503" lon="3.62923">
        <ele>286</ele>
        <time>2021-04-03T11:45:02Z</time>
      </trkpt>
      <trkpt lat="43.66501" lon="3.62926">
        <ele>286</ele>
        <time>2021-04-03T11:45:04Z</time>
      </trkpt>
      <trkpt lat="43.66498" lon="3.62929">
        <ele>286</ele>
        <time>2021-04-03T11:45:06Z</time>
      </trkpt>
      <trkpt lat="43.66496" lon="3.62932">
        <ele>286</ele>
        <time>2021-04-03T11:45:08Z</time>
      </trkpt>
      <trkpt lat="43.66493" lon="3.62935">
        <ele>286</ele>
        <time>2021-04-03T11:45:10Z</time>
      </trkpt>
      <trkpt lat="43.66491" lon="3.62939">
        <ele>286</ele>
        <time>2021-04-03T11:45:12Z</time>
      </trkpt>
      <trkpt lat="43.66488" lon="3.62941">
        <ele>286</ele>
        <time>2021-04-03T11:45:14Z</time>
      </trkpt>
      <trkpt lat="43.66486" lon="3.62944">
        <ele>292</ele>
        <time>2021-04-03T11:45:16Z</time>
      </trkpt>
      <trkpt lat="43.66484" lon="3.62948">
        <ele>292</ele>
        <time>2021-04-03T11:45:18Z</time>
      </trkpt>
      <trkpt lat="43.66481" lon="3.62951">
        <ele>292</ele>
        <time>2021-04-03T11:45:20Z</time>
      </trkpt>
      <trkpt lat="43.66479" lon="3.62954">
        <ele>292</ele>
        <time>2021-04-03T11:45:22Z</time>
      </trkpt>
      <trkpt lat="43.66476" lon="3.62957">
        <ele>292</ele>
        <time>2021-04-03T11:45:24Z</time>
      </trkpt>
      <trkpt lat="43.66474" lon="3.6296">
        <ele>292</ele>
        <time>2021-04-03T11:45:26Z</time>
      </trkpt>
      <trkpt lat="43.66473" lon="3.62962">
        <ele>292</ele>
        <time>2021-04-03T11:45:27Z</time>
      </trkpt>
      <trkpt lat="43.6647" lon="3.62965">
        <ele>292</ele>
        <time>2021-04-03T11:45:29Z</time>
      </trkpt>
      <trkpt lat="43.66468" lon="3.62968">
        <ele>292</ele>
        <time>2021-04-03T11:45:31Z</time>
      </trkpt>
      <trkpt lat="43.66465" lon="3.62971">
        <ele>292</ele>
        <time>2021-04-03T11:45:33Z</time>
      </trkpt>
      <trkpt lat="43.66462" lon="3.62974">
        <ele>295</ele>
        <time>2021-04-03T11:45:35Z</time>
      </trkpt>
      <trkpt lat="43.6646" lon="3.62977">
        <ele>295</ele>
        <time>2021-04-03T11:45:37Z</time>
      </trkpt>
      <trkpt lat="43.66457" lon="3.6298">
        <ele>295</ele>
        <time>2021-04-03T11:45:39Z</time>
      </trkpt>
      <trkpt lat="43.66455" lon="3.62983">
        <ele>295</ele>
        <time>2021-04-03T11:45:41Z</time>
      </trkpt>
      <trkpt lat="43.66452" lon="3.62985">
        <ele>295</ele>
        <time>2021-04-03T11:45:43Z</time>
      </trkpt>
      <trkpt lat="43.6645" lon="3.62988">
        <ele>295</ele>
        <time>2021-04-03T11:45:45Z</time>
      </trkpt>
      <trkpt lat="43.66447" lon="3.62992">
        <ele>295</ele>
        <time>2021-04-03T11:45:47Z</time>
      </trkpt>
      <trkpt lat="43.66446" lon="3.62994">
        <ele>295</ele>
        <time>2021-04-03T11:45:48Z</time>
      </trkpt>
      <trkpt lat="43.66443" lon="3.62997">
        <ele>295</ele>
        <time>2021-04-03T11:45:51Z</time>
      </trkpt>
      <trkpt lat="43.6644" lon="3.62999">
        <ele>295</ele>
        <time>2021-04-03T11:45:52Z</time>
      </trkpt>
      <trkpt lat="43.66438" lon="3.63002">
        <ele>295</ele>
        <time>2021-04-03T11:45:54Z</time>
      </trkpt>
      <trkpt lat="43.66435" lon="3.63004">
        <ele>295</ele>
        <time>2021-04-03T11:45:56Z</time>
      </trkpt>
      <trkpt lat="43.66432" lon="3.63007">
        <ele>295</ele>
        <time>2021-04-03T11:45:58Z</time>
      </trkpt>
      <trkpt lat="43.66429" lon="3.6301">
        <ele>295</ele>
        <time>2021-04-03T11:46:00Z</time>
      </trkpt>
      <trkpt lat="43.66428" lon="3.63011">
        <ele>295</ele>
        <time>2021-04-03T11:46:01Z</time>
      </trkpt>
      <trkpt lat="43.66425" lon="3.63014">
        <ele>295</ele>
        <time>2021-04-03T11:46:03Z</time>
      </trkpt>
      <trkpt lat="43.66424" lon="3.63016">
        <ele>295</ele>
        <time>2021-04-03T11:46:04Z</time>
      </trkpt>
      <trkpt lat="43.66421" lon="3.63018">
        <ele>297</ele>
        <time>2021-04-03T11:46:06Z</time>
      </trkpt>
      <trkpt lat="43.66418" lon="3.63021">
        <ele>297</ele>
        <time>2021-04-03T11:46:08Z</time>
      </trkpt>
      <trkpt lat="43.66415" lon="3.63023">
        <ele>297</ele>
        <time>2021-04-03T11:46:10Z</time>
      </trkpt>
      <trkpt lat="43.66414" lon="3.63024">
        <ele>297</ele>
        <time>2021-04-03T11:46:11Z</time>
      </trkpt>
      <trkpt lat="43.66411" lon="3.63027">
        <ele>297</ele>
        <time>2021-04-03T11:46:13Z</time>
      </trkpt>
      <trkpt lat="43.66408" lon="3.63029">
        <ele>299</ele>
        <time>2021-04-03T11:46:15Z</time>
      </trkpt>
      <trkpt lat="43.66406" lon="3.63032">
        <ele>299</ele>
        <time>2021-04-03T11:46:17Z</time>
      </trkpt>
      <trkpt lat="43.66404" lon="3.63034">
        <ele>299</ele>
        <time>2021-04-03T11:46:18Z</time>
      </trkpt>
      <trkpt lat="43.66402" lon="3.63037">
        <ele>299</ele>
        <time>2021-04-03T11:46:20Z</time>
      </trkpt>
      <trkpt lat="43.66399" lon="3.63038">
        <ele>299</ele>
        <time>2021-04-03T11:46:22Z</time>
      </trkpt>
      <trkpt lat="43.66396" lon="3.6304">
        <ele>299</ele>
        <time>2021-04-03T11:46:24Z</time>
      </trkpt>
      <trkpt lat="43.66393" lon="3.63042">
        <ele>300</ele>
        <time>2021-04-03T11:46:26Z</time>
      </trkpt>
      <trkpt lat="43.6639" lon="3.63044">
        <ele>300</ele>
        <time>2021-04-03T11:46:28Z</time>
      </trkpt>
      <trkpt lat="43.66388" lon="3.63046">
        <ele>300</ele>
        <time>2021-04-03T11:46:30Z</time>
      </trkpt>
      <trkpt lat="43.66385" lon="3.63047">
        <ele>300</ele>
        <time>2021-04-03T11:46:32Z</time>
      </trkpt>
      <trkpt lat="43.66382" lon="3.63048">
        <ele>300</ele>
        <time>2021-04-03T11:46:34Z</time>
      </trkpt>
      <trkpt lat="43.66379" lon="3.63049">
        <ele>300</ele>
        <time>2021-04-03T11:46:36Z</time>
      </trkpt>
      <trkpt lat="43.66376" lon="3.63049">
        <ele>300</ele>
        <time>2021-04-03T11:46:38Z</time>
      </trkpt>
      <trkpt lat="43.66373" lon="3.6305">
        <ele>300</ele>
        <time>2021-04-03T11:46:40Z</time>
      </trkpt>
      <trkpt lat="43.6637" lon="3.6305">
        <ele>300</ele>
        <time>2021-04-03T11:46:42Z</time>
      </trkpt>
      <trkpt lat="43.66368" lon="3.63051">
        <ele>300</ele>
        <time>2021-04-03T11:46:44Z</time>
      </trkpt>
      <trkpt lat="43.66365" lon="3.63051">
        <ele>300</ele>
        <time>2021-04-03T11:46:46Z</time>
      </trkpt>
      <trkpt lat="43.66362" lon="3.63051">
        <ele>300</ele>
        <time>2021-04-03T11:46:48Z</time>
      </trkpt>
      <trkpt lat="43.66359" lon="3.63052">
        <ele>300</ele>
        <time>2021-04-03T11:46:50Z</time>
      </trkpt>
      <trkpt lat="43.66356" lon="3.63052">
        <ele>300</ele>
        <time>2021-04-03T11:46:52Z</time>
      </trkpt>
      <trkpt lat="43.66353" lon="3.63053">
        <ele>300</ele>
        <time>2021-04-03T11:46:54Z</time>
      </trkpt>
      <trkpt lat="43.66349" lon="3.63055">
        <ele>305</ele>
        <time>2021-04-03T11:46:56Z</time>
      </trkpt>
      <trkpt lat="43.66346" lon="3.63056">
        <ele>305</ele>
        <time>2021-04-03T11:46:58Z</time>
      </trkpt>
      <trkpt lat="43.66343" lon="3.63058">
        <ele>305</ele>
        <time>2021-04-03T11:47:00Z</time>
      </trkpt>
      <trkpt lat="43.66341" lon="3.63058">
        <ele>305</ele>
        <time>2021-04-03T11:47:01Z</time>
      </trkpt>
      <trkpt lat="43.66339" lon="3.6306">
        <ele>305</ele>
        <time>2021-04-03T11:47:02Z</time>
      </trkpt>
      <trkpt lat="43.66338" lon="3.63061">
        <ele>305</ele>
        <time>2021-04-03T11:47:03Z</time>
      </trkpt>
      <trkpt lat="43.66336" lon="3.63062">
        <ele>305</ele>
        <time>2021-04-03T11:47:04Z</time>
      </trkpt>
      <trkpt lat="43.66335" lon="3.63064">
        <ele>305</ele>
        <time>2021-04-03T11:47:05Z</time>
      </trkpt>
      <trkpt lat="43.66333" lon="3.63065">
        <ele>306</ele>
        <time>2021-04-03T11:47:06Z</time>
      </trkpt>
      <trkpt lat="43.66331" lon="3.63066">
        <ele>306</ele>
        <time>2021-04-03T11:47:07Z</time>
      </trkpt>
      <trkpt lat="43.6633" lon="3.63066">
        <ele>306</ele>
        <time>2021-04-03T11:47:08Z</time>
      </trkpt>
      <trkpt lat="43.66328" lon="3.63067">
        <ele>306</ele>
        <time>2021-04-03T11:47:09Z</time>
      </trkpt>
      <trkpt lat="43.66326" lon="3.63068">
        <ele>306</ele>
        <time>2021-04-03T11:47:10Z</time>
      </trkpt>
      <trkpt lat="43.66324" lon="3.63069">
        <ele>306</ele>
        <time>2021-04-03T11:47:11Z</time>
      </trkpt>
      <trkpt lat="43.66322" lon="3.6307">
        <ele>306</ele>
        <time>2021-04-03T11:47:12Z</time>
      </trkpt>
      <trkpt lat="43.66318" lon="3.63072">
        <ele>306</ele>
        <time>2021-04-03T11:47:14Z</time>
      </trkpt>
      <trkpt lat="43.66315" lon="3.63074">
        <ele>306</ele>
        <time>2021-04-03T11:47:16Z</time>
      </trkpt>
      <trkpt lat="43.66312" lon="3.63075">
        <ele>306</ele>
        <time>2021-04-03T11:47:18Z</time>
      </trkpt>
      <trkpt lat="43.6631" lon="3.63077">
        <ele>306</ele>
        <time>2021-04-03T11:47:20Z</time>
      </trkpt>
      <trkpt lat="43.66301" lon="3.63082">
        <ele>309</ele>
        <time>2021-04-03T11:48:32Z</time>
      </trkpt>
      <trkpt lat="43.66299" lon="3.63083">
        <ele>309</ele>
        <time>2021-04-03T11:48:33Z</time>
      </trkpt>
      <trkpt lat="43.66296" lon="3.63084">
        <ele>309</ele>
        <time>2021-04-03T11:48:34Z</time>
      </trkpt>
      <trkpt lat="43.66294" lon="3.63085">
        <ele>309</ele>
        <time>2021-04-03T11:48:35Z</time>
      </trkpt>
      <trkpt lat="43.66292" lon="3.63085">
        <ele>309</ele>
        <time>2021-04-03T11:48:36Z</time>
      </trkpt>
      <trkpt lat="43.6629" lon="3.63086">
        <ele>309</ele>
        <time>2021-04-03T11:48:37Z</time>
      </trkpt>
      <trkpt lat="43.66288" lon="3.63087">
        <ele>309</ele>
        <time>2021-04-03T11:48:38Z</time>
      </trkpt>
      <trkpt lat="43.66286" lon="3.63088">
        <ele>309</ele>
        <time>2021-04-03T11:48:39Z</time>
      </trkpt>
      <trkpt lat="43.66284" lon="3.63089">
        <ele>309</ele>
        <time>2021-04-03T11:48:40Z</time>
      </trkpt>
      <trkpt lat="43.66282" lon="3.63091">
        <ele>309</ele>
        <time>2021-04-03T11:48:41Z</time>
      </trkpt>
      <trkpt lat="43.66279" lon="3.63091">
        <ele>309</ele>
        <time>2021-04-03T11:48:42Z</time>
      </trkpt>
      <trkpt lat="43.66277" lon="3.63092">
        <ele>309</ele>
        <time>2021-04-03T11:48:43Z</time>
      </trkpt>
      <trkpt lat="43.66275" lon="3.63093">
        <ele>309</ele>
        <time>2021-04-03T11:48:44Z</time>
      </trkpt>
      <trkpt lat="43.66272" lon="3.63094">
        <ele>309</ele>
        <time>2021-04-03T11:48:45Z</time>
      </trkpt>
      <trkpt lat="43.6627" lon="3.63095">
        <ele>309</ele>
        <time>2021-04-03T11:48:46Z</time>
      </trkpt>
      <trkpt lat="43.66268" lon="3.63096">
        <ele>309</ele>
        <time>2021-04-03T11:48:47Z</time>
      </trkpt>
      <trkpt lat="43.66266" lon="3.63097">
        <ele>309</ele>
        <time>2021-04-03T11:48:48Z</time>
      </trkpt>
      <trkpt lat="43.66264" lon="3.63099">
        <ele>309</ele>
        <time>2021-04-03T11:48:49Z</time>
      </trkpt>
      <trkpt lat="43.66262" lon="3.631">
        <ele>309</ele>
        <time>2021-04-03T11:48:50Z</time>
      </trkpt>
      <trkpt lat="43.66259" lon="3.63102">
        <ele>309</ele>
        <time>2021-04-03T11:48:51Z</time>
      </trkpt>
      <trkpt lat="43.66257" lon="3.63104">
        <ele>309</ele>
        <time>2021-04-03T11:48:52Z</time>
      </trkpt>
      <trkpt lat="43.66254" lon="3.63105">
        <ele>309</ele>
        <time>2021-04-03T11:48:53Z</time>
      </trkpt>
      <trkpt lat="43.66251" lon="3.63107">
        <ele>309</ele>
        <time>2021-04-03T11:48:54Z</time>
      </trkpt>
      <trkpt lat="43.66248" lon="3.63109">
        <ele>309</ele>
        <time>2021-04-03T11:48:55Z</time>
      </trkpt>
      <trkpt lat="43.66245" lon="3.63111">
        <ele>309</ele>
        <time>2021-04-03T11:48:56Z</time>
      </trkpt>
      <trkpt lat="43.66242" lon="3.63113">
        <ele>309</ele>
        <time>2021-04-03T11:48:57Z</time>
      </trkpt>
      <trkpt lat="43.66239" lon="3.63114">
        <ele>309</ele>
        <time>2021-04-03T11:48:58Z</time>
      </trkpt>
      <trkpt lat="43.66236" lon="3.63116">
        <ele>309</ele>
        <time>2021-04-03T11:48:59Z</time>
      </trkpt>
      <trkpt lat="43.66233" lon="3.63117">
        <ele>309</ele>
        <time>2021-04-03T11:49:00Z</time>
      </trkpt>
      <trkpt lat="43.6623" lon="3.63119">
        <ele>309</ele>
        <time>2021-04-03T11:49:01Z</time>
      </trkpt>
      <trkpt lat="43.66227" lon="3.6312">
        <ele>309</ele>
        <time>2021-04-03T11:49:02Z</time>
      </trkpt>
      <trkpt lat="43.66224" lon="3.6312">
        <ele>309</ele>
        <time>2021-04-03T11:49:03Z</time>
      </trkpt>
      <trkpt lat="43.66221" lon="3.63121">
        <ele>309</ele>
        <time>2021-04-03T11:49:04Z</time>
      </trkpt>
      <trkpt lat="43.66218" lon="3.63122">
        <ele>309</ele>
        <time>2021-04-03T11:49:05Z</time>
      </trkpt>
      <trkpt lat="43.66214" lon="3.63122">
        <ele>309</ele>
        <time>2021-04-03T11:49:06Z</time>
      </trkpt>
      <trkpt lat="43.66211" lon="3.63123">
        <ele>309</ele>
        <time>2021-04-03T11:49:07Z</time>
      </trkpt>
      <trkpt lat="43.66208" lon="3.63124">
        <ele>309</ele>
        <time>2021-04-03T11:49:08Z</time>
      </trkpt>
      <trkpt lat="43.66206" lon="3.63124">
        <ele>309</ele>
        <time>2021-04-03T11:49:09Z</time>
      </trkpt>
      <trkpt lat="43.66203" lon="3.63125">
        <ele>309</ele>
        <time>2021-04-03T11:49:10Z</time>
      </trkpt>
      <trkpt lat="43.66201" lon="3.63126">
        <ele>309</ele>
        <time>2021-04-03T11:49:11Z</time>
      </trkpt>
      <trkpt lat="43.66198" lon="3.63128">
        <ele>309</ele>
        <time>2021-04-03T11:49:12Z</time>
      </trkpt>
      <trkpt lat="43.66195" lon="3.6313">
        <ele>309</ele>
        <time>2021-04-03T11:49:13Z</time>
      </trkpt>
      <trkpt lat="43.66193" lon="3.63131">
        <ele>309</ele>
        <time>2021-04-03T11:49:14Z</time>
      </trkpt>
      <trkpt lat="43.6619" lon="3.63133">
        <ele>309</ele>
        <time>2021-04-03T11:49:15Z</time>
      </trkpt>
      <trkpt lat="43.66188" lon="3.63134">
        <ele>309</ele>
        <time>2021-04-03T11:49:16Z</time>
      </trkpt>
      <trkpt lat="43.66185" lon="3.63136">
        <ele>309</ele>
        <time>2021-04-03T11:49:17Z</time>
      </trkpt>
      <trkpt lat="43.66183" lon="3.63137">
        <ele>309</ele>
        <time>2021-04-03T11:49:18Z</time>
      </trkpt>
      <trkpt lat="43.66181" lon="3.63139">
        <ele>309</ele>
        <time>2021-04-03T11:49:19Z</time>
      </trkpt>
      <trkpt lat="43.66178" lon="3.6314">
        <ele>309</ele>
        <time>2021-04-03T11:49:20Z</time>
      </trkpt>
      <trkpt lat="43.66176" lon="3.63142">
        <ele>309</ele>
        <time>2021-04-03T11:49:21Z</time>
      </trkpt>
      <trkpt lat="43.66173" lon="3.63143">
        <ele>309</ele>
        <time>2021-04-03T11:49:22Z</time>
      </trkpt>
      <trkpt lat="43.66171" lon="3.63145">
        <ele>309</ele>
        <time>2021-04-03T11:49:23Z</time>
      </trkpt>
      <trkpt lat="43.66169" lon="3.63146">
        <ele>309</ele>
        <time>2021-04-03T11:49:24Z</time>
      </trkpt>
      <trkpt lat="43.66167" lon="3.63147">
        <ele>309</ele>
        <time>2021-04-03T11:49:25Z</time>
      </trkpt>
      <trkpt lat="43.66165" lon="3.63149">
        <ele>309</ele>
        <time>2021-04-03T11:49:26Z</time>
      </trkpt>
      <trkpt lat="43.66162" lon="3.6315">
        <ele>309</ele>
        <time>2021-04-03T11:49:27Z</time>
      </trkpt>
      <trkpt lat="43.6616" lon="3.63151">
        <ele>309</ele>
        <time>2021-04-03T11:49:28Z</time>
      </trkpt>
      <trkpt lat="43.66158" lon="3.63153">
        <ele>309</ele>
        <time>2021-04-03T11:49:29Z</time>
      </trkpt>
      <trkpt lat="43.66156" lon="3.63154">
        <ele>309</ele>
        <time>2021-04-03T11:49:30Z</time>
      </trkpt>
      <trkpt lat="43.66154" lon="3.63155">
        <ele>309</ele>
        <time>2021-04-03T11:49:31Z</time>
      </trkpt>
      <trkpt lat="43.66152" lon="3.63156">
        <ele>309</ele>
        <time>2021-04-03T11:49:32Z</time>
      </trkpt>
      <trkpt lat="43.6615" lon="3.63157">
        <ele>309</ele>
        <time>2021-04-03T11:49:33Z</time>
      </trkpt>
      <trkpt lat="43.66148" lon="3.63159">
        <ele>309</ele>
        <time>2021-04-03T11:49:34Z</time>
      </trkpt>
      <trkpt lat="43.66147" lon="3.6316">
        <ele>309</ele>
        <time>2021-04-03T11:49:35Z</time>
      </trkpt>
      <trkpt lat="43.66145" lon="3.63161">
        <ele>309</ele>
        <time>2021-04-03T11:49:36Z</time>
      </trkpt>
      <trkpt lat="43.66143" lon="3.63162">
        <ele>309</ele>
        <time>2021-04-03T11:49:37Z</time>
      </trkpt>
      <trkpt lat="43.66141" lon="3.63163">
        <ele>309</ele>
        <time>2021-04-03T11:49:38Z</time>
      </trkpt>
      <trkpt lat="43.66139" lon="3.63165">
        <ele>309</ele>
        <time>2021-04-03T11:49:39Z</time>
      </trkpt>
      <trkpt lat="43.66137" lon="3.63166">
        <ele>309</ele>
        <time>2021-04-03T11:49:40Z</time>
      </trkpt>
      <trkpt lat="43.66135" lon="3.63167">
        <ele>309</ele>
        <time>2021-04-03T11:49:41Z</time>
      </trkpt>
      <trkpt lat="43.66132" lon="3.63169">
        <ele>309</ele>
        <time>2021-04-03T11:49:43Z</time>
      </trkpt>
      <trkpt lat="43.66131" lon="3.63171">
        <ele>309</ele>
        <time>2021-04-03T11:49:44Z</time>
      </trkpt>
      <trkpt lat="43.66129" lon="3.63172">
        <ele>309</ele>
        <time>2021-04-03T11:49:45Z</time>
      </trkpt>
      <trkpt lat="43.66127" lon="3.63174">
        <ele>309</ele>
        <time>2021-04-03T11:49:46Z</time>
      </trkpt>
      <trkpt lat="43.66126" lon="3.63175">
        <ele>309</ele>
        <time>2021-04-03T11:49:47Z</time>
      </trkpt>
      <trkpt lat="43.66124" lon="3.63177">
        <ele>309</ele>
        <time>2021-04-03T11:49:48Z</time>
      </trkpt>
      <trkpt lat="43.66122" lon="3.63178">
        <ele>309</ele>
        <time>2021-04-03T11:49:49Z</time>
      </trkpt>
      <trkpt lat="43.6612" lon="3.6318">
        <ele>309</ele>
        <time>2021-04-03T11:49:50Z</time>
      </trkpt>
      <trkpt lat="43.66118" lon="3.6318">
        <ele>309</ele>
        <time>2021-04-03T11:49:51Z</time>
      </trkpt>
      <trkpt lat="43.66116" lon="3.63182">
        <ele>311</ele>
        <time>2021-04-03T11:49:52Z</time>
      </trkpt>
      <trkpt lat="43.66114" lon="3.63183">
        <ele>311</ele>
        <time>2021-04-03T11:49:53Z</time>
      </trkpt>
      <trkpt lat="43.66112" lon="3.63184">
        <ele>311</ele>
        <time>2021-04-03T11:49:54Z</time>
      </trkpt>
      <trkpt lat="43.66108" lon="3.63187">
        <ele>311</ele>
        <time>2021-04-03T11:49:56Z</time>
      </trkpt>
      <trkpt lat="43.66107" lon="3.63188">
        <ele>311</ele>
        <time>2021-04-03T11:49:57Z</time>
      </trkpt>
      <trkpt lat="43.66105" lon="3.63189">
        <ele>311</ele>
        <time>2021-04-03T11:49:58Z</time>
      </trkpt>
      <trkpt lat="43.66103" lon="3.63191">
        <ele>311</ele>
        <time>2021-04-03T11:49:59Z</time>
      </trkpt>
      <trkpt lat="43.66102" lon="3.63193">
        <ele>311</ele>
        <time>2021-04-03T11:50:00Z</time>
      </trkpt>
      <trkpt lat="43.661" lon="3.63194">
        <ele>311</ele>
        <time>2021-04-03T11:50:01Z</time>
      </trkpt>
      <trkpt lat="43.66097" lon="3.63196">
        <ele>311</ele>
        <time>2021-04-03T11:50:02Z</time>
      </trkpt>
      <trkpt lat="43.66095" lon="3.63198">
        <ele>311</ele>
        <time>2021-04-03T11:50:03Z</time>
      </trkpt>
      <trkpt lat="43.66093" lon="3.632">
        <ele>311</ele>
        <time>2021-04-03T11:50:04Z</time>
      </trkpt>
      <trkpt lat="43.6609" lon="3.63202">
        <ele>311</ele>
        <time>2021-04-03T11:50:05Z</time>
      </trkpt>
      <trkpt lat="43.66087" lon="3.63203">
        <ele>311</ele>
        <time>2021-04-03T11:50:06Z</time>
      </trkpt>
      <trkpt lat="43.66084" lon="3.63205">
        <ele>311</ele>
        <time>2021-04-03T11:50:07Z</time>
      </trkpt>
      <trkpt lat="43.66082" lon="3.63206">
        <ele>311</ele>
        <time>2021-04-03T11:50:08Z</time>
      </trkpt>
      <trkpt lat="43.66079" lon="3.63208">
        <ele>311</ele>
        <time>2021-04-03T11:50:09Z</time>
      </trkpt>
      <trkpt lat="43.66076" lon="3.63209">
        <ele>311</ele>
        <time>2021-04-03T11:50:10Z</time>
      </trkpt>
      <trkpt lat="43.66073" lon="3.63211">
        <ele>310</ele>
        <time>2021-04-03T11:50:11Z</time>
      </trkpt>
      <trkpt lat="43.6607" lon="3.63212">
        <ele>310</ele>
        <time>2021-04-03T11:50:12Z</time>
      </trkpt>
      <trkpt lat="43.66068" lon="3.63213">
        <ele>310</ele>
        <time>2021-04-03T11:50:13Z</time>
      </trkpt>
      <trkpt lat="43.66065" lon="3.63215">
        <ele>310</ele>
        <time>2021-04-03T11:50:14Z</time>
      </trkpt>
      <trkpt lat="43.66062" lon="3.63216">
        <ele>310</ele>
        <time>2021-04-03T11:50:15Z</time>
      </trkpt>
      <trkpt lat="43.66059" lon="3.63217">
        <ele>310</ele>
        <time>2021-04-03T11:50:16Z</time>
      </trkpt>
      <trkpt lat="43.66056" lon="3.63219">
        <ele>310</ele>
        <time>2021-04-03T11:50:17Z</time>
      </trkpt>
      <trkpt lat="43.66054" lon="3.6322">
        <ele>310</ele>
        <time>2021-04-03T11:50:18Z</time>
      </trkpt>
      <trkpt lat="43.66051" lon="3.63222">
        <ele>310</ele>
        <time>2021-04-03T11:50:19Z</time>
      </trkpt>
      <trkpt lat="43.66049" lon="3.63223">
        <ele>310</ele>
        <time>2021-04-03T11:50:20Z</time>
      </trkpt>
      <trkpt lat="43.66046" lon="3.63224">
        <ele>310</ele>
        <time>2021-04-03T11:50:21Z</time>
      </trkpt>
      <trkpt lat="43.66044" lon="3.63226">
        <ele>310</ele>
        <time>2021-04-03T11:50:22Z</time>
      </trkpt>
      <trkpt lat="43.66041" lon="3.63227">
        <ele>310</ele>
        <time>2021-04-03T11:50:23Z</time>
      </trkpt>
      <trkpt lat="43.66039" lon="3.63229">
        <ele>310</ele>
        <time>2021-04-03T11:50:24Z</time>
      </trkpt>
      <trkpt lat="43.66036" lon="3.63231">
        <ele>310</ele>
        <time>2021-04-03T11:50:25Z</time>
      </trkpt>
      <trkpt lat="43.66033" lon="3.63233">
        <ele>310</ele>
        <time>2021-04-03T11:50:26Z</time>
      </trkpt>
      <trkpt lat="43.66029" lon="3.63235">
        <ele>310</ele>
        <time>2021-04-03T11:50:27Z</time>
      </trkpt>
      <trkpt lat="43.66026" lon="3.63238">
        <ele>310</ele>
        <time>2021-04-03T11:50:28Z</time>
      </trkpt>
      <trkpt lat="43.66023" lon="3.6324">
        <ele>310</ele>
        <time>2021-04-03T11:50:29Z</time>
      </trkpt>
      <trkpt lat="43.6602" lon="3.63242">
        <ele>310</ele>
        <time>2021-04-03T11:50:30Z</time>
      </trkpt>
      <trkpt lat="43.66017" lon="3.63245">
        <ele>310</ele>
        <time>2021-04-03T11:50:31Z</time>
      </trkpt>
      <trkpt lat="43.66015" lon="3.63249">
        <ele>309</ele>
        <time>2021-04-03T11:50:32Z</time>
      </trkpt>
      <trkpt lat="43.66012" lon="3.63253">
        <ele>309</ele>
        <time>2021-04-03T11:50:33Z</time>
      </trkpt>
      <trkpt lat="43.66009" lon="3.63257">
        <ele>309</ele>
        <time>2021-04-03T11:50:34Z</time>
      </trkpt>
      <trkpt lat="43.66006" lon="3.63261">
        <ele>309</ele>
        <time>2021-04-03T11:50:35Z</time>
      </trkpt>
      <trkpt lat="43.66003" lon="3.63266">
        <ele>309</ele>
        <time>2021-04-03T11:50:36Z</time>
      </trkpt>
      <trkpt lat="43.66" lon="3.6327">
        <ele>309</ele>
        <time>2021-04-03T11:50:37Z</time>
      </trkpt>
      <trkpt lat="43.65997" lon="3.63274">
        <ele>309</ele>
        <time>2021-04-03T11:50:38Z</time>
      </trkpt>
      <trkpt lat="43.65995" lon="3.63279">
        <ele>309</ele>
        <time>2021-04-03T11:50:39Z</time>
      </trkpt>
      <trkpt lat="43.65992" lon="3.63284">
        <ele>309</ele>
        <time>2021-04-03T11:50:40Z</time>
      </trkpt>
      <trkpt lat="43.65989" lon="3.63289">
        <ele>308</ele>
        <time>2021-04-03T11:50:41Z</time>
      </trkpt>
      <trkpt lat="43.65985" lon="3.63295">
        <ele>308</ele>
        <time>2021-04-03T11:50:42Z</time>
      </trkpt>
      <trkpt lat="43.65982" lon="3.633">
        <ele>308</ele>
        <time>2021-04-03T11:50:43Z</time>
      </trkpt>
      <trkpt lat="43.65979" lon="3.63306">
        <ele>308</ele>
        <time>2021-04-03T11:50:44Z</time>
      </trkpt>
      <trkpt lat="43.65975" lon="3.63311">
        <ele>308</ele>
        <time>2021-04-03T11:50:45Z</time>
      </trkpt>
      <trkpt lat="43.65972" lon="3.63316">
        <ele>308</ele>
        <time>2021-04-03T11:50:46Z</time>
      </trkpt>
      <trkpt lat="43.65967" lon="3.63321">
        <ele>308</ele>
        <time>2021-04-03T11:50:47Z</time>
      </trkpt>
      <trkpt lat="43.65963" lon="3.63324">
        <ele>308</ele>
        <time>2021-04-03T11:50:48Z</time>
      </trkpt>
      <trkpt lat="43.65958" lon="3.63328">
        <ele>308</ele>
        <time>2021-04-03T11:50:49Z</time>
      </trkpt>
      <trkpt lat="43.65953" lon="3.63331">
        <ele>308</ele>
        <time>2021-04-03T11:50:50Z</time>
      </trkpt>
      <trkpt lat="43.65948" lon="3.63334">
        <ele>308</ele>
        <time>2021-04-03T11:50:51Z</time>
      </trkpt>
      <trkpt lat="43.65943" lon="3.63337">
        <ele>307</ele>
        <time>2021-04-03T11:50:52Z</time>
      </trkpt>
      <trkpt lat="43.6594" lon="3.6334">
        <ele>307</ele>
        <time>2021-04-03T11:50:53Z</time>
      </trkpt>
      <trkpt lat="43.65936" lon="3.63343">
        <ele>307</ele>
        <time>2021-04-03T11:50:54Z</time>
      </trkpt>
      <trkpt lat="43.65933" lon="3.63347">
        <ele>307</ele>
        <time>2021-04-03T11:50:55Z</time>
      </trkpt>
      <trkpt lat="43.65931" lon="3.6335">
        <ele>307</ele>
        <time>2021-04-03T11:50:56Z</time>
      </trkpt>
      <trkpt lat="43.65928" lon="3.63354">
        <ele>307</ele>
        <time>2021-04-03T11:50:57Z</time>
      </trkpt>
      <trkpt lat="43.65926" lon="3.63358">
        <ele>307</ele>
        <time>2021-04-03T11:50:58Z</time>
      </trkpt>
      <trkpt lat="43.65924" lon="3.63362">
        <ele>307</ele>
        <time>2021-04-03T11:50:59Z</time>
      </trkpt>
      <trkpt lat="43.65922" lon="3.63366">
        <ele>307</ele>
        <time>2021-04-03T11:51:00Z</time>
      </trkpt>
      <trkpt lat="43.6592" lon="3.6337">
        <ele>306</ele>
        <time>2021-04-03T11:51:01Z</time>
      </trkpt>
      <trkpt lat="43.65918" lon="3.63373">
        <ele>306</ele>
        <time>2021-04-03T11:51:02Z</time>
      </trkpt>
      <trkpt lat="43.65915" lon="3.63376">
        <ele>306</ele>
        <time>2021-04-03T11:51:03Z</time>
      </trkpt>
      <trkpt lat="43.65913" lon="3.63379">
        <ele>306</ele>
        <time>2021-04-03T11:51:04Z</time>
      </trkpt>
      <trkpt lat="43.6591" lon="3.63381">
        <ele>306</ele>
        <time>2021-04-03T11:51:05Z</time>
      </trkpt>
      <trkpt lat="43.65908" lon="3.63383">
        <ele>306</ele>
        <time>2021-04-03T11:51:06Z</time>
      </trkpt>
      <trkpt lat="43.65906" lon="3.63384">
        <ele>306</ele>
        <time>2021-04-03T11:51:07Z</time>
      </trkpt>
      <trkpt lat="43.65903" lon="3.63385">
        <ele>306</ele>
        <time>2021-04-03T11:51:08Z</time>
      </trkpt>
      <trkpt lat="43.65901" lon="3.63387">
        <ele>306</ele>
        <time>2021-04-03T11:51:09Z</time>
      </trkpt>
      <trkpt lat="43.65899" lon="3.63387">
        <ele>306</ele>
        <time>2021-04-03T11:51:10Z</time>
      </trkpt>
      <trkpt lat="43.65896" lon="3.63388">
        <ele>307</ele>
        <time>2021-04-03T11:51:11Z</time>
      </trkpt>
      <trkpt lat="43.65895" lon="3.63389">
        <ele>307</ele>
        <time>2021-04-03T11:51:12Z</time>
      </trkpt>
      <trkpt lat="43.65891" lon="3.6339">
        <ele>307</ele>
        <time>2021-04-03T11:51:14Z</time>
      </trkpt>
      <trkpt lat="43.65888" lon="3.63392">
        <ele>307</ele>
        <time>2021-04-03T11:51:16Z</time>
      </trkpt>
      <trkpt lat="43.65885" lon="3.6339">
        <ele>307</ele>
        <time>2021-04-03T11:51:18Z</time>
      </trkpt>
      <trkpt lat="43.65884" lon="3.63387">
        <ele>307</ele>
        <time>2021-04-03T11:51:20Z</time>
      </trkpt>
      <trkpt lat="43.65884" lon="3.63383">
        <ele>307</ele>
        <time>2021-04-03T11:51:22Z</time>
      </trkpt>
      <trkpt lat="43.65885" lon="3.63379">
        <ele>307</ele>
        <time>2021-04-03T11:51:24Z</time>
      </trkpt>
      <trkpt lat="43.65885" lon="3.63375">
        <ele>307</ele>
        <time>2021-04-03T11:51:26Z</time>
      </trkpt>
      <trkpt lat="43.65884" lon="3.63372">
        <ele>307</ele>
        <time>2021-04-03T11:51:28Z</time>
      </trkpt>
      <trkpt lat="43.65884" lon="3.63368">
        <ele>307</ele>
        <time>2021-04-03T11:51:30Z</time>
      </trkpt>
      <trkpt lat="43.65884" lon="3.63365">
        <ele>307</ele>
        <time>2021-04-03T11:51:32Z</time>
      </trkpt>
      <trkpt lat="43.65884" lon="3.63362">
        <ele>307</ele>
        <time>2021-04-03T11:51:34Z</time>
      </trkpt>
      <trkpt lat="43.65883" lon="3.63359">
        <ele>307</ele>
        <time>2021-04-03T11:51:36Z</time>
      </trkpt>
      <trkpt lat="43.65882" lon="3.63356">
        <ele>307</ele>
        <time>2021-04-03T11:51:38Z</time>
      </trkpt>
      <trkpt lat="43.65883" lon="3.63353">
        <ele>307</ele>
        <time>2021-04-03T11:51:40Z</time>
      </trkpt>
      <trkpt lat="43.65882" lon="3.6335">
        <ele>311</ele>
        <time>2021-04-03T11:51:42Z</time>
      </trkpt>
      <trkpt lat="43.65881" lon="3.63347">
        <ele>311</ele>
        <time>2021-04-03T11:51:44Z</time>
      </trkpt>
      <trkpt lat="43.65881" lon="3.63343">
        <ele>311</ele>
        <time>2021-04-03T11:51:46Z</time>
      </trkpt>
      <trkpt lat="43.6588" lon="3.6334">
        <ele>311</ele>
        <time>2021-04-03T11:51:48Z</time>
      </trkpt>
      <trkpt lat="43.6588" lon="3.63337">
        <ele>311</ele>
        <time>2021-04-03T11:51:50Z</time>
      </trkpt>
      <trkpt lat="43.65879" lon="3.63334">
        <ele>313</ele>
        <time>2021-04-03T11:51:52Z</time>
      </trkpt>
      <trkpt lat="43.65879" lon="3.63331">
        <ele>313</ele>
        <time>2021-04-03T11:51:54Z</time>
      </trkpt>
      <trkpt lat="43.65879" lon="3.63328">
        <ele>313</ele>
        <time>2021-04-03T11:51:56Z</time>
      </trkpt>
      <trkpt lat="43.65878" lon="3.63325">
        <ele>313</ele>
        <time>2021-04-03T11:51:58Z</time>
      </trkpt>
      <trkpt lat="43.65878" lon="3.63322">
        <ele>313</ele>
        <time>2021-04-03T11:52:00Z</time>
      </trkpt>
      <trkpt lat="43.65877" lon="3.6332">
        <ele>314</ele>
        <time>2021-04-03T11:52:02Z</time>
      </trkpt>
      <trkpt lat="43.65876" lon="3.63317">
        <ele>314</ele>
        <time>2021-04-03T11:52:04Z</time>
      </trkpt>
      <trkpt lat="43.65877" lon="3.63314">
        <ele>314</ele>
        <time>2021-04-03T11:52:06Z</time>
      </trkpt>
      <trkpt lat="43.65876" lon="3.63312">
        <ele>314</ele>
        <time>2021-04-03T11:52:08Z</time>
      </trkpt>
      <trkpt lat="43.65876" lon="3.63308">
        <ele>314</ele>
        <time>2021-04-03T11:52:10Z</time>
      </trkpt>
      <trkpt lat="43.65876" lon="3.63305">
        <ele>314</ele>
        <time>2021-04-03T11:52:12Z</time>
      </trkpt>
      <trkpt lat="43.65875" lon="3.63302">
        <ele>314</ele>
        <time>2021-04-03T11:52:14Z</time>
      </trkpt>
      <trkpt lat="43.65876" lon="3.63299">
        <ele>314</ele>
        <time>2021-04-03T11:52:16Z</time>
      </trkpt>
      <trkpt lat="43.65875" lon="3.63296">
        <ele>314</ele>
        <time>2021-04-03T11:52:18Z</time>
      </trkpt>
      <trkpt lat="43.65875" lon="3.63293">
        <ele>314</ele>
        <time>2021-04-03T11:52:20Z</time>
      </trkpt>
      <trkpt lat="43.65875" lon="3.6329">
        <ele>314</ele>
        <time>2021-04-03T11:52:22Z</time>
      </trkpt>
      <trkpt lat="43.65875" lon="3.63287">
        <ele>314</ele>
        <time>2021-04-03T11:52:24Z</time>
      </trkpt>
      <trkpt lat="43.65875" lon="3.63284">
        <ele>314</ele>
        <time>2021-04-03T11:52:26Z</time>
      </trkpt>
      <trkpt lat="43.65874" lon="3.63281">
        <ele>314</ele>
        <time>2021-04-03T11:52:28Z</time>
      </trkpt>
      <trkpt lat="43.65874" lon="3.63278">
        <ele>314</ele>
        <time>2021-04-03T11:52:30Z</time>
      </trkpt>
      <trkpt lat="43.65874" lon="3.63275">
        <ele>314</ele>
        <time>2021-04-03T11:52:32Z</time>
      </trkpt>
      <trkpt lat="43.65873" lon="3.63272">
        <ele>314</ele>
        <time>2021-04-03T11:52:34Z</time>
      </trkpt>
      <trkpt lat="43.65872" lon="3.63269">
        <ele>314</ele>
        <time>2021-04-03T11:52:36Z</time>
      </trkpt>
      <trkpt lat="43.65871" lon="3.63266">
        <ele>314</ele>
        <time>2021-04-03T11:52:38Z</time>
      </trkpt>
      <trkpt lat="43.65869" lon="3.63264">
        <ele>314</ele>
        <time>2021-04-03T11:52:40Z</time>
      </trkpt>
      <trkpt lat="43.65868" lon="3.63261">
        <ele>321</ele>
        <time>2021-04-03T11:52:42Z</time>
      </trkpt>
      <trkpt lat="43.65866" lon="3.63258">
        <ele>321</ele>
        <time>2021-04-03T11:52:44Z</time>
      </trkpt>
      <trkpt lat="43.65864" lon="3.63254">
        <ele>321</ele>
        <time>2021-04-03T11:52:46Z</time>
      </trkpt>
      <trkpt lat="43.65863" lon="3.63251">
        <ele>321</ele>
        <time>2021-04-03T11:52:48Z</time>
      </trkpt>
      <trkpt lat="43.65861" lon="3.63248">
        <ele>321</ele>
        <time>2021-04-03T11:52:50Z</time>
      </trkpt>
      <trkpt lat="43.6586" lon="3.63244">
        <ele>321</ele>
        <time>2021-04-03T11:52:52Z</time>
      </trkpt>
      <trkpt lat="43.65858" lon="3.63242">
        <ele>321</ele>
        <time>2021-04-03T11:52:54Z</time>
      </trkpt>
      <trkpt lat="43.65856" lon="3.63239">
        <ele>321</ele>
        <time>2021-04-03T11:52:56Z</time>
      </trkpt>
      <trkpt lat="43.65854" lon="3.63237">
        <ele>321</ele>
        <time>2021-04-03T11:52:58Z</time>
      </trkpt>
      <trkpt lat="43.65852" lon="3.63235">
        <ele>321</ele>
        <time>2021-04-03T11:53:00Z</time>
      </trkpt>
      <trkpt lat="43.65849" lon="3.63233">
        <ele>321</ele>
        <time>2021-04-03T11:53:02Z</time>
      </trkpt>
      <trkpt lat="43.65847" lon="3.6323">
        <ele>321</ele>
        <time>2021-04-03T11:53:04Z</time>
      </trkpt>
      <trkpt lat="43.65845" lon="3.63228">
        <ele>321</ele>
        <time>2021-04-03T11:53:06Z</time>
      </trkpt>
      <trkpt lat="43.65843" lon="3.63226">
        <ele>321</ele>
        <time>2021-04-03T11:53:08Z</time>
      </trkpt>
      <trkpt lat="43.65842" lon="3.63224">
        <ele>321</ele>
        <time>2021-04-03T11:53:10Z</time>
      </trkpt>
      <trkpt lat="43.6584" lon="3.63222">
        <ele>321</ele>
        <time>2021-04-03T11:53:13Z</time>
      </trkpt>
      <trkpt lat="43.65839" lon="3.63219">
        <ele>321</ele>
        <time>2021-04-03T11:53:14Z</time>
      </trkpt>
      <trkpt lat="43.65838" lon="3.63216">
        <ele>321</ele>
        <time>2021-04-03T11:53:16Z</time>
      </trkpt>
      <trkpt lat="43.65837" lon="3.63213">
        <ele>321</ele>
        <time>2021-04-03T11:53:18Z</time>
      </trkpt>
      <trkpt lat="43.65835" lon="3.63211">
        <ele>321</ele>
        <time>2021-04-03T11:53:20Z</time>
      </trkpt>
      <trkpt lat="43.65833" lon="3.63211">
        <ele>321</ele>
        <time>2021-04-03T11:53:22Z</time>
      </trkpt>
      <trkpt lat="43.65831" lon="3.63211">
        <ele>321</ele>
        <time>2021-04-03T11:53:24Z</time>
      </trkpt>
      <trkpt lat="43.65829" lon="3.63212">
        <ele>321</ele>
        <time>2021-04-03T11:53:26Z</time>
      </trkpt>
      <trkpt lat="43.65826" lon="3.63212">
        <ele>321</ele>
        <time>2021-04-03T11:53:28Z</time>
      </trkpt>
      <trkpt lat="43.65823" lon="3.63212">
        <ele>321</ele>
        <time>2021-04-03T11:53:30Z</time>
      </trkpt>
      <trkpt lat="43.65821" lon="3.63211">
        <ele>329</ele>
        <time>2021-04-03T11:53:32Z</time>
      </trkpt>
      <trkpt lat="43.65819" lon="3.63211">
        <ele>329</ele>
        <time>2021-04-03T11:53:34Z</time>
      </trkpt>
      <trkpt lat="43.65816" lon="3.6321">
        <ele>329</ele>
        <time>2021-04-03T11:53:36Z</time>
      </trkpt>
      <trkpt lat="43.65814" lon="3.6321">
        <ele>329</ele>
        <time>2021-04-03T11:53:38Z</time>
      </trkpt>
      <trkpt lat="43.65811" lon="3.63211">
        <ele>329</ele>
        <time>2021-04-03T11:53:40Z</time>
      </trkpt>
      <trkpt lat="43.65808" lon="3.6321">
        <ele>330</ele>
        <time>2021-04-03T11:53:42Z</time>
      </trkpt>
      <trkpt lat="43.65806" lon="3.63211">
        <ele>330</ele>
        <time>2021-04-03T11:53:44Z</time>
      </trkpt>
      <trkpt lat="43.65804" lon="3.63212">
        <ele>330</ele>
        <time>2021-04-03T11:53:46Z</time>
      </trkpt>
      <trkpt lat="43.65802" lon="3.63214">
        <ele>330</ele>
        <time>2021-04-03T11:53:48Z</time>
      </trkpt>
      <trkpt lat="43.658" lon="3.63214">
        <ele>330</ele>
        <time>2021-04-03T11:53:50Z</time>
      </trkpt>
      <trkpt lat="43.65801" lon="3.63212">
        <ele>330</ele>
        <time>2021-04-03T11:53:54Z</time>
      </trkpt>
      <trkpt lat="43.65803" lon="3.63212">
        <ele>330</ele>
        <time>2021-04-03T11:53:55Z</time>
      </trkpt>
      <trkpt lat="43.65806" lon="3.63212">
        <ele>330</ele>
        <time>2021-04-03T11:53:57Z</time>
      </trkpt>
      <trkpt lat="43.65807" lon="3.63211">
        <ele>330</ele>
        <time>2021-04-03T11:54:03Z</time>
      </trkpt>
      <trkpt lat="43.6581" lon="3.6321">
        <ele>330</ele>
        <time>2021-04-03T11:54:04Z</time>
      </trkpt>
      <trkpt lat="43.65813" lon="3.6321">
        <ele>330</ele>
        <time>2021-04-03T11:54:05Z</time>
      </trkpt>
      <trkpt lat="43.65816" lon="3.6321">
        <ele>330</ele>
        <time>2021-04-03T11:54:06Z</time>
      </trkpt>
      <trkpt lat="43.65819" lon="3.6321">
        <ele>330</ele>
        <time>2021-04-03T11:54:07Z</time>
      </trkpt>
      <trkpt lat="43.65822" lon="3.6321">
        <ele>330</ele>
        <time>2021-04-03T11:54:08Z</time>
      </trkpt>
      <trkpt lat="43.65824" lon="3.6321">
        <ele>330</ele>
        <time>2021-04-03T11:54:09Z</time>
      </trkpt>
      <trkpt lat="43.65826" lon="3.63211">
        <ele>330</ele>
        <time>2021-04-03T11:54:10Z</time>
      </trkpt>
      <trkpt lat="43.65828" lon="3.63211">
        <ele>330</ele>
        <time>2021-04-03T11:54:11Z</time>
      </trkpt>
      <trkpt lat="43.65831" lon="3.6321">
        <ele>330</ele>
        <time>2021-04-03T11:54:13Z</time>
      </trkpt>
      <trkpt lat="43.65833" lon="3.63209">
        <ele>330</ele>
        <time>2021-04-03T11:54:14Z</time>
      </trkpt>
      <trkpt lat="43.65835" lon="3.63208">
        <ele>330</ele>
        <time>2021-04-03T11:54:15Z</time>
      </trkpt>
      <trkpt lat="43.65838" lon="3.63206">
        <ele>330</ele>
        <time>2021-04-03T11:54:17Z</time>
      </trkpt>
      <trkpt lat="43.65839" lon="3.63202">
        <ele>331</ele>
        <time>2021-04-03T11:54:53Z</time>
      </trkpt>
      <trkpt lat="43.65839" lon="3.63202">
        <ele>331</ele>
        <time>2021-04-03T11:54:57Z</time>
      </trkpt>
      <trkpt lat="43.65836" lon="3.63196">
        <ele>330</ele>
        <time>2021-04-03T11:55:21Z</time>
      </trkpt>
      <trkpt lat="43.65835" lon="3.63195">
        <ele>330</ele>
        <time>2021-04-03T11:55:28Z</time>
      </trkpt>
      <trkpt lat="43.65839" lon="3.63193">
        <ele>331</ele>
        <time>2021-04-03T12:00:43Z</time>
      </trkpt>
      <trkpt lat="43.65838" lon="3.63192">
        <ele>330</ele>
        <time>2021-04-03T12:01:44Z</time>
      </trkpt>
      <trkpt lat="43.65838" lon="3.63191">
        <ele>330</ele>
        <time>2021-04-03T12:01:50Z</time>
      </trkpt>
      <trkpt lat="43.65837" lon="3.63197">
        <ele>330</ele>
        <time>2021-04-03T12:02:05Z</time>
      </trkpt>
      <trkpt lat="43.65836" lon="3.63199">
        <ele>330</ele>
        <time>2021-04-03T12:02:08Z</time>
      </trkpt>
      <trkpt lat="43.65835" lon="3.63199">
        <ele>330</ele>
        <time>2021-04-03T12:02:14Z</time>
      </trkpt>
      <trkpt lat="43.65833" lon="3.63199">
        <ele>328</ele>
        <time>2021-04-03T12:06:45Z</time>
      </trkpt>
      <trkpt lat="43.65837" lon="3.63203">
        <ele>329</ele>
        <time>2021-04-03T12:07:29Z</time>
      </trkpt>
      <trkpt lat="43.65837" lon="3.63205">
        <ele>329</ele>
        <time>2021-04-03T12:07:30Z</time>
      </trkpt>
      <trkpt lat="43.65839" lon="3.63209">
        <ele>329</ele>
        <time>2021-04-03T12:07:33Z</time>
      </trkpt>
      <trkpt lat="43.6584" lon="3.63212">
        <ele>329</ele>
        <time>2021-04-03T12:07:35Z</time>
      </trkpt>
      <trkpt lat="43.65841" lon="3.63215">
        <ele>329</ele>
        <time>2021-04-03T12:07:38Z</time>
      </trkpt>
      <trkpt lat="43.65839" lon="3.63208">
        <ele>328</ele>
        <time>2021-04-03T12:08:09Z</time>
      </trkpt>
      <trkpt lat="43.65838" lon="3.63207">
        <ele>328</ele>
        <time>2021-04-03T12:08:16Z</time>
      </trkpt>
      <trkpt lat="43.65835" lon="3.63196">
        <ele>328</ele>
        <time>2021-04-03T12:08:41Z</time>
      </trkpt>
      <trkpt lat="43.65835" lon="3.63195">
        <ele>328</ele>
        <time>2021-04-03T12:08:48Z</time>
      </trkpt>
      <trkpt lat="43.65835" lon="3.63195">
        <ele>328</ele>
        <time>2021-04-03T12:08:49Z</time>
      </trkpt>
      <trkpt lat="43.6583" lon="3.63181">
        <ele>328</ele>
        <time>2021-04-03T12:11:18Z</time>
      </trkpt>
      <trkpt lat="43.65829" lon="3.63176">
        <ele>328</ele>
        <time>2021-04-03T12:11:19Z</time>
      </trkpt>
      <trkpt lat="43.65828" lon="3.63171">
        <ele>328</ele>
        <time>2021-04-03T12:11:20Z</time>
      </trkpt>
      <trkpt lat="43.65826" lon="3.63165">
        <ele>328</ele>
        <time>2021-04-03T12:11:21Z</time>
      </trkpt>
      <trkpt lat="43.65825" lon="3.63159">
        <ele>328</ele>
        <time>2021-04-03T12:11:22Z</time>
      </trkpt>
      <trkpt lat="43.65824" lon="3.63152">
        <ele>328</ele>
        <time>2021-04-03T12:11:23Z</time>
      </trkpt>
      <trkpt lat="43.65822" lon="3.63145">
        <ele>328</ele>
        <time>2021-04-03T12:11:24Z</time>
      </trkpt>
      <trkpt lat="43.65821" lon="3.63138">
        <ele>328</ele>
        <time>2021-04-03T12:11:25Z</time>
      </trkpt>
      <trkpt lat="43.65819" lon="3.63132">
        <ele>328</ele>
        <time>2021-04-03T12:11:26Z</time>
      </trkpt>
      <trkpt lat="43.65817" lon="3.63125">
        <ele>326</ele>
        <time>2021-04-03T12:11:27Z</time>
      </trkpt>
      <trkpt lat="43.65816" lon="3.63118">
        <ele>326</ele>
        <time>2021-04-03T12:11:28Z</time>
      </trkpt>
      <trkpt lat="43.65814" lon="3.63111">
        <ele>326</ele>
        <time>2021-04-03T12:11:29Z</time>
      </trkpt>
      <trkpt lat="43.65812" lon="3.63103">
        <ele>326</ele>
        <time>2021-04-03T12:11:30Z</time>
      </trkpt>
      <trkpt lat="43.65809" lon="3.63096">
        <ele>326</ele>
        <time>2021-04-03T12:11:31Z</time>
      </trkpt>
      <trkpt lat="43.65806" lon="3.63089">
        <ele>326</ele>
        <time>2021-04-03T12:11:32Z</time>
      </trkpt>
      <trkpt lat="43.65803" lon="3.63082">
        <ele>326</ele>
        <time>2021-04-03T12:11:33Z</time>
      </trkpt>
      <trkpt lat="43.658" lon="3.63075">
        <ele>326</ele>
        <time>2021-04-03T12:11:34Z</time>
      </trkpt>
      <trkpt lat="43.65797" lon="3.63068">
        <ele>326</ele>
        <time>2021-04-03T12:11:35Z</time>
      </trkpt>
      <trkpt lat="43.65793" lon="3.63061">
        <ele>326</ele>
        <time>2021-04-03T12:11:36Z</time>
      </trkpt>
      <trkpt lat="43.6579" lon="3.63054">
        <ele>326</ele>
        <time>2021-04-03T12:11:37Z</time>
      </trkpt>
      <trkpt lat="43.65787" lon="3.63047">
        <ele>325</ele>
        <time>2021-04-03T12:11:38Z</time>
      </trkpt>
      <trkpt lat="43.65784" lon="3.6304">
        <ele>325</ele>
        <time>2021-04-03T12:11:39Z</time>
      </trkpt>
      <trkpt lat="43.65781" lon="3.63033">
        <ele>325</ele>
        <time>2021-04-03T12:11:40Z</time>
      </trkpt>
      <trkpt lat="43.65779" lon="3.63025">
        <ele>325</ele>
        <time>2021-04-03T12:11:41Z</time>
      </trkpt>
      <trkpt lat="43.65777" lon="3.63018">
        <ele>325</ele>
        <time>2021-04-03T12:11:42Z</time>
      </trkpt>
      <trkpt lat="43.65776" lon="3.63011">
        <ele>325</ele>
        <time>2021-04-03T12:11:43Z</time>
      </trkpt>
      <trkpt lat="43.65774" lon="3.63004">
        <ele>325</ele>
        <time>2021-04-03T12:11:44Z</time>
      </trkpt>
      <trkpt lat="43.65773" lon="3.62998">
        <ele>325</ele>
        <time>2021-04-03T12:11:45Z</time>
      </trkpt>
      <trkpt lat="43.65773" lon="3.62991">
        <ele>325</ele>
        <time>2021-04-03T12:11:46Z</time>
      </trkpt>
      <trkpt lat="43.65772" lon="3.62985">
        <ele>324</ele>
        <time>2021-04-03T12:11:47Z</time>
      </trkpt>
      <trkpt lat="43.65771" lon="3.62978">
        <ele>324</ele>
        <time>2021-04-03T12:11:48Z</time>
      </trkpt>
      <trkpt lat="43.65771" lon="3.62972">
        <ele>324</ele>
        <time>2021-04-03T12:11:49Z</time>
      </trkpt>
      <trkpt lat="43.6577" lon="3.62966">
        <ele>324</ele>
        <time>2021-04-03T12:11:50Z</time>
      </trkpt>
      <trkpt lat="43.6577" lon="3.6296">
        <ele>324</ele>
        <time>2021-04-03T12:11:51Z</time>
      </trkpt>
      <trkpt lat="43.65769" lon="3.62954">
        <ele>324</ele>
        <time>2021-04-03T12:11:52Z</time>
      </trkpt>
      <trkpt lat="43.65769" lon="3.62947">
        <ele>324</ele>
        <time>2021-04-03T12:11:53Z</time>
      </trkpt>
      <trkpt lat="43.65768" lon="3.62941">
        <ele>324</ele>
        <time>2021-04-03T12:11:54Z</time>
      </trkpt>
      <trkpt lat="43.65768" lon="3.62933">
        <ele>324</ele>
        <time>2021-04-03T12:11:55Z</time>
      </trkpt>
      <trkpt lat="43.65768" lon="3.62926">
        <ele>324</ele>
        <time>2021-04-03T12:11:56Z</time>
      </trkpt>
      <trkpt lat="43.65767" lon="3.62919">
        <ele>324</ele>
        <time>2021-04-03T12:11:57Z</time>
      </trkpt>
      <trkpt lat="43.65767" lon="3.62911">
        <ele>323</ele>
        <time>2021-04-03T12:11:58Z</time>
      </trkpt>
      <trkpt lat="43.65767" lon="3.62902">
        <ele>323</ele>
        <time>2021-04-03T12:12:00Z</time>
      </trkpt>
      <trkpt lat="43.65765" lon="3.62885">
        <ele>323</ele>
        <time>2021-04-03T12:12:01Z</time>
      </trkpt>
      <trkpt lat="43.65764" lon="3.62877">
        <ele>323</ele>
        <time>2021-04-03T12:12:02Z</time>
      </trkpt>
      <trkpt lat="43.65763" lon="3.62869">
        <ele>323</ele>
        <time>2021-04-03T12:12:03Z</time>
      </trkpt>
      <trkpt lat="43.65762" lon="3.62861">
        <ele>323</ele>
        <time>2021-04-03T12:12:04Z</time>
      </trkpt>
      <trkpt lat="43.65762" lon="3.62852">
        <ele>323</ele>
        <time>2021-04-03T12:12:05Z</time>
      </trkpt>
      <trkpt lat="43.65762" lon="3.62844">
        <ele>323</ele>
        <time>2021-04-03T12:12:06Z</time>
      </trkpt>
      <trkpt lat="43.65762" lon="3.62834">
        <ele>323</ele>
        <time>2021-04-03T12:12:07Z</time>
      </trkpt>
      <trkpt lat="43.65762" lon="3.62825">
        <ele>320</ele>
        <time>2021-04-03T12:12:08Z</time>
      </trkpt>
      <trkpt lat="43.6576" lon="3.62816">
        <ele>320</ele>
        <time>2021-04-03T12:12:09Z</time>
      </trkpt>
      <trkpt lat="43.65759" lon="3.62809">
        <ele>320</ele>
        <time>2021-04-03T12:12:10Z</time>
      </trkpt>
      <trkpt lat="43.65756" lon="3.62803">
        <ele>320</ele>
        <time>2021-04-03T12:12:11Z</time>
      </trkpt>
      <trkpt lat="43.65753" lon="3.62797">
        <ele>320</ele>
        <time>2021-04-03T12:12:12Z</time>
      </trkpt>
      <trkpt lat="43.65751" lon="3.62791">
        <ele>320</ele>
        <time>2021-04-03T12:12:13Z</time>
      </trkpt>
      <trkpt lat="43.65749" lon="3.62785">
        <ele>320</ele>
        <time>2021-04-03T12:12:14Z</time>
      </trkpt>
      <trkpt lat="43.65747" lon="3.62779">
        <ele>320</ele>
        <time>2021-04-03T12:12:15Z</time>
      </trkpt>
      <trkpt lat="43.65746" lon="3.62771">
        <ele>320</ele>
        <time>2021-04-03T12:12:16Z</time>
      </trkpt>
      <trkpt lat="43.65744" lon="3.62762">
        <ele>315</ele>
        <time>2021-04-03T12:12:17Z</time>
      </trkpt>
      <trkpt lat="43.65742" lon="3.62752">
        <ele>315</ele>
        <time>2021-04-03T12:12:18Z</time>
      </trkpt>
      <trkpt lat="43.65739" lon="3.62742">
        <ele>315</ele>
        <time>2021-04-03T12:12:19Z</time>
      </trkpt>
      <trkpt lat="43.65736" lon="3.62732">
        <ele>315</ele>
        <time>2021-04-03T12:12:20Z</time>
      </trkpt>
      <trkpt lat="43.65732" lon="3.62721">
        <ele>315</ele>
        <time>2021-04-03T12:12:21Z</time>
      </trkpt>
      <trkpt lat="43.65727" lon="3.62711">
        <ele>315</ele>
        <time>2021-04-03T12:12:22Z</time>
      </trkpt>
      <trkpt lat="43.65722" lon="3.62702">
        <ele>315</ele>
        <time>2021-04-03T12:12:23Z</time>
      </trkpt>
      <trkpt lat="43.65718" lon="3.62691">
        <ele>315</ele>
        <time>2021-04-03T12:12:24Z</time>
      </trkpt>
      <trkpt lat="43.65715" lon="3.6268">
        <ele>315</ele>
        <time>2021-04-03T12:12:25Z</time>
      </trkpt>
      <trkpt lat="43.65712" lon="3.62669">
        <ele>315</ele>
        <time>2021-04-03T12:12:26Z</time>
      </trkpt>
      <trkpt lat="43.6571" lon="3.62658">
        <ele>310</ele>
        <time>2021-04-03T12:12:27Z</time>
      </trkpt>
      <trkpt lat="43.65708" lon="3.62647">
        <ele>310</ele>
        <time>2021-04-03T12:12:28Z</time>
      </trkpt>
      <trkpt lat="43.65706" lon="3.62637">
        <ele>310</ele>
        <time>2021-04-03T12:12:29Z</time>
      </trkpt>
      <trkpt lat="43.65704" lon="3.62627">
        <ele>310</ele>
        <time>2021-04-03T12:12:30Z</time>
      </trkpt>
      <trkpt lat="43.65702" lon="3.62619">
        <ele>310</ele>
        <time>2021-04-03T12:12:31Z</time>
      </trkpt>
      <trkpt lat="43.65701" lon="3.62611">
        <ele>310</ele>
        <time>2021-04-03T12:12:32Z</time>
      </trkpt>
      <trkpt lat="43.657" lon="3.62603">
        <ele>310</ele>
        <time>2021-04-03T12:12:33Z</time>
      </trkpt>
      <trkpt lat="43.65699" lon="3.62595">
        <ele>310</ele>
        <time>2021-04-03T12:12:34Z</time>
      </trkpt>
      <trkpt lat="43.65698" lon="3.62588">
        <ele>310</ele>
        <time>2021-04-03T12:12:35Z</time>
      </trkpt>
      <trkpt lat="43.65697" lon="3.62582">
        <ele>310</ele>
        <time>2021-04-03T12:12:36Z</time>
      </trkpt>
      <trkpt lat="43.65696" lon="3.62577">
        <ele>307</ele>
        <time>2021-04-03T12:12:37Z</time>
      </trkpt>
      <trkpt lat="43.65695" lon="3.62568">
        <ele>307</ele>
        <time>2021-04-03T12:12:39Z</time>
      </trkpt>
      <trkpt lat="43.65694" lon="3.62564">
        <ele>307</ele>
        <time>2021-04-03T12:12:40Z</time>
      </trkpt>
      <trkpt lat="43.65693" lon="3.6256">
        <ele>307</ele>
        <time>2021-04-03T12:12:41Z</time>
      </trkpt>
      <trkpt lat="43.65692" lon="3.62556">
        <ele>307</ele>
        <time>2021-04-03T12:12:42Z</time>
      </trkpt>
      <trkpt lat="43.65692" lon="3.62552">
        <ele>307</ele>
        <time>2021-04-03T12:12:43Z</time>
      </trkpt>
      <trkpt lat="43.65691" lon="3.62548">
        <ele>307</ele>
        <time>2021-04-03T12:12:44Z</time>
      </trkpt>
      <trkpt lat="43.65691" lon="3.62544">
        <ele>307</ele>
        <time>2021-04-03T12:12:45Z</time>
      </trkpt>
      <trkpt lat="43.65693" lon="3.62541">
        <ele>307</ele>
        <time>2021-04-03T12:12:46Z</time>
      </trkpt>
      <trkpt lat="43.65694" lon="3.62539">
        <ele>306</ele>
        <time>2021-04-03T12:12:47Z</time>
      </trkpt>
      <trkpt lat="43.65697" lon="3.62537">
        <ele>306</ele>
        <time>2021-04-03T12:12:49Z</time>
      </trkpt>
      <trkpt lat="43.65699" lon="3.62535">
        <ele>306</ele>
        <time>2021-04-03T12:12:50Z</time>
      </trkpt>
      <trkpt lat="43.65702" lon="3.62533">
        <ele>306</ele>
        <time>2021-04-03T12:12:52Z</time>
      </trkpt>
      <trkpt lat="43.65705" lon="3.62532">
        <ele>306</ele>
        <time>2021-04-03T12:12:54Z</time>
      </trkpt>
      <trkpt lat="43.65708" lon="3.62532">
        <ele>306</ele>
        <time>2021-04-03T12:12:56Z</time>
      </trkpt>
      <trkpt lat="43.65711" lon="3.62531">
        <ele>305</ele>
        <time>2021-04-03T12:12:58Z</time>
      </trkpt>
      <trkpt lat="43.65714" lon="3.6253">
        <ele>305</ele>
        <time>2021-04-03T12:13:00Z</time>
      </trkpt>
      <trkpt lat="43.65716" lon="3.6253">
        <ele>305</ele>
        <time>2021-04-03T12:13:01Z</time>
      </trkpt>
      <trkpt lat="43.65719" lon="3.6253">
        <ele>305</ele>
        <time>2021-04-03T12:13:03Z</time>
      </trkpt>
      <trkpt lat="43.65718" lon="3.62531">
        <ele>304</ele>
        <time>2021-04-03T12:13:11Z</time>
      </trkpt>
      <trkpt lat="43.65712" lon="3.62531">
        <ele>304</ele>
        <time>2021-04-03T12:13:28Z</time>
      </trkpt>
      <trkpt lat="43.65709" lon="3.62531">
        <ele>304</ele>
        <time>2021-04-03T12:13:30Z</time>
      </trkpt>
      <trkpt lat="43.65707" lon="3.62531">
        <ele>304</ele>
        <time>2021-04-03T12:13:33Z</time>
      </trkpt>
      <trkpt lat="43.65699" lon="3.62524">
        <ele>303</ele>
        <time>2021-04-03T12:14:07Z</time>
      </trkpt>
      <trkpt lat="43.65699" lon="3.62521">
        <ele>303</ele>
        <time>2021-04-03T12:14:08Z</time>
      </trkpt>
      <trkpt lat="43.65698" lon="3.62514">
        <ele>303</ele>
        <time>2021-04-03T12:14:09Z</time>
      </trkpt>
      <trkpt lat="43.65697" lon="3.62511">
        <ele>303</ele>
        <time>2021-04-03T12:14:10Z</time>
      </trkpt>
      <trkpt lat="43.65697" lon="3.62507">
        <ele>303</ele>
        <time>2021-04-03T12:14:11Z</time>
      </trkpt>
      <trkpt lat="43.65696" lon="3.62504">
        <ele>303</ele>
        <time>2021-04-03T12:14:12Z</time>
      </trkpt>
      <trkpt lat="43.65695" lon="3.62501">
        <ele>303</ele>
        <time>2021-04-03T12:14:13Z</time>
      </trkpt>
      <trkpt lat="43.65694" lon="3.62499">
        <ele>303</ele>
        <time>2021-04-03T12:14:14Z</time>
      </trkpt>
      <trkpt lat="43.65692" lon="3.62497">
        <ele>303</ele>
        <time>2021-04-03T12:14:15Z</time>
      </trkpt>
      <trkpt lat="43.65691" lon="3.62495">
        <ele>303</ele>
        <time>2021-04-03T12:14:16Z</time>
      </trkpt>
      <trkpt lat="43.65689" lon="3.62494">
        <ele>303</ele>
        <time>2021-04-03T12:14:17Z</time>
      </trkpt>
      <trkpt lat="43.65687" lon="3.62493">
        <ele>303</ele>
        <time>2021-04-03T12:14:18Z</time>
      </trkpt>
      <trkpt lat="43.65685" lon="3.62493">
        <ele>303</ele>
        <time>2021-04-03T12:14:19Z</time>
      </trkpt>
      <trkpt lat="43.65682" lon="3.62492">
        <ele>303</ele>
        <time>2021-04-03T12:14:20Z</time>
      </trkpt>
      <trkpt lat="43.6568" lon="3.62493">
        <ele>303</ele>
        <time>2021-04-03T12:14:21Z</time>
      </trkpt>
      <trkpt lat="43.65678" lon="3.62493">
        <ele>303</ele>
        <time>2021-04-03T12:14:22Z</time>
      </trkpt>
      <trkpt lat="43.65676" lon="3.62495">
        <ele>303</ele>
        <time>2021-04-03T12:14:23Z</time>
      </trkpt>
      <trkpt lat="43.65674" lon="3.62497">
        <ele>303</ele>
        <time>2021-04-03T12:14:24Z</time>
      </trkpt>
      <trkpt lat="43.65672" lon="3.62499">
        <ele>303</ele>
        <time>2021-04-03T12:14:25Z</time>
      </trkpt>
      <trkpt lat="43.6567" lon="3.62502">
        <ele>303</ele>
        <time>2021-04-03T12:14:26Z</time>
      </trkpt>
      <trkpt lat="43.65668" lon="3.62506">
        <ele>302</ele>
        <time>2021-04-03T12:14:27Z</time>
      </trkpt>
      <trkpt lat="43.65667" lon="3.62509">
        <ele>302</ele>
        <time>2021-04-03T12:14:28Z</time>
      </trkpt>
      <trkpt lat="43.65665" lon="3.62514">
        <ele>302</ele>
        <time>2021-04-03T12:14:29Z</time>
      </trkpt>
      <trkpt lat="43.65663" lon="3.62518">
        <ele>302</ele>
        <time>2021-04-03T12:14:30Z</time>
      </trkpt>
      <trkpt lat="43.6566" lon="3.62522">
        <ele>302</ele>
        <time>2021-04-03T12:14:31Z</time>
      </trkpt>
      <trkpt lat="43.65658" lon="3.62527">
        <ele>302</ele>
        <time>2021-04-03T12:14:32Z</time>
      </trkpt>
      <trkpt lat="43.65656" lon="3.62532">
        <ele>302</ele>
        <time>2021-04-03T12:14:33Z</time>
      </trkpt>
      <trkpt lat="43.65653" lon="3.62537">
        <ele>302</ele>
        <time>2021-04-03T12:14:34Z</time>
      </trkpt>
      <trkpt lat="43.65651" lon="3.62543">
        <ele>302</ele>
        <time>2021-04-03T12:14:35Z</time>
      </trkpt>
      <trkpt lat="43.6565" lon="3.6255">
        <ele>301</ele>
        <time>2021-04-03T12:14:36Z</time>
      </trkpt>
      <trkpt lat="43.65649" lon="3.62557">
        <ele>301</ele>
        <time>2021-04-03T12:14:37Z</time>
      </trkpt>
      <trkpt lat="43.65648" lon="3.62564">
        <ele>301</ele>
        <time>2021-04-03T12:14:38Z</time>
      </trkpt>
      <trkpt lat="43.65649" lon="3.62572">
        <ele>301</ele>
        <time>2021-04-03T12:14:39Z</time>
      </trkpt>
      <trkpt lat="43.6565" lon="3.6258">
        <ele>301</ele>
        <time>2021-04-03T12:14:40Z</time>
      </trkpt>
      <trkpt lat="43.65655" lon="3.62597">
        <ele>301</ele>
        <time>2021-04-03T12:14:42Z</time>
      </trkpt>
      <trkpt lat="43.65658" lon="3.62606">
        <ele>301</ele>
        <time>2021-04-03T12:14:43Z</time>
      </trkpt>
      <trkpt lat="43.6566" lon="3.62615">
        <ele>301</ele>
        <time>2021-04-03T12:14:44Z</time>
      </trkpt>
      <trkpt lat="43.65663" lon="3.62625">
        <ele>301</ele>
        <time>2021-04-03T12:14:45Z</time>
      </trkpt>
      <trkpt lat="43.65665" lon="3.62634">
        <ele>301</ele>
        <time>2021-04-03T12:14:46Z</time>
      </trkpt>
      <trkpt lat="43.65668" lon="3.62644">
        <ele>300</ele>
        <time>2021-04-03T12:14:47Z</time>
      </trkpt>
      <trkpt lat="43.65671" lon="3.62654">
        <ele>300</ele>
        <time>2021-04-03T12:14:48Z</time>
      </trkpt>
      <trkpt lat="43.65673" lon="3.62664">
        <ele>300</ele>
        <time>2021-04-03T12:14:49Z</time>
      </trkpt>
      <trkpt lat="43.65675" lon="3.62674">
        <ele>300</ele>
        <time>2021-04-03T12:14:50Z</time>
      </trkpt>
      <trkpt lat="43.65677" lon="3.62683">
        <ele>300</ele>
        <time>2021-04-03T12:14:51Z</time>
      </trkpt>
      <trkpt lat="43.6568" lon="3.62693">
        <ele>300</ele>
        <time>2021-04-03T12:14:52Z</time>
      </trkpt>
      <trkpt lat="43.65682" lon="3.62702">
        <ele>300</ele>
        <time>2021-04-03T12:14:53Z</time>
      </trkpt>
      <trkpt lat="43.65685" lon="3.62711">
        <ele>300</ele>
        <time>2021-04-03T12:14:54Z</time>
      </trkpt>
      <trkpt lat="43.65687" lon="3.62721">
        <ele>300</ele>
        <time>2021-04-03T12:14:55Z</time>
      </trkpt>
      <trkpt lat="43.65689" lon="3.6273">
        <ele>300</ele>
        <time>2021-04-03T12:14:56Z</time>
      </trkpt>
      <trkpt lat="43.65692" lon="3.62739">
        <ele>296</ele>
        <time>2021-04-03T12:14:57Z</time>
      </trkpt>
      <trkpt lat="43.65694" lon="3.62748">
        <ele>296</ele>
        <time>2021-04-03T12:14:58Z</time>
      </trkpt>
      <trkpt lat="43.65696" lon="3.62758">
        <ele>296</ele>
        <time>2021-04-03T12:14:59Z</time>
      </trkpt>
      <trkpt lat="43.65698" lon="3.62768">
        <ele>296</ele>
        <time>2021-04-03T12:15:00Z</time>
      </trkpt>
      <trkpt lat="43.65699" lon="3.62779">
        <ele>296</ele>
        <time>2021-04-03T12:15:01Z</time>
      </trkpt>
      <trkpt lat="43.65701" lon="3.62789">
        <ele>296</ele>
        <time>2021-04-03T12:15:02Z</time>
      </trkpt>
      <trkpt lat="43.65701" lon="3.62799">
        <ele>296</ele>
        <time>2021-04-03T12:15:03Z</time>
      </trkpt>
      <trkpt lat="43.65701" lon="3.62809">
        <ele>296</ele>
        <time>2021-04-03T12:15:04Z</time>
      </trkpt>
      <trkpt lat="43.65699" lon="3.62817">
        <ele>296</ele>
        <time>2021-04-03T12:15:05Z</time>
      </trkpt>
      <trkpt lat="43.65698" lon="3.62823">
        <ele>296</ele>
        <time>2021-04-03T12:15:06Z</time>
      </trkpt>
      <trkpt lat="43.65697" lon="3.62829">
        <ele>294</ele>
        <time>2021-04-03T12:15:07Z</time>
      </trkpt>
      <trkpt lat="43.65696" lon="3.62835">
        <ele>294</ele>
        <time>2021-04-03T12:15:08Z</time>
      </trkpt>
      <trkpt lat="43.65695" lon="3.62839">
        <ele>294</ele>
        <time>2021-04-03T12:15:09Z</time>
      </trkpt>
      <trkpt lat="43.65693" lon="3.62841">
        <ele>294</ele>
        <time>2021-04-03T12:15:10Z</time>
      </trkpt>
      <trkpt lat="43.65691" lon="3.6284">
        <ele>294</ele>
        <time>2021-04-03T12:15:11Z</time>
      </trkpt>
      <trkpt lat="43.65689" lon="3.62839">
        <ele>294</ele>
        <time>2021-04-03T12:15:12Z</time>
      </trkpt>
      <trkpt lat="43.65687" lon="3.62839">
        <ele>294</ele>
        <time>2021-04-03T12:15:13Z</time>
      </trkpt>
      <trkpt lat="43.65685" lon="3.62839">
        <ele>294</ele>
        <time>2021-04-03T12:15:14Z</time>
      </trkpt>
      <trkpt lat="43.65681" lon="3.62839">
        <ele>291</ele>
        <time>2021-04-03T12:15:16Z</time>
      </trkpt>
      <trkpt lat="43.65679" lon="3.62838">
        <ele>291</ele>
        <time>2021-04-03T12:15:17Z</time>
      </trkpt>
      <trkpt lat="43.65669" lon="3.62831">
        <ele>291</ele>
        <time>2021-04-03T12:15:20Z</time>
      </trkpt>
      <trkpt lat="43.65663" lon="3.62819">
        <ele>291</ele>
        <time>2021-04-03T12:15:22Z</time>
      </trkpt>
      <trkpt lat="43.6566" lon="3.62813">
        <ele>291</ele>
        <time>2021-04-03T12:15:23Z</time>
      </trkpt>
      <trkpt lat="43.65656" lon="3.62807">
        <ele>291</ele>
        <time>2021-04-03T12:15:24Z</time>
      </trkpt>
      <trkpt lat="43.65652" lon="3.62802">
        <ele>291</ele>
        <time>2021-04-03T12:15:25Z</time>
      </trkpt>
      <trkpt lat="43.65648" lon="3.62797">
        <ele>291</ele>
        <time>2021-04-03T12:15:26Z</time>
      </trkpt>
      <trkpt lat="43.65644" lon="3.62792">
        <ele>288</ele>
        <time>2021-04-03T12:15:27Z</time>
      </trkpt>
      <trkpt lat="43.6564" lon="3.62788">
        <ele>288</ele>
        <time>2021-04-03T12:15:28Z</time>
      </trkpt>
      <trkpt lat="43.65637" lon="3.62784">
        <ele>288</ele>
        <time>2021-04-03T12:15:29Z</time>
      </trkpt>
      <trkpt lat="43.65634" lon="3.6278">
        <ele>288</ele>
        <time>2021-04-03T12:15:30Z</time>
      </trkpt>
      <trkpt lat="43.65631" lon="3.62777">
        <ele>288</ele>
        <time>2021-04-03T12:15:31Z</time>
      </trkpt>
      <trkpt lat="43.65628" lon="3.62774">
        <ele>288</ele>
        <time>2021-04-03T12:15:32Z</time>
      </trkpt>
      <trkpt lat="43.65625" lon="3.62771">
        <ele>288</ele>
        <time>2021-04-03T12:15:33Z</time>
      </trkpt>
      <trkpt lat="43.65622" lon="3.6277">
        <ele>288</ele>
        <time>2021-04-03T12:15:34Z</time>
      </trkpt>
      <trkpt lat="43.65619" lon="3.62768">
        <ele>288</ele>
        <time>2021-04-03T12:15:35Z</time>
      </trkpt>
      <trkpt lat="43.65617" lon="3.62765">
        <ele>286</ele>
        <time>2021-04-03T12:15:36Z</time>
      </trkpt>
      <trkpt lat="43.65612" lon="3.62759">
        <ele>286</ele>
        <time>2021-04-03T12:15:38Z</time>
      </trkpt>
      <trkpt lat="43.6561" lon="3.62757">
        <ele>286</ele>
        <time>2021-04-03T12:15:39Z</time>
      </trkpt>
      <trkpt lat="43.65607" lon="3.62755">
        <ele>286</ele>
        <time>2021-04-03T12:15:40Z</time>
      </trkpt>
      <trkpt lat="43.65604" lon="3.62752">
        <ele>286</ele>
        <time>2021-04-03T12:15:41Z</time>
      </trkpt>
      <trkpt lat="43.65602" lon="3.62751">
        <ele>286</ele>
        <time>2021-04-03T12:15:42Z</time>
      </trkpt>
      <trkpt lat="43.65599" lon="3.62749">
        <ele>286</ele>
        <time>2021-04-03T12:15:43Z</time>
      </trkpt>
      <trkpt lat="43.65597" lon="3.62748">
        <ele>286</ele>
        <time>2021-04-03T12:15:44Z</time>
      </trkpt>
      <trkpt lat="43.65595" lon="3.62747">
        <ele>286</ele>
        <time>2021-04-03T12:15:45Z</time>
      </trkpt>
      <trkpt lat="43.65593" lon="3.62747">
        <ele>286</ele>
        <time>2021-04-03T12:15:46Z</time>
      </trkpt>
      <trkpt lat="43.65591" lon="3.62746">
        <ele>286</ele>
        <time>2021-04-03T12:15:47Z</time>
      </trkpt>
      <trkpt lat="43.65589" lon="3.62745">
        <ele>286</ele>
        <time>2021-04-03T12:15:48Z</time>
      </trkpt>
      <trkpt lat="43.65587" lon="3.62744">
        <ele>286</ele>
        <time>2021-04-03T12:15:49Z</time>
      </trkpt>
      <trkpt lat="43.65585" lon="3.62743">
        <ele>286</ele>
        <time>2021-04-03T12:15:50Z</time>
      </trkpt>
      <trkpt lat="43.65583" lon="3.62742">
        <ele>286</ele>
        <time>2021-04-03T12:15:51Z</time>
      </trkpt>
      <trkpt lat="43.65581" lon="3.62742">
        <ele>286</ele>
        <time>2021-04-03T12:15:52Z</time>
      </trkpt>
      <trkpt lat="43.65578" lon="3.62741">
        <ele>286</ele>
        <time>2021-04-03T12:15:53Z</time>
      </trkpt>
      <trkpt lat="43.65576" lon="3.62741">
        <ele>286</ele>
        <time>2021-04-03T12:15:54Z</time>
      </trkpt>
      <trkpt lat="43.65574" lon="3.6274">
        <ele>286</ele>
        <time>2021-04-03T12:15:55Z</time>
      </trkpt>
      <trkpt lat="43.65572" lon="3.6274">
        <ele>287</ele>
        <time>2021-04-03T12:15:56Z</time>
      </trkpt>
      <trkpt lat="43.6557" lon="3.6274">
        <ele>287</ele>
        <time>2021-04-03T12:15:57Z</time>
      </trkpt>
      <trkpt lat="43.65568" lon="3.62739">
        <ele>287</ele>
        <time>2021-04-03T12:15:58Z</time>
      </trkpt>
      <trkpt lat="43.65564" lon="3.62739">
        <ele>287</ele>
        <time>2021-04-03T12:16:00Z</time>
      </trkpt>
      <trkpt lat="43.65563" lon="3.62739">
        <ele>287</ele>
        <time>2021-04-03T12:16:01Z</time>
      </trkpt>
      <trkpt lat="43.65559" lon="3.62739">
        <ele>287</ele>
        <time>2021-04-03T12:16:03Z</time>
      </trkpt>
      <trkpt lat="43.65556" lon="3.62739">
        <ele>287</ele>
        <time>2021-04-03T12:16:05Z</time>
      </trkpt>
      <trkpt lat="43.65552" lon="3.6274">
        <ele>287</ele>
        <time>2021-04-03T12:16:07Z</time>
      </trkpt>
      <trkpt lat="43.6555" lon="3.6274">
        <ele>287</ele>
        <time>2021-04-03T12:16:08Z</time>
      </trkpt>
      <trkpt lat="43.65547" lon="3.6274">
        <ele>287</ele>
        <time>2021-04-03T12:16:10Z</time>
      </trkpt>
      <trkpt lat="43.65545" lon="3.62741">
        <ele>287</ele>
        <time>2021-04-03T12:16:11Z</time>
      </trkpt>
      <trkpt lat="43.65543" lon="3.62741">
        <ele>287</ele>
        <time>2021-04-03T12:16:12Z</time>
      </trkpt>
      <trkpt lat="43.65541" lon="3.62742">
        <ele>287</ele>
        <time>2021-04-03T12:16:13Z</time>
      </trkpt>
      <trkpt lat="43.65538" lon="3.62744">
        <ele>287</ele>
        <time>2021-04-03T12:16:15Z</time>
      </trkpt>
      <trkpt lat="43.65536" lon="3.62746">
        <ele>287</ele>
        <time>2021-04-03T12:16:16Z</time>
      </trkpt>
      <trkpt lat="43.65533" lon="3.62749">
        <ele>287</ele>
        <time>2021-04-03T12:16:18Z</time>
      </trkpt>
      <trkpt lat="43.65531" lon="3.62751">
        <ele>287</ele>
        <time>2021-04-03T12:16:20Z</time>
      </trkpt>
      <trkpt lat="43.65528" lon="3.62755">
        <ele>287</ele>
        <time>2021-04-03T12:16:22Z</time>
      </trkpt>
      <trkpt lat="43.65526" lon="3.62758">
        <ele>287</ele>
        <time>2021-04-03T12:16:24Z</time>
      </trkpt>
      <trkpt lat="43.65524" lon="3.62761">
        <ele>287</ele>
        <time>2021-04-03T12:16:26Z</time>
      </trkpt>
      <trkpt lat="43.65521" lon="3.62764">
        <ele>287</ele>
        <time>2021-04-03T12:16:28Z</time>
      </trkpt>
      <trkpt lat="43.65519" lon="3.62767">
        <ele>287</ele>
        <time>2021-04-03T12:16:30Z</time>
      </trkpt>
      <trkpt lat="43.65517" lon="3.62771">
        <ele>287</ele>
        <time>2021-04-03T12:16:32Z</time>
      </trkpt>
      <trkpt lat="43.65515" lon="3.62774">
        <ele>287</ele>
        <time>2021-04-03T12:16:34Z</time>
      </trkpt>
      <trkpt lat="43.65513" lon="3.62777">
        <ele>287</ele>
        <time>2021-04-03T12:16:36Z</time>
      </trkpt>
      <trkpt lat="43.65512" lon="3.6278">
        <ele>287</ele>
        <time>2021-04-03T12:16:38Z</time>
      </trkpt>
      <trkpt lat="43.6551" lon="3.62783">
        <ele>287</ele>
        <time>2021-04-03T12:16:40Z</time>
      </trkpt>
      <trkpt lat="43.65508" lon="3.62787">
        <ele>287</ele>
        <time>2021-04-03T12:16:42Z</time>
      </trkpt>
      <trkpt lat="43.65506" lon="3.6279">
        <ele>287</ele>
        <time>2021-04-03T12:16:44Z</time>
      </trkpt>
      <trkpt lat="43.65505" lon="3.62793">
        <ele>292</ele>
        <time>2021-04-03T12:16:46Z</time>
      </trkpt>
      <trkpt lat="43.65503" lon="3.62796">
        <ele>292</ele>
        <time>2021-04-03T12:16:48Z</time>
      </trkpt>
      <trkpt lat="43.65501" lon="3.62798">
        <ele>292</ele>
        <time>2021-04-03T12:16:50Z</time>
      </trkpt>
      <trkpt lat="43.65498" lon="3.62801">
        <ele>292</ele>
        <time>2021-04-03T12:16:52Z</time>
      </trkpt>
      <trkpt lat="43.65496" lon="3.62802">
        <ele>292</ele>
        <time>2021-04-03T12:16:54Z</time>
      </trkpt>
      <trkpt lat="43.65493" lon="3.62803">
        <ele>292</ele>
        <time>2021-04-03T12:16:56Z</time>
      </trkpt>
      <trkpt lat="43.65491" lon="3.62804">
        <ele>292</ele>
        <time>2021-04-03T12:16:58Z</time>
      </trkpt>
      <trkpt lat="43.65488" lon="3.62803">
        <ele>292</ele>
        <time>2021-04-03T12:17:00Z</time>
      </trkpt>
      <trkpt lat="43.65485" lon="3.62801">
        <ele>292</ele>
        <time>2021-04-03T12:17:02Z</time>
      </trkpt>
      <trkpt lat="43.65482" lon="3.62799">
        <ele>292</ele>
        <time>2021-04-03T12:17:04Z</time>
      </trkpt>
      <trkpt lat="43.6548" lon="3.62799">
        <ele>292</ele>
        <time>2021-04-03T12:17:06Z</time>
      </trkpt>
      <trkpt lat="43.65478" lon="3.62802">
        <ele>292</ele>
        <time>2021-04-03T12:17:08Z</time>
      </trkpt>
      <trkpt lat="43.65477" lon="3.62805">
        <ele>292</ele>
        <time>2021-04-03T12:17:10Z</time>
      </trkpt>
      <trkpt lat="43.65476" lon="3.62809">
        <ele>292</ele>
        <time>2021-04-03T12:17:12Z</time>
      </trkpt>
      <trkpt lat="43.65475" lon="3.62812">
        <ele>292</ele>
        <time>2021-04-03T12:17:14Z</time>
      </trkpt>
      <trkpt lat="43.65474" lon="3.62816">
        <ele>297</ele>
        <time>2021-04-03T12:17:16Z</time>
      </trkpt>
      <trkpt lat="43.65471" lon="3.62819">
        <ele>297</ele>
        <time>2021-04-03T12:17:18Z</time>
      </trkpt>
      <trkpt lat="43.65469" lon="3.62821">
        <ele>297</ele>
        <time>2021-04-03T12:17:20Z</time>
      </trkpt>
      <trkpt lat="43.65466" lon="3.62823">
        <ele>297</ele>
        <time>2021-04-03T12:17:22Z</time>
      </trkpt>
      <trkpt lat="43.65463" lon="3.62824">
        <ele>297</ele>
        <time>2021-04-03T12:17:24Z</time>
      </trkpt>
      <trkpt lat="43.6546" lon="3.62826">
        <ele>298</ele>
        <time>2021-04-03T12:17:26Z</time>
      </trkpt>
      <trkpt lat="43.65456" lon="3.62826">
        <ele>298</ele>
        <time>2021-04-03T12:17:28Z</time>
      </trkpt>
      <trkpt lat="43.65454" lon="3.62827">
        <ele>298</ele>
        <time>2021-04-03T12:17:29Z</time>
      </trkpt>
      <trkpt lat="43.65452" lon="3.62827">
        <ele>298</ele>
        <time>2021-04-03T12:17:30Z</time>
      </trkpt>
      <trkpt lat="43.6545" lon="3.62827">
        <ele>298</ele>
        <time>2021-04-03T12:17:31Z</time>
      </trkpt>
      <trkpt lat="43.65448" lon="3.62826">
        <ele>298</ele>
        <time>2021-04-03T12:17:32Z</time>
      </trkpt>
      <trkpt lat="43.65445" lon="3.62825">
        <ele>298</ele>
        <time>2021-04-03T12:17:33Z</time>
      </trkpt>
      <trkpt lat="43.65443" lon="3.62824">
        <ele>298</ele>
        <time>2021-04-03T12:17:34Z</time>
      </trkpt>
      <trkpt lat="43.65442" lon="3.62821">
        <ele>298</ele>
        <time>2021-04-03T12:17:35Z</time>
      </trkpt>
      <trkpt lat="43.65441" lon="3.62818">
        <ele>298</ele>
        <time>2021-04-03T12:17:36Z</time>
      </trkpt>
      <trkpt lat="43.65439" lon="3.62816">
        <ele>298</ele>
        <time>2021-04-03T12:17:37Z</time>
      </trkpt>
      <trkpt lat="43.65438" lon="3.62812">
        <ele>298</ele>
        <time>2021-04-03T12:17:38Z</time>
      </trkpt>
      <trkpt lat="43.65437" lon="3.62808">
        <ele>298</ele>
        <time>2021-04-03T12:17:39Z</time>
      </trkpt>
      <trkpt lat="43.65437" lon="3.62804">
        <ele>298</ele>
        <time>2021-04-03T12:17:40Z</time>
      </trkpt>
      <trkpt lat="43.65437" lon="3.62801">
        <ele>298</ele>
        <time>2021-04-03T12:17:41Z</time>
      </trkpt>
      <trkpt lat="43.65437" lon="3.62798">
        <ele>298</ele>
        <time>2021-04-03T12:17:42Z</time>
      </trkpt>
      <trkpt lat="43.65437" lon="3.62793">
        <ele>298</ele>
        <time>2021-04-03T12:17:44Z</time>
      </trkpt>
      <trkpt lat="43.65437" lon="3.6279">
        <ele>298</ele>
        <time>2021-04-03T12:17:45Z</time>
      </trkpt>
      <trkpt lat="43.65437" lon="3.62788">
        <ele>297</ele>
        <time>2021-04-03T12:17:46Z</time>
      </trkpt>
      <trkpt lat="43.65437" lon="3.62784">
        <ele>297</ele>
        <time>2021-04-03T12:17:47Z</time>
      </trkpt>
      <trkpt lat="43.65437" lon="3.62781">
        <ele>297</ele>
        <time>2021-04-03T12:17:48Z</time>
      </trkpt>
      <trkpt lat="43.65437" lon="3.62778">
        <ele>297</ele>
        <time>2021-04-03T12:17:49Z</time>
      </trkpt>
      <trkpt lat="43.65436" lon="3.62774">
        <ele>297</ele>
        <time>2021-04-03T12:17:50Z</time>
      </trkpt>
      <trkpt lat="43.65436" lon="3.6277">
        <ele>297</ele>
        <time>2021-04-03T12:17:51Z</time>
      </trkpt>
      <trkpt lat="43.65435" lon="3.62767">
        <ele>297</ele>
        <time>2021-04-03T12:17:52Z</time>
      </trkpt>
      <trkpt lat="43.65434" lon="3.62764">
        <ele>297</ele>
        <time>2021-04-03T12:17:53Z</time>
      </trkpt>
      <trkpt lat="43.65432" lon="3.62761">
        <ele>297</ele>
        <time>2021-04-03T12:17:54Z</time>
      </trkpt>
      <trkpt lat="43.65429" lon="3.62758">
        <ele>297</ele>
        <time>2021-04-03T12:17:55Z</time>
      </trkpt>
      <trkpt lat="43.65427" lon="3.62756">
        <ele>297</ele>
        <time>2021-04-03T12:17:56Z</time>
      </trkpt>
      <trkpt lat="43.65423" lon="3.62754">
        <ele>296</ele>
        <time>2021-04-03T12:17:57Z</time>
      </trkpt>
      <trkpt lat="43.6542" lon="3.62752">
        <ele>296</ele>
        <time>2021-04-03T12:17:58Z</time>
      </trkpt>
      <trkpt lat="43.65417" lon="3.62751">
        <ele>296</ele>
        <time>2021-04-03T12:17:59Z</time>
      </trkpt>
      <trkpt lat="43.65414" lon="3.6275">
        <ele>296</ele>
        <time>2021-04-03T12:18:00Z</time>
      </trkpt>
      <trkpt lat="43.6541" lon="3.6275">
        <ele>296</ele>
        <time>2021-04-03T12:18:01Z</time>
      </trkpt>
      <trkpt lat="43.65407" lon="3.62749">
        <ele>296</ele>
        <time>2021-04-03T12:18:02Z</time>
      </trkpt>
      <trkpt lat="43.65402" lon="3.62746">
        <ele>296</ele>
        <time>2021-04-03T12:18:04Z</time>
      </trkpt>
      <trkpt lat="43.65399" lon="3.62744">
        <ele>296</ele>
        <time>2021-04-03T12:18:05Z</time>
      </trkpt>
      <trkpt lat="43.65397" lon="3.62743">
        <ele>296</ele>
        <time>2021-04-03T12:18:06Z</time>
      </trkpt>
      <trkpt lat="43.65395" lon="3.62742">
        <ele>296</ele>
        <time>2021-04-03T12:18:07Z</time>
      </trkpt>
      <trkpt lat="43.65392" lon="3.6274">
        <ele>296</ele>
        <time>2021-04-03T12:18:08Z</time>
      </trkpt>
      <trkpt lat="43.6539" lon="3.6274">
        <ele>296</ele>
        <time>2021-04-03T12:18:09Z</time>
      </trkpt>
      <trkpt lat="43.65387" lon="3.6274">
        <ele>296</ele>
        <time>2021-04-03T12:18:10Z</time>
      </trkpt>
      <trkpt lat="43.65384" lon="3.6274">
        <ele>296</ele>
        <time>2021-04-03T12:18:11Z</time>
      </trkpt>
      <trkpt lat="43.65381" lon="3.6274">
        <ele>296</ele>
        <time>2021-04-03T12:18:12Z</time>
      </trkpt>
      <trkpt lat="43.65377" lon="3.6274">
        <ele>296</ele>
        <time>2021-04-03T12:18:13Z</time>
      </trkpt>
      <trkpt lat="43.65374" lon="3.6274">
        <ele>296</ele>
        <time>2021-04-03T12:18:14Z</time>
      </trkpt>
      <trkpt lat="43.65371" lon="3.6274">
        <ele>296</ele>
        <time>2021-04-03T12:18:15Z</time>
      </trkpt>
      <trkpt lat="43.65368" lon="3.62741">
        <ele>294</ele>
        <time>2021-04-03T12:18:16Z</time>
      </trkpt>
      <trkpt lat="43.65364" lon="3.62741">
        <ele>294</ele>
        <time>2021-04-03T12:18:17Z</time>
      </trkpt>
      <trkpt lat="43.65361" lon="3.62742">
        <ele>294</ele>
        <time>2021-04-03T12:18:18Z</time>
      </trkpt>
      <trkpt lat="43.65358" lon="3.62741">
        <ele>294</ele>
        <time>2021-04-03T12:18:19Z</time>
      </trkpt>
      <trkpt lat="43.65355" lon="3.62741">
        <ele>294</ele>
        <time>2021-04-03T12:18:20Z</time>
      </trkpt>
      <trkpt lat="43.65352" lon="3.62741">
        <ele>294</ele>
        <time>2021-04-03T12:18:21Z</time>
      </trkpt>
      <trkpt lat="43.65349" lon="3.62741">
        <ele>294</ele>
        <time>2021-04-03T12:18:22Z</time>
      </trkpt>
      <trkpt lat="43.65346" lon="3.6274">
        <ele>294</ele>
        <time>2021-04-03T12:18:23Z</time>
      </trkpt>
      <trkpt lat="43.65343" lon="3.62739">
        <ele>294</ele>
        <time>2021-04-03T12:18:24Z</time>
      </trkpt>
      <trkpt lat="43.65341" lon="3.62738">
        <ele>294</ele>
        <time>2021-04-03T12:18:25Z</time>
      </trkpt>
      <trkpt lat="43.65338" lon="3.62738">
        <ele>293</ele>
        <time>2021-04-03T12:18:26Z</time>
      </trkpt>
      <trkpt lat="43.65335" lon="3.62739">
        <ele>293</ele>
        <time>2021-04-03T12:18:27Z</time>
      </trkpt>
      <trkpt lat="43.65332" lon="3.6274">
        <ele>293</ele>
        <time>2021-04-03T12:18:28Z</time>
      </trkpt>
      <trkpt lat="43.65329" lon="3.62743">
        <ele>293</ele>
        <time>2021-04-03T12:18:29Z</time>
      </trkpt>
      <trkpt lat="43.65326" lon="3.62747">
        <ele>293</ele>
        <time>2021-04-03T12:18:30Z</time>
      </trkpt>
      <trkpt lat="43.65323" lon="3.62751">
        <ele>293</ele>
        <time>2021-04-03T12:18:31Z</time>
      </trkpt>
      <trkpt lat="43.6532" lon="3.62756">
        <ele>293</ele>
        <time>2021-04-03T12:18:32Z</time>
      </trkpt>
      <trkpt lat="43.65317" lon="3.62761">
        <ele>293</ele>
        <time>2021-04-03T12:18:33Z</time>
      </trkpt>
      <trkpt lat="43.65313" lon="3.62765">
        <ele>293</ele>
        <time>2021-04-03T12:18:34Z</time>
      </trkpt>
      <trkpt lat="43.65308" lon="3.62768">
        <ele>293</ele>
        <time>2021-04-03T12:18:35Z</time>
      </trkpt>
      <trkpt lat="43.65303" lon="3.6277">
        <ele>292</ele>
        <time>2021-04-03T12:18:36Z</time>
      </trkpt>
      <trkpt lat="43.65298" lon="3.6277">
        <ele>292</ele>
        <time>2021-04-03T12:18:37Z</time>
      </trkpt>
      <trkpt lat="43.65293" lon="3.6277">
        <ele>292</ele>
        <time>2021-04-03T12:18:38Z</time>
      </trkpt>
      <trkpt lat="43.65289" lon="3.6277">
        <ele>292</ele>
        <time>2021-04-03T12:18:39Z</time>
      </trkpt>
      <trkpt lat="43.65284" lon="3.62769">
        <ele>292</ele>
        <time>2021-04-03T12:18:40Z</time>
      </trkpt>
      <trkpt lat="43.6528" lon="3.62767">
        <ele>292</ele>
        <time>2021-04-03T12:18:41Z</time>
      </trkpt>
      <trkpt lat="43.65275" lon="3.62766">
        <ele>292</ele>
        <time>2021-04-03T12:18:42Z</time>
      </trkpt>
      <trkpt lat="43.6527" lon="3.62765">
        <ele>292</ele>
        <time>2021-04-03T12:18:43Z</time>
      </trkpt>
      <trkpt lat="43.65264" lon="3.62763">
        <ele>292</ele>
        <time>2021-04-03T12:18:44Z</time>
      </trkpt>
      <trkpt lat="43.65258" lon="3.62761">
        <ele>292</ele>
        <time>2021-04-03T12:18:45Z</time>
      </trkpt>
      <trkpt lat="43.65252" lon="3.62759">
        <ele>290</ele>
        <time>2021-04-03T12:18:46Z</time>
      </trkpt>
      <trkpt lat="43.65244" lon="3.62758">
        <ele>290</ele>
        <time>2021-04-03T12:18:47Z</time>
      </trkpt>
      <trkpt lat="43.65236" lon="3.62757">
        <ele>290</ele>
        <time>2021-04-03T12:18:48Z</time>
      </trkpt>
      <trkpt lat="43.65228" lon="3.62756">
        <ele>290</ele>
        <time>2021-04-03T12:18:49Z</time>
      </trkpt>
      <trkpt lat="43.6522" lon="3.62755">
        <ele>290</ele>
        <time>2021-04-03T12:18:50Z</time>
      </trkpt>
      <trkpt lat="43.65213" lon="3.62753">
        <ele>290</ele>
        <time>2021-04-03T12:18:51Z</time>
      </trkpt>
      <trkpt lat="43.65206" lon="3.62751">
        <ele>290</ele>
        <time>2021-04-03T12:18:52Z</time>
      </trkpt>
      <trkpt lat="43.65199" lon="3.62749">
        <ele>290</ele>
        <time>2021-04-03T12:18:53Z</time>
      </trkpt>
      <trkpt lat="43.65192" lon="3.62746">
        <ele>290</ele>
        <time>2021-04-03T12:18:54Z</time>
      </trkpt>
      <trkpt lat="43.65186" lon="3.62743">
        <ele>290</ele>
        <time>2021-04-03T12:18:55Z</time>
      </trkpt>
      <trkpt lat="43.65179" lon="3.6274">
        <ele>290</ele>
        <time>2021-04-03T12:18:56Z</time>
      </trkpt>
      <trkpt lat="43.65173" lon="3.62738">
        <ele>286</ele>
        <time>2021-04-03T12:18:57Z</time>
      </trkpt>
      <trkpt lat="43.65167" lon="3.62737">
        <ele>286</ele>
        <time>2021-04-03T12:18:58Z</time>
      </trkpt>
      <trkpt lat="43.65161" lon="3.62736">
        <ele>286</ele>
        <time>2021-04-03T12:18:59Z</time>
      </trkpt>
      <trkpt lat="43.65157" lon="3.62735">
        <ele>286</ele>
        <time>2021-04-03T12:19:00Z</time>
      </trkpt>
      <trkpt lat="43.65153" lon="3.62733">
        <ele>286</ele>
        <time>2021-04-03T12:19:01Z</time>
      </trkpt>
      <trkpt lat="43.65149" lon="3.62729">
        <ele>286</ele>
        <time>2021-04-03T12:19:02Z</time>
      </trkpt>
      <trkpt lat="43.65146" lon="3.62727">
        <ele>286</ele>
        <time>2021-04-03T12:19:03Z</time>
      </trkpt>
      <trkpt lat="43.65143" lon="3.62723">
        <ele>286</ele>
        <time>2021-04-03T12:19:04Z</time>
      </trkpt>
      <trkpt lat="43.65139" lon="3.6272">
        <ele>286</ele>
        <time>2021-04-03T12:19:05Z</time>
      </trkpt>
      <trkpt lat="43.65135" lon="3.62718">
        <ele>283</ele>
        <time>2021-04-03T12:19:06Z</time>
      </trkpt>
      <trkpt lat="43.65132" lon="3.62716">
        <ele>283</ele>
        <time>2021-04-03T12:19:07Z</time>
      </trkpt>
      <trkpt lat="43.65129" lon="3.62713">
        <ele>283</ele>
        <time>2021-04-03T12:19:08Z</time>
      </trkpt>
      <trkpt lat="43.65127" lon="3.62711">
        <ele>283</ele>
        <time>2021-04-03T12:19:09Z</time>
      </trkpt>
      <trkpt lat="43.65124" lon="3.62709">
        <ele>283</ele>
        <time>2021-04-03T12:19:10Z</time>
      </trkpt>
      <trkpt lat="43.65122" lon="3.62707">
        <ele>283</ele>
        <time>2021-04-03T12:19:11Z</time>
      </trkpt>
      <trkpt lat="43.6512" lon="3.62705">
        <ele>283</ele>
        <time>2021-04-03T12:19:12Z</time>
      </trkpt>
      <trkpt lat="43.65118" lon="3.62703">
        <ele>283</ele>
        <time>2021-04-03T12:19:13Z</time>
      </trkpt>
      <trkpt lat="43.65115" lon="3.62701">
        <ele>283</ele>
        <time>2021-04-03T12:19:14Z</time>
      </trkpt>
      <trkpt lat="43.65112" lon="3.62698">
        <ele>283</ele>
        <time>2021-04-03T12:19:15Z</time>
      </trkpt>
      <trkpt lat="43.65109" lon="3.62696">
        <ele>283</ele>
        <time>2021-04-03T12:19:16Z</time>
      </trkpt>
      <trkpt lat="43.65106" lon="3.62694">
        <ele>280</ele>
        <time>2021-04-03T12:19:17Z</time>
      </trkpt>
      <trkpt lat="43.65103" lon="3.62692">
        <ele>280</ele>
        <time>2021-04-03T12:19:18Z</time>
      </trkpt>
      <trkpt lat="43.651" lon="3.6269">
        <ele>280</ele>
        <time>2021-04-03T12:19:19Z</time>
      </trkpt>
      <trkpt lat="43.65097" lon="3.62688">
        <ele>280</ele>
        <time>2021-04-03T12:19:20Z</time>
      </trkpt>
      <trkpt lat="43.65094" lon="3.62686">
        <ele>280</ele>
        <time>2021-04-03T12:19:21Z</time>
      </trkpt>
      <trkpt lat="43.6509" lon="3.62684">
        <ele>280</ele>
        <time>2021-04-03T12:19:22Z</time>
      </trkpt>
      <trkpt lat="43.65087" lon="3.62681">
        <ele>280</ele>
        <time>2021-04-03T12:19:23Z</time>
      </trkpt>
      <trkpt lat="43.65082" lon="3.62679">
        <ele>280</ele>
        <time>2021-04-03T12:19:24Z</time>
      </trkpt>
      <trkpt lat="43.65078" lon="3.62677">
        <ele>280</ele>
        <time>2021-04-03T12:19:25Z</time>
      </trkpt>
      <trkpt lat="43.65074" lon="3.62674">
        <ele>279</ele>
        <time>2021-04-03T12:19:26Z</time>
      </trkpt>
      <trkpt lat="43.6507" lon="3.62671">
        <ele>279</ele>
        <time>2021-04-03T12:19:27Z</time>
      </trkpt>
      <trkpt lat="43.65067" lon="3.62668">
        <ele>279</ele>
        <time>2021-04-03T12:19:28Z</time>
      </trkpt>
      <trkpt lat="43.65064" lon="3.62665">
        <ele>279</ele>
        <time>2021-04-03T12:19:29Z</time>
      </trkpt>
      <trkpt lat="43.6506" lon="3.62662">
        <ele>279</ele>
        <time>2021-04-03T12:19:30Z</time>
      </trkpt>
      <trkpt lat="43.65056" lon="3.62659">
        <ele>279</ele>
        <time>2021-04-03T12:19:31Z</time>
      </trkpt>
      <trkpt lat="43.65052" lon="3.62657">
        <ele>279</ele>
        <time>2021-04-03T12:19:32Z</time>
      </trkpt>
      <trkpt lat="43.65049" lon="3.62654">
        <ele>279</ele>
        <time>2021-04-03T12:19:33Z</time>
      </trkpt>
      <trkpt lat="43.65045" lon="3.62651">
        <ele>279</ele>
        <time>2021-04-03T12:19:34Z</time>
      </trkpt>
      <trkpt lat="43.65042" lon="3.62648">
        <ele>279</ele>
        <time>2021-04-03T12:19:35Z</time>
      </trkpt>
      <trkpt lat="43.65038" lon="3.62646">
        <ele>277</ele>
        <time>2021-04-03T12:19:36Z</time>
      </trkpt>
      <trkpt lat="43.65033" lon="3.62643">
        <ele>277</ele>
        <time>2021-04-03T12:19:37Z</time>
      </trkpt>
      <trkpt lat="43.6503" lon="3.6264">
        <ele>277</ele>
        <time>2021-04-03T12:19:38Z</time>
      </trkpt>
      <trkpt lat="43.65026" lon="3.62637">
        <ele>277</ele>
        <time>2021-04-03T12:19:39Z</time>
      </trkpt>
      <trkpt lat="43.65022" lon="3.62634">
        <ele>277</ele>
        <time>2021-04-03T12:19:40Z</time>
      </trkpt>
      <trkpt lat="43.65018" lon="3.62631">
        <ele>277</ele>
        <time>2021-04-03T12:19:41Z</time>
      </trkpt>
      <trkpt lat="43.65015" lon="3.62627">
        <ele>277</ele>
        <time>2021-04-03T12:19:42Z</time>
      </trkpt>
      <trkpt lat="43.65012" lon="3.62623">
        <ele>277</ele>
        <time>2021-04-03T12:19:43Z</time>
      </trkpt>
      <trkpt lat="43.65009" lon="3.6262">
        <ele>277</ele>
        <time>2021-04-03T12:19:44Z</time>
      </trkpt>
      <trkpt lat="43.65006" lon="3.62616">
        <ele>277</ele>
        <time>2021-04-03T12:19:45Z</time>
      </trkpt>
      <trkpt lat="43.65003" lon="3.62612">
        <ele>276</ele>
        <time>2021-04-03T12:19:46Z</time>
      </trkpt>
      <trkpt lat="43.65" lon="3.62609">
        <ele>276</ele>
        <time>2021-04-03T12:19:47Z</time>
      </trkpt>
      <trkpt lat="43.64998" lon="3.62606">
        <ele>276</ele>
        <time>2021-04-03T12:19:48Z</time>
      </trkpt>
      <trkpt lat="43.64995" lon="3.62602">
        <ele>276</ele>
        <time>2021-04-03T12:19:49Z</time>
      </trkpt>
      <trkpt lat="43.64992" lon="3.62599">
        <ele>276</ele>
        <time>2021-04-03T12:19:50Z</time>
      </trkpt>
      <trkpt lat="43.64989" lon="3.62596">
        <ele>276</ele>
        <time>2021-04-03T12:19:51Z</time>
      </trkpt>
      <trkpt lat="43.64986" lon="3.62593">
        <ele>276</ele>
        <time>2021-04-03T12:19:52Z</time>
      </trkpt>
      <trkpt lat="43.64983" lon="3.6259">
        <ele>276</ele>
        <time>2021-04-03T12:19:53Z</time>
      </trkpt>
      <trkpt lat="43.6498" lon="3.62588">
        <ele>276</ele>
        <time>2021-04-03T12:19:54Z</time>
      </trkpt>
      <trkpt lat="43.64977" lon="3.62585">
        <ele>276</ele>
        <time>2021-04-03T12:19:55Z</time>
      </trkpt>
      <trkpt lat="43.64974" lon="3.62582">
        <ele>276</ele>
        <time>2021-04-03T12:19:56Z</time>
      </trkpt>
      <trkpt lat="43.64971" lon="3.6258">
        <ele>275</ele>
        <time>2021-04-03T12:19:57Z</time>
      </trkpt>
      <trkpt lat="43.64968" lon="3.62578">
        <ele>275</ele>
        <time>2021-04-03T12:19:58Z</time>
      </trkpt>
      <trkpt lat="43.64965" lon="3.62576">
        <ele>275</ele>
        <time>2021-04-03T12:19:59Z</time>
      </trkpt>
      <trkpt lat="43.64961" lon="3.62574">
        <ele>275</ele>
        <time>2021-04-03T12:20:00Z</time>
      </trkpt>
      <trkpt lat="43.64958" lon="3.62571">
        <ele>275</ele>
        <time>2021-04-03T12:20:01Z</time>
      </trkpt>
      <trkpt lat="43.64955" lon="3.62569">
        <ele>275</ele>
        <time>2021-04-03T12:20:02Z</time>
      </trkpt>
      <trkpt lat="43.64952" lon="3.62566">
        <ele>275</ele>
        <time>2021-04-03T12:20:03Z</time>
      </trkpt>
      <trkpt lat="43.64949" lon="3.62564">
        <ele>275</ele>
        <time>2021-04-03T12:20:04Z</time>
      </trkpt>
      <trkpt lat="43.64946" lon="3.62562">
        <ele>275</ele>
        <time>2021-04-03T12:20:05Z</time>
      </trkpt>
      <trkpt lat="43.64943" lon="3.62561">
        <ele>275</ele>
        <time>2021-04-03T12:20:06Z</time>
      </trkpt>
      <trkpt lat="43.64939" lon="3.6256">
        <ele>275</ele>
        <time>2021-04-03T12:20:07Z</time>
      </trkpt>
      <trkpt lat="43.64935" lon="3.62559">
        <ele>275</ele>
        <time>2021-04-03T12:20:08Z</time>
      </trkpt>
      <trkpt lat="43.64931" lon="3.62558">
        <ele>275</ele>
        <time>2021-04-03T12:20:09Z</time>
      </trkpt>
      <trkpt lat="43.64928" lon="3.62557">
        <ele>275</ele>
        <time>2021-04-03T12:20:10Z</time>
      </trkpt>
      <trkpt lat="43.64924" lon="3.62556">
        <ele>275</ele>
        <time>2021-04-03T12:20:11Z</time>
      </trkpt>
      <trkpt lat="43.6492" lon="3.62554">
        <ele>275</ele>
        <time>2021-04-03T12:20:12Z</time>
      </trkpt>
      <trkpt lat="43.64916" lon="3.62553">
        <ele>275</ele>
        <time>2021-04-03T12:20:13Z</time>
      </trkpt>
      <trkpt lat="43.64912" lon="3.62551">
        <ele>275</ele>
        <time>2021-04-03T12:20:14Z</time>
      </trkpt>
      <trkpt lat="43.64908" lon="3.62549">
        <ele>275</ele>
        <time>2021-04-03T12:20:15Z</time>
      </trkpt>
      <trkpt lat="43.64901" lon="3.62546">
        <ele>275</ele>
        <time>2021-04-03T12:20:17Z</time>
      </trkpt>
      <trkpt lat="43.64898" lon="3.62544">
        <ele>275</ele>
        <time>2021-04-03T12:20:18Z</time>
      </trkpt>
      <trkpt lat="43.64894" lon="3.62542">
        <ele>275</ele>
        <time>2021-04-03T12:20:19Z</time>
      </trkpt>
      <trkpt lat="43.6489" lon="3.6254">
        <ele>275</ele>
        <time>2021-04-03T12:20:20Z</time>
      </trkpt>
      <trkpt lat="43.64886" lon="3.62538">
        <ele>275</ele>
        <time>2021-04-03T12:20:21Z</time>
      </trkpt>
      <trkpt lat="43.64882" lon="3.62536">
        <ele>275</ele>
        <time>2021-04-03T12:20:22Z</time>
      </trkpt>
      <trkpt lat="43.64879" lon="3.62534">
        <ele>275</ele>
        <time>2021-04-03T12:20:23Z</time>
      </trkpt>
      <trkpt lat="43.64876" lon="3.62531">
        <ele>275</ele>
        <time>2021-04-03T12:20:24Z</time>
      </trkpt>
      <trkpt lat="43.64873" lon="3.62529">
        <ele>275</ele>
        <time>2021-04-03T12:20:25Z</time>
      </trkpt>
      <trkpt lat="43.6487" lon="3.62528">
        <ele>275</ele>
        <time>2021-04-03T12:20:26Z</time>
      </trkpt>
      <trkpt lat="43.64867" lon="3.62526">
        <ele>275</ele>
        <time>2021-04-03T12:20:27Z</time>
      </trkpt>
      <trkpt lat="43.64865" lon="3.62523">
        <ele>275</ele>
        <time>2021-04-03T12:20:28Z</time>
      </trkpt>
      <trkpt lat="43.64862" lon="3.62521">
        <ele>275</ele>
        <time>2021-04-03T12:20:29Z</time>
      </trkpt>
      <trkpt lat="43.64859" lon="3.6252">
        <ele>275</ele>
        <time>2021-04-03T12:20:30Z</time>
      </trkpt>
      <trkpt lat="43.64856" lon="3.62518">
        <ele>275</ele>
        <time>2021-04-03T12:20:31Z</time>
      </trkpt>
      <trkpt lat="43.64854" lon="3.62516">
        <ele>275</ele>
        <time>2021-04-03T12:20:32Z</time>
      </trkpt>
      <trkpt lat="43.64851" lon="3.62513">
        <ele>275</ele>
        <time>2021-04-03T12:20:33Z</time>
      </trkpt>
      <trkpt lat="43.64848" lon="3.62511">
        <ele>275</ele>
        <time>2021-04-03T12:20:34Z</time>
      </trkpt>
      <trkpt lat="43.64844" lon="3.62509">
        <ele>275</ele>
        <time>2021-04-03T12:20:35Z</time>
      </trkpt>
      <trkpt lat="43.64842" lon="3.62507">
        <ele>275</ele>
        <time>2021-04-03T12:20:36Z</time>
      </trkpt>
      <trkpt lat="43.64839" lon="3.62504">
        <ele>275</ele>
        <time>2021-04-03T12:20:37Z</time>
      </trkpt>
      <trkpt lat="43.64836" lon="3.62502">
        <ele>275</ele>
        <time>2021-04-03T12:20:38Z</time>
      </trkpt>
      <trkpt lat="43.64833" lon="3.625">
        <ele>275</ele>
        <time>2021-04-03T12:20:39Z</time>
      </trkpt>
      <trkpt lat="43.64831" lon="3.62498">
        <ele>275</ele>
        <time>2021-04-03T12:20:40Z</time>
      </trkpt>
      <trkpt lat="43.64828" lon="3.62496">
        <ele>275</ele>
        <time>2021-04-03T12:20:41Z</time>
      </trkpt>
      <trkpt lat="43.64825" lon="3.62494">
        <ele>275</ele>
        <time>2021-04-03T12:20:42Z</time>
      </trkpt>
      <trkpt lat="43.64821" lon="3.62492">
        <ele>275</ele>
        <time>2021-04-03T12:20:43Z</time>
      </trkpt>
      <trkpt lat="43.64818" lon="3.62489">
        <ele>275</ele>
        <time>2021-04-03T12:20:44Z</time>
      </trkpt>
      <trkpt lat="43.64815" lon="3.62487">
        <ele>275</ele>
        <time>2021-04-03T12:20:45Z</time>
      </trkpt>
      <trkpt lat="43.64811" lon="3.62484">
        <ele>275</ele>
        <time>2021-04-03T12:20:46Z</time>
      </trkpt>
      <trkpt lat="43.64806" lon="3.62482">
        <ele>275</ele>
        <time>2021-04-03T12:20:47Z</time>
      </trkpt>
      <trkpt lat="43.64796" lon="3.62477">
        <ele>275</ele>
        <time>2021-04-03T12:20:49Z</time>
      </trkpt>
      <trkpt lat="43.64786" lon="3.6247">
        <ele>275</ele>
        <time>2021-04-03T12:20:51Z</time>
      </trkpt>
      <trkpt lat="43.64778" lon="3.62464">
        <ele>275</ele>
        <time>2021-04-03T12:20:53Z</time>
      </trkpt>
      <trkpt lat="43.6477" lon="3.62456">
        <ele>275</ele>
        <time>2021-04-03T12:20:55Z</time>
      </trkpt>
      <trkpt lat="43.64766" lon="3.62451">
        <ele>274</ele>
        <time>2021-04-03T12:20:56Z</time>
      </trkpt>
      <trkpt lat="43.64757" lon="3.62444">
        <ele>274</ele>
        <time>2021-04-03T12:20:59Z</time>
      </trkpt>
      <trkpt lat="43.64747" lon="3.62435">
        <ele>274</ele>
        <time>2021-04-03T12:21:00Z</time>
      </trkpt>
      <trkpt lat="43.64738" lon="3.62424">
        <ele>274</ele>
        <time>2021-04-03T12:21:02Z</time>
      </trkpt>
      <trkpt lat="43.64726" lon="3.62413">
        <ele>274</ele>
        <time>2021-04-03T12:21:04Z</time>
      </trkpt>
      <trkpt lat="43.64715" lon="3.62403">
        <ele>274</ele>
        <time>2021-04-03T12:21:06Z</time>
      </trkpt>
      <trkpt lat="43.64706" lon="3.62395">
        <ele>274</ele>
        <time>2021-04-03T12:21:08Z</time>
      </trkpt>
      <trkpt lat="43.64699" lon="3.62386">
        <ele>274</ele>
        <time>2021-04-03T12:21:10Z</time>
      </trkpt>
      <trkpt lat="43.64697" lon="3.62368">
        <ele>274</ele>
        <time>2021-04-03T12:21:13Z</time>
      </trkpt>
      <trkpt lat="43.64699" lon="3.62362">
        <ele>274</ele>
        <time>2021-04-03T12:21:14Z</time>
      </trkpt>
      <trkpt lat="43.64702" lon="3.62357">
        <ele>274</ele>
        <time>2021-04-03T12:21:15Z</time>
      </trkpt>
      <trkpt lat="43.64705" lon="3.62352">
        <ele>269</ele>
        <time>2021-04-03T12:21:16Z</time>
      </trkpt>
      <trkpt lat="43.64712" lon="3.6234">
        <ele>269</ele>
        <time>2021-04-03T12:21:18Z</time>
      </trkpt>
      <trkpt lat="43.64718" lon="3.62329">
        <ele>269</ele>
        <time>2021-04-03T12:21:20Z</time>
      </trkpt>
      <trkpt lat="43.64721" lon="3.62324">
        <ele>269</ele>
        <time>2021-04-03T12:21:21Z</time>
      </trkpt>
      <trkpt lat="43.64724" lon="3.62318">
        <ele>269</ele>
        <time>2021-04-03T12:21:22Z</time>
      </trkpt>
      <trkpt lat="43.64726" lon="3.62313">
        <ele>269</ele>
        <time>2021-04-03T12:21:23Z</time>
      </trkpt>
      <trkpt lat="43.64727" lon="3.62308">
        <ele>269</ele>
        <time>2021-04-03T12:21:24Z</time>
      </trkpt>
      <trkpt lat="43.64724" lon="3.62287">
        <ele>269</ele>
        <time>2021-04-03T12:21:27Z</time>
      </trkpt>
      <trkpt lat="43.64715" lon="3.62271">
        <ele>269</ele>
        <time>2021-04-03T12:21:29Z</time>
      </trkpt>
      <trkpt lat="43.64708" lon="3.62257">
        <ele>269</ele>
        <time>2021-04-03T12:21:31Z</time>
      </trkpt>
      <trkpt lat="43.64701" lon="3.62242">
        <ele>269</ele>
        <time>2021-04-03T12:21:34Z</time>
      </trkpt>
      <trkpt lat="43.647" lon="3.62236">
        <ele>269</ele>
        <time>2021-04-03T12:21:35Z</time>
      </trkpt>
      <trkpt lat="43.64699" lon="3.6223">
        <ele>269</ele>
        <time>2021-04-03T12:21:36Z</time>
      </trkpt>
      <trkpt lat="43.64699" lon="3.62224">
        <ele>262</ele>
        <time>2021-04-03T12:21:37Z</time>
      </trkpt>
      <trkpt lat="43.64698" lon="3.62218">
        <ele>262</ele>
        <time>2021-04-03T12:21:38Z</time>
      </trkpt>
      <trkpt lat="43.64699" lon="3.62211">
        <ele>262</ele>
        <time>2021-04-03T12:21:39Z</time>
      </trkpt>
      <trkpt lat="43.647" lon="3.62205">
        <ele>262</ele>
        <time>2021-04-03T12:21:40Z</time>
      </trkpt>
      <trkpt lat="43.647" lon="3.62199">
        <ele>262</ele>
        <time>2021-04-03T12:21:41Z</time>
      </trkpt>
      <trkpt lat="43.64701" lon="3.62193">
        <ele>262</ele>
        <time>2021-04-03T12:21:42Z</time>
      </trkpt>
      <trkpt lat="43.64701" lon="3.62187">
        <ele>262</ele>
        <time>2021-04-03T12:21:43Z</time>
      </trkpt>
      <trkpt lat="43.64701" lon="3.62181">
        <ele>262</ele>
        <time>2021-04-03T12:21:44Z</time>
      </trkpt>
      <trkpt lat="43.64702" lon="3.62175">
        <ele>262</ele>
        <time>2021-04-03T12:21:45Z</time>
      </trkpt>
      <trkpt lat="43.64702" lon="3.62169">
        <ele>259</ele>
        <time>2021-04-03T12:21:46Z</time>
      </trkpt>
      <trkpt lat="43.64703" lon="3.62164">
        <ele>259</ele>
        <time>2021-04-03T12:21:47Z</time>
      </trkpt>
      <trkpt lat="43.64703" lon="3.62159">
        <ele>259</ele>
        <time>2021-04-03T12:21:48Z</time>
      </trkpt>
      <trkpt lat="43.64704" lon="3.62155">
        <ele>259</ele>
        <time>2021-04-03T12:21:49Z</time>
      </trkpt>
      <trkpt lat="43.64704" lon="3.6215">
        <ele>259</ele>
        <time>2021-04-03T12:21:50Z</time>
      </trkpt>
      <trkpt lat="43.64704" lon="3.62146">
        <ele>259</ele>
        <time>2021-04-03T12:21:51Z</time>
      </trkpt>
      <trkpt lat="43.64705" lon="3.62142">
        <ele>259</ele>
        <time>2021-04-03T12:21:52Z</time>
      </trkpt>
      <trkpt lat="43.64706" lon="3.62137">
        <ele>259</ele>
        <time>2021-04-03T12:21:53Z</time>
      </trkpt>
      <trkpt lat="43.64706" lon="3.62132">
        <ele>259</ele>
        <time>2021-04-03T12:21:54Z</time>
      </trkpt>
      <trkpt lat="43.64707" lon="3.62128">
        <ele>259</ele>
        <time>2021-04-03T12:21:55Z</time>
      </trkpt>
      <trkpt lat="43.64707" lon="3.62123">
        <ele>259</ele>
        <time>2021-04-03T12:21:56Z</time>
      </trkpt>
      <trkpt lat="43.64708" lon="3.62118">
        <ele>258</ele>
        <time>2021-04-03T12:21:57Z</time>
      </trkpt>
      <trkpt lat="43.64708" lon="3.62112">
        <ele>258</ele>
        <time>2021-04-03T12:21:58Z</time>
      </trkpt>
      <trkpt lat="43.64709" lon="3.62107">
        <ele>258</ele>
        <time>2021-04-03T12:21:59Z</time>
      </trkpt>
      <trkpt lat="43.64709" lon="3.62102">
        <ele>258</ele>
        <time>2021-04-03T12:22:00Z</time>
      </trkpt>
      <trkpt lat="43.6471" lon="3.62096">
        <ele>258</ele>
        <time>2021-04-03T12:22:01Z</time>
      </trkpt>
      <trkpt lat="43.6471" lon="3.62091">
        <ele>258</ele>
        <time>2021-04-03T12:22:02Z</time>
      </trkpt>
      <trkpt lat="43.64711" lon="3.62085">
        <ele>258</ele>
        <time>2021-04-03T12:22:03Z</time>
      </trkpt>
      <trkpt lat="43.64712" lon="3.62081">
        <ele>258</ele>
        <time>2021-04-03T12:22:04Z</time>
      </trkpt>
      <trkpt lat="43.64712" lon="3.62076">
        <ele>258</ele>
        <time>2021-04-03T12:22:05Z</time>
      </trkpt>
      <trkpt lat="43.64713" lon="3.62071">
        <ele>258</ele>
        <time>2021-04-03T12:22:06Z</time>
      </trkpt>
      <trkpt lat="43.64713" lon="3.62066">
        <ele>257</ele>
        <time>2021-04-03T12:22:07Z</time>
      </trkpt>
      <trkpt lat="43.64713" lon="3.62061">
        <ele>257</ele>
        <time>2021-04-03T12:22:08Z</time>
      </trkpt>
      <trkpt lat="43.64713" lon="3.62056">
        <ele>257</ele>
        <time>2021-04-03T12:22:09Z</time>
      </trkpt>
      <trkpt lat="43.64713" lon="3.62052">
        <ele>257</ele>
        <time>2021-04-03T12:22:10Z</time>
      </trkpt>
      <trkpt lat="43.64713" lon="3.62048">
        <ele>257</ele>
        <time>2021-04-03T12:22:11Z</time>
      </trkpt>
      <trkpt lat="43.64713" lon="3.62044">
        <ele>257</ele>
        <time>2021-04-03T12:22:12Z</time>
      </trkpt>
      <trkpt lat="43.64712" lon="3.62041">
        <ele>257</ele>
        <time>2021-04-03T12:22:13Z</time>
      </trkpt>
      <trkpt lat="43.64711" lon="3.6204">
        <ele>257</ele>
        <time>2021-04-03T12:22:14Z</time>
      </trkpt>
      <trkpt lat="43.64709" lon="3.62039">
        <ele>257</ele>
        <time>2021-04-03T12:22:15Z</time>
      </trkpt>
      <trkpt lat="43.64707" lon="3.62041">
        <ele>257</ele>
        <time>2021-04-03T12:22:16Z</time>
      </trkpt>
      <trkpt lat="43.64705" lon="3.62044">
        <ele>257</ele>
        <time>2021-04-03T12:22:17Z</time>
      </trkpt>
      <trkpt lat="43.64703" lon="3.62048">
        <ele>257</ele>
        <time>2021-04-03T12:22:18Z</time>
      </trkpt>
      <trkpt lat="43.64697" lon="3.62063">
        <ele>257</ele>
        <time>2021-04-03T12:22:21Z</time>
      </trkpt>
      <trkpt lat="43.64694" lon="3.62079">
        <ele>257</ele>
        <time>2021-04-03T12:22:25Z</time>
      </trkpt>
      <trkpt lat="43.64693" lon="3.62082">
        <ele>256</ele>
        <time>2021-04-03T12:22:26Z</time>
      </trkpt>
      <trkpt lat="43.64692" lon="3.62087">
        <ele>256</ele>
        <time>2021-04-03T12:22:27Z</time>
      </trkpt>
      <trkpt lat="43.6469" lon="3.62092">
        <ele>256</ele>
        <time>2021-04-03T12:22:28Z</time>
      </trkpt>
      <trkpt lat="43.64688" lon="3.62097">
        <ele>256</ele>
        <time>2021-04-03T12:22:29Z</time>
      </trkpt>
      <trkpt lat="43.64687" lon="3.62101">
        <ele>256</ele>
        <time>2021-04-03T12:22:30Z</time>
      </trkpt>
      <trkpt lat="43.64684" lon="3.62105">
        <ele>256</ele>
        <time>2021-04-03T12:22:31Z</time>
      </trkpt>
      <trkpt lat="43.64679" lon="3.62118">
        <ele>256</ele>
        <time>2021-04-03T12:22:34Z</time>
      </trkpt>
      <trkpt lat="43.64675" lon="3.62132">
        <ele>256</ele>
        <time>2021-04-03T12:22:37Z</time>
      </trkpt>
      <trkpt lat="43.64667" lon="3.62145">
        <ele>256</ele>
        <time>2021-04-03T12:22:39Z</time>
      </trkpt>
      <trkpt lat="43.64663" lon="3.62157">
        <ele>256</ele>
        <time>2021-04-03T12:22:41Z</time>
      </trkpt>
      <trkpt lat="43.64658" lon="3.62171">
        <ele>256</ele>
        <time>2021-04-03T12:22:43Z</time>
      </trkpt>
      <trkpt lat="43.64655" lon="3.62187">
        <ele>256</ele>
        <time>2021-04-03T12:22:45Z</time>
      </trkpt>
      <trkpt lat="43.64653" lon="3.62205">
        <ele>256</ele>
        <time>2021-04-03T12:22:47Z</time>
      </trkpt>
      <trkpt lat="43.64651" lon="3.62223">
        <ele>256</ele>
        <time>2021-04-03T12:22:49Z</time>
      </trkpt>
      <trkpt lat="43.64646" lon="3.6224">
        <ele>256</ele>
        <time>2021-04-03T12:22:51Z</time>
      </trkpt>
      <trkpt lat="43.6464" lon="3.62254">
        <ele>256</ele>
        <time>2021-04-03T12:22:53Z</time>
      </trkpt>
      <trkpt lat="43.64631" lon="3.62264">
        <ele>256</ele>
        <time>2021-04-03T12:22:55Z</time>
      </trkpt>
      <trkpt lat="43.6462" lon="3.62273">
        <ele>256</ele>
        <time>2021-04-03T12:22:58Z</time>
      </trkpt>
      <trkpt lat="43.64609" lon="3.62282">
        <ele>256</ele>
        <time>2021-04-03T12:23:01Z</time>
      </trkpt>
      <trkpt lat="43.64599" lon="3.62292">
        <ele>256</ele>
        <time>2021-04-03T12:23:05Z</time>
      </trkpt>
      <trkpt lat="43.64589" lon="3.62304">
        <ele>256</ele>
        <time>2021-04-03T12:23:08Z</time>
      </trkpt>
      <trkpt lat="43.6458" lon="3.62314">
        <ele>256</ele>
        <time>2021-04-03T12:23:10Z</time>
      </trkpt>
      <trkpt lat="43.64573" lon="3.62324">
        <ele>256</ele>
        <time>2021-04-03T12:23:12Z</time>
      </trkpt>
      <trkpt lat="43.64567" lon="3.62334">
        <ele>256</ele>
        <time>2021-04-03T12:23:14Z</time>
      </trkpt>
      <trkpt lat="43.6456" lon="3.62345">
        <ele>251</ele>
        <time>2021-04-03T12:23:16Z</time>
      </trkpt>
      <trkpt lat="43.64555" lon="3.62358">
        <ele>251</ele>
        <time>2021-04-03T12:23:18Z</time>
      </trkpt>
      <trkpt lat="43.64549" lon="3.62371">
        <ele>251</ele>
        <time>2021-04-03T12:23:21Z</time>
      </trkpt>
      <trkpt lat="43.64543" lon="3.62381">
        <ele>251</ele>
        <time>2021-04-03T12:23:22Z</time>
      </trkpt>
      <trkpt lat="43.64536" lon="3.62391">
        <ele>251</ele>
        <time>2021-04-03T12:23:24Z</time>
      </trkpt>
      <trkpt lat="43.64529" lon="3.624">
        <ele>251</ele>
        <time>2021-04-03T12:23:26Z</time>
      </trkpt>
      <trkpt lat="43.64522" lon="3.62408">
        <ele>251</ele>
        <time>2021-04-03T12:23:28Z</time>
      </trkpt>
      <trkpt lat="43.64515" lon="3.62421">
        <ele>251</ele>
        <time>2021-04-03T12:23:31Z</time>
      </trkpt>
      <trkpt lat="43.64505" lon="3.62434">
        <ele>251</ele>
        <time>2021-04-03T12:23:34Z</time>
      </trkpt>
      <trkpt lat="43.64497" lon="3.62445">
        <ele>250</ele>
        <time>2021-04-03T12:23:36Z</time>
      </trkpt>
      <trkpt lat="43.64488" lon="3.62457">
        <ele>250</ele>
        <time>2021-04-03T12:23:38Z</time>
      </trkpt>
      <trkpt lat="43.64479" lon="3.62467">
        <ele>250</ele>
        <time>2021-04-03T12:23:40Z</time>
      </trkpt>
      <trkpt lat="43.64473" lon="3.62477">
        <ele>250</ele>
        <time>2021-04-03T12:23:42Z</time>
      </trkpt>
      <trkpt lat="43.64463" lon="3.6249">
        <ele>250</ele>
        <time>2021-04-03T12:23:45Z</time>
      </trkpt>
      <trkpt lat="43.64455" lon="3.62504">
        <ele>250</ele>
        <time>2021-04-03T12:23:48Z</time>
      </trkpt>
      <trkpt lat="43.64447" lon="3.62516">
        <ele>250</ele>
        <time>2021-04-03T12:23:51Z</time>
      </trkpt>
      <trkpt lat="43.64438" lon="3.62526">
        <ele>250</ele>
        <time>2021-04-03T12:23:54Z</time>
      </trkpt>
      <trkpt lat="43.64429" lon="3.62538">
        <ele>248</ele>
        <time>2021-04-03T12:23:57Z</time>
      </trkpt>
      <trkpt lat="43.64421" lon="3.62552">
        <ele>248</ele>
        <time>2021-04-03T12:24:00Z</time>
      </trkpt>
      <trkpt lat="43.64414" lon="3.62565">
        <ele>248</ele>
        <time>2021-04-03T12:24:03Z</time>
      </trkpt>
      <trkpt lat="43.64408" lon="3.62574">
        <ele>248</ele>
        <time>2021-04-03T12:24:05Z</time>
      </trkpt>
      <trkpt lat="43.644" lon="3.62588">
        <ele>248</ele>
        <time>2021-04-03T12:24:08Z</time>
      </trkpt>
      <trkpt lat="43.64393" lon="3.62598">
        <ele>248</ele>
        <time>2021-04-03T12:24:11Z</time>
      </trkpt>
      <trkpt lat="43.64386" lon="3.62608">
        <ele>248</ele>
        <time>2021-04-03T12:24:14Z</time>
      </trkpt>
      <trkpt lat="43.64379" lon="3.62617">
        <ele>248</ele>
        <time>2021-04-03T12:24:17Z</time>
      </trkpt>
      <trkpt lat="43.64371" lon="3.62627">
        <ele>248</ele>
        <time>2021-04-03T12:24:20Z</time>
      </trkpt>
      <trkpt lat="43.64362" lon="3.62638">
        <ele>248</ele>
        <time>2021-04-03T12:24:23Z</time>
      </trkpt>
      <trkpt lat="43.64354" lon="3.62651">
        <ele>248</ele>
        <time>2021-04-03T12:24:26Z</time>
      </trkpt>
      <trkpt lat="43.64345" lon="3.62662">
        <ele>248</ele>
        <time>2021-04-03T12:24:29Z</time>
      </trkpt>
      <trkpt lat="43.64337" lon="3.62671">
        <ele>248</ele>
        <time>2021-04-03T12:24:31Z</time>
      </trkpt>
      <trkpt lat="43.6433" lon="3.6268">
        <ele>248</ele>
        <time>2021-04-03T12:24:33Z</time>
      </trkpt>
      <trkpt lat="43.64323" lon="3.6269">
        <ele>248</ele>
        <time>2021-04-03T12:24:35Z</time>
      </trkpt>
      <trkpt lat="43.64317" lon="3.627">
        <ele>240</ele>
        <time>2021-04-03T12:24:37Z</time>
      </trkpt>
      <trkpt lat="43.6431" lon="3.62712">
        <ele>240</ele>
        <time>2021-04-03T12:24:39Z</time>
      </trkpt>
      <trkpt lat="43.64302" lon="3.62727">
        <ele>240</ele>
        <time>2021-04-03T12:24:41Z</time>
      </trkpt>
      <trkpt lat="43.64297" lon="3.62743">
        <ele>240</ele>
        <time>2021-04-03T12:24:43Z</time>
      </trkpt>
      <trkpt lat="43.64293" lon="3.6276">
        <ele>240</ele>
        <time>2021-04-03T12:24:45Z</time>
      </trkpt>
      <trkpt lat="43.64291" lon="3.62775">
        <ele>238</ele>
        <time>2021-04-03T12:24:47Z</time>
      </trkpt>
      <trkpt lat="43.64288" lon="3.62791">
        <ele>238</ele>
        <time>2021-04-03T12:24:49Z</time>
      </trkpt>
      <trkpt lat="43.64288" lon="3.62806">
        <ele>238</ele>
        <time>2021-04-03T12:24:51Z</time>
      </trkpt>
      <trkpt lat="43.64285" lon="3.6282">
        <ele>238</ele>
        <time>2021-04-03T12:24:53Z</time>
      </trkpt>
      <trkpt lat="43.64282" lon="3.62837">
        <ele>238</ele>
        <time>2021-04-03T12:24:55Z</time>
      </trkpt>
      <trkpt lat="43.6428" lon="3.62854">
        <ele>238</ele>
        <time>2021-04-03T12:24:57Z</time>
      </trkpt>
      <trkpt lat="43.64277" lon="3.6287">
        <ele>238</ele>
        <time>2021-04-03T12:24:59Z</time>
      </trkpt>
      <trkpt lat="43.64276" lon="3.62887">
        <ele>238</ele>
        <time>2021-04-03T12:25:01Z</time>
      </trkpt>
      <trkpt lat="43.64275" lon="3.62904">
        <ele>238</ele>
        <time>2021-04-03T12:25:03Z</time>
      </trkpt>
      <trkpt lat="43.64278" lon="3.62921">
        <ele>238</ele>
        <time>2021-04-03T12:25:05Z</time>
      </trkpt>
      <trkpt lat="43.64282" lon="3.62936">
        <ele>238</ele>
        <time>2021-04-03T12:25:08Z</time>
      </trkpt>
      <trkpt lat="43.64287" lon="3.62953">
        <ele>238</ele>
        <time>2021-04-03T12:25:09Z</time>
      </trkpt>
      <trkpt lat="43.64292" lon="3.6297">
        <ele>238</ele>
        <time>2021-04-03T12:25:11Z</time>
      </trkpt>
      <trkpt lat="43.64301" lon="3.62984">
        <ele>238</ele>
        <time>2021-04-03T12:25:13Z</time>
      </trkpt>
      <trkpt lat="43.64308" lon="3.62997">
        <ele>238</ele>
        <time>2021-04-03T12:25:15Z</time>
      </trkpt>
      <trkpt lat="43.64314" lon="3.63008">
        <ele>226</ele>
        <time>2021-04-03T12:25:17Z</time>
      </trkpt>
      <trkpt lat="43.64321" lon="3.63019">
        <ele>226</ele>
        <time>2021-04-03T12:25:19Z</time>
      </trkpt>
      <trkpt lat="43.64326" lon="3.63031">
        <ele>226</ele>
        <time>2021-04-03T12:25:21Z</time>
      </trkpt>
      <trkpt lat="43.64328" lon="3.63044">
        <ele>226</ele>
        <time>2021-04-03T12:25:23Z</time>
      </trkpt>
      <trkpt lat="43.64322" lon="3.63059">
        <ele>226</ele>
        <time>2021-04-03T12:25:26Z</time>
      </trkpt>
      <trkpt lat="43.64316" lon="3.63069">
        <ele>226</ele>
        <time>2021-04-03T12:25:28Z</time>
      </trkpt>
      <trkpt lat="43.6431" lon="3.63081">
        <ele>226</ele>
        <time>2021-04-03T12:25:30Z</time>
      </trkpt>
      <trkpt lat="43.64307" lon="3.63093">
        <ele>226</ele>
        <time>2021-04-03T12:25:32Z</time>
      </trkpt>
      <trkpt lat="43.64304" lon="3.63109">
        <ele>226</ele>
        <time>2021-04-03T12:25:34Z</time>
      </trkpt>
      <trkpt lat="43.64302" lon="3.63124">
        <ele>226</ele>
        <time>2021-04-03T12:25:36Z</time>
      </trkpt>
      <trkpt lat="43.64298" lon="3.63136">
        <ele>226</ele>
        <time>2021-04-03T12:25:38Z</time>
      </trkpt>
      <trkpt lat="43.64295" lon="3.6315">
        <ele>226</ele>
        <time>2021-04-03T12:25:41Z</time>
      </trkpt>
      <trkpt lat="43.64293" lon="3.63165">
        <ele>226</ele>
        <time>2021-04-03T12:25:45Z</time>
      </trkpt>
      <trkpt lat="43.64291" lon="3.63179">
        <ele>217</ele>
        <time>2021-04-03T12:25:47Z</time>
      </trkpt>
      <trkpt lat="43.64286" lon="3.63195">
        <ele>217</ele>
        <time>2021-04-03T12:25:50Z</time>
      </trkpt>
      <trkpt lat="43.64283" lon="3.63207">
        <ele>217</ele>
        <time>2021-04-03T12:25:52Z</time>
      </trkpt>
      <trkpt lat="43.64278" lon="3.63218">
        <ele>217</ele>
        <time>2021-04-03T12:25:55Z</time>
      </trkpt>
      <trkpt lat="43.64276" lon="3.63232">
        <ele>217</ele>
        <time>2021-04-03T12:25:58Z</time>
      </trkpt>
      <trkpt lat="43.64271" lon="3.63245">
        <ele>217</ele>
        <time>2021-04-03T12:26:01Z</time>
      </trkpt>
      <trkpt lat="43.64268" lon="3.63259">
        <ele>217</ele>
        <time>2021-04-03T12:26:04Z</time>
      </trkpt>
      <trkpt lat="43.64264" lon="3.63274">
        <ele>217</ele>
        <time>2021-04-03T12:26:08Z</time>
      </trkpt>
      <trkpt lat="43.64262" lon="3.63289">
        <ele>217</ele>
        <time>2021-04-03T12:26:11Z</time>
      </trkpt>
      <trkpt lat="43.6426" lon="3.63306">
        <ele>217</ele>
        <time>2021-04-03T12:26:14Z</time>
      </trkpt>
      <trkpt lat="43.64257" lon="3.6332">
        <ele>209</ele>
        <time>2021-04-03T12:26:17Z</time>
      </trkpt>
      <trkpt lat="43.64254" lon="3.63334">
        <ele>209</ele>
        <time>2021-04-03T12:26:20Z</time>
      </trkpt>
      <trkpt lat="43.64253" lon="3.63348">
        <ele>209</ele>
        <time>2021-04-03T12:26:23Z</time>
      </trkpt>
      <trkpt lat="43.64251" lon="3.63358">
        <ele>209</ele>
        <time>2021-04-03T12:26:25Z</time>
      </trkpt>
      <trkpt lat="43.64251" lon="3.63364">
        <ele>205</ele>
        <time>2021-04-03T12:26:26Z</time>
      </trkpt>
      <trkpt lat="43.6425" lon="3.63369">
        <ele>205</ele>
        <time>2021-04-03T12:26:27Z</time>
      </trkpt>
      <trkpt lat="43.64249" lon="3.63374">
        <ele>205</ele>
        <time>2021-04-03T12:26:28Z</time>
      </trkpt>
      <trkpt lat="43.64248" lon="3.63378">
        <ele>205</ele>
        <time>2021-04-03T12:26:29Z</time>
      </trkpt>
      <trkpt lat="43.64246" lon="3.63395">
        <ele>205</ele>
        <time>2021-04-03T12:26:33Z</time>
      </trkpt>
      <trkpt lat="43.64245" lon="3.63409">
        <ele>205</ele>
        <time>2021-04-03T12:26:36Z</time>
      </trkpt>
      <trkpt lat="43.64243" lon="3.6342">
        <ele>205</ele>
        <time>2021-04-03T12:26:38Z</time>
      </trkpt>
      <trkpt lat="43.64243" lon="3.63435">
        <ele>205</ele>
        <time>2021-04-03T12:26:41Z</time>
      </trkpt>
      <trkpt lat="43.6424" lon="3.63452">
        <ele>205</ele>
        <time>2021-04-03T12:26:45Z</time>
      </trkpt>
      <trkpt lat="43.64239" lon="3.63466">
        <ele>205</ele>
        <time>2021-04-03T12:26:48Z</time>
      </trkpt>
      <trkpt lat="43.64239" lon="3.63469">
        <ele>205</ele>
        <time>2021-04-03T12:26:49Z</time>
      </trkpt>
      <trkpt lat="43.64238" lon="3.63472">
        <ele>205</ele>
        <time>2021-04-03T12:26:50Z</time>
      </trkpt>
      <trkpt lat="43.64238" lon="3.63475">
        <ele>205</ele>
        <time>2021-04-03T12:26:51Z</time>
      </trkpt>
      <trkpt lat="43.64238" lon="3.63477">
        <ele>205</ele>
        <time>2021-04-03T12:26:52Z</time>
      </trkpt>
      <trkpt lat="43.64238" lon="3.63481">
        <ele>205</ele>
        <time>2021-04-03T12:26:54Z</time>
      </trkpt>
      <trkpt lat="43.64238" lon="3.6348">
        <ele>199</ele>
        <time>2021-04-03T12:27:03Z</time>
      </trkpt>
      <trkpt lat="43.64238" lon="3.63458">
        <ele>197</ele>
        <time>2021-04-03T12:28:04Z</time>
      </trkpt>
      <trkpt lat="43.64238" lon="3.63455">
        <ele>197</ele>
        <time>2021-04-03T12:28:05Z</time>
      </trkpt>
      <trkpt lat="43.64238" lon="3.63447">
        <ele>197</ele>
        <time>2021-04-03T12:28:07Z</time>
      </trkpt>
      <trkpt lat="43.64239" lon="3.63444">
        <ele>197</ele>
        <time>2021-04-03T12:28:08Z</time>
      </trkpt>
      <trkpt lat="43.64238" lon="3.63441">
        <ele>197</ele>
        <time>2021-04-03T12:28:09Z</time>
      </trkpt>
      <trkpt lat="43.64238" lon="3.63437">
        <ele>197</ele>
        <time>2021-04-03T12:28:10Z</time>
      </trkpt>
      <trkpt lat="43.64238" lon="3.63433">
        <ele>197</ele>
        <time>2021-04-03T12:28:11Z</time>
      </trkpt>
      <trkpt lat="43.64238" lon="3.63429">
        <ele>197</ele>
        <time>2021-04-03T12:28:12Z</time>
      </trkpt>
      <trkpt lat="43.64238" lon="3.63425">
        <ele>197</ele>
        <time>2021-04-03T12:28:13Z</time>
      </trkpt>
      <trkpt lat="43.64239" lon="3.6342">
        <ele>196</ele>
        <time>2021-04-03T12:28:14Z</time>
      </trkpt>
      <trkpt lat="43.6424" lon="3.63414">
        <ele>196</ele>
        <time>2021-04-03T12:28:15Z</time>
      </trkpt>
      <trkpt lat="43.6424" lon="3.63409">
        <ele>196</ele>
        <time>2021-04-03T12:28:16Z</time>
      </trkpt>
      <trkpt lat="43.64241" lon="3.63404">
        <ele>196</ele>
        <time>2021-04-03T12:28:17Z</time>
      </trkpt>
      <trkpt lat="43.64243" lon="3.63399">
        <ele>196</ele>
        <time>2021-04-03T12:28:18Z</time>
      </trkpt>
      <trkpt lat="43.64243" lon="3.63395">
        <ele>196</ele>
        <time>2021-04-03T12:28:19Z</time>
      </trkpt>
      <trkpt lat="43.64244" lon="3.6339">
        <ele>196</ele>
        <time>2021-04-03T12:28:20Z</time>
      </trkpt>
      <trkpt lat="43.64244" lon="3.63385">
        <ele>196</ele>
        <time>2021-04-03T12:28:21Z</time>
      </trkpt>
      <trkpt lat="43.64245" lon="3.63381">
        <ele>196</ele>
        <time>2021-04-03T12:28:22Z</time>
      </trkpt>
      <trkpt lat="43.64247" lon="3.63377">
        <ele>196</ele>
        <time>2021-04-03T12:28:23Z</time>
      </trkpt>
      <trkpt lat="43.64248" lon="3.63373">
        <ele>196</ele>
        <time>2021-04-03T12:28:24Z</time>
      </trkpt>
      <trkpt lat="43.64248" lon="3.63369">
        <ele>196</ele>
        <time>2021-04-03T12:28:25Z</time>
      </trkpt>
      <trkpt lat="43.6425" lon="3.63358">
        <ele>196</ele>
        <time>2021-04-03T12:28:27Z</time>
      </trkpt>
      <trkpt lat="43.6425" lon="3.63352">
        <ele>196</ele>
        <time>2021-04-03T12:28:28Z</time>
      </trkpt>
      <trkpt lat="43.64251" lon="3.63347">
        <ele>196</ele>
        <time>2021-04-03T12:28:29Z</time>
      </trkpt>
      <trkpt lat="43.64252" lon="3.63342">
        <ele>196</ele>
        <time>2021-04-03T12:28:30Z</time>
      </trkpt>
      <trkpt lat="43.64253" lon="3.63337">
        <ele>196</ele>
        <time>2021-04-03T12:28:31Z</time>
      </trkpt>
      <trkpt lat="43.64254" lon="3.63332">
        <ele>196</ele>
        <time>2021-04-03T12:28:32Z</time>
      </trkpt>
      <trkpt lat="43.64255" lon="3.63327">
        <ele>196</ele>
        <time>2021-04-03T12:28:33Z</time>
      </trkpt>
      <trkpt lat="43.64256" lon="3.63324">
        <ele>196</ele>
        <time>2021-04-03T12:28:34Z</time>
      </trkpt>
      <trkpt lat="43.64257" lon="3.63324">
        <ele>198</ele>
        <time>2021-04-03T12:28:42Z</time>
      </trkpt>
      <trkpt lat="43.64253" lon="3.63342">
        <ele>197</ele>
        <time>2021-04-03T12:29:14Z</time>
      </trkpt>
      <trkpt lat="43.64252" lon="3.63347">
        <ele>197</ele>
        <time>2021-04-03T12:29:15Z</time>
      </trkpt>
      <trkpt lat="43.64251" lon="3.63352">
        <ele>197</ele>
        <time>2021-04-03T12:29:16Z</time>
      </trkpt>
      <trkpt lat="43.6425" lon="3.63357">
        <ele>197</ele>
        <time>2021-04-03T12:29:17Z</time>
      </trkpt>
      <trkpt lat="43.64249" lon="3.63362">
        <ele>197</ele>
        <time>2021-04-03T12:29:18Z</time>
      </trkpt>
      <trkpt lat="43.64248" lon="3.63366">
        <ele>197</ele>
        <time>2021-04-03T12:29:19Z</time>
      </trkpt>
      <trkpt lat="43.64247" lon="3.6337">
        <ele>197</ele>
        <time>2021-04-03T12:29:20Z</time>
      </trkpt>
      <trkpt lat="43.64246" lon="3.63374">
        <ele>197</ele>
        <time>2021-04-03T12:29:21Z</time>
      </trkpt>
      <trkpt lat="43.64245" lon="3.63377">
        <ele>197</ele>
        <time>2021-04-03T12:29:22Z</time>
      </trkpt>
      <trkpt lat="43.64247" lon="3.63381">
        <ele>197</ele>
        <time>2021-04-03T12:29:33Z</time>
      </trkpt>
      <trkpt lat="43.64246" lon="3.63394">
        <ele>194</ele>
        <time>2021-04-03T12:32:28Z</time>
      </trkpt>
      <trkpt lat="43.64244" lon="3.63403">
        <ele>194</ele>
        <time>2021-04-03T12:32:29Z</time>
      </trkpt>
      <trkpt lat="43.64242" lon="3.63409">
        <ele>194</ele>
        <time>2021-04-03T12:32:30Z</time>
      </trkpt>
      <trkpt lat="43.64242" lon="3.63415">
        <ele>194</ele>
        <time>2021-04-03T12:32:31Z</time>
      </trkpt>
      <trkpt lat="43.64241" lon="3.63421">
        <ele>194</ele>
        <time>2021-04-03T12:32:33Z</time>
      </trkpt>
      <trkpt lat="43.64241" lon="3.63429">
        <ele>194</ele>
        <time>2021-04-03T12:32:34Z</time>
      </trkpt>
      <trkpt lat="43.64238" lon="3.63446">
        <ele>194</ele>
        <time>2021-04-03T12:32:38Z</time>
      </trkpt>
      <trkpt lat="43.64237" lon="3.63463">
        <ele>194</ele>
        <time>2021-04-03T12:32:41Z</time>
      </trkpt>
      <trkpt lat="43.64236" lon="3.63468">
        <ele>194</ele>
        <time>2021-04-03T12:32:42Z</time>
      </trkpt>
      <trkpt lat="43.64236" lon="3.63473">
        <ele>194</ele>
        <time>2021-04-03T12:32:43Z</time>
      </trkpt>
      <trkpt lat="43.64236" lon="3.63479">
        <ele>194</ele>
        <time>2021-04-03T12:32:44Z</time>
      </trkpt>
      <trkpt lat="43.64236" lon="3.63483">
        <ele>194</ele>
        <time>2021-04-03T12:32:45Z</time>
      </trkpt>
      <trkpt lat="43.64235" lon="3.63487">
        <ele>194</ele>
        <time>2021-04-03T12:32:46Z</time>
      </trkpt>
      <trkpt lat="43.64235" lon="3.63491">
        <ele>194</ele>
        <time>2021-04-03T12:32:47Z</time>
      </trkpt>
      <trkpt lat="43.64234" lon="3.63496">
        <ele>193</ele>
        <time>2021-04-03T12:32:48Z</time>
      </trkpt>
      <trkpt lat="43.64233" lon="3.635">
        <ele>193</ele>
        <time>2021-04-03T12:32:49Z</time>
      </trkpt>
      <trkpt lat="43.64232" lon="3.63504">
        <ele>193</ele>
        <time>2021-04-03T12:32:50Z</time>
      </trkpt>
      <trkpt lat="43.64231" lon="3.63509">
        <ele>193</ele>
        <time>2021-04-03T12:32:51Z</time>
      </trkpt>
      <trkpt lat="43.6423" lon="3.63513">
        <ele>193</ele>
        <time>2021-04-03T12:32:52Z</time>
      </trkpt>
      <trkpt lat="43.64229" lon="3.63518">
        <ele>193</ele>
        <time>2021-04-03T12:32:53Z</time>
      </trkpt>
      <trkpt lat="43.64228" lon="3.63523">
        <ele>193</ele>
        <time>2021-04-03T12:32:54Z</time>
      </trkpt>
      <trkpt lat="43.64228" lon="3.63528">
        <ele>193</ele>
        <time>2021-04-03T12:32:55Z</time>
      </trkpt>
      <trkpt lat="43.64227" lon="3.63532">
        <ele>193</ele>
        <time>2021-04-03T12:32:56Z</time>
      </trkpt>
      <trkpt lat="43.64227" lon="3.63536">
        <ele>193</ele>
        <time>2021-04-03T12:32:57Z</time>
      </trkpt>
      <trkpt lat="43.64227" lon="3.6354">
        <ele>194</ele>
        <time>2021-04-03T12:32:58Z</time>
      </trkpt>
      <trkpt lat="43.64227" lon="3.63543">
        <ele>194</ele>
        <time>2021-04-03T12:32:59Z</time>
      </trkpt>
      <trkpt lat="43.64226" lon="3.63546">
        <ele>194</ele>
        <time>2021-04-03T12:33:00Z</time>
      </trkpt>
      <trkpt lat="43.64226" lon="3.63549">
        <ele>194</ele>
        <time>2021-04-03T12:33:01Z</time>
      </trkpt>
      <trkpt lat="43.64226" lon="3.63552">
        <ele>194</ele>
        <time>2021-04-03T12:33:02Z</time>
      </trkpt>
      <trkpt lat="43.64226" lon="3.63555">
        <ele>194</ele>
        <time>2021-04-03T12:33:03Z</time>
      </trkpt>
      <trkpt lat="43.64226" lon="3.63557">
        <ele>194</ele>
        <time>2021-04-03T12:33:04Z</time>
      </trkpt>
      <trkpt lat="43.64225" lon="3.6356">
        <ele>194</ele>
        <time>2021-04-03T12:33:05Z</time>
      </trkpt>
      <trkpt lat="43.64225" lon="3.63563">
        <ele>194</ele>
        <time>2021-04-03T12:33:06Z</time>
      </trkpt>
      <trkpt lat="43.64225" lon="3.63566">
        <ele>194</ele>
        <time>2021-04-03T12:33:07Z</time>
      </trkpt>
      <trkpt lat="43.64224" lon="3.6357">
        <ele>194</ele>
        <time>2021-04-03T12:33:09Z</time>
      </trkpt>
      <trkpt lat="43.64224" lon="3.63574">
        <ele>194</ele>
        <time>2021-04-03T12:33:11Z</time>
      </trkpt>
      <trkpt lat="43.64224" lon="3.63579">
        <ele>194</ele>
        <time>2021-04-03T12:33:13Z</time>
      </trkpt>
      <trkpt lat="43.64224" lon="3.63582">
        <ele>194</ele>
        <time>2021-04-03T12:33:14Z</time>
      </trkpt>
      <trkpt lat="43.64224" lon="3.63584">
        <ele>194</ele>
        <time>2021-04-03T12:33:15Z</time>
      </trkpt>
      <trkpt lat="43.64224" lon="3.63587">
        <ele>194</ele>
        <time>2021-04-03T12:33:16Z</time>
      </trkpt>
      <trkpt lat="43.64224" lon="3.63591">
        <ele>194</ele>
        <time>2021-04-03T12:33:18Z</time>
      </trkpt>
      <trkpt lat="43.64224" lon="3.63596">
        <ele>194</ele>
        <time>2021-04-03T12:33:20Z</time>
      </trkpt>
      <trkpt lat="43.64224" lon="3.63601">
        <ele>194</ele>
        <time>2021-04-03T12:33:22Z</time>
      </trkpt>
      <trkpt lat="43.64224" lon="3.63604">
        <ele>194</ele>
        <time>2021-04-03T12:33:23Z</time>
      </trkpt>
      <trkpt lat="43.64223" lon="3.63607">
        <ele>194</ele>
        <time>2021-04-03T12:33:24Z</time>
      </trkpt>
      <trkpt lat="43.64222" lon="3.6361">
        <ele>194</ele>
        <time>2021-04-03T12:33:25Z</time>
      </trkpt>
      <trkpt lat="43.64222" lon="3.63613">
        <ele>194</ele>
        <time>2021-04-03T12:33:26Z</time>
      </trkpt>
      <trkpt lat="43.64221" lon="3.63616">
        <ele>194</ele>
        <time>2021-04-03T12:33:27Z</time>
      </trkpt>
      <trkpt lat="43.64221" lon="3.63621">
        <ele>194</ele>
        <time>2021-04-03T12:33:29Z</time>
      </trkpt>
      <trkpt lat="43.64221" lon="3.63624">
        <ele>194</ele>
        <time>2021-04-03T12:33:30Z</time>
      </trkpt>
      <trkpt lat="43.6422" lon="3.63627">
        <ele>194</ele>
        <time>2021-04-03T12:33:31Z</time>
      </trkpt>
      <trkpt lat="43.6422" lon="3.63632">
        <ele>194</ele>
        <time>2021-04-03T12:33:32Z</time>
      </trkpt>
      <trkpt lat="43.64219" lon="3.63638">
        <ele>194</ele>
        <time>2021-04-03T12:33:33Z</time>
      </trkpt>
      <trkpt lat="43.64218" lon="3.63643">
        <ele>194</ele>
        <time>2021-04-03T12:33:34Z</time>
      </trkpt>
      <trkpt lat="43.64217" lon="3.63647">
        <ele>194</ele>
        <time>2021-04-03T12:33:35Z</time>
      </trkpt>
      <trkpt lat="43.64216" lon="3.63652">
        <ele>194</ele>
        <time>2021-04-03T12:33:36Z</time>
      </trkpt>
      <trkpt lat="43.64215" lon="3.63656">
        <ele>194</ele>
        <time>2021-04-03T12:33:37Z</time>
      </trkpt>
      <trkpt lat="43.64215" lon="3.63661">
        <ele>194</ele>
        <time>2021-04-03T12:33:38Z</time>
      </trkpt>
      <trkpt lat="43.64214" lon="3.63666">
        <ele>194</ele>
        <time>2021-04-03T12:33:39Z</time>
      </trkpt>
      <trkpt lat="43.64212" lon="3.63671">
        <ele>194</ele>
        <time>2021-04-03T12:33:40Z</time>
      </trkpt>
      <trkpt lat="43.64211" lon="3.63676">
        <ele>194</ele>
        <time>2021-04-03T12:33:41Z</time>
      </trkpt>
      <trkpt lat="43.64207" lon="3.63681">
        <ele>194</ele>
        <time>2021-04-03T12:33:42Z</time>
      </trkpt>
      <trkpt lat="43.64202" lon="3.63682">
        <ele>194</ele>
        <time>2021-04-03T12:33:43Z</time>
      </trkpt>
      <trkpt lat="43.64199" lon="3.63681">
        <ele>194</ele>
        <time>2021-04-03T12:33:44Z</time>
      </trkpt>
      <trkpt lat="43.64196" lon="3.63679">
        <ele>194</ele>
        <time>2021-04-03T12:33:45Z</time>
      </trkpt>
      <trkpt lat="43.64194" lon="3.63678">
        <ele>194</ele>
        <time>2021-04-03T12:33:46Z</time>
      </trkpt>
      <trkpt lat="43.64192" lon="3.63677">
        <ele>194</ele>
        <time>2021-04-03T12:33:47Z</time>
      </trkpt>
      <trkpt lat="43.6419" lon="3.63676">
        <ele>189</ele>
        <time>2021-04-03T12:33:48Z</time>
      </trkpt>
      <trkpt lat="43.64187" lon="3.63675">
        <ele>189</ele>
        <time>2021-04-03T12:33:49Z</time>
      </trkpt>
      <trkpt lat="43.64185" lon="3.63674">
        <ele>189</ele>
        <time>2021-04-03T12:33:50Z</time>
      </trkpt>
      <trkpt lat="43.64182" lon="3.63672">
        <ele>189</ele>
        <time>2021-04-03T12:33:51Z</time>
      </trkpt>
      <trkpt lat="43.64179" lon="3.63671">
        <ele>189</ele>
        <time>2021-04-03T12:33:52Z</time>
      </trkpt>
      <trkpt lat="43.64177" lon="3.63669">
        <ele>189</ele>
        <time>2021-04-03T12:33:53Z</time>
      </trkpt>
      <trkpt lat="43.64174" lon="3.63668">
        <ele>189</ele>
        <time>2021-04-03T12:33:54Z</time>
      </trkpt>
      <trkpt lat="43.64172" lon="3.63667">
        <ele>189</ele>
        <time>2021-04-03T12:33:55Z</time>
      </trkpt>
      <trkpt lat="43.64169" lon="3.63665">
        <ele>189</ele>
        <time>2021-04-03T12:33:56Z</time>
      </trkpt>
      <trkpt lat="43.64167" lon="3.63664">
        <ele>189</ele>
        <time>2021-04-03T12:33:57Z</time>
      </trkpt>
      <trkpt lat="43.64165" lon="3.63662">
        <ele>187</ele>
        <time>2021-04-03T12:33:58Z</time>
      </trkpt>
      <trkpt lat="43.64164" lon="3.6366">
        <ele>187</ele>
        <time>2021-04-03T12:33:59Z</time>
      </trkpt>
      <trkpt lat="43.6416" lon="3.63655">
        <ele>187</ele>
        <time>2021-04-03T12:34:01Z</time>
      </trkpt>
      <trkpt lat="43.64159" lon="3.63652">
        <ele>187</ele>
        <time>2021-04-03T12:34:02Z</time>
      </trkpt>
      <trkpt lat="43.64158" lon="3.63649">
        <ele>187</ele>
        <time>2021-04-03T12:34:03Z</time>
      </trkpt>
      <trkpt lat="43.64157" lon="3.63646">
        <ele>187</ele>
        <time>2021-04-03T12:34:04Z</time>
      </trkpt>
      <trkpt lat="43.64157" lon="3.63643">
        <ele>187</ele>
        <time>2021-04-03T12:34:05Z</time>
      </trkpt>
      <trkpt lat="43.64157" lon="3.6364">
        <ele>187</ele>
        <time>2021-04-03T12:34:06Z</time>
      </trkpt>
      <trkpt lat="43.64157" lon="3.63637">
        <ele>186</ele>
        <time>2021-04-03T12:34:07Z</time>
      </trkpt>
      <trkpt lat="43.64157" lon="3.63634">
        <ele>186</ele>
        <time>2021-04-03T12:34:08Z</time>
      </trkpt>
      <trkpt lat="43.64157" lon="3.63631">
        <ele>186</ele>
        <time>2021-04-03T12:34:09Z</time>
      </trkpt>
      <trkpt lat="43.64157" lon="3.63628">
        <ele>186</ele>
        <time>2021-04-03T12:34:10Z</time>
      </trkpt>
      <trkpt lat="43.64157" lon="3.63625">
        <ele>186</ele>
        <time>2021-04-03T12:34:11Z</time>
      </trkpt>
      <trkpt lat="43.64157" lon="3.6362">
        <ele>186</ele>
        <time>2021-04-03T12:34:12Z</time>
      </trkpt>
      <trkpt lat="43.64157" lon="3.63616">
        <ele>186</ele>
        <time>2021-04-03T12:34:13Z</time>
      </trkpt>
      <trkpt lat="43.64158" lon="3.63612">
        <ele>186</ele>
        <time>2021-04-03T12:34:14Z</time>
      </trkpt>
      <trkpt lat="43.64159" lon="3.63607">
        <ele>186</ele>
        <time>2021-04-03T12:34:15Z</time>
      </trkpt>
      <trkpt lat="43.6416" lon="3.63603">
        <ele>186</ele>
        <time>2021-04-03T12:34:16Z</time>
      </trkpt>
      <trkpt lat="43.64161" lon="3.63599">
        <ele>186</ele>
        <time>2021-04-03T12:34:17Z</time>
      </trkpt>
      <trkpt lat="43.64162" lon="3.63595">
        <ele>186</ele>
        <time>2021-04-03T12:34:18Z</time>
      </trkpt>
      <trkpt lat="43.64163" lon="3.63591">
        <ele>186</ele>
        <time>2021-04-03T12:34:19Z</time>
      </trkpt>
      <trkpt lat="43.64165" lon="3.63586">
        <ele>186</ele>
        <time>2021-04-03T12:34:20Z</time>
      </trkpt>
      <trkpt lat="43.64166" lon="3.63582">
        <ele>186</ele>
        <time>2021-04-03T12:34:21Z</time>
      </trkpt>
      <trkpt lat="43.64167" lon="3.63578">
        <ele>186</ele>
        <time>2021-04-03T12:34:22Z</time>
      </trkpt>
      <trkpt lat="43.64168" lon="3.63572">
        <ele>186</ele>
        <time>2021-04-03T12:34:23Z</time>
      </trkpt>
      <trkpt lat="43.64169" lon="3.63566">
        <ele>186</ele>
        <time>2021-04-03T12:34:24Z</time>
      </trkpt>
      <trkpt lat="43.64169" lon="3.6356">
        <ele>186</ele>
        <time>2021-04-03T12:34:25Z</time>
      </trkpt>
      <trkpt lat="43.64169" lon="3.63554">
        <ele>186</ele>
        <time>2021-04-03T12:34:26Z</time>
      </trkpt>
      <trkpt lat="43.64168" lon="3.63548">
        <ele>186</ele>
        <time>2021-04-03T12:34:27Z</time>
      </trkpt>
      <trkpt lat="43.64167" lon="3.63543">
        <ele>186</ele>
        <time>2021-04-03T12:34:28Z</time>
      </trkpt>
      <trkpt lat="43.64166" lon="3.63539">
        <ele>186</ele>
        <time>2021-04-03T12:34:29Z</time>
      </trkpt>
      <trkpt lat="43.64164" lon="3.63534">
        <ele>186</ele>
        <time>2021-04-03T12:34:30Z</time>
      </trkpt>
      <trkpt lat="43.64162" lon="3.63529">
        <ele>186</ele>
        <time>2021-04-03T12:34:31Z</time>
      </trkpt>
      <trkpt lat="43.64161" lon="3.63525">
        <ele>186</ele>
        <time>2021-04-03T12:34:32Z</time>
      </trkpt>
      <trkpt lat="43.64159" lon="3.63521">
        <ele>186</ele>
        <time>2021-04-03T12:34:33Z</time>
      </trkpt>
      <trkpt lat="43.64158" lon="3.63519">
        <ele>186</ele>
        <time>2021-04-03T12:34:34Z</time>
      </trkpt>
      <trkpt lat="43.64156" lon="3.63516">
        <ele>186</ele>
        <time>2021-04-03T12:34:35Z</time>
      </trkpt>
      <trkpt lat="43.64155" lon="3.63514">
        <ele>186</ele>
        <time>2021-04-03T12:34:36Z</time>
      </trkpt>
      <trkpt lat="43.64152" lon="3.63512">
        <ele>186</ele>
        <time>2021-04-03T12:34:38Z</time>
      </trkpt>
      <trkpt lat="43.64149" lon="3.6351">
        <ele>186</ele>
        <time>2021-04-03T12:34:40Z</time>
      </trkpt>
      <trkpt lat="43.64146" lon="3.63508">
        <ele>186</ele>
        <time>2021-04-03T12:34:42Z</time>
      </trkpt>
      <trkpt lat="43.64143" lon="3.63507">
        <ele>186</ele>
        <time>2021-04-03T12:34:44Z</time>
      </trkpt>
      <trkpt lat="43.64141" lon="3.63506">
        <ele>186</ele>
        <time>2021-04-03T12:34:45Z</time>
      </trkpt>
      <trkpt lat="43.64139" lon="3.63505">
        <ele>186</ele>
        <time>2021-04-03T12:34:46Z</time>
      </trkpt>
      <trkpt lat="43.64137" lon="3.63504">
        <ele>187</ele>
        <time>2021-04-03T12:34:47Z</time>
      </trkpt>
      <trkpt lat="43.64135" lon="3.63503">
        <ele>187</ele>
        <time>2021-04-03T12:34:49Z</time>
      </trkpt>
      <trkpt lat="43.64132" lon="3.63501">
        <ele>187</ele>
        <time>2021-04-03T12:34:51Z</time>
      </trkpt>
      <trkpt lat="43.64128" lon="3.635">
        <ele>187</ele>
        <time>2021-04-03T12:34:53Z</time>
      </trkpt>
      <trkpt lat="43.64125" lon="3.63498">
        <ele>187</ele>
        <time>2021-04-03T12:34:55Z</time>
      </trkpt>
      <trkpt lat="43.64122" lon="3.63497">
        <ele>187</ele>
        <time>2021-04-03T12:34:57Z</time>
      </trkpt>
      <trkpt lat="43.6412" lon="3.63495">
        <ele>187</ele>
        <time>2021-04-03T12:34:59Z</time>
      </trkpt>
      <trkpt lat="43.64117" lon="3.63494">
        <ele>187</ele>
        <time>2021-04-03T12:35:01Z</time>
      </trkpt>
      <trkpt lat="43.64114" lon="3.63493">
        <ele>187</ele>
        <time>2021-04-03T12:35:03Z</time>
      </trkpt>
      <trkpt lat="43.64111" lon="3.63492">
        <ele>187</ele>
        <time>2021-04-03T12:35:05Z</time>
      </trkpt>
      <trkpt lat="43.64108" lon="3.63492">
        <ele>192</ele>
        <time>2021-04-03T12:35:07Z</time>
      </trkpt>
      <trkpt lat="43.64105" lon="3.63491">
        <ele>192</ele>
        <time>2021-04-03T12:35:09Z</time>
      </trkpt>
      <trkpt lat="43.64103" lon="3.63489">
        <ele>192</ele>
        <time>2021-04-03T12:35:11Z</time>
      </trkpt>
      <trkpt lat="43.641" lon="3.63487">
        <ele>192</ele>
        <time>2021-04-03T12:35:13Z</time>
      </trkpt>
      <trkpt lat="43.64098" lon="3.63485">
        <ele>192</ele>
        <time>2021-04-03T12:35:15Z</time>
      </trkpt>
      <trkpt lat="43.64096" lon="3.63483">
        <ele>194</ele>
        <time>2021-04-03T12:35:17Z</time>
      </trkpt>
      <trkpt lat="43.64094" lon="3.6348">
        <ele>194</ele>
        <time>2021-04-03T12:35:19Z</time>
      </trkpt>
      <trkpt lat="43.64092" lon="3.63477">
        <ele>194</ele>
        <time>2021-04-03T12:35:21Z</time>
      </trkpt>
      <trkpt lat="43.6409" lon="3.63474">
        <ele>194</ele>
        <time>2021-04-03T12:35:23Z</time>
      </trkpt>
      <trkpt lat="43.64089" lon="3.63471">
        <ele>194</ele>
        <time>2021-04-03T12:35:25Z</time>
      </trkpt>
      <trkpt lat="43.64089" lon="3.63467">
        <ele>195</ele>
        <time>2021-04-03T12:35:27Z</time>
      </trkpt>
      <trkpt lat="43.64089" lon="3.63464">
        <ele>195</ele>
        <time>2021-04-03T12:35:29Z</time>
      </trkpt>
      <trkpt lat="43.64088" lon="3.6346">
        <ele>195</ele>
        <time>2021-04-03T12:35:31Z</time>
      </trkpt>
      <trkpt lat="43.64089" lon="3.63457">
        <ele>195</ele>
        <time>2021-04-03T12:35:33Z</time>
      </trkpt>
      <trkpt lat="43.64089" lon="3.63454">
        <ele>195</ele>
        <time>2021-04-03T12:35:35Z</time>
      </trkpt>
      <trkpt lat="43.6409" lon="3.6345">
        <ele>195</ele>
        <time>2021-04-03T12:35:37Z</time>
      </trkpt>
      <trkpt lat="43.6409" lon="3.63447">
        <ele>195</ele>
        <time>2021-04-03T12:35:39Z</time>
      </trkpt>
      <trkpt lat="43.64091" lon="3.63444">
        <ele>195</ele>
        <time>2021-04-03T12:35:41Z</time>
      </trkpt>
      <trkpt lat="43.64091" lon="3.63441">
        <ele>195</ele>
        <time>2021-04-03T12:35:43Z</time>
      </trkpt>
      <trkpt lat="43.64092" lon="3.63438">
        <ele>195</ele>
        <time>2021-04-03T12:35:45Z</time>
      </trkpt>
      <trkpt lat="43.64093" lon="3.63435">
        <ele>195</ele>
        <time>2021-04-03T12:35:47Z</time>
      </trkpt>
      <trkpt lat="43.64094" lon="3.63432">
        <ele>195</ele>
        <time>2021-04-03T12:35:49Z</time>
      </trkpt>
      <trkpt lat="43.64095" lon="3.63429">
        <ele>195</ele>
        <time>2021-04-03T12:35:51Z</time>
      </trkpt>
      <trkpt lat="43.64096" lon="3.63427">
        <ele>195</ele>
        <time>2021-04-03T12:35:53Z</time>
      </trkpt>
      <trkpt lat="43.64097" lon="3.63424">
        <ele>195</ele>
        <time>2021-04-03T12:35:55Z</time>
      </trkpt>
      <trkpt lat="43.64099" lon="3.63421">
        <ele>195</ele>
        <time>2021-04-03T12:35:57Z</time>
      </trkpt>
      <trkpt lat="43.641" lon="3.63419">
        <ele>195</ele>
        <time>2021-04-03T12:35:59Z</time>
      </trkpt>
      <trkpt lat="43.64102" lon="3.63416">
        <ele>195</ele>
        <time>2021-04-03T12:36:01Z</time>
      </trkpt>
      <trkpt lat="43.64103" lon="3.63414">
        <ele>195</ele>
        <time>2021-04-03T12:36:03Z</time>
      </trkpt>
      <trkpt lat="43.64105" lon="3.63412">
        <ele>195</ele>
        <time>2021-04-03T12:36:05Z</time>
      </trkpt>
      <trkpt lat="43.64107" lon="3.6341">
        <ele>195</ele>
        <time>2021-04-03T12:36:07Z</time>
      </trkpt>
      <trkpt lat="43.64109" lon="3.63407">
        <ele>195</ele>
        <time>2021-04-03T12:36:09Z</time>
      </trkpt>
      <trkpt lat="43.6411" lon="3.63405">
        <ele>195</ele>
        <time>2021-04-03T12:36:11Z</time>
      </trkpt>
      <trkpt lat="43.64111" lon="3.63402">
        <ele>195</ele>
        <time>2021-04-03T12:36:13Z</time>
      </trkpt>
      <trkpt lat="43.64112" lon="3.63398">
        <ele>195</ele>
        <time>2021-04-03T12:36:15Z</time>
      </trkpt>
      <trkpt lat="43.64113" lon="3.63395">
        <ele>195</ele>
        <time>2021-04-03T12:36:17Z</time>
      </trkpt>
      <trkpt lat="43.64113" lon="3.63392">
        <ele>195</ele>
        <time>2021-04-03T12:36:19Z</time>
      </trkpt>
      <trkpt lat="43.64114" lon="3.63389">
        <ele>195</ele>
        <time>2021-04-03T12:36:21Z</time>
      </trkpt>
      <trkpt lat="43.64115" lon="3.63387">
        <ele>195</ele>
        <time>2021-04-03T12:36:23Z</time>
      </trkpt>
      <trkpt lat="43.64116" lon="3.63384">
        <ele>195</ele>
        <time>2021-04-03T12:36:25Z</time>
      </trkpt>
      <trkpt lat="43.64116" lon="3.63381">
        <ele>195</ele>
        <time>2021-04-03T12:36:27Z</time>
      </trkpt>
      <trkpt lat="43.64117" lon="3.63378">
        <ele>195</ele>
        <time>2021-04-03T12:36:29Z</time>
      </trkpt>
      <trkpt lat="43.64117" lon="3.63376">
        <ele>195</ele>
        <time>2021-04-03T12:36:31Z</time>
      </trkpt>
      <trkpt lat="43.64117" lon="3.63375">
        <ele>210</ele>
        <time>2021-04-03T12:36:41Z</time>
      </trkpt>
      <trkpt lat="43.64119" lon="3.63364">
        <ele>212</ele>
        <time>2021-04-03T12:36:59Z</time>
      </trkpt>
      <trkpt lat="43.64119" lon="3.63361">
        <ele>212</ele>
        <time>2021-04-03T12:37:01Z</time>
      </trkpt>
      <trkpt lat="43.6412" lon="3.63359">
        <ele>212</ele>
        <time>2021-04-03T12:37:04Z</time>
      </trkpt>
      <trkpt lat="43.6412" lon="3.63356">
        <ele>212</ele>
        <time>2021-04-03T12:37:07Z</time>
      </trkpt>
      <trkpt lat="43.6412" lon="3.63353">
        <ele>212</ele>
        <time>2021-04-03T12:37:10Z</time>
      </trkpt>
      <trkpt lat="43.6412" lon="3.6335">
        <ele>212</ele>
        <time>2021-04-03T12:37:13Z</time>
      </trkpt>
      <trkpt lat="43.6412" lon="3.63347">
        <ele>212</ele>
        <time>2021-04-03T12:37:16Z</time>
      </trkpt>
      <trkpt lat="43.64119" lon="3.63345">
        <ele>215</ele>
        <time>2021-04-03T12:37:19Z</time>
      </trkpt>
      <trkpt lat="43.64119" lon="3.63342">
        <ele>215</ele>
        <time>2021-04-03T12:37:22Z</time>
      </trkpt>
      <trkpt lat="43.64118" lon="3.63339">
        <ele>215</ele>
        <time>2021-04-03T12:37:25Z</time>
      </trkpt>
      <trkpt lat="43.64118" lon="3.63336">
        <ele>217</ele>
        <time>2021-04-03T12:37:28Z</time>
      </trkpt>
      <trkpt lat="43.64119" lon="3.63332">
        <ele>217</ele>
        <time>2021-04-03T12:37:31Z</time>
      </trkpt>
      <trkpt lat="43.64118" lon="3.63329">
        <ele>217</ele>
        <time>2021-04-03T12:37:34Z</time>
      </trkpt>
      <trkpt lat="43.64119" lon="3.63326">
        <ele>217</ele>
        <time>2021-04-03T12:37:37Z</time>
      </trkpt>
      <trkpt lat="43.6412" lon="3.63324">
        <ele>217</ele>
        <time>2021-04-03T12:37:40Z</time>
      </trkpt>
      <trkpt lat="43.6412" lon="3.6332">
        <ele>217</ele>
        <time>2021-04-03T12:37:43Z</time>
      </trkpt>
      <trkpt lat="43.64121" lon="3.63317">
        <ele>217</ele>
        <time>2021-04-03T12:37:45Z</time>
      </trkpt>
      <trkpt lat="43.64122" lon="3.63315">
        <ele>217</ele>
        <time>2021-04-03T12:37:47Z</time>
      </trkpt>
      <trkpt lat="43.64123" lon="3.63313">
        <ele>217</ele>
        <time>2021-04-03T12:37:49Z</time>
      </trkpt>
      <trkpt lat="43.64124" lon="3.6331">
        <ele>217</ele>
        <time>2021-04-03T12:37:52Z</time>
      </trkpt>
      <trkpt lat="43.64125" lon="3.63308">
        <ele>217</ele>
        <time>2021-04-03T12:37:54Z</time>
      </trkpt>
      <trkpt lat="43.64127" lon="3.63306">
        <ele>217</ele>
        <time>2021-04-03T12:37:56Z</time>
      </trkpt>
      <trkpt lat="43.64128" lon="3.63303">
        <ele>217</ele>
        <time>2021-04-03T12:37:58Z</time>
      </trkpt>
      <trkpt lat="43.64129" lon="3.63301">
        <ele>217</ele>
        <time>2021-04-03T12:38:01Z</time>
      </trkpt>
      <trkpt lat="43.6413" lon="3.63298">
        <ele>217</ele>
        <time>2021-04-03T12:38:03Z</time>
      </trkpt>
      <trkpt lat="43.64132" lon="3.63295">
        <ele>217</ele>
        <time>2021-04-03T12:38:06Z</time>
      </trkpt>
      <trkpt lat="43.64133" lon="3.63292">
        <ele>223</ele>
        <time>2021-04-03T12:38:09Z</time>
      </trkpt>
      <trkpt lat="43.64134" lon="3.6329">
        <ele>223</ele>
        <time>2021-04-03T12:38:11Z</time>
      </trkpt>
      <trkpt lat="43.64135" lon="3.63287">
        <ele>223</ele>
        <time>2021-04-03T12:38:18Z</time>
      </trkpt>
      <trkpt lat="43.64137" lon="3.63284">
        <ele>223</ele>
        <time>2021-04-03T12:38:21Z</time>
      </trkpt>
      <trkpt lat="43.64139" lon="3.63281">
        <ele>223</ele>
        <time>2021-04-03T12:38:23Z</time>
      </trkpt>
      <trkpt lat="43.64141" lon="3.63279">
        <ele>223</ele>
        <time>2021-04-03T12:38:25Z</time>
      </trkpt>
      <trkpt lat="43.64142" lon="3.63277">
        <ele>223</ele>
        <time>2021-04-03T12:38:27Z</time>
      </trkpt>
      <trkpt lat="43.64143" lon="3.63274">
        <ele>225</ele>
        <time>2021-04-03T12:38:29Z</time>
      </trkpt>
      <trkpt lat="43.64143" lon="3.63271">
        <ele>225</ele>
        <time>2021-04-03T12:38:31Z</time>
      </trkpt>
      <trkpt lat="43.64144" lon="3.63267">
        <ele>225</ele>
        <time>2021-04-03T12:38:33Z</time>
      </trkpt>
      <trkpt lat="43.64144" lon="3.63264">
        <ele>225</ele>
        <time>2021-04-03T12:38:35Z</time>
      </trkpt>
      <trkpt lat="43.64143" lon="3.6326">
        <ele>225</ele>
        <time>2021-04-03T12:38:37Z</time>
      </trkpt>
      <trkpt lat="43.64143" lon="3.63257">
        <ele>227</ele>
        <time>2021-04-03T12:38:39Z</time>
      </trkpt>
      <trkpt lat="43.64142" lon="3.63253">
        <ele>227</ele>
        <time>2021-04-03T12:38:41Z</time>
      </trkpt>
      <trkpt lat="43.64141" lon="3.6325">
        <ele>227</ele>
        <time>2021-04-03T12:38:43Z</time>
      </trkpt>
      <trkpt lat="43.64139" lon="3.63247">
        <ele>227</ele>
        <time>2021-04-03T12:38:46Z</time>
      </trkpt>
      <trkpt lat="43.64137" lon="3.63245">
        <ele>227</ele>
        <time>2021-04-03T12:38:48Z</time>
      </trkpt>
      <trkpt lat="43.64136" lon="3.63242">
        <ele>227</ele>
        <time>2021-04-03T12:38:50Z</time>
      </trkpt>
      <trkpt lat="43.64134" lon="3.63239">
        <ele>227</ele>
        <time>2021-04-03T12:38:52Z</time>
      </trkpt>
      <trkpt lat="43.64133" lon="3.63237">
        <ele>227</ele>
        <time>2021-04-03T12:38:54Z</time>
      </trkpt>
      <trkpt lat="43.64132" lon="3.63234">
        <ele>227</ele>
        <time>2021-04-03T12:38:56Z</time>
      </trkpt>
      <trkpt lat="43.6413" lon="3.63231">
        <ele>227</ele>
        <time>2021-04-03T12:38:58Z</time>
      </trkpt>
      <trkpt lat="43.64128" lon="3.63229">
        <ele>227</ele>
        <time>2021-04-03T12:39:00Z</time>
      </trkpt>
      <trkpt lat="43.64126" lon="3.63226">
        <ele>227</ele>
        <time>2021-04-03T12:39:02Z</time>
      </trkpt>
      <trkpt lat="43.64124" lon="3.63223">
        <ele>227</ele>
        <time>2021-04-03T12:39:04Z</time>
      </trkpt>
      <trkpt lat="43.64122" lon="3.63222">
        <ele>227</ele>
        <time>2021-04-03T12:39:06Z</time>
      </trkpt>
      <trkpt lat="43.6412" lon="3.6322">
        <ele>227</ele>
        <time>2021-04-03T12:39:08Z</time>
      </trkpt>
      <trkpt lat="43.64118" lon="3.63218">
        <ele>227</ele>
        <time>2021-04-03T12:39:10Z</time>
      </trkpt>
      <trkpt lat="43.64116" lon="3.63215">
        <ele>227</ele>
        <time>2021-04-03T12:39:12Z</time>
      </trkpt>
      <trkpt lat="43.64115" lon="3.63213">
        <ele>227</ele>
        <time>2021-04-03T12:39:14Z</time>
      </trkpt>
      <trkpt lat="43.64114" lon="3.6321">
        <ele>227</ele>
        <time>2021-04-03T12:39:16Z</time>
      </trkpt>
      <trkpt lat="43.64112" lon="3.63208">
        <ele>232</ele>
        <time>2021-04-03T12:39:18Z</time>
      </trkpt>
      <trkpt lat="43.6411" lon="3.63205">
        <ele>232</ele>
        <time>2021-04-03T12:39:20Z</time>
      </trkpt>
      <trkpt lat="43.64108" lon="3.63203">
        <ele>232</ele>
        <time>2021-04-03T12:39:22Z</time>
      </trkpt>
      <trkpt lat="43.64107" lon="3.63201">
        <ele>232</ele>
        <time>2021-04-03T12:39:24Z</time>
      </trkpt>
      <trkpt lat="43.64105" lon="3.63198">
        <ele>232</ele>
        <time>2021-04-03T12:39:26Z</time>
      </trkpt>
      <trkpt lat="43.64103" lon="3.63196">
        <ele>234</ele>
        <time>2021-04-03T12:39:28Z</time>
      </trkpt>
      <trkpt lat="43.64102" lon="3.63194">
        <ele>234</ele>
        <time>2021-04-03T12:39:30Z</time>
      </trkpt>
      <trkpt lat="43.641" lon="3.63192">
        <ele>234</ele>
        <time>2021-04-03T12:39:32Z</time>
      </trkpt>
      <trkpt lat="43.64099" lon="3.63189">
        <ele>234</ele>
        <time>2021-04-03T12:39:35Z</time>
      </trkpt>
      <trkpt lat="43.64098" lon="3.63186">
        <ele>234</ele>
        <time>2021-04-03T12:39:36Z</time>
      </trkpt>
      <trkpt lat="43.64097" lon="3.63184">
        <ele>236</ele>
        <time>2021-04-03T12:39:38Z</time>
      </trkpt>
      <trkpt lat="43.64096" lon="3.63182">
        <ele>236</ele>
        <time>2021-04-03T12:39:40Z</time>
      </trkpt>
      <trkpt lat="43.64094" lon="3.63179">
        <ele>236</ele>
        <time>2021-04-03T12:39:42Z</time>
      </trkpt>
      <trkpt lat="43.64093" lon="3.63176">
        <ele>236</ele>
        <time>2021-04-03T12:39:44Z</time>
      </trkpt>
      <trkpt lat="43.64093" lon="3.63173">
        <ele>236</ele>
        <time>2021-04-03T12:39:46Z</time>
      </trkpt>
      <trkpt lat="43.64092" lon="3.6317">
        <ele>238</ele>
        <time>2021-04-03T12:39:48Z</time>
      </trkpt>
      <trkpt lat="43.64093" lon="3.63166">
        <ele>238</ele>
        <time>2021-04-03T12:39:50Z</time>
      </trkpt>
      <trkpt lat="43.64093" lon="3.63163">
        <ele>238</ele>
        <time>2021-04-03T12:39:52Z</time>
      </trkpt>
      <trkpt lat="43.64093" lon="3.6316">
        <ele>238</ele>
        <time>2021-04-03T12:39:54Z</time>
      </trkpt>
      <trkpt lat="43.64093" lon="3.63157">
        <ele>238</ele>
        <time>2021-04-03T12:39:56Z</time>
      </trkpt>
      <trkpt lat="43.64093" lon="3.63154">
        <ele>238</ele>
        <time>2021-04-03T12:39:58Z</time>
      </trkpt>
      <trkpt lat="43.64094" lon="3.63151">
        <ele>238</ele>
        <time>2021-04-03T12:40:00Z</time>
      </trkpt>
      <trkpt lat="43.64093" lon="3.63148">
        <ele>238</ele>
        <time>2021-04-03T12:40:02Z</time>
      </trkpt>
      <trkpt lat="43.64093" lon="3.63145">
        <ele>238</ele>
        <time>2021-04-03T12:40:04Z</time>
      </trkpt>
      <trkpt lat="43.64093" lon="3.63141">
        <ele>238</ele>
        <time>2021-04-03T12:40:06Z</time>
      </trkpt>
      <trkpt lat="43.64094" lon="3.63138">
        <ele>238</ele>
        <time>2021-04-03T12:40:08Z</time>
      </trkpt>
      <trkpt lat="43.64093" lon="3.63134">
        <ele>238</ele>
        <time>2021-04-03T12:40:10Z</time>
      </trkpt>
      <trkpt lat="43.64093" lon="3.63131">
        <ele>238</ele>
        <time>2021-04-03T12:40:12Z</time>
      </trkpt>
      <trkpt lat="43.64093" lon="3.63127">
        <ele>238</ele>
        <time>2021-04-03T12:40:14Z</time>
      </trkpt>
      <trkpt lat="43.64093" lon="3.63124">
        <ele>238</ele>
        <time>2021-04-03T12:40:16Z</time>
      </trkpt>
      <trkpt lat="43.64093" lon="3.63121">
        <ele>243</ele>
        <time>2021-04-03T12:40:18Z</time>
      </trkpt>
      <trkpt lat="43.64093" lon="3.63117">
        <ele>243</ele>
        <time>2021-04-03T12:40:20Z</time>
      </trkpt>
      <trkpt lat="43.64093" lon="3.63114">
        <ele>243</ele>
        <time>2021-04-03T12:40:22Z</time>
      </trkpt>
      <trkpt lat="43.64093" lon="3.63111">
        <ele>243</ele>
        <time>2021-04-03T12:40:24Z</time>
      </trkpt>
      <trkpt lat="43.64091" lon="3.63109">
        <ele>243</ele>
        <time>2021-04-03T12:40:26Z</time>
      </trkpt>
      <trkpt lat="43.6409" lon="3.63107">
        <ele>243</ele>
        <time>2021-04-03T12:40:28Z</time>
      </trkpt>
      <trkpt lat="43.64088" lon="3.63104">
        <ele>243</ele>
        <time>2021-04-03T12:40:30Z</time>
      </trkpt>
      <trkpt lat="43.64086" lon="3.63101">
        <ele>243</ele>
        <time>2021-04-03T12:40:32Z</time>
      </trkpt>
      <trkpt lat="43.64086" lon="3.63098">
        <ele>243</ele>
        <time>2021-04-03T12:40:34Z</time>
      </trkpt>
      <trkpt lat="43.64086" lon="3.63094">
        <ele>243</ele>
        <time>2021-04-03T12:40:36Z</time>
      </trkpt>
      <trkpt lat="43.64086" lon="3.63091">
        <ele>243</ele>
        <time>2021-04-03T12:40:38Z</time>
      </trkpt>
      <trkpt lat="43.64086" lon="3.63088">
        <ele>243</ele>
        <time>2021-04-03T12:40:40Z</time>
      </trkpt>
      <trkpt lat="43.64085" lon="3.63084">
        <ele>243</ele>
        <time>2021-04-03T12:40:42Z</time>
      </trkpt>
      <trkpt lat="43.64085" lon="3.63081">
        <ele>243</ele>
        <time>2021-04-03T12:40:44Z</time>
      </trkpt>
      <trkpt lat="43.64085" lon="3.63078">
        <ele>243</ele>
        <time>2021-04-03T12:40:46Z</time>
      </trkpt>
      <trkpt lat="43.64085" lon="3.63075">
        <ele>243</ele>
        <time>2021-04-03T12:40:48Z</time>
      </trkpt>
      <trkpt lat="43.64085" lon="3.63071">
        <ele>243</ele>
        <time>2021-04-03T12:40:50Z</time>
      </trkpt>
      <trkpt lat="43.64085" lon="3.63068">
        <ele>243</ele>
        <time>2021-04-03T12:40:52Z</time>
      </trkpt>
      <trkpt lat="43.64085" lon="3.63064">
        <ele>243</ele>
        <time>2021-04-03T12:40:54Z</time>
      </trkpt>
      <trkpt lat="43.64085" lon="3.63061">
        <ele>243</ele>
        <time>2021-04-03T12:40:56Z</time>
      </trkpt>
      <trkpt lat="43.64084" lon="3.63058">
        <ele>249</ele>
        <time>2021-04-03T12:40:58Z</time>
      </trkpt>
      <trkpt lat="43.64085" lon="3.63055">
        <ele>249</ele>
        <time>2021-04-03T12:41:00Z</time>
      </trkpt>
      <trkpt lat="43.64085" lon="3.63052">
        <ele>249</ele>
        <time>2021-04-03T12:41:02Z</time>
      </trkpt>
      <trkpt lat="43.64085" lon="3.63048">
        <ele>249</ele>
        <time>2021-04-03T12:41:04Z</time>
      </trkpt>
      <trkpt lat="43.64085" lon="3.63045">
        <ele>249</ele>
        <time>2021-04-03T12:41:07Z</time>
      </trkpt>
      <trkpt lat="43.64084" lon="3.63042">
        <ele>249</ele>
        <time>2021-04-03T12:41:08Z</time>
      </trkpt>
      <trkpt lat="43.64085" lon="3.63039">
        <ele>249</ele>
        <time>2021-04-03T12:41:10Z</time>
      </trkpt>
      <trkpt lat="43.64085" lon="3.63035">
        <ele>249</ele>
        <time>2021-04-03T12:41:12Z</time>
      </trkpt>
      <trkpt lat="43.64086" lon="3.63032">
        <ele>249</ele>
        <time>2021-04-03T12:41:14Z</time>
      </trkpt>
      <trkpt lat="43.64086" lon="3.63029">
        <ele>249</ele>
        <time>2021-04-03T12:41:16Z</time>
      </trkpt>
      <trkpt lat="43.64087" lon="3.63025">
        <ele>249</ele>
        <time>2021-04-03T12:41:18Z</time>
      </trkpt>
      <trkpt lat="43.64087" lon="3.63022">
        <ele>249</ele>
        <time>2021-04-03T12:41:20Z</time>
      </trkpt>
      <trkpt lat="43.64088" lon="3.63018">
        <ele>249</ele>
        <time>2021-04-03T12:41:22Z</time>
      </trkpt>
      <trkpt lat="43.64089" lon="3.63015">
        <ele>249</ele>
        <time>2021-04-03T12:41:24Z</time>
      </trkpt>
      <trkpt lat="43.64089" lon="3.63011">
        <ele>249</ele>
        <time>2021-04-03T12:41:26Z</time>
      </trkpt>
      <trkpt lat="43.6409" lon="3.63008">
        <ele>253</ele>
        <time>2021-04-03T12:41:28Z</time>
      </trkpt>
      <trkpt lat="43.6409" lon="3.63004">
        <ele>253</ele>
        <time>2021-04-03T12:41:30Z</time>
      </trkpt>
      <trkpt lat="43.64091" lon="3.63001">
        <ele>253</ele>
        <time>2021-04-03T12:41:32Z</time>
      </trkpt>
      <trkpt lat="43.64092" lon="3.62998">
        <ele>253</ele>
        <time>2021-04-03T12:41:34Z</time>
      </trkpt>
      <trkpt lat="43.64093" lon="3.62995">
        <ele>253</ele>
        <time>2021-04-03T12:41:36Z</time>
      </trkpt>
      <trkpt lat="43.64095" lon="3.62992">
        <ele>253</ele>
        <time>2021-04-03T12:41:38Z</time>
      </trkpt>
      <trkpt lat="43.64096" lon="3.62988">
        <ele>253</ele>
        <time>2021-04-03T12:41:40Z</time>
      </trkpt>
      <trkpt lat="43.64095" lon="3.62985">
        <ele>253</ele>
        <time>2021-04-03T12:41:42Z</time>
      </trkpt>
      <trkpt lat="43.64094" lon="3.6298">
        <ele>253</ele>
        <time>2021-04-03T12:41:44Z</time>
      </trkpt>
      <trkpt lat="43.64093" lon="3.62976">
        <ele>253</ele>
        <time>2021-04-03T12:41:46Z</time>
      </trkpt>
      <trkpt lat="43.64091" lon="3.62973">
        <ele>258</ele>
        <time>2021-04-03T12:41:48Z</time>
      </trkpt>
      <trkpt lat="43.6409" lon="3.62969">
        <ele>258</ele>
        <time>2021-04-03T12:41:50Z</time>
      </trkpt>
      <trkpt lat="43.6409" lon="3.62966">
        <ele>258</ele>
        <time>2021-04-03T12:41:52Z</time>
      </trkpt>
      <trkpt lat="43.64089" lon="3.62963">
        <ele>258</ele>
        <time>2021-04-03T12:41:54Z</time>
      </trkpt>
      <trkpt lat="43.64088" lon="3.6296">
        <ele>258</ele>
        <time>2021-04-03T12:41:56Z</time>
      </trkpt>
      <trkpt lat="43.64087" lon="3.62956">
        <ele>258</ele>
        <time>2021-04-03T12:41:58Z</time>
      </trkpt>
      <trkpt lat="43.64087" lon="3.62953">
        <ele>258</ele>
        <time>2021-04-03T12:42:00Z</time>
      </trkpt>
      <trkpt lat="43.64086" lon="3.6295">
        <ele>258</ele>
        <time>2021-04-03T12:42:02Z</time>
      </trkpt>
      <trkpt lat="43.64086" lon="3.62947">
        <ele>258</ele>
        <time>2021-04-03T12:42:04Z</time>
      </trkpt>
      <trkpt lat="43.64085" lon="3.62943">
        <ele>258</ele>
        <time>2021-04-03T12:42:06Z</time>
      </trkpt>
      <trkpt lat="43.64084" lon="3.62941">
        <ele>258</ele>
        <time>2021-04-03T12:42:08Z</time>
      </trkpt>
      <trkpt lat="43.64084" lon="3.62937">
        <ele>258</ele>
        <time>2021-04-03T12:42:10Z</time>
      </trkpt>
      <trkpt lat="43.64083" lon="3.62934">
        <ele>258</ele>
        <time>2021-04-03T12:42:12Z</time>
      </trkpt>
      <trkpt lat="43.64083" lon="3.62931">
        <ele>258</ele>
        <time>2021-04-03T12:42:14Z</time>
      </trkpt>
      <trkpt lat="43.64083" lon="3.62927">
        <ele>258</ele>
        <time>2021-04-03T12:42:16Z</time>
      </trkpt>
      <trkpt lat="43.64082" lon="3.62923">
        <ele>258</ele>
        <time>2021-04-03T12:42:18Z</time>
      </trkpt>
      <trkpt lat="43.64081" lon="3.62919">
        <ele>258</ele>
        <time>2021-04-03T12:42:20Z</time>
      </trkpt>
      <trkpt lat="43.6408" lon="3.62915">
        <ele>258</ele>
        <time>2021-04-03T12:42:22Z</time>
      </trkpt>
      <trkpt lat="43.6408" lon="3.6291">
        <ele>258</ele>
        <time>2021-04-03T12:42:24Z</time>
      </trkpt>
      <trkpt lat="43.64079" lon="3.62907">
        <ele>258</ele>
        <time>2021-04-03T12:42:26Z</time>
      </trkpt>
      <trkpt lat="43.64077" lon="3.62903">
        <ele>258</ele>
        <time>2021-04-03T12:42:28Z</time>
      </trkpt>
      <trkpt lat="43.64076" lon="3.629">
        <ele>258</ele>
        <time>2021-04-03T12:42:30Z</time>
      </trkpt>
      <trkpt lat="43.64075" lon="3.62897">
        <ele>258</ele>
        <time>2021-04-03T12:42:32Z</time>
      </trkpt>
      <trkpt lat="43.64073" lon="3.62893">
        <ele>258</ele>
        <time>2021-04-03T12:42:34Z</time>
      </trkpt>
      <trkpt lat="43.64072" lon="3.6289">
        <ele>258</ele>
        <time>2021-04-03T12:42:36Z</time>
      </trkpt>
      <trkpt lat="43.64071" lon="3.62888">
        <ele>258</ele>
        <time>2021-04-03T12:42:38Z</time>
      </trkpt>
      <trkpt lat="43.64069" lon="3.62884">
        <ele>265</ele>
        <time>2021-04-03T12:42:39Z</time>
      </trkpt>
      <trkpt lat="43.64068" lon="3.62881">
        <ele>265</ele>
        <time>2021-04-03T12:42:41Z</time>
      </trkpt>
      <trkpt lat="43.64067" lon="3.62878">
        <ele>265</ele>
        <time>2021-04-03T12:42:43Z</time>
      </trkpt>
      <trkpt lat="43.64065" lon="3.62874">
        <ele>265</ele>
        <time>2021-04-03T12:42:45Z</time>
      </trkpt>
      <trkpt lat="43.64064" lon="3.62871">
        <ele>265</ele>
        <time>2021-04-03T12:42:47Z</time>
      </trkpt>
      <trkpt lat="43.64062" lon="3.62869">
        <ele>266</ele>
        <time>2021-04-03T12:42:49Z</time>
      </trkpt>
      <trkpt lat="43.6406" lon="3.62865">
        <ele>266</ele>
        <time>2021-04-03T12:42:51Z</time>
      </trkpt>
      <trkpt lat="43.64057" lon="3.62863">
        <ele>266</ele>
        <time>2021-04-03T12:42:53Z</time>
      </trkpt>
      <trkpt lat="43.64055" lon="3.62861">
        <ele>266</ele>
        <time>2021-04-03T12:42:55Z</time>
      </trkpt>
      <trkpt lat="43.64054" lon="3.62858">
        <ele>266</ele>
        <time>2021-04-03T12:42:57Z</time>
      </trkpt>
      <trkpt lat="43.64052" lon="3.62855">
        <ele>266</ele>
        <time>2021-04-03T12:42:59Z</time>
      </trkpt>
      <trkpt lat="43.64051" lon="3.62851">
        <ele>266</ele>
        <time>2021-04-03T12:43:01Z</time>
      </trkpt>
      <trkpt lat="43.64049" lon="3.62847">
        <ele>266</ele>
        <time>2021-04-03T12:43:03Z</time>
      </trkpt>
      <trkpt lat="43.64048" lon="3.62843">
        <ele>266</ele>
        <time>2021-04-03T12:43:05Z</time>
      </trkpt>
      <trkpt lat="43.64047" lon="3.62839">
        <ele>266</ele>
        <time>2021-04-03T12:43:07Z</time>
      </trkpt>
      <trkpt lat="43.64046" lon="3.62835">
        <ele>266</ele>
        <time>2021-04-03T12:43:09Z</time>
      </trkpt>
      <trkpt lat="43.64045" lon="3.6283">
        <ele>266</ele>
        <time>2021-04-03T12:43:11Z</time>
      </trkpt>
      <trkpt lat="43.64044" lon="3.62826">
        <ele>266</ele>
        <time>2021-04-03T12:43:13Z</time>
      </trkpt>
      <trkpt lat="43.64043" lon="3.62822">
        <ele>266</ele>
        <time>2021-04-03T12:43:15Z</time>
      </trkpt>
      <trkpt lat="43.64042" lon="3.62818">
        <ele>266</ele>
        <time>2021-04-03T12:43:17Z</time>
      </trkpt>
      <trkpt lat="43.6404" lon="3.62814">
        <ele>270</ele>
        <time>2021-04-03T12:43:19Z</time>
      </trkpt>
      <trkpt lat="43.64038" lon="3.6281">
        <ele>270</ele>
        <time>2021-04-03T12:43:21Z</time>
      </trkpt>
      <trkpt lat="43.64036" lon="3.62806">
        <ele>270</ele>
        <time>2021-04-03T12:43:23Z</time>
      </trkpt>
      <trkpt lat="43.64034" lon="3.62802">
        <ele>270</ele>
        <time>2021-04-03T12:43:25Z</time>
      </trkpt>
      <trkpt lat="43.64032" lon="3.62798">
        <ele>270</ele>
        <time>2021-04-03T12:43:27Z</time>
      </trkpt>
      <trkpt lat="43.6403" lon="3.62795">
        <ele>270</ele>
        <time>2021-04-03T12:43:29Z</time>
      </trkpt>
      <trkpt lat="43.64028" lon="3.62791">
        <ele>270</ele>
        <time>2021-04-03T12:43:31Z</time>
      </trkpt>
      <trkpt lat="43.64026" lon="3.62788">
        <ele>270</ele>
        <time>2021-04-03T12:43:33Z</time>
      </trkpt>
      <trkpt lat="43.64025" lon="3.62786">
        <ele>270</ele>
        <time>2021-04-03T12:43:34Z</time>
      </trkpt>
      <trkpt lat="43.64024" lon="3.62784">
        <ele>270</ele>
        <time>2021-04-03T12:43:35Z</time>
      </trkpt>
      <trkpt lat="43.64023" lon="3.62782">
        <ele>270</ele>
        <time>2021-04-03T12:43:36Z</time>
      </trkpt>
      <trkpt lat="43.64022" lon="3.62779">
        <ele>270</ele>
        <time>2021-04-03T12:43:37Z</time>
      </trkpt>
      <trkpt lat="43.6402" lon="3.62777">
        <ele>270</ele>
        <time>2021-04-03T12:43:38Z</time>
      </trkpt>
      <trkpt lat="43.64019" lon="3.62774">
        <ele>272</ele>
        <time>2021-04-03T12:43:39Z</time>
      </trkpt>
      <trkpt lat="43.64017" lon="3.62771">
        <ele>272</ele>
        <time>2021-04-03T12:43:40Z</time>
      </trkpt>
      <trkpt lat="43.64016" lon="3.62769">
        <ele>272</ele>
        <time>2021-04-03T12:43:41Z</time>
      </trkpt>
      <trkpt lat="43.64015" lon="3.62766">
        <ele>272</ele>
        <time>2021-04-03T12:43:42Z</time>
      </trkpt>
      <trkpt lat="43.64014" lon="3.62764">
        <ele>272</ele>
        <time>2021-04-03T12:43:43Z</time>
      </trkpt>
      <trkpt lat="43.64012" lon="3.62761">
        <ele>272</ele>
        <time>2021-04-03T12:43:44Z</time>
      </trkpt>
      <trkpt lat="43.64011" lon="3.62759">
        <ele>272</ele>
        <time>2021-04-03T12:43:45Z</time>
      </trkpt>
      <trkpt lat="43.6401" lon="3.62756">
        <ele>272</ele>
        <time>2021-04-03T12:43:46Z</time>
      </trkpt>
      <trkpt lat="43.64008" lon="3.62753">
        <ele>272</ele>
        <time>2021-04-03T12:43:47Z</time>
      </trkpt>
      <trkpt lat="43.64007" lon="3.6275">
        <ele>272</ele>
        <time>2021-04-03T12:43:48Z</time>
      </trkpt>
      <trkpt lat="43.64005" lon="3.62747">
        <ele>272</ele>
        <time>2021-04-03T12:43:49Z</time>
      </trkpt>
      <trkpt lat="43.64004" lon="3.62743">
        <ele>272</ele>
        <time>2021-04-03T12:43:50Z</time>
      </trkpt>
      <trkpt lat="43.64003" lon="3.62738">
        <ele>272</ele>
        <time>2021-04-03T12:43:51Z</time>
      </trkpt>
      <trkpt lat="43.64002" lon="3.62734">
        <ele>272</ele>
        <time>2021-04-03T12:43:52Z</time>
      </trkpt>
      <trkpt lat="43.64003" lon="3.62729">
        <ele>272</ele>
        <time>2021-04-03T12:43:53Z</time>
      </trkpt>
      <trkpt lat="43.64004" lon="3.62725">
        <ele>272</ele>
        <time>2021-04-03T12:43:54Z</time>
      </trkpt>
      <trkpt lat="43.64006" lon="3.62722">
        <ele>272</ele>
        <time>2021-04-03T12:43:55Z</time>
      </trkpt>
      <trkpt lat="43.64007" lon="3.62719">
        <ele>272</ele>
        <time>2021-04-03T12:43:56Z</time>
      </trkpt>
      <trkpt lat="43.64008" lon="3.62716">
        <ele>272</ele>
        <time>2021-04-03T12:43:57Z</time>
      </trkpt>
      <trkpt lat="43.6401" lon="3.62713">
        <ele>273</ele>
        <time>2021-04-03T12:43:58Z</time>
      </trkpt>
      <trkpt lat="43.64011" lon="3.62711">
        <ele>273</ele>
        <time>2021-04-03T12:43:59Z</time>
      </trkpt>
      <trkpt lat="43.64011" lon="3.62709">
        <ele>273</ele>
        <time>2021-04-03T12:44:00Z</time>
      </trkpt>
      <trkpt lat="43.64013" lon="3.62707">
        <ele>273</ele>
        <time>2021-04-03T12:44:01Z</time>
      </trkpt>
      <trkpt lat="43.64014" lon="3.62704">
        <ele>273</ele>
        <time>2021-04-03T12:44:02Z</time>
      </trkpt>
      <trkpt lat="43.64015" lon="3.62702">
        <ele>273</ele>
        <time>2021-04-03T12:44:03Z</time>
      </trkpt>
      <trkpt lat="43.64016" lon="3.627">
        <ele>273</ele>
        <time>2021-04-03T12:44:04Z</time>
      </trkpt>
      <trkpt lat="43.64017" lon="3.62698">
        <ele>273</ele>
        <time>2021-04-03T12:44:05Z</time>
      </trkpt>
      <trkpt lat="43.64018" lon="3.62695">
        <ele>273</ele>
        <time>2021-04-03T12:44:06Z</time>
      </trkpt>
      <trkpt lat="43.64019" lon="3.62693">
        <ele>273</ele>
        <time>2021-04-03T12:44:07Z</time>
      </trkpt>
      <trkpt lat="43.6402" lon="3.62691">
        <ele>273</ele>
        <time>2021-04-03T12:44:08Z</time>
      </trkpt>
      <trkpt lat="43.64021" lon="3.62688">
        <ele>274</ele>
        <time>2021-04-03T12:44:09Z</time>
      </trkpt>
      <trkpt lat="43.64022" lon="3.62686">
        <ele>274</ele>
        <time>2021-04-03T12:44:10Z</time>
      </trkpt>
      <trkpt lat="43.64023" lon="3.62683">
        <ele>274</ele>
        <time>2021-04-03T12:44:11Z</time>
      </trkpt>
      <trkpt lat="43.64024" lon="3.6268">
        <ele>274</ele>
        <time>2021-04-03T12:44:12Z</time>
      </trkpt>
      <trkpt lat="43.64025" lon="3.62677">
        <ele>274</ele>
        <time>2021-04-03T12:44:13Z</time>
      </trkpt>
      <trkpt lat="43.64026" lon="3.62674">
        <ele>274</ele>
        <time>2021-04-03T12:44:14Z</time>
      </trkpt>
      <trkpt lat="43.64027" lon="3.62671">
        <ele>274</ele>
        <time>2021-04-03T12:44:15Z</time>
      </trkpt>
      <trkpt lat="43.64028" lon="3.62668">
        <ele>274</ele>
        <time>2021-04-03T12:44:16Z</time>
      </trkpt>
      <trkpt lat="43.64029" lon="3.62665">
        <ele>274</ele>
        <time>2021-04-03T12:44:17Z</time>
      </trkpt>
      <trkpt lat="43.6403" lon="3.62662">
        <ele>274</ele>
        <time>2021-04-03T12:44:18Z</time>
      </trkpt>
      <trkpt lat="43.64031" lon="3.62659">
        <ele>274</ele>
        <time>2021-04-03T12:44:19Z</time>
      </trkpt>
      <trkpt lat="43.64032" lon="3.62656">
        <ele>274</ele>
        <time>2021-04-03T12:44:20Z</time>
      </trkpt>
      <trkpt lat="43.64032" lon="3.62653">
        <ele>274</ele>
        <time>2021-04-03T12:44:21Z</time>
      </trkpt>
      <trkpt lat="43.64033" lon="3.62649">
        <ele>274</ele>
        <time>2021-04-03T12:44:22Z</time>
      </trkpt>
      <trkpt lat="43.64034" lon="3.62646">
        <ele>274</ele>
        <time>2021-04-03T12:44:23Z</time>
      </trkpt>
      <trkpt lat="43.64035" lon="3.62643">
        <ele>274</ele>
        <time>2021-04-03T12:44:24Z</time>
      </trkpt>
      <trkpt lat="43.64036" lon="3.6264">
        <ele>274</ele>
        <time>2021-04-03T12:44:25Z</time>
      </trkpt>
      <trkpt lat="43.64037" lon="3.62637">
        <ele>274</ele>
        <time>2021-04-03T12:44:26Z</time>
      </trkpt>
      <trkpt lat="43.64039" lon="3.62634">
        <ele>274</ele>
        <time>2021-04-03T12:44:27Z</time>
      </trkpt>
      <trkpt lat="43.6404" lon="3.6263">
        <ele>275</ele>
        <time>2021-04-03T12:44:28Z</time>
      </trkpt>
      <trkpt lat="43.64041" lon="3.62626">
        <ele>275</ele>
        <time>2021-04-03T12:44:29Z</time>
      </trkpt>
      <trkpt lat="43.64043" lon="3.62623">
        <ele>275</ele>
        <time>2021-04-03T12:44:30Z</time>
      </trkpt>
      <trkpt lat="43.64044" lon="3.6262">
        <ele>275</ele>
        <time>2021-04-03T12:44:31Z</time>
      </trkpt>
      <trkpt lat="43.64046" lon="3.62617">
        <ele>275</ele>
        <time>2021-04-03T12:44:32Z</time>
      </trkpt>
      <trkpt lat="43.64047" lon="3.62614">
        <ele>275</ele>
        <time>2021-04-03T12:44:33Z</time>
      </trkpt>
      <trkpt lat="43.64049" lon="3.62611">
        <ele>275</ele>
        <time>2021-04-03T12:44:34Z</time>
      </trkpt>
      <trkpt lat="43.6405" lon="3.62608">
        <ele>275</ele>
        <time>2021-04-03T12:44:35Z</time>
      </trkpt>
      <trkpt lat="43.64052" lon="3.62605">
        <ele>275</ele>
        <time>2021-04-03T12:44:36Z</time>
      </trkpt>
      <trkpt lat="43.64053" lon="3.62602">
        <ele>275</ele>
        <time>2021-04-03T12:44:37Z</time>
      </trkpt>
      <trkpt lat="43.64054" lon="3.626">
        <ele>277</ele>
        <time>2021-04-03T12:44:38Z</time>
      </trkpt>
      <trkpt lat="43.64056" lon="3.62597">
        <ele>277</ele>
        <time>2021-04-03T12:44:39Z</time>
      </trkpt>
      <trkpt lat="43.64058" lon="3.62595">
        <ele>277</ele>
        <time>2021-04-03T12:44:40Z</time>
      </trkpt>
      <trkpt lat="43.64059" lon="3.62592">
        <ele>277</ele>
        <time>2021-04-03T12:44:41Z</time>
      </trkpt>
      <trkpt lat="43.64061" lon="3.6259">
        <ele>277</ele>
        <time>2021-04-03T12:44:42Z</time>
      </trkpt>
      <trkpt lat="43.64062" lon="3.62587">
        <ele>277</ele>
        <time>2021-04-03T12:44:43Z</time>
      </trkpt>
      <trkpt lat="43.64064" lon="3.62585">
        <ele>277</ele>
        <time>2021-04-03T12:44:44Z</time>
      </trkpt>
      <trkpt lat="43.64065" lon="3.62583">
        <ele>277</ele>
        <time>2021-04-03T12:44:45Z</time>
      </trkpt>
      <trkpt lat="43.64067" lon="3.6258">
        <ele>277</ele>
        <time>2021-04-03T12:44:46Z</time>
      </trkpt>
      <trkpt lat="43.64069" lon="3.62577">
        <ele>277</ele>
        <time>2021-04-03T12:44:47Z</time>
      </trkpt>
      <trkpt lat="43.64071" lon="3.62574">
        <ele>278</ele>
        <time>2021-04-03T12:44:48Z</time>
      </trkpt>
      <trkpt lat="43.64073" lon="3.62572">
        <ele>278</ele>
        <time>2021-04-03T12:44:49Z</time>
      </trkpt>
      <trkpt lat="43.64075" lon="3.6257">
        <ele>278</ele>
        <time>2021-04-03T12:44:50Z</time>
      </trkpt>
      <trkpt lat="43.64077" lon="3.62568">
        <ele>278</ele>
        <time>2021-04-03T12:44:51Z</time>
      </trkpt>
      <trkpt lat="43.64079" lon="3.62565">
        <ele>278</ele>
        <time>2021-04-03T12:44:52Z</time>
      </trkpt>
      <trkpt lat="43.6408" lon="3.62563">
        <ele>278</ele>
        <time>2021-04-03T12:44:53Z</time>
      </trkpt>
      <trkpt lat="43.64082" lon="3.62562">
        <ele>278</ele>
        <time>2021-04-03T12:44:54Z</time>
      </trkpt>
      <trkpt lat="43.64084" lon="3.62558">
        <ele>278</ele>
        <time>2021-04-03T12:44:56Z</time>
      </trkpt>
      <trkpt lat="43.64086" lon="3.62554">
        <ele>279</ele>
        <time>2021-04-03T12:44:58Z</time>
      </trkpt>
      <trkpt lat="43.64088" lon="3.62553">
        <ele>279</ele>
        <time>2021-04-03T12:44:59Z</time>
      </trkpt>
      <trkpt lat="43.64089" lon="3.62552">
        <ele>279</ele>
        <time>2021-04-03T12:45:00Z</time>
      </trkpt>
      <trkpt lat="43.64092" lon="3.62548">
        <ele>279</ele>
        <time>2021-04-03T12:45:02Z</time>
      </trkpt>
      <trkpt lat="43.64094" lon="3.62545">
        <ele>279</ele>
        <time>2021-04-03T12:45:04Z</time>
      </trkpt>
      <trkpt lat="43.64096" lon="3.62541">
        <ele>279</ele>
        <time>2021-04-03T12:45:06Z</time>
      </trkpt>
      <trkpt lat="43.64097" lon="3.6254">
        <ele>279</ele>
        <time>2021-04-03T12:45:07Z</time>
      </trkpt>
      <trkpt lat="43.64099" lon="3.62538">
        <ele>280</ele>
        <time>2021-04-03T12:45:08Z</time>
      </trkpt>
      <trkpt lat="43.641" lon="3.62536">
        <ele>280</ele>
        <time>2021-04-03T12:45:09Z</time>
      </trkpt>
      <trkpt lat="43.64102" lon="3.62533">
        <ele>280</ele>
        <time>2021-04-03T12:45:10Z</time>
      </trkpt>
      <trkpt lat="43.64104" lon="3.62531">
        <ele>280</ele>
        <time>2021-04-03T12:45:11Z</time>
      </trkpt>
      <trkpt lat="43.64105" lon="3.62528">
        <ele>280</ele>
        <time>2021-04-03T12:45:12Z</time>
      </trkpt>
      <trkpt lat="43.64107" lon="3.62523">
        <ele>280</ele>
        <time>2021-04-03T12:45:14Z</time>
      </trkpt>
      <trkpt lat="43.64108" lon="3.62521">
        <ele>280</ele>
        <time>2021-04-03T12:45:15Z</time>
      </trkpt>
      <trkpt lat="43.6411" lon="3.62519">
        <ele>280</ele>
        <time>2021-04-03T12:45:16Z</time>
      </trkpt>
      <trkpt lat="43.64111" lon="3.62517">
        <ele>280</ele>
        <time>2021-04-03T12:45:17Z</time>
      </trkpt>
      <trkpt lat="43.64112" lon="3.62514">
        <ele>279</ele>
        <time>2021-04-03T12:45:18Z</time>
      </trkpt>
      <trkpt lat="43.64113" lon="3.62512">
        <ele>279</ele>
        <time>2021-04-03T12:45:19Z</time>
      </trkpt>
      <trkpt lat="43.64114" lon="3.62509">
        <ele>279</ele>
        <time>2021-04-03T12:45:20Z</time>
      </trkpt>
      <trkpt lat="43.64116" lon="3.62504">
        <ele>279</ele>
        <time>2021-04-03T12:45:22Z</time>
      </trkpt>
      <trkpt lat="43.64117" lon="3.62498">
        <ele>279</ele>
        <time>2021-04-03T12:45:24Z</time>
      </trkpt>
      <trkpt lat="43.64117" lon="3.62495">
        <ele>279</ele>
        <time>2021-04-03T12:45:25Z</time>
      </trkpt>
      <trkpt lat="43.64118" lon="3.62491">
        <ele>279</ele>
        <time>2021-04-03T12:45:26Z</time>
      </trkpt>
      <trkpt lat="43.64119" lon="3.62488">
        <ele>279</ele>
        <time>2021-04-03T12:45:27Z</time>
      </trkpt>
      <trkpt lat="43.64119" lon="3.62485">
        <ele>279</ele>
        <time>2021-04-03T12:45:28Z</time>
      </trkpt>
      <trkpt lat="43.64119" lon="3.62483">
        <ele>279</ele>
        <time>2021-04-03T12:45:29Z</time>
      </trkpt>
      <trkpt lat="43.6412" lon="3.6248">
        <ele>279</ele>
        <time>2021-04-03T12:45:30Z</time>
      </trkpt>
      <trkpt lat="43.64121" lon="3.62477">
        <ele>279</ele>
        <time>2021-04-03T12:45:31Z</time>
      </trkpt>
      <trkpt lat="43.64121" lon="3.62475">
        <ele>279</ele>
        <time>2021-04-03T12:45:32Z</time>
      </trkpt>
      <trkpt lat="43.64122" lon="3.62472">
        <ele>279</ele>
        <time>2021-04-03T12:45:33Z</time>
      </trkpt>
      <trkpt lat="43.64123" lon="3.6247">
        <ele>279</ele>
        <time>2021-04-03T12:45:34Z</time>
      </trkpt>
      <trkpt lat="43.64124" lon="3.62467">
        <ele>279</ele>
        <time>2021-04-03T12:45:35Z</time>
      </trkpt>
      <trkpt lat="43.64125" lon="3.62464">
        <ele>279</ele>
        <time>2021-04-03T12:45:36Z</time>
      </trkpt>
      <trkpt lat="43.64126" lon="3.62461">
        <ele>279</ele>
        <time>2021-04-03T12:45:37Z</time>
      </trkpt>
      <trkpt lat="43.64127" lon="3.62459">
        <ele>279</ele>
        <time>2021-04-03T12:45:38Z</time>
      </trkpt>
      <trkpt lat="43.64129" lon="3.62457">
        <ele>280</ele>
        <time>2021-04-03T12:45:39Z</time>
      </trkpt>
      <trkpt lat="43.64131" lon="3.62454">
        <ele>280</ele>
        <time>2021-04-03T12:45:41Z</time>
      </trkpt>
      <trkpt lat="43.64132" lon="3.62452">
        <ele>280</ele>
        <time>2021-04-03T12:45:42Z</time>
      </trkpt>
      <trkpt lat="43.64133" lon="3.62449">
        <ele>280</ele>
        <time>2021-04-03T12:45:43Z</time>
      </trkpt>
      <trkpt lat="43.64135" lon="3.62446">
        <ele>280</ele>
        <time>2021-04-03T12:45:44Z</time>
      </trkpt>
      <trkpt lat="43.64136" lon="3.62443">
        <ele>280</ele>
        <time>2021-04-03T12:45:45Z</time>
      </trkpt>
      <trkpt lat="43.64137" lon="3.62441">
        <ele>280</ele>
        <time>2021-04-03T12:45:46Z</time>
      </trkpt>
      <trkpt lat="43.64138" lon="3.62439">
        <ele>280</ele>
        <time>2021-04-03T12:45:47Z</time>
      </trkpt>
      <trkpt lat="43.64139" lon="3.62436">
        <ele>280</ele>
        <time>2021-04-03T12:45:48Z</time>
      </trkpt>
      <trkpt lat="43.6414" lon="3.62434">
        <ele>281</ele>
        <time>2021-04-03T12:45:49Z</time>
      </trkpt>
      <trkpt lat="43.64141" lon="3.62432">
        <ele>281</ele>
        <time>2021-04-03T12:45:50Z</time>
      </trkpt>
      <trkpt lat="43.64143" lon="3.6243">
        <ele>281</ele>
        <time>2021-04-03T12:45:51Z</time>
      </trkpt>
      <trkpt lat="43.64144" lon="3.62428">
        <ele>281</ele>
        <time>2021-04-03T12:45:52Z</time>
      </trkpt>
      <trkpt lat="43.64145" lon="3.62426">
        <ele>281</ele>
        <time>2021-04-03T12:45:53Z</time>
      </trkpt>
      <trkpt lat="43.64145" lon="3.62423">
        <ele>281</ele>
        <time>2021-04-03T12:45:54Z</time>
      </trkpt>
      <trkpt lat="43.64146" lon="3.62421">
        <ele>281</ele>
        <time>2021-04-03T12:45:55Z</time>
      </trkpt>
      <trkpt lat="43.64148" lon="3.62417">
        <ele>281</ele>
        <time>2021-04-03T12:45:57Z</time>
      </trkpt>
      <trkpt lat="43.64149" lon="3.62412">
        <ele>281</ele>
        <time>2021-04-03T12:45:59Z</time>
      </trkpt>
      <trkpt lat="43.64151" lon="3.62408">
        <ele>281</ele>
        <time>2021-04-03T12:46:01Z</time>
      </trkpt>
      <trkpt lat="43.64151" lon="3.62406">
        <ele>281</ele>
        <time>2021-04-03T12:46:02Z</time>
      </trkpt>
      <trkpt lat="43.64152" lon="3.62404">
        <ele>281</ele>
        <time>2021-04-03T12:46:03Z</time>
      </trkpt>
      <trkpt lat="43.64154" lon="3.624">
        <ele>281</ele>
        <time>2021-04-03T12:46:05Z</time>
      </trkpt>
      <trkpt lat="43.64155" lon="3.62397">
        <ele>281</ele>
        <time>2021-04-03T12:46:07Z</time>
      </trkpt>
      <trkpt lat="43.64156" lon="3.62394">
        <ele>281</ele>
        <time>2021-04-03T12:46:09Z</time>
      </trkpt>
      <trkpt lat="43.64157" lon="3.6239">
        <ele>281</ele>
        <time>2021-04-03T12:46:11Z</time>
      </trkpt>
      <trkpt lat="43.64158" lon="3.62387">
        <ele>281</ele>
        <time>2021-04-03T12:46:13Z</time>
      </trkpt>
      <trkpt lat="43.64159" lon="3.62384">
        <ele>281</ele>
        <time>2021-04-03T12:46:15Z</time>
      </trkpt>
      <trkpt lat="43.64161" lon="3.6238">
        <ele>281</ele>
        <time>2021-04-03T12:46:17Z</time>
      </trkpt>
      <trkpt lat="43.64162" lon="3.62377">
        <ele>280</ele>
        <time>2021-04-03T12:46:19Z</time>
      </trkpt>
      <trkpt lat="43.64163" lon="3.62373">
        <ele>280</ele>
        <time>2021-04-03T12:46:21Z</time>
      </trkpt>
      <trkpt lat="43.64165" lon="3.6237">
        <ele>280</ele>
        <time>2021-04-03T12:46:23Z</time>
      </trkpt>
      <trkpt lat="43.64166" lon="3.62367">
        <ele>280</ele>
        <time>2021-04-03T12:46:25Z</time>
      </trkpt>
      <trkpt lat="43.64167" lon="3.62364">
        <ele>280</ele>
        <time>2021-04-03T12:46:27Z</time>
      </trkpt>
      <trkpt lat="43.64168" lon="3.62361">
        <ele>280</ele>
        <time>2021-04-03T12:46:29Z</time>
      </trkpt>
      <trkpt lat="43.6417" lon="3.62357">
        <ele>280</ele>
        <time>2021-04-03T12:46:31Z</time>
      </trkpt>
      <trkpt lat="43.64172" lon="3.62354">
        <ele>280</ele>
        <time>2021-04-03T12:46:33Z</time>
      </trkpt>
      <trkpt lat="43.64174" lon="3.62351">
        <ele>280</ele>
        <time>2021-04-03T12:46:35Z</time>
      </trkpt>
      <trkpt lat="43.64176" lon="3.62348">
        <ele>280</ele>
        <time>2021-04-03T12:46:37Z</time>
      </trkpt>
      <trkpt lat="43.64178" lon="3.62344">
        <ele>280</ele>
        <time>2021-04-03T12:46:39Z</time>
      </trkpt>
      <trkpt lat="43.6418" lon="3.6234">
        <ele>280</ele>
        <time>2021-04-03T12:46:41Z</time>
      </trkpt>
      <trkpt lat="43.64182" lon="3.62336">
        <ele>280</ele>
        <time>2021-04-03T12:46:43Z</time>
      </trkpt>
      <trkpt lat="43.64184" lon="3.62333">
        <ele>280</ele>
        <time>2021-04-03T12:46:45Z</time>
      </trkpt>
      <trkpt lat="43.64186" lon="3.6233">
        <ele>280</ele>
        <time>2021-04-03T12:46:47Z</time>
      </trkpt>
      <trkpt lat="43.64189" lon="3.62326">
        <ele>281</ele>
        <time>2021-04-03T12:46:49Z</time>
      </trkpt>
      <trkpt lat="43.64191" lon="3.62322">
        <ele>281</ele>
        <time>2021-04-03T12:46:51Z</time>
      </trkpt>
      <trkpt lat="43.64193" lon="3.62319">
        <ele>281</ele>
        <time>2021-04-03T12:46:53Z</time>
      </trkpt>
      <trkpt lat="43.64195" lon="3.62315">
        <ele>281</ele>
        <time>2021-04-03T12:46:55Z</time>
      </trkpt>
      <trkpt lat="43.64197" lon="3.62313">
        <ele>281</ele>
        <time>2021-04-03T12:46:56Z</time>
      </trkpt>
      <trkpt lat="43.64199" lon="3.6231">
        <ele>281</ele>
        <time>2021-04-03T12:46:58Z</time>
      </trkpt>
      <trkpt lat="43.642" lon="3.62308">
        <ele>281</ele>
        <time>2021-04-03T12:46:59Z</time>
      </trkpt>
      <trkpt lat="43.64202" lon="3.62306">
        <ele>281</ele>
        <time>2021-04-03T12:47:00Z</time>
      </trkpt>
      <trkpt lat="43.64203" lon="3.62304">
        <ele>281</ele>
        <time>2021-04-03T12:47:02Z</time>
      </trkpt>
      <trkpt lat="43.64205" lon="3.623">
        <ele>281</ele>
        <time>2021-04-03T12:47:03Z</time>
      </trkpt>
      <trkpt lat="43.64207" lon="3.62298">
        <ele>281</ele>
        <time>2021-04-03T12:47:04Z</time>
      </trkpt>
      <trkpt lat="43.64208" lon="3.62296">
        <ele>281</ele>
        <time>2021-04-03T12:47:05Z</time>
      </trkpt>
      <trkpt lat="43.64209" lon="3.62294">
        <ele>281</ele>
        <time>2021-04-03T12:47:06Z</time>
      </trkpt>
      <trkpt lat="43.64212" lon="3.62289">
        <ele>281</ele>
        <time>2021-04-03T12:47:08Z</time>
      </trkpt>
      <trkpt lat="43.64213" lon="3.62286">
        <ele>280</ele>
        <time>2021-04-03T12:47:09Z</time>
      </trkpt>
      <trkpt lat="43.64214" lon="3.62284">
        <ele>280</ele>
        <time>2021-04-03T12:47:10Z</time>
      </trkpt>
      <trkpt lat="43.64216" lon="3.62281">
        <ele>280</ele>
        <time>2021-04-03T12:47:11Z</time>
      </trkpt>
      <trkpt lat="43.64217" lon="3.62279">
        <ele>280</ele>
        <time>2021-04-03T12:47:12Z</time>
      </trkpt>
      <trkpt lat="43.64218" lon="3.62276">
        <ele>280</ele>
        <time>2021-04-03T12:47:13Z</time>
      </trkpt>
      <trkpt lat="43.64219" lon="3.62274">
        <ele>280</ele>
        <time>2021-04-03T12:47:14Z</time>
      </trkpt>
      <trkpt lat="43.6422" lon="3.62271">
        <ele>280</ele>
        <time>2021-04-03T12:47:15Z</time>
      </trkpt>
      <trkpt lat="43.64221" lon="3.62268">
        <ele>280</ele>
        <time>2021-04-03T12:47:16Z</time>
      </trkpt>
      <trkpt lat="43.64222" lon="3.62266">
        <ele>280</ele>
        <time>2021-04-03T12:47:17Z</time>
      </trkpt>
      <trkpt lat="43.64223" lon="3.62263">
        <ele>279</ele>
        <time>2021-04-03T12:47:18Z</time>
      </trkpt>
      <trkpt lat="43.64224" lon="3.62261">
        <ele>279</ele>
        <time>2021-04-03T12:47:19Z</time>
      </trkpt>
      <trkpt lat="43.64225" lon="3.62258">
        <ele>279</ele>
        <time>2021-04-03T12:47:20Z</time>
      </trkpt>
      <trkpt lat="43.64226" lon="3.62254">
        <ele>279</ele>
        <time>2021-04-03T12:47:22Z</time>
      </trkpt>
      <trkpt lat="43.64227" lon="3.6225">
        <ele>279</ele>
        <time>2021-04-03T12:47:24Z</time>
      </trkpt>
      <trkpt lat="43.64229" lon="3.62246">
        <ele>279</ele>
        <time>2021-04-03T12:47:26Z</time>
      </trkpt>
      <trkpt lat="43.6423" lon="3.62243">
        <ele>279</ele>
        <time>2021-04-03T12:47:27Z</time>
      </trkpt>
      <trkpt lat="43.64231" lon="3.62241">
        <ele>279</ele>
        <time>2021-04-03T12:47:28Z</time>
      </trkpt>
      <trkpt lat="43.64232" lon="3.62238">
        <ele>279</ele>
        <time>2021-04-03T12:47:29Z</time>
      </trkpt>
      <trkpt lat="43.64232" lon="3.62236">
        <ele>279</ele>
        <time>2021-04-03T12:47:30Z</time>
      </trkpt>
      <trkpt lat="43.64233" lon="3.62234">
        <ele>279</ele>
        <time>2021-04-03T12:47:31Z</time>
      </trkpt>
      <trkpt lat="43.64234" lon="3.62231">
        <ele>279</ele>
        <time>2021-04-03T12:47:32Z</time>
      </trkpt>
      <trkpt lat="43.64235" lon="3.62229">
        <ele>279</ele>
        <time>2021-04-03T12:47:33Z</time>
      </trkpt>
      <trkpt lat="43.64236" lon="3.62226">
        <ele>279</ele>
        <time>2021-04-03T12:47:34Z</time>
      </trkpt>
      <trkpt lat="43.64237" lon="3.62223">
        <ele>279</ele>
        <time>2021-04-03T12:47:35Z</time>
      </trkpt>
      <trkpt lat="43.64237" lon="3.62221">
        <ele>279</ele>
        <time>2021-04-03T12:47:36Z</time>
      </trkpt>
      <trkpt lat="43.64238" lon="3.62219">
        <ele>279</ele>
        <time>2021-04-03T12:47:37Z</time>
      </trkpt>
      <trkpt lat="43.64239" lon="3.62216">
        <ele>279</ele>
        <time>2021-04-03T12:47:38Z</time>
      </trkpt>
      <trkpt lat="43.64241" lon="3.62212">
        <ele>279</ele>
        <time>2021-04-03T12:47:41Z</time>
      </trkpt>
      <trkpt lat="43.64243" lon="3.62208">
        <ele>279</ele>
        <time>2021-04-03T12:47:42Z</time>
      </trkpt>
      <trkpt lat="43.64244" lon="3.62205">
        <ele>279</ele>
        <time>2021-04-03T12:47:43Z</time>
      </trkpt>
      <trkpt lat="43.64245" lon="3.62201">
        <ele>279</ele>
        <time>2021-04-03T12:47:45Z</time>
      </trkpt>
      <trkpt lat="43.64247" lon="3.62197">
        <ele>279</ele>
        <time>2021-04-03T12:47:47Z</time>
      </trkpt>
      <trkpt lat="43.64248" lon="3.62195">
        <ele>279</ele>
        <time>2021-04-03T12:47:48Z</time>
      </trkpt>
      <trkpt lat="43.64249" lon="3.62193">
        <ele>279</ele>
        <time>2021-04-03T12:47:49Z</time>
      </trkpt>
      <trkpt lat="43.6425" lon="3.62191">
        <ele>279</ele>
        <time>2021-04-03T12:47:50Z</time>
      </trkpt>
      <trkpt lat="43.64253" lon="3.62189">
        <ele>279</ele>
        <time>2021-04-03T12:47:52Z</time>
      </trkpt>
      <trkpt lat="43.64255" lon="3.62186">
        <ele>279</ele>
        <time>2021-04-03T12:47:54Z</time>
      </trkpt>
      <trkpt lat="43.64256" lon="3.62183">
        <ele>279</ele>
        <time>2021-04-03T12:47:56Z</time>
      </trkpt>
      <trkpt lat="43.64258" lon="3.62181">
        <ele>279</ele>
        <time>2021-04-03T12:47:58Z</time>
      </trkpt>
      <trkpt lat="43.6426" lon="3.62179">
        <ele>279</ele>
        <time>2021-04-03T12:48:00Z</time>
      </trkpt>
      <trkpt lat="43.64261" lon="3.62177">
        <ele>279</ele>
        <time>2021-04-03T12:48:02Z</time>
      </trkpt>
      <trkpt lat="43.64262" lon="3.62174">
        <ele>279</ele>
        <time>2021-04-03T12:48:05Z</time>
      </trkpt>
      <trkpt lat="43.6426" lon="3.62175">
        <ele>279</ele>
        <time>2021-04-03T12:48:12Z</time>
      </trkpt>
      <trkpt lat="43.64259" lon="3.62177">
        <ele>279</ele>
        <time>2021-04-03T12:48:13Z</time>
      </trkpt>
      <trkpt lat="43.64257" lon="3.62179">
        <ele>279</ele>
        <time>2021-04-03T12:48:14Z</time>
      </trkpt>
      <trkpt lat="43.64256" lon="3.62181">
        <ele>279</ele>
        <time>2021-04-03T12:48:15Z</time>
      </trkpt>
      <trkpt lat="43.64254" lon="3.62182">
        <ele>279</ele>
        <time>2021-04-03T12:48:16Z</time>
      </trkpt>
      <trkpt lat="43.64251" lon="3.62183">
        <ele>279</ele>
        <time>2021-04-03T12:48:18Z</time>
      </trkpt>
      <trkpt lat="43.64248" lon="3.62181">
        <ele>279</ele>
        <time>2021-04-03T12:48:20Z</time>
      </trkpt>
      <trkpt lat="43.64247" lon="3.62178">
        <ele>279</ele>
        <time>2021-04-03T12:48:21Z</time>
      </trkpt>
      <trkpt lat="43.64246" lon="3.62176">
        <ele>279</ele>
        <time>2021-04-03T12:48:22Z</time>
      </trkpt>
      <trkpt lat="43.64243" lon="3.62173">
        <ele>279</ele>
        <time>2021-04-03T12:48:24Z</time>
      </trkpt>
      <trkpt lat="43.64242" lon="3.62171">
        <ele>279</ele>
        <time>2021-04-03T12:48:25Z</time>
      </trkpt>
      <trkpt lat="43.64239" lon="3.62168">
        <ele>279</ele>
        <time>2021-04-03T12:48:27Z</time>
      </trkpt>
      <trkpt lat="43.64235" lon="3.62166">
        <ele>279</ele>
        <time>2021-04-03T12:48:29Z</time>
      </trkpt>
      <trkpt lat="43.64233" lon="3.62165">
        <ele>279</ele>
        <time>2021-04-03T12:48:30Z</time>
      </trkpt>
      <trkpt lat="43.64231" lon="3.62164">
        <ele>279</ele>
        <time>2021-04-03T12:48:31Z</time>
      </trkpt>
      <trkpt lat="43.64229" lon="3.62163">
        <ele>279</ele>
        <time>2021-04-03T12:48:32Z</time>
      </trkpt>
      <trkpt lat="43.64226" lon="3.62161">
        <ele>279</ele>
        <time>2021-04-03T12:48:33Z</time>
      </trkpt>
      <trkpt lat="43.64224" lon="3.62159">
        <ele>279</ele>
        <time>2021-04-03T12:48:34Z</time>
      </trkpt>
      <trkpt lat="43.64222" lon="3.62158">
        <ele>279</ele>
        <time>2021-04-03T12:48:35Z</time>
      </trkpt>
      <trkpt lat="43.64219" lon="3.62155">
        <ele>279</ele>
        <time>2021-04-03T12:48:36Z</time>
      </trkpt>
      <trkpt lat="43.64216" lon="3.62154">
        <ele>279</ele>
        <time>2021-04-03T12:48:37Z</time>
      </trkpt>
      <trkpt lat="43.64212" lon="3.62153">
        <ele>279</ele>
        <time>2021-04-03T12:48:38Z</time>
      </trkpt>
      <trkpt lat="43.64208" lon="3.62153">
        <ele>276</ele>
        <time>2021-04-03T12:48:39Z</time>
      </trkpt>
      <trkpt lat="43.64205" lon="3.62153">
        <ele>276</ele>
        <time>2021-04-03T12:48:40Z</time>
      </trkpt>
      <trkpt lat="43.64201" lon="3.62151">
        <ele>276</ele>
        <time>2021-04-03T12:48:41Z</time>
      </trkpt>
      <trkpt lat="43.64197" lon="3.62149">
        <ele>276</ele>
        <time>2021-04-03T12:48:42Z</time>
      </trkpt>
      <trkpt lat="43.64193" lon="3.62147">
        <ele>276</ele>
        <time>2021-04-03T12:48:43Z</time>
      </trkpt>
      <trkpt lat="43.6419" lon="3.62146">
        <ele>276</ele>
        <time>2021-04-03T12:48:44Z</time>
      </trkpt>
      <trkpt lat="43.64187" lon="3.62144">
        <ele>276</ele>
        <time>2021-04-03T12:48:45Z</time>
      </trkpt>
      <trkpt lat="43.64184" lon="3.62142">
        <ele>276</ele>
        <time>2021-04-03T12:48:46Z</time>
      </trkpt>
      <trkpt lat="43.64182" lon="3.62139">
        <ele>276</ele>
        <time>2021-04-03T12:48:47Z</time>
      </trkpt>
      <trkpt lat="43.64179" lon="3.62137">
        <ele>274</ele>
        <time>2021-04-03T12:48:48Z</time>
      </trkpt>
      <trkpt lat="43.64176" lon="3.62135">
        <ele>274</ele>
        <time>2021-04-03T12:48:49Z</time>
      </trkpt>
      <trkpt lat="43.64174" lon="3.62134">
        <ele>274</ele>
        <time>2021-04-03T12:48:50Z</time>
      </trkpt>
      <trkpt lat="43.64172" lon="3.62133">
        <ele>274</ele>
        <time>2021-04-03T12:48:51Z</time>
      </trkpt>
      <trkpt lat="43.64169" lon="3.62132">
        <ele>274</ele>
        <time>2021-04-03T12:48:52Z</time>
      </trkpt>
      <trkpt lat="43.64166" lon="3.62131">
        <ele>274</ele>
        <time>2021-04-03T12:48:53Z</time>
      </trkpt>
      <trkpt lat="43.64162" lon="3.6213">
        <ele>274</ele>
        <time>2021-04-03T12:48:54Z</time>
      </trkpt>
      <trkpt lat="43.64158" lon="3.62129">
        <ele>274</ele>
        <time>2021-04-03T12:48:55Z</time>
      </trkpt>
      <trkpt lat="43.64154" lon="3.62127">
        <ele>274</ele>
        <time>2021-04-03T12:48:56Z</time>
      </trkpt>
      <trkpt lat="43.64151" lon="3.62126">
        <ele>274</ele>
        <time>2021-04-03T12:48:57Z</time>
      </trkpt>
      <trkpt lat="43.64147" lon="3.62125">
        <ele>273</ele>
        <time>2021-04-03T12:48:58Z</time>
      </trkpt>
      <trkpt lat="43.64144" lon="3.62124">
        <ele>273</ele>
        <time>2021-04-03T12:48:59Z</time>
      </trkpt>
      <trkpt lat="43.64141" lon="3.62124">
        <ele>273</ele>
        <time>2021-04-03T12:49:00Z</time>
      </trkpt>
      <trkpt lat="43.64136" lon="3.62122">
        <ele>273</ele>
        <time>2021-04-03T12:49:02Z</time>
      </trkpt>
      <trkpt lat="43.64134" lon="3.62121">
        <ele>273</ele>
        <time>2021-04-03T12:49:03Z</time>
      </trkpt>
      <trkpt lat="43.6413" lon="3.62119">
        <ele>273</ele>
        <time>2021-04-03T12:49:04Z</time>
      </trkpt>
      <trkpt lat="43.64128" lon="3.62118">
        <ele>273</ele>
        <time>2021-04-03T12:49:05Z</time>
      </trkpt>
      <trkpt lat="43.64126" lon="3.62116">
        <ele>273</ele>
        <time>2021-04-03T12:49:06Z</time>
      </trkpt>
      <trkpt lat="43.64123" lon="3.62115">
        <ele>273</ele>
        <time>2021-04-03T12:49:07Z</time>
      </trkpt>
      <trkpt lat="43.64121" lon="3.62114">
        <ele>273</ele>
        <time>2021-04-03T12:49:08Z</time>
      </trkpt>
      <trkpt lat="43.64119" lon="3.62114">
        <ele>271</ele>
        <time>2021-04-03T12:49:09Z</time>
      </trkpt>
      <trkpt lat="43.64118" lon="3.62116">
        <ele>271</ele>
        <time>2021-04-03T12:49:10Z</time>
      </trkpt>
      <trkpt lat="43.64116" lon="3.62117">
        <ele>271</ele>
        <time>2021-04-03T12:49:11Z</time>
      </trkpt>
      <trkpt lat="43.64112" lon="3.62117">
        <ele>271</ele>
        <time>2021-04-03T12:49:13Z</time>
      </trkpt>
      <trkpt lat="43.6411" lon="3.62118">
        <ele>271</ele>
        <time>2021-04-03T12:49:14Z</time>
      </trkpt>
      <trkpt lat="43.64107" lon="3.6212">
        <ele>271</ele>
        <time>2021-04-03T12:49:27Z</time>
      </trkpt>
      <trkpt lat="43.64099" lon="3.62127">
        <ele>268</ele>
        <time>2021-04-03T12:49:37Z</time>
      </trkpt>
      <trkpt lat="43.64094" lon="3.62133">
        <ele>268</ele>
        <time>2021-04-03T12:49:38Z</time>
      </trkpt>
      <trkpt lat="43.64092" lon="3.62136">
        <ele>268</ele>
        <time>2021-04-03T12:49:39Z</time>
      </trkpt>
      <trkpt lat="43.64089" lon="3.62139">
        <ele>268</ele>
        <time>2021-04-03T12:49:40Z</time>
      </trkpt>
      <trkpt lat="43.64086" lon="3.62143">
        <ele>268</ele>
        <time>2021-04-03T12:49:41Z</time>
      </trkpt>
      <trkpt lat="43.64083" lon="3.62148">
        <ele>268</ele>
        <time>2021-04-03T12:49:42Z</time>
      </trkpt>
      <trkpt lat="43.6408" lon="3.62154">
        <ele>268</ele>
        <time>2021-04-03T12:49:43Z</time>
      </trkpt>
      <trkpt lat="43.64076" lon="3.62162">
        <ele>268</ele>
        <time>2021-04-03T12:49:44Z</time>
      </trkpt>
      <trkpt lat="43.64069" lon="3.62176">
        <ele>268</ele>
        <time>2021-04-03T12:49:46Z</time>
      </trkpt>
      <trkpt lat="43.64065" lon="3.62181">
        <ele>267</ele>
        <time>2021-04-03T12:49:47Z</time>
      </trkpt>
      <trkpt lat="43.64062" lon="3.62188">
        <ele>267</ele>
        <time>2021-04-03T12:49:48Z</time>
      </trkpt>
      <trkpt lat="43.64057" lon="3.62193">
        <ele>267</ele>
        <time>2021-04-03T12:49:49Z</time>
      </trkpt>
      <trkpt lat="43.64052" lon="3.62198">
        <ele>267</ele>
        <time>2021-04-03T12:49:50Z</time>
      </trkpt>
      <trkpt lat="43.64047" lon="3.62202">
        <ele>267</ele>
        <time>2021-04-03T12:49:51Z</time>
      </trkpt>
      <trkpt lat="43.64037" lon="3.62211">
        <ele>267</ele>
        <time>2021-04-03T12:49:53Z</time>
      </trkpt>
      <trkpt lat="43.64025" lon="3.62219">
        <ele>265</ele>
        <time>2021-04-03T12:49:57Z</time>
      </trkpt>
      <trkpt lat="43.64013" lon="3.62229">
        <ele>265</ele>
        <time>2021-04-03T12:49:59Z</time>
      </trkpt>
      <trkpt lat="43.64002" lon="3.62236">
        <ele>265</ele>
        <time>2021-04-03T12:50:02Z</time>
      </trkpt>
      <trkpt lat="43.63993" lon="3.62238">
        <ele>265</ele>
        <time>2021-04-03T12:50:05Z</time>
      </trkpt>
      <trkpt lat="43.63984" lon="3.62243">
        <ele>265</ele>
        <time>2021-04-03T12:50:10Z</time>
      </trkpt>
      <trkpt lat="43.63982" lon="3.62244">
        <ele>265</ele>
        <time>2021-04-03T12:50:18Z</time>
      </trkpt>
      <trkpt lat="43.63979" lon="3.62244">
        <ele>265</ele>
        <time>2021-04-03T12:50:21Z</time>
      </trkpt>
      <trkpt lat="43.63976" lon="3.62246">
        <ele>265</ele>
        <time>2021-04-03T12:50:23Z</time>
      </trkpt>
      <trkpt lat="43.63972" lon="3.62249">
        <ele>265</ele>
        <time>2021-04-03T12:50:26Z</time>
      </trkpt>
      <trkpt lat="43.63965" lon="3.62261">
        <ele>265</ele>
        <time>2021-04-03T12:50:29Z</time>
      </trkpt>
      <trkpt lat="43.6396" lon="3.62275">
        <ele>265</ele>
        <time>2021-04-03T12:50:31Z</time>
      </trkpt>
      <trkpt lat="43.63954" lon="3.62287">
        <ele>265</ele>
        <time>2021-04-03T12:50:33Z</time>
      </trkpt>
      <trkpt lat="43.63949" lon="3.62298">
        <ele>265</ele>
        <time>2021-04-03T12:50:35Z</time>
      </trkpt>
      <trkpt lat="43.63943" lon="3.62308">
        <ele>258</ele>
        <time>2021-04-03T12:50:37Z</time>
      </trkpt>
      <trkpt lat="43.63938" lon="3.62322">
        <ele>258</ele>
        <time>2021-04-03T12:50:39Z</time>
      </trkpt>
      <trkpt lat="43.63934" lon="3.62336">
        <ele>258</ele>
        <time>2021-04-03T12:50:41Z</time>
      </trkpt>
      <trkpt lat="43.63929" lon="3.62346">
        <ele>258</ele>
        <time>2021-04-03T12:50:43Z</time>
      </trkpt>
      <trkpt lat="43.63924" lon="3.62358">
        <ele>258</ele>
        <time>2021-04-03T12:50:45Z</time>
      </trkpt>
      <trkpt lat="43.63917" lon="3.62373">
        <ele>258</ele>
        <time>2021-04-03T12:50:48Z</time>
      </trkpt>
      <trkpt lat="43.6391" lon="3.62385">
        <ele>258</ele>
        <time>2021-04-03T12:50:50Z</time>
      </trkpt>
      <trkpt lat="43.63903" lon="3.62395">
        <ele>258</ele>
        <time>2021-04-03T12:50:52Z</time>
      </trkpt>
      <trkpt lat="43.63895" lon="3.62404">
        <ele>258</ele>
        <time>2021-04-03T12:50:54Z</time>
      </trkpt>
      <trkpt lat="43.63889" lon="3.62414">
        <ele>258</ele>
        <time>2021-04-03T12:50:56Z</time>
      </trkpt>
      <trkpt lat="43.63881" lon="3.62426">
        <ele>258</ele>
        <time>2021-04-03T12:50:58Z</time>
      </trkpt>
      <trkpt lat="43.63875" lon="3.62442">
        <ele>258</ele>
        <time>2021-04-03T12:51:01Z</time>
      </trkpt>
      <trkpt lat="43.63872" lon="3.62456">
        <ele>258</ele>
        <time>2021-04-03T12:51:03Z</time>
      </trkpt>
      <trkpt lat="43.6387" lon="3.6247">
        <ele>258</ele>
        <time>2021-04-03T12:51:05Z</time>
      </trkpt>
      <trkpt lat="43.63866" lon="3.62483">
        <ele>258</ele>
        <time>2021-04-03T12:51:07Z</time>
      </trkpt>
      <trkpt lat="43.63863" lon="3.62496">
        <ele>258</ele>
        <time>2021-04-03T12:51:09Z</time>
      </trkpt>
      <trkpt lat="43.63858" lon="3.62511">
        <ele>258</ele>
        <time>2021-04-03T12:51:12Z</time>
      </trkpt>
      <trkpt lat="43.63852" lon="3.62524">
        <ele>258</ele>
        <time>2021-04-03T12:51:14Z</time>
      </trkpt>
      <trkpt lat="43.63848" lon="3.62537">
        <ele>247</ele>
        <time>2021-04-03T12:51:16Z</time>
      </trkpt>
      <trkpt lat="43.63843" lon="3.62555">
        <ele>247</ele>
        <time>2021-04-03T12:51:18Z</time>
      </trkpt>
      <trkpt lat="43.63837" lon="3.62572">
        <ele>247</ele>
        <time>2021-04-03T12:51:20Z</time>
      </trkpt>
      <trkpt lat="43.63831" lon="3.62586">
        <ele>247</ele>
        <time>2021-04-03T12:51:22Z</time>
      </trkpt>
      <trkpt lat="43.63824" lon="3.62598">
        <ele>247</ele>
        <time>2021-04-03T12:51:24Z</time>
      </trkpt>
      <trkpt lat="43.63815" lon="3.6261">
        <ele>247</ele>
        <time>2021-04-03T12:51:27Z</time>
      </trkpt>
      <trkpt lat="43.63807" lon="3.62622">
        <ele>247</ele>
        <time>2021-04-03T12:51:28Z</time>
      </trkpt>
      <trkpt lat="43.638" lon="3.62634">
        <ele>247</ele>
        <time>2021-04-03T12:51:30Z</time>
      </trkpt>
      <trkpt lat="43.63792" lon="3.62648">
        <ele>247</ele>
        <time>2021-04-03T12:51:32Z</time>
      </trkpt>
      <trkpt lat="43.63783" lon="3.62659">
        <ele>247</ele>
        <time>2021-04-03T12:51:34Z</time>
      </trkpt>
      <trkpt lat="43.63777" lon="3.62669">
        <ele>247</ele>
        <time>2021-04-03T12:51:36Z</time>
      </trkpt>
      <trkpt lat="43.6377" lon="3.62682">
        <ele>247</ele>
        <time>2021-04-03T12:51:39Z</time>
      </trkpt>
      <trkpt lat="43.63764" lon="3.62689">
        <ele>247</ele>
        <time>2021-04-03T12:51:41Z</time>
      </trkpt>
      <trkpt lat="43.63762" lon="3.62693">
        <ele>247</ele>
        <time>2021-04-03T12:51:42Z</time>
      </trkpt>
      <trkpt lat="43.6376" lon="3.62696">
        <ele>247</ele>
        <time>2021-04-03T12:51:43Z</time>
      </trkpt>
      <trkpt lat="43.63758" lon="3.627">
        <ele>247</ele>
        <time>2021-04-03T12:51:44Z</time>
      </trkpt>
      <trkpt lat="43.63756" lon="3.62703">
        <ele>247</ele>
        <time>2021-04-03T12:51:45Z</time>
      </trkpt>
      <trkpt lat="43.63753" lon="3.62706">
        <ele>237</ele>
        <time>2021-04-03T12:51:46Z</time>
      </trkpt>
      <trkpt lat="43.63751" lon="3.62708">
        <ele>237</ele>
        <time>2021-04-03T12:51:47Z</time>
      </trkpt>
      <trkpt lat="43.63749" lon="3.62711">
        <ele>237</ele>
        <time>2021-04-03T12:51:48Z</time>
      </trkpt>
      <trkpt lat="43.63746" lon="3.62713">
        <ele>237</ele>
        <time>2021-04-03T12:51:49Z</time>
      </trkpt>
      <trkpt lat="43.63741" lon="3.62718">
        <ele>237</ele>
        <time>2021-04-03T12:51:51Z</time>
      </trkpt>
      <trkpt lat="43.63738" lon="3.62721">
        <ele>237</ele>
        <time>2021-04-03T12:51:52Z</time>
      </trkpt>
      <trkpt lat="43.63735" lon="3.62723">
        <ele>237</ele>
        <time>2021-04-03T12:51:53Z</time>
      </trkpt>
      <trkpt lat="43.63733" lon="3.62725">
        <ele>237</ele>
        <time>2021-04-03T12:51:54Z</time>
      </trkpt>
      <trkpt lat="43.6373" lon="3.62728">
        <ele>237</ele>
        <time>2021-04-03T12:51:55Z</time>
      </trkpt>
      <trkpt lat="43.63727" lon="3.6273">
        <ele>234</ele>
        <time>2021-04-03T12:51:56Z</time>
      </trkpt>
      <trkpt lat="43.63725" lon="3.62732">
        <ele>234</ele>
        <time>2021-04-03T12:51:57Z</time>
      </trkpt>
      <trkpt lat="43.63722" lon="3.62734">
        <ele>234</ele>
        <time>2021-04-03T12:51:58Z</time>
      </trkpt>
      <trkpt lat="43.63719" lon="3.62736">
        <ele>234</ele>
        <time>2021-04-03T12:51:59Z</time>
      </trkpt>
      <trkpt lat="43.63716" lon="3.62738">
        <ele>234</ele>
        <time>2021-04-03T12:52:00Z</time>
      </trkpt>
      <trkpt lat="43.63713" lon="3.62739">
        <ele>234</ele>
        <time>2021-04-03T12:52:01Z</time>
      </trkpt>
      <trkpt lat="43.6371" lon="3.6274">
        <ele>234</ele>
        <time>2021-04-03T12:52:02Z</time>
      </trkpt>
      <trkpt lat="43.63706" lon="3.62741">
        <ele>234</ele>
        <time>2021-04-03T12:52:03Z</time>
      </trkpt>
      <trkpt lat="43.63703" lon="3.62742">
        <ele>234</ele>
        <time>2021-04-03T12:52:04Z</time>
      </trkpt>
      <trkpt lat="43.63698" lon="3.62743">
        <ele>234</ele>
        <time>2021-04-03T12:52:05Z</time>
      </trkpt>
      <trkpt lat="43.63695" lon="3.62744">
        <ele>231</ele>
        <time>2021-04-03T12:52:06Z</time>
      </trkpt>
      <trkpt lat="43.63689" lon="3.62745">
        <ele>231</ele>
        <time>2021-04-03T12:52:08Z</time>
      </trkpt>
      <trkpt lat="43.63687" lon="3.62744">
        <ele>231</ele>
        <time>2021-04-03T12:52:10Z</time>
      </trkpt>
      <trkpt lat="43.63684" lon="3.62744">
        <ele>231</ele>
        <time>2021-04-03T12:52:11Z</time>
      </trkpt>
      <trkpt lat="43.63681" lon="3.62745">
        <ele>231</ele>
        <time>2021-04-03T12:52:12Z</time>
      </trkpt>
      <trkpt lat="43.63678" lon="3.62745">
        <ele>231</ele>
        <time>2021-04-03T12:52:13Z</time>
      </trkpt>
      <trkpt lat="43.63676" lon="3.62744">
        <ele>231</ele>
        <time>2021-04-03T12:52:14Z</time>
      </trkpt>
      <trkpt lat="43.63674" lon="3.62743">
        <ele>231</ele>
        <time>2021-04-03T12:52:15Z</time>
      </trkpt>
      <trkpt lat="43.63669" lon="3.62742">
        <ele>230</ele>
        <time>2021-04-03T12:52:17Z</time>
      </trkpt>
      <trkpt lat="43.63668" lon="3.62741">
        <ele>230</ele>
        <time>2021-04-03T12:52:18Z</time>
      </trkpt>
      <trkpt lat="43.63666" lon="3.6274">
        <ele>230</ele>
        <time>2021-04-03T12:52:19Z</time>
      </trkpt>
      <trkpt lat="43.63663" lon="3.62738">
        <ele>230</ele>
        <time>2021-04-03T12:52:20Z</time>
      </trkpt>
      <trkpt lat="43.63661" lon="3.62737">
        <ele>230</ele>
        <time>2021-04-03T12:52:21Z</time>
      </trkpt>
      <trkpt lat="43.63659" lon="3.62736">
        <ele>230</ele>
        <time>2021-04-03T12:52:22Z</time>
      </trkpt>
      <trkpt lat="43.63658" lon="3.62734">
        <ele>230</ele>
        <time>2021-04-03T12:52:23Z</time>
      </trkpt>
      <trkpt lat="43.63656" lon="3.62733">
        <ele>230</ele>
        <time>2021-04-03T12:52:24Z</time>
      </trkpt>
      <trkpt lat="43.63655" lon="3.62731">
        <ele>230</ele>
        <time>2021-04-03T12:52:25Z</time>
      </trkpt>
      <trkpt lat="43.63652" lon="3.62729">
        <ele>230</ele>
        <time>2021-04-03T12:52:27Z</time>
      </trkpt>
      <trkpt lat="43.63649" lon="3.62726">
        <ele>230</ele>
        <time>2021-04-03T12:52:29Z</time>
      </trkpt>
      <trkpt lat="43.63647" lon="3.62722">
        <ele>230</ele>
        <time>2021-04-03T12:52:31Z</time>
      </trkpt>
      <trkpt lat="43.63645" lon="3.62719">
        <ele>230</ele>
        <time>2021-04-03T12:52:33Z</time>
      </trkpt>
      <trkpt lat="43.63642" lon="3.62717">
        <ele>230</ele>
        <time>2021-04-03T12:52:35Z</time>
      </trkpt>
      <trkpt lat="43.63639" lon="3.62715">
        <ele>231</ele>
        <time>2021-04-03T12:52:37Z</time>
      </trkpt>
      <trkpt lat="43.63637" lon="3.62714">
        <ele>231</ele>
        <time>2021-04-03T12:52:39Z</time>
      </trkpt>
      <trkpt lat="43.63635" lon="3.62713">
        <ele>231</ele>
        <time>2021-04-03T12:52:40Z</time>
      </trkpt>
      <trkpt lat="43.63633" lon="3.62711">
        <ele>231</ele>
        <time>2021-04-03T12:52:41Z</time>
      </trkpt>
      <trkpt lat="43.6363" lon="3.62709">
        <ele>231</ele>
        <time>2021-04-03T12:52:43Z</time>
      </trkpt>
      <trkpt lat="43.63628" lon="3.62708">
        <ele>231</ele>
        <time>2021-04-03T12:52:44Z</time>
      </trkpt>
      <trkpt lat="43.63626" lon="3.62707">
        <ele>231</ele>
        <time>2021-04-03T12:52:45Z</time>
      </trkpt>
      <trkpt lat="43.63625" lon="3.62706">
        <ele>231</ele>
        <time>2021-04-03T12:52:46Z</time>
      </trkpt>
      <trkpt lat="43.63622" lon="3.62705">
        <ele>231</ele>
        <time>2021-04-03T12:52:47Z</time>
      </trkpt>
      <trkpt lat="43.6362" lon="3.62704">
        <ele>231</ele>
        <time>2021-04-03T12:52:48Z</time>
      </trkpt>
      <trkpt lat="43.63619" lon="3.62703">
        <ele>231</ele>
        <time>2021-04-03T12:52:49Z</time>
      </trkpt>
      <trkpt lat="43.63616" lon="3.62701">
        <ele>231</ele>
        <time>2021-04-03T12:52:51Z</time>
      </trkpt>
      <trkpt lat="43.63614" lon="3.627">
        <ele>231</ele>
        <time>2021-04-03T12:52:52Z</time>
      </trkpt>
      <trkpt lat="43.63612" lon="3.62698">
        <ele>231</ele>
        <time>2021-04-03T12:52:53Z</time>
      </trkpt>
      <trkpt lat="43.6361" lon="3.62697">
        <ele>231</ele>
        <time>2021-04-03T12:52:54Z</time>
      </trkpt>
      <trkpt lat="43.63608" lon="3.62695">
        <ele>231</ele>
        <time>2021-04-03T12:52:55Z</time>
      </trkpt>
      <trkpt lat="43.63605" lon="3.62693">
        <ele>231</ele>
        <time>2021-04-03T12:52:57Z</time>
      </trkpt>
      <trkpt lat="43.63603" lon="3.62691">
        <ele>231</ele>
        <time>2021-04-03T12:52:58Z</time>
      </trkpt>
      <trkpt lat="43.63601" lon="3.62689">
        <ele>231</ele>
        <time>2021-04-03T12:52:59Z</time>
      </trkpt>
      <trkpt lat="43.63599" lon="3.62688">
        <ele>231</ele>
        <time>2021-04-03T12:53:00Z</time>
      </trkpt>
      <trkpt lat="43.63598" lon="3.62686">
        <ele>231</ele>
        <time>2021-04-03T12:53:01Z</time>
      </trkpt>
      <trkpt lat="43.63596" lon="3.62684">
        <ele>231</ele>
        <time>2021-04-03T12:53:02Z</time>
      </trkpt>
      <trkpt lat="43.63594" lon="3.62683">
        <ele>231</ele>
        <time>2021-04-03T12:53:03Z</time>
      </trkpt>
      <trkpt lat="43.63593" lon="3.62681">
        <ele>231</ele>
        <time>2021-04-03T12:53:04Z</time>
      </trkpt>
      <trkpt lat="43.63591" lon="3.6268">
        <ele>231</ele>
        <time>2021-04-03T12:53:05Z</time>
      </trkpt>
      <trkpt lat="43.63589" lon="3.62679">
        <ele>231</ele>
        <time>2021-04-03T12:53:06Z</time>
      </trkpt>
      <trkpt lat="43.63586" lon="3.62676">
        <ele>231</ele>
        <time>2021-04-03T12:53:08Z</time>
      </trkpt>
      <trkpt lat="43.63583" lon="3.62673">
        <ele>231</ele>
        <time>2021-04-03T12:53:10Z</time>
      </trkpt>
      <trkpt lat="43.63581" lon="3.62672">
        <ele>231</ele>
        <time>2021-04-03T12:53:11Z</time>
      </trkpt>
      <trkpt lat="43.63579" lon="3.62671">
        <ele>231</ele>
        <time>2021-04-03T12:53:12Z</time>
      </trkpt>
      <trkpt lat="43.63577" lon="3.6267">
        <ele>231</ele>
        <time>2021-04-03T12:53:13Z</time>
      </trkpt>
      <trkpt lat="43.63576" lon="3.62669">
        <ele>231</ele>
        <time>2021-04-03T12:53:14Z</time>
      </trkpt>
      <trkpt lat="43.63573" lon="3.62666">
        <ele>231</ele>
        <time>2021-04-03T12:53:16Z</time>
      </trkpt>
      <trkpt lat="43.6357" lon="3.62664">
        <ele>231</ele>
        <time>2021-04-03T12:53:18Z</time>
      </trkpt>
      <trkpt lat="43.63568" lon="3.62663">
        <ele>231</ele>
        <time>2021-04-03T12:53:19Z</time>
      </trkpt>
      <trkpt lat="43.63566" lon="3.62662">
        <ele>231</ele>
        <time>2021-04-03T12:53:20Z</time>
      </trkpt>
      <trkpt lat="43.63564" lon="3.62661">
        <ele>231</ele>
        <time>2021-04-03T12:53:21Z</time>
      </trkpt>
      <trkpt lat="43.63562" lon="3.62659">
        <ele>231</ele>
        <time>2021-04-03T12:53:22Z</time>
      </trkpt>
      <trkpt lat="43.63561" lon="3.62658">
        <ele>231</ele>
        <time>2021-04-03T12:53:23Z</time>
      </trkpt>
      <trkpt lat="43.63559" lon="3.62656">
        <ele>231</ele>
        <time>2021-04-03T12:53:24Z</time>
      </trkpt>
      <trkpt lat="43.63555" lon="3.62654">
        <ele>232</ele>
        <time>2021-04-03T12:53:26Z</time>
      </trkpt>
      <trkpt lat="43.63553" lon="3.62653">
        <ele>232</ele>
        <time>2021-04-03T12:53:27Z</time>
      </trkpt>
      <trkpt lat="43.6355" lon="3.62652">
        <ele>232</ele>
        <time>2021-04-03T12:53:29Z</time>
      </trkpt>
      <trkpt lat="43.63547" lon="3.62651">
        <ele>232</ele>
        <time>2021-04-03T12:53:31Z</time>
      </trkpt>
      <trkpt lat="43.63545" lon="3.6265">
        <ele>232</ele>
        <time>2021-04-03T12:53:32Z</time>
      </trkpt>
      <trkpt lat="43.63543" lon="3.62646">
        <ele>232</ele>
        <time>2021-04-03T12:53:34Z</time>
      </trkpt>
      <trkpt lat="43.63541" lon="3.62643">
        <ele>233</ele>
        <time>2021-04-03T12:53:36Z</time>
      </trkpt>
      <trkpt lat="43.63539" lon="3.62639">
        <ele>233</ele>
        <time>2021-04-03T12:53:38Z</time>
      </trkpt>
      <trkpt lat="43.63537" lon="3.62637">
        <ele>233</ele>
        <time>2021-04-03T12:53:40Z</time>
      </trkpt>
      <trkpt lat="43.63535" lon="3.62635">
        <ele>233</ele>
        <time>2021-04-03T12:53:42Z</time>
      </trkpt>
      <trkpt lat="43.63533" lon="3.62632">
        <ele>233</ele>
        <time>2021-04-03T12:53:44Z</time>
      </trkpt>
      <trkpt lat="43.6353" lon="3.62629">
        <ele>233</ele>
        <time>2021-04-03T12:53:46Z</time>
      </trkpt>
      <trkpt lat="43.63528" lon="3.62628">
        <ele>234</ele>
        <time>2021-04-03T12:53:47Z</time>
      </trkpt>
      <trkpt lat="43.63526" lon="3.62626">
        <ele>234</ele>
        <time>2021-04-03T12:53:49Z</time>
      </trkpt>
      <trkpt lat="43.63523" lon="3.62623">
        <ele>234</ele>
        <time>2021-04-03T12:53:51Z</time>
      </trkpt>
      <trkpt lat="43.63521" lon="3.6262">
        <ele>234</ele>
        <time>2021-04-03T12:53:53Z</time>
      </trkpt>
      <trkpt lat="43.63519" lon="3.62617">
        <ele>234</ele>
        <time>2021-04-03T12:53:55Z</time>
      </trkpt>
      <trkpt lat="43.63516" lon="3.62614">
        <ele>234</ele>
        <time>2021-04-03T12:53:57Z</time>
      </trkpt>
      <trkpt lat="43.63514" lon="3.62611">
        <ele>234</ele>
        <time>2021-04-03T12:53:59Z</time>
      </trkpt>
      <trkpt lat="43.63511" lon="3.62609">
        <ele>234</ele>
        <time>2021-04-03T12:54:01Z</time>
      </trkpt>
      <trkpt lat="43.63508" lon="3.62607">
        <ele>234</ele>
        <time>2021-04-03T12:54:03Z</time>
      </trkpt>
      <trkpt lat="43.63506" lon="3.62604">
        <ele>234</ele>
        <time>2021-04-03T12:54:05Z</time>
      </trkpt>
      <trkpt lat="43.63503" lon="3.62603">
        <ele>237</ele>
        <time>2021-04-03T12:54:07Z</time>
      </trkpt>
      <trkpt lat="43.635" lon="3.62601">
        <ele>237</ele>
        <time>2021-04-03T12:54:09Z</time>
      </trkpt>
      <trkpt lat="43.63497" lon="3.62599">
        <ele>237</ele>
        <time>2021-04-03T12:54:11Z</time>
      </trkpt>
      <trkpt lat="43.63492" lon="3.62595">
        <ele>237</ele>
        <time>2021-04-03T12:54:14Z</time>
      </trkpt>
      <trkpt lat="43.6349" lon="3.62594">
        <ele>237</ele>
        <time>2021-04-03T12:54:15Z</time>
      </trkpt>
      <trkpt lat="43.63488" lon="3.62592">
        <ele>237</ele>
        <time>2021-04-03T12:54:16Z</time>
      </trkpt>
      <trkpt lat="43.63486" lon="3.6259">
        <ele>237</ele>
        <time>2021-04-03T12:54:17Z</time>
      </trkpt>
      <trkpt lat="43.63484" lon="3.62589">
        <ele>237</ele>
        <time>2021-04-03T12:54:18Z</time>
      </trkpt>
      <trkpt lat="43.63482" lon="3.62587">
        <ele>237</ele>
        <time>2021-04-03T12:54:19Z</time>
      </trkpt>
      <trkpt lat="43.6348" lon="3.62585">
        <ele>237</ele>
        <time>2021-04-03T12:54:20Z</time>
      </trkpt>
      <trkpt lat="43.63478" lon="3.62584">
        <ele>237</ele>
        <time>2021-04-03T12:54:21Z</time>
      </trkpt>
      <trkpt lat="43.63476" lon="3.62582">
        <ele>237</ele>
        <time>2021-04-03T12:54:22Z</time>
      </trkpt>
      <trkpt lat="43.63474" lon="3.6258">
        <ele>237</ele>
        <time>2021-04-03T12:54:23Z</time>
      </trkpt>
      <trkpt lat="43.63472" lon="3.62578">
        <ele>237</ele>
        <time>2021-04-03T12:54:24Z</time>
      </trkpt>
      <trkpt lat="43.6347" lon="3.62577">
        <ele>237</ele>
        <time>2021-04-03T12:54:25Z</time>
      </trkpt>
      <trkpt lat="43.63469" lon="3.62575">
        <ele>237</ele>
        <time>2021-04-03T12:54:26Z</time>
      </trkpt>
      <trkpt lat="43.63467" lon="3.62573">
        <ele>238</ele>
        <time>2021-04-03T12:54:27Z</time>
      </trkpt>
      <trkpt lat="43.63466" lon="3.62571">
        <ele>238</ele>
        <time>2021-04-03T12:54:28Z</time>
      </trkpt>
      <trkpt lat="43.63464" lon="3.62569">
        <ele>238</ele>
        <time>2021-04-03T12:54:29Z</time>
      </trkpt>
      <trkpt lat="43.63462" lon="3.62567">
        <ele>238</ele>
        <time>2021-04-03T12:54:30Z</time>
      </trkpt>
      <trkpt lat="43.6346" lon="3.62566">
        <ele>238</ele>
        <time>2021-04-03T12:54:31Z</time>
      </trkpt>
      <trkpt lat="43.63457" lon="3.62564">
        <ele>238</ele>
        <time>2021-04-03T12:54:32Z</time>
      </trkpt>
      <trkpt lat="43.63455" lon="3.62562">
        <ele>238</ele>
        <time>2021-04-03T12:54:33Z</time>
      </trkpt>
      <trkpt lat="43.63453" lon="3.6256">
        <ele>238</ele>
        <time>2021-04-03T12:54:34Z</time>
      </trkpt>
      <trkpt lat="43.6345" lon="3.62559">
        <ele>238</ele>
        <time>2021-04-03T12:54:35Z</time>
      </trkpt>
      <trkpt lat="43.63448" lon="3.62557">
        <ele>239</ele>
        <time>2021-04-03T12:54:36Z</time>
      </trkpt>
      <trkpt lat="43.63445" lon="3.62555">
        <ele>239</ele>
        <time>2021-04-03T12:54:37Z</time>
      </trkpt>
      <trkpt lat="43.63442" lon="3.62552">
        <ele>239</ele>
        <time>2021-04-03T12:54:38Z</time>
      </trkpt>
      <trkpt lat="43.6344" lon="3.62549">
        <ele>239</ele>
        <time>2021-04-03T12:54:39Z</time>
      </trkpt>
      <trkpt lat="43.63437" lon="3.62547">
        <ele>239</ele>
        <time>2021-04-03T12:54:40Z</time>
      </trkpt>
      <trkpt lat="43.63435" lon="3.62544">
        <ele>239</ele>
        <time>2021-04-03T12:54:41Z</time>
      </trkpt>
      <trkpt lat="43.63432" lon="3.62542">
        <ele>239</ele>
        <time>2021-04-03T12:54:42Z</time>
      </trkpt>
      <trkpt lat="43.63426" lon="3.62538">
        <ele>239</ele>
        <time>2021-04-03T12:54:44Z</time>
      </trkpt>
      <trkpt lat="43.63422" lon="3.62535">
        <ele>239</ele>
        <time>2021-04-03T12:54:45Z</time>
      </trkpt>
      <trkpt lat="43.63418" lon="3.62532">
        <ele>239</ele>
        <time>2021-04-03T12:54:46Z</time>
      </trkpt>
      <trkpt lat="43.63414" lon="3.62531">
        <ele>239</ele>
        <time>2021-04-03T12:54:47Z</time>
      </trkpt>
      <trkpt lat="43.63409" lon="3.62528">
        <ele>239</ele>
        <time>2021-04-03T12:54:48Z</time>
      </trkpt>
      <trkpt lat="43.63405" lon="3.62524">
        <ele>239</ele>
        <time>2021-04-03T12:54:49Z</time>
      </trkpt>
      <trkpt lat="43.63401" lon="3.6252">
        <ele>239</ele>
        <time>2021-04-03T12:54:50Z</time>
      </trkpt>
      <trkpt lat="43.63398" lon="3.62517">
        <ele>239</ele>
        <time>2021-04-03T12:54:51Z</time>
      </trkpt>
      <trkpt lat="43.63395" lon="3.62513">
        <ele>239</ele>
        <time>2021-04-03T12:54:52Z</time>
      </trkpt>
      <trkpt lat="43.6339" lon="3.62506">
        <ele>239</ele>
        <time>2021-04-03T12:54:54Z</time>
      </trkpt>
      <trkpt lat="43.63389" lon="3.62502">
        <ele>239</ele>
        <time>2021-04-03T12:54:55Z</time>
      </trkpt>
      <trkpt lat="43.63387" lon="3.62499">
        <ele>239</ele>
        <time>2021-04-03T12:54:56Z</time>
      </trkpt>
      <trkpt lat="43.63386" lon="3.62495">
        <ele>238</ele>
        <time>2021-04-03T12:54:57Z</time>
      </trkpt>
      <trkpt lat="43.63384" lon="3.62491">
        <ele>238</ele>
        <time>2021-04-03T12:54:58Z</time>
      </trkpt>
      <trkpt lat="43.63383" lon="3.62488">
        <ele>238</ele>
        <time>2021-04-03T12:54:59Z</time>
      </trkpt>
      <trkpt lat="43.63381" lon="3.62482">
        <ele>238</ele>
        <time>2021-04-03T12:55:01Z</time>
      </trkpt>
      <trkpt lat="43.6338" lon="3.6248">
        <ele>238</ele>
        <time>2021-04-03T12:55:02Z</time>
      </trkpt>
      <trkpt lat="43.63379" lon="3.62477">
        <ele>238</ele>
        <time>2021-04-03T12:55:03Z</time>
      </trkpt>
      <trkpt lat="43.63378" lon="3.62474">
        <ele>238</ele>
        <time>2021-04-03T12:55:04Z</time>
      </trkpt>
      <trkpt lat="43.63377" lon="3.62471">
        <ele>238</ele>
        <time>2021-04-03T12:55:05Z</time>
      </trkpt>
      <trkpt lat="43.63377" lon="3.62468">
        <ele>239</ele>
        <time>2021-04-03T12:55:06Z</time>
      </trkpt>
      <trkpt lat="43.63376" lon="3.62465">
        <ele>239</ele>
        <time>2021-04-03T12:55:07Z</time>
      </trkpt>
      <trkpt lat="43.63375" lon="3.62462">
        <ele>239</ele>
        <time>2021-04-03T12:55:08Z</time>
      </trkpt>
      <trkpt lat="43.63375" lon="3.62459">
        <ele>239</ele>
        <time>2021-04-03T12:55:09Z</time>
      </trkpt>
      <trkpt lat="43.63374" lon="3.62457">
        <ele>239</ele>
        <time>2021-04-03T12:55:10Z</time>
      </trkpt>
      <trkpt lat="43.63373" lon="3.62453">
        <ele>239</ele>
        <time>2021-04-03T12:55:12Z</time>
      </trkpt>
      <trkpt lat="43.63373" lon="3.62449">
        <ele>239</ele>
        <time>2021-04-03T12:55:14Z</time>
      </trkpt>
      <trkpt lat="43.63375" lon="3.62445">
        <ele>241</ele>
        <time>2021-04-03T12:55:16Z</time>
      </trkpt>
      <trkpt lat="43.63377" lon="3.62442">
        <ele>241</ele>
        <time>2021-04-03T12:55:18Z</time>
      </trkpt>
      <trkpt lat="43.63379" lon="3.6244">
        <ele>241</ele>
        <time>2021-04-03T12:55:20Z</time>
      </trkpt>
      <trkpt lat="43.6338" lon="3.62437">
        <ele>241</ele>
        <time>2021-04-03T12:55:23Z</time>
      </trkpt>
      <trkpt lat="43.63383" lon="3.62434">
        <ele>241</ele>
        <time>2021-04-03T12:55:24Z</time>
      </trkpt>
      <trkpt lat="43.63384" lon="3.6243">
        <ele>243</ele>
        <time>2021-04-03T12:55:26Z</time>
      </trkpt>
      <trkpt lat="43.63385" lon="3.62427">
        <ele>243</ele>
        <time>2021-04-03T12:55:28Z</time>
      </trkpt>
      <trkpt lat="43.63386" lon="3.62423">
        <ele>243</ele>
        <time>2021-04-03T12:55:30Z</time>
      </trkpt>
      <trkpt lat="43.63387" lon="3.62419">
        <ele>243</ele>
        <time>2021-04-03T12:55:33Z</time>
      </trkpt>
      <trkpt lat="43.63387" lon="3.62415">
        <ele>243</ele>
        <time>2021-04-03T12:55:34Z</time>
      </trkpt>
      <trkpt lat="43.63389" lon="3.62413">
        <ele>244</ele>
        <time>2021-04-03T12:55:36Z</time>
      </trkpt>
      <trkpt lat="43.63389" lon="3.6241">
        <ele>244</ele>
        <time>2021-04-03T12:55:38Z</time>
      </trkpt>
      <trkpt lat="43.6339" lon="3.62407">
        <ele>244</ele>
        <time>2021-04-03T12:55:40Z</time>
      </trkpt>
      <trkpt lat="43.63391" lon="3.62404">
        <ele>244</ele>
        <time>2021-04-03T12:55:42Z</time>
      </trkpt>
      <trkpt lat="43.63393" lon="3.62401">
        <ele>244</ele>
        <time>2021-04-03T12:55:44Z</time>
      </trkpt>
      <trkpt lat="43.63394" lon="3.62399">
        <ele>247</ele>
        <time>2021-04-03T12:55:46Z</time>
      </trkpt>
      <trkpt lat="43.63395" lon="3.62396">
        <ele>247</ele>
        <time>2021-04-03T12:55:48Z</time>
      </trkpt>
      <trkpt lat="43.63395" lon="3.62392">
        <ele>247</ele>
        <time>2021-04-03T12:55:50Z</time>
      </trkpt>
      <trkpt lat="43.63396" lon="3.62389">
        <ele>247</ele>
        <time>2021-04-03T12:55:52Z</time>
      </trkpt>
      <trkpt lat="43.63396" lon="3.62386">
        <ele>247</ele>
        <time>2021-04-03T12:55:54Z</time>
      </trkpt>
      <trkpt lat="43.63395" lon="3.62382">
        <ele>247</ele>
        <time>2021-04-03T12:55:56Z</time>
      </trkpt>
      <trkpt lat="43.63396" lon="3.62378">
        <ele>247</ele>
        <time>2021-04-03T12:55:58Z</time>
      </trkpt>
      <trkpt lat="43.63396" lon="3.62374">
        <ele>247</ele>
        <time>2021-04-03T12:56:00Z</time>
      </trkpt>
      <trkpt lat="43.63396" lon="3.62369">
        <ele>247</ele>
        <time>2021-04-03T12:56:02Z</time>
      </trkpt>
      <trkpt lat="43.63396" lon="3.62366">
        <ele>247</ele>
        <time>2021-04-03T12:56:03Z</time>
      </trkpt>
      <trkpt lat="43.63395" lon="3.62363">
        <ele>247</ele>
        <time>2021-04-03T12:56:04Z</time>
      </trkpt>
      <trkpt lat="43.63395" lon="3.6236">
        <ele>247</ele>
        <time>2021-04-03T12:56:05Z</time>
      </trkpt>
      <trkpt lat="43.63396" lon="3.62357">
        <ele>249</ele>
        <time>2021-04-03T12:56:06Z</time>
      </trkpt>
      <trkpt lat="43.63397" lon="3.62353">
        <ele>249</ele>
        <time>2021-04-03T12:56:07Z</time>
      </trkpt>
      <trkpt lat="43.63398" lon="3.6235">
        <ele>249</ele>
        <time>2021-04-03T12:56:08Z</time>
      </trkpt>
      <trkpt lat="43.63399" lon="3.62347">
        <ele>249</ele>
        <time>2021-04-03T12:56:09Z</time>
      </trkpt>
      <trkpt lat="43.634" lon="3.62343">
        <ele>249</ele>
        <time>2021-04-03T12:56:10Z</time>
      </trkpt>
      <trkpt lat="43.63401" lon="3.62341">
        <ele>249</ele>
        <time>2021-04-03T12:56:11Z</time>
      </trkpt>
      <trkpt lat="43.63403" lon="3.62337">
        <ele>249</ele>
        <time>2021-04-03T12:56:12Z</time>
      </trkpt>
      <trkpt lat="43.63404" lon="3.62335">
        <ele>249</ele>
        <time>2021-04-03T12:56:13Z</time>
      </trkpt>
      <trkpt lat="43.63405" lon="3.62332">
        <ele>249</ele>
        <time>2021-04-03T12:56:14Z</time>
      </trkpt>
      <trkpt lat="43.63406" lon="3.6233">
        <ele>249</ele>
        <time>2021-04-03T12:56:15Z</time>
      </trkpt>
      <trkpt lat="43.63409" lon="3.62323">
        <ele>250</ele>
        <time>2021-04-03T12:56:17Z</time>
      </trkpt>
      <trkpt lat="43.63411" lon="3.6232">
        <ele>250</ele>
        <time>2021-04-03T12:56:18Z</time>
      </trkpt>
      <trkpt lat="43.63413" lon="3.62317">
        <ele>250</ele>
        <time>2021-04-03T12:56:19Z</time>
      </trkpt>
      <trkpt lat="43.63414" lon="3.62314">
        <ele>250</ele>
        <time>2021-04-03T12:56:20Z</time>
      </trkpt>
      <trkpt lat="43.63416" lon="3.62311">
        <ele>250</ele>
        <time>2021-04-03T12:56:21Z</time>
      </trkpt>
      <trkpt lat="43.63418" lon="3.62309">
        <ele>250</ele>
        <time>2021-04-03T12:56:22Z</time>
      </trkpt>
      <trkpt lat="43.63421" lon="3.62307">
        <ele>250</ele>
        <time>2021-04-03T12:56:23Z</time>
      </trkpt>
      <trkpt lat="43.63422" lon="3.62305">
        <ele>250</ele>
        <time>2021-04-03T12:56:24Z</time>
      </trkpt>
      <trkpt lat="43.63425" lon="3.62303">
        <ele>250</ele>
        <time>2021-04-03T12:56:25Z</time>
      </trkpt>
      <trkpt lat="43.63427" lon="3.62302">
        <ele>251</ele>
        <time>2021-04-03T12:56:26Z</time>
      </trkpt>
      <trkpt lat="43.63428" lon="3.62299">
        <ele>251</ele>
        <time>2021-04-03T12:56:27Z</time>
      </trkpt>
      <trkpt lat="43.63429" lon="3.62297">
        <ele>251</ele>
        <time>2021-04-03T12:56:28Z</time>
      </trkpt>
      <trkpt lat="43.6343" lon="3.62295">
        <ele>251</ele>
        <time>2021-04-03T12:56:29Z</time>
      </trkpt>
      <trkpt lat="43.63431" lon="3.62292">
        <ele>251</ele>
        <time>2021-04-03T12:56:30Z</time>
      </trkpt>
      <trkpt lat="43.63431" lon="3.6229">
        <ele>251</ele>
        <time>2021-04-03T12:56:31Z</time>
      </trkpt>
      <trkpt lat="43.63432" lon="3.62285">
        <ele>251</ele>
        <time>2021-04-03T12:56:33Z</time>
      </trkpt>
      <trkpt lat="43.63431" lon="3.62283">
        <ele>251</ele>
        <time>2021-04-03T12:56:34Z</time>
      </trkpt>
      <trkpt lat="43.63431" lon="3.6228">
        <ele>251</ele>
        <time>2021-04-03T12:56:36Z</time>
      </trkpt>
      <trkpt lat="43.6343" lon="3.62276">
        <ele>252</ele>
        <time>2021-04-03T12:56:37Z</time>
      </trkpt>
      <trkpt lat="43.63429" lon="3.62273">
        <ele>252</ele>
        <time>2021-04-03T12:56:39Z</time>
      </trkpt>
      <trkpt lat="43.63427" lon="3.62269">
        <ele>252</ele>
        <time>2021-04-03T12:56:42Z</time>
      </trkpt>
      <trkpt lat="43.63425" lon="3.62267">
        <ele>252</ele>
        <time>2021-04-03T12:56:43Z</time>
      </trkpt>
      <trkpt lat="43.63423" lon="3.62264">
        <ele>252</ele>
        <time>2021-04-03T12:56:45Z</time>
      </trkpt>
      <trkpt lat="43.63421" lon="3.62261">
        <ele>252</ele>
        <time>2021-04-03T12:56:47Z</time>
      </trkpt>
      <trkpt lat="43.63419" lon="3.62258">
        <ele>252</ele>
        <time>2021-04-03T12:56:49Z</time>
      </trkpt>
      <trkpt lat="43.63418" lon="3.62255">
        <ele>252</ele>
        <time>2021-04-03T12:56:51Z</time>
      </trkpt>
      <trkpt lat="43.63416" lon="3.62251">
        <ele>252</ele>
        <time>2021-04-03T12:56:53Z</time>
      </trkpt>
      <trkpt lat="43.63415" lon="3.62248">
        <ele>252</ele>
        <time>2021-04-03T12:56:55Z</time>
      </trkpt>
      <trkpt lat="43.63414" lon="3.62245">
        <ele>252</ele>
        <time>2021-04-03T12:56:57Z</time>
      </trkpt>
      <trkpt lat="43.63413" lon="3.62241">
        <ele>252</ele>
        <time>2021-04-03T12:56:59Z</time>
      </trkpt>
      <trkpt lat="43.63412" lon="3.62238">
        <ele>252</ele>
        <time>2021-04-03T12:57:02Z</time>
      </trkpt>
      <trkpt lat="43.63412" lon="3.62234">
        <ele>252</ele>
        <time>2021-04-03T12:57:03Z</time>
      </trkpt>
      <trkpt lat="43.63412" lon="3.62231">
        <ele>252</ele>
        <time>2021-04-03T12:57:05Z</time>
      </trkpt>
      <trkpt lat="43.63411" lon="3.62227">
        <ele>256</ele>
        <time>2021-04-03T12:57:07Z</time>
      </trkpt>
      <trkpt lat="43.6341" lon="3.62224">
        <ele>256</ele>
        <time>2021-04-03T12:57:09Z</time>
      </trkpt>
      <trkpt lat="43.6341" lon="3.6222">
        <ele>256</ele>
        <time>2021-04-03T12:57:11Z</time>
      </trkpt>
      <trkpt lat="43.63409" lon="3.62217">
        <ele>256</ele>
        <time>2021-04-03T12:57:13Z</time>
      </trkpt>
      <trkpt lat="43.63409" lon="3.62214">
        <ele>256</ele>
        <time>2021-04-03T12:57:15Z</time>
      </trkpt>
      <trkpt lat="43.63408" lon="3.6221">
        <ele>256</ele>
        <time>2021-04-03T12:57:17Z</time>
      </trkpt>
      <trkpt lat="43.63408" lon="3.62207">
        <ele>256</ele>
        <time>2021-04-03T12:57:19Z</time>
      </trkpt>
      <trkpt lat="43.63407" lon="3.62203">
        <ele>256</ele>
        <time>2021-04-03T12:57:21Z</time>
      </trkpt>
      <trkpt lat="43.63407" lon="3.622">
        <ele>256</ele>
        <time>2021-04-03T12:57:23Z</time>
      </trkpt>
      <trkpt lat="43.63407" lon="3.62197">
        <ele>256</ele>
        <time>2021-04-03T12:57:25Z</time>
      </trkpt>
      <trkpt lat="43.63408" lon="3.62194">
        <ele>256</ele>
        <time>2021-04-03T12:57:27Z</time>
      </trkpt>
      <trkpt lat="43.63409" lon="3.62191">
        <ele>256</ele>
        <time>2021-04-03T12:57:29Z</time>
      </trkpt>
      <trkpt lat="43.6341" lon="3.62188">
        <ele>256</ele>
        <time>2021-04-03T12:57:31Z</time>
      </trkpt>
      <trkpt lat="43.63411" lon="3.62185">
        <ele>256</ele>
        <time>2021-04-03T12:57:33Z</time>
      </trkpt>
      <trkpt lat="43.63413" lon="3.62182">
        <ele>256</ele>
        <time>2021-04-03T12:57:35Z</time>
      </trkpt>
      <trkpt lat="43.63414" lon="3.62178">
        <ele>256</ele>
        <time>2021-04-03T12:57:37Z</time>
      </trkpt>
      <trkpt lat="43.63415" lon="3.62176">
        <ele>256</ele>
        <time>2021-04-03T12:57:39Z</time>
      </trkpt>
      <trkpt lat="43.63417" lon="3.62173">
        <ele>256</ele>
        <time>2021-04-03T12:57:41Z</time>
      </trkpt>
      <trkpt lat="43.63418" lon="3.6217">
        <ele>256</ele>
        <time>2021-04-03T12:57:43Z</time>
      </trkpt>
      <trkpt lat="43.63419" lon="3.62168">
        <ele>256</ele>
        <time>2021-04-03T12:57:45Z</time>
      </trkpt>
      <trkpt lat="43.63421" lon="3.62165">
        <ele>256</ele>
        <time>2021-04-03T12:57:47Z</time>
      </trkpt>
      <trkpt lat="43.63422" lon="3.62162">
        <ele>256</ele>
        <time>2021-04-03T12:57:49Z</time>
      </trkpt>
      <trkpt lat="43.63423" lon="3.62159">
        <ele>256</ele>
        <time>2021-04-03T12:57:51Z</time>
      </trkpt>
      <trkpt lat="43.63425" lon="3.62156">
        <ele>256</ele>
        <time>2021-04-03T12:57:53Z</time>
      </trkpt>
      <trkpt lat="43.63426" lon="3.62153">
        <ele>256</ele>
        <time>2021-04-03T12:57:55Z</time>
      </trkpt>
      <trkpt lat="43.63428" lon="3.6215">
        <ele>264</ele>
        <time>2021-04-03T12:57:57Z</time>
      </trkpt>
      <trkpt lat="43.63429" lon="3.62148">
        <ele>264</ele>
        <time>2021-04-03T12:57:59Z</time>
      </trkpt>
      <trkpt lat="43.6343" lon="3.62145">
        <ele>264</ele>
        <time>2021-04-03T12:58:01Z</time>
      </trkpt>
      <trkpt lat="43.63431" lon="3.62142">
        <ele>264</ele>
        <time>2021-04-03T12:58:03Z</time>
      </trkpt>
      <trkpt lat="43.63432" lon="3.62138">
        <ele>264</ele>
        <time>2021-04-03T12:58:05Z</time>
      </trkpt>
      <trkpt lat="43.63434" lon="3.62134">
        <ele>264</ele>
        <time>2021-04-03T12:58:07Z</time>
      </trkpt>
      <trkpt lat="43.63434" lon="3.62129">
        <ele>264</ele>
        <time>2021-04-03T12:58:09Z</time>
      </trkpt>
      <trkpt lat="43.63435" lon="3.62126">
        <ele>264</ele>
        <time>2021-04-03T12:58:11Z</time>
      </trkpt>
      <trkpt lat="43.63436" lon="3.62123">
        <ele>265</ele>
        <time>2021-04-03T12:58:16Z</time>
      </trkpt>
      <trkpt lat="43.63437" lon="3.62115">
        <ele>266</ele>
        <time>2021-04-03T12:58:33Z</time>
      </trkpt>
      <trkpt lat="43.63438" lon="3.62113">
        <ele>266</ele>
        <time>2021-04-03T12:58:34Z</time>
      </trkpt>
      <trkpt lat="43.6344" lon="3.6211">
        <ele>266</ele>
        <time>2021-04-03T12:58:35Z</time>
      </trkpt>
      <trkpt lat="43.63441" lon="3.62107">
        <ele>266</ele>
        <time>2021-04-03T12:58:37Z</time>
      </trkpt>
      <trkpt lat="43.63442" lon="3.62103">
        <ele>266</ele>
        <time>2021-04-03T12:58:39Z</time>
      </trkpt>
      <trkpt lat="43.63443" lon="3.62099">
        <ele>266</ele>
        <time>2021-04-03T12:58:41Z</time>
      </trkpt>
      <trkpt lat="43.63443" lon="3.62094">
        <ele>266</ele>
        <time>2021-04-03T12:58:43Z</time>
      </trkpt>
      <trkpt lat="43.63442" lon="3.62091">
        <ele>266</ele>
        <time>2021-04-03T12:58:44Z</time>
      </trkpt>
      <trkpt lat="43.63441" lon="3.62089">
        <ele>266</ele>
        <time>2021-04-03T12:58:45Z</time>
      </trkpt>
      <trkpt lat="43.63441" lon="3.62086">
        <ele>266</ele>
        <time>2021-04-03T12:58:46Z</time>
      </trkpt>
      <trkpt lat="43.6344" lon="3.62082">
        <ele>266</ele>
        <time>2021-04-03T12:58:48Z</time>
      </trkpt>
      <trkpt lat="43.63438" lon="3.62078">
        <ele>266</ele>
        <time>2021-04-03T12:58:50Z</time>
      </trkpt>
      <trkpt lat="43.63436" lon="3.62075">
        <ele>266</ele>
        <time>2021-04-03T12:58:52Z</time>
      </trkpt>
      <trkpt lat="43.63434" lon="3.62072">
        <ele>266</ele>
        <time>2021-04-03T12:58:54Z</time>
      </trkpt>
      <trkpt lat="43.63432" lon="3.62069">
        <ele>266</ele>
        <time>2021-04-03T12:58:56Z</time>
      </trkpt>
      <trkpt lat="43.63429" lon="3.62066">
        <ele>266</ele>
        <time>2021-04-03T12:58:58Z</time>
      </trkpt>
      <trkpt lat="43.63426" lon="3.62062">
        <ele>266</ele>
        <time>2021-04-03T12:59:00Z</time>
      </trkpt>
      <trkpt lat="43.63424" lon="3.6206">
        <ele>266</ele>
        <time>2021-04-03T12:59:01Z</time>
      </trkpt>
      <trkpt lat="43.63422" lon="3.62058">
        <ele>267</ele>
        <time>2021-04-03T12:59:02Z</time>
      </trkpt>
      <trkpt lat="43.63419" lon="3.62056">
        <ele>267</ele>
        <time>2021-04-03T12:59:03Z</time>
      </trkpt>
      <trkpt lat="43.63416" lon="3.62053">
        <ele>267</ele>
        <time>2021-04-03T12:59:04Z</time>
      </trkpt>
      <trkpt lat="43.63413" lon="3.62049">
        <ele>267</ele>
        <time>2021-04-03T12:59:05Z</time>
      </trkpt>
      <trkpt lat="43.63406" lon="3.62041">
        <ele>267</ele>
        <time>2021-04-03T12:59:07Z</time>
      </trkpt>
      <trkpt lat="43.63402" lon="3.62037">
        <ele>267</ele>
        <time>2021-04-03T12:59:08Z</time>
      </trkpt>
      <trkpt lat="43.63397" lon="3.62032">
        <ele>267</ele>
        <time>2021-04-03T12:59:09Z</time>
      </trkpt>
      <trkpt lat="43.63392" lon="3.62027">
        <ele>267</ele>
        <time>2021-04-03T12:59:10Z</time>
      </trkpt>
      <trkpt lat="43.63387" lon="3.62022">
        <ele>267</ele>
        <time>2021-04-03T12:59:12Z</time>
      </trkpt>
      <trkpt lat="43.63374" lon="3.62015">
        <ele>264</ele>
        <time>2021-04-03T12:59:13Z</time>
      </trkpt>
      <trkpt lat="43.63367" lon="3.62011">
        <ele>264</ele>
        <time>2021-04-03T12:59:14Z</time>
      </trkpt>
      <trkpt lat="43.6336" lon="3.62006">
        <ele>264</ele>
        <time>2021-04-03T12:59:15Z</time>
      </trkpt>
      <trkpt lat="43.63352" lon="3.62001">
        <ele>264</ele>
        <time>2021-04-03T12:59:16Z</time>
      </trkpt>
      <trkpt lat="43.63345" lon="3.61997">
        <ele>264</ele>
        <time>2021-04-03T12:59:17Z</time>
      </trkpt>
      <trkpt lat="43.63331" lon="3.61985">
        <ele>264</ele>
        <time>2021-04-03T12:59:19Z</time>
      </trkpt>
      <trkpt lat="43.63324" lon="3.61977">
        <ele>264</ele>
        <time>2021-04-03T12:59:20Z</time>
      </trkpt>
      <trkpt lat="43.63319" lon="3.61967">
        <ele>264</ele>
        <time>2021-04-03T12:59:21Z</time>
      </trkpt>
      <trkpt lat="43.63311" lon="3.61945">
        <ele>256</ele>
        <time>2021-04-03T12:59:23Z</time>
      </trkpt>
      <trkpt lat="43.63309" lon="3.61934">
        <ele>256</ele>
        <time>2021-04-03T12:59:24Z</time>
      </trkpt>
      <trkpt lat="43.63307" lon="3.61923">
        <ele>256</ele>
        <time>2021-04-03T12:59:25Z</time>
      </trkpt>
      <trkpt lat="43.63305" lon="3.61912">
        <ele>256</ele>
        <time>2021-04-03T12:59:26Z</time>
      </trkpt>
      <trkpt lat="43.63303" lon="3.61903">
        <ele>256</ele>
        <time>2021-04-03T12:59:27Z</time>
      </trkpt>
      <trkpt lat="43.63299" lon="3.61894">
        <ele>256</ele>
        <time>2021-04-03T12:59:28Z</time>
      </trkpt>
      <trkpt lat="43.63295" lon="3.61887">
        <ele>256</ele>
        <time>2021-04-03T12:59:29Z</time>
      </trkpt>
      <trkpt lat="43.63291" lon="3.61882">
        <ele>256</ele>
        <time>2021-04-03T12:59:30Z</time>
      </trkpt>
      <trkpt lat="43.63286" lon="3.61879">
        <ele>256</ele>
        <time>2021-04-03T12:59:31Z</time>
      </trkpt>
      <trkpt lat="43.63282" lon="3.61878">
        <ele>256</ele>
        <time>2021-04-03T12:59:32Z</time>
      </trkpt>
      <trkpt lat="43.63278" lon="3.61877">
        <ele>254</ele>
        <time>2021-04-03T12:59:33Z</time>
      </trkpt>
      <trkpt lat="43.63274" lon="3.61877">
        <ele>254</ele>
        <time>2021-04-03T12:59:34Z</time>
      </trkpt>
      <trkpt lat="43.63272" lon="3.61877">
        <ele>254</ele>
        <time>2021-04-03T12:59:35Z</time>
      </trkpt>
      <trkpt lat="43.6327" lon="3.61878">
        <ele>254</ele>
        <time>2021-04-03T12:59:36Z</time>
      </trkpt>
      <trkpt lat="43.63268" lon="3.61879">
        <ele>254</ele>
        <time>2021-04-03T12:59:37Z</time>
      </trkpt>
      <trkpt lat="43.63266" lon="3.61881">
        <ele>254</ele>
        <time>2021-04-03T12:59:38Z</time>
      </trkpt>
      <trkpt lat="43.63264" lon="3.61882">
        <ele>254</ele>
        <time>2021-04-03T12:59:39Z</time>
      </trkpt>
      <trkpt lat="43.63262" lon="3.61884">
        <ele>254</ele>
        <time>2021-04-03T12:59:40Z</time>
      </trkpt>
      <trkpt lat="43.63259" lon="3.61887">
        <ele>254</ele>
        <time>2021-04-03T12:59:42Z</time>
      </trkpt>
      <trkpt lat="43.63257" lon="3.61889">
        <ele>255</ele>
        <time>2021-04-03T12:59:43Z</time>
      </trkpt>
      <trkpt lat="43.63256" lon="3.6189">
        <ele>255</ele>
        <time>2021-04-03T12:59:44Z</time>
      </trkpt>
      <trkpt lat="43.63254" lon="3.61893">
        <ele>255</ele>
        <time>2021-04-03T12:59:45Z</time>
      </trkpt>
      <trkpt lat="43.63253" lon="3.61895">
        <ele>255</ele>
        <time>2021-04-03T12:59:46Z</time>
      </trkpt>
      <trkpt lat="43.63251" lon="3.61897">
        <ele>255</ele>
        <time>2021-04-03T12:59:47Z</time>
      </trkpt>
      <trkpt lat="43.6325" lon="3.61899">
        <ele>255</ele>
        <time>2021-04-03T12:59:48Z</time>
      </trkpt>
      <trkpt lat="43.63249" lon="3.61901">
        <ele>255</ele>
        <time>2021-04-03T12:59:49Z</time>
      </trkpt>
      <trkpt lat="43.63247" lon="3.61903">
        <ele>255</ele>
        <time>2021-04-03T12:59:50Z</time>
      </trkpt>
      <trkpt lat="43.63244" lon="3.61908">
        <ele>256</ele>
        <time>2021-04-03T12:59:52Z</time>
      </trkpt>
      <trkpt lat="43.63242" lon="3.61911">
        <ele>256</ele>
        <time>2021-04-03T12:59:53Z</time>
      </trkpt>
      <trkpt lat="43.6324" lon="3.61913">
        <ele>256</ele>
        <time>2021-04-03T12:59:54Z</time>
      </trkpt>
      <trkpt lat="43.63239" lon="3.61915">
        <ele>256</ele>
        <time>2021-04-03T12:59:55Z</time>
      </trkpt>
      <trkpt lat="43.63237" lon="3.61919">
        <ele>256</ele>
        <time>2021-04-03T12:59:57Z</time>
      </trkpt>
      <trkpt lat="43.63234" lon="3.61922">
        <ele>256</ele>
        <time>2021-04-03T12:59:59Z</time>
      </trkpt>
      <trkpt lat="43.63232" lon="3.61924">
        <ele>256</ele>
        <time>2021-04-03T13:00:01Z</time>
      </trkpt>
      <trkpt lat="43.63229" lon="3.61925">
        <ele>256</ele>
        <time>2021-04-03T13:00:03Z</time>
      </trkpt>
      <trkpt lat="43.63226" lon="3.61925">
        <ele>256</ele>
        <time>2021-04-03T13:00:05Z</time>
      </trkpt>
      <trkpt lat="43.63224" lon="3.61922">
        <ele>256</ele>
        <time>2021-04-03T13:00:07Z</time>
      </trkpt>
      <trkpt lat="43.63222" lon="3.61919">
        <ele>256</ele>
        <time>2021-04-03T13:00:10Z</time>
      </trkpt>
      <trkpt lat="43.63221" lon="3.61915">
        <ele>256</ele>
        <time>2021-04-03T13:00:11Z</time>
      </trkpt>
      <trkpt lat="43.6322" lon="3.61911">
        <ele>256</ele>
        <time>2021-04-03T13:00:13Z</time>
      </trkpt>
      <trkpt lat="43.63219" lon="3.61906">
        <ele>256</ele>
        <time>2021-04-03T13:00:15Z</time>
      </trkpt>
      <trkpt lat="43.63218" lon="3.61902">
        <ele>256</ele>
        <time>2021-04-03T13:00:17Z</time>
      </trkpt>
      <trkpt lat="43.63218" lon="3.61899">
        <ele>256</ele>
        <time>2021-04-03T13:00:18Z</time>
      </trkpt>
      <trkpt lat="43.63217" lon="3.61894">
        <ele>256</ele>
        <time>2021-04-03T13:00:20Z</time>
      </trkpt>
      <trkpt lat="43.63216" lon="3.6189">
        <ele>261</ele>
        <time>2021-04-03T13:00:22Z</time>
      </trkpt>
      <trkpt lat="43.63215" lon="3.61886">
        <ele>261</ele>
        <time>2021-04-03T13:00:24Z</time>
      </trkpt>
      <trkpt lat="43.63214" lon="3.61881">
        <ele>261</ele>
        <time>2021-04-03T13:00:26Z</time>
      </trkpt>
      <trkpt lat="43.63213" lon="3.61877">
        <ele>261</ele>
        <time>2021-04-03T13:00:28Z</time>
      </trkpt>
      <trkpt lat="43.63211" lon="3.61872">
        <ele>261</ele>
        <time>2021-04-03T13:00:30Z</time>
      </trkpt>
      <trkpt lat="43.6321" lon="3.6187">
        <ele>261</ele>
        <time>2021-04-03T13:00:31Z</time>
      </trkpt>
      <trkpt lat="43.63209" lon="3.61866">
        <ele>261</ele>
        <time>2021-04-03T13:00:33Z</time>
      </trkpt>
      <trkpt lat="43.63207" lon="3.61862">
        <ele>261</ele>
        <time>2021-04-03T13:00:35Z</time>
      </trkpt>
      <trkpt lat="43.63205" lon="3.61858">
        <ele>261</ele>
        <time>2021-04-03T13:00:37Z</time>
      </trkpt>
      <trkpt lat="43.63202" lon="3.61855">
        <ele>261</ele>
        <time>2021-04-03T13:00:39Z</time>
      </trkpt>
      <trkpt lat="43.632" lon="3.61851">
        <ele>261</ele>
        <time>2021-04-03T13:00:41Z</time>
      </trkpt>
      <trkpt lat="43.63197" lon="3.61848">
        <ele>261</ele>
        <time>2021-04-03T13:00:43Z</time>
      </trkpt>
      <trkpt lat="43.63195" lon="3.61845">
        <ele>261</ele>
        <time>2021-04-03T13:00:45Z</time>
      </trkpt>
      <trkpt lat="43.63193" lon="3.61842">
        <ele>261</ele>
        <time>2021-04-03T13:00:47Z</time>
      </trkpt>
      <trkpt lat="43.6319" lon="3.61839">
        <ele>261</ele>
        <time>2021-04-03T13:00:49Z</time>
      </trkpt>
      <trkpt lat="43.63188" lon="3.61836">
        <ele>261</ele>
        <time>2021-04-03T13:00:51Z</time>
      </trkpt>
      <trkpt lat="43.63185" lon="3.61833">
        <ele>261</ele>
        <time>2021-04-03T13:00:53Z</time>
      </trkpt>
      <trkpt lat="43.63182" lon="3.61831">
        <ele>261</ele>
        <time>2021-04-03T13:00:55Z</time>
      </trkpt>
      <trkpt lat="43.63179" lon="3.61828">
        <ele>261</ele>
        <time>2021-04-03T13:00:57Z</time>
      </trkpt>
      <trkpt lat="43.63176" lon="3.61825">
        <ele>261</ele>
        <time>2021-04-03T13:00:59Z</time>
      </trkpt>
      <trkpt lat="43.63175" lon="3.61824">
        <ele>261</ele>
        <time>2021-04-03T13:01:00Z</time>
      </trkpt>
      <trkpt lat="43.63173" lon="3.61822">
        <ele>261</ele>
        <time>2021-04-03T13:01:01Z</time>
      </trkpt>
      <trkpt lat="43.63172" lon="3.61821">
        <ele>268</ele>
        <time>2021-04-03T13:01:02Z</time>
      </trkpt>
      <trkpt lat="43.6317" lon="3.61819">
        <ele>268</ele>
        <time>2021-04-03T13:01:03Z</time>
      </trkpt>
      <trkpt lat="43.63169" lon="3.61818">
        <ele>268</ele>
        <time>2021-04-03T13:01:04Z</time>
      </trkpt>
      <trkpt lat="43.63166" lon="3.61814">
        <ele>268</ele>
        <time>2021-04-03T13:01:06Z</time>
      </trkpt>
      <trkpt lat="43.63164" lon="3.61813">
        <ele>268</ele>
        <time>2021-04-03T13:01:07Z</time>
      </trkpt>
      <trkpt lat="43.63162" lon="3.61811">
        <ele>268</ele>
        <time>2021-04-03T13:01:08Z</time>
      </trkpt>
      <trkpt lat="43.63161" lon="3.61809">
        <ele>268</ele>
        <time>2021-04-03T13:01:09Z</time>
      </trkpt>
      <trkpt lat="43.63159" lon="3.61808">
        <ele>268</ele>
        <time>2021-04-03T13:01:10Z</time>
      </trkpt>
      <trkpt lat="43.63158" lon="3.61806">
        <ele>268</ele>
        <time>2021-04-03T13:01:11Z</time>
      </trkpt>
      <trkpt lat="43.63156" lon="3.61804">
        <ele>270</ele>
        <time>2021-04-03T13:01:12Z</time>
      </trkpt>
      <trkpt lat="43.63155" lon="3.61802">
        <ele>270</ele>
        <time>2021-04-03T13:01:13Z</time>
      </trkpt>
      <trkpt lat="43.63153" lon="3.61801">
        <ele>270</ele>
        <time>2021-04-03T13:01:14Z</time>
      </trkpt>
      <trkpt lat="43.63152" lon="3.61799">
        <ele>270</ele>
        <time>2021-04-03T13:01:15Z</time>
      </trkpt>
      <trkpt lat="43.6315" lon="3.61797">
        <ele>270</ele>
        <time>2021-04-03T13:01:16Z</time>
      </trkpt>
      <trkpt lat="43.63149" lon="3.61795">
        <ele>270</ele>
        <time>2021-04-03T13:01:17Z</time>
      </trkpt>
      <trkpt lat="43.63146" lon="3.61791">
        <ele>270</ele>
        <time>2021-04-03T13:01:19Z</time>
      </trkpt>
      <trkpt lat="43.63145" lon="3.61788">
        <ele>270</ele>
        <time>2021-04-03T13:01:20Z</time>
      </trkpt>
      <trkpt lat="43.63143" lon="3.61786">
        <ele>270</ele>
        <time>2021-04-03T13:01:21Z</time>
      </trkpt>
      <trkpt lat="43.63142" lon="3.61784">
        <ele>271</ele>
        <time>2021-04-03T13:01:22Z</time>
      </trkpt>
      <trkpt lat="43.6314" lon="3.61782">
        <ele>271</ele>
        <time>2021-04-03T13:01:23Z</time>
      </trkpt>
      <trkpt lat="43.63139" lon="3.61779">
        <ele>271</ele>
        <time>2021-04-03T13:01:24Z</time>
      </trkpt>
      <trkpt lat="43.63137" lon="3.61777">
        <ele>271</ele>
        <time>2021-04-03T13:01:25Z</time>
      </trkpt>
      <trkpt lat="43.63136" lon="3.61775">
        <ele>271</ele>
        <time>2021-04-03T13:01:26Z</time>
      </trkpt>
      <trkpt lat="43.63134" lon="3.61772">
        <ele>271</ele>
        <time>2021-04-03T13:01:27Z</time>
      </trkpt>
      <trkpt lat="43.63133" lon="3.6177">
        <ele>271</ele>
        <time>2021-04-03T13:01:28Z</time>
      </trkpt>
      <trkpt lat="43.63131" lon="3.61768">
        <ele>271</ele>
        <time>2021-04-03T13:01:29Z</time>
      </trkpt>
      <trkpt lat="43.63129" lon="3.61765">
        <ele>271</ele>
        <time>2021-04-03T13:01:30Z</time>
      </trkpt>
      <trkpt lat="43.63127" lon="3.61763">
        <ele>271</ele>
        <time>2021-04-03T13:01:31Z</time>
      </trkpt>
      <trkpt lat="43.63125" lon="3.61761">
        <ele>272</ele>
        <time>2021-04-03T13:01:32Z</time>
      </trkpt>
      <trkpt lat="43.63123" lon="3.61759">
        <ele>272</ele>
        <time>2021-04-03T13:01:33Z</time>
      </trkpt>
      <trkpt lat="43.63122" lon="3.61756">
        <ele>272</ele>
        <time>2021-04-03T13:01:34Z</time>
      </trkpt>
      <trkpt lat="43.6312" lon="3.61754">
        <ele>272</ele>
        <time>2021-04-03T13:01:35Z</time>
      </trkpt>
      <trkpt lat="43.63116" lon="3.6175">
        <ele>272</ele>
        <time>2021-04-03T13:01:37Z</time>
      </trkpt>
      <trkpt lat="43.63114" lon="3.61748">
        <ele>272</ele>
        <time>2021-04-03T13:01:38Z</time>
      </trkpt>
      <trkpt lat="43.63112" lon="3.61746">
        <ele>272</ele>
        <time>2021-04-03T13:01:39Z</time>
      </trkpt>
      <trkpt lat="43.6311" lon="3.61744">
        <ele>272</ele>
        <time>2021-04-03T13:01:40Z</time>
      </trkpt>
      <trkpt lat="43.63108" lon="3.61742">
        <ele>272</ele>
        <time>2021-04-03T13:01:41Z</time>
      </trkpt>
      <trkpt lat="43.63106" lon="3.61741">
        <ele>272</ele>
        <time>2021-04-03T13:01:42Z</time>
      </trkpt>
      <trkpt lat="43.63104" lon="3.61739">
        <ele>273</ele>
        <time>2021-04-03T13:01:43Z</time>
      </trkpt>
      <trkpt lat="43.63102" lon="3.61737">
        <ele>273</ele>
        <time>2021-04-03T13:01:44Z</time>
      </trkpt>
      <trkpt lat="43.63099" lon="3.61736">
        <ele>273</ele>
        <time>2021-04-03T13:01:45Z</time>
      </trkpt>
      <trkpt lat="43.63097" lon="3.61735">
        <ele>273</ele>
        <time>2021-04-03T13:01:46Z</time>
      </trkpt>
      <trkpt lat="43.63094" lon="3.61734">
        <ele>273</ele>
        <time>2021-04-03T13:01:47Z</time>
      </trkpt>
      <trkpt lat="43.63092" lon="3.61733">
        <ele>273</ele>
        <time>2021-04-03T13:01:48Z</time>
      </trkpt>
      <trkpt lat="43.6309" lon="3.61732">
        <ele>273</ele>
        <time>2021-04-03T13:01:49Z</time>
      </trkpt>
      <trkpt lat="43.63088" lon="3.61731">
        <ele>273</ele>
        <time>2021-04-03T13:01:50Z</time>
      </trkpt>
      <trkpt lat="43.63086" lon="3.61731">
        <ele>273</ele>
        <time>2021-04-03T13:01:51Z</time>
      </trkpt>
      <trkpt lat="43.63084" lon="3.6173">
        <ele>273</ele>
        <time>2021-04-03T13:01:52Z</time>
      </trkpt>
      <trkpt lat="43.63082" lon="3.6173">
        <ele>274</ele>
        <time>2021-04-03T13:01:53Z</time>
      </trkpt>
      <trkpt lat="43.6308" lon="3.6173">
        <ele>274</ele>
        <time>2021-04-03T13:01:54Z</time>
      </trkpt>
      <trkpt lat="43.63078" lon="3.6173">
        <ele>274</ele>
        <time>2021-04-03T13:01:55Z</time>
      </trkpt>
      <trkpt lat="43.63075" lon="3.6173">
        <ele>274</ele>
        <time>2021-04-03T13:01:56Z</time>
      </trkpt>
      <trkpt lat="43.63073" lon="3.6173">
        <ele>274</ele>
        <time>2021-04-03T13:01:57Z</time>
      </trkpt>
      <trkpt lat="43.63071" lon="3.6173">
        <ele>274</ele>
        <time>2021-04-03T13:01:58Z</time>
      </trkpt>
      <trkpt lat="43.63069" lon="3.6173">
        <ele>274</ele>
        <time>2021-04-03T13:01:59Z</time>
      </trkpt>
      <trkpt lat="43.63066" lon="3.6173">
        <ele>274</ele>
        <time>2021-04-03T13:02:00Z</time>
      </trkpt>
      <trkpt lat="43.63064" lon="3.6173">
        <ele>274</ele>
        <time>2021-04-03T13:02:01Z</time>
      </trkpt>
      <trkpt lat="43.63062" lon="3.61731">
        <ele>274</ele>
        <time>2021-04-03T13:02:02Z</time>
      </trkpt>
      <trkpt lat="43.6306" lon="3.61731">
        <ele>276</ele>
        <time>2021-04-03T13:02:03Z</time>
      </trkpt>
      <trkpt lat="43.63057" lon="3.61732">
        <ele>276</ele>
        <time>2021-04-03T13:02:04Z</time>
      </trkpt>
      <trkpt lat="43.63055" lon="3.61732">
        <ele>276</ele>
        <time>2021-04-03T13:02:05Z</time>
      </trkpt>
      <trkpt lat="43.63052" lon="3.61733">
        <ele>276</ele>
        <time>2021-04-03T13:02:06Z</time>
      </trkpt>
      <trkpt lat="43.63049" lon="3.61733">
        <ele>276</ele>
        <time>2021-04-03T13:02:07Z</time>
      </trkpt>
      <trkpt lat="43.63047" lon="3.61734">
        <ele>276</ele>
        <time>2021-04-03T13:02:08Z</time>
      </trkpt>
      <trkpt lat="43.63044" lon="3.61734">
        <ele>276</ele>
        <time>2021-04-03T13:02:09Z</time>
      </trkpt>
      <trkpt lat="43.63041" lon="3.61734">
        <ele>276</ele>
        <time>2021-04-03T13:02:10Z</time>
      </trkpt>
      <trkpt lat="43.63038" lon="3.61734">
        <ele>276</ele>
        <time>2021-04-03T13:02:11Z</time>
      </trkpt>
      <trkpt lat="43.63034" lon="3.61734">
        <ele>276</ele>
        <time>2021-04-03T13:02:12Z</time>
      </trkpt>
      <trkpt lat="43.63031" lon="3.61735">
        <ele>276</ele>
        <time>2021-04-03T13:02:13Z</time>
      </trkpt>
      <trkpt lat="43.63027" lon="3.61734">
        <ele>276</ele>
        <time>2021-04-03T13:02:14Z</time>
      </trkpt>
      <trkpt lat="43.63023" lon="3.61734">
        <ele>276</ele>
        <time>2021-04-03T13:02:15Z</time>
      </trkpt>
      <trkpt lat="43.63018" lon="3.61734">
        <ele>276</ele>
        <time>2021-04-03T13:02:16Z</time>
      </trkpt>
      <trkpt lat="43.63013" lon="3.61734">
        <ele>276</ele>
        <time>2021-04-03T13:02:17Z</time>
      </trkpt>
      <trkpt lat="43.63008" lon="3.61734">
        <ele>276</ele>
        <time>2021-04-03T13:02:18Z</time>
      </trkpt>
      <trkpt lat="43.62998" lon="3.61734">
        <ele>276</ele>
        <time>2021-04-03T13:02:20Z</time>
      </trkpt>
      <trkpt lat="43.62987" lon="3.61733">
        <ele>276</ele>
        <time>2021-04-03T13:02:22Z</time>
      </trkpt>
      <trkpt lat="43.62981" lon="3.61732">
        <ele>275</ele>
        <time>2021-04-03T13:02:23Z</time>
      </trkpt>
      <trkpt lat="43.62975" lon="3.61731">
        <ele>275</ele>
        <time>2021-04-03T13:02:24Z</time>
      </trkpt>
      <trkpt lat="43.62969" lon="3.6173">
        <ele>275</ele>
        <time>2021-04-03T13:02:25Z</time>
      </trkpt>
      <trkpt lat="43.62963" lon="3.61728">
        <ele>275</ele>
        <time>2021-04-03T13:02:26Z</time>
      </trkpt>
      <trkpt lat="43.62957" lon="3.61726">
        <ele>275</ele>
        <time>2021-04-03T13:02:27Z</time>
      </trkpt>
      <trkpt lat="43.62951" lon="3.61724">
        <ele>275</ele>
        <time>2021-04-03T13:02:28Z</time>
      </trkpt>
      <trkpt lat="43.62938" lon="3.61721">
        <ele>275</ele>
        <time>2021-04-03T13:02:30Z</time>
      </trkpt>
      <trkpt lat="43.62931" lon="3.61721">
        <ele>275</ele>
        <time>2021-04-03T13:02:31Z</time>
      </trkpt>
      <trkpt lat="43.62924" lon="3.61721">
        <ele>275</ele>
        <time>2021-04-03T13:02:32Z</time>
      </trkpt>
      <trkpt lat="43.62917" lon="3.61722">
        <ele>273</ele>
        <time>2021-04-03T13:02:33Z</time>
      </trkpt>
      <trkpt lat="43.62909" lon="3.61725">
        <ele>273</ele>
        <time>2021-04-03T13:02:34Z</time>
      </trkpt>
      <trkpt lat="43.62902" lon="3.61727">
        <ele>273</ele>
        <time>2021-04-03T13:02:35Z</time>
      </trkpt>
      <trkpt lat="43.62893" lon="3.61728">
        <ele>273</ele>
        <time>2021-04-03T13:02:36Z</time>
      </trkpt>
      <trkpt lat="43.62885" lon="3.6173">
        <ele>273</ele>
        <time>2021-04-03T13:02:37Z</time>
      </trkpt>
      <trkpt lat="43.62876" lon="3.61732">
        <ele>273</ele>
        <time>2021-04-03T13:02:38Z</time>
      </trkpt>
      <trkpt lat="43.62866" lon="3.61735">
        <ele>273</ele>
        <time>2021-04-03T13:02:39Z</time>
      </trkpt>
      <trkpt lat="43.62857" lon="3.61738">
        <ele>273</ele>
        <time>2021-04-03T13:02:40Z</time>
      </trkpt>
      <trkpt lat="43.62848" lon="3.61742">
        <ele>273</ele>
        <time>2021-04-03T13:02:41Z</time>
      </trkpt>
      <trkpt lat="43.62829" lon="3.61749">
        <ele>273</ele>
        <time>2021-04-03T13:02:43Z</time>
      </trkpt>
      <trkpt lat="43.62819" lon="3.61753">
        <ele>273</ele>
        <time>2021-04-03T13:02:44Z</time>
      </trkpt>
      <trkpt lat="43.6281" lon="3.61757">
        <ele>273</ele>
        <time>2021-04-03T13:02:45Z</time>
      </trkpt>
      <trkpt lat="43.628" lon="3.61761">
        <ele>273</ele>
        <time>2021-04-03T13:02:46Z</time>
      </trkpt>
      <trkpt lat="43.62791" lon="3.61765">
        <ele>273</ele>
        <time>2021-04-03T13:02:47Z</time>
      </trkpt>
      <trkpt lat="43.62772" lon="3.61774">
        <ele>273</ele>
        <time>2021-04-03T13:02:49Z</time>
      </trkpt>
      <trkpt lat="43.62762" lon="3.61779">
        <ele>273</ele>
        <time>2021-04-03T13:02:50Z</time>
      </trkpt>
      <trkpt lat="43.62743" lon="3.61789">
        <ele>273</ele>
        <time>2021-04-03T13:02:52Z</time>
      </trkpt>
      <trkpt lat="43.62725" lon="3.61798">
        <ele>273</ele>
        <time>2021-04-03T13:02:54Z</time>
      </trkpt>
      <trkpt lat="43.62717" lon="3.61802">
        <ele>273</ele>
        <time>2021-04-03T13:02:55Z</time>
      </trkpt>
      <trkpt lat="43.62709" lon="3.61807">
        <ele>273</ele>
        <time>2021-04-03T13:02:56Z</time>
      </trkpt>
      <trkpt lat="43.62701" lon="3.61811">
        <ele>273</ele>
        <time>2021-04-03T13:02:57Z</time>
      </trkpt>
      <trkpt lat="43.62694" lon="3.61815">
        <ele>273</ele>
        <time>2021-04-03T13:02:58Z</time>
      </trkpt>
      <trkpt lat="43.6268" lon="3.61822">
        <ele>273</ele>
        <time>2021-04-03T13:03:00Z</time>
      </trkpt>
      <trkpt lat="43.62674" lon="3.61826">
        <ele>255</ele>
        <time>2021-04-03T13:03:02Z</time>
      </trkpt>
      <trkpt lat="43.6266" lon="3.61833">
        <ele>255</ele>
        <time>2021-04-03T13:03:03Z</time>
      </trkpt>
      <trkpt lat="43.62654" lon="3.61837">
        <ele>255</ele>
        <time>2021-04-03T13:03:04Z</time>
      </trkpt>
      <trkpt lat="43.62648" lon="3.61842">
        <ele>255</ele>
        <time>2021-04-03T13:03:05Z</time>
      </trkpt>
      <trkpt lat="43.62642" lon="3.61846">
        <ele>255</ele>
        <time>2021-04-03T13:03:06Z</time>
      </trkpt>
      <trkpt lat="43.62629" lon="3.61856">
        <ele>255</ele>
        <time>2021-04-03T13:03:08Z</time>
      </trkpt>
      <trkpt lat="43.62623" lon="3.61861">
        <ele>255</ele>
        <time>2021-04-03T13:03:09Z</time>
      </trkpt>
      <trkpt lat="43.62616" lon="3.61866">
        <ele>255</ele>
        <time>2021-04-03T13:03:10Z</time>
      </trkpt>
      <trkpt lat="43.62609" lon="3.61871">
        <ele>255</ele>
        <time>2021-04-03T13:03:11Z</time>
      </trkpt>
      <trkpt lat="43.62603" lon="3.61876">
        <ele>250</ele>
        <time>2021-04-03T13:03:12Z</time>
      </trkpt>
      <trkpt lat="43.62596" lon="3.61881">
        <ele>250</ele>
        <time>2021-04-03T13:03:13Z</time>
      </trkpt>
      <trkpt lat="43.6259" lon="3.61884">
        <ele>250</ele>
        <time>2021-04-03T13:03:14Z</time>
      </trkpt>
      <trkpt lat="43.62583" lon="3.61886">
        <ele>250</ele>
        <time>2021-04-03T13:03:15Z</time>
      </trkpt>
      <trkpt lat="43.62576" lon="3.61886">
        <ele>250</ele>
        <time>2021-04-03T13:03:16Z</time>
      </trkpt>
      <trkpt lat="43.6257" lon="3.61885">
        <ele>250</ele>
        <time>2021-04-03T13:03:17Z</time>
      </trkpt>
      <trkpt lat="43.62564" lon="3.61883">
        <ele>250</ele>
        <time>2021-04-03T13:03:18Z</time>
      </trkpt>
      <trkpt lat="43.62557" lon="3.6188">
        <ele>250</ele>
        <time>2021-04-03T13:03:19Z</time>
      </trkpt>
      <trkpt lat="43.62549" lon="3.61875">
        <ele>250</ele>
        <time>2021-04-03T13:03:20Z</time>
      </trkpt>
      <trkpt lat="43.62543" lon="3.61869">
        <ele>250</ele>
        <time>2021-04-03T13:03:21Z</time>
      </trkpt>
      <trkpt lat="43.62537" lon="3.61864">
        <ele>244</ele>
        <time>2021-04-03T13:03:22Z</time>
      </trkpt>
      <trkpt lat="43.62531" lon="3.61862">
        <ele>244</ele>
        <time>2021-04-03T13:03:23Z</time>
      </trkpt>
      <trkpt lat="43.62526" lon="3.61864">
        <ele>244</ele>
        <time>2021-04-03T13:03:24Z</time>
      </trkpt>
      <trkpt lat="43.62522" lon="3.61868">
        <ele>244</ele>
        <time>2021-04-03T13:03:25Z</time>
      </trkpt>
      <trkpt lat="43.62519" lon="3.61875">
        <ele>244</ele>
        <time>2021-04-03T13:03:26Z</time>
      </trkpt>
      <trkpt lat="43.62516" lon="3.61883">
        <ele>244</ele>
        <time>2021-04-03T13:03:27Z</time>
      </trkpt>
      <trkpt lat="43.62514" lon="3.61891">
        <ele>244</ele>
        <time>2021-04-03T13:03:28Z</time>
      </trkpt>
      <trkpt lat="43.62513" lon="3.61899">
        <ele>244</ele>
        <time>2021-04-03T13:03:29Z</time>
      </trkpt>
      <trkpt lat="43.62511" lon="3.61907">
        <ele>244</ele>
        <time>2021-04-03T13:03:30Z</time>
      </trkpt>
      <trkpt lat="43.62508" lon="3.61914">
        <ele>244</ele>
        <time>2021-04-03T13:03:31Z</time>
      </trkpt>
      <trkpt lat="43.62507" lon="3.61921">
        <ele>239</ele>
        <time>2021-04-03T13:03:32Z</time>
      </trkpt>
      <trkpt lat="43.62505" lon="3.61929">
        <ele>239</ele>
        <time>2021-04-03T13:03:33Z</time>
      </trkpt>
      <trkpt lat="43.62503" lon="3.61936">
        <ele>239</ele>
        <time>2021-04-03T13:03:34Z</time>
      </trkpt>
      <trkpt lat="43.62501" lon="3.61944">
        <ele>239</ele>
        <time>2021-04-03T13:03:35Z</time>
      </trkpt>
      <trkpt lat="43.62499" lon="3.61952">
        <ele>239</ele>
        <time>2021-04-03T13:03:37Z</time>
      </trkpt>
      <trkpt lat="43.62495" lon="3.61969">
        <ele>239</ele>
        <time>2021-04-03T13:03:38Z</time>
      </trkpt>
      <trkpt lat="43.62493" lon="3.61977">
        <ele>239</ele>
        <time>2021-04-03T13:03:39Z</time>
      </trkpt>
      <trkpt lat="43.62491" lon="3.61986">
        <ele>239</ele>
        <time>2021-04-03T13:03:40Z</time>
      </trkpt>
      <trkpt lat="43.62488" lon="3.61995">
        <ele>239</ele>
        <time>2021-04-03T13:03:41Z</time>
      </trkpt>
      <trkpt lat="43.62485" lon="3.62004">
        <ele>239</ele>
        <time>2021-04-03T13:03:42Z</time>
      </trkpt>
      <trkpt lat="43.62482" lon="3.62014">
        <ele>236</ele>
        <time>2021-04-03T13:03:43Z</time>
      </trkpt>
      <trkpt lat="43.62478" lon="3.62023">
        <ele>236</ele>
        <time>2021-04-03T13:03:44Z</time>
      </trkpt>
      <trkpt lat="43.62473" lon="3.62032">
        <ele>236</ele>
        <time>2021-04-03T13:03:45Z</time>
      </trkpt>
      <trkpt lat="43.62468" lon="3.62042">
        <ele>236</ele>
        <time>2021-04-03T13:03:46Z</time>
      </trkpt>
      <trkpt lat="43.62462" lon="3.62052">
        <ele>236</ele>
        <time>2021-04-03T13:03:47Z</time>
      </trkpt>
      <trkpt lat="43.62457" lon="3.62064">
        <ele>236</ele>
        <time>2021-04-03T13:03:48Z</time>
      </trkpt>
      <trkpt lat="43.62453" lon="3.62076">
        <ele>236</ele>
        <time>2021-04-03T13:03:49Z</time>
      </trkpt>
      <trkpt lat="43.6245" lon="3.62088">
        <ele>236</ele>
        <time>2021-04-03T13:03:50Z</time>
      </trkpt>
      <trkpt lat="43.62447" lon="3.62101">
        <ele>236</ele>
        <time>2021-04-03T13:03:51Z</time>
      </trkpt>
      <trkpt lat="43.62444" lon="3.62113">
        <ele>236</ele>
        <time>2021-04-03T13:03:52Z</time>
      </trkpt>
      <trkpt lat="43.62442" lon="3.62125">
        <ele>228</ele>
        <time>2021-04-03T13:03:53Z</time>
      </trkpt>
      <trkpt lat="43.6244" lon="3.62137">
        <ele>228</ele>
        <time>2021-04-03T13:03:54Z</time>
      </trkpt>
      <trkpt lat="43.62438" lon="3.62149">
        <ele>228</ele>
        <time>2021-04-03T13:03:55Z</time>
      </trkpt>
      <trkpt lat="43.62437" lon="3.62161">
        <ele>228</ele>
        <time>2021-04-03T13:03:56Z</time>
      </trkpt>
      <trkpt lat="43.62434" lon="3.62185">
        <ele>228</ele>
        <time>2021-04-03T13:03:58Z</time>
      </trkpt>
      <trkpt lat="43.62433" lon="3.62197">
        <ele>228</ele>
        <time>2021-04-03T13:03:59Z</time>
      </trkpt>
      <trkpt lat="43.62432" lon="3.62208">
        <ele>228</ele>
        <time>2021-04-03T13:04:00Z</time>
      </trkpt>
      <trkpt lat="43.62432" lon="3.62217">
        <ele>228</ele>
        <time>2021-04-03T13:04:01Z</time>
      </trkpt>
      <trkpt lat="43.62432" lon="3.62226">
        <ele>228</ele>
        <time>2021-04-03T13:04:02Z</time>
      </trkpt>
      <trkpt lat="43.62432" lon="3.62233">
        <ele>218</ele>
        <time>2021-04-03T13:04:03Z</time>
      </trkpt>
      <trkpt lat="43.62432" lon="3.62238">
        <ele>218</ele>
        <time>2021-04-03T13:04:04Z</time>
      </trkpt>
      <trkpt lat="43.62433" lon="3.62234">
        <ele>214</ele>
        <time>2021-04-03T13:04:18Z</time>
      </trkpt>
      <trkpt lat="43.62431" lon="3.62234">
        <ele>214</ele>
        <time>2021-04-03T13:04:21Z</time>
      </trkpt>
      <trkpt lat="43.62431" lon="3.62231">
        <ele>214</ele>
        <time>2021-04-03T13:04:26Z</time>
      </trkpt>
      <trkpt lat="43.62431" lon="3.62229">
        <ele>213</ele>
        <time>2021-04-03T13:04:33Z</time>
      </trkpt>
    </trkseg>
  </trk>
</gpx>